<?xml version="1.0" encoding="UTF-8" standalone="no" ?>
<gpx xmlns="http://www.topografix.com/GPX/1/1" creator="MapSource 6.15.6" version="1.1" xmlns:xsi="http://www.w3.org/2001/XMLSchema-instance" xsi:schemaLocation="http://www.topografix.com/GPX/1/1 http://www.topografix.com/GPX/1/1/gpx.xsd">

  <metadata>
    <link href="http://www.garmin.com">
      <text>Garmin International</text>
    </link>
    <time>2013-06-16T16:04:58Z</time>
    <bounds maxlat="38.8180960" maxlon="15.2465740" minlat="38.1236570" minlon="14.5832390"/>
  </metadata>

  <trk>
    <name>Aktueller Track: 09 JUN 2013 08:18</name>
    <extensions>
      <gpxx:TrackExtension xmlns:gpxx="http://www.garmin.com/xmlschemas/GpxExtensions/v3">
        <gpxx:DisplayColor>Red</gpxx:DisplayColor>
      </gpxx:TrackExtension>
    </extensions>
    <trkseg>
      <trkpt lat="38.1236800" lon="15.1123290">
        <ele>5.9100000</ele>
        <time>2013-06-09T06:18:35Z</time>
      </trkpt>
      <trkpt lat="38.1236800" lon="15.1123320">
        <ele>5.9100000</ele>
        <time>2013-06-09T06:19:03Z</time>
      </trkpt>
      <trkpt lat="38.1236800" lon="15.1123320">
        <ele>5.9100000</ele>
        <time>2013-06-09T06:19:33Z</time>
      </trkpt>
      <trkpt lat="38.1236800" lon="15.1123320">
        <ele>4.9400000</ele>
        <time>2013-06-09T06:19:35Z</time>
      </trkpt>
      <trkpt lat="38.1236800" lon="15.1123290">
        <ele>4.9400000</ele>
        <time>2013-06-09T06:20:03Z</time>
      </trkpt>
      <trkpt lat="38.1236800" lon="15.1123290">
        <ele>7.3500000</ele>
        <time>2013-06-09T06:20:15Z</time>
      </trkpt>
      <trkpt lat="38.1236800" lon="15.1123300">
        <ele>8.3100000</ele>
        <time>2013-06-09T06:20:42Z</time>
      </trkpt>
      <trkpt lat="38.1236800" lon="15.1123290">
        <ele>6.8700000</ele>
        <time>2013-06-09T06:21:07Z</time>
      </trkpt>
      <trkpt lat="38.1236840" lon="15.1123320">
        <ele>7.3500000</ele>
        <time>2013-06-09T06:21:40Z</time>
      </trkpt>
      <trkpt lat="38.1236840" lon="15.1123320">
        <ele>8.7900000</ele>
        <time>2013-06-09T06:21:43Z</time>
      </trkpt>
      <trkpt lat="38.1236800" lon="15.1123340">
        <ele>9.2700000</ele>
        <time>2013-06-09T06:22:02Z</time>
      </trkpt>
      <trkpt lat="38.1236840" lon="15.1123390">
        <ele>11.1900000</ele>
        <time>2013-06-09T06:22:33Z</time>
      </trkpt>
      <trkpt lat="38.1236840" lon="15.1123390">
        <ele>11.6700000</ele>
        <time>2013-06-09T06:23:04Z</time>
      </trkpt>
      <trkpt lat="38.1236800" lon="15.1123410">
        <ele>12.6300000</ele>
        <time>2013-06-09T06:23:32Z</time>
      </trkpt>
      <trkpt lat="38.1236800" lon="15.1123470">
        <ele>12.1500000</ele>
        <time>2013-06-09T06:24:04Z</time>
      </trkpt>
      <trkpt lat="38.1236840" lon="15.1123500">
        <ele>12.1500000</ele>
        <time>2013-06-09T06:24:36Z</time>
      </trkpt>
      <trkpt lat="38.1236880" lon="15.1123510">
        <ele>12.1500000</ele>
        <time>2013-06-09T06:25:10Z</time>
      </trkpt>
      <trkpt lat="38.1236880" lon="15.1123500">
        <ele>11.1900000</ele>
        <time>2013-06-09T06:25:33Z</time>
      </trkpt>
      <trkpt lat="38.1236840" lon="15.1123430">
        <ele>10.7100000</ele>
        <time>2013-06-09T06:25:55Z</time>
      </trkpt>
      <trkpt lat="38.1236840" lon="15.1123450">
        <ele>11.6700000</ele>
        <time>2013-06-09T06:26:25Z</time>
      </trkpt>
      <trkpt lat="38.1236840" lon="15.1123450">
        <ele>11.6700000</ele>
        <time>2013-06-09T06:26:53Z</time>
      </trkpt>
      <trkpt lat="38.1236840" lon="15.1123370">
        <ele>11.6700000</ele>
        <time>2013-06-09T06:27:31Z</time>
      </trkpt>
      <trkpt lat="38.1236800" lon="15.1123400">
        <ele>11.6700000</ele>
        <time>2013-06-09T06:27:58Z</time>
      </trkpt>
      <trkpt lat="38.1236800" lon="15.1123390">
        <ele>11.1900000</ele>
        <time>2013-06-09T06:28:28Z</time>
      </trkpt>
      <trkpt lat="38.1236880" lon="15.1123360">
        <ele>11.1900000</ele>
        <time>2013-06-09T06:29:01Z</time>
      </trkpt>
      <trkpt lat="38.1236880" lon="15.1123360">
        <ele>11.1900000</ele>
        <time>2013-06-09T06:29:30Z</time>
      </trkpt>
      <trkpt lat="38.1236880" lon="15.1123370">
        <ele>11.1900000</ele>
        <time>2013-06-09T06:29:57Z</time>
      </trkpt>
      <trkpt lat="38.1236880" lon="15.1123330">
        <ele>10.7100000</ele>
        <time>2013-06-09T06:30:25Z</time>
      </trkpt>
      <trkpt lat="38.1236880" lon="15.1123330">
        <ele>10.7100000</ele>
        <time>2013-06-09T06:30:50Z</time>
      </trkpt>
      <trkpt lat="38.1236840" lon="15.1123320">
        <ele>10.7100000</ele>
        <time>2013-06-09T06:31:17Z</time>
      </trkpt>
      <trkpt lat="38.1236840" lon="15.1123290">
        <ele>10.7100000</ele>
        <time>2013-06-09T06:31:50Z</time>
      </trkpt>
      <trkpt lat="38.1236840" lon="15.1123230">
        <ele>10.2300000</ele>
        <time>2013-06-09T06:32:24Z</time>
      </trkpt>
      <trkpt lat="38.1236840" lon="15.1123230">
        <ele>10.2300000</ele>
        <time>2013-06-09T06:32:58Z</time>
      </trkpt>
      <trkpt lat="38.1236880" lon="15.1123200">
        <ele>10.2300000</ele>
        <time>2013-06-09T06:33:31Z</time>
      </trkpt>
      <trkpt lat="38.1236570" lon="15.1124610">
        <ele>9.7500000</ele>
        <time>2013-06-09T06:34:02Z</time>
      </trkpt>
      <trkpt lat="38.1237110" lon="15.1125970">
        <ele>10.2300000</ele>
        <time>2013-06-09T06:34:32Z</time>
      </trkpt>
      <trkpt lat="38.1238520" lon="15.1126780">
        <ele>9.7500000</ele>
        <time>2013-06-09T06:35:00Z</time>
      </trkpt>
      <trkpt lat="38.1241070" lon="15.1127110">
        <ele>9.7500000</ele>
        <time>2013-06-09T06:35:29Z</time>
      </trkpt>
      <trkpt lat="38.1244200" lon="15.1128580">
        <ele>10.2300000</ele>
        <time>2013-06-09T06:36:01Z</time>
      </trkpt>
      <trkpt lat="38.1247600" lon="15.1128310">
        <ele>8.7900000</ele>
        <time>2013-06-09T06:36:32Z</time>
      </trkpt>
      <trkpt lat="38.1250460" lon="15.1125520">
        <ele>9.2700000</ele>
        <time>2013-06-09T06:37:05Z</time>
      </trkpt>
      <trkpt lat="38.1253590" lon="15.1123070">
        <ele>8.7900000</ele>
        <time>2013-06-09T06:37:34Z</time>
      </trkpt>
      <trkpt lat="38.1257020" lon="15.1122270">
        <ele>9.2700000</ele>
        <time>2013-06-09T06:38:03Z</time>
      </trkpt>
      <trkpt lat="38.1260950" lon="15.1121980">
        <ele>9.2700000</ele>
        <time>2013-06-09T06:38:36Z</time>
      </trkpt>
      <trkpt lat="38.1264500" lon="15.1119570">
        <ele>8.7900000</ele>
        <time>2013-06-09T06:39:10Z</time>
      </trkpt>
      <trkpt lat="38.1266590" lon="15.1116580">
        <ele>7.3500000</ele>
        <time>2013-06-09T06:39:36Z</time>
      </trkpt>
      <trkpt lat="38.1268080" lon="15.1113800">
        <ele>8.3100000</ele>
        <time>2013-06-09T06:39:57Z</time>
      </trkpt>
      <trkpt lat="38.1270330" lon="15.1109480">
        <ele>8.3100000</ele>
        <time>2013-06-09T06:40:30Z</time>
      </trkpt>
      <trkpt lat="38.1272930" lon="15.1108880">
        <ele>8.7900000</ele>
        <time>2013-06-09T06:40:53Z</time>
      </trkpt>
      <trkpt lat="38.1275600" lon="15.1112140">
        <ele>8.7900000</ele>
        <time>2013-06-09T06:41:25Z</time>
      </trkpt>
      <trkpt lat="38.1278690" lon="15.1114230">
        <ele>9.2700000</ele>
        <time>2013-06-09T06:41:54Z</time>
      </trkpt>
      <trkpt lat="38.1281430" lon="15.1114820">
        <ele>8.3100000</ele>
        <time>2013-06-09T06:42:19Z</time>
      </trkpt>
      <trkpt lat="38.1284370" lon="15.1113830">
        <ele>8.7900000</ele>
        <time>2013-06-09T06:42:45Z</time>
      </trkpt>
      <trkpt lat="38.1287460" lon="15.1112350">
        <ele>9.2700000</ele>
        <time>2013-06-09T06:43:13Z</time>
      </trkpt>
      <trkpt lat="38.1291580" lon="15.1110470">
        <ele>8.7900000</ele>
        <time>2013-06-09T06:43:36Z</time>
      </trkpt>
      <trkpt lat="38.1298600" lon="15.1106810">
        <ele>9.2700000</ele>
        <time>2013-06-09T06:44:02Z</time>
      </trkpt>
      <trkpt lat="38.1305580" lon="15.1103940">
        <ele>8.7900000</ele>
        <time>2013-06-09T06:44:26Z</time>
      </trkpt>
      <trkpt lat="38.1312220" lon="15.1101230">
        <ele>8.7900000</ele>
        <time>2013-06-09T06:44:49Z</time>
      </trkpt>
      <trkpt lat="38.1319730" lon="15.1098460">
        <ele>9.7500000</ele>
        <time>2013-06-09T06:45:15Z</time>
      </trkpt>
      <trkpt lat="38.1328120" lon="15.1095020">
        <ele>9.2700000</ele>
        <time>2013-06-09T06:45:44Z</time>
      </trkpt>
      <trkpt lat="38.1335490" lon="15.1091620">
        <ele>9.2700000</ele>
        <time>2013-06-09T06:46:10Z</time>
      </trkpt>
      <trkpt lat="38.1342930" lon="15.1088710">
        <ele>9.7500000</ele>
        <time>2013-06-09T06:46:36Z</time>
      </trkpt>
      <trkpt lat="38.1350590" lon="15.1086450">
        <ele>9.2700000</ele>
        <time>2013-06-09T06:47:02Z</time>
      </trkpt>
      <trkpt lat="38.1357920" lon="15.1083830">
        <ele>8.7900000</ele>
        <time>2013-06-09T06:47:28Z</time>
      </trkpt>
      <trkpt lat="38.1365360" lon="15.1081120">
        <ele>8.7900000</ele>
        <time>2013-06-09T06:47:54Z</time>
      </trkpt>
      <trkpt lat="38.1372720" lon="15.1079700">
        <ele>9.7500000</ele>
        <time>2013-06-09T06:48:19Z</time>
      </trkpt>
      <trkpt lat="38.1379620" lon="15.1077670">
        <ele>8.7900000</ele>
        <time>2013-06-09T06:48:43Z</time>
      </trkpt>
      <trkpt lat="38.1386260" lon="15.1075430">
        <ele>9.2700000</ele>
        <time>2013-06-09T06:49:06Z</time>
      </trkpt>
      <trkpt lat="38.1393890" lon="15.1073310">
        <ele>9.2700000</ele>
        <time>2013-06-09T06:49:33Z</time>
      </trkpt>
      <trkpt lat="38.1399730" lon="15.1070470">
        <ele>8.7900000</ele>
        <time>2013-06-09T06:49:54Z</time>
      </trkpt>
      <trkpt lat="38.1406480" lon="15.1066900">
        <ele>8.7900000</ele>
        <time>2013-06-09T06:50:19Z</time>
      </trkpt>
      <trkpt lat="38.1412320" lon="15.1063900">
        <ele>8.7900000</ele>
        <time>2013-06-09T06:50:40Z</time>
      </trkpt>
      <trkpt lat="38.1419300" lon="15.1059940">
        <ele>8.3100000</ele>
        <time>2013-06-09T06:51:06Z</time>
      </trkpt>
      <trkpt lat="38.1426580" lon="15.1055910">
        <ele>8.3100000</ele>
        <time>2013-06-09T06:51:33Z</time>
      </trkpt>
      <trkpt lat="38.1434360" lon="15.1051770">
        <ele>9.2700000</ele>
        <time>2013-06-09T06:52:01Z</time>
      </trkpt>
      <trkpt lat="38.1440730" lon="15.1048130">
        <ele>8.7900000</ele>
        <time>2013-06-09T06:52:25Z</time>
      </trkpt>
      <trkpt lat="38.1446340" lon="15.1045000">
        <ele>8.7900000</ele>
        <time>2013-06-09T06:52:46Z</time>
      </trkpt>
      <trkpt lat="38.1452900" lon="15.1042120">
        <ele>8.7900000</ele>
        <time>2013-06-09T06:53:10Z</time>
      </trkpt>
      <trkpt lat="38.1460950" lon="15.1039770">
        <ele>9.2700000</ele>
        <time>2013-06-09T06:53:38Z</time>
      </trkpt>
      <trkpt lat="38.1468010" lon="15.1037530">
        <ele>8.3100000</ele>
        <time>2013-06-09T06:54:03Z</time>
      </trkpt>
      <trkpt lat="38.1476170" lon="15.1034700">
        <ele>8.3100000</ele>
        <time>2013-06-09T06:54:32Z</time>
      </trkpt>
      <trkpt lat="38.1484150" lon="15.1031940">
        <ele>8.7900000</ele>
        <time>2013-06-09T06:55:00Z</time>
      </trkpt>
      <trkpt lat="38.1489490" lon="15.1029350">
        <ele>8.7900000</ele>
        <time>2013-06-09T06:55:19Z</time>
      </trkpt>
      <trkpt lat="38.1494180" lon="15.1026910">
        <ele>8.7900000</ele>
        <time>2013-06-09T06:55:36Z</time>
      </trkpt>
      <trkpt lat="38.1498760" lon="15.1025000">
        <ele>8.7900000</ele>
        <time>2013-06-09T06:55:53Z</time>
      </trkpt>
      <trkpt lat="38.1505810" lon="15.1022400">
        <ele>8.7900000</ele>
        <time>2013-06-09T06:56:18Z</time>
      </trkpt>
      <trkpt lat="38.1511990" lon="15.1020120">
        <ele>8.7900000</ele>
        <time>2013-06-09T06:56:40Z</time>
      </trkpt>
      <trkpt lat="38.1518360" lon="15.1017560">
        <ele>8.7900000</ele>
        <time>2013-06-09T06:57:03Z</time>
      </trkpt>
      <trkpt lat="38.1526180" lon="15.1014390">
        <ele>8.7900000</ele>
        <time>2013-06-09T06:57:31Z</time>
      </trkpt>
      <trkpt lat="38.1532250" lon="15.1011800">
        <ele>9.2700000</ele>
        <time>2013-06-09T06:57:53Z</time>
      </trkpt>
      <trkpt lat="38.1540640" lon="15.1008370">
        <ele>8.7900000</ele>
        <time>2013-06-09T06:58:23Z</time>
      </trkpt>
      <trkpt lat="38.1547360" lon="15.1005360">
        <ele>8.7900000</ele>
        <time>2013-06-09T06:58:47Z</time>
      </trkpt>
      <trkpt lat="38.1554340" lon="15.1002190">
        <ele>9.2700000</ele>
        <time>2013-06-09T06:59:12Z</time>
      </trkpt>
      <trkpt lat="38.1561390" lon="15.0999070">
        <ele>8.7900000</ele>
        <time>2013-06-09T06:59:37Z</time>
      </trkpt>
      <trkpt lat="38.1568910" lon="15.0995710">
        <ele>9.2700000</ele>
        <time>2013-06-09T07:00:04Z</time>
      </trkpt>
      <trkpt lat="38.1575700" lon="15.0992650">
        <ele>9.2700000</ele>
        <time>2013-06-09T07:00:28Z</time>
      </trkpt>
      <trkpt lat="38.1581800" lon="15.0989890">
        <ele>9.2700000</ele>
        <time>2013-06-09T07:00:50Z</time>
      </trkpt>
      <trkpt lat="38.1588480" lon="15.0986960">
        <ele>9.2700000</ele>
        <time>2013-06-09T07:01:14Z</time>
      </trkpt>
      <trkpt lat="38.1595420" lon="15.0983980">
        <ele>9.2700000</ele>
        <time>2013-06-09T07:01:39Z</time>
      </trkpt>
      <trkpt lat="38.1601680" lon="15.0981240">
        <ele>8.7900000</ele>
        <time>2013-06-09T07:02:01Z</time>
      </trkpt>
      <trkpt lat="38.1608050" lon="15.0978420">
        <ele>8.7900000</ele>
        <time>2013-06-09T07:02:24Z</time>
      </trkpt>
      <trkpt lat="38.1617010" lon="15.0974290">
        <ele>9.2700000</ele>
        <time>2013-06-09T07:02:56Z</time>
      </trkpt>
      <trkpt lat="38.1624180" lon="15.0971000">
        <ele>8.7900000</ele>
        <time>2013-06-09T07:03:22Z</time>
      </trkpt>
      <trkpt lat="38.1630710" lon="15.0968090">
        <ele>8.7900000</ele>
        <time>2013-06-09T07:03:45Z</time>
      </trkpt>
      <trkpt lat="38.1637460" lon="15.0965100">
        <ele>9.2700000</ele>
        <time>2013-06-09T07:04:09Z</time>
      </trkpt>
      <trkpt lat="38.1645320" lon="15.0961570">
        <ele>9.2700000</ele>
        <time>2013-06-09T07:04:37Z</time>
      </trkpt>
      <trkpt lat="38.1651990" lon="15.0958690">
        <ele>9.2700000</ele>
        <time>2013-06-09T07:05:01Z</time>
      </trkpt>
      <trkpt lat="38.1659470" lon="15.0955210">
        <ele>8.7900000</ele>
        <time>2013-06-09T07:05:28Z</time>
      </trkpt>
      <trkpt lat="38.1665880" lon="15.0952200">
        <ele>8.3100000</ele>
        <time>2013-06-09T07:05:51Z</time>
      </trkpt>
      <trkpt lat="38.1671940" lon="15.0949880">
        <ele>8.7900000</ele>
        <time>2013-06-09T07:06:13Z</time>
      </trkpt>
      <trkpt lat="38.1678890" lon="15.0946720">
        <ele>8.7900000</ele>
        <time>2013-06-09T07:06:38Z</time>
      </trkpt>
      <trkpt lat="38.1685300" lon="15.0943610">
        <ele>8.7900000</ele>
        <time>2013-06-09T07:07:01Z</time>
      </trkpt>
      <trkpt lat="38.1692500" lon="15.0940600">
        <ele>8.7900000</ele>
        <time>2013-06-09T07:07:27Z</time>
      </trkpt>
      <trkpt lat="38.1697730" lon="15.0938950">
        <ele>9.2700000</ele>
        <time>2013-06-09T07:07:46Z</time>
      </trkpt>
      <trkpt lat="38.1703410" lon="15.0936380">
        <ele>8.7900000</ele>
        <time>2013-06-09T07:08:07Z</time>
      </trkpt>
      <trkpt lat="38.1710050" lon="15.0933850">
        <ele>8.7900000</ele>
        <time>2013-06-09T07:08:31Z</time>
      </trkpt>
      <trkpt lat="38.1717800" lon="15.0930600">
        <ele>8.7900000</ele>
        <time>2013-06-09T07:08:59Z</time>
      </trkpt>
      <trkpt lat="38.1724210" lon="15.0928270">
        <ele>8.7900000</ele>
        <time>2013-06-09T07:09:22Z</time>
      </trkpt>
      <trkpt lat="38.1731190" lon="15.0925810">
        <ele>9.2700000</ele>
        <time>2013-06-09T07:09:47Z</time>
      </trkpt>
      <trkpt lat="38.1737020" lon="15.0923630">
        <ele>9.2700000</ele>
        <time>2013-06-09T07:10:08Z</time>
      </trkpt>
      <trkpt lat="38.1743700" lon="15.0921230">
        <ele>8.7900000</ele>
        <time>2013-06-09T07:10:32Z</time>
      </trkpt>
      <trkpt lat="38.1752740" lon="15.0917980">
        <ele>8.7900000</ele>
        <time>2013-06-09T07:11:04Z</time>
      </trkpt>
      <trkpt lat="38.1759680" lon="15.0915480">
        <ele>9.2700000</ele>
        <time>2013-06-09T07:11:29Z</time>
      </trkpt>
      <trkpt lat="38.1766660" lon="15.0912890">
        <ele>8.7900000</ele>
        <time>2013-06-09T07:11:54Z</time>
      </trkpt>
      <trkpt lat="38.1773450" lon="15.0910490">
        <ele>8.7900000</ele>
        <time>2013-06-09T07:12:18Z</time>
      </trkpt>
      <trkpt lat="38.1779290" lon="15.0908340">
        <ele>8.7900000</ele>
        <time>2013-06-09T07:12:39Z</time>
      </trkpt>
      <trkpt lat="38.1785660" lon="15.0906020">
        <ele>8.7900000</ele>
        <time>2013-06-09T07:13:02Z</time>
      </trkpt>
      <trkpt lat="38.1792300" lon="15.0903390">
        <ele>8.7900000</ele>
        <time>2013-06-09T07:13:26Z</time>
      </trkpt>
      <trkpt lat="38.1799350" lon="15.0900800">
        <ele>8.7900000</ele>
        <time>2013-06-09T07:13:51Z</time>
      </trkpt>
      <trkpt lat="38.1805800" lon="15.0898550">
        <ele>8.7900000</ele>
        <time>2013-06-09T07:14:14Z</time>
      </trkpt>
      <trkpt lat="38.1811260" lon="15.0896640">
        <ele>8.7900000</ele>
        <time>2013-06-09T07:14:34Z</time>
      </trkpt>
      <trkpt lat="38.1817970" lon="15.0894200">
        <ele>8.7900000</ele>
        <time>2013-06-09T07:14:58Z</time>
      </trkpt>
      <trkpt lat="38.1824380" lon="15.0891840">
        <ele>8.7900000</ele>
        <time>2013-06-09T07:15:21Z</time>
      </trkpt>
      <trkpt lat="38.1831280" lon="15.0889230">
        <ele>9.2700000</ele>
        <time>2013-06-09T07:15:46Z</time>
      </trkpt>
      <trkpt lat="38.1837960" lon="15.0886730">
        <ele>8.7900000</ele>
        <time>2013-06-09T07:16:10Z</time>
      </trkpt>
      <trkpt lat="38.1845510" lon="15.0883910">
        <ele>9.2700000</ele>
        <time>2013-06-09T07:16:37Z</time>
      </trkpt>
      <trkpt lat="38.1851580" lon="15.0881540">
        <ele>8.7900000</ele>
        <time>2013-06-09T07:16:59Z</time>
      </trkpt>
      <trkpt lat="38.1858440" lon="15.0878970">
        <ele>8.7900000</ele>
        <time>2013-06-09T07:17:24Z</time>
      </trkpt>
      <trkpt lat="38.1865690" lon="15.0876220">
        <ele>9.2700000</ele>
        <time>2013-06-09T07:17:50Z</time>
      </trkpt>
      <trkpt lat="38.1873700" lon="15.0873180">
        <ele>9.2700000</ele>
        <time>2013-06-09T07:18:19Z</time>
      </trkpt>
      <trkpt lat="38.1880840" lon="15.0870470">
        <ele>9.2700000</ele>
        <time>2013-06-09T07:18:45Z</time>
      </trkpt>
      <trkpt lat="38.1888690" lon="15.0867690">
        <ele>9.2700000</ele>
        <time>2013-06-09T07:19:13Z</time>
      </trkpt>
      <trkpt lat="38.1895640" lon="15.0865150">
        <ele>8.7900000</ele>
        <time>2013-06-09T07:19:38Z</time>
      </trkpt>
      <trkpt lat="38.1901930" lon="15.0862860">
        <ele>8.7900000</ele>
        <time>2013-06-09T07:20:01Z</time>
      </trkpt>
      <trkpt lat="38.1909680" lon="15.0860130">
        <ele>8.7900000</ele>
        <time>2013-06-09T07:20:29Z</time>
      </trkpt>
      <trkpt lat="38.1916890" lon="15.0857650">
        <ele>8.7900000</ele>
        <time>2013-06-09T07:20:55Z</time>
      </trkpt>
      <trkpt lat="38.1923750" lon="15.0855010">
        <ele>9.2700000</ele>
        <time>2013-06-09T07:21:20Z</time>
      </trkpt>
      <trkpt lat="38.1929740" lon="15.0852750">
        <ele>8.7900000</ele>
        <time>2013-06-09T07:21:42Z</time>
      </trkpt>
      <trkpt lat="38.1936610" lon="15.0850170">
        <ele>8.7900000</ele>
        <time>2013-06-09T07:22:07Z</time>
      </trkpt>
      <trkpt lat="38.1942670" lon="15.0847850">
        <ele>8.3100000</ele>
        <time>2013-06-09T07:22:29Z</time>
      </trkpt>
      <trkpt lat="38.1947860" lon="15.0845700">
        <ele>8.3100000</ele>
        <time>2013-06-09T07:22:48Z</time>
      </trkpt>
      <trkpt lat="38.1954150" lon="15.0843470">
        <ele>8.3100000</ele>
        <time>2013-06-09T07:23:11Z</time>
      </trkpt>
      <trkpt lat="38.1960680" lon="15.0841080">
        <ele>8.7900000</ele>
        <time>2013-06-09T07:23:35Z</time>
      </trkpt>
      <trkpt lat="38.1965900" lon="15.0839460">
        <ele>8.7900000</ele>
        <time>2013-06-09T07:23:56Z</time>
      </trkpt>
      <trkpt lat="38.1969720" lon="15.0839010">
        <ele>8.3100000</ele>
        <time>2013-06-09T07:24:21Z</time>
      </trkpt>
      <trkpt lat="38.1971820" lon="15.0839890">
        <ele>8.3100000</ele>
        <time>2013-06-09T07:24:41Z</time>
      </trkpt>
      <trkpt lat="38.1973150" lon="15.0841540">
        <ele>8.7900000</ele>
        <time>2013-06-09T07:25:01Z</time>
      </trkpt>
      <trkpt lat="38.1974140" lon="15.0843110">
        <ele>8.3100000</ele>
        <time>2013-06-09T07:25:20Z</time>
      </trkpt>
      <trkpt lat="38.1974950" lon="15.0845130">
        <ele>8.3100000</ele>
        <time>2013-06-09T07:25:41Z</time>
      </trkpt>
      <trkpt lat="38.1976130" lon="15.0846950">
        <ele>8.7900000</ele>
        <time>2013-06-09T07:26:04Z</time>
      </trkpt>
      <trkpt lat="38.1977810" lon="15.0848320">
        <ele>8.7900000</ele>
        <time>2013-06-09T07:26:28Z</time>
      </trkpt>
      <trkpt lat="38.1979370" lon="15.0849540">
        <ele>8.7900000</ele>
        <time>2013-06-09T07:26:50Z</time>
      </trkpt>
      <trkpt lat="38.1980480" lon="15.0851640">
        <ele>8.3100000</ele>
        <time>2013-06-09T07:27:16Z</time>
      </trkpt>
      <trkpt lat="38.1981010" lon="15.0853680">
        <ele>9.2700000</ele>
        <time>2013-06-09T07:27:37Z</time>
      </trkpt>
      <trkpt lat="38.1981960" lon="15.0855360">
        <ele>8.7900000</ele>
        <time>2013-06-09T07:27:58Z</time>
      </trkpt>
      <trkpt lat="38.1982880" lon="15.0856690">
        <ele>8.7900000</ele>
        <time>2013-06-09T07:28:18Z</time>
      </trkpt>
      <trkpt lat="38.1984140" lon="15.0858510">
        <ele>8.7900000</ele>
        <time>2013-06-09T07:28:44Z</time>
      </trkpt>
      <trkpt lat="38.1985090" lon="15.0860130">
        <ele>8.7900000</ele>
        <time>2013-06-09T07:29:06Z</time>
      </trkpt>
      <trkpt lat="38.1986430" lon="15.0861840">
        <ele>8.3100000</ele>
        <time>2013-06-09T07:29:29Z</time>
      </trkpt>
      <trkpt lat="38.1988260" lon="15.0863180">
        <ele>8.7900000</ele>
        <time>2013-06-09T07:29:55Z</time>
      </trkpt>
      <trkpt lat="38.1989670" lon="15.0864840">
        <ele>8.3100000</ele>
        <time>2013-06-09T07:30:19Z</time>
      </trkpt>
      <trkpt lat="38.1990700" lon="15.0866350">
        <ele>8.3100000</ele>
        <time>2013-06-09T07:30:39Z</time>
      </trkpt>
      <trkpt lat="38.1992070" lon="15.0868250">
        <ele>8.7900000</ele>
        <time>2013-06-09T07:31:04Z</time>
      </trkpt>
      <trkpt lat="38.1993450" lon="15.0868340">
        <ele>8.7900000</ele>
        <time>2013-06-09T07:31:21Z</time>
      </trkpt>
      <trkpt lat="38.1996420" lon="15.0866990">
        <ele>8.7900000</ele>
        <time>2013-06-09T07:31:50Z</time>
      </trkpt>
      <trkpt lat="38.1999550" lon="15.0865820">
        <ele>8.7900000</ele>
        <time>2013-06-09T07:32:17Z</time>
      </trkpt>
      <trkpt lat="38.2002370" lon="15.0864940">
        <ele>8.7900000</ele>
        <time>2013-06-09T07:32:42Z</time>
      </trkpt>
      <trkpt lat="38.2005580" lon="15.0863660">
        <ele>8.3100000</ele>
        <time>2013-06-09T07:33:09Z</time>
      </trkpt>
      <trkpt lat="38.2008290" lon="15.0862670">
        <ele>8.7900000</ele>
        <time>2013-06-09T07:33:36Z</time>
      </trkpt>
      <trkpt lat="38.2010380" lon="15.0861360">
        <ele>8.7900000</ele>
        <time>2013-06-09T07:34:03Z</time>
      </trkpt>
      <trkpt lat="38.2012520" lon="15.0860200">
        <ele>8.3100000</ele>
        <time>2013-06-09T07:34:31Z</time>
      </trkpt>
      <trkpt lat="38.2014080" lon="15.0859220">
        <ele>8.3100000</ele>
        <time>2013-06-09T07:34:54Z</time>
      </trkpt>
      <trkpt lat="38.2016300" lon="15.0858070">
        <ele>8.3100000</ele>
        <time>2013-06-09T07:35:24Z</time>
      </trkpt>
      <trkpt lat="38.2018320" lon="15.0857260">
        <ele>8.7900000</ele>
        <time>2013-06-09T07:35:51Z</time>
      </trkpt>
      <trkpt lat="38.2020260" lon="15.0855880">
        <ele>8.7900000</ele>
        <time>2013-06-09T07:36:18Z</time>
      </trkpt>
      <trkpt lat="38.2022970" lon="15.0854330">
        <ele>8.7900000</ele>
        <time>2013-06-09T07:36:41Z</time>
      </trkpt>
      <trkpt lat="38.2026440" lon="15.0852150">
        <ele>8.7900000</ele>
        <time>2013-06-09T07:37:07Z</time>
      </trkpt>
      <trkpt lat="38.2030530" lon="15.0850260">
        <ele>9.2700000</ele>
        <time>2013-06-09T07:37:33Z</time>
      </trkpt>
      <trkpt lat="38.2034910" lon="15.0847850">
        <ele>8.3100000</ele>
        <time>2013-06-09T07:38:00Z</time>
      </trkpt>
      <trkpt lat="38.2039070" lon="15.0846160">
        <ele>8.7900000</ele>
        <time>2013-06-09T07:38:24Z</time>
      </trkpt>
      <trkpt lat="38.2043690" lon="15.0843850">
        <ele>8.7900000</ele>
        <time>2013-06-09T07:38:50Z</time>
      </trkpt>
      <trkpt lat="38.2048190" lon="15.0841810">
        <ele>9.2700000</ele>
        <time>2013-06-09T07:39:15Z</time>
      </trkpt>
      <trkpt lat="38.2052760" lon="15.0839690">
        <ele>8.7900000</ele>
        <time>2013-06-09T07:39:42Z</time>
      </trkpt>
      <trkpt lat="38.2056850" lon="15.0837590">
        <ele>8.7900000</ele>
        <time>2013-06-09T07:40:06Z</time>
      </trkpt>
      <trkpt lat="38.2061310" lon="15.0835700">
        <ele>8.7900000</ele>
        <time>2013-06-09T07:40:33Z</time>
      </trkpt>
      <trkpt lat="38.2065810" lon="15.0834010">
        <ele>8.7900000</ele>
        <time>2013-06-09T07:41:01Z</time>
      </trkpt>
      <trkpt lat="38.2069930" lon="15.0832810">
        <ele>8.7900000</ele>
        <time>2013-06-09T07:41:27Z</time>
      </trkpt>
      <trkpt lat="38.2073750" lon="15.0832020">
        <ele>7.8300000</ele>
        <time>2013-06-09T07:41:51Z</time>
      </trkpt>
      <trkpt lat="38.2076570" lon="15.0831090">
        <ele>8.3100000</ele>
        <time>2013-06-09T07:42:09Z</time>
      </trkpt>
      <trkpt lat="38.2080570" lon="15.0829510">
        <ele>8.3100000</ele>
        <time>2013-06-09T07:42:34Z</time>
      </trkpt>
      <trkpt lat="38.2085150" lon="15.0827350">
        <ele>8.3100000</ele>
        <time>2013-06-09T07:43:01Z</time>
      </trkpt>
      <trkpt lat="38.2088890" lon="15.0825530">
        <ele>8.7900000</ele>
        <time>2013-06-09T07:43:24Z</time>
      </trkpt>
      <trkpt lat="38.2092510" lon="15.0823780">
        <ele>8.3100000</ele>
        <time>2013-06-09T07:43:47Z</time>
      </trkpt>
      <trkpt lat="38.2096330" lon="15.0822350">
        <ele>8.7900000</ele>
        <time>2013-06-09T07:44:12Z</time>
      </trkpt>
      <trkpt lat="38.2100640" lon="15.0820130">
        <ele>8.7900000</ele>
        <time>2013-06-09T07:44:38Z</time>
      </trkpt>
      <trkpt lat="38.2105980" lon="15.0817590">
        <ele>8.3100000</ele>
        <time>2013-06-09T07:45:09Z</time>
      </trkpt>
      <trkpt lat="38.2110330" lon="15.0816010">
        <ele>8.7900000</ele>
        <time>2013-06-09T07:45:36Z</time>
      </trkpt>
      <trkpt lat="38.2114560" lon="15.0813880">
        <ele>8.3100000</ele>
        <time>2013-06-09T07:46:01Z</time>
      </trkpt>
      <trkpt lat="38.2118990" lon="15.0811630">
        <ele>8.3100000</ele>
        <time>2013-06-09T07:46:28Z</time>
      </trkpt>
      <trkpt lat="38.2123110" lon="15.0809700">
        <ele>8.3100000</ele>
        <time>2013-06-09T07:46:53Z</time>
      </trkpt>
      <trkpt lat="38.2127610" lon="15.0807770">
        <ele>7.8300000</ele>
        <time>2013-06-09T07:47:21Z</time>
      </trkpt>
      <trkpt lat="38.2131420" lon="15.0806520">
        <ele>8.3100000</ele>
        <time>2013-06-09T07:47:45Z</time>
      </trkpt>
      <trkpt lat="38.2135730" lon="15.0804790">
        <ele>7.3500000</ele>
        <time>2013-06-09T07:48:12Z</time>
      </trkpt>
      <trkpt lat="38.2139740" lon="15.0803360">
        <ele>7.8300000</ele>
        <time>2013-06-09T07:48:36Z</time>
      </trkpt>
      <trkpt lat="38.2143780" lon="15.0801410">
        <ele>7.8300000</ele>
        <time>2013-06-09T07:49:02Z</time>
      </trkpt>
      <trkpt lat="38.2147480" lon="15.0799770">
        <ele>7.8300000</ele>
        <time>2013-06-09T07:49:26Z</time>
      </trkpt>
      <trkpt lat="38.2151600" lon="15.0798670">
        <ele>7.3500000</ele>
        <time>2013-06-09T07:49:54Z</time>
      </trkpt>
      <trkpt lat="38.2155570" lon="15.0797620">
        <ele>7.3500000</ele>
        <time>2013-06-09T07:50:22Z</time>
      </trkpt>
      <trkpt lat="38.2159310" lon="15.0796160">
        <ele>7.3500000</ele>
        <time>2013-06-09T07:50:48Z</time>
      </trkpt>
      <trkpt lat="38.2163200" lon="15.0793970">
        <ele>6.3900000</ele>
        <time>2013-06-09T07:51:13Z</time>
      </trkpt>
      <trkpt lat="38.2167240" lon="15.0792250">
        <ele>6.8700000</ele>
        <time>2013-06-09T07:51:38Z</time>
      </trkpt>
      <trkpt lat="38.2171170" lon="15.0790170">
        <ele>7.3500000</ele>
        <time>2013-06-09T07:52:02Z</time>
      </trkpt>
      <trkpt lat="38.2175140" lon="15.0788350">
        <ele>6.3900000</ele>
        <time>2013-06-09T07:52:26Z</time>
      </trkpt>
      <trkpt lat="38.2179370" lon="15.0786490">
        <ele>6.8700000</ele>
        <time>2013-06-09T07:52:52Z</time>
      </trkpt>
      <trkpt lat="38.2183150" lon="15.0785050">
        <ele>6.3900000</ele>
        <time>2013-06-09T07:53:15Z</time>
      </trkpt>
      <trkpt lat="38.2186780" lon="15.0783040">
        <ele>6.3900000</ele>
        <time>2013-06-09T07:53:39Z</time>
      </trkpt>
      <trkpt lat="38.2191310" lon="15.0781350">
        <ele>6.3900000</ele>
        <time>2013-06-09T07:54:05Z</time>
      </trkpt>
      <trkpt lat="38.2195130" lon="15.0780030">
        <ele>6.3900000</ele>
        <time>2013-06-09T07:54:29Z</time>
      </trkpt>
      <trkpt lat="38.2199590" lon="15.0777510">
        <ele>5.9100000</ele>
        <time>2013-06-09T07:54:59Z</time>
      </trkpt>
      <trkpt lat="38.2203980" lon="15.0774970">
        <ele>5.9100000</ele>
        <time>2013-06-09T07:55:25Z</time>
      </trkpt>
      <trkpt lat="38.2207870" lon="15.0773570">
        <ele>5.9100000</ele>
        <time>2013-06-09T07:55:48Z</time>
      </trkpt>
      <trkpt lat="38.2211720" lon="15.0771820">
        <ele>5.9100000</ele>
        <time>2013-06-09T07:56:14Z</time>
      </trkpt>
      <trkpt lat="38.2215160" lon="15.0769720">
        <ele>5.9100000</ele>
        <time>2013-06-09T07:56:38Z</time>
      </trkpt>
      <trkpt lat="38.2218630" lon="15.0767960">
        <ele>5.4200000</ele>
        <time>2013-06-09T07:57:02Z</time>
      </trkpt>
      <trkpt lat="38.2222330" lon="15.0766120">
        <ele>5.4200000</ele>
        <time>2013-06-09T07:57:26Z</time>
      </trkpt>
      <trkpt lat="38.2225760" lon="15.0764340">
        <ele>5.4200000</ele>
        <time>2013-06-09T07:57:48Z</time>
      </trkpt>
      <trkpt lat="38.2230300" lon="15.0761850">
        <ele>5.4200000</ele>
        <time>2013-06-09T07:58:16Z</time>
      </trkpt>
      <trkpt lat="38.2234800" lon="15.0759560">
        <ele>5.4200000</ele>
        <time>2013-06-09T07:58:43Z</time>
      </trkpt>
      <trkpt lat="38.2238960" lon="15.0757270">
        <ele>4.9400000</ele>
        <time>2013-06-09T07:59:09Z</time>
      </trkpt>
      <trkpt lat="38.2243230" lon="15.0755020">
        <ele>4.9400000</ele>
        <time>2013-06-09T07:59:35Z</time>
      </trkpt>
      <trkpt lat="38.2247810" lon="15.0752500">
        <ele>5.4200000</ele>
        <time>2013-06-09T08:00:03Z</time>
      </trkpt>
      <trkpt lat="38.2251430" lon="15.0750560">
        <ele>5.4200000</ele>
        <time>2013-06-09T08:00:25Z</time>
      </trkpt>
      <trkpt lat="38.2255740" lon="15.0747990">
        <ele>5.4200000</ele>
        <time>2013-06-09T08:00:52Z</time>
      </trkpt>
      <trkpt lat="38.2259980" lon="15.0745870">
        <ele>5.4200000</ele>
        <time>2013-06-09T08:01:18Z</time>
      </trkpt>
      <trkpt lat="38.2264400" lon="15.0744190">
        <ele>4.9400000</ele>
        <time>2013-06-09T08:01:45Z</time>
      </trkpt>
      <trkpt lat="38.2268180" lon="15.0743100">
        <ele>4.9400000</ele>
        <time>2013-06-09T08:02:11Z</time>
      </trkpt>
      <trkpt lat="38.2272030" lon="15.0741330">
        <ele>4.9400000</ele>
        <time>2013-06-09T08:02:38Z</time>
      </trkpt>
      <trkpt lat="38.2275470" lon="15.0740210">
        <ele>4.9400000</ele>
        <time>2013-06-09T08:03:02Z</time>
      </trkpt>
      <trkpt lat="38.2278820" lon="15.0738880">
        <ele>4.4600000</ele>
        <time>2013-06-09T08:03:27Z</time>
      </trkpt>
      <trkpt lat="38.2281950" lon="15.0737560">
        <ele>4.4600000</ele>
        <time>2013-06-09T08:03:50Z</time>
      </trkpt>
      <trkpt lat="38.2285540" lon="15.0735860">
        <ele>4.4600000</ele>
        <time>2013-06-09T08:04:15Z</time>
      </trkpt>
      <trkpt lat="38.2288860" lon="15.0734010">
        <ele>4.9400000</ele>
        <time>2013-06-09T08:04:38Z</time>
      </trkpt>
      <trkpt lat="38.2292370" lon="15.0732310">
        <ele>4.9400000</ele>
        <time>2013-06-09T08:05:00Z</time>
      </trkpt>
      <trkpt lat="38.2296870" lon="15.0729760">
        <ele>4.4600000</ele>
        <time>2013-06-09T08:05:28Z</time>
      </trkpt>
      <trkpt lat="38.2301220" lon="15.0727590">
        <ele>4.4600000</ele>
        <time>2013-06-09T08:05:54Z</time>
      </trkpt>
      <trkpt lat="38.2305030" lon="15.0725400">
        <ele>4.4600000</ele>
        <time>2013-06-09T08:06:19Z</time>
      </trkpt>
      <trkpt lat="38.2308770" lon="15.0723280">
        <ele>4.4600000</ele>
        <time>2013-06-09T08:06:44Z</time>
      </trkpt>
      <trkpt lat="38.2312850" lon="15.0720770">
        <ele>3.9800000</ele>
        <time>2013-06-09T08:07:10Z</time>
      </trkpt>
      <trkpt lat="38.2316890" lon="15.0718540">
        <ele>4.4600000</ele>
        <time>2013-06-09T08:07:35Z</time>
      </trkpt>
      <trkpt lat="38.2320710" lon="15.0716460">
        <ele>3.9800000</ele>
        <time>2013-06-09T08:07:58Z</time>
      </trkpt>
      <trkpt lat="38.2324640" lon="15.0714200">
        <ele>3.9800000</ele>
        <time>2013-06-09T08:08:24Z</time>
      </trkpt>
      <trkpt lat="38.2329100" lon="15.0711840">
        <ele>4.4600000</ele>
        <time>2013-06-09T08:08:52Z</time>
      </trkpt>
      <trkpt lat="38.2333110" lon="15.0709960">
        <ele>3.9800000</ele>
        <time>2013-06-09T08:09:17Z</time>
      </trkpt>
      <trkpt lat="38.2336580" lon="15.0708430">
        <ele>3.9800000</ele>
        <time>2013-06-09T08:09:38Z</time>
      </trkpt>
      <trkpt lat="38.2340010" lon="15.0706420">
        <ele>3.9800000</ele>
        <time>2013-06-09T08:10:00Z</time>
      </trkpt>
      <trkpt lat="38.2344130" lon="15.0704220">
        <ele>3.9800000</ele>
        <time>2013-06-09T08:10:24Z</time>
      </trkpt>
      <trkpt lat="38.2349280" lon="15.0701350">
        <ele>3.9800000</ele>
        <time>2013-06-09T08:10:54Z</time>
      </trkpt>
      <trkpt lat="38.2353710" lon="15.0698720">
        <ele>3.9800000</ele>
        <time>2013-06-09T08:11:19Z</time>
      </trkpt>
      <trkpt lat="38.2357670" lon="15.0697040">
        <ele>3.5000000</ele>
        <time>2013-06-09T08:11:43Z</time>
      </trkpt>
      <trkpt lat="38.2362020" lon="15.0695050">
        <ele>3.9800000</ele>
        <time>2013-06-09T08:12:10Z</time>
      </trkpt>
      <trkpt lat="38.2365880" lon="15.0693370">
        <ele>3.5000000</ele>
        <time>2013-06-09T08:12:35Z</time>
      </trkpt>
      <trkpt lat="38.2369460" lon="15.0692250">
        <ele>3.0200000</ele>
        <time>2013-06-09T08:13:01Z</time>
      </trkpt>
      <trkpt lat="38.2372400" lon="15.0690570">
        <ele>3.0200000</ele>
        <time>2013-06-09T08:13:22Z</time>
      </trkpt>
      <trkpt lat="38.2375950" lon="15.0689100">
        <ele>3.0200000</ele>
        <time>2013-06-09T08:13:46Z</time>
      </trkpt>
      <trkpt lat="38.2378920" lon="15.0687680">
        <ele>2.5400000</ele>
        <time>2013-06-09T08:14:07Z</time>
      </trkpt>
      <trkpt lat="38.2382660" lon="15.0685770">
        <ele>3.0200000</ele>
        <time>2013-06-09T08:14:33Z</time>
      </trkpt>
      <trkpt lat="38.2386320" lon="15.0683970">
        <ele>3.0200000</ele>
        <time>2013-06-09T08:14:57Z</time>
      </trkpt>
      <trkpt lat="38.2390060" lon="15.0682050">
        <ele>2.5400000</ele>
        <time>2013-06-09T08:15:21Z</time>
      </trkpt>
      <trkpt lat="38.2393760" lon="15.0680090">
        <ele>2.5400000</ele>
        <time>2013-06-09T08:15:46Z</time>
      </trkpt>
      <trkpt lat="38.2397120" lon="15.0678400">
        <ele>2.5400000</ele>
        <time>2013-06-09T08:16:10Z</time>
      </trkpt>
      <trkpt lat="38.2400470" lon="15.0676530">
        <ele>2.0600000</ele>
        <time>2013-06-09T08:16:37Z</time>
      </trkpt>
      <trkpt lat="38.2403790" lon="15.0675060">
        <ele>2.0600000</ele>
        <time>2013-06-09T08:17:04Z</time>
      </trkpt>
      <trkpt lat="38.2407110" lon="15.0673070">
        <ele>2.0600000</ele>
        <time>2013-06-09T08:17:30Z</time>
      </trkpt>
      <trkpt lat="38.2410740" lon="15.0671270">
        <ele>2.0600000</ele>
        <time>2013-06-09T08:17:56Z</time>
      </trkpt>
      <trkpt lat="38.2413710" lon="15.0669560">
        <ele>1.5800000</ele>
        <time>2013-06-09T08:18:20Z</time>
      </trkpt>
      <trkpt lat="38.2417110" lon="15.0667300">
        <ele>2.0600000</ele>
        <time>2013-06-09T08:18:46Z</time>
      </trkpt>
      <trkpt lat="38.2420960" lon="15.0664830">
        <ele>1.5800000</ele>
        <time>2013-06-09T08:19:15Z</time>
      </trkpt>
      <trkpt lat="38.2424620" lon="15.0662300">
        <ele>2.0600000</ele>
        <time>2013-06-09T08:19:43Z</time>
      </trkpt>
      <trkpt lat="38.2427940" lon="15.0660170">
        <ele>1.5800000</ele>
        <time>2013-06-09T08:20:08Z</time>
      </trkpt>
      <trkpt lat="38.2431410" lon="15.0658110">
        <ele>1.5800000</ele>
        <time>2013-06-09T08:20:32Z</time>
      </trkpt>
      <trkpt lat="38.2434730" lon="15.0656580">
        <ele>2.0600000</ele>
        <time>2013-06-09T08:20:56Z</time>
      </trkpt>
      <trkpt lat="38.2437740" lon="15.0655040">
        <ele>2.0600000</ele>
        <time>2013-06-09T08:21:20Z</time>
      </trkpt>
      <trkpt lat="38.2441020" lon="15.0653040">
        <ele>2.0600000</ele>
        <time>2013-06-09T08:21:47Z</time>
      </trkpt>
      <trkpt lat="38.2444080" lon="15.0651550">
        <ele>2.0600000</ele>
        <time>2013-06-09T08:22:11Z</time>
      </trkpt>
      <trkpt lat="38.2447170" lon="15.0649940">
        <ele>2.5400000</ele>
        <time>2013-06-09T08:22:35Z</time>
      </trkpt>
      <trkpt lat="38.2450100" lon="15.0648430">
        <ele>2.5400000</ele>
        <time>2013-06-09T08:23:02Z</time>
      </trkpt>
      <trkpt lat="38.2452550" lon="15.0647120">
        <ele>2.0600000</ele>
        <time>2013-06-09T08:23:26Z</time>
      </trkpt>
      <trkpt lat="38.2454190" lon="15.0646280">
        <ele>2.5400000</ele>
        <time>2013-06-09T08:23:43Z</time>
      </trkpt>
      <trkpt lat="38.2456400" lon="15.0644850">
        <ele>2.5400000</ele>
        <time>2013-06-09T08:24:07Z</time>
      </trkpt>
      <trkpt lat="38.2458760" lon="15.0643450">
        <ele>3.0200000</ele>
        <time>2013-06-09T08:24:31Z</time>
      </trkpt>
      <trkpt lat="38.2461090" lon="15.0641920">
        <ele>3.0200000</ele>
        <time>2013-06-09T08:24:55Z</time>
      </trkpt>
      <trkpt lat="38.2463150" lon="15.0640660">
        <ele>3.5000000</ele>
        <time>2013-06-09T08:25:17Z</time>
      </trkpt>
      <trkpt lat="38.2465250" lon="15.0639220">
        <ele>3.5000000</ele>
        <time>2013-06-09T08:25:39Z</time>
      </trkpt>
      <trkpt lat="38.2467500" lon="15.0637920">
        <ele>3.5000000</ele>
        <time>2013-06-09T08:26:01Z</time>
      </trkpt>
      <trkpt lat="38.2470050" lon="15.0636590">
        <ele>3.5000000</ele>
        <time>2013-06-09T08:26:25Z</time>
      </trkpt>
      <trkpt lat="38.2472270" lon="15.0635340">
        <ele>3.0200000</ele>
        <time>2013-06-09T08:26:47Z</time>
      </trkpt>
      <trkpt lat="38.2474750" lon="15.0633850">
        <ele>3.5000000</ele>
        <time>2013-06-09T08:27:12Z</time>
      </trkpt>
      <trkpt lat="38.2477070" lon="15.0632310">
        <ele>3.5000000</ele>
        <time>2013-06-09T08:27:37Z</time>
      </trkpt>
      <trkpt lat="38.2478980" lon="15.0630910">
        <ele>3.5000000</ele>
        <time>2013-06-09T08:27:59Z</time>
      </trkpt>
      <trkpt lat="38.2480810" lon="15.0629650">
        <ele>3.9800000</ele>
        <time>2013-06-09T08:28:20Z</time>
      </trkpt>
      <trkpt lat="38.2482720" lon="15.0628230">
        <ele>3.9800000</ele>
        <time>2013-06-09T08:28:42Z</time>
      </trkpt>
      <trkpt lat="38.2485660" lon="15.0625810">
        <ele>3.9800000</ele>
        <time>2013-06-09T08:29:10Z</time>
      </trkpt>
      <trkpt lat="38.2488440" lon="15.0623830">
        <ele>3.9800000</ele>
        <time>2013-06-09T08:29:36Z</time>
      </trkpt>
      <trkpt lat="38.2491110" lon="15.0621930">
        <ele>4.4600000</ele>
        <time>2013-06-09T08:30:02Z</time>
      </trkpt>
      <trkpt lat="38.2494050" lon="15.0619870">
        <ele>4.4600000</ele>
        <time>2013-06-09T08:30:28Z</time>
      </trkpt>
      <trkpt lat="38.2497600" lon="15.0617580">
        <ele>4.4600000</ele>
        <time>2013-06-09T08:31:00Z</time>
      </trkpt>
      <trkpt lat="38.2499730" lon="15.0616240">
        <ele>4.4600000</ele>
        <time>2013-06-09T08:31:21Z</time>
      </trkpt>
      <trkpt lat="38.2502780" lon="15.0614190">
        <ele>4.9400000</ele>
        <time>2013-06-09T08:31:50Z</time>
      </trkpt>
      <trkpt lat="38.2505260" lon="15.0612590">
        <ele>4.9400000</ele>
        <time>2013-06-09T08:32:12Z</time>
      </trkpt>
      <trkpt lat="38.2508200" lon="15.0610660">
        <ele>4.9400000</ele>
        <time>2013-06-09T08:32:38Z</time>
      </trkpt>
      <trkpt lat="38.2510410" lon="15.0609340">
        <ele>4.9400000</ele>
        <time>2013-06-09T08:32:59Z</time>
      </trkpt>
      <trkpt lat="38.2512470" lon="15.0607810">
        <ele>4.9400000</ele>
        <time>2013-06-09T08:33:23Z</time>
      </trkpt>
      <trkpt lat="38.2514760" lon="15.0606250">
        <ele>5.4200000</ele>
        <time>2013-06-09T08:33:48Z</time>
      </trkpt>
      <trkpt lat="38.2517400" lon="15.0604240">
        <ele>5.4200000</ele>
        <time>2013-06-09T08:34:17Z</time>
      </trkpt>
      <trkpt lat="38.2519800" lon="15.0602440">
        <ele>5.9100000</ele>
        <time>2013-06-09T08:34:42Z</time>
      </trkpt>
      <trkpt lat="38.2522130" lon="15.0600850">
        <ele>5.9100000</ele>
        <time>2013-06-09T08:35:07Z</time>
      </trkpt>
      <trkpt lat="38.2524800" lon="15.0599240">
        <ele>5.9100000</ele>
        <time>2013-06-09T08:35:32Z</time>
      </trkpt>
      <trkpt lat="38.2527240" lon="15.0598080">
        <ele>5.9100000</ele>
        <time>2013-06-09T08:35:56Z</time>
      </trkpt>
      <trkpt lat="38.2529490" lon="15.0596250">
        <ele>5.9100000</ele>
        <time>2013-06-09T08:36:19Z</time>
      </trkpt>
      <trkpt lat="38.2531930" lon="15.0594390">
        <ele>5.9100000</ele>
        <time>2013-06-09T08:36:42Z</time>
      </trkpt>
      <trkpt lat="38.2534260" lon="15.0592720">
        <ele>6.3900000</ele>
        <time>2013-06-09T08:37:04Z</time>
      </trkpt>
      <trkpt lat="38.2536390" lon="15.0591110">
        <ele>6.3900000</ele>
        <time>2013-06-09T08:37:27Z</time>
      </trkpt>
      <trkpt lat="38.2538640" lon="15.0589390">
        <ele>6.3900000</ele>
        <time>2013-06-09T08:37:53Z</time>
      </trkpt>
      <trkpt lat="38.2540510" lon="15.0587990">
        <ele>6.3900000</ele>
        <time>2013-06-09T08:38:15Z</time>
      </trkpt>
      <trkpt lat="38.2542190" lon="15.0586620">
        <ele>6.8700000</ele>
        <time>2013-06-09T08:38:36Z</time>
      </trkpt>
      <trkpt lat="38.2544210" lon="15.0584930">
        <ele>6.8700000</ele>
        <time>2013-06-09T08:39:01Z</time>
      </trkpt>
      <trkpt lat="38.2546010" lon="15.0583270">
        <ele>6.3900000</ele>
        <time>2013-06-09T08:39:23Z</time>
      </trkpt>
      <trkpt lat="38.2548370" lon="15.0581840">
        <ele>6.8700000</ele>
        <time>2013-06-09T08:39:49Z</time>
      </trkpt>
      <trkpt lat="38.2550280" lon="15.0580720">
        <ele>6.8700000</ele>
        <time>2013-06-09T08:40:11Z</time>
      </trkpt>
      <trkpt lat="38.2552450" lon="15.0579120">
        <ele>6.8700000</ele>
        <time>2013-06-09T08:40:34Z</time>
      </trkpt>
      <trkpt lat="38.2554660" lon="15.0577550">
        <ele>6.8700000</ele>
        <time>2013-06-09T08:40:55Z</time>
      </trkpt>
      <trkpt lat="38.2556840" lon="15.0576030">
        <ele>6.8700000</ele>
        <time>2013-06-09T08:41:20Z</time>
      </trkpt>
      <trkpt lat="38.2559090" lon="15.0574460">
        <ele>6.8700000</ele>
        <time>2013-06-09T08:41:45Z</time>
      </trkpt>
      <trkpt lat="38.2561380" lon="15.0572960">
        <ele>7.3500000</ele>
        <time>2013-06-09T08:42:06Z</time>
      </trkpt>
      <trkpt lat="38.2563860" lon="15.0571380">
        <ele>6.8700000</ele>
        <time>2013-06-09T08:42:28Z</time>
      </trkpt>
      <trkpt lat="38.2566830" lon="15.0569690">
        <ele>7.3500000</ele>
        <time>2013-06-09T08:42:53Z</time>
      </trkpt>
      <trkpt lat="38.2570110" lon="15.0567830">
        <ele>6.8700000</ele>
        <time>2013-06-09T08:43:20Z</time>
      </trkpt>
      <trkpt lat="38.2572670" lon="15.0566300">
        <ele>6.8700000</ele>
        <time>2013-06-09T08:43:43Z</time>
      </trkpt>
      <trkpt lat="38.2575040" lon="15.0564590">
        <ele>6.8700000</ele>
        <time>2013-06-09T08:44:03Z</time>
      </trkpt>
      <trkpt lat="38.2577480" lon="15.0562880">
        <ele>6.8700000</ele>
        <time>2013-06-09T08:44:24Z</time>
      </trkpt>
      <trkpt lat="38.2579960" lon="15.0560840">
        <ele>6.3900000</ele>
        <time>2013-06-09T08:44:48Z</time>
      </trkpt>
      <trkpt lat="38.2582130" lon="15.0559220">
        <ele>4.9400000</ele>
        <time>2013-06-09T08:45:08Z</time>
      </trkpt>
      <trkpt lat="38.2584420" lon="15.0557720">
        <ele>5.9100000</ele>
        <time>2013-06-09T08:45:28Z</time>
      </trkpt>
      <trkpt lat="38.2586820" lon="15.0556220">
        <ele>6.3900000</ele>
        <time>2013-06-09T08:45:51Z</time>
      </trkpt>
      <trkpt lat="38.2588960" lon="15.0554670">
        <ele>6.3900000</ele>
        <time>2013-06-09T08:46:11Z</time>
      </trkpt>
      <trkpt lat="38.2591130" lon="15.0553080">
        <ele>5.9100000</ele>
        <time>2013-06-09T08:46:29Z</time>
      </trkpt>
      <trkpt lat="38.2593150" lon="15.0551990">
        <ele>6.8700000</ele>
        <time>2013-06-09T08:46:47Z</time>
      </trkpt>
      <trkpt lat="38.2595520" lon="15.0550510">
        <ele>7.3500000</ele>
        <time>2013-06-09T08:47:07Z</time>
      </trkpt>
      <trkpt lat="38.2598080" lon="15.0548850">
        <ele>7.3500000</ele>
        <time>2013-06-09T08:47:28Z</time>
      </trkpt>
      <trkpt lat="38.2600290" lon="15.0547500">
        <ele>7.8300000</ele>
        <time>2013-06-09T08:47:46Z</time>
      </trkpt>
      <trkpt lat="38.2602620" lon="15.0545920">
        <ele>7.8300000</ele>
        <time>2013-06-09T08:48:05Z</time>
      </trkpt>
      <trkpt lat="38.2605400" lon="15.0543700">
        <ele>7.8300000</ele>
        <time>2013-06-09T08:48:28Z</time>
      </trkpt>
      <trkpt lat="38.2608180" lon="15.0541860">
        <ele>7.8300000</ele>
        <time>2013-06-09T08:48:47Z</time>
      </trkpt>
      <trkpt lat="38.2611310" lon="15.0540040">
        <ele>7.8300000</ele>
        <time>2013-06-09T08:49:08Z</time>
      </trkpt>
      <trkpt lat="38.2613680" lon="15.0538400">
        <ele>7.8300000</ele>
        <time>2013-06-09T08:49:28Z</time>
      </trkpt>
      <trkpt lat="38.2616690" lon="15.0536040">
        <ele>7.3500000</ele>
        <time>2013-06-09T08:49:53Z</time>
      </trkpt>
      <trkpt lat="38.2619820" lon="15.0533890">
        <ele>7.3500000</ele>
        <time>2013-06-09T08:50:16Z</time>
      </trkpt>
      <trkpt lat="38.2622410" lon="15.0532170">
        <ele>7.8300000</ele>
        <time>2013-06-09T08:50:37Z</time>
      </trkpt>
      <trkpt lat="38.2625200" lon="15.0530340">
        <ele>7.3500000</ele>
        <time>2013-06-09T08:51:00Z</time>
      </trkpt>
      <trkpt lat="38.2627370" lon="15.0528830">
        <ele>7.8300000</ele>
        <time>2013-06-09T08:51:18Z</time>
      </trkpt>
      <trkpt lat="38.2629620" lon="15.0527350">
        <ele>7.3500000</ele>
        <time>2013-06-09T08:51:36Z</time>
      </trkpt>
      <trkpt lat="38.2631950" lon="15.0525770">
        <ele>7.3500000</ele>
        <time>2013-06-09T08:51:54Z</time>
      </trkpt>
      <trkpt lat="38.2635350" lon="15.0524020">
        <ele>7.3500000</ele>
        <time>2013-06-09T08:52:18Z</time>
      </trkpt>
      <trkpt lat="38.2638850" lon="15.0522740">
        <ele>7.8300000</ele>
        <time>2013-06-09T08:52:43Z</time>
      </trkpt>
      <trkpt lat="38.2641560" lon="15.0521300">
        <ele>7.8300000</ele>
        <time>2013-06-09T08:53:06Z</time>
      </trkpt>
      <trkpt lat="38.2643780" lon="15.0519610">
        <ele>7.8300000</ele>
        <time>2013-06-09T08:53:26Z</time>
      </trkpt>
      <trkpt lat="38.2646140" lon="15.0517700">
        <ele>7.8300000</ele>
        <time>2013-06-09T08:53:46Z</time>
      </trkpt>
      <trkpt lat="38.2649570" lon="15.0515350">
        <ele>7.8300000</ele>
        <time>2013-06-09T08:54:12Z</time>
      </trkpt>
      <trkpt lat="38.2652240" lon="15.0513720">
        <ele>7.8300000</ele>
        <time>2013-06-09T08:54:32Z</time>
      </trkpt>
      <trkpt lat="38.2655370" lon="15.0511900">
        <ele>7.3500000</ele>
        <time>2013-06-09T08:54:54Z</time>
      </trkpt>
      <trkpt lat="38.2658840" lon="15.0510010">
        <ele>7.8300000</ele>
        <time>2013-06-09T08:55:19Z</time>
      </trkpt>
      <trkpt lat="38.2662010" lon="15.0508150">
        <ele>7.8300000</ele>
        <time>2013-06-09T08:55:42Z</time>
      </trkpt>
      <trkpt lat="38.2665180" lon="15.0506300">
        <ele>7.8300000</ele>
        <time>2013-06-09T08:56:05Z</time>
      </trkpt>
      <trkpt lat="38.2668570" lon="15.0504070">
        <ele>8.3100000</ele>
        <time>2013-06-09T08:56:30Z</time>
      </trkpt>
      <trkpt lat="38.2671740" lon="15.0502090">
        <ele>7.8300000</ele>
        <time>2013-06-09T08:56:52Z</time>
      </trkpt>
      <trkpt lat="38.2674670" lon="15.0500450">
        <ele>8.3100000</ele>
        <time>2013-06-09T08:57:13Z</time>
      </trkpt>
      <trkpt lat="38.2677080" lon="15.0498980">
        <ele>8.3100000</ele>
        <time>2013-06-09T08:57:31Z</time>
      </trkpt>
      <trkpt lat="38.2680550" lon="15.0496770">
        <ele>7.8300000</ele>
        <time>2013-06-09T08:57:57Z</time>
      </trkpt>
      <trkpt lat="38.2682610" lon="15.0495400">
        <ele>8.3100000</ele>
        <time>2013-06-09T08:58:14Z</time>
      </trkpt>
      <trkpt lat="38.2685590" lon="15.0493330">
        <ele>8.3100000</ele>
        <time>2013-06-09T08:58:38Z</time>
      </trkpt>
      <trkpt lat="38.2688480" lon="15.0491500">
        <ele>7.8300000</ele>
        <time>2013-06-09T08:59:01Z</time>
      </trkpt>
      <trkpt lat="38.2691080" lon="15.0489790">
        <ele>7.8300000</ele>
        <time>2013-06-09T08:59:22Z</time>
      </trkpt>
      <trkpt lat="38.2693290" lon="15.0488260">
        <ele>7.8300000</ele>
        <time>2013-06-09T08:59:41Z</time>
      </trkpt>
      <trkpt lat="38.2696080" lon="15.0486300">
        <ele>7.8300000</ele>
        <time>2013-06-09T09:00:05Z</time>
      </trkpt>
      <trkpt lat="38.2698860" lon="15.0484330">
        <ele>7.8300000</ele>
        <time>2013-06-09T09:00:29Z</time>
      </trkpt>
      <trkpt lat="38.2701570" lon="15.0482420">
        <ele>7.8300000</ele>
        <time>2013-06-09T09:00:53Z</time>
      </trkpt>
      <trkpt lat="38.2704280" lon="15.0480670">
        <ele>7.3500000</ele>
        <time>2013-06-09T09:01:17Z</time>
      </trkpt>
      <trkpt lat="38.2706870" lon="15.0478570">
        <ele>7.3500000</ele>
        <time>2013-06-09T09:01:40Z</time>
      </trkpt>
      <trkpt lat="38.2709690" lon="15.0476370">
        <ele>7.8300000</ele>
        <time>2013-06-09T09:02:03Z</time>
      </trkpt>
      <trkpt lat="38.2712780" lon="15.0474210">
        <ele>7.8300000</ele>
        <time>2013-06-09T09:02:27Z</time>
      </trkpt>
      <trkpt lat="38.2716140" lon="15.0472210">
        <ele>7.3500000</ele>
        <time>2013-06-09T09:02:53Z</time>
      </trkpt>
      <trkpt lat="38.2718470" lon="15.0470570">
        <ele>7.8300000</ele>
        <time>2013-06-09T09:03:13Z</time>
      </trkpt>
      <trkpt lat="38.2721060" lon="15.0468550">
        <ele>7.3500000</ele>
        <time>2013-06-09T09:03:34Z</time>
      </trkpt>
      <trkpt lat="38.2723960" lon="15.0466650">
        <ele>7.3500000</ele>
        <time>2013-06-09T09:03:57Z</time>
      </trkpt>
      <trkpt lat="38.2726550" lon="15.0464820">
        <ele>7.3500000</ele>
        <time>2013-06-09T09:04:19Z</time>
      </trkpt>
      <trkpt lat="38.2728960" lon="15.0462960">
        <ele>7.8300000</ele>
        <time>2013-06-09T09:04:40Z</time>
      </trkpt>
      <trkpt lat="38.2731360" lon="15.0461210">
        <ele>7.8300000</ele>
        <time>2013-06-09T09:05:00Z</time>
      </trkpt>
      <trkpt lat="38.2734150" lon="15.0459370">
        <ele>7.3500000</ele>
        <time>2013-06-09T09:05:24Z</time>
      </trkpt>
      <trkpt lat="38.2736890" lon="15.0457290">
        <ele>7.8300000</ele>
        <time>2013-06-09T09:05:48Z</time>
      </trkpt>
      <trkpt lat="38.2739640" lon="15.0455410">
        <ele>7.3500000</ele>
        <time>2013-06-09T09:06:12Z</time>
      </trkpt>
      <trkpt lat="38.2742810" lon="15.0453590">
        <ele>7.8300000</ele>
        <time>2013-06-09T09:06:37Z</time>
      </trkpt>
      <trkpt lat="38.2745740" lon="15.0451520">
        <ele>7.3500000</ele>
        <time>2013-06-09T09:07:00Z</time>
      </trkpt>
      <trkpt lat="38.2748910" lon="15.0449580">
        <ele>7.3500000</ele>
        <time>2013-06-09T09:07:24Z</time>
      </trkpt>
      <trkpt lat="38.2752110" lon="15.0447560">
        <ele>7.3500000</ele>
        <time>2013-06-09T09:07:49Z</time>
      </trkpt>
      <trkpt lat="38.2755090" lon="15.0445960">
        <ele>7.3500000</ele>
        <time>2013-06-09T09:08:11Z</time>
      </trkpt>
      <trkpt lat="38.2757990" lon="15.0444010">
        <ele>7.3500000</ele>
        <time>2013-06-09T09:08:33Z</time>
      </trkpt>
      <trkpt lat="38.2760510" lon="15.0442330">
        <ele>7.3500000</ele>
        <time>2013-06-09T09:08:52Z</time>
      </trkpt>
      <trkpt lat="38.2763100" lon="15.0440670">
        <ele>7.3500000</ele>
        <time>2013-06-09T09:09:11Z</time>
      </trkpt>
      <trkpt lat="38.2765690" lon="15.0438780">
        <ele>7.8300000</ele>
        <time>2013-06-09T09:09:31Z</time>
      </trkpt>
      <trkpt lat="38.2768520" lon="15.0436930">
        <ele>7.3500000</ele>
        <time>2013-06-09T09:09:51Z</time>
      </trkpt>
      <trkpt lat="38.2771260" lon="15.0435070">
        <ele>7.8300000</ele>
        <time>2013-06-09T09:10:11Z</time>
      </trkpt>
      <trkpt lat="38.2774660" lon="15.0432800">
        <ele>7.3500000</ele>
        <time>2013-06-09T09:10:36Z</time>
      </trkpt>
      <trkpt lat="38.2777370" lon="15.0430910">
        <ele>6.8700000</ele>
        <time>2013-06-09T09:10:58Z</time>
      </trkpt>
      <trkpt lat="38.2780420" lon="15.0428900">
        <ele>7.3500000</ele>
        <time>2013-06-09T09:11:21Z</time>
      </trkpt>
      <trkpt lat="38.2783160" lon="15.0426960">
        <ele>6.8700000</ele>
        <time>2013-06-09T09:11:42Z</time>
      </trkpt>
      <trkpt lat="38.2785840" lon="15.0424720">
        <ele>6.8700000</ele>
        <time>2013-06-09T09:12:03Z</time>
      </trkpt>
      <trkpt lat="38.2788620" lon="15.0422900">
        <ele>6.8700000</ele>
        <time>2013-06-09T09:12:24Z</time>
      </trkpt>
      <trkpt lat="38.2791670" lon="15.0420750">
        <ele>7.3500000</ele>
        <time>2013-06-09T09:12:48Z</time>
      </trkpt>
      <trkpt lat="38.2794990" lon="15.0418540">
        <ele>6.8700000</ele>
        <time>2013-06-09T09:13:13Z</time>
      </trkpt>
      <trkpt lat="38.2798460" lon="15.0416330">
        <ele>6.3900000</ele>
        <time>2013-06-09T09:13:38Z</time>
      </trkpt>
      <trkpt lat="38.2801930" lon="15.0414120">
        <ele>6.8700000</ele>
        <time>2013-06-09T09:14:03Z</time>
      </trkpt>
      <trkpt lat="38.2805400" lon="15.0411810">
        <ele>6.8700000</ele>
        <time>2013-06-09T09:14:28Z</time>
      </trkpt>
      <trkpt lat="38.2808800" lon="15.0409640">
        <ele>6.8700000</ele>
        <time>2013-06-09T09:14:52Z</time>
      </trkpt>
      <trkpt lat="38.2811930" lon="15.0407780">
        <ele>6.3900000</ele>
        <time>2013-06-09T09:15:14Z</time>
      </trkpt>
      <trkpt lat="38.2815930" lon="15.0405370">
        <ele>6.8700000</ele>
        <time>2013-06-09T09:15:42Z</time>
      </trkpt>
      <trkpt lat="38.2819560" lon="15.0403080">
        <ele>6.8700000</ele>
        <time>2013-06-09T09:16:08Z</time>
      </trkpt>
      <trkpt lat="38.2822800" lon="15.0400920">
        <ele>6.8700000</ele>
        <time>2013-06-09T09:16:31Z</time>
      </trkpt>
      <trkpt lat="38.2825660" lon="15.0398850">
        <ele>6.8700000</ele>
        <time>2013-06-09T09:16:51Z</time>
      </trkpt>
      <trkpt lat="38.2828410" lon="15.0396960">
        <ele>6.3900000</ele>
        <time>2013-06-09T09:17:12Z</time>
      </trkpt>
      <trkpt lat="38.2831080" lon="15.0394990">
        <ele>6.8700000</ele>
        <time>2013-06-09T09:17:34Z</time>
      </trkpt>
      <trkpt lat="38.2833630" lon="15.0393260">
        <ele>6.8700000</ele>
        <time>2013-06-09T09:17:56Z</time>
      </trkpt>
      <trkpt lat="38.2836910" lon="15.0390890">
        <ele>6.8700000</ele>
        <time>2013-06-09T09:18:22Z</time>
      </trkpt>
      <trkpt lat="38.2839510" lon="15.0389060">
        <ele>6.8700000</ele>
        <time>2013-06-09T09:18:42Z</time>
      </trkpt>
      <trkpt lat="38.2842250" lon="15.0387030">
        <ele>6.8700000</ele>
        <time>2013-06-09T09:19:04Z</time>
      </trkpt>
      <trkpt lat="38.2845730" lon="15.0384590">
        <ele>6.8700000</ele>
        <time>2013-06-09T09:19:30Z</time>
      </trkpt>
      <trkpt lat="38.2848280" lon="15.0382940">
        <ele>6.8700000</ele>
        <time>2013-06-09T09:19:48Z</time>
      </trkpt>
      <trkpt lat="38.2850840" lon="15.0381250">
        <ele>6.3900000</ele>
        <time>2013-06-09T09:20:07Z</time>
      </trkpt>
      <trkpt lat="38.2853430" lon="15.0379310">
        <ele>6.3900000</ele>
        <time>2013-06-09T09:20:27Z</time>
      </trkpt>
      <trkpt lat="38.2855990" lon="15.0377520">
        <ele>6.3900000</ele>
        <time>2013-06-09T09:20:48Z</time>
      </trkpt>
      <trkpt lat="38.2858280" lon="15.0375700">
        <ele>5.9100000</ele>
        <time>2013-06-09T09:21:08Z</time>
      </trkpt>
      <trkpt lat="38.2861020" lon="15.0373400">
        <ele>6.8700000</ele>
        <time>2013-06-09T09:21:31Z</time>
      </trkpt>
      <trkpt lat="38.2863730" lon="15.0371230">
        <ele>6.3900000</ele>
        <time>2013-06-09T09:21:52Z</time>
      </trkpt>
      <trkpt lat="38.2866400" lon="15.0369540">
        <ele>6.3900000</ele>
        <time>2013-06-09T09:22:12Z</time>
      </trkpt>
      <trkpt lat="38.2868460" lon="15.0367830">
        <ele>5.9100000</ele>
        <time>2013-06-09T09:22:31Z</time>
      </trkpt>
      <trkpt lat="38.2871700" lon="15.0365030">
        <ele>6.3900000</ele>
        <time>2013-06-09T09:22:59Z</time>
      </trkpt>
      <trkpt lat="38.2873920" lon="15.0363250">
        <ele>5.9100000</ele>
        <time>2013-06-09T09:23:20Z</time>
      </trkpt>
      <trkpt lat="38.2876090" lon="15.0361620">
        <ele>6.3900000</ele>
        <time>2013-06-09T09:23:40Z</time>
      </trkpt>
      <trkpt lat="38.2878000" lon="15.0359760">
        <ele>5.9100000</ele>
        <time>2013-06-09T09:23:59Z</time>
      </trkpt>
      <trkpt lat="38.2879910" lon="15.0358050">
        <ele>5.9100000</ele>
        <time>2013-06-09T09:24:17Z</time>
      </trkpt>
      <trkpt lat="38.2882080" lon="15.0356500">
        <ele>6.3900000</ele>
        <time>2013-06-09T09:24:38Z</time>
      </trkpt>
      <trkpt lat="38.2883990" lon="15.0354860">
        <ele>6.3900000</ele>
        <time>2013-06-09T09:25:01Z</time>
      </trkpt>
      <trkpt lat="38.2885780" lon="15.0353640">
        <ele>5.9100000</ele>
        <time>2013-06-09T09:25:21Z</time>
      </trkpt>
      <trkpt lat="38.2887650" lon="15.0351550">
        <ele>5.9100000</ele>
        <time>2013-06-09T09:25:44Z</time>
      </trkpt>
      <trkpt lat="38.2889560" lon="15.0349650">
        <ele>5.9100000</ele>
        <time>2013-06-09T09:26:03Z</time>
      </trkpt>
      <trkpt lat="38.2891880" lon="15.0347640">
        <ele>5.9100000</ele>
        <time>2013-06-09T09:26:27Z</time>
      </trkpt>
      <trkpt lat="38.2893870" lon="15.0346300">
        <ele>5.9100000</ele>
        <time>2013-06-09T09:26:48Z</time>
      </trkpt>
      <trkpt lat="38.2895580" lon="15.0344630">
        <ele>5.9100000</ele>
        <time>2013-06-09T09:27:08Z</time>
      </trkpt>
      <trkpt lat="38.2897340" lon="15.0343060">
        <ele>6.3900000</ele>
        <time>2013-06-09T09:27:30Z</time>
      </trkpt>
      <trkpt lat="38.2898450" lon="15.0341940">
        <ele>6.3900000</ele>
        <time>2013-06-09T09:27:44Z</time>
      </trkpt>
      <trkpt lat="38.2900660" lon="15.0339050">
        <ele>6.3900000</ele>
        <time>2013-06-09T09:28:07Z</time>
      </trkpt>
      <trkpt lat="38.2902980" lon="15.0336710">
        <ele>6.3900000</ele>
        <time>2013-06-09T09:28:28Z</time>
      </trkpt>
      <trkpt lat="38.2905540" lon="15.0332940">
        <ele>6.3900000</ele>
        <time>2013-06-09T09:28:51Z</time>
      </trkpt>
      <trkpt lat="38.2908290" lon="15.0328650">
        <ele>6.3900000</ele>
        <time>2013-06-09T09:29:15Z</time>
      </trkpt>
      <trkpt lat="38.2911420" lon="15.0324380">
        <ele>6.3900000</ele>
        <time>2013-06-09T09:29:40Z</time>
      </trkpt>
      <trkpt lat="38.2913860" lon="15.0321890">
        <ele>6.8700000</ele>
        <time>2013-06-09T09:30:00Z</time>
      </trkpt>
      <trkpt lat="38.2915950" lon="15.0319650">
        <ele>6.8700000</ele>
        <time>2013-06-09T09:30:21Z</time>
      </trkpt>
      <trkpt lat="38.2918050" lon="15.0316380">
        <ele>6.3900000</ele>
        <time>2013-06-09T09:30:42Z</time>
      </trkpt>
      <trkpt lat="38.2920800" lon="15.0311930">
        <ele>6.3900000</ele>
        <time>2013-06-09T09:31:06Z</time>
      </trkpt>
      <trkpt lat="38.2923320" lon="15.0306900">
        <ele>6.8700000</ele>
        <time>2013-06-09T09:31:31Z</time>
      </trkpt>
      <trkpt lat="38.2926140" lon="15.0301580">
        <ele>6.8700000</ele>
        <time>2013-06-09T09:31:57Z</time>
      </trkpt>
      <trkpt lat="38.2929190" lon="15.0296370">
        <ele>6.8700000</ele>
        <time>2013-06-09T09:32:22Z</time>
      </trkpt>
      <trkpt lat="38.2932130" lon="15.0291410">
        <ele>7.3500000</ele>
        <time>2013-06-09T09:32:46Z</time>
      </trkpt>
      <trkpt lat="38.2934380" lon="15.0286850">
        <ele>6.8700000</ele>
        <time>2013-06-09T09:33:07Z</time>
      </trkpt>
      <trkpt lat="38.2937240" lon="15.0281410">
        <ele>6.8700000</ele>
        <time>2013-06-09T09:33:33Z</time>
      </trkpt>
      <trkpt lat="38.2940030" lon="15.0277000">
        <ele>6.8700000</ele>
        <time>2013-06-09T09:33:55Z</time>
      </trkpt>
      <trkpt lat="38.2942890" lon="15.0270980">
        <ele>7.3500000</ele>
        <time>2013-06-09T09:34:22Z</time>
      </trkpt>
      <trkpt lat="38.2945940" lon="15.0265120">
        <ele>6.8700000</ele>
        <time>2013-06-09T09:34:50Z</time>
      </trkpt>
      <trkpt lat="38.2948650" lon="15.0259980">
        <ele>6.8700000</ele>
        <time>2013-06-09T09:35:15Z</time>
      </trkpt>
      <trkpt lat="38.2951740" lon="15.0253700">
        <ele>7.3500000</ele>
        <time>2013-06-09T09:35:42Z</time>
      </trkpt>
      <trkpt lat="38.2955170" lon="15.0248180">
        <ele>7.3500000</ele>
        <time>2013-06-09T09:36:09Z</time>
      </trkpt>
      <trkpt lat="38.2958180" lon="15.0241790">
        <ele>7.3500000</ele>
        <time>2013-06-09T09:36:36Z</time>
      </trkpt>
      <trkpt lat="38.2960850" lon="15.0235990">
        <ele>7.3500000</ele>
        <time>2013-06-09T09:37:01Z</time>
      </trkpt>
      <trkpt lat="38.2963520" lon="15.0230590">
        <ele>7.8300000</ele>
        <time>2013-06-09T09:37:25Z</time>
      </trkpt>
      <trkpt lat="38.2965970" lon="15.0225120">
        <ele>7.8300000</ele>
        <time>2013-06-09T09:37:49Z</time>
      </trkpt>
      <trkpt lat="38.2968750" lon="15.0218960">
        <ele>7.8300000</ele>
        <time>2013-06-09T09:38:16Z</time>
      </trkpt>
      <trkpt lat="38.2971230" lon="15.0213550">
        <ele>7.8300000</ele>
        <time>2013-06-09T09:38:40Z</time>
      </trkpt>
      <trkpt lat="38.2974470" lon="15.0207260">
        <ele>7.8300000</ele>
        <time>2013-06-09T09:39:08Z</time>
      </trkpt>
      <trkpt lat="38.2977100" lon="15.0201440">
        <ele>7.8300000</ele>
        <time>2013-06-09T09:39:33Z</time>
      </trkpt>
      <trkpt lat="38.2979700" lon="15.0195850">
        <ele>7.8300000</ele>
        <time>2013-06-09T09:39:57Z</time>
      </trkpt>
      <trkpt lat="38.2982250" lon="15.0189610">
        <ele>7.8300000</ele>
        <time>2013-06-09T09:40:24Z</time>
      </trkpt>
      <trkpt lat="38.2984730" lon="15.0185190">
        <ele>7.8300000</ele>
        <time>2013-06-09T09:40:45Z</time>
      </trkpt>
      <trkpt lat="38.2987860" lon="15.0178680">
        <ele>8.3100000</ele>
        <time>2013-06-09T09:41:15Z</time>
      </trkpt>
      <trkpt lat="38.2990420" lon="15.0173380">
        <ele>8.3100000</ele>
        <time>2013-06-09T09:41:40Z</time>
      </trkpt>
      <trkpt lat="38.2992900" lon="15.0168090">
        <ele>8.3100000</ele>
        <time>2013-06-09T09:42:03Z</time>
      </trkpt>
      <trkpt lat="38.2995110" lon="15.0163150">
        <ele>8.7900000</ele>
        <time>2013-06-09T09:42:24Z</time>
      </trkpt>
      <trkpt lat="38.2997320" lon="15.0157990">
        <ele>8.3100000</ele>
        <time>2013-06-09T09:42:46Z</time>
      </trkpt>
      <trkpt lat="38.2999340" lon="15.0152960">
        <ele>8.3100000</ele>
        <time>2013-06-09T09:43:07Z</time>
      </trkpt>
      <trkpt lat="38.3001820" lon="15.0147580">
        <ele>9.2700000</ele>
        <time>2013-06-09T09:43:30Z</time>
      </trkpt>
      <trkpt lat="38.3003920" lon="15.0142630">
        <ele>8.7900000</ele>
        <time>2013-06-09T09:43:52Z</time>
      </trkpt>
      <trkpt lat="38.3005830" lon="15.0138240">
        <ele>8.7900000</ele>
        <time>2013-06-09T09:44:12Z</time>
      </trkpt>
      <trkpt lat="38.3007770" lon="15.0133800">
        <ele>9.2700000</ele>
        <time>2013-06-09T09:44:33Z</time>
      </trkpt>
      <trkpt lat="38.3009870" lon="15.0128620">
        <ele>9.2700000</ele>
        <time>2013-06-09T09:44:56Z</time>
      </trkpt>
      <trkpt lat="38.3011700" lon="15.0123540">
        <ele>8.7900000</ele>
        <time>2013-06-09T09:45:17Z</time>
      </trkpt>
      <trkpt lat="38.3013920" lon="15.0117840">
        <ele>9.2700000</ele>
        <time>2013-06-09T09:45:41Z</time>
      </trkpt>
      <trkpt lat="38.3016240" lon="15.0111720">
        <ele>9.2700000</ele>
        <time>2013-06-09T09:46:05Z</time>
      </trkpt>
      <trkpt lat="38.3018260" lon="15.0105310">
        <ele>9.2700000</ele>
        <time>2013-06-09T09:46:30Z</time>
      </trkpt>
      <trkpt lat="38.3020170" lon="15.0098430">
        <ele>9.2700000</ele>
        <time>2013-06-09T09:46:58Z</time>
      </trkpt>
      <trkpt lat="38.3022000" lon="15.0092430">
        <ele>9.7500000</ele>
        <time>2013-06-09T09:47:25Z</time>
      </trkpt>
      <trkpt lat="38.3023380" lon="15.0087190">
        <ele>9.7500000</ele>
        <time>2013-06-09T09:47:49Z</time>
      </trkpt>
      <trkpt lat="38.3024640" lon="15.0082430">
        <ele>10.2300000</ele>
        <time>2013-06-09T09:48:12Z</time>
      </trkpt>
      <trkpt lat="38.3025740" lon="15.0077540">
        <ele>10.2300000</ele>
        <time>2013-06-09T09:48:35Z</time>
      </trkpt>
      <trkpt lat="38.3026660" lon="15.0072580">
        <ele>10.2300000</ele>
        <time>2013-06-09T09:48:59Z</time>
      </trkpt>
      <trkpt lat="38.3027950" lon="15.0067350">
        <ele>10.2300000</ele>
        <time>2013-06-09T09:49:25Z</time>
      </trkpt>
      <trkpt lat="38.3029140" lon="15.0062270">
        <ele>10.2300000</ele>
        <time>2013-06-09T09:49:51Z</time>
      </trkpt>
      <trkpt lat="38.3029940" lon="15.0057470">
        <ele>10.2300000</ele>
        <time>2013-06-09T09:50:15Z</time>
      </trkpt>
      <trkpt lat="38.3031390" lon="15.0052610">
        <ele>10.2300000</ele>
        <time>2013-06-09T09:50:41Z</time>
      </trkpt>
      <trkpt lat="38.3032840" lon="15.0047450">
        <ele>10.2300000</ele>
        <time>2013-06-09T09:51:09Z</time>
      </trkpt>
      <trkpt lat="38.3034170" lon="15.0041790">
        <ele>10.2300000</ele>
        <time>2013-06-09T09:51:38Z</time>
      </trkpt>
      <trkpt lat="38.3035470" lon="15.0037360">
        <ele>10.2300000</ele>
        <time>2013-06-09T09:52:01Z</time>
      </trkpt>
      <trkpt lat="38.3037410" lon="15.0031750">
        <ele>10.2300000</ele>
        <time>2013-06-09T09:52:29Z</time>
      </trkpt>
      <trkpt lat="38.3039440" lon="15.0026630">
        <ele>10.7100000</ele>
        <time>2013-06-09T09:52:54Z</time>
      </trkpt>
      <trkpt lat="38.3042260" lon="15.0020140">
        <ele>10.7100000</ele>
        <time>2013-06-09T09:53:24Z</time>
      </trkpt>
      <trkpt lat="38.3044360" lon="15.0014820">
        <ele>10.2300000</ele>
        <time>2013-06-09T09:53:49Z</time>
      </trkpt>
      <trkpt lat="38.3046260" lon="15.0010270">
        <ele>10.7100000</ele>
        <time>2013-06-09T09:54:11Z</time>
      </trkpt>
      <trkpt lat="38.3048100" lon="15.0005490">
        <ele>10.7100000</ele>
        <time>2013-06-09T09:54:35Z</time>
      </trkpt>
      <trkpt lat="38.3050230" lon="15.0000450">
        <ele>11.1900000</ele>
        <time>2013-06-09T09:55:03Z</time>
      </trkpt>
      <trkpt lat="38.3052600" lon="14.9995180">
        <ele>10.7100000</ele>
        <time>2013-06-09T09:55:31Z</time>
      </trkpt>
      <trkpt lat="38.3054580" lon="14.9990510">
        <ele>10.7100000</ele>
        <time>2013-06-09T09:55:55Z</time>
      </trkpt>
      <trkpt lat="38.3057140" lon="14.9984800">
        <ele>10.7100000</ele>
        <time>2013-06-09T09:56:25Z</time>
      </trkpt>
      <trkpt lat="38.3059810" lon="14.9979200">
        <ele>11.1900000</ele>
        <time>2013-06-09T09:56:54Z</time>
      </trkpt>
      <trkpt lat="38.3062780" lon="14.9974080">
        <ele>11.6700000</ele>
        <time>2013-06-09T09:57:21Z</time>
      </trkpt>
      <trkpt lat="38.3065070" lon="14.9969570">
        <ele>11.1900000</ele>
        <time>2013-06-09T09:57:45Z</time>
      </trkpt>
      <trkpt lat="38.3067050" lon="14.9965250">
        <ele>11.6700000</ele>
        <time>2013-06-09T09:58:11Z</time>
      </trkpt>
      <trkpt lat="38.3068470" lon="14.9961660">
        <ele>11.6700000</ele>
        <time>2013-06-09T09:58:35Z</time>
      </trkpt>
      <trkpt lat="38.3070140" lon="14.9958050">
        <ele>12.1500000</ele>
        <time>2013-06-09T09:59:00Z</time>
      </trkpt>
      <trkpt lat="38.3072130" lon="14.9955720">
        <ele>12.1500000</ele>
        <time>2013-06-09T09:59:23Z</time>
      </trkpt>
      <trkpt lat="38.3073730" lon="14.9954800">
        <ele>12.6300000</ele>
        <time>2013-06-09T09:59:42Z</time>
      </trkpt>
      <trkpt lat="38.3074300" lon="14.9954910">
        <ele>12.1500000</ele>
        <time>2013-06-09T10:00:02Z</time>
      </trkpt>
      <trkpt lat="38.3074530" lon="14.9954790">
        <ele>12.1500000</ele>
        <time>2013-06-09T10:00:20Z</time>
      </trkpt>
      <trkpt lat="38.3074840" lon="14.9954360">
        <ele>12.6300000</ele>
        <time>2013-06-09T10:00:39Z</time>
      </trkpt>
      <trkpt lat="38.3075070" lon="14.9953180">
        <ele>12.6300000</ele>
        <time>2013-06-09T10:00:59Z</time>
      </trkpt>
      <trkpt lat="38.3074950" lon="14.9952050">
        <ele>12.6300000</ele>
        <time>2013-06-09T10:01:18Z</time>
      </trkpt>
      <trkpt lat="38.3074570" lon="14.9950550">
        <ele>12.1500000</ele>
        <time>2013-06-09T10:01:41Z</time>
      </trkpt>
      <trkpt lat="38.3074340" lon="14.9949010">
        <ele>12.6300000</ele>
        <time>2013-06-09T10:02:04Z</time>
      </trkpt>
      <trkpt lat="38.3075680" lon="14.9947430">
        <ele>12.1500000</ele>
        <time>2013-06-09T10:02:21Z</time>
      </trkpt>
      <trkpt lat="38.3078880" lon="14.9946990">
        <ele>12.6300000</ele>
        <time>2013-06-09T10:02:41Z</time>
      </trkpt>
      <trkpt lat="38.3080670" lon="14.9948180">
        <ele>12.1500000</ele>
        <time>2013-06-09T10:03:00Z</time>
      </trkpt>
      <trkpt lat="38.3081820" lon="14.9949060">
        <ele>12.1500000</ele>
        <time>2013-06-09T10:03:21Z</time>
      </trkpt>
      <trkpt lat="38.3082540" lon="14.9949460">
        <ele>12.6300000</ele>
        <time>2013-06-09T10:03:46Z</time>
      </trkpt>
      <trkpt lat="38.3082700" lon="14.9949420">
        <ele>12.1500000</ele>
        <time>2013-06-09T10:04:11Z</time>
      </trkpt>
      <trkpt lat="38.3082960" lon="14.9948840">
        <ele>12.1500000</ele>
        <time>2013-06-09T10:04:39Z</time>
      </trkpt>
      <trkpt lat="38.3083000" lon="14.9948510">
        <ele>11.6700000</ele>
        <time>2013-06-09T10:05:05Z</time>
      </trkpt>
      <trkpt lat="38.3083610" lon="14.9949320">
        <ele>12.1500000</ele>
        <time>2013-06-09T10:05:19Z</time>
      </trkpt>
      <trkpt lat="38.3085480" lon="14.9950770">
        <ele>12.1500000</ele>
        <time>2013-06-09T10:05:41Z</time>
      </trkpt>
      <trkpt lat="38.3088070" lon="14.9951620">
        <ele>11.6700000</ele>
        <time>2013-06-09T10:06:01Z</time>
      </trkpt>
      <trkpt lat="38.3091430" lon="14.9952010">
        <ele>12.1500000</ele>
        <time>2013-06-09T10:06:24Z</time>
      </trkpt>
      <trkpt lat="38.3095130" lon="14.9952100">
        <ele>11.6700000</ele>
        <time>2013-06-09T10:06:48Z</time>
      </trkpt>
      <trkpt lat="38.3099170" lon="14.9952340">
        <ele>11.1900000</ele>
        <time>2013-06-09T10:07:10Z</time>
      </trkpt>
      <trkpt lat="38.3103980" lon="14.9953330">
        <ele>12.1500000</ele>
        <time>2013-06-09T10:07:33Z</time>
      </trkpt>
      <trkpt lat="38.3108440" lon="14.9954010">
        <ele>11.1900000</ele>
        <time>2013-06-09T10:07:53Z</time>
      </trkpt>
      <trkpt lat="38.3113780" lon="14.9954730">
        <ele>11.6700000</ele>
        <time>2013-06-09T10:08:15Z</time>
      </trkpt>
      <trkpt lat="38.3120350" lon="14.9955870">
        <ele>11.1900000</ele>
        <time>2013-06-09T10:08:39Z</time>
      </trkpt>
      <trkpt lat="38.3126450" lon="14.9956450">
        <ele>11.1900000</ele>
        <time>2013-06-09T10:09:01Z</time>
      </trkpt>
      <trkpt lat="38.3131480" lon="14.9957250">
        <ele>11.1900000</ele>
        <time>2013-06-09T10:09:19Z</time>
      </trkpt>
      <trkpt lat="38.3137210" lon="14.9958080">
        <ele>11.1900000</ele>
        <time>2013-06-09T10:09:40Z</time>
      </trkpt>
      <trkpt lat="38.3143350" lon="14.9958790">
        <ele>10.7100000</ele>
        <time>2013-06-09T10:10:03Z</time>
      </trkpt>
      <trkpt lat="38.3150020" lon="14.9959520">
        <ele>10.7100000</ele>
        <time>2013-06-09T10:10:27Z</time>
      </trkpt>
      <trkpt lat="38.3156360" lon="14.9960180">
        <ele>11.1900000</ele>
        <time>2013-06-09T10:10:50Z</time>
      </trkpt>
      <trkpt lat="38.3162310" lon="14.9960440">
        <ele>10.7100000</ele>
        <time>2013-06-09T10:11:12Z</time>
      </trkpt>
      <trkpt lat="38.3169020" lon="14.9961040">
        <ele>10.7100000</ele>
        <time>2013-06-09T10:11:36Z</time>
      </trkpt>
      <trkpt lat="38.3174900" lon="14.9962170">
        <ele>10.2300000</ele>
        <time>2013-06-09T10:11:58Z</time>
      </trkpt>
      <trkpt lat="38.3180960" lon="14.9963550">
        <ele>10.2300000</ele>
        <time>2013-06-09T10:12:21Z</time>
      </trkpt>
      <trkpt lat="38.3186380" lon="14.9964420">
        <ele>10.7100000</ele>
        <time>2013-06-09T10:12:41Z</time>
      </trkpt>
      <trkpt lat="38.3192140" lon="14.9964900">
        <ele>10.2300000</ele>
        <time>2013-06-09T10:13:02Z</time>
      </trkpt>
      <trkpt lat="38.3197670" lon="14.9965150">
        <ele>10.2300000</ele>
        <time>2013-06-09T10:13:23Z</time>
      </trkpt>
      <trkpt lat="38.3203770" lon="14.9966570">
        <ele>10.2300000</ele>
        <time>2013-06-09T10:13:46Z</time>
      </trkpt>
      <trkpt lat="38.3210450" lon="14.9967240">
        <ele>11.1900000</ele>
        <time>2013-06-09T10:14:11Z</time>
      </trkpt>
      <trkpt lat="38.3216930" lon="14.9967810">
        <ele>10.2300000</ele>
        <time>2013-06-09T10:14:35Z</time>
      </trkpt>
      <trkpt lat="38.3223800" lon="14.9968240">
        <ele>10.7100000</ele>
        <time>2013-06-09T10:15:00Z</time>
      </trkpt>
      <trkpt lat="38.3230090" lon="14.9969340">
        <ele>10.2300000</ele>
        <time>2013-06-09T10:15:23Z</time>
      </trkpt>
      <trkpt lat="38.3236080" lon="14.9970500">
        <ele>10.7100000</ele>
        <time>2013-06-09T10:15:45Z</time>
      </trkpt>
      <trkpt lat="38.3241920" lon="14.9971290">
        <ele>10.7100000</ele>
        <time>2013-06-09T10:16:07Z</time>
      </trkpt>
      <trkpt lat="38.3249170" lon="14.9972400">
        <ele>10.2300000</ele>
        <time>2013-06-09T10:16:34Z</time>
      </trkpt>
      <trkpt lat="38.3255160" lon="14.9973470">
        <ele>10.2300000</ele>
        <time>2013-06-09T10:16:57Z</time>
      </trkpt>
      <trkpt lat="38.3261800" lon="14.9974510">
        <ele>9.7500000</ele>
        <time>2013-06-09T10:17:22Z</time>
      </trkpt>
      <trkpt lat="38.3267360" lon="14.9975370">
        <ele>9.7500000</ele>
        <time>2013-06-09T10:17:43Z</time>
      </trkpt>
      <trkpt lat="38.3273810" lon="14.9976020">
        <ele>9.7500000</ele>
        <time>2013-06-09T10:18:07Z</time>
      </trkpt>
      <trkpt lat="38.3280910" lon="14.9976770">
        <ele>10.2300000</ele>
        <time>2013-06-09T10:18:34Z</time>
      </trkpt>
      <trkpt lat="38.3287240" lon="14.9977560">
        <ele>9.2700000</ele>
        <time>2013-06-09T10:18:58Z</time>
      </trkpt>
      <trkpt lat="38.3293610" lon="14.9978340">
        <ele>10.2300000</ele>
        <time>2013-06-09T10:19:22Z</time>
      </trkpt>
      <trkpt lat="38.3299670" lon="14.9979100">
        <ele>9.2700000</ele>
        <time>2013-06-09T10:19:45Z</time>
      </trkpt>
      <trkpt lat="38.3306310" lon="14.9980160">
        <ele>9.2700000</ele>
        <time>2013-06-09T10:20:10Z</time>
      </trkpt>
      <trkpt lat="38.3311420" lon="14.9981460">
        <ele>9.7500000</ele>
        <time>2013-06-09T10:20:30Z</time>
      </trkpt>
      <trkpt lat="38.3317570" lon="14.9982310">
        <ele>9.7500000</ele>
        <time>2013-06-09T10:20:54Z</time>
      </trkpt>
      <trkpt lat="38.3323940" lon="14.9982900">
        <ele>9.7500000</ele>
        <time>2013-06-09T10:21:19Z</time>
      </trkpt>
      <trkpt lat="38.3329390" lon="14.9983990">
        <ele>9.2700000</ele>
        <time>2013-06-09T10:21:40Z</time>
      </trkpt>
      <trkpt lat="38.3334810" lon="14.9984980">
        <ele>9.2700000</ele>
        <time>2013-06-09T10:22:01Z</time>
      </trkpt>
      <trkpt lat="38.3341480" lon="14.9985720">
        <ele>9.2700000</ele>
        <time>2013-06-09T10:22:26Z</time>
      </trkpt>
      <trkpt lat="38.3346750" lon="14.9986580">
        <ele>9.2700000</ele>
        <time>2013-06-09T10:22:47Z</time>
      </trkpt>
      <trkpt lat="38.3351900" lon="14.9987510">
        <ele>9.2700000</ele>
        <time>2013-06-09T10:23:07Z</time>
      </trkpt>
      <trkpt lat="38.3357050" lon="14.9988280">
        <ele>8.7900000</ele>
        <time>2013-06-09T10:23:27Z</time>
      </trkpt>
      <trkpt lat="38.3362690" lon="14.9989390">
        <ele>9.2700000</ele>
        <time>2013-06-09T10:23:49Z</time>
      </trkpt>
      <trkpt lat="38.3367770" lon="14.9990590">
        <ele>8.7900000</ele>
        <time>2013-06-09T10:24:09Z</time>
      </trkpt>
      <trkpt lat="38.3373030" lon="14.9991730">
        <ele>8.3100000</ele>
        <time>2013-06-09T10:24:30Z</time>
      </trkpt>
      <trkpt lat="38.3378750" lon="14.9993380">
        <ele>9.2700000</ele>
        <time>2013-06-09T10:24:53Z</time>
      </trkpt>
      <trkpt lat="38.3384320" lon="14.9994410">
        <ele>8.3100000</ele>
        <time>2013-06-09T10:25:15Z</time>
      </trkpt>
      <trkpt lat="38.3390310" lon="14.9995020">
        <ele>9.2700000</ele>
        <time>2013-06-09T10:25:38Z</time>
      </trkpt>
      <trkpt lat="38.3396720" lon="14.9995680">
        <ele>8.7900000</ele>
        <time>2013-06-09T10:26:04Z</time>
      </trkpt>
      <trkpt lat="38.3402790" lon="14.9996600">
        <ele>8.3100000</ele>
        <time>2013-06-09T10:26:29Z</time>
      </trkpt>
      <trkpt lat="38.3407970" lon="14.9997600">
        <ele>8.7900000</ele>
        <time>2013-06-09T10:26:50Z</time>
      </trkpt>
      <trkpt lat="38.3413580" lon="14.9998690">
        <ele>8.7900000</ele>
        <time>2013-06-09T10:27:12Z</time>
      </trkpt>
      <trkpt lat="38.3418620" lon="14.9999570">
        <ele>8.7900000</ele>
        <time>2013-06-09T10:27:33Z</time>
      </trkpt>
      <trkpt lat="38.3423580" lon="15.0000510">
        <ele>8.7900000</ele>
        <time>2013-06-09T10:27:53Z</time>
      </trkpt>
      <trkpt lat="38.3429490" lon="15.0001700">
        <ele>8.7900000</ele>
        <time>2013-06-09T10:28:17Z</time>
      </trkpt>
      <trkpt lat="38.3435520" lon="15.0002450">
        <ele>8.7900000</ele>
        <time>2013-06-09T10:28:41Z</time>
      </trkpt>
      <trkpt lat="38.3441010" lon="15.0003240">
        <ele>8.7900000</ele>
        <time>2013-06-09T10:29:04Z</time>
      </trkpt>
      <trkpt lat="38.3446540" lon="15.0004370">
        <ele>8.7900000</ele>
        <time>2013-06-09T10:29:27Z</time>
      </trkpt>
      <trkpt lat="38.3450700" lon="15.0005310">
        <ele>9.2700000</ele>
        <time>2013-06-09T10:29:44Z</time>
      </trkpt>
      <trkpt lat="38.3456460" lon="15.0006440">
        <ele>9.2700000</ele>
        <time>2013-06-09T10:30:08Z</time>
      </trkpt>
      <trkpt lat="38.3462910" lon="15.0007460">
        <ele>9.2700000</ele>
        <time>2013-06-09T10:30:34Z</time>
      </trkpt>
      <trkpt lat="38.3468250" lon="15.0008640">
        <ele>9.7500000</ele>
        <time>2013-06-09T10:30:57Z</time>
      </trkpt>
      <trkpt lat="38.3473890" lon="15.0010010">
        <ele>8.7900000</ele>
        <time>2013-06-09T10:31:21Z</time>
      </trkpt>
      <trkpt lat="38.3478620" lon="15.0011170">
        <ele>8.7900000</ele>
        <time>2013-06-09T10:31:41Z</time>
      </trkpt>
      <trkpt lat="38.3483660" lon="15.0012010">
        <ele>8.7900000</ele>
        <time>2013-06-09T10:32:02Z</time>
      </trkpt>
      <trkpt lat="38.3489190" lon="15.0013130">
        <ele>9.2700000</ele>
        <time>2013-06-09T10:32:25Z</time>
      </trkpt>
      <trkpt lat="38.3494610" lon="15.0014480">
        <ele>9.2700000</ele>
        <time>2013-06-09T10:32:48Z</time>
      </trkpt>
      <trkpt lat="38.3499150" lon="15.0015810">
        <ele>9.2700000</ele>
        <time>2013-06-09T10:33:07Z</time>
      </trkpt>
      <trkpt lat="38.3504030" lon="15.0016640">
        <ele>8.3100000</ele>
        <time>2013-06-09T10:33:28Z</time>
      </trkpt>
      <trkpt lat="38.3509220" lon="15.0017280">
        <ele>8.7900000</ele>
        <time>2013-06-09T10:33:50Z</time>
      </trkpt>
      <trkpt lat="38.3514560" lon="15.0018350">
        <ele>8.7900000</ele>
        <time>2013-06-09T10:34:12Z</time>
      </trkpt>
      <trkpt lat="38.3520200" lon="15.0019760">
        <ele>8.7900000</ele>
        <time>2013-06-09T10:34:36Z</time>
      </trkpt>
      <trkpt lat="38.3525850" lon="15.0021110">
        <ele>8.3100000</ele>
        <time>2013-06-09T10:35:00Z</time>
      </trkpt>
      <trkpt lat="38.3531650" lon="15.0022410">
        <ele>7.8300000</ele>
        <time>2013-06-09T10:35:24Z</time>
      </trkpt>
      <trkpt lat="38.3536830" lon="15.0023720">
        <ele>7.8300000</ele>
        <time>2013-06-09T10:35:45Z</time>
      </trkpt>
      <trkpt lat="38.3542290" lon="15.0024940">
        <ele>8.3100000</ele>
        <time>2013-06-09T10:36:09Z</time>
      </trkpt>
      <trkpt lat="38.3547970" lon="15.0026190">
        <ele>8.3100000</ele>
        <time>2013-06-09T10:36:33Z</time>
      </trkpt>
      <trkpt lat="38.3554000" lon="15.0027590">
        <ele>7.8300000</ele>
        <time>2013-06-09T10:36:59Z</time>
      </trkpt>
      <trkpt lat="38.3560410" lon="15.0028550">
        <ele>7.8300000</ele>
        <time>2013-06-09T10:37:26Z</time>
      </trkpt>
      <trkpt lat="38.3566020" lon="15.0029600">
        <ele>8.3100000</ele>
        <time>2013-06-09T10:37:50Z</time>
      </trkpt>
      <trkpt lat="38.3570710" lon="15.0030480">
        <ele>7.8300000</ele>
        <time>2013-06-09T10:38:10Z</time>
      </trkpt>
      <trkpt lat="38.3576470" lon="15.0031240">
        <ele>8.7900000</ele>
        <time>2013-06-09T10:38:34Z</time>
      </trkpt>
      <trkpt lat="38.3581430" lon="15.0032180">
        <ele>8.3100000</ele>
        <time>2013-06-09T10:38:56Z</time>
      </trkpt>
      <trkpt lat="38.3586080" lon="15.0033430">
        <ele>7.8300000</ele>
        <time>2013-06-09T10:39:16Z</time>
      </trkpt>
      <trkpt lat="38.3591840" lon="15.0035060">
        <ele>7.8300000</ele>
        <time>2013-06-09T10:39:42Z</time>
      </trkpt>
      <trkpt lat="38.3596570" lon="15.0036210">
        <ele>8.3100000</ele>
        <time>2013-06-09T10:40:03Z</time>
      </trkpt>
      <trkpt lat="38.3601260" lon="15.0037670">
        <ele>8.3100000</ele>
        <time>2013-06-09T10:40:24Z</time>
      </trkpt>
      <trkpt lat="38.3605880" lon="15.0039020">
        <ele>8.3100000</ele>
        <time>2013-06-09T10:40:44Z</time>
      </trkpt>
      <trkpt lat="38.3612060" lon="15.0041270">
        <ele>8.7900000</ele>
        <time>2013-06-09T10:41:12Z</time>
      </trkpt>
      <trkpt lat="38.3616910" lon="15.0042830">
        <ele>8.3100000</ele>
        <time>2013-06-09T10:41:34Z</time>
      </trkpt>
      <trkpt lat="38.3622670" lon="15.0044310">
        <ele>8.3100000</ele>
        <time>2013-06-09T10:42:00Z</time>
      </trkpt>
      <trkpt lat="38.3627740" lon="15.0045800">
        <ele>7.8300000</ele>
        <time>2013-06-09T10:42:22Z</time>
      </trkpt>
      <trkpt lat="38.3632930" lon="15.0047260">
        <ele>8.7900000</ele>
        <time>2013-06-09T10:42:45Z</time>
      </trkpt>
      <trkpt lat="38.3638420" lon="15.0048710">
        <ele>8.3100000</ele>
        <time>2013-06-09T10:43:09Z</time>
      </trkpt>
      <trkpt lat="38.3643990" lon="15.0049810">
        <ele>8.3100000</ele>
        <time>2013-06-09T10:43:32Z</time>
      </trkpt>
      <trkpt lat="38.3648340" lon="15.0051160">
        <ele>7.8300000</ele>
        <time>2013-06-09T10:43:52Z</time>
      </trkpt>
      <trkpt lat="38.3653070" lon="15.0052330">
        <ele>8.3100000</ele>
        <time>2013-06-09T10:44:13Z</time>
      </trkpt>
      <trkpt lat="38.3658520" lon="15.0053830">
        <ele>7.8300000</ele>
        <time>2013-06-09T10:44:37Z</time>
      </trkpt>
      <trkpt lat="38.3664170" lon="15.0055340">
        <ele>8.3100000</ele>
        <time>2013-06-09T10:45:02Z</time>
      </trkpt>
      <trkpt lat="38.3669470" lon="15.0057120">
        <ele>8.3100000</ele>
        <time>2013-06-09T10:45:26Z</time>
      </trkpt>
      <trkpt lat="38.3674810" lon="15.0058840">
        <ele>8.3100000</ele>
        <time>2013-06-09T10:45:50Z</time>
      </trkpt>
      <trkpt lat="38.3680230" lon="15.0060030">
        <ele>8.3100000</ele>
        <time>2013-06-09T10:46:14Z</time>
      </trkpt>
      <trkpt lat="38.3686220" lon="15.0061150">
        <ele>7.3500000</ele>
        <time>2013-06-09T10:46:40Z</time>
      </trkpt>
      <trkpt lat="38.3691060" lon="15.0062390">
        <ele>7.8300000</ele>
        <time>2013-06-09T10:47:02Z</time>
      </trkpt>
      <trkpt lat="38.3697280" lon="15.0064030">
        <ele>7.3500000</ele>
        <time>2013-06-09T10:47:30Z</time>
      </trkpt>
      <trkpt lat="38.3702660" lon="15.0065750">
        <ele>8.3100000</ele>
        <time>2013-06-09T10:47:55Z</time>
      </trkpt>
      <trkpt lat="38.3708110" lon="15.0067380">
        <ele>7.8300000</ele>
        <time>2013-06-09T10:48:20Z</time>
      </trkpt>
      <trkpt lat="38.3712730" lon="15.0069050">
        <ele>7.8300000</ele>
        <time>2013-06-09T10:48:41Z</time>
      </trkpt>
      <trkpt lat="38.3718110" lon="15.0071480">
        <ele>7.8300000</ele>
        <time>2013-06-09T10:49:06Z</time>
      </trkpt>
      <trkpt lat="38.3722950" lon="15.0073670">
        <ele>8.7900000</ele>
        <time>2013-06-09T10:49:29Z</time>
      </trkpt>
      <trkpt lat="38.3727490" lon="15.0075960">
        <ele>7.8300000</ele>
        <time>2013-06-09T10:49:52Z</time>
      </trkpt>
      <trkpt lat="38.3732990" lon="15.0078250">
        <ele>7.8300000</ele>
        <time>2013-06-09T10:50:17Z</time>
      </trkpt>
      <trkpt lat="38.3738250" lon="15.0079530">
        <ele>8.3100000</ele>
        <time>2013-06-09T10:50:40Z</time>
      </trkpt>
      <trkpt lat="38.3742290" lon="15.0081130">
        <ele>8.3100000</ele>
        <time>2013-06-09T10:51:00Z</time>
      </trkpt>
      <trkpt lat="38.3747250" lon="15.0082520">
        <ele>7.3500000</ele>
        <time>2013-06-09T10:51:22Z</time>
      </trkpt>
      <trkpt lat="38.3751910" lon="15.0082650">
        <ele>7.8300000</ele>
        <time>2013-06-09T10:51:41Z</time>
      </trkpt>
      <trkpt lat="38.3757100" lon="15.0082010">
        <ele>8.3100000</ele>
        <time>2013-06-09T10:52:02Z</time>
      </trkpt>
      <trkpt lat="38.3761790" lon="15.0081100">
        <ele>7.3500000</ele>
        <time>2013-06-09T10:52:21Z</time>
      </trkpt>
      <trkpt lat="38.3767320" lon="15.0079870">
        <ele>7.3500000</ele>
        <time>2013-06-09T10:52:44Z</time>
      </trkpt>
      <trkpt lat="38.3773270" lon="15.0078260">
        <ele>6.8700000</ele>
        <time>2013-06-09T10:53:08Z</time>
      </trkpt>
      <trkpt lat="38.3779110" lon="15.0076760">
        <ele>6.8700000</ele>
        <time>2013-06-09T10:53:31Z</time>
      </trkpt>
      <trkpt lat="38.3785060" lon="15.0075400">
        <ele>6.8700000</ele>
        <time>2013-06-09T10:53:54Z</time>
      </trkpt>
      <trkpt lat="38.3790860" lon="15.0073650">
        <ele>6.3900000</ele>
        <time>2013-06-09T10:54:17Z</time>
      </trkpt>
      <trkpt lat="38.3797150" lon="15.0071480">
        <ele>6.3900000</ele>
        <time>2013-06-09T10:54:42Z</time>
      </trkpt>
      <trkpt lat="38.3803250" lon="15.0069320">
        <ele>6.8700000</ele>
        <time>2013-06-09T10:55:06Z</time>
      </trkpt>
      <trkpt lat="38.3809890" lon="15.0067090">
        <ele>6.3900000</ele>
        <time>2013-06-09T10:55:32Z</time>
      </trkpt>
      <trkpt lat="38.3816600" lon="15.0064640">
        <ele>5.9100000</ele>
        <time>2013-06-09T10:55:58Z</time>
      </trkpt>
      <trkpt lat="38.3822860" lon="15.0061870">
        <ele>5.4200000</ele>
        <time>2013-06-09T10:56:22Z</time>
      </trkpt>
      <trkpt lat="38.3828960" lon="15.0059300">
        <ele>5.9100000</ele>
        <time>2013-06-09T10:56:46Z</time>
      </trkpt>
      <trkpt lat="38.3834570" lon="15.0057060">
        <ele>5.4200000</ele>
        <time>2013-06-09T10:57:08Z</time>
      </trkpt>
      <trkpt lat="38.3839450" lon="15.0054870">
        <ele>5.9100000</ele>
        <time>2013-06-09T10:57:27Z</time>
      </trkpt>
      <trkpt lat="38.3844600" lon="15.0052740">
        <ele>4.9400000</ele>
        <time>2013-06-09T10:57:47Z</time>
      </trkpt>
      <trkpt lat="38.3850780" lon="15.0049920">
        <ele>4.9400000</ele>
        <time>2013-06-09T10:58:11Z</time>
      </trkpt>
      <trkpt lat="38.3857730" lon="15.0046700">
        <ele>4.9400000</ele>
        <time>2013-06-09T10:58:38Z</time>
      </trkpt>
      <trkpt lat="38.3864520" lon="15.0043630">
        <ele>5.4200000</ele>
        <time>2013-06-09T10:59:05Z</time>
      </trkpt>
      <trkpt lat="38.3869900" lon="15.0041390">
        <ele>5.9100000</ele>
        <time>2013-06-09T10:59:26Z</time>
      </trkpt>
      <trkpt lat="38.3876080" lon="15.0038590">
        <ele>4.9400000</ele>
        <time>2013-06-09T10:59:50Z</time>
      </trkpt>
      <trkpt lat="38.3881990" lon="15.0035920">
        <ele>4.9400000</ele>
        <time>2013-06-09T11:00:13Z</time>
      </trkpt>
      <trkpt lat="38.3887520" lon="15.0033630">
        <ele>4.4600000</ele>
        <time>2013-06-09T11:00:35Z</time>
      </trkpt>
      <trkpt lat="38.3894390" lon="15.0030520">
        <ele>4.4600000</ele>
        <time>2013-06-09T11:01:01Z</time>
      </trkpt>
      <trkpt lat="38.3901290" lon="15.0027170">
        <ele>4.4600000</ele>
        <time>2013-06-09T11:01:28Z</time>
      </trkpt>
      <trkpt lat="38.3907130" lon="15.0024330">
        <ele>3.9800000</ele>
        <time>2013-06-09T11:01:51Z</time>
      </trkpt>
      <trkpt lat="38.3914030" lon="15.0020660">
        <ele>3.9800000</ele>
        <time>2013-06-09T11:02:18Z</time>
      </trkpt>
      <trkpt lat="38.3919870" lon="15.0017680">
        <ele>3.0200000</ele>
        <time>2013-06-09T11:02:41Z</time>
      </trkpt>
      <trkpt lat="38.3924100" lon="15.0014980">
        <ele>4.4600000</ele>
        <time>2013-06-09T11:02:58Z</time>
      </trkpt>
      <trkpt lat="38.3928570" lon="15.0012340">
        <ele>3.9800000</ele>
        <time>2013-06-09T11:03:16Z</time>
      </trkpt>
      <trkpt lat="38.3933070" lon="15.0010120">
        <ele>3.5000000</ele>
        <time>2013-06-09T11:03:33Z</time>
      </trkpt>
      <trkpt lat="38.3937840" lon="15.0007580">
        <ele>3.5000000</ele>
        <time>2013-06-09T11:03:51Z</time>
      </trkpt>
      <trkpt lat="38.3942530" lon="15.0005160">
        <ele>3.5000000</ele>
        <time>2013-06-09T11:04:09Z</time>
      </trkpt>
      <trkpt lat="38.3947220" lon="15.0002650">
        <ele>3.5000000</ele>
        <time>2013-06-09T11:04:27Z</time>
      </trkpt>
      <trkpt lat="38.3952870" lon="14.9999200">
        <ele>3.5000000</ele>
        <time>2013-06-09T11:04:49Z</time>
      </trkpt>
      <trkpt lat="38.3957670" lon="14.9996050">
        <ele>3.0200000</ele>
        <time>2013-06-09T11:05:08Z</time>
      </trkpt>
      <trkpt lat="38.3962750" lon="14.9992740">
        <ele>3.5000000</ele>
        <time>2013-06-09T11:05:28Z</time>
      </trkpt>
      <trkpt lat="38.3968050" lon="14.9989410">
        <ele>3.0200000</ele>
        <time>2013-06-09T11:05:49Z</time>
      </trkpt>
      <trkpt lat="38.3973240" lon="14.9985110">
        <ele>3.0200000</ele>
        <time>2013-06-09T11:06:11Z</time>
      </trkpt>
      <trkpt lat="38.3977740" lon="14.9980970">
        <ele>3.0200000</ele>
        <time>2013-06-09T11:06:30Z</time>
      </trkpt>
      <trkpt lat="38.3982770" lon="14.9976380">
        <ele>3.0200000</ele>
        <time>2013-06-09T11:06:52Z</time>
      </trkpt>
      <trkpt lat="38.3986550" lon="14.9973050">
        <ele>3.5000000</ele>
        <time>2013-06-09T11:07:08Z</time>
      </trkpt>
      <trkpt lat="38.3991810" lon="14.9968610">
        <ele>3.5000000</ele>
        <time>2013-06-09T11:07:30Z</time>
      </trkpt>
      <trkpt lat="38.3996160" lon="14.9964640">
        <ele>3.0200000</ele>
        <time>2013-06-09T11:07:48Z</time>
      </trkpt>
      <trkpt lat="38.3999790" lon="14.9961200">
        <ele>3.0200000</ele>
        <time>2013-06-09T11:08:04Z</time>
      </trkpt>
      <trkpt lat="38.4004670" lon="14.9956570">
        <ele>3.0200000</ele>
        <time>2013-06-09T11:08:25Z</time>
      </trkpt>
      <trkpt lat="38.4009020" lon="14.9952340">
        <ele>2.5400000</ele>
        <time>2013-06-09T11:08:44Z</time>
      </trkpt>
      <trkpt lat="38.4014240" lon="14.9947970">
        <ele>3.0200000</ele>
        <time>2013-06-09T11:09:06Z</time>
      </trkpt>
      <trkpt lat="38.4020120" lon="14.9942430">
        <ele>3.0200000</ele>
        <time>2013-06-09T11:09:31Z</time>
      </trkpt>
      <trkpt lat="38.4026680" lon="14.9935440">
        <ele>3.0200000</ele>
        <time>2013-06-09T11:10:00Z</time>
      </trkpt>
      <trkpt lat="38.4031790" lon="14.9930240">
        <ele>3.0200000</ele>
        <time>2013-06-09T11:10:22Z</time>
      </trkpt>
      <trkpt lat="38.4036640" lon="14.9925900">
        <ele>3.5000000</ele>
        <time>2013-06-09T11:10:42Z</time>
      </trkpt>
      <trkpt lat="38.4042890" lon="14.9920170">
        <ele>3.0200000</ele>
        <time>2013-06-09T11:11:08Z</time>
      </trkpt>
      <trkpt lat="38.4048310" lon="14.9914670">
        <ele>3.5000000</ele>
        <time>2013-06-09T11:11:31Z</time>
      </trkpt>
      <trkpt lat="38.4053880" lon="14.9908710">
        <ele>3.0200000</ele>
        <time>2013-06-09T11:11:55Z</time>
      </trkpt>
      <trkpt lat="38.4058950" lon="14.9902370">
        <ele>3.5000000</ele>
        <time>2013-06-09T11:12:19Z</time>
      </trkpt>
      <trkpt lat="38.4063720" lon="14.9896480">
        <ele>3.0200000</ele>
        <time>2013-06-09T11:12:41Z</time>
      </trkpt>
      <trkpt lat="38.4069210" lon="14.9890260">
        <ele>3.0200000</ele>
        <time>2013-06-09T11:13:05Z</time>
      </trkpt>
      <trkpt lat="38.4074060" lon="14.9885000">
        <ele>3.0200000</ele>
        <time>2013-06-09T11:13:26Z</time>
      </trkpt>
      <trkpt lat="38.4079360" lon="14.9879130">
        <ele>3.5000000</ele>
        <time>2013-06-09T11:13:49Z</time>
      </trkpt>
      <trkpt lat="38.4084130" lon="14.9872670">
        <ele>3.5000000</ele>
        <time>2013-06-09T11:14:12Z</time>
      </trkpt>
      <trkpt lat="38.4088940" lon="14.9865670">
        <ele>3.5000000</ele>
        <time>2013-06-09T11:14:36Z</time>
      </trkpt>
      <trkpt lat="38.4093890" lon="14.9858590">
        <ele>3.0200000</ele>
        <time>2013-06-09T11:15:00Z</time>
      </trkpt>
      <trkpt lat="38.4099200" lon="14.9850490">
        <ele>3.5000000</ele>
        <time>2013-06-09T11:15:27Z</time>
      </trkpt>
      <trkpt lat="38.4104000" lon="14.9842890">
        <ele>3.5000000</ele>
        <time>2013-06-09T11:15:52Z</time>
      </trkpt>
      <trkpt lat="38.4107670" lon="14.9834690">
        <ele>3.5000000</ele>
        <time>2013-06-09T11:16:16Z</time>
      </trkpt>
      <trkpt lat="38.4110640" lon="14.9826990">
        <ele>3.0200000</ele>
        <time>2013-06-09T11:16:38Z</time>
      </trkpt>
      <trkpt lat="38.4113460" lon="14.9818100">
        <ele>3.0200000</ele>
        <time>2013-06-09T11:17:03Z</time>
      </trkpt>
      <trkpt lat="38.4115370" lon="14.9809150">
        <ele>3.0200000</ele>
        <time>2013-06-09T11:17:28Z</time>
      </trkpt>
      <trkpt lat="38.4117320" lon="14.9800530">
        <ele>3.0200000</ele>
        <time>2013-06-09T11:17:52Z</time>
      </trkpt>
      <trkpt lat="38.4119570" lon="14.9792800">
        <ele>3.0200000</ele>
        <time>2013-06-09T11:18:14Z</time>
      </trkpt>
      <trkpt lat="38.4121820" lon="14.9785150">
        <ele>3.0200000</ele>
        <time>2013-06-09T11:18:36Z</time>
      </trkpt>
      <trkpt lat="38.4124830" lon="14.9775790">
        <ele>3.5000000</ele>
        <time>2013-06-09T11:19:03Z</time>
      </trkpt>
      <trkpt lat="38.4127080" lon="14.9768480">
        <ele>3.5000000</ele>
        <time>2013-06-09T11:19:24Z</time>
      </trkpt>
      <trkpt lat="38.4129710" lon="14.9759550">
        <ele>3.0200000</ele>
        <time>2013-06-09T11:19:49Z</time>
      </trkpt>
      <trkpt lat="38.4132080" lon="14.9751200">
        <ele>3.5000000</ele>
        <time>2013-06-09T11:20:13Z</time>
      </trkpt>
      <trkpt lat="38.4134600" lon="14.9742430">
        <ele>3.0200000</ele>
        <time>2013-06-09T11:20:38Z</time>
      </trkpt>
      <trkpt lat="38.4137310" lon="14.9732970">
        <ele>2.5400000</ele>
        <time>2013-06-09T11:21:05Z</time>
      </trkpt>
      <trkpt lat="38.4138490" lon="14.9729530">
        <ele>3.0200000</ele>
        <time>2013-06-09T11:21:15Z</time>
      </trkpt>
      <trkpt lat="38.4141960" lon="14.9721570">
        <ele>3.5000000</ele>
        <time>2013-06-09T11:21:39Z</time>
      </trkpt>
      <trkpt lat="38.4145620" lon="14.9711300">
        <ele>3.5000000</ele>
        <time>2013-06-09T11:22:09Z</time>
      </trkpt>
      <trkpt lat="38.4148030" lon="14.9704170">
        <ele>3.0200000</ele>
        <time>2013-06-09T11:22:30Z</time>
      </trkpt>
      <trkpt lat="38.4150470" lon="14.9695500">
        <ele>3.5000000</ele>
        <time>2013-06-09T11:22:55Z</time>
      </trkpt>
      <trkpt lat="38.4152450" lon="14.9687930">
        <ele>3.9800000</ele>
        <time>2013-06-09T11:23:17Z</time>
      </trkpt>
      <trkpt lat="38.4154890" lon="14.9680600">
        <ele>3.9800000</ele>
        <time>2013-06-09T11:23:40Z</time>
      </trkpt>
      <trkpt lat="38.4157030" lon="14.9673140">
        <ele>3.0200000</ele>
        <time>2013-06-09T11:24:06Z</time>
      </trkpt>
      <trkpt lat="38.4159550" lon="14.9665160">
        <ele>3.0200000</ele>
        <time>2013-06-09T11:24:34Z</time>
      </trkpt>
      <trkpt lat="38.4162410" lon="14.9658980">
        <ele>3.5000000</ele>
        <time>2013-06-09T11:24:59Z</time>
      </trkpt>
      <trkpt lat="38.4165610" lon="14.9653600">
        <ele>3.5000000</ele>
        <time>2013-06-09T11:25:25Z</time>
      </trkpt>
      <trkpt lat="38.4166680" lon="14.9647870">
        <ele>3.5000000</ele>
        <time>2013-06-09T11:25:50Z</time>
      </trkpt>
      <trkpt lat="38.4163860" lon="14.9642280">
        <ele>3.0200000</ele>
        <time>2013-06-09T11:26:16Z</time>
      </trkpt>
      <trkpt lat="38.4160310" lon="14.9636160">
        <ele>3.5000000</ele>
        <time>2013-06-09T11:26:48Z</time>
      </trkpt>
      <trkpt lat="38.4156340" lon="14.9630160">
        <ele>3.9800000</ele>
        <time>2013-06-09T11:27:20Z</time>
      </trkpt>
      <trkpt lat="38.4152720" lon="14.9625300">
        <ele>3.5000000</ele>
        <time>2013-06-09T11:27:47Z</time>
      </trkpt>
      <trkpt lat="38.4148900" lon="14.9621320">
        <ele>3.5000000</ele>
        <time>2013-06-09T11:28:14Z</time>
      </trkpt>
      <trkpt lat="38.4145510" lon="14.9620910">
        <ele>3.5000000</ele>
        <time>2013-06-09T11:28:34Z</time>
      </trkpt>
      <trkpt lat="38.4144860" lon="14.9624270">
        <ele>3.5000000</ele>
        <time>2013-06-09T11:28:51Z</time>
      </trkpt>
      <trkpt lat="38.4146350" lon="14.9625900">
        <ele>3.9800000</ele>
        <time>2013-06-09T11:29:11Z</time>
      </trkpt>
      <trkpt lat="38.4146840" lon="14.9625230">
        <ele>3.5000000</ele>
        <time>2013-06-09T11:29:19Z</time>
      </trkpt>
      <trkpt lat="38.4146840" lon="14.9624470">
        <ele>3.5000000</ele>
        <time>2013-06-09T11:29:25Z</time>
      </trkpt>
      <trkpt lat="38.4144900" lon="14.9623070">
        <ele>3.9800000</ele>
        <time>2013-06-09T11:29:50Z</time>
      </trkpt>
      <trkpt lat="38.4142610" lon="14.9624100">
        <ele>3.0200000</ele>
        <time>2013-06-09T11:30:15Z</time>
      </trkpt>
      <trkpt lat="38.4142680" lon="14.9623280">
        <ele>3.5000000</ele>
        <time>2013-06-09T11:30:41Z</time>
      </trkpt>
      <trkpt lat="38.4142340" lon="14.9623680">
        <ele>3.5000000</ele>
        <time>2013-06-09T11:31:01Z</time>
      </trkpt>
      <trkpt lat="38.4142270" lon="14.9624880">
        <ele>3.5000000</ele>
        <time>2013-06-09T11:31:21Z</time>
      </trkpt>
      <trkpt lat="38.4140550" lon="14.9624930">
        <ele>3.9800000</ele>
        <time>2013-06-09T11:31:46Z</time>
      </trkpt>
      <trkpt lat="38.4138680" lon="14.9621680">
        <ele>3.5000000</ele>
        <time>2013-06-09T11:32:14Z</time>
      </trkpt>
      <trkpt lat="38.4138070" lon="14.9618650">
        <ele>3.5000000</ele>
        <time>2013-06-09T11:32:38Z</time>
      </trkpt>
      <trkpt lat="38.4137080" lon="14.9616760">
        <ele>3.9800000</ele>
        <time>2013-06-09T11:33:05Z</time>
      </trkpt>
      <trkpt lat="38.4137080" lon="14.9616760">
        <ele>3.5000000</ele>
        <time>2013-06-09T11:33:25Z</time>
      </trkpt>
      <trkpt lat="38.4137150" lon="14.9616580">
        <ele>3.5000000</ele>
        <time>2013-06-09T11:33:47Z</time>
      </trkpt>
      <trkpt lat="38.4137150" lon="14.9616580">
        <ele>3.9800000</ele>
        <time>2013-06-09T11:34:11Z</time>
      </trkpt>
      <trkpt lat="38.4137120" lon="14.9616540">
        <ele>3.9800000</ele>
        <time>2013-06-09T11:34:32Z</time>
      </trkpt>
      <trkpt lat="38.4137120" lon="14.9616560">
        <ele>3.9800000</ele>
        <time>2013-06-09T11:34:59Z</time>
      </trkpt>
      <trkpt lat="38.4137120" lon="14.9616560">
        <ele>4.4600000</ele>
        <time>2013-06-09T11:35:26Z</time>
      </trkpt>
      <trkpt lat="38.4137120" lon="14.9616570">
        <ele>4.4600000</ele>
        <time>2013-06-09T11:35:59Z</time>
      </trkpt>
      <trkpt lat="38.4137120" lon="14.9616550">
        <ele>4.4600000</ele>
        <time>2013-06-09T11:36:31Z</time>
      </trkpt>
      <trkpt lat="38.4137150" lon="14.9616540">
        <ele>4.4600000</ele>
        <time>2013-06-09T11:36:55Z</time>
      </trkpt>
      <trkpt lat="38.4137150" lon="14.9616540">
        <ele>4.4600000</ele>
        <time>2013-06-09T11:37:22Z</time>
      </trkpt>
      <trkpt lat="38.4137150" lon="14.9616550">
        <ele>3.9800000</ele>
        <time>2013-06-09T11:37:48Z</time>
      </trkpt>
      <trkpt lat="38.4137150" lon="14.9616550">
        <ele>4.4600000</ele>
        <time>2013-06-09T11:38:14Z</time>
      </trkpt>
      <trkpt lat="38.4137150" lon="14.9616550">
        <ele>4.4600000</ele>
        <time>2013-06-09T11:38:40Z</time>
      </trkpt>
      <trkpt lat="38.4137150" lon="14.9616580">
        <ele>4.4600000</ele>
        <time>2013-06-09T11:39:05Z</time>
      </trkpt>
      <trkpt lat="38.4137150" lon="14.9616620">
        <ele>4.4600000</ele>
        <time>2013-06-09T11:39:33Z</time>
      </trkpt>
      <trkpt lat="38.4137150" lon="14.9616620">
        <ele>4.4600000</ele>
        <time>2013-06-09T11:39:57Z</time>
      </trkpt>
      <trkpt lat="38.4137150" lon="14.9616670">
        <ele>4.4600000</ele>
        <time>2013-06-09T11:40:22Z</time>
      </trkpt>
      <trkpt lat="38.4137150" lon="14.9616670">
        <ele>4.9400000</ele>
        <time>2013-06-09T11:40:47Z</time>
      </trkpt>
      <trkpt lat="38.4137150" lon="14.9616720">
        <ele>4.4600000</ele>
        <time>2013-06-09T11:41:11Z</time>
      </trkpt>
      <trkpt lat="38.4137150" lon="14.9616740">
        <ele>4.4600000</ele>
        <time>2013-06-09T11:41:38Z</time>
      </trkpt>
      <trkpt lat="38.4137150" lon="14.9616740">
        <ele>4.4600000</ele>
        <time>2013-06-09T11:42:04Z</time>
      </trkpt>
      <trkpt lat="38.4137120" lon="14.9616790">
        <ele>4.4600000</ele>
        <time>2013-06-09T11:42:36Z</time>
      </trkpt>
      <trkpt lat="38.4137120" lon="14.9616800">
        <ele>4.4600000</ele>
        <time>2013-06-09T11:43:08Z</time>
      </trkpt>
      <trkpt lat="38.4137080" lon="14.9616790">
        <ele>4.4600000</ele>
        <time>2013-06-09T11:43:35Z</time>
      </trkpt>
      <trkpt lat="38.4137080" lon="14.9616790">
        <ele>4.4600000</ele>
        <time>2013-06-09T11:44:04Z</time>
      </trkpt>
      <trkpt lat="38.4137080" lon="14.9616790">
        <ele>3.9800000</ele>
        <time>2013-06-09T11:44:33Z</time>
      </trkpt>
      <trkpt lat="38.4137080" lon="14.9616830">
        <ele>4.4600000</ele>
        <time>2013-06-09T11:45:02Z</time>
      </trkpt>
      <trkpt lat="38.4137080" lon="14.9616830">
        <ele>4.4600000</ele>
        <time>2013-06-09T11:45:27Z</time>
      </trkpt>
      <trkpt lat="38.4137040" lon="14.9616870">
        <ele>4.9400000</ele>
        <time>2013-06-09T11:45:53Z</time>
      </trkpt>
      <trkpt lat="38.4137040" lon="14.9616890">
        <ele>4.4600000</ele>
        <time>2013-06-09T11:46:17Z</time>
      </trkpt>
      <trkpt lat="38.4137040" lon="14.9616890">
        <ele>4.4600000</ele>
        <time>2013-06-09T11:46:42Z</time>
      </trkpt>
      <trkpt lat="38.4137040" lon="14.9616950">
        <ele>3.9800000</ele>
        <time>2013-06-09T11:47:10Z</time>
      </trkpt>
      <trkpt lat="38.4137000" lon="14.9616970">
        <ele>4.4600000</ele>
        <time>2013-06-09T11:47:40Z</time>
      </trkpt>
      <trkpt lat="38.4137000" lon="14.9616970">
        <ele>4.4600000</ele>
        <time>2013-06-09T11:48:11Z</time>
      </trkpt>
      <trkpt lat="38.4136960" lon="14.9616970">
        <ele>4.4600000</ele>
        <time>2013-06-09T11:48:40Z</time>
      </trkpt>
      <trkpt lat="38.4136920" lon="14.9616990">
        <ele>4.9400000</ele>
        <time>2013-06-09T11:49:11Z</time>
      </trkpt>
      <trkpt lat="38.4136920" lon="14.9616990">
        <ele>4.4600000</ele>
        <time>2013-06-09T11:49:31Z</time>
      </trkpt>
      <trkpt lat="38.4136920" lon="14.9617000">
        <ele>4.4600000</ele>
        <time>2013-06-09T11:49:56Z</time>
      </trkpt>
      <trkpt lat="38.4136920" lon="14.9617000">
        <ele>4.4600000</ele>
        <time>2013-06-09T11:50:23Z</time>
      </trkpt>
      <trkpt lat="38.4136920" lon="14.9617000">
        <ele>4.4600000</ele>
        <time>2013-06-09T11:50:45Z</time>
      </trkpt>
      <trkpt lat="38.4136920" lon="14.9617070">
        <ele>4.4600000</ele>
        <time>2013-06-09T11:51:12Z</time>
      </trkpt>
      <trkpt lat="38.4136920" lon="14.9617090">
        <ele>4.9400000</ele>
        <time>2013-06-09T11:51:38Z</time>
      </trkpt>
      <trkpt lat="38.4136920" lon="14.9617090">
        <ele>4.4600000</ele>
        <time>2013-06-09T11:52:04Z</time>
      </trkpt>
      <trkpt lat="38.4136920" lon="14.9617060">
        <ele>4.9400000</ele>
        <time>2013-06-09T11:52:26Z</time>
      </trkpt>
      <trkpt lat="38.4136920" lon="14.9617060">
        <ele>4.4600000</ele>
        <time>2013-06-09T11:52:51Z</time>
      </trkpt>
      <trkpt lat="38.4136960" lon="14.9617050">
        <ele>4.9400000</ele>
        <time>2013-06-09T11:53:16Z</time>
      </trkpt>
      <trkpt lat="38.4137000" lon="14.9617110">
        <ele>5.4200000</ele>
        <time>2013-06-09T11:53:39Z</time>
      </trkpt>
      <trkpt lat="38.4137000" lon="14.9617110">
        <ele>4.4600000</ele>
        <time>2013-06-09T11:54:03Z</time>
      </trkpt>
      <trkpt lat="38.4137000" lon="14.9617080">
        <ele>4.4600000</ele>
        <time>2013-06-09T11:54:29Z</time>
      </trkpt>
      <trkpt lat="38.4137040" lon="14.9617040">
        <ele>4.9400000</ele>
        <time>2013-06-09T11:54:53Z</time>
      </trkpt>
      <trkpt lat="38.4137040" lon="14.9617040">
        <ele>4.9400000</ele>
        <time>2013-06-09T11:55:20Z</time>
      </trkpt>
      <trkpt lat="38.4137040" lon="14.9617010">
        <ele>4.9400000</ele>
        <time>2013-06-09T11:55:46Z</time>
      </trkpt>
      <trkpt lat="38.4137040" lon="14.9616990">
        <ele>4.9400000</ele>
        <time>2013-06-09T11:56:13Z</time>
      </trkpt>
      <trkpt lat="38.4137040" lon="14.9616990">
        <ele>4.9400000</ele>
        <time>2013-06-09T11:56:40Z</time>
      </trkpt>
      <trkpt lat="38.4137000" lon="14.9616990">
        <ele>4.9400000</ele>
        <time>2013-06-09T11:57:07Z</time>
      </trkpt>
      <trkpt lat="38.4137000" lon="14.9616990">
        <ele>5.4200000</ele>
        <time>2013-06-09T11:57:36Z</time>
      </trkpt>
      <trkpt lat="38.4137000" lon="14.9616990">
        <ele>5.4200000</ele>
        <time>2013-06-09T11:57:59Z</time>
      </trkpt>
      <trkpt lat="38.4137000" lon="14.9616990">
        <ele>4.9400000</ele>
        <time>2013-06-09T11:58:22Z</time>
      </trkpt>
      <trkpt lat="38.4137000" lon="14.9616990">
        <ele>4.9400000</ele>
        <time>2013-06-09T11:58:48Z</time>
      </trkpt>
      <trkpt lat="38.4137000" lon="14.9617000">
        <ele>5.9100000</ele>
        <time>2013-06-09T11:59:12Z</time>
      </trkpt>
      <trkpt lat="38.4137000" lon="14.9617010">
        <ele>4.9400000</ele>
        <time>2013-06-09T11:59:37Z</time>
      </trkpt>
      <trkpt lat="38.4137000" lon="14.9617010">
        <ele>4.9400000</ele>
        <time>2013-06-09T12:00:00Z</time>
      </trkpt>
      <trkpt lat="38.4136960" lon="14.9617020">
        <ele>4.9400000</ele>
        <time>2013-06-09T12:00:26Z</time>
      </trkpt>
      <trkpt lat="38.4136960" lon="14.9617020">
        <ele>5.4200000</ele>
        <time>2013-06-09T12:00:51Z</time>
      </trkpt>
      <trkpt lat="38.4136960" lon="14.9617010">
        <ele>5.4200000</ele>
        <time>2013-06-09T12:01:15Z</time>
      </trkpt>
      <trkpt lat="38.4136920" lon="14.9617000">
        <ele>5.9100000</ele>
        <time>2013-06-09T12:01:41Z</time>
      </trkpt>
      <trkpt lat="38.4136920" lon="14.9617000">
        <ele>4.9400000</ele>
        <time>2013-06-09T12:02:07Z</time>
      </trkpt>
      <trkpt lat="38.4136770" lon="14.9617030">
        <ele>5.4200000</ele>
        <time>2013-06-09T12:02:24Z</time>
      </trkpt>
      <trkpt lat="38.4136770" lon="14.9617030">
        <ele>5.4200000</ele>
        <time>2013-06-09T12:02:37Z</time>
      </trkpt>
      <trkpt lat="38.4136770" lon="14.9617030">
        <ele>2.5400000</ele>
        <time>2013-06-09T12:02:39Z</time>
      </trkpt>
      <trkpt lat="38.4136770" lon="14.9617030">
        <ele>4.9400000</ele>
        <time>2013-06-09T12:02:44Z</time>
      </trkpt>
      <trkpt lat="38.4136730" lon="14.9617040">
        <ele>4.9400000</ele>
        <time>2013-06-09T12:03:02Z</time>
      </trkpt>
      <trkpt lat="38.4136730" lon="14.9617040">
        <ele>-0.3400000</ele>
        <time>2013-06-09T12:03:21Z</time>
      </trkpt>
      <trkpt lat="38.4136730" lon="14.9617040">
        <ele>-1.3000000</ele>
        <time>2013-06-09T12:03:23Z</time>
      </trkpt>
      <trkpt lat="38.4136660" lon="14.9617070">
        <ele>-1.3000000</ele>
        <time>2013-06-09T12:03:45Z</time>
      </trkpt>
      <trkpt lat="38.4136660" lon="14.9617070">
        <ele>7.8300000</ele>
        <time>2013-06-09T12:03:57Z</time>
      </trkpt>
      <trkpt lat="38.4136660" lon="14.9617070">
        <ele>4.4600000</ele>
        <time>2013-06-09T12:04:13Z</time>
      </trkpt>
      <trkpt lat="38.4136620" lon="14.9617130">
        <ele>3.9800000</ele>
        <time>2013-06-09T12:04:19Z</time>
      </trkpt>
      <trkpt lat="38.4137380" lon="14.9617840">
        <ele>4.9400000</ele>
        <time>2013-06-09T13:28:58Z</time>
      </trkpt>
      <trkpt lat="38.4137460" lon="14.9617800">
        <ele>4.9400000</ele>
        <time>2013-06-09T13:28:59Z</time>
      </trkpt>
      <trkpt lat="38.4137080" lon="14.9616850">
        <ele>1.1000000</ele>
        <time>2013-06-09T13:29:22Z</time>
      </trkpt>
      <trkpt lat="38.4137040" lon="14.9616880">
        <ele>1.1000000</ele>
        <time>2013-06-09T13:29:23Z</time>
      </trkpt>
      <trkpt lat="38.4135890" lon="14.9616790">
        <ele>5.4200000</ele>
        <time>2013-06-09T13:31:55Z</time>
      </trkpt>
      <trkpt lat="38.4135890" lon="14.9616790">
        <ele>5.4200000</ele>
        <time>2013-06-09T13:31:56Z</time>
      </trkpt>
      <trkpt lat="38.4136850" lon="14.9617350">
        <ele>3.9800000</ele>
        <time>2013-06-09T13:32:17Z</time>
      </trkpt>
      <trkpt lat="38.4136850" lon="14.9617340">
        <ele>3.5000000</ele>
        <time>2013-06-09T13:32:18Z</time>
      </trkpt>
    </trkseg>
  </trk>

  <trk>
    <name>Aktueller Track: 10 JUN 2013 09:17</name>
    <extensions>
      <gpxx:TrackExtension xmlns:gpxx="http://www.garmin.com/xmlschemas/GpxExtensions/v3">
        <gpxx:DisplayColor>Green</gpxx:DisplayColor>
      </gpxx:TrackExtension>
    </extensions>
    <trkseg>
      <trkpt lat="38.4136850" lon="14.9617340">
        <ele>3.5000000</ele>
        <time>2013-06-10T06:45:00Z</time>
      </trkpt>
      <trkpt lat="38.4533120" lon="14.9934640">
        <ele>5.9100000</ele>
        <time>2013-06-10T07:17:00Z</time>
      </trkpt>
      <trkpt lat="38.4533350" lon="14.9934760">
        <ele>5.9100000</ele>
        <time>2013-06-10T07:17:01Z</time>
      </trkpt>
      <trkpt lat="38.4537620" lon="14.9937800">
        <ele>3.9800000</ele>
        <time>2013-06-10T07:17:19Z</time>
      </trkpt>
      <trkpt lat="38.4542390" lon="14.9941460">
        <ele>7.3500000</ele>
        <time>2013-06-10T07:17:37Z</time>
      </trkpt>
      <trkpt lat="38.4542660" lon="14.9941680">
        <ele>6.8700000</ele>
        <time>2013-06-10T07:17:38Z</time>
      </trkpt>
      <trkpt lat="38.4546130" lon="14.9944770">
        <ele>4.9400000</ele>
        <time>2013-06-10T07:17:53Z</time>
      </trkpt>
      <trkpt lat="38.4551320" lon="14.9948860">
        <ele>5.9100000</ele>
        <time>2013-06-10T07:18:13Z</time>
      </trkpt>
      <trkpt lat="38.4558260" lon="14.9954170">
        <ele>5.9100000</ele>
        <time>2013-06-10T07:18:40Z</time>
      </trkpt>
      <trkpt lat="38.4566420" lon="14.9960260">
        <ele>5.9100000</ele>
        <time>2013-06-10T07:19:12Z</time>
      </trkpt>
      <trkpt lat="38.4573710" lon="14.9965870">
        <ele>6.3900000</ele>
        <time>2013-06-10T07:19:41Z</time>
      </trkpt>
      <trkpt lat="38.4580310" lon="14.9971070">
        <ele>6.3900000</ele>
        <time>2013-06-10T07:20:07Z</time>
      </trkpt>
      <trkpt lat="38.4586450" lon="14.9975660">
        <ele>6.8700000</ele>
        <time>2013-06-10T07:20:31Z</time>
      </trkpt>
      <trkpt lat="38.4593510" lon="14.9981040">
        <ele>6.8700000</ele>
        <time>2013-06-10T07:20:59Z</time>
      </trkpt>
      <trkpt lat="38.4599040" lon="14.9985410">
        <ele>6.8700000</ele>
        <time>2013-06-10T07:21:21Z</time>
      </trkpt>
      <trkpt lat="38.4604340" lon="14.9989450">
        <ele>6.8700000</ele>
        <time>2013-06-10T07:21:42Z</time>
      </trkpt>
      <trkpt lat="38.4611280" lon="14.9994720">
        <ele>5.9100000</ele>
        <time>2013-06-10T07:22:09Z</time>
      </trkpt>
      <trkpt lat="38.4618640" lon="15.0000290">
        <ele>6.8700000</ele>
        <time>2013-06-10T07:22:38Z</time>
      </trkpt>
      <trkpt lat="38.4626010" lon="15.0005840">
        <ele>6.8700000</ele>
        <time>2013-06-10T07:23:07Z</time>
      </trkpt>
      <trkpt lat="38.4632000" lon="15.0010710">
        <ele>6.3900000</ele>
        <time>2013-06-10T07:23:31Z</time>
      </trkpt>
      <trkpt lat="38.4637830" lon="15.0015300">
        <ele>6.3900000</ele>
        <time>2013-06-10T07:23:54Z</time>
      </trkpt>
      <trkpt lat="38.4643400" lon="15.0019670">
        <ele>6.8700000</ele>
        <time>2013-06-10T07:24:16Z</time>
      </trkpt>
      <trkpt lat="38.4649810" lon="15.0024630">
        <ele>6.8700000</ele>
        <time>2013-06-10T07:24:41Z</time>
      </trkpt>
      <trkpt lat="38.4655420" lon="15.0028990">
        <ele>6.8700000</ele>
        <time>2013-06-10T07:25:03Z</time>
      </trkpt>
      <trkpt lat="38.4661600" lon="15.0033730">
        <ele>6.8700000</ele>
        <time>2013-06-10T07:25:27Z</time>
      </trkpt>
      <trkpt lat="38.4667740" lon="15.0038440">
        <ele>6.8700000</ele>
        <time>2013-06-10T07:25:51Z</time>
      </trkpt>
      <trkpt lat="38.4673840" lon="15.0043110">
        <ele>6.8700000</ele>
        <time>2013-06-10T07:26:15Z</time>
      </trkpt>
      <trkpt lat="38.4680020" lon="15.0047720">
        <ele>6.8700000</ele>
        <time>2013-06-10T07:26:39Z</time>
      </trkpt>
      <trkpt lat="38.4685480" lon="15.0051850">
        <ele>6.8700000</ele>
        <time>2013-06-10T07:27:00Z</time>
      </trkpt>
      <trkpt lat="38.4691350" lon="15.0056400">
        <ele>6.8700000</ele>
        <time>2013-06-10T07:27:23Z</time>
      </trkpt>
      <trkpt lat="38.4697950" lon="15.0061530">
        <ele>6.3900000</ele>
        <time>2013-06-10T07:27:49Z</time>
      </trkpt>
      <trkpt lat="38.4704670" lon="15.0066650">
        <ele>6.8700000</ele>
        <time>2013-06-10T07:28:15Z</time>
      </trkpt>
      <trkpt lat="38.4710500" lon="15.0071190">
        <ele>6.8700000</ele>
        <time>2013-06-10T07:28:38Z</time>
      </trkpt>
      <trkpt lat="38.4716450" lon="15.0075640">
        <ele>7.3500000</ele>
        <time>2013-06-10T07:29:01Z</time>
      </trkpt>
      <trkpt lat="38.4722440" lon="15.0080090">
        <ele>6.8700000</ele>
        <time>2013-06-10T07:29:24Z</time>
      </trkpt>
      <trkpt lat="38.4728050" lon="15.0084330">
        <ele>6.8700000</ele>
        <time>2013-06-10T07:29:46Z</time>
      </trkpt>
      <trkpt lat="38.4733510" lon="15.0088290">
        <ele>6.8700000</ele>
        <time>2013-06-10T07:30:07Z</time>
      </trkpt>
      <trkpt lat="38.4739950" lon="15.0093100">
        <ele>6.8700000</ele>
        <time>2013-06-10T07:30:32Z</time>
      </trkpt>
      <trkpt lat="38.4745900" lon="15.0097570">
        <ele>6.8700000</ele>
        <time>2013-06-10T07:30:55Z</time>
      </trkpt>
      <trkpt lat="38.4751820" lon="15.0102020">
        <ele>6.8700000</ele>
        <time>2013-06-10T07:31:18Z</time>
      </trkpt>
      <trkpt lat="38.4757500" lon="15.0106280">
        <ele>6.8700000</ele>
        <time>2013-06-10T07:31:40Z</time>
      </trkpt>
      <trkpt lat="38.4763720" lon="15.0110950">
        <ele>6.8700000</ele>
        <time>2013-06-10T07:32:04Z</time>
      </trkpt>
      <trkpt lat="38.4768940" lon="15.0114850">
        <ele>6.3900000</ele>
        <time>2013-06-10T07:32:24Z</time>
      </trkpt>
      <trkpt lat="38.4774590" lon="15.0119090">
        <ele>6.3900000</ele>
        <time>2013-06-10T07:32:46Z</time>
      </trkpt>
      <trkpt lat="38.4780580" lon="15.0123530">
        <ele>6.3900000</ele>
        <time>2013-06-10T07:33:09Z</time>
      </trkpt>
      <trkpt lat="38.4785690" lon="15.0127540">
        <ele>6.8700000</ele>
        <time>2013-06-10T07:33:29Z</time>
      </trkpt>
      <trkpt lat="38.4791910" lon="15.0132320">
        <ele>6.3900000</ele>
        <time>2013-06-10T07:33:53Z</time>
      </trkpt>
      <trkpt lat="38.4797290" lon="15.0136370">
        <ele>6.3900000</ele>
        <time>2013-06-10T07:34:14Z</time>
      </trkpt>
      <trkpt lat="38.4803050" lon="15.0140620">
        <ele>6.3900000</ele>
        <time>2013-06-10T07:34:36Z</time>
      </trkpt>
      <trkpt lat="38.4807850" lon="15.0144360">
        <ele>6.8700000</ele>
        <time>2013-06-10T07:34:55Z</time>
      </trkpt>
      <trkpt lat="38.4812470" lon="15.0147860">
        <ele>5.9100000</ele>
        <time>2013-06-10T07:35:13Z</time>
      </trkpt>
      <trkpt lat="38.4817850" lon="15.0151980">
        <ele>6.3900000</ele>
        <time>2013-06-10T07:35:34Z</time>
      </trkpt>
      <trkpt lat="38.4821930" lon="15.0155080">
        <ele>6.3900000</ele>
        <time>2013-06-10T07:35:50Z</time>
      </trkpt>
      <trkpt lat="38.4827160" lon="15.0158920">
        <ele>6.3900000</ele>
        <time>2013-06-10T07:36:10Z</time>
      </trkpt>
      <trkpt lat="38.4832500" lon="15.0163060">
        <ele>6.3900000</ele>
        <time>2013-06-10T07:36:31Z</time>
      </trkpt>
      <trkpt lat="38.4838030" lon="15.0166980">
        <ele>5.9100000</ele>
        <time>2013-06-10T07:36:52Z</time>
      </trkpt>
      <trkpt lat="38.4843940" lon="15.0171310">
        <ele>5.9100000</ele>
        <time>2013-06-10T07:37:15Z</time>
      </trkpt>
      <trkpt lat="38.4849890" lon="15.0175610">
        <ele>6.3900000</ele>
        <time>2013-06-10T07:37:38Z</time>
      </trkpt>
      <trkpt lat="38.4855160" lon="15.0179660">
        <ele>5.9100000</ele>
        <time>2013-06-10T07:37:59Z</time>
      </trkpt>
      <trkpt lat="38.4860000" lon="15.0183320">
        <ele>5.9100000</ele>
        <time>2013-06-10T07:38:18Z</time>
      </trkpt>
      <trkpt lat="38.4865000" lon="15.0187120">
        <ele>5.9100000</ele>
        <time>2013-06-10T07:38:38Z</time>
      </trkpt>
      <trkpt lat="38.4870260" lon="15.0191100">
        <ele>5.4200000</ele>
        <time>2013-06-10T07:38:59Z</time>
      </trkpt>
      <trkpt lat="38.4875370" lon="15.0194820">
        <ele>5.9100000</ele>
        <time>2013-06-10T07:39:19Z</time>
      </trkpt>
      <trkpt lat="38.4879950" lon="15.0198230">
        <ele>5.4200000</ele>
        <time>2013-06-10T07:39:37Z</time>
      </trkpt>
      <trkpt lat="38.4884640" lon="15.0201880">
        <ele>5.9100000</ele>
        <time>2013-06-10T07:39:56Z</time>
      </trkpt>
      <trkpt lat="38.4889680" lon="15.0205740">
        <ele>5.4200000</ele>
        <time>2013-06-10T07:40:16Z</time>
      </trkpt>
      <trkpt lat="38.4893760" lon="15.0208850">
        <ele>5.4200000</ele>
        <time>2013-06-10T07:40:32Z</time>
      </trkpt>
      <trkpt lat="38.4897420" lon="15.0211670">
        <ele>5.4200000</ele>
        <time>2013-06-10T07:40:47Z</time>
      </trkpt>
      <trkpt lat="38.4901160" lon="15.0214520">
        <ele>5.4200000</ele>
        <time>2013-06-10T07:41:02Z</time>
      </trkpt>
      <trkpt lat="38.4905360" lon="15.0217760">
        <ele>5.4200000</ele>
        <time>2013-06-10T07:41:19Z</time>
      </trkpt>
      <trkpt lat="38.4909970" lon="15.0221150">
        <ele>5.4200000</ele>
        <time>2013-06-10T07:41:37Z</time>
      </trkpt>
      <trkpt lat="38.4914930" lon="15.0224810">
        <ele>5.4200000</ele>
        <time>2013-06-10T07:41:57Z</time>
      </trkpt>
      <trkpt lat="38.4920390" lon="15.0228730">
        <ele>5.4200000</ele>
        <time>2013-06-10T07:42:19Z</time>
      </trkpt>
      <trkpt lat="38.4924050" lon="15.0231630">
        <ele>5.9100000</ele>
        <time>2013-06-10T07:42:34Z</time>
      </trkpt>
      <trkpt lat="38.4929280" lon="15.0235610">
        <ele>5.4200000</ele>
        <time>2013-06-10T07:42:55Z</time>
      </trkpt>
      <trkpt lat="38.4934920" lon="15.0240030">
        <ele>5.4200000</ele>
        <time>2013-06-10T07:43:18Z</time>
      </trkpt>
      <trkpt lat="38.4940300" lon="15.0244210">
        <ele>5.4200000</ele>
        <time>2013-06-10T07:43:40Z</time>
      </trkpt>
      <trkpt lat="38.4945720" lon="15.0248460">
        <ele>5.4200000</ele>
        <time>2013-06-10T07:44:02Z</time>
      </trkpt>
      <trkpt lat="38.4950520" lon="15.0252240">
        <ele>5.4200000</ele>
        <time>2013-06-10T07:44:22Z</time>
      </trkpt>
      <trkpt lat="38.4957010" lon="15.0257100">
        <ele>5.4200000</ele>
        <time>2013-06-10T07:44:48Z</time>
      </trkpt>
      <trkpt lat="38.4962200" lon="15.0260980">
        <ele>5.9100000</ele>
        <time>2013-06-10T07:45:09Z</time>
      </trkpt>
      <trkpt lat="38.4968190" lon="15.0265420">
        <ele>5.4200000</ele>
        <time>2013-06-10T07:45:33Z</time>
      </trkpt>
      <trkpt lat="38.4973340" lon="15.0269300">
        <ele>5.9100000</ele>
        <time>2013-06-10T07:45:54Z</time>
      </trkpt>
      <trkpt lat="38.4979060" lon="15.0273720">
        <ele>5.9100000</ele>
        <time>2013-06-10T07:46:18Z</time>
      </trkpt>
      <trkpt lat="38.4984660" lon="15.0278040">
        <ele>5.9100000</ele>
        <time>2013-06-10T07:46:41Z</time>
      </trkpt>
      <trkpt lat="38.4990010" lon="15.0282330">
        <ele>5.9100000</ele>
        <time>2013-06-10T07:47:03Z</time>
      </trkpt>
      <trkpt lat="38.4995500" lon="15.0286920">
        <ele>5.9100000</ele>
        <time>2013-06-10T07:47:26Z</time>
      </trkpt>
      <trkpt lat="38.5000270" lon="15.0290970">
        <ele>5.4200000</ele>
        <time>2013-06-10T07:47:46Z</time>
      </trkpt>
      <trkpt lat="38.5004880" lon="15.0295140">
        <ele>6.3900000</ele>
        <time>2013-06-10T07:48:06Z</time>
      </trkpt>
      <trkpt lat="38.5009960" lon="15.0299230">
        <ele>6.3900000</ele>
        <time>2013-06-10T07:48:27Z</time>
      </trkpt>
      <trkpt lat="38.5015180" lon="15.0303790">
        <ele>5.9100000</ele>
        <time>2013-06-10T07:48:49Z</time>
      </trkpt>
      <trkpt lat="38.5020900" lon="15.0308840">
        <ele>5.4200000</ele>
        <time>2013-06-10T07:49:13Z</time>
      </trkpt>
      <trkpt lat="38.5025330" lon="15.0312690">
        <ele>5.4200000</ele>
        <time>2013-06-10T07:49:36Z</time>
      </trkpt>
      <trkpt lat="38.5028950" lon="15.0316240">
        <ele>5.4200000</ele>
        <time>2013-06-10T07:50:01Z</time>
      </trkpt>
      <trkpt lat="38.5031010" lon="15.0318820">
        <ele>5.4200000</ele>
        <time>2013-06-10T07:50:18Z</time>
      </trkpt>
      <trkpt lat="38.5033110" lon="15.0321710">
        <ele>5.4200000</ele>
        <time>2013-06-10T07:50:37Z</time>
      </trkpt>
      <trkpt lat="38.5035590" lon="15.0324230">
        <ele>5.4200000</ele>
        <time>2013-06-10T07:50:56Z</time>
      </trkpt>
      <trkpt lat="38.5038640" lon="15.0323250">
        <ele>5.4200000</ele>
        <time>2013-06-10T07:51:17Z</time>
      </trkpt>
      <trkpt lat="38.5041660" lon="15.0320880">
        <ele>4.9400000</ele>
        <time>2013-06-10T07:51:41Z</time>
      </trkpt>
      <trkpt lat="38.5044170" lon="15.0318650">
        <ele>5.4200000</ele>
        <time>2013-06-10T07:52:05Z</time>
      </trkpt>
      <trkpt lat="38.5046310" lon="15.0316800">
        <ele>4.9400000</ele>
        <time>2013-06-10T07:52:25Z</time>
      </trkpt>
      <trkpt lat="38.5048750" lon="15.0314910">
        <ele>4.9400000</ele>
        <time>2013-06-10T07:52:47Z</time>
      </trkpt>
      <trkpt lat="38.5050930" lon="15.0313100">
        <ele>5.4200000</ele>
        <time>2013-06-10T07:53:07Z</time>
      </trkpt>
      <trkpt lat="38.5053480" lon="15.0314510">
        <ele>5.4200000</ele>
        <time>2013-06-10T07:53:25Z</time>
      </trkpt>
      <trkpt lat="38.5057870" lon="15.0318480">
        <ele>5.4200000</ele>
        <time>2013-06-10T07:53:50Z</time>
      </trkpt>
      <trkpt lat="38.5061870" lon="15.0321940">
        <ele>5.4200000</ele>
        <time>2013-06-10T07:54:11Z</time>
      </trkpt>
      <trkpt lat="38.5066110" lon="15.0325720">
        <ele>4.9400000</ele>
        <time>2013-06-10T07:54:33Z</time>
      </trkpt>
      <trkpt lat="38.5069690" lon="15.0329030">
        <ele>5.4200000</ele>
        <time>2013-06-10T07:54:52Z</time>
      </trkpt>
      <trkpt lat="38.5073850" lon="15.0333130">
        <ele>5.4200000</ele>
        <time>2013-06-10T07:55:14Z</time>
      </trkpt>
      <trkpt lat="38.5077970" lon="15.0337510">
        <ele>5.4200000</ele>
        <time>2013-06-10T07:55:35Z</time>
      </trkpt>
      <trkpt lat="38.5082590" lon="15.0342120">
        <ele>4.9400000</ele>
        <time>2013-06-10T07:55:58Z</time>
      </trkpt>
      <trkpt lat="38.5086900" lon="15.0345640">
        <ele>5.4200000</ele>
        <time>2013-06-10T07:56:19Z</time>
      </trkpt>
      <trkpt lat="38.5091210" lon="15.0348980">
        <ele>4.9400000</ele>
        <time>2013-06-10T07:56:41Z</time>
      </trkpt>
      <trkpt lat="38.5095100" lon="15.0352350">
        <ele>5.4200000</ele>
        <time>2013-06-10T07:57:00Z</time>
      </trkpt>
      <trkpt lat="38.5099260" lon="15.0356690">
        <ele>5.4200000</ele>
        <time>2013-06-10T07:57:22Z</time>
      </trkpt>
      <trkpt lat="38.5103450" lon="15.0360410">
        <ele>5.4200000</ele>
        <time>2013-06-10T07:57:44Z</time>
      </trkpt>
      <trkpt lat="38.5107840" lon="15.0365010">
        <ele>5.9100000</ele>
        <time>2013-06-10T07:58:07Z</time>
      </trkpt>
      <trkpt lat="38.5111770" lon="15.0368890">
        <ele>4.9400000</ele>
        <time>2013-06-10T07:58:28Z</time>
      </trkpt>
      <trkpt lat="38.5115200" lon="15.0372600">
        <ele>5.4200000</ele>
        <time>2013-06-10T07:58:46Z</time>
      </trkpt>
      <trkpt lat="38.5120200" lon="15.0377480">
        <ele>5.4200000</ele>
        <time>2013-06-10T07:59:10Z</time>
      </trkpt>
      <trkpt lat="38.5124780" lon="15.0381060">
        <ele>4.9400000</ele>
        <time>2013-06-10T07:59:31Z</time>
      </trkpt>
      <trkpt lat="38.5130080" lon="15.0385260">
        <ele>4.9400000</ele>
        <time>2013-06-10T07:59:54Z</time>
      </trkpt>
      <trkpt lat="38.5135800" lon="15.0390060">
        <ele>4.9400000</ele>
        <time>2013-06-10T08:00:18Z</time>
      </trkpt>
      <trkpt lat="38.5140610" lon="15.0394270">
        <ele>4.9400000</ele>
        <time>2013-06-10T08:00:38Z</time>
      </trkpt>
      <trkpt lat="38.5145530" lon="15.0398550">
        <ele>4.4600000</ele>
        <time>2013-06-10T08:00:59Z</time>
      </trkpt>
      <trkpt lat="38.5151480" lon="15.0403400">
        <ele>4.9400000</ele>
        <time>2013-06-10T08:01:23Z</time>
      </trkpt>
      <trkpt lat="38.5156140" lon="15.0407420">
        <ele>4.4600000</ele>
        <time>2013-06-10T08:01:42Z</time>
      </trkpt>
      <trkpt lat="38.5160980" lon="15.0411700">
        <ele>4.9400000</ele>
        <time>2013-06-10T08:02:02Z</time>
      </trkpt>
      <trkpt lat="38.5166440" lon="15.0416870">
        <ele>4.9400000</ele>
        <time>2013-06-10T08:02:26Z</time>
      </trkpt>
      <trkpt lat="38.5171430" lon="15.0421630">
        <ele>4.9400000</ele>
        <time>2013-06-10T08:02:48Z</time>
      </trkpt>
      <trkpt lat="38.5176350" lon="15.0425880">
        <ele>4.4600000</ele>
        <time>2013-06-10T08:03:08Z</time>
      </trkpt>
      <trkpt lat="38.5181010" lon="15.0430230">
        <ele>4.9400000</ele>
        <time>2013-06-10T08:03:28Z</time>
      </trkpt>
      <trkpt lat="38.5186920" lon="15.0435370">
        <ele>4.9400000</ele>
        <time>2013-06-10T08:03:52Z</time>
      </trkpt>
      <trkpt lat="38.5191460" lon="15.0439750">
        <ele>4.9400000</ele>
        <time>2013-06-10T08:04:12Z</time>
      </trkpt>
      <trkpt lat="38.5196950" lon="15.0444950">
        <ele>4.9400000</ele>
        <time>2013-06-10T08:04:36Z</time>
      </trkpt>
      <trkpt lat="38.5201640" lon="15.0449580">
        <ele>4.9400000</ele>
        <time>2013-06-10T08:04:57Z</time>
      </trkpt>
      <trkpt lat="38.5205840" lon="15.0453400">
        <ele>4.9400000</ele>
        <time>2013-06-10T08:05:15Z</time>
      </trkpt>
      <trkpt lat="38.5210380" lon="15.0457540">
        <ele>5.4200000</ele>
        <time>2013-06-10T08:05:35Z</time>
      </trkpt>
      <trkpt lat="38.5214920" lon="15.0461700">
        <ele>5.4200000</ele>
        <time>2013-06-10T08:05:55Z</time>
      </trkpt>
      <trkpt lat="38.5220600" lon="15.0467040">
        <ele>5.4200000</ele>
        <time>2013-06-10T08:06:20Z</time>
      </trkpt>
      <trkpt lat="38.5225260" lon="15.0471550">
        <ele>4.4600000</ele>
        <time>2013-06-10T08:06:41Z</time>
      </trkpt>
      <trkpt lat="38.5229720" lon="15.0476000">
        <ele>5.9100000</ele>
        <time>2013-06-10T08:07:01Z</time>
      </trkpt>
      <trkpt lat="38.5235180" lon="15.0481000">
        <ele>4.9400000</ele>
        <time>2013-06-10T08:07:24Z</time>
      </trkpt>
      <trkpt lat="38.5240250" lon="15.0485650">
        <ele>4.9400000</ele>
        <time>2013-06-10T08:07:46Z</time>
      </trkpt>
      <trkpt lat="38.5244900" lon="15.0489440">
        <ele>5.4200000</ele>
        <time>2013-06-10T08:08:05Z</time>
      </trkpt>
      <trkpt lat="38.5249860" lon="15.0493580">
        <ele>5.4200000</ele>
        <time>2013-06-10T08:08:25Z</time>
      </trkpt>
      <trkpt lat="38.5254590" lon="15.0498020">
        <ele>4.9400000</ele>
        <time>2013-06-10T08:08:45Z</time>
      </trkpt>
      <trkpt lat="38.5259930" lon="15.0502890">
        <ele>4.9400000</ele>
        <time>2013-06-10T08:09:07Z</time>
      </trkpt>
      <trkpt lat="38.5265660" lon="15.0508320">
        <ele>4.9400000</ele>
        <time>2013-06-10T08:09:31Z</time>
      </trkpt>
      <trkpt lat="38.5270160" lon="15.0512870">
        <ele>4.9400000</ele>
        <time>2013-06-10T08:09:51Z</time>
      </trkpt>
      <trkpt lat="38.5275230" lon="15.0517950">
        <ele>4.4600000</ele>
        <time>2013-06-10T08:10:14Z</time>
      </trkpt>
      <trkpt lat="38.5280190" lon="15.0522430">
        <ele>4.4600000</ele>
        <time>2013-06-10T08:10:35Z</time>
      </trkpt>
      <trkpt lat="38.5284840" lon="15.0526570">
        <ele>4.9400000</ele>
        <time>2013-06-10T08:10:55Z</time>
      </trkpt>
      <trkpt lat="38.5289460" lon="15.0530680">
        <ele>3.9800000</ele>
        <time>2013-06-10T08:11:15Z</time>
      </trkpt>
      <trkpt lat="38.5293730" lon="15.0534430">
        <ele>4.4600000</ele>
        <time>2013-06-10T08:11:33Z</time>
      </trkpt>
      <trkpt lat="38.5299530" lon="15.0539500">
        <ele>4.9400000</ele>
        <time>2013-06-10T08:11:58Z</time>
      </trkpt>
      <trkpt lat="38.5304110" lon="15.0543760">
        <ele>4.4600000</ele>
        <time>2013-06-10T08:12:18Z</time>
      </trkpt>
      <trkpt lat="38.5308570" lon="15.0548020">
        <ele>3.9800000</ele>
        <time>2013-06-10T08:12:38Z</time>
      </trkpt>
      <trkpt lat="38.5313260" lon="15.0552560">
        <ele>3.9800000</ele>
        <time>2013-06-10T08:13:00Z</time>
      </trkpt>
      <trkpt lat="38.5318030" lon="15.0556680">
        <ele>3.5000000</ele>
        <time>2013-06-10T08:13:21Z</time>
      </trkpt>
      <trkpt lat="38.5323070" lon="15.0561170">
        <ele>3.9800000</ele>
        <time>2013-06-10T08:13:44Z</time>
      </trkpt>
      <trkpt lat="38.5327870" lon="15.0566040">
        <ele>3.9800000</ele>
        <time>2013-06-10T08:14:09Z</time>
      </trkpt>
      <trkpt lat="38.5331920" lon="15.0570050">
        <ele>3.9800000</ele>
        <time>2013-06-10T08:14:30Z</time>
      </trkpt>
      <trkpt lat="38.5336070" lon="15.0573850">
        <ele>3.9800000</ele>
        <time>2013-06-10T08:14:51Z</time>
      </trkpt>
      <trkpt lat="38.5340120" lon="15.0577650">
        <ele>3.9800000</ele>
        <time>2013-06-10T08:15:11Z</time>
      </trkpt>
      <trkpt lat="38.5344540" lon="15.0581570">
        <ele>4.4600000</ele>
        <time>2013-06-10T08:15:31Z</time>
      </trkpt>
      <trkpt lat="38.5349160" lon="15.0585750">
        <ele>3.5000000</ele>
        <time>2013-06-10T08:15:52Z</time>
      </trkpt>
      <trkpt lat="38.5353320" lon="15.0589720">
        <ele>3.9800000</ele>
        <time>2013-06-10T08:16:11Z</time>
      </trkpt>
      <trkpt lat="38.5357210" lon="15.0593450">
        <ele>3.9800000</ele>
        <time>2013-06-10T08:16:29Z</time>
      </trkpt>
      <trkpt lat="38.5361630" lon="15.0597640">
        <ele>3.9800000</ele>
        <time>2013-06-10T08:16:49Z</time>
      </trkpt>
      <trkpt lat="38.5366130" lon="15.0601820">
        <ele>4.4600000</ele>
        <time>2013-06-10T08:17:09Z</time>
      </trkpt>
      <trkpt lat="38.5370520" lon="15.0605820">
        <ele>3.9800000</ele>
        <time>2013-06-10T08:17:28Z</time>
      </trkpt>
      <trkpt lat="38.5375060" lon="15.0609960">
        <ele>4.4600000</ele>
        <time>2013-06-10T08:17:48Z</time>
      </trkpt>
      <trkpt lat="38.5379940" lon="15.0614830">
        <ele>3.9800000</ele>
        <time>2013-06-10T08:18:10Z</time>
      </trkpt>
      <trkpt lat="38.5384330" lon="15.0618950">
        <ele>3.9800000</ele>
        <time>2013-06-10T08:18:29Z</time>
      </trkpt>
      <trkpt lat="38.5389060" lon="15.0623520">
        <ele>3.9800000</ele>
        <time>2013-06-10T08:18:50Z</time>
      </trkpt>
      <trkpt lat="38.5393600" lon="15.0627710">
        <ele>4.4600000</ele>
        <time>2013-06-10T08:19:10Z</time>
      </trkpt>
      <trkpt lat="38.5397610" lon="15.0631560">
        <ele>4.4600000</ele>
        <time>2013-06-10T08:19:28Z</time>
      </trkpt>
      <trkpt lat="38.5402180" lon="15.0635670">
        <ele>3.9800000</ele>
        <time>2013-06-10T08:19:47Z</time>
      </trkpt>
      <trkpt lat="38.5406880" lon="15.0640070">
        <ele>4.4600000</ele>
        <time>2013-06-10T08:20:07Z</time>
      </trkpt>
      <trkpt lat="38.5411990" lon="15.0644910">
        <ele>3.9800000</ele>
        <time>2013-06-10T08:20:29Z</time>
      </trkpt>
      <trkpt lat="38.5417140" lon="15.0650080">
        <ele>4.4600000</ele>
        <time>2013-06-10T08:20:52Z</time>
      </trkpt>
      <trkpt lat="38.5421260" lon="15.0653980">
        <ele>3.9800000</ele>
        <time>2013-06-10T08:21:10Z</time>
      </trkpt>
      <trkpt lat="38.5425720" lon="15.0657960">
        <ele>3.9800000</ele>
        <time>2013-06-10T08:21:29Z</time>
      </trkpt>
      <trkpt lat="38.5430410" lon="15.0662240">
        <ele>3.9800000</ele>
        <time>2013-06-10T08:21:49Z</time>
      </trkpt>
      <trkpt lat="38.5435910" lon="15.0666840">
        <ele>3.5000000</ele>
        <time>2013-06-10T08:22:11Z</time>
      </trkpt>
      <trkpt lat="38.5440560" lon="15.0671420">
        <ele>3.9800000</ele>
        <time>2013-06-10T08:22:32Z</time>
      </trkpt>
      <trkpt lat="38.5445900" lon="15.0676150">
        <ele>3.5000000</ele>
        <time>2013-06-10T08:22:54Z</time>
      </trkpt>
      <trkpt lat="38.5450250" lon="15.0680140">
        <ele>3.9800000</ele>
        <time>2013-06-10T08:23:12Z</time>
      </trkpt>
      <trkpt lat="38.5456620" lon="15.0685490">
        <ele>3.5000000</ele>
        <time>2013-06-10T08:23:37Z</time>
      </trkpt>
      <trkpt lat="38.5461920" lon="15.0690290">
        <ele>3.5000000</ele>
        <time>2013-06-10T08:23:59Z</time>
      </trkpt>
      <trkpt lat="38.5467260" lon="15.0694870">
        <ele>3.5000000</ele>
        <time>2013-06-10T08:24:20Z</time>
      </trkpt>
      <trkpt lat="38.5471990" lon="15.0699410">
        <ele>3.5000000</ele>
        <time>2013-06-10T08:24:40Z</time>
      </trkpt>
      <trkpt lat="38.5476610" lon="15.0703450">
        <ele>3.0200000</ele>
        <time>2013-06-10T08:24:59Z</time>
      </trkpt>
      <trkpt lat="38.5482980" lon="15.0708630">
        <ele>3.5000000</ele>
        <time>2013-06-10T08:25:24Z</time>
      </trkpt>
      <trkpt lat="38.5488240" lon="15.0712970">
        <ele>3.5000000</ele>
        <time>2013-06-10T08:25:44Z</time>
      </trkpt>
      <trkpt lat="38.5493130" lon="15.0717360">
        <ele>3.5000000</ele>
        <time>2013-06-10T08:26:03Z</time>
      </trkpt>
      <trkpt lat="38.5498010" lon="15.0721700">
        <ele>3.0200000</ele>
        <time>2013-06-10T08:26:22Z</time>
      </trkpt>
      <trkpt lat="38.5503650" lon="15.0726560">
        <ele>3.0200000</ele>
        <time>2013-06-10T08:26:43Z</time>
      </trkpt>
      <trkpt lat="38.5509610" lon="15.0731380">
        <ele>3.5000000</ele>
        <time>2013-06-10T08:27:04Z</time>
      </trkpt>
      <trkpt lat="38.5514870" lon="15.0736640">
        <ele>3.5000000</ele>
        <time>2013-06-10T08:27:24Z</time>
      </trkpt>
      <trkpt lat="38.5519910" lon="15.0740770">
        <ele>3.5000000</ele>
        <time>2013-06-10T08:27:43Z</time>
      </trkpt>
      <trkpt lat="38.5525130" lon="15.0745360">
        <ele>3.0200000</ele>
        <time>2013-06-10T08:28:03Z</time>
      </trkpt>
      <trkpt lat="38.5530050" lon="15.0748680">
        <ele>3.5000000</ele>
        <time>2013-06-10T08:28:21Z</time>
      </trkpt>
      <trkpt lat="38.5533220" lon="15.0748120">
        <ele>3.5000000</ele>
        <time>2013-06-10T08:28:38Z</time>
      </trkpt>
      <trkpt lat="38.5534250" lon="15.0747050">
        <ele>3.5000000</ele>
        <time>2013-06-10T08:29:00Z</time>
      </trkpt>
      <trkpt lat="38.5534480" lon="15.0747440">
        <ele>3.5000000</ele>
        <time>2013-06-10T08:29:20Z</time>
      </trkpt>
      <trkpt lat="38.5534820" lon="15.0748320">
        <ele>3.5000000</ele>
        <time>2013-06-10T08:29:26Z</time>
      </trkpt>
      <trkpt lat="38.5536310" lon="15.0750000">
        <ele>3.5000000</ele>
        <time>2013-06-10T08:29:46Z</time>
      </trkpt>
      <trkpt lat="38.5536500" lon="15.0750060">
        <ele>3.5000000</ele>
        <time>2013-06-10T08:30:08Z</time>
      </trkpt>
      <trkpt lat="38.5536650" lon="15.0751140">
        <ele>3.5000000</ele>
        <time>2013-06-10T08:30:27Z</time>
      </trkpt>
      <trkpt lat="38.5538180" lon="15.0754240">
        <ele>3.5000000</ele>
        <time>2013-06-10T08:30:49Z</time>
      </trkpt>
      <trkpt lat="38.5539890" lon="15.0755660">
        <ele>3.0200000</ele>
        <time>2013-06-10T08:31:03Z</time>
      </trkpt>
      <trkpt lat="38.5540580" lon="15.0754690">
        <ele>3.5000000</ele>
        <time>2013-06-10T08:31:24Z</time>
      </trkpt>
      <trkpt lat="38.5540280" lon="15.0754310">
        <ele>3.5000000</ele>
        <time>2013-06-10T08:31:45Z</time>
      </trkpt>
      <trkpt lat="38.5538600" lon="15.0753190">
        <ele>3.9800000</ele>
        <time>2013-06-10T08:32:04Z</time>
      </trkpt>
      <trkpt lat="38.5537610" lon="15.0752330">
        <ele>3.5000000</ele>
        <time>2013-06-10T08:32:15Z</time>
      </trkpt>
      <trkpt lat="38.5535240" lon="15.0749650">
        <ele>4.4600000</ele>
        <time>2013-06-10T08:32:40Z</time>
      </trkpt>
      <trkpt lat="38.5534060" lon="15.0747310">
        <ele>3.9800000</ele>
        <time>2013-06-10T08:33:01Z</time>
      </trkpt>
      <trkpt lat="38.5534250" lon="15.0746930">
        <ele>3.9800000</ele>
        <time>2013-06-10T08:33:24Z</time>
      </trkpt>
      <trkpt lat="38.5534250" lon="15.0746930">
        <ele>3.9800000</ele>
        <time>2013-06-10T08:33:47Z</time>
      </trkpt>
      <trkpt lat="38.5534930" lon="15.0749030">
        <ele>4.4600000</ele>
        <time>2013-06-10T08:34:08Z</time>
      </trkpt>
      <trkpt lat="38.5535810" lon="15.0750910">
        <ele>4.4600000</ele>
        <time>2013-06-10T08:34:27Z</time>
      </trkpt>
      <trkpt lat="38.5537070" lon="15.0752530">
        <ele>4.4600000</ele>
        <time>2013-06-10T08:34:46Z</time>
      </trkpt>
      <trkpt lat="38.5539170" lon="15.0754310">
        <ele>3.9800000</ele>
        <time>2013-06-10T08:35:06Z</time>
      </trkpt>
      <trkpt lat="38.5541380" lon="15.0756350">
        <ele>3.9800000</ele>
        <time>2013-06-10T08:35:22Z</time>
      </trkpt>
      <trkpt lat="38.5545010" lon="15.0760160">
        <ele>3.9800000</ele>
        <time>2013-06-10T08:35:45Z</time>
      </trkpt>
      <trkpt lat="38.5548020" lon="15.0763530">
        <ele>4.4600000</ele>
        <time>2013-06-10T08:36:05Z</time>
      </trkpt>
      <trkpt lat="38.5551640" lon="15.0767180">
        <ele>3.9800000</ele>
        <time>2013-06-10T08:36:28Z</time>
      </trkpt>
      <trkpt lat="38.5554850" lon="15.0770900">
        <ele>3.9800000</ele>
        <time>2013-06-10T08:36:49Z</time>
      </trkpt>
      <trkpt lat="38.5557790" lon="15.0774600">
        <ele>3.9800000</ele>
        <time>2013-06-10T08:37:07Z</time>
      </trkpt>
      <trkpt lat="38.5561030" lon="15.0777800">
        <ele>3.9800000</ele>
        <time>2013-06-10T08:37:26Z</time>
      </trkpt>
      <trkpt lat="38.5564040" lon="15.0780700">
        <ele>3.5000000</ele>
        <time>2013-06-10T08:37:43Z</time>
      </trkpt>
      <trkpt lat="38.5566980" lon="15.0784030">
        <ele>3.5000000</ele>
        <time>2013-06-10T08:38:02Z</time>
      </trkpt>
      <trkpt lat="38.5569730" lon="15.0788170">
        <ele>3.5000000</ele>
        <time>2013-06-10T08:38:21Z</time>
      </trkpt>
      <trkpt lat="38.5573200" lon="15.0793220">
        <ele>3.0200000</ele>
        <time>2013-06-10T08:38:42Z</time>
      </trkpt>
      <trkpt lat="38.5576440" lon="15.0797770">
        <ele>3.9800000</ele>
        <time>2013-06-10T08:39:00Z</time>
      </trkpt>
      <trkpt lat="38.5580330" lon="15.0802030">
        <ele>3.5000000</ele>
        <time>2013-06-10T08:39:20Z</time>
      </trkpt>
      <trkpt lat="38.5583340" lon="15.0804740">
        <ele>3.5000000</ele>
        <time>2013-06-10T08:39:36Z</time>
      </trkpt>
      <trkpt lat="38.5587460" lon="15.0808290">
        <ele>3.0200000</ele>
        <time>2013-06-10T08:39:57Z</time>
      </trkpt>
      <trkpt lat="38.5591350" lon="15.0811940">
        <ele>3.5000000</ele>
        <time>2013-06-10T08:40:17Z</time>
      </trkpt>
      <trkpt lat="38.5594860" lon="15.0815410">
        <ele>3.5000000</ele>
        <time>2013-06-10T08:40:36Z</time>
      </trkpt>
      <trkpt lat="38.5598300" lon="15.0818840">
        <ele>3.0200000</ele>
        <time>2013-06-10T08:40:54Z</time>
      </trkpt>
      <trkpt lat="38.5602150" lon="15.0822400">
        <ele>3.5000000</ele>
        <time>2013-06-10T08:41:12Z</time>
      </trkpt>
      <trkpt lat="38.5606840" lon="15.0826650">
        <ele>3.0200000</ele>
        <time>2013-06-10T08:41:34Z</time>
      </trkpt>
      <trkpt lat="38.5611190" lon="15.0830810">
        <ele>3.0200000</ele>
        <time>2013-06-10T08:41:56Z</time>
      </trkpt>
      <trkpt lat="38.5614590" lon="15.0834400">
        <ele>3.0200000</ele>
        <time>2013-06-10T08:42:15Z</time>
      </trkpt>
      <trkpt lat="38.5619050" lon="15.0838580">
        <ele>3.0200000</ele>
        <time>2013-06-10T08:42:38Z</time>
      </trkpt>
      <trkpt lat="38.5622670" lon="15.0841980">
        <ele>3.0200000</ele>
        <time>2013-06-10T08:42:56Z</time>
      </trkpt>
      <trkpt lat="38.5626830" lon="15.0845820">
        <ele>3.0200000</ele>
        <time>2013-06-10T08:43:16Z</time>
      </trkpt>
      <trkpt lat="38.5631260" lon="15.0850060">
        <ele>2.5400000</ele>
        <time>2013-06-10T08:43:39Z</time>
      </trkpt>
      <trkpt lat="38.5635530" lon="15.0854120">
        <ele>3.0200000</ele>
        <time>2013-06-10T08:44:01Z</time>
      </trkpt>
      <trkpt lat="38.5639800" lon="15.0857990">
        <ele>3.0200000</ele>
        <time>2013-06-10T08:44:22Z</time>
      </trkpt>
      <trkpt lat="38.5643390" lon="15.0861430">
        <ele>3.0200000</ele>
        <time>2013-06-10T08:44:40Z</time>
      </trkpt>
      <trkpt lat="38.5647280" lon="15.0865140">
        <ele>2.5400000</ele>
        <time>2013-06-10T08:45:00Z</time>
      </trkpt>
      <trkpt lat="38.5650860" lon="15.0868630">
        <ele>3.0200000</ele>
        <time>2013-06-10T08:45:18Z</time>
      </trkpt>
      <trkpt lat="38.5654870" lon="15.0872430">
        <ele>3.0200000</ele>
        <time>2013-06-10T08:45:38Z</time>
      </trkpt>
      <trkpt lat="38.5658840" lon="15.0876230">
        <ele>3.0200000</ele>
        <time>2013-06-10T08:45:58Z</time>
      </trkpt>
      <trkpt lat="38.5662770" lon="15.0880300">
        <ele>3.0200000</ele>
        <time>2013-06-10T08:46:20Z</time>
      </trkpt>
      <trkpt lat="38.5666730" lon="15.0884210">
        <ele>3.0200000</ele>
        <time>2013-06-10T08:46:40Z</time>
      </trkpt>
      <trkpt lat="38.5670930" lon="15.0888450">
        <ele>3.0200000</ele>
        <time>2013-06-10T08:47:02Z</time>
      </trkpt>
      <trkpt lat="38.5675010" lon="15.0892320">
        <ele>3.0200000</ele>
        <time>2013-06-10T08:47:22Z</time>
      </trkpt>
      <trkpt lat="38.5678630" lon="15.0896060">
        <ele>3.0200000</ele>
        <time>2013-06-10T08:47:42Z</time>
      </trkpt>
      <trkpt lat="38.5682030" lon="15.0899470">
        <ele>3.0200000</ele>
        <time>2013-06-10T08:48:00Z</time>
      </trkpt>
      <trkpt lat="38.5685200" lon="15.0902500">
        <ele>3.0200000</ele>
        <time>2013-06-10T08:48:16Z</time>
      </trkpt>
      <trkpt lat="38.5688820" lon="15.0906040">
        <ele>3.0200000</ele>
        <time>2013-06-10T08:48:34Z</time>
      </trkpt>
      <trkpt lat="38.5693360" lon="15.0910310">
        <ele>3.0200000</ele>
        <time>2013-06-10T08:48:56Z</time>
      </trkpt>
      <trkpt lat="38.5697360" lon="15.0914140">
        <ele>2.5400000</ele>
        <time>2013-06-10T08:49:16Z</time>
      </trkpt>
      <trkpt lat="38.5701560" lon="15.0918250">
        <ele>3.0200000</ele>
        <time>2013-06-10T08:49:37Z</time>
      </trkpt>
      <trkpt lat="38.5705600" lon="15.0922170">
        <ele>2.5400000</ele>
        <time>2013-06-10T08:49:58Z</time>
      </trkpt>
      <trkpt lat="38.5709420" lon="15.0925900">
        <ele>2.0600000</ele>
        <time>2013-06-10T08:50:18Z</time>
      </trkpt>
      <trkpt lat="38.5713460" lon="15.0929880">
        <ele>2.5400000</ele>
        <time>2013-06-10T08:50:38Z</time>
      </trkpt>
      <trkpt lat="38.5717810" lon="15.0933900">
        <ele>2.5400000</ele>
        <time>2013-06-10T08:50:59Z</time>
      </trkpt>
      <trkpt lat="38.5722160" lon="15.0937980">
        <ele>2.0600000</ele>
        <time>2013-06-10T08:51:20Z</time>
      </trkpt>
      <trkpt lat="38.5726050" lon="15.0941620">
        <ele>2.5400000</ele>
        <time>2013-06-10T08:51:39Z</time>
      </trkpt>
      <trkpt lat="38.5729790" lon="15.0945250">
        <ele>2.5400000</ele>
        <time>2013-06-10T08:51:57Z</time>
      </trkpt>
      <trkpt lat="38.5733830" lon="15.0949340">
        <ele>2.0600000</ele>
        <time>2013-06-10T08:52:17Z</time>
      </trkpt>
      <trkpt lat="38.5737950" lon="15.0953520">
        <ele>2.0600000</ele>
        <time>2013-06-10T08:52:37Z</time>
      </trkpt>
      <trkpt lat="38.5741880" lon="15.0957570">
        <ele>2.0600000</ele>
        <time>2013-06-10T08:52:57Z</time>
      </trkpt>
      <trkpt lat="38.5746040" lon="15.0961790">
        <ele>2.0600000</ele>
        <time>2013-06-10T08:53:17Z</time>
      </trkpt>
      <trkpt lat="38.5750050" lon="15.0965640">
        <ele>2.0600000</ele>
        <time>2013-06-10T08:53:36Z</time>
      </trkpt>
      <trkpt lat="38.5754090" lon="15.0969640">
        <ele>1.5800000</ele>
        <time>2013-06-10T08:53:56Z</time>
      </trkpt>
      <trkpt lat="38.5757640" lon="15.0973120">
        <ele>2.5400000</ele>
        <time>2013-06-10T08:54:15Z</time>
      </trkpt>
      <trkpt lat="38.5761410" lon="15.0977180">
        <ele>2.5400000</ele>
        <time>2013-06-10T08:54:35Z</time>
      </trkpt>
      <trkpt lat="38.5765150" lon="15.0981040">
        <ele>2.0600000</ele>
        <time>2013-06-10T08:54:54Z</time>
      </trkpt>
      <trkpt lat="38.5769420" lon="15.0985530">
        <ele>2.5400000</ele>
        <time>2013-06-10T08:55:16Z</time>
      </trkpt>
      <trkpt lat="38.5773160" lon="15.0989370">
        <ele>2.5400000</ele>
        <time>2013-06-10T08:55:35Z</time>
      </trkpt>
      <trkpt lat="38.5776900" lon="15.0993080">
        <ele>2.5400000</ele>
        <time>2013-06-10T08:55:54Z</time>
      </trkpt>
      <trkpt lat="38.5781330" lon="15.0997530">
        <ele>2.5400000</ele>
        <time>2013-06-10T08:56:16Z</time>
      </trkpt>
      <trkpt lat="38.5785140" lon="15.1001220">
        <ele>2.0600000</ele>
        <time>2013-06-10T08:56:34Z</time>
      </trkpt>
      <trkpt lat="38.5788960" lon="15.1004780">
        <ele>2.0600000</ele>
        <time>2013-06-10T08:56:52Z</time>
      </trkpt>
      <trkpt lat="38.5792500" lon="15.1008310">
        <ele>2.0600000</ele>
        <time>2013-06-10T08:57:09Z</time>
      </trkpt>
      <trkpt lat="38.5796740" lon="15.1012390">
        <ele>2.0600000</ele>
        <time>2013-06-10T08:57:30Z</time>
      </trkpt>
      <trkpt lat="38.5800630" lon="15.1016370">
        <ele>1.5800000</ele>
        <time>2013-06-10T08:57:51Z</time>
      </trkpt>
      <trkpt lat="38.5804020" lon="15.1019950">
        <ele>1.5800000</ele>
        <time>2013-06-10T08:58:09Z</time>
      </trkpt>
      <trkpt lat="38.5808260" lon="15.1024330">
        <ele>2.0600000</ele>
        <time>2013-06-10T08:58:31Z</time>
      </trkpt>
      <trkpt lat="38.5812720" lon="15.1028730">
        <ele>1.5800000</ele>
        <time>2013-06-10T08:58:53Z</time>
      </trkpt>
      <trkpt lat="38.5816540" lon="15.1032410">
        <ele>2.0600000</ele>
        <time>2013-06-10T08:59:11Z</time>
      </trkpt>
      <trkpt lat="38.5820580" lon="15.1036330">
        <ele>1.5800000</ele>
        <time>2013-06-10T08:59:30Z</time>
      </trkpt>
      <trkpt lat="38.5824510" lon="15.1040440">
        <ele>1.5800000</ele>
        <time>2013-06-10T08:59:52Z</time>
      </trkpt>
      <trkpt lat="38.5829200" lon="15.1045300">
        <ele>1.5800000</ele>
        <time>2013-06-10T09:00:17Z</time>
      </trkpt>
      <trkpt lat="38.5833130" lon="15.1049230">
        <ele>1.1000000</ele>
        <time>2013-06-10T09:00:38Z</time>
      </trkpt>
      <trkpt lat="38.5836830" lon="15.1053260">
        <ele>1.1000000</ele>
        <time>2013-06-10T09:00:59Z</time>
      </trkpt>
      <trkpt lat="38.5841260" lon="15.1057830">
        <ele>1.5800000</ele>
        <time>2013-06-10T09:01:22Z</time>
      </trkpt>
      <trkpt lat="38.5845830" lon="15.1062570">
        <ele>1.5800000</ele>
        <time>2013-06-10T09:01:45Z</time>
      </trkpt>
      <trkpt lat="38.5850070" lon="15.1066830">
        <ele>1.1000000</ele>
        <time>2013-06-10T09:02:06Z</time>
      </trkpt>
      <trkpt lat="38.5853810" lon="15.1070580">
        <ele>1.1000000</ele>
        <time>2013-06-10T09:02:25Z</time>
      </trkpt>
      <trkpt lat="38.5857930" lon="15.1074940">
        <ele>1.1000000</ele>
        <time>2013-06-10T09:02:47Z</time>
      </trkpt>
      <trkpt lat="38.5861320" lon="15.1078430">
        <ele>1.5800000</ele>
        <time>2013-06-10T09:03:06Z</time>
      </trkpt>
      <trkpt lat="38.5864910" lon="15.1082510">
        <ele>1.1000000</ele>
        <time>2013-06-10T09:03:26Z</time>
      </trkpt>
      <trkpt lat="38.5869370" lon="15.1087050">
        <ele>1.5800000</ele>
        <time>2013-06-10T09:03:50Z</time>
      </trkpt>
      <trkpt lat="38.5873530" lon="15.1091520">
        <ele>1.1000000</ele>
        <time>2013-06-10T09:04:13Z</time>
      </trkpt>
      <trkpt lat="38.5877950" lon="15.1096290">
        <ele>1.1000000</ele>
        <time>2013-06-10T09:04:37Z</time>
      </trkpt>
      <trkpt lat="38.5881960" lon="15.1100490">
        <ele>1.1000000</ele>
        <time>2013-06-10T09:04:59Z</time>
      </trkpt>
      <trkpt lat="38.5886150" lon="15.1104850">
        <ele>1.5800000</ele>
        <time>2013-06-10T09:05:21Z</time>
      </trkpt>
      <trkpt lat="38.5890920" lon="15.1109590">
        <ele>1.5800000</ele>
        <time>2013-06-10T09:05:45Z</time>
      </trkpt>
      <trkpt lat="38.5895390" lon="15.1113870">
        <ele>0.6200000</ele>
        <time>2013-06-10T09:06:07Z</time>
      </trkpt>
      <trkpt lat="38.5900080" lon="15.1118530">
        <ele>1.1000000</ele>
        <time>2013-06-10T09:06:32Z</time>
      </trkpt>
      <trkpt lat="38.5903470" lon="15.1122660">
        <ele>1.1000000</ele>
        <time>2013-06-10T09:06:54Z</time>
      </trkpt>
      <trkpt lat="38.5907550" lon="15.1127130">
        <ele>0.6200000</ele>
        <time>2013-06-10T09:07:19Z</time>
      </trkpt>
      <trkpt lat="38.5911940" lon="15.1131870">
        <ele>1.1000000</ele>
        <time>2013-06-10T09:07:43Z</time>
      </trkpt>
      <trkpt lat="38.5915640" lon="15.1135620">
        <ele>0.6200000</ele>
        <time>2013-06-10T09:08:03Z</time>
      </trkpt>
      <trkpt lat="38.5919690" lon="15.1139430">
        <ele>0.6200000</ele>
        <time>2013-06-10T09:08:27Z</time>
      </trkpt>
      <trkpt lat="38.5922740" lon="15.1142550">
        <ele>0.6200000</ele>
        <time>2013-06-10T09:08:47Z</time>
      </trkpt>
      <trkpt lat="38.5925830" lon="15.1145520">
        <ele>1.1000000</ele>
        <time>2013-06-10T09:09:05Z</time>
      </trkpt>
      <trkpt lat="38.5929600" lon="15.1149100">
        <ele>0.1400000</ele>
        <time>2013-06-10T09:09:26Z</time>
      </trkpt>
      <trkpt lat="38.5933150" lon="15.1152440">
        <ele>0.6200000</ele>
        <time>2013-06-10T09:09:46Z</time>
      </trkpt>
      <trkpt lat="38.5936970" lon="15.1156230">
        <ele>0.1400000</ele>
        <time>2013-06-10T09:10:08Z</time>
      </trkpt>
      <trkpt lat="38.5940250" lon="15.1159660">
        <ele>0.6200000</ele>
        <time>2013-06-10T09:10:29Z</time>
      </trkpt>
      <trkpt lat="38.5942990" lon="15.1162830">
        <ele>0.6200000</ele>
        <time>2013-06-10T09:10:51Z</time>
      </trkpt>
      <trkpt lat="38.5945820" lon="15.1165860">
        <ele>0.6200000</ele>
        <time>2013-06-10T09:11:13Z</time>
      </trkpt>
      <trkpt lat="38.5948600" lon="15.1168530">
        <ele>0.6200000</ele>
        <time>2013-06-10T09:11:34Z</time>
      </trkpt>
      <trkpt lat="38.5951390" lon="15.1171280">
        <ele>0.6200000</ele>
        <time>2013-06-10T09:11:55Z</time>
      </trkpt>
      <trkpt lat="38.5953710" lon="15.1173750">
        <ele>1.1000000</ele>
        <time>2013-06-10T09:12:14Z</time>
      </trkpt>
      <trkpt lat="38.5956080" lon="15.1176730">
        <ele>0.6200000</ele>
        <time>2013-06-10T09:12:37Z</time>
      </trkpt>
      <trkpt lat="38.5958440" lon="15.1179520">
        <ele>1.1000000</ele>
        <time>2013-06-10T09:13:00Z</time>
      </trkpt>
      <trkpt lat="38.5961110" lon="15.1182980">
        <ele>1.1000000</ele>
        <time>2013-06-10T09:13:26Z</time>
      </trkpt>
      <trkpt lat="38.5963130" lon="15.1185710">
        <ele>1.5800000</ele>
        <time>2013-06-10T09:13:49Z</time>
      </trkpt>
      <trkpt lat="38.5965120" lon="15.1188470">
        <ele>1.5800000</ele>
        <time>2013-06-10T09:14:12Z</time>
      </trkpt>
      <trkpt lat="38.5967290" lon="15.1190950">
        <ele>1.1000000</ele>
        <time>2013-06-10T09:14:35Z</time>
      </trkpt>
      <trkpt lat="38.5968400" lon="15.1193930">
        <ele>1.1000000</ele>
        <time>2013-06-10T09:15:01Z</time>
      </trkpt>
      <trkpt lat="38.5970190" lon="15.1197160">
        <ele>1.5800000</ele>
        <time>2013-06-10T09:15:33Z</time>
      </trkpt>
      <trkpt lat="38.5973930" lon="15.1201610">
        <ele>2.0600000</ele>
        <time>2013-06-10T09:16:05Z</time>
      </trkpt>
      <trkpt lat="38.5978050" lon="15.1206120">
        <ele>1.5800000</ele>
        <time>2013-06-10T09:16:33Z</time>
      </trkpt>
      <trkpt lat="38.5981140" lon="15.1210410">
        <ele>1.1000000</ele>
        <time>2013-06-10T09:17:01Z</time>
      </trkpt>
      <trkpt lat="38.5987470" lon="15.1217150">
        <ele>1.1000000</ele>
        <time>2013-06-10T09:17:37Z</time>
      </trkpt>
      <trkpt lat="38.5993120" lon="15.1221490">
        <ele>0.6200000</ele>
        <time>2013-06-10T09:18:06Z</time>
      </trkpt>
      <trkpt lat="38.5995900" lon="15.1225650">
        <ele>1.5800000</ele>
        <time>2013-06-10T09:18:31Z</time>
      </trkpt>
      <trkpt lat="38.6308630" lon="15.1539270">
        <ele>1.1000000</ele>
        <time>2013-06-10T09:46:15Z</time>
      </trkpt>
      <trkpt lat="38.6309010" lon="15.1539330">
        <ele>0.1400000</ele>
        <time>2013-06-10T09:46:17Z</time>
      </trkpt>
      <trkpt lat="38.6314660" lon="15.1539810">
        <ele>0.6200000</ele>
        <time>2013-06-10T09:46:33Z</time>
      </trkpt>
      <trkpt lat="38.6338310" lon="15.1539550">
        <ele>0.6200000</ele>
        <time>2013-06-10T09:47:05Z</time>
      </trkpt>
      <trkpt lat="38.6436200" lon="15.1671570">
        <ele>0.6200000</ele>
        <time>2013-06-10T09:59:33Z</time>
      </trkpt>
      <trkpt lat="38.6436350" lon="15.1673050">
        <ele>0.1400000</ele>
        <time>2013-06-10T09:59:35Z</time>
      </trkpt>
      <trkpt lat="38.6440470" lon="15.1675680">
        <ele>0.1400000</ele>
        <time>2013-06-10T09:59:55Z</time>
      </trkpt>
      <trkpt lat="38.6444440" lon="15.1679630">
        <ele>0.6200000</ele>
        <time>2013-06-10T10:00:15Z</time>
      </trkpt>
      <trkpt lat="38.6448210" lon="15.1683500">
        <ele>0.6200000</ele>
        <time>2013-06-10T10:00:34Z</time>
      </trkpt>
      <trkpt lat="38.6452790" lon="15.1688090">
        <ele>0.6200000</ele>
        <time>2013-06-10T10:00:58Z</time>
      </trkpt>
      <trkpt lat="38.6455610" lon="15.1691240">
        <ele>0.6200000</ele>
        <time>2013-06-10T10:01:14Z</time>
      </trkpt>
      <trkpt lat="38.6458630" lon="15.1694350">
        <ele>0.6200000</ele>
        <time>2013-06-10T10:01:31Z</time>
      </trkpt>
      <trkpt lat="38.6461980" lon="15.1697800">
        <ele>0.6200000</ele>
        <time>2013-06-10T10:01:50Z</time>
      </trkpt>
      <trkpt lat="38.6465610" lon="15.1701660">
        <ele>1.1000000</ele>
        <time>2013-06-10T10:02:12Z</time>
      </trkpt>
      <trkpt lat="38.6468320" lon="15.1704690">
        <ele>1.5800000</ele>
        <time>2013-06-10T10:02:29Z</time>
      </trkpt>
      <trkpt lat="38.6471250" lon="15.1707880">
        <ele>1.1000000</ele>
        <time>2013-06-10T10:02:47Z</time>
      </trkpt>
      <trkpt lat="38.6474490" lon="15.1711420">
        <ele>0.6200000</ele>
        <time>2013-06-10T10:03:07Z</time>
      </trkpt>
      <trkpt lat="38.6477360" lon="15.1714600">
        <ele>1.1000000</ele>
        <time>2013-06-10T10:03:25Z</time>
      </trkpt>
      <trkpt lat="38.6480710" lon="15.1718220">
        <ele>2.0600000</ele>
        <time>2013-06-10T10:03:45Z</time>
      </trkpt>
      <trkpt lat="38.6484180" lon="15.1721840">
        <ele>1.5800000</ele>
        <time>2013-06-10T10:04:05Z</time>
      </trkpt>
      <trkpt lat="38.6487880" lon="15.1725680">
        <ele>1.5800000</ele>
        <time>2013-06-10T10:04:27Z</time>
      </trkpt>
      <trkpt lat="38.6491430" lon="15.1729290">
        <ele>1.5800000</ele>
        <time>2013-06-10T10:04:47Z</time>
      </trkpt>
      <trkpt lat="38.6494830" lon="15.1732520">
        <ele>1.5800000</ele>
        <time>2013-06-10T10:05:06Z</time>
      </trkpt>
      <trkpt lat="38.6498530" lon="15.1736250">
        <ele>2.0600000</ele>
        <time>2013-06-10T10:05:27Z</time>
      </trkpt>
      <trkpt lat="38.6502150" lon="15.1739850">
        <ele>2.0600000</ele>
        <time>2013-06-10T10:05:46Z</time>
      </trkpt>
      <trkpt lat="38.6506000" lon="15.1743140">
        <ele>2.0600000</ele>
        <time>2013-06-10T10:06:06Z</time>
      </trkpt>
      <trkpt lat="38.6509400" lon="15.1746240">
        <ele>1.5800000</ele>
        <time>2013-06-10T10:06:24Z</time>
      </trkpt>
      <trkpt lat="38.6512720" lon="15.1749530">
        <ele>2.0600000</ele>
        <time>2013-06-10T10:06:42Z</time>
      </trkpt>
      <trkpt lat="38.6516990" lon="15.1753180">
        <ele>2.0600000</ele>
        <time>2013-06-10T10:07:04Z</time>
      </trkpt>
      <trkpt lat="38.6520540" lon="15.1756400">
        <ele>2.0600000</ele>
        <time>2013-06-10T10:07:23Z</time>
      </trkpt>
      <trkpt lat="38.6524280" lon="15.1759620">
        <ele>2.5400000</ele>
        <time>2013-06-10T10:07:42Z</time>
      </trkpt>
      <trkpt lat="38.6528020" lon="15.1762540">
        <ele>2.5400000</ele>
        <time>2013-06-10T10:08:01Z</time>
      </trkpt>
      <trkpt lat="38.6530990" lon="15.1765230">
        <ele>2.5400000</ele>
        <time>2013-06-10T10:08:17Z</time>
      </trkpt>
      <trkpt lat="38.6534690" lon="15.1768200">
        <ele>2.5400000</ele>
        <time>2013-06-10T10:08:38Z</time>
      </trkpt>
      <trkpt lat="38.6537630" lon="15.1770970">
        <ele>2.5400000</ele>
        <time>2013-06-10T10:08:57Z</time>
      </trkpt>
      <trkpt lat="38.6540220" lon="15.1773300">
        <ele>3.0200000</ele>
        <time>2013-06-10T10:09:15Z</time>
      </trkpt>
      <trkpt lat="38.6542820" lon="15.1775430">
        <ele>3.0200000</ele>
        <time>2013-06-10T10:09:33Z</time>
      </trkpt>
      <trkpt lat="38.6545410" lon="15.1777910">
        <ele>2.5400000</ele>
        <time>2013-06-10T10:09:52Z</time>
      </trkpt>
      <trkpt lat="38.6548190" lon="15.1780250">
        <ele>2.5400000</ele>
        <time>2013-06-10T10:10:09Z</time>
      </trkpt>
      <trkpt lat="38.6551400" lon="15.1782640">
        <ele>2.5400000</ele>
        <time>2013-06-10T10:10:27Z</time>
      </trkpt>
      <trkpt lat="38.6554490" lon="15.1785120">
        <ele>2.5400000</ele>
        <time>2013-06-10T10:10:48Z</time>
      </trkpt>
      <trkpt lat="38.6557120" lon="15.1787660">
        <ele>2.5400000</ele>
        <time>2013-06-10T10:11:06Z</time>
      </trkpt>
      <trkpt lat="38.6559980" lon="15.1790380">
        <ele>2.5400000</ele>
        <time>2013-06-10T10:11:26Z</time>
      </trkpt>
      <trkpt lat="38.6562770" lon="15.1793070">
        <ele>3.0200000</ele>
        <time>2013-06-10T10:11:45Z</time>
      </trkpt>
      <trkpt lat="38.6565250" lon="15.1795500">
        <ele>2.5400000</ele>
        <time>2013-06-10T10:12:02Z</time>
      </trkpt>
      <trkpt lat="38.6567690" lon="15.1798030">
        <ele>2.5400000</ele>
        <time>2013-06-10T10:12:19Z</time>
      </trkpt>
      <trkpt lat="38.6570780" lon="15.1800920">
        <ele>2.5400000</ele>
        <time>2013-06-10T10:12:39Z</time>
      </trkpt>
      <trkpt lat="38.6573300" lon="15.1803520">
        <ele>2.5400000</ele>
        <time>2013-06-10T10:12:56Z</time>
      </trkpt>
      <trkpt lat="38.6575970" lon="15.1806520">
        <ele>2.5400000</ele>
        <time>2013-06-10T10:13:14Z</time>
      </trkpt>
      <trkpt lat="38.6579170" lon="15.1810070">
        <ele>2.5400000</ele>
        <time>2013-06-10T10:13:36Z</time>
      </trkpt>
      <trkpt lat="38.6581920" lon="15.1813670">
        <ele>3.0200000</ele>
        <time>2013-06-10T10:13:56Z</time>
      </trkpt>
      <trkpt lat="38.6584430" lon="15.1816700">
        <ele>3.0200000</ele>
        <time>2013-06-10T10:14:13Z</time>
      </trkpt>
      <trkpt lat="38.6587450" lon="15.1820630">
        <ele>3.0200000</ele>
        <time>2013-06-10T10:14:35Z</time>
      </trkpt>
      <trkpt lat="38.6590500" lon="15.1824470">
        <ele>3.0200000</ele>
        <time>2013-06-10T10:14:57Z</time>
      </trkpt>
      <trkpt lat="38.6593360" lon="15.1828050">
        <ele>3.0200000</ele>
        <time>2013-06-10T10:15:17Z</time>
      </trkpt>
      <trkpt lat="38.6596300" lon="15.1831340">
        <ele>3.0200000</ele>
        <time>2013-06-10T10:15:35Z</time>
      </trkpt>
      <trkpt lat="38.6598820" lon="15.1834700">
        <ele>3.0200000</ele>
        <time>2013-06-10T10:15:52Z</time>
      </trkpt>
      <trkpt lat="38.6601980" lon="15.1838530">
        <ele>3.0200000</ele>
        <time>2013-06-10T10:16:12Z</time>
      </trkpt>
      <trkpt lat="38.6605220" lon="15.1842270">
        <ele>3.5000000</ele>
        <time>2013-06-10T10:16:32Z</time>
      </trkpt>
      <trkpt lat="38.6608540" lon="15.1846020">
        <ele>3.5000000</ele>
        <time>2013-06-10T10:16:52Z</time>
      </trkpt>
      <trkpt lat="38.6611370" lon="15.1849250">
        <ele>3.5000000</ele>
        <time>2013-06-10T10:17:09Z</time>
      </trkpt>
      <trkpt lat="38.6614340" lon="15.1852690">
        <ele>3.0200000</ele>
        <time>2013-06-10T10:17:28Z</time>
      </trkpt>
      <trkpt lat="38.6617550" lon="15.1856340">
        <ele>3.0200000</ele>
        <time>2013-06-10T10:17:48Z</time>
      </trkpt>
      <trkpt lat="38.6620830" lon="15.1860070">
        <ele>3.9800000</ele>
        <time>2013-06-10T10:18:08Z</time>
      </trkpt>
      <trkpt lat="38.6623610" lon="15.1862950">
        <ele>3.0200000</ele>
        <time>2013-06-10T10:18:25Z</time>
      </trkpt>
      <trkpt lat="38.6626240" lon="15.1866010">
        <ele>3.9800000</ele>
        <time>2013-06-10T10:18:42Z</time>
      </trkpt>
      <trkpt lat="38.6629180" lon="15.1869300">
        <ele>3.5000000</ele>
        <time>2013-06-10T10:19:00Z</time>
      </trkpt>
      <trkpt lat="38.6631550" lon="15.1871630">
        <ele>3.9800000</ele>
        <time>2013-06-10T10:19:14Z</time>
      </trkpt>
      <trkpt lat="38.6634640" lon="15.1874500">
        <ele>3.9800000</ele>
        <time>2013-06-10T10:19:33Z</time>
      </trkpt>
      <trkpt lat="38.6637950" lon="15.1877280">
        <ele>3.9800000</ele>
        <time>2013-06-10T10:19:53Z</time>
      </trkpt>
      <trkpt lat="38.6640820" lon="15.1879870">
        <ele>3.9800000</ele>
        <time>2013-06-10T10:20:11Z</time>
      </trkpt>
      <trkpt lat="38.6643640" lon="15.1882390">
        <ele>3.9800000</ele>
        <time>2013-06-10T10:20:29Z</time>
      </trkpt>
      <trkpt lat="38.6646270" lon="15.1885260">
        <ele>3.5000000</ele>
        <time>2013-06-10T10:20:48Z</time>
      </trkpt>
      <trkpt lat="38.6649090" lon="15.1887870">
        <ele>3.9800000</ele>
        <time>2013-06-10T10:21:07Z</time>
      </trkpt>
      <trkpt lat="38.6651500" lon="15.1889850">
        <ele>3.9800000</ele>
        <time>2013-06-10T10:21:23Z</time>
      </trkpt>
      <trkpt lat="38.6653670" lon="15.1891880">
        <ele>3.9800000</ele>
        <time>2013-06-10T10:21:40Z</time>
      </trkpt>
      <trkpt lat="38.6656190" lon="15.1894300">
        <ele>3.9800000</ele>
        <time>2013-06-10T10:22:01Z</time>
      </trkpt>
      <trkpt lat="38.6658100" lon="15.1895750">
        <ele>3.9800000</ele>
        <time>2013-06-10T10:22:18Z</time>
      </trkpt>
      <trkpt lat="38.6660190" lon="15.1897480">
        <ele>3.5000000</ele>
        <time>2013-06-10T10:22:36Z</time>
      </trkpt>
      <trkpt lat="38.6662940" lon="15.1899790">
        <ele>3.9800000</ele>
        <time>2013-06-10T10:22:56Z</time>
      </trkpt>
      <trkpt lat="38.6665730" lon="15.1902240">
        <ele>3.9800000</ele>
        <time>2013-06-10T10:23:15Z</time>
      </trkpt>
      <trkpt lat="38.6668510" lon="15.1904390">
        <ele>4.4600000</ele>
        <time>2013-06-10T10:23:34Z</time>
      </trkpt>
      <trkpt lat="38.6671220" lon="15.1906550">
        <ele>3.9800000</ele>
        <time>2013-06-10T10:23:52Z</time>
      </trkpt>
      <trkpt lat="38.6673660" lon="15.1908600">
        <ele>3.9800000</ele>
        <time>2013-06-10T10:24:08Z</time>
      </trkpt>
      <trkpt lat="38.6676860" lon="15.1910890">
        <ele>3.9800000</ele>
        <time>2013-06-10T10:24:28Z</time>
      </trkpt>
      <trkpt lat="38.6679270" lon="15.1912850">
        <ele>3.9800000</ele>
        <time>2013-06-10T10:24:45Z</time>
      </trkpt>
      <trkpt lat="38.6681900" lon="15.1915080">
        <ele>3.9800000</ele>
        <time>2013-06-10T10:25:05Z</time>
      </trkpt>
      <trkpt lat="38.6684270" lon="15.1916940">
        <ele>4.4600000</ele>
        <time>2013-06-10T10:25:23Z</time>
      </trkpt>
      <trkpt lat="38.6686440" lon="15.1918750">
        <ele>4.4600000</ele>
        <time>2013-06-10T10:25:40Z</time>
      </trkpt>
      <trkpt lat="38.6688610" lon="15.1920470">
        <ele>4.4600000</ele>
        <time>2013-06-10T10:25:57Z</time>
      </trkpt>
      <trkpt lat="38.6691250" lon="15.1922450">
        <ele>3.9800000</ele>
        <time>2013-06-10T10:26:17Z</time>
      </trkpt>
      <trkpt lat="38.6693990" lon="15.1924500">
        <ele>4.4600000</ele>
        <time>2013-06-10T10:26:37Z</time>
      </trkpt>
      <trkpt lat="38.6696280" lon="15.1926220">
        <ele>3.9800000</ele>
        <time>2013-06-10T10:26:53Z</time>
      </trkpt>
      <trkpt lat="38.6699600" lon="15.1928640">
        <ele>4.4600000</ele>
        <time>2013-06-10T10:27:14Z</time>
      </trkpt>
      <trkpt lat="38.6702270" lon="15.1931040">
        <ele>4.4600000</ele>
        <time>2013-06-10T10:27:33Z</time>
      </trkpt>
      <trkpt lat="38.6704980" lon="15.1932940">
        <ele>4.4600000</ele>
        <time>2013-06-10T10:27:50Z</time>
      </trkpt>
      <trkpt lat="38.6708220" lon="15.1935270">
        <ele>4.4600000</ele>
        <time>2013-06-10T10:28:10Z</time>
      </trkpt>
      <trkpt lat="38.6711080" lon="15.1937080">
        <ele>4.4600000</ele>
        <time>2013-06-10T10:28:27Z</time>
      </trkpt>
      <trkpt lat="38.6714440" lon="15.1939360">
        <ele>4.4600000</ele>
        <time>2013-06-10T10:28:48Z</time>
      </trkpt>
      <trkpt lat="38.6717530" lon="15.1942120">
        <ele>4.4600000</ele>
        <time>2013-06-10T10:29:08Z</time>
      </trkpt>
      <trkpt lat="38.6720160" lon="15.1944190">
        <ele>4.4600000</ele>
        <time>2013-06-10T10:29:24Z</time>
      </trkpt>
      <trkpt lat="38.6722980" lon="15.1945300">
        <ele>4.4600000</ele>
        <time>2013-06-10T10:29:42Z</time>
      </trkpt>
      <trkpt lat="38.6724550" lon="15.1944560">
        <ele>4.4600000</ele>
        <time>2013-06-10T10:30:02Z</time>
      </trkpt>
      <trkpt lat="38.6724930" lon="15.1944420">
        <ele>4.9400000</ele>
        <time>2013-06-10T10:30:21Z</time>
      </trkpt>
      <trkpt lat="38.6724970" lon="15.1944540">
        <ele>4.4600000</ele>
        <time>2013-06-10T10:30:43Z</time>
      </trkpt>
      <trkpt lat="38.6725500" lon="15.1945980">
        <ele>4.4600000</ele>
        <time>2013-06-10T10:30:57Z</time>
      </trkpt>
      <trkpt lat="38.6726570" lon="15.1947640">
        <ele>4.4600000</ele>
        <time>2013-06-10T10:31:18Z</time>
      </trkpt>
      <trkpt lat="38.6728130" lon="15.1949120">
        <ele>4.9400000</ele>
        <time>2013-06-10T10:31:37Z</time>
      </trkpt>
      <trkpt lat="38.6729090" lon="15.1949180">
        <ele>4.4600000</ele>
        <time>2013-06-10T10:31:57Z</time>
      </trkpt>
      <trkpt lat="38.6729890" lon="15.1949480">
        <ele>4.9400000</ele>
        <time>2013-06-10T10:32:14Z</time>
      </trkpt>
      <trkpt lat="38.6730880" lon="15.1949870">
        <ele>4.9400000</ele>
        <time>2013-06-10T10:32:36Z</time>
      </trkpt>
      <trkpt lat="38.6731720" lon="15.1950240">
        <ele>4.9400000</ele>
        <time>2013-06-10T10:32:54Z</time>
      </trkpt>
      <trkpt lat="38.6732440" lon="15.1950660">
        <ele>4.4600000</ele>
        <time>2013-06-10T10:33:10Z</time>
      </trkpt>
      <trkpt lat="38.6733970" lon="15.1952060">
        <ele>4.4600000</ele>
        <time>2013-06-10T10:33:30Z</time>
      </trkpt>
      <trkpt lat="38.6736260" lon="15.1954100">
        <ele>3.9800000</ele>
        <time>2013-06-10T10:33:49Z</time>
      </trkpt>
      <trkpt lat="38.6739010" lon="15.1956620">
        <ele>4.4600000</ele>
        <time>2013-06-10T10:34:07Z</time>
      </trkpt>
      <trkpt lat="38.6742400" lon="15.1959320">
        <ele>4.4600000</ele>
        <time>2013-06-10T10:34:28Z</time>
      </trkpt>
      <trkpt lat="38.6745340" lon="15.1961290">
        <ele>4.4600000</ele>
        <time>2013-06-10T10:34:46Z</time>
      </trkpt>
      <trkpt lat="38.6749040" lon="15.1964160">
        <ele>4.4600000</ele>
        <time>2013-06-10T10:35:09Z</time>
      </trkpt>
      <trkpt lat="38.6751750" lon="15.1966300">
        <ele>4.4600000</ele>
        <time>2013-06-10T10:35:26Z</time>
      </trkpt>
      <trkpt lat="38.6754530" lon="15.1968370">
        <ele>4.9400000</ele>
        <time>2013-06-10T10:35:45Z</time>
      </trkpt>
      <trkpt lat="38.6756970" lon="15.1969960">
        <ele>4.4600000</ele>
        <time>2013-06-10T10:36:01Z</time>
      </trkpt>
      <trkpt lat="38.6759220" lon="15.1971550">
        <ele>4.4600000</ele>
        <time>2013-06-10T10:36:17Z</time>
      </trkpt>
      <trkpt lat="38.6762050" lon="15.1973520">
        <ele>4.9400000</ele>
        <time>2013-06-10T10:36:36Z</time>
      </trkpt>
      <trkpt lat="38.6765060" lon="15.1975710">
        <ele>4.9400000</ele>
        <time>2013-06-10T10:36:55Z</time>
      </trkpt>
      <trkpt lat="38.6767850" lon="15.1977850">
        <ele>4.9400000</ele>
        <time>2013-06-10T10:37:13Z</time>
      </trkpt>
      <trkpt lat="38.6770520" lon="15.1979890">
        <ele>4.9400000</ele>
        <time>2013-06-10T10:37:32Z</time>
      </trkpt>
      <trkpt lat="38.6773110" lon="15.1981650">
        <ele>4.4600000</ele>
        <time>2013-06-10T10:37:50Z</time>
      </trkpt>
      <trkpt lat="38.6775440" lon="15.1983460">
        <ele>4.4600000</ele>
        <time>2013-06-10T10:38:07Z</time>
      </trkpt>
      <trkpt lat="38.6777800" lon="15.1985300">
        <ele>4.9400000</ele>
        <time>2013-06-10T10:38:24Z</time>
      </trkpt>
      <trkpt lat="38.6780550" lon="15.1987750">
        <ele>4.9400000</ele>
        <time>2013-06-10T10:38:43Z</time>
      </trkpt>
      <trkpt lat="38.6783330" lon="15.1990390">
        <ele>4.9400000</ele>
        <time>2013-06-10T10:39:01Z</time>
      </trkpt>
      <trkpt lat="38.6786460" lon="15.1992880">
        <ele>5.4200000</ele>
        <time>2013-06-10T10:39:21Z</time>
      </trkpt>
      <trkpt lat="38.6789210" lon="15.1995700">
        <ele>4.9400000</ele>
        <time>2013-06-10T10:39:40Z</time>
      </trkpt>
      <trkpt lat="38.6792680" lon="15.1998210">
        <ele>4.9400000</ele>
        <time>2013-06-10T10:40:02Z</time>
      </trkpt>
      <trkpt lat="38.6795690" lon="15.2000220">
        <ele>5.4200000</ele>
        <time>2013-06-10T10:40:23Z</time>
      </trkpt>
      <trkpt lat="38.6798400" lon="15.2002050">
        <ele>4.9400000</ele>
        <time>2013-06-10T10:40:41Z</time>
      </trkpt>
      <trkpt lat="38.6801950" lon="15.2004550">
        <ele>5.4200000</ele>
        <time>2013-06-10T10:41:03Z</time>
      </trkpt>
      <trkpt lat="38.6806340" lon="15.2007580">
        <ele>4.9400000</ele>
        <time>2013-06-10T10:41:29Z</time>
      </trkpt>
      <trkpt lat="38.6809230" lon="15.2009710">
        <ele>5.4200000</ele>
        <time>2013-06-10T10:41:46Z</time>
      </trkpt>
      <trkpt lat="38.6812320" lon="15.2011860">
        <ele>5.4200000</ele>
        <time>2013-06-10T10:42:04Z</time>
      </trkpt>
      <trkpt lat="38.6815830" lon="15.2014380">
        <ele>4.9400000</ele>
        <time>2013-06-10T10:42:25Z</time>
      </trkpt>
      <trkpt lat="38.6818890" lon="15.2016600">
        <ele>4.9400000</ele>
        <time>2013-06-10T10:42:45Z</time>
      </trkpt>
      <trkpt lat="38.6821560" lon="15.2018650">
        <ele>5.4200000</ele>
        <time>2013-06-10T10:43:04Z</time>
      </trkpt>
      <trkpt lat="38.6823920" lon="15.2020450">
        <ele>5.4200000</ele>
        <time>2013-06-10T10:43:23Z</time>
      </trkpt>
      <trkpt lat="38.6826360" lon="15.2022600">
        <ele>4.9400000</ele>
        <time>2013-06-10T10:43:42Z</time>
      </trkpt>
      <trkpt lat="38.6829030" lon="15.2025070">
        <ele>5.4200000</ele>
        <time>2013-06-10T10:44:02Z</time>
      </trkpt>
      <trkpt lat="38.6831400" lon="15.2027290">
        <ele>5.4200000</ele>
        <time>2013-06-10T10:44:20Z</time>
      </trkpt>
      <trkpt lat="38.6833760" lon="15.2029410">
        <ele>5.4200000</ele>
        <time>2013-06-10T10:44:38Z</time>
      </trkpt>
      <trkpt lat="38.6836090" lon="15.2031450">
        <ele>5.4200000</ele>
        <time>2013-06-10T10:44:55Z</time>
      </trkpt>
      <trkpt lat="38.6838110" lon="15.2033310">
        <ele>5.4200000</ele>
        <time>2013-06-10T10:45:11Z</time>
      </trkpt>
      <trkpt lat="38.6840970" lon="15.2035590">
        <ele>5.4200000</ele>
        <time>2013-06-10T10:45:31Z</time>
      </trkpt>
      <trkpt lat="38.6843380" lon="15.2037350">
        <ele>5.9100000</ele>
        <time>2013-06-10T10:45:47Z</time>
      </trkpt>
      <trkpt lat="38.6846080" lon="15.2039430">
        <ele>5.4200000</ele>
        <time>2013-06-10T10:46:05Z</time>
      </trkpt>
      <trkpt lat="38.6849290" lon="15.2041690">
        <ele>5.9100000</ele>
        <time>2013-06-10T10:46:23Z</time>
      </trkpt>
      <trkpt lat="38.6852610" lon="15.2043880">
        <ele>5.4200000</ele>
        <time>2013-06-10T10:46:42Z</time>
      </trkpt>
      <trkpt lat="38.6855890" lon="15.2046150">
        <ele>5.4200000</ele>
        <time>2013-06-10T10:47:01Z</time>
      </trkpt>
      <trkpt lat="38.6859550" lon="15.2048480">
        <ele>5.9100000</ele>
        <time>2013-06-10T10:47:22Z</time>
      </trkpt>
      <trkpt lat="38.6862750" lon="15.2050650">
        <ele>5.4200000</ele>
        <time>2013-06-10T10:47:40Z</time>
      </trkpt>
      <trkpt lat="38.6865770" lon="15.2052160">
        <ele>5.4200000</ele>
        <time>2013-06-10T10:47:57Z</time>
      </trkpt>
      <trkpt lat="38.6868860" lon="15.2053660">
        <ele>5.9100000</ele>
        <time>2013-06-10T10:48:14Z</time>
      </trkpt>
      <trkpt lat="38.6872600" lon="15.2055880">
        <ele>5.4200000</ele>
        <time>2013-06-10T10:48:35Z</time>
      </trkpt>
      <trkpt lat="38.6876030" lon="15.2059080">
        <ele>5.4200000</ele>
        <time>2013-06-10T10:48:55Z</time>
      </trkpt>
      <trkpt lat="38.6879010" lon="15.2060890">
        <ele>5.4200000</ele>
        <time>2013-06-10T10:49:11Z</time>
      </trkpt>
      <trkpt lat="38.6882360" lon="15.2062640">
        <ele>5.9100000</ele>
        <time>2013-06-10T10:49:30Z</time>
      </trkpt>
      <trkpt lat="38.6885300" lon="15.2064530">
        <ele>5.9100000</ele>
        <time>2013-06-10T10:49:48Z</time>
      </trkpt>
      <trkpt lat="38.6888010" lon="15.2065960">
        <ele>5.4200000</ele>
        <time>2013-06-10T10:50:04Z</time>
      </trkpt>
      <trkpt lat="38.6891400" lon="15.2067730">
        <ele>5.4200000</ele>
        <time>2013-06-10T10:50:24Z</time>
      </trkpt>
      <trkpt lat="38.6895410" lon="15.2069860">
        <ele>5.9100000</ele>
        <time>2013-06-10T10:50:46Z</time>
      </trkpt>
      <trkpt lat="38.6898730" lon="15.2071650">
        <ele>5.9100000</ele>
        <time>2013-06-10T10:51:05Z</time>
      </trkpt>
      <trkpt lat="38.6901930" lon="15.2073430">
        <ele>5.9100000</ele>
        <time>2013-06-10T10:51:24Z</time>
      </trkpt>
      <trkpt lat="38.6904830" lon="15.2075530">
        <ele>5.4200000</ele>
        <time>2013-06-10T10:51:42Z</time>
      </trkpt>
      <trkpt lat="38.6907270" lon="15.2077220">
        <ele>5.9100000</ele>
        <time>2013-06-10T10:51:58Z</time>
      </trkpt>
      <trkpt lat="38.6910210" lon="15.2079600">
        <ele>5.4200000</ele>
        <time>2013-06-10T10:52:18Z</time>
      </trkpt>
      <trkpt lat="38.6913340" lon="15.2081420">
        <ele>5.9100000</ele>
        <time>2013-06-10T10:52:37Z</time>
      </trkpt>
      <trkpt lat="38.6916580" lon="15.2083180">
        <ele>5.9100000</ele>
        <time>2013-06-10T10:52:56Z</time>
      </trkpt>
      <trkpt lat="38.6920170" lon="15.2085280">
        <ele>5.9100000</ele>
        <time>2013-06-10T10:53:18Z</time>
      </trkpt>
      <trkpt lat="38.6922840" lon="15.2086970">
        <ele>5.4200000</ele>
        <time>2013-06-10T10:53:34Z</time>
      </trkpt>
      <trkpt lat="38.6926080" lon="15.2088790">
        <ele>5.4200000</ele>
        <time>2013-06-10T10:53:52Z</time>
      </trkpt>
      <trkpt lat="38.6929050" lon="15.2090760">
        <ele>5.4200000</ele>
        <time>2013-06-10T10:54:10Z</time>
      </trkpt>
      <trkpt lat="38.6932370" lon="15.2092740">
        <ele>5.4200000</ele>
        <time>2013-06-10T10:54:30Z</time>
      </trkpt>
      <trkpt lat="38.6935500" lon="15.2094070">
        <ele>5.9100000</ele>
        <time>2013-06-10T10:54:48Z</time>
      </trkpt>
      <trkpt lat="38.6938740" lon="15.2095760">
        <ele>5.9100000</ele>
        <time>2013-06-10T10:55:07Z</time>
      </trkpt>
      <trkpt lat="38.6942330" lon="15.2097870">
        <ele>5.9100000</ele>
        <time>2013-06-10T10:55:28Z</time>
      </trkpt>
      <trkpt lat="38.6945880" lon="15.2100020">
        <ele>5.4200000</ele>
        <time>2013-06-10T10:55:48Z</time>
      </trkpt>
      <trkpt lat="38.6949580" lon="15.2101820">
        <ele>5.9100000</ele>
        <time>2013-06-10T10:56:09Z</time>
      </trkpt>
      <trkpt lat="38.6953090" lon="15.2103420">
        <ele>5.9100000</ele>
        <time>2013-06-10T10:56:28Z</time>
      </trkpt>
      <trkpt lat="38.6957090" lon="15.2105300">
        <ele>5.4200000</ele>
        <time>2013-06-10T10:56:49Z</time>
      </trkpt>
      <trkpt lat="38.6960640" lon="15.2107270">
        <ele>5.4200000</ele>
        <time>2013-06-10T10:57:09Z</time>
      </trkpt>
      <trkpt lat="38.6964150" lon="15.2109170">
        <ele>5.9100000</ele>
        <time>2013-06-10T10:57:28Z</time>
      </trkpt>
      <trkpt lat="38.6968460" lon="15.2110960">
        <ele>5.4200000</ele>
        <time>2013-06-10T10:57:48Z</time>
      </trkpt>
      <trkpt lat="38.6972390" lon="15.2112460">
        <ele>5.4200000</ele>
        <time>2013-06-10T10:58:06Z</time>
      </trkpt>
      <trkpt lat="38.6976590" lon="15.2114410">
        <ele>5.4200000</ele>
        <time>2013-06-10T10:58:27Z</time>
      </trkpt>
      <trkpt lat="38.6980590" lon="15.2115990">
        <ele>5.9100000</ele>
        <time>2013-06-10T10:58:46Z</time>
      </trkpt>
      <trkpt lat="38.6983530" lon="15.2116950">
        <ele>5.9100000</ele>
        <time>2013-06-10T10:59:01Z</time>
      </trkpt>
      <trkpt lat="38.6986960" lon="15.2117930">
        <ele>5.9100000</ele>
        <time>2013-06-10T10:59:20Z</time>
      </trkpt>
      <trkpt lat="38.6990240" lon="15.2119230">
        <ele>5.9100000</ele>
        <time>2013-06-10T10:59:38Z</time>
      </trkpt>
      <trkpt lat="38.6993870" lon="15.2121020">
        <ele>5.9100000</ele>
        <time>2013-06-10T10:59:59Z</time>
      </trkpt>
      <trkpt lat="38.6996880" lon="15.2122260">
        <ele>5.9100000</ele>
        <time>2013-06-10T11:00:16Z</time>
      </trkpt>
      <trkpt lat="38.7000390" lon="15.2123990">
        <ele>5.9100000</ele>
        <time>2013-06-10T11:00:37Z</time>
      </trkpt>
      <trkpt lat="38.7003250" lon="15.2125510">
        <ele>5.4200000</ele>
        <time>2013-06-10T11:00:54Z</time>
      </trkpt>
      <trkpt lat="38.7006650" lon="15.2127290">
        <ele>5.9100000</ele>
        <time>2013-06-10T11:01:14Z</time>
      </trkpt>
      <trkpt lat="38.7010350" lon="15.2129320">
        <ele>5.9100000</ele>
        <time>2013-06-10T11:01:34Z</time>
      </trkpt>
      <trkpt lat="38.7013400" lon="15.2131020">
        <ele>5.9100000</ele>
        <time>2013-06-10T11:01:51Z</time>
      </trkpt>
      <trkpt lat="38.7016560" lon="15.2132480">
        <ele>5.9100000</ele>
        <time>2013-06-10T11:02:08Z</time>
      </trkpt>
      <trkpt lat="38.7020070" lon="15.2134410">
        <ele>5.9100000</ele>
        <time>2013-06-10T11:02:27Z</time>
      </trkpt>
      <trkpt lat="38.7023890" lon="15.2136460">
        <ele>5.9100000</ele>
        <time>2013-06-10T11:02:46Z</time>
      </trkpt>
      <trkpt lat="38.7027020" lon="15.2138160">
        <ele>5.9100000</ele>
        <time>2013-06-10T11:03:02Z</time>
      </trkpt>
      <trkpt lat="38.7030370" lon="15.2139850">
        <ele>5.4200000</ele>
        <time>2013-06-10T11:03:20Z</time>
      </trkpt>
      <trkpt lat="38.7034260" lon="15.2141310">
        <ele>5.4200000</ele>
        <time>2013-06-10T11:03:40Z</time>
      </trkpt>
      <trkpt lat="38.7037850" lon="15.2142550">
        <ele>5.9100000</ele>
        <time>2013-06-10T11:04:00Z</time>
      </trkpt>
      <trkpt lat="38.7040670" lon="15.2143670">
        <ele>5.4200000</ele>
        <time>2013-06-10T11:04:17Z</time>
      </trkpt>
      <trkpt lat="38.7043460" lon="15.2144860">
        <ele>5.9100000</ele>
        <time>2013-06-10T11:04:33Z</time>
      </trkpt>
      <trkpt lat="38.7045860" lon="15.2145840">
        <ele>5.4200000</ele>
        <time>2013-06-10T11:04:47Z</time>
      </trkpt>
      <trkpt lat="38.7048800" lon="15.2146960">
        <ele>5.9100000</ele>
        <time>2013-06-10T11:05:06Z</time>
      </trkpt>
      <trkpt lat="38.7051620" lon="15.2148050">
        <ele>5.4200000</ele>
        <time>2013-06-10T11:05:25Z</time>
      </trkpt>
      <trkpt lat="38.7054560" lon="15.2149220">
        <ele>5.4200000</ele>
        <time>2013-06-10T11:05:45Z</time>
      </trkpt>
      <trkpt lat="38.7057300" lon="15.2150580">
        <ele>5.9100000</ele>
        <time>2013-06-10T11:06:04Z</time>
      </trkpt>
      <trkpt lat="38.7060590" lon="15.2152000">
        <ele>5.9100000</ele>
        <time>2013-06-10T11:06:26Z</time>
      </trkpt>
      <trkpt lat="38.7062840" lon="15.2153250">
        <ele>5.4200000</ele>
        <time>2013-06-10T11:06:41Z</time>
      </trkpt>
      <trkpt lat="38.7065280" lon="15.2154670">
        <ele>5.4200000</ele>
        <time>2013-06-10T11:06:59Z</time>
      </trkpt>
      <trkpt lat="38.7067870" lon="15.2156530">
        <ele>5.9100000</ele>
        <time>2013-06-10T11:07:19Z</time>
      </trkpt>
      <trkpt lat="38.7070080" lon="15.2158240">
        <ele>5.9100000</ele>
        <time>2013-06-10T11:07:36Z</time>
      </trkpt>
      <trkpt lat="38.7073290" lon="15.2160100">
        <ele>5.9100000</ele>
        <time>2013-06-10T11:07:58Z</time>
      </trkpt>
      <trkpt lat="38.7075690" lon="15.2161370">
        <ele>5.4200000</ele>
        <time>2013-06-10T11:08:15Z</time>
      </trkpt>
      <trkpt lat="38.7077900" lon="15.2162880">
        <ele>5.4200000</ele>
        <time>2013-06-10T11:08:33Z</time>
      </trkpt>
      <trkpt lat="38.7080610" lon="15.2164580">
        <ele>5.9100000</ele>
        <time>2013-06-10T11:08:54Z</time>
      </trkpt>
      <trkpt lat="38.7083240" lon="15.2166090">
        <ele>5.9100000</ele>
        <time>2013-06-10T11:09:13Z</time>
      </trkpt>
      <trkpt lat="38.7085380" lon="15.2167790">
        <ele>5.9100000</ele>
        <time>2013-06-10T11:09:32Z</time>
      </trkpt>
      <trkpt lat="38.7087750" lon="15.2169370">
        <ele>5.9100000</ele>
        <time>2013-06-10T11:09:51Z</time>
      </trkpt>
      <trkpt lat="38.7089840" lon="15.2170360">
        <ele>5.4200000</ele>
        <time>2013-06-10T11:10:09Z</time>
      </trkpt>
      <trkpt lat="38.7092440" lon="15.2171890">
        <ele>5.4200000</ele>
        <time>2013-06-10T11:10:31Z</time>
      </trkpt>
      <trkpt lat="38.7094270" lon="15.2173190">
        <ele>5.4200000</ele>
        <time>2013-06-10T11:10:48Z</time>
      </trkpt>
      <trkpt lat="38.7096440" lon="15.2174220">
        <ele>5.4200000</ele>
        <time>2013-06-10T11:11:06Z</time>
      </trkpt>
      <trkpt lat="38.7098390" lon="15.2175190">
        <ele>5.4200000</ele>
        <time>2013-06-10T11:11:24Z</time>
      </trkpt>
      <trkpt lat="38.7100450" lon="15.2176360">
        <ele>5.4200000</ele>
        <time>2013-06-10T11:11:43Z</time>
      </trkpt>
      <trkpt lat="38.7102810" lon="15.2177960">
        <ele>5.4200000</ele>
        <time>2013-06-10T11:12:03Z</time>
      </trkpt>
      <trkpt lat="38.7104910" lon="15.2179480">
        <ele>5.4200000</ele>
        <time>2013-06-10T11:12:21Z</time>
      </trkpt>
      <trkpt lat="38.7107350" lon="15.2180960">
        <ele>5.4200000</ele>
        <time>2013-06-10T11:12:40Z</time>
      </trkpt>
      <trkpt lat="38.7109380" lon="15.2182290">
        <ele>5.4200000</ele>
        <time>2013-06-10T11:12:56Z</time>
      </trkpt>
      <trkpt lat="38.7111320" lon="15.2183420">
        <ele>5.4200000</ele>
        <time>2013-06-10T11:13:11Z</time>
      </trkpt>
      <trkpt lat="38.7113530" lon="15.2184600">
        <ele>5.4200000</ele>
        <time>2013-06-10T11:13:29Z</time>
      </trkpt>
      <trkpt lat="38.7115970" lon="15.2185720">
        <ele>5.4200000</ele>
        <time>2013-06-10T11:13:48Z</time>
      </trkpt>
      <trkpt lat="38.7118340" lon="15.2186910">
        <ele>5.4200000</ele>
        <time>2013-06-10T11:14:06Z</time>
      </trkpt>
      <trkpt lat="38.7120820" lon="15.2188350">
        <ele>5.9100000</ele>
        <time>2013-06-10T11:14:24Z</time>
      </trkpt>
      <trkpt lat="38.7123070" lon="15.2189710">
        <ele>5.4200000</ele>
        <time>2013-06-10T11:14:42Z</time>
      </trkpt>
      <trkpt lat="38.7125280" lon="15.2190670">
        <ele>5.4200000</ele>
        <time>2013-06-10T11:15:00Z</time>
      </trkpt>
      <trkpt lat="38.7127490" lon="15.2191550">
        <ele>5.4200000</ele>
        <time>2013-06-10T11:15:18Z</time>
      </trkpt>
      <trkpt lat="38.7130090" lon="15.2192610">
        <ele>5.4200000</ele>
        <time>2013-06-10T11:15:40Z</time>
      </trkpt>
      <trkpt lat="38.7132300" lon="15.2193540">
        <ele>5.4200000</ele>
        <time>2013-06-10T11:15:59Z</time>
      </trkpt>
      <trkpt lat="38.7134480" lon="15.2194520">
        <ele>5.4200000</ele>
        <time>2013-06-10T11:16:18Z</time>
      </trkpt>
      <trkpt lat="38.7136460" lon="15.2195450">
        <ele>5.9100000</ele>
        <time>2013-06-10T11:16:35Z</time>
      </trkpt>
      <trkpt lat="38.7138860" lon="15.2196620">
        <ele>5.4200000</ele>
        <time>2013-06-10T11:16:56Z</time>
      </trkpt>
      <trkpt lat="38.7140850" lon="15.2197580">
        <ele>5.9100000</ele>
        <time>2013-06-10T11:17:14Z</time>
      </trkpt>
      <trkpt lat="38.7142830" lon="15.2198490">
        <ele>5.4200000</ele>
        <time>2013-06-10T11:17:32Z</time>
      </trkpt>
      <trkpt lat="38.7144970" lon="15.2199440">
        <ele>5.4200000</ele>
        <time>2013-06-10T11:17:51Z</time>
      </trkpt>
      <trkpt lat="38.7147060" lon="15.2200320">
        <ele>5.4200000</ele>
        <time>2013-06-10T11:18:10Z</time>
      </trkpt>
      <trkpt lat="38.7149280" lon="15.2201540">
        <ele>4.9400000</ele>
        <time>2013-06-10T11:18:30Z</time>
      </trkpt>
      <trkpt lat="38.7152020" lon="15.2202990">
        <ele>4.9400000</ele>
        <time>2013-06-10T11:18:54Z</time>
      </trkpt>
      <trkpt lat="38.7153280" lon="15.2203590">
        <ele>5.4200000</ele>
        <time>2013-06-10T11:19:05Z</time>
      </trkpt>
      <trkpt lat="38.7153930" lon="15.2203870">
        <ele>4.9400000</ele>
        <time>2013-06-10T11:19:10Z</time>
      </trkpt>
      <trkpt lat="38.7156300" lon="15.2204970">
        <ele>4.9400000</ele>
        <time>2013-06-10T11:19:30Z</time>
      </trkpt>
      <trkpt lat="38.7158390" lon="15.2205920">
        <ele>4.9400000</ele>
        <time>2013-06-10T11:19:47Z</time>
      </trkpt>
      <trkpt lat="38.7160610" lon="15.2206900">
        <ele>4.9400000</ele>
        <time>2013-06-10T11:20:04Z</time>
      </trkpt>
      <trkpt lat="38.7163470" lon="15.2207870">
        <ele>4.9400000</ele>
        <time>2013-06-10T11:20:25Z</time>
      </trkpt>
      <trkpt lat="38.7166330" lon="15.2208910">
        <ele>4.9400000</ele>
        <time>2013-06-10T11:20:45Z</time>
      </trkpt>
      <trkpt lat="38.7169490" lon="15.2210160">
        <ele>4.9400000</ele>
        <time>2013-06-10T11:21:06Z</time>
      </trkpt>
      <trkpt lat="38.7172430" lon="15.2211240">
        <ele>4.4600000</ele>
        <time>2013-06-10T11:21:27Z</time>
      </trkpt>
      <trkpt lat="38.7175250" lon="15.2212400">
        <ele>4.4600000</ele>
        <time>2013-06-10T11:21:45Z</time>
      </trkpt>
      <trkpt lat="38.7178380" lon="15.2214120">
        <ele>4.4600000</ele>
        <time>2013-06-10T11:22:05Z</time>
      </trkpt>
      <trkpt lat="38.7181470" lon="15.2215460">
        <ele>4.9400000</ele>
        <time>2013-06-10T11:22:23Z</time>
      </trkpt>
      <trkpt lat="38.7184680" lon="15.2216770">
        <ele>4.4600000</ele>
        <time>2013-06-10T11:22:41Z</time>
      </trkpt>
      <trkpt lat="38.7187920" lon="15.2218080">
        <ele>4.4600000</ele>
        <time>2013-06-10T11:23:00Z</time>
      </trkpt>
      <trkpt lat="38.7191730" lon="15.2219520">
        <ele>4.4600000</ele>
        <time>2013-06-10T11:23:22Z</time>
      </trkpt>
      <trkpt lat="38.7195090" lon="15.2220890">
        <ele>4.9400000</ele>
        <time>2013-06-10T11:23:41Z</time>
      </trkpt>
      <trkpt lat="38.7198640" lon="15.2222190">
        <ele>4.4600000</ele>
        <time>2013-06-10T11:24:01Z</time>
      </trkpt>
      <trkpt lat="38.7201770" lon="15.2223510">
        <ele>4.9400000</ele>
        <time>2013-06-10T11:24:19Z</time>
      </trkpt>
      <trkpt lat="38.7205200" lon="15.2224740">
        <ele>5.4200000</ele>
        <time>2013-06-10T11:24:38Z</time>
      </trkpt>
      <trkpt lat="38.7208480" lon="15.2225870">
        <ele>4.9400000</ele>
        <time>2013-06-10T11:24:56Z</time>
      </trkpt>
      <trkpt lat="38.7212260" lon="15.2227140">
        <ele>4.9400000</ele>
        <time>2013-06-10T11:25:17Z</time>
      </trkpt>
      <trkpt lat="38.7215580" lon="15.2228120">
        <ele>4.9400000</ele>
        <time>2013-06-10T11:25:36Z</time>
      </trkpt>
      <trkpt lat="38.7218550" lon="15.2229150">
        <ele>4.9400000</ele>
        <time>2013-06-10T11:25:54Z</time>
      </trkpt>
      <trkpt lat="38.7221830" lon="15.2230320">
        <ele>4.9400000</ele>
        <time>2013-06-10T11:26:15Z</time>
      </trkpt>
      <trkpt lat="38.7225000" lon="15.2231500">
        <ele>4.9400000</ele>
        <time>2013-06-10T11:26:37Z</time>
      </trkpt>
      <trkpt lat="38.7227590" lon="15.2232310">
        <ele>4.9400000</ele>
        <time>2013-06-10T11:26:55Z</time>
      </trkpt>
      <trkpt lat="38.7229920" lon="15.2233170">
        <ele>4.9400000</ele>
        <time>2013-06-10T11:27:12Z</time>
      </trkpt>
      <trkpt lat="38.7232700" lon="15.2234220">
        <ele>4.9400000</ele>
        <time>2013-06-10T11:27:32Z</time>
      </trkpt>
      <trkpt lat="38.7235370" lon="15.2235240">
        <ele>4.4600000</ele>
        <time>2013-06-10T11:27:51Z</time>
      </trkpt>
      <trkpt lat="38.7238270" lon="15.2236220">
        <ele>4.9400000</ele>
        <time>2013-06-10T11:28:10Z</time>
      </trkpt>
      <trkpt lat="38.7241590" lon="15.2237460">
        <ele>4.9400000</ele>
        <time>2013-06-10T11:28:32Z</time>
      </trkpt>
      <trkpt lat="38.7244720" lon="15.2238110">
        <ele>4.9400000</ele>
        <time>2013-06-10T11:28:53Z</time>
      </trkpt>
      <trkpt lat="38.7247240" lon="15.2238950">
        <ele>5.4200000</ele>
        <time>2013-06-10T11:29:11Z</time>
      </trkpt>
      <trkpt lat="38.7249720" lon="15.2239700">
        <ele>4.9400000</ele>
        <time>2013-06-10T11:29:29Z</time>
      </trkpt>
      <trkpt lat="38.7252310" lon="15.2240610">
        <ele>4.9400000</ele>
        <time>2013-06-10T11:29:48Z</time>
      </trkpt>
      <trkpt lat="38.7254560" lon="15.2241720">
        <ele>4.9400000</ele>
        <time>2013-06-10T11:30:05Z</time>
      </trkpt>
      <trkpt lat="38.7257080" lon="15.2242650">
        <ele>4.4600000</ele>
        <time>2013-06-10T11:30:23Z</time>
      </trkpt>
      <trkpt lat="38.7259750" lon="15.2243560">
        <ele>5.4200000</ele>
        <time>2013-06-10T11:30:42Z</time>
      </trkpt>
      <trkpt lat="38.7262950" lon="15.2244940">
        <ele>4.4600000</ele>
        <time>2013-06-10T11:31:03Z</time>
      </trkpt>
      <trkpt lat="38.7266040" lon="15.2246220">
        <ele>4.9400000</ele>
        <time>2013-06-10T11:31:21Z</time>
      </trkpt>
      <trkpt lat="38.7270010" lon="15.2247650">
        <ele>3.9800000</ele>
        <time>2013-06-10T11:31:42Z</time>
      </trkpt>
      <trkpt lat="38.7273560" lon="15.2249060">
        <ele>4.4600000</ele>
        <time>2013-06-10T11:32:02Z</time>
      </trkpt>
      <trkpt lat="38.7276880" lon="15.2250450">
        <ele>4.9400000</ele>
        <time>2013-06-10T11:32:21Z</time>
      </trkpt>
      <trkpt lat="38.7280040" lon="15.2251960">
        <ele>4.9400000</ele>
        <time>2013-06-10T11:32:40Z</time>
      </trkpt>
      <trkpt lat="38.7283400" lon="15.2253540">
        <ele>4.9400000</ele>
        <time>2013-06-10T11:32:58Z</time>
      </trkpt>
      <trkpt lat="38.7286220" lon="15.2254980">
        <ele>4.9400000</ele>
        <time>2013-06-10T11:33:14Z</time>
      </trkpt>
      <trkpt lat="38.7289850" lon="15.2256610">
        <ele>5.4200000</ele>
        <time>2013-06-10T11:33:33Z</time>
      </trkpt>
      <trkpt lat="38.7293010" lon="15.2258140">
        <ele>4.9400000</ele>
        <time>2013-06-10T11:33:49Z</time>
      </trkpt>
      <trkpt lat="38.7296940" lon="15.2260110">
        <ele>4.4600000</ele>
        <time>2013-06-10T11:34:08Z</time>
      </trkpt>
      <trkpt lat="38.7301030" lon="15.2262160">
        <ele>4.9400000</ele>
        <time>2013-06-10T11:34:27Z</time>
      </trkpt>
      <trkpt lat="38.7304460" lon="15.2263950">
        <ele>4.9400000</ele>
        <time>2013-06-10T11:34:45Z</time>
      </trkpt>
      <trkpt lat="38.7308430" lon="15.2266070">
        <ele>4.9400000</ele>
        <time>2013-06-10T11:35:05Z</time>
      </trkpt>
      <trkpt lat="38.7311970" lon="15.2268020">
        <ele>4.9400000</ele>
        <time>2013-06-10T11:35:23Z</time>
      </trkpt>
      <trkpt lat="38.7315940" lon="15.2270130">
        <ele>4.4600000</ele>
        <time>2013-06-10T11:35:44Z</time>
      </trkpt>
      <trkpt lat="38.7319530" lon="15.2272160">
        <ele>4.9400000</ele>
        <time>2013-06-10T11:36:04Z</time>
      </trkpt>
      <trkpt lat="38.7322310" lon="15.2273920">
        <ele>4.9400000</ele>
        <time>2013-06-10T11:36:20Z</time>
      </trkpt>
      <trkpt lat="38.7325440" lon="15.2275560">
        <ele>4.9400000</ele>
        <time>2013-06-10T11:36:38Z</time>
      </trkpt>
      <trkpt lat="38.7328450" lon="15.2277130">
        <ele>4.9400000</ele>
        <time>2013-06-10T11:36:55Z</time>
      </trkpt>
      <trkpt lat="38.7331890" lon="15.2278970">
        <ele>4.9400000</ele>
        <time>2013-06-10T11:37:13Z</time>
      </trkpt>
      <trkpt lat="38.7335400" lon="15.2281020">
        <ele>4.9400000</ele>
        <time>2013-06-10T11:37:32Z</time>
      </trkpt>
      <trkpt lat="38.7339400" lon="15.2283340">
        <ele>4.9400000</ele>
        <time>2013-06-10T11:37:52Z</time>
      </trkpt>
      <trkpt lat="38.7343060" lon="15.2285410">
        <ele>4.9400000</ele>
        <time>2013-06-10T11:38:10Z</time>
      </trkpt>
      <trkpt lat="38.7346420" lon="15.2287150">
        <ele>5.4200000</ele>
        <time>2013-06-10T11:38:26Z</time>
      </trkpt>
      <trkpt lat="38.7350200" lon="15.2289100">
        <ele>4.9400000</ele>
        <time>2013-06-10T11:38:44Z</time>
      </trkpt>
      <trkpt lat="38.7354470" lon="15.2291420">
        <ele>4.4600000</ele>
        <time>2013-06-10T11:39:05Z</time>
      </trkpt>
      <trkpt lat="38.7358550" lon="15.2293470">
        <ele>4.9400000</ele>
        <time>2013-06-10T11:39:25Z</time>
      </trkpt>
      <trkpt lat="38.7362100" lon="15.2295330">
        <ele>5.4200000</ele>
        <time>2013-06-10T11:39:44Z</time>
      </trkpt>
      <trkpt lat="38.7365610" lon="15.2297180">
        <ele>4.9400000</ele>
        <time>2013-06-10T11:40:02Z</time>
      </trkpt>
      <trkpt lat="38.7369880" lon="15.2299300">
        <ele>4.9400000</ele>
        <time>2013-06-10T11:40:23Z</time>
      </trkpt>
      <trkpt lat="38.7373540" lon="15.2300910">
        <ele>4.9400000</ele>
        <time>2013-06-10T11:40:43Z</time>
      </trkpt>
      <trkpt lat="38.7377470" lon="15.2302890">
        <ele>4.9400000</ele>
        <time>2013-06-10T11:41:03Z</time>
      </trkpt>
      <trkpt lat="38.7381250" lon="15.2304730">
        <ele>4.9400000</ele>
        <time>2013-06-10T11:41:21Z</time>
      </trkpt>
      <trkpt lat="38.7385710" lon="15.2306750">
        <ele>4.9400000</ele>
        <time>2013-06-10T11:41:40Z</time>
      </trkpt>
      <trkpt lat="38.7389910" lon="15.2308310">
        <ele>5.4200000</ele>
        <time>2013-06-10T11:41:57Z</time>
      </trkpt>
      <trkpt lat="38.7395170" lon="15.2310050">
        <ele>4.9400000</ele>
        <time>2013-06-10T11:42:17Z</time>
      </trkpt>
      <trkpt lat="38.7400130" lon="15.2311640">
        <ele>4.9400000</ele>
        <time>2013-06-10T11:42:36Z</time>
      </trkpt>
      <trkpt lat="38.7404900" lon="15.2313470">
        <ele>4.9400000</ele>
        <time>2013-06-10T11:42:54Z</time>
      </trkpt>
      <trkpt lat="38.7410130" lon="15.2314960">
        <ele>5.4200000</ele>
        <time>2013-06-10T11:43:14Z</time>
      </trkpt>
      <trkpt lat="38.7414670" lon="15.2316610">
        <ele>5.4200000</ele>
        <time>2013-06-10T11:43:32Z</time>
      </trkpt>
      <trkpt lat="38.7418560" lon="15.2318190">
        <ele>5.4200000</ele>
        <time>2013-06-10T11:43:50Z</time>
      </trkpt>
      <trkpt lat="38.7422220" lon="15.2319730">
        <ele>4.9400000</ele>
        <time>2013-06-10T11:44:09Z</time>
      </trkpt>
      <trkpt lat="38.7425350" lon="15.2321010">
        <ele>4.9400000</ele>
        <time>2013-06-10T11:44:31Z</time>
      </trkpt>
      <trkpt lat="38.7427100" lon="15.2321840">
        <ele>4.4600000</ele>
        <time>2013-06-10T11:44:49Z</time>
      </trkpt>
      <trkpt lat="38.7427900" lon="15.2323200">
        <ele>4.4600000</ele>
        <time>2013-06-10T11:45:07Z</time>
      </trkpt>
      <trkpt lat="38.7428780" lon="15.2323760">
        <ele>4.4600000</ele>
        <time>2013-06-10T11:45:25Z</time>
      </trkpt>
      <trkpt lat="38.7429240" lon="15.2324520">
        <ele>4.4600000</ele>
        <time>2013-06-10T11:45:44Z</time>
      </trkpt>
      <trkpt lat="38.7429730" lon="15.2324790">
        <ele>4.4600000</ele>
        <time>2013-06-10T11:46:04Z</time>
      </trkpt>
      <trkpt lat="38.7429770" lon="15.2324810">
        <ele>4.9400000</ele>
        <time>2013-06-10T11:46:26Z</time>
      </trkpt>
      <trkpt lat="38.7429810" lon="15.2324870">
        <ele>4.4600000</ele>
        <time>2013-06-10T11:46:48Z</time>
      </trkpt>
      <trkpt lat="38.7430570" lon="15.2324630">
        <ele>4.9400000</ele>
        <time>2013-06-10T11:47:05Z</time>
      </trkpt>
      <trkpt lat="38.7431490" lon="15.2323830">
        <ele>4.9400000</ele>
        <time>2013-06-10T11:47:20Z</time>
      </trkpt>
      <trkpt lat="38.7433930" lon="15.2323620">
        <ele>4.4600000</ele>
        <time>2013-06-10T11:47:40Z</time>
      </trkpt>
      <trkpt lat="38.7436410" lon="15.2325170">
        <ele>4.9400000</ele>
        <time>2013-06-10T11:48:00Z</time>
      </trkpt>
      <trkpt lat="38.7438320" lon="15.2327550">
        <ele>4.9400000</ele>
        <time>2013-06-10T11:48:18Z</time>
      </trkpt>
      <trkpt lat="38.7440570" lon="15.2330820">
        <ele>4.4600000</ele>
        <time>2013-06-10T11:48:39Z</time>
      </trkpt>
      <trkpt lat="38.7442590" lon="15.2333730">
        <ele>4.9400000</ele>
        <time>2013-06-10T11:48:58Z</time>
      </trkpt>
      <trkpt lat="38.7445140" lon="15.2336990">
        <ele>4.4600000</ele>
        <time>2013-06-10T11:49:19Z</time>
      </trkpt>
      <trkpt lat="38.7447890" lon="15.2341080">
        <ele>4.9400000</ele>
        <time>2013-06-10T11:49:42Z</time>
      </trkpt>
      <trkpt lat="38.7450640" lon="15.2343340">
        <ele>4.9400000</ele>
        <time>2013-06-10T11:50:02Z</time>
      </trkpt>
      <trkpt lat="38.7453610" lon="15.2344970">
        <ele>4.9400000</ele>
        <time>2013-06-10T11:50:23Z</time>
      </trkpt>
      <trkpt lat="38.7456170" lon="15.2346610">
        <ele>4.9400000</ele>
        <time>2013-06-10T11:50:42Z</time>
      </trkpt>
      <trkpt lat="38.7458840" lon="15.2348190">
        <ele>4.9400000</ele>
        <time>2013-06-10T11:51:01Z</time>
      </trkpt>
      <trkpt lat="38.7461510" lon="15.2349320">
        <ele>5.4200000</ele>
        <time>2013-06-10T11:51:20Z</time>
      </trkpt>
      <trkpt lat="38.7464830" lon="15.2351430">
        <ele>5.4200000</ele>
        <time>2013-06-10T11:51:44Z</time>
      </trkpt>
      <trkpt lat="38.7467270" lon="15.2352670">
        <ele>5.4200000</ele>
        <time>2013-06-10T11:52:01Z</time>
      </trkpt>
      <trkpt lat="38.7470210" lon="15.2354250">
        <ele>5.4200000</ele>
        <time>2013-06-10T11:52:22Z</time>
      </trkpt>
      <trkpt lat="38.7472650" lon="15.2354820">
        <ele>5.4200000</ele>
        <time>2013-06-10T11:52:39Z</time>
      </trkpt>
      <trkpt lat="38.7474710" lon="15.2355410">
        <ele>5.4200000</ele>
        <time>2013-06-10T11:52:53Z</time>
      </trkpt>
      <trkpt lat="38.7477570" lon="15.2356570">
        <ele>5.4200000</ele>
        <time>2013-06-10T11:53:13Z</time>
      </trkpt>
      <trkpt lat="38.7480740" lon="15.2357920">
        <ele>5.4200000</ele>
        <time>2013-06-10T11:53:34Z</time>
      </trkpt>
      <trkpt lat="38.7483100" lon="15.2359060">
        <ele>5.4200000</ele>
        <time>2013-06-10T11:53:50Z</time>
      </trkpt>
      <trkpt lat="38.7485890" lon="15.2359850">
        <ele>5.4200000</ele>
        <time>2013-06-10T11:54:08Z</time>
      </trkpt>
      <trkpt lat="38.7488590" lon="15.2360690">
        <ele>4.9400000</ele>
        <time>2013-06-10T11:54:26Z</time>
      </trkpt>
      <trkpt lat="38.7490960" lon="15.2361410">
        <ele>5.4200000</ele>
        <time>2013-06-10T11:54:42Z</time>
      </trkpt>
      <trkpt lat="38.7493710" lon="15.2362060">
        <ele>5.4200000</ele>
        <time>2013-06-10T11:55:00Z</time>
      </trkpt>
      <trkpt lat="38.7496380" lon="15.2362710">
        <ele>5.4200000</ele>
        <time>2013-06-10T11:55:17Z</time>
      </trkpt>
      <trkpt lat="38.7499050" lon="15.2363820">
        <ele>5.4200000</ele>
        <time>2013-06-10T11:55:35Z</time>
      </trkpt>
      <trkpt lat="38.7501830" lon="15.2364450">
        <ele>5.9100000</ele>
        <time>2013-06-10T11:55:53Z</time>
      </trkpt>
      <trkpt lat="38.7505300" lon="15.2365220">
        <ele>5.4200000</ele>
        <time>2013-06-10T11:56:14Z</time>
      </trkpt>
      <trkpt lat="38.7507740" lon="15.2366050">
        <ele>5.4200000</ele>
        <time>2013-06-10T11:56:30Z</time>
      </trkpt>
      <trkpt lat="38.7510800" lon="15.2367040">
        <ele>5.4200000</ele>
        <time>2013-06-10T11:56:49Z</time>
      </trkpt>
      <trkpt lat="38.7513200" lon="15.2367690">
        <ele>5.9100000</ele>
        <time>2013-06-10T11:57:03Z</time>
      </trkpt>
      <trkpt lat="38.7517200" lon="15.2368560">
        <ele>5.9100000</ele>
        <time>2013-06-10T11:57:20Z</time>
      </trkpt>
      <trkpt lat="38.7521630" lon="15.2369170">
        <ele>5.4200000</ele>
        <time>2013-06-10T11:57:36Z</time>
      </trkpt>
      <trkpt lat="38.7527350" lon="15.2370150">
        <ele>5.9100000</ele>
        <time>2013-06-10T11:57:56Z</time>
      </trkpt>
      <trkpt lat="38.7531660" lon="15.2370940">
        <ele>5.9100000</ele>
        <time>2013-06-10T11:58:11Z</time>
      </trkpt>
      <trkpt lat="38.7536090" lon="15.2371780">
        <ele>5.9100000</ele>
        <time>2013-06-10T11:58:26Z</time>
      </trkpt>
      <trkpt lat="38.7541540" lon="15.2372860">
        <ele>5.4200000</ele>
        <time>2013-06-10T11:58:45Z</time>
      </trkpt>
      <trkpt lat="38.7546120" lon="15.2373780">
        <ele>5.9100000</ele>
        <time>2013-06-10T11:59:01Z</time>
      </trkpt>
      <trkpt lat="38.7551190" lon="15.2374970">
        <ele>5.9100000</ele>
        <time>2013-06-10T11:59:19Z</time>
      </trkpt>
      <trkpt lat="38.7556650" lon="15.2376260">
        <ele>5.9100000</ele>
        <time>2013-06-10T11:59:38Z</time>
      </trkpt>
      <trkpt lat="38.7561760" lon="15.2377400">
        <ele>5.9100000</ele>
        <time>2013-06-10T11:59:56Z</time>
      </trkpt>
      <trkpt lat="38.7565730" lon="15.2378380">
        <ele>5.4200000</ele>
        <time>2013-06-10T12:00:10Z</time>
      </trkpt>
      <trkpt lat="38.7570880" lon="15.2379750">
        <ele>5.9100000</ele>
        <time>2013-06-10T12:00:28Z</time>
      </trkpt>
      <trkpt lat="38.7576030" lon="15.2381070">
        <ele>5.9100000</ele>
        <time>2013-06-10T12:00:46Z</time>
      </trkpt>
      <trkpt lat="38.7580260" lon="15.2382060">
        <ele>5.9100000</ele>
        <time>2013-06-10T12:01:01Z</time>
      </trkpt>
      <trkpt lat="38.7585110" lon="15.2383260">
        <ele>5.9100000</ele>
        <time>2013-06-10T12:01:18Z</time>
      </trkpt>
      <trkpt lat="38.7590520" lon="15.2384560">
        <ele>5.9100000</ele>
        <time>2013-06-10T12:01:37Z</time>
      </trkpt>
      <trkpt lat="38.7595710" lon="15.2385790">
        <ele>6.3900000</ele>
        <time>2013-06-10T12:01:55Z</time>
      </trkpt>
      <trkpt lat="38.7600480" lon="15.2386930">
        <ele>6.3900000</ele>
        <time>2013-06-10T12:02:12Z</time>
      </trkpt>
      <trkpt lat="38.7605670" lon="15.2388320">
        <ele>6.3900000</ele>
        <time>2013-06-10T12:02:30Z</time>
      </trkpt>
      <trkpt lat="38.7610660" lon="15.2389460">
        <ele>6.3900000</ele>
        <time>2013-06-10T12:02:47Z</time>
      </trkpt>
      <trkpt lat="38.7616160" lon="15.2390790">
        <ele>5.9100000</ele>
        <time>2013-06-10T12:03:06Z</time>
      </trkpt>
      <trkpt lat="38.7621730" lon="15.2392120">
        <ele>6.3900000</ele>
        <time>2013-06-10T12:03:25Z</time>
      </trkpt>
      <trkpt lat="38.7626990" lon="15.2393320">
        <ele>6.8700000</ele>
        <time>2013-06-10T12:03:43Z</time>
      </trkpt>
      <trkpt lat="38.7631530" lon="15.2394400">
        <ele>6.8700000</ele>
        <time>2013-06-10T12:03:59Z</time>
      </trkpt>
      <trkpt lat="38.7636800" lon="15.2395640">
        <ele>6.8700000</ele>
        <time>2013-06-10T12:04:17Z</time>
      </trkpt>
      <trkpt lat="38.7641110" lon="15.2396810">
        <ele>7.3500000</ele>
        <time>2013-06-10T12:04:32Z</time>
      </trkpt>
      <trkpt lat="38.7646060" lon="15.2397980">
        <ele>6.8700000</ele>
        <time>2013-06-10T12:04:49Z</time>
      </trkpt>
      <trkpt lat="38.7651060" lon="15.2399080">
        <ele>6.8700000</ele>
        <time>2013-06-10T12:05:06Z</time>
      </trkpt>
      <trkpt lat="38.7656590" lon="15.2400400">
        <ele>7.3500000</ele>
        <time>2013-06-10T12:05:25Z</time>
      </trkpt>
      <trkpt lat="38.7662390" lon="15.2401740">
        <ele>7.8300000</ele>
        <time>2013-06-10T12:05:45Z</time>
      </trkpt>
      <trkpt lat="38.7667620" lon="15.2402930">
        <ele>7.3500000</ele>
        <time>2013-06-10T12:06:03Z</time>
      </trkpt>
      <trkpt lat="38.7673000" lon="15.2404170">
        <ele>7.8300000</ele>
        <time>2013-06-10T12:06:22Z</time>
      </trkpt>
      <trkpt lat="38.7678600" lon="15.2405200">
        <ele>7.3500000</ele>
        <time>2013-06-10T12:06:41Z</time>
      </trkpt>
      <trkpt lat="38.7683490" lon="15.2406240">
        <ele>7.8300000</ele>
        <time>2013-06-10T12:06:58Z</time>
      </trkpt>
      <trkpt lat="38.7689020" lon="15.2407200">
        <ele>7.8300000</ele>
        <time>2013-06-10T12:07:17Z</time>
      </trkpt>
      <trkpt lat="38.7694170" lon="15.2408380">
        <ele>8.3100000</ele>
        <time>2013-06-10T12:07:35Z</time>
      </trkpt>
      <trkpt lat="38.7699550" lon="15.2409610">
        <ele>7.8300000</ele>
        <time>2013-06-10T12:07:54Z</time>
      </trkpt>
      <trkpt lat="38.7705230" lon="15.2410780">
        <ele>8.3100000</ele>
        <time>2013-06-10T12:08:14Z</time>
      </trkpt>
      <trkpt lat="38.7709850" lon="15.2411670">
        <ele>8.3100000</ele>
        <time>2013-06-10T12:08:30Z</time>
      </trkpt>
      <trkpt lat="38.7715150" lon="15.2412780">
        <ele>8.3100000</ele>
        <time>2013-06-10T12:08:49Z</time>
      </trkpt>
      <trkpt lat="38.7720030" lon="15.2413750">
        <ele>8.7900000</ele>
        <time>2013-06-10T12:09:06Z</time>
      </trkpt>
      <trkpt lat="38.7724880" lon="15.2414790">
        <ele>8.3100000</ele>
        <time>2013-06-10T12:09:23Z</time>
      </trkpt>
      <trkpt lat="38.7729420" lon="15.2415790">
        <ele>8.7900000</ele>
        <time>2013-06-10T12:09:39Z</time>
      </trkpt>
      <trkpt lat="38.7734490" lon="15.2416900">
        <ele>8.3100000</ele>
        <time>2013-06-10T12:09:57Z</time>
      </trkpt>
      <trkpt lat="38.7739870" lon="15.2417990">
        <ele>8.7900000</ele>
        <time>2013-06-10T12:10:16Z</time>
      </trkpt>
      <trkpt lat="38.7745510" lon="15.2419170">
        <ele>8.3100000</ele>
        <time>2013-06-10T12:10:36Z</time>
      </trkpt>
      <trkpt lat="38.7750660" lon="15.2420320">
        <ele>8.3100000</ele>
        <time>2013-06-10T12:10:54Z</time>
      </trkpt>
      <trkpt lat="38.7757530" lon="15.2421900">
        <ele>8.3100000</ele>
        <time>2013-06-10T12:11:18Z</time>
      </trkpt>
      <trkpt lat="38.7762680" lon="15.2423130">
        <ele>8.7900000</ele>
        <time>2013-06-10T12:11:36Z</time>
      </trkpt>
      <trkpt lat="38.7769200" lon="15.2424630">
        <ele>8.3100000</ele>
        <time>2013-06-10T12:11:59Z</time>
      </trkpt>
      <trkpt lat="38.7775310" lon="15.2425790">
        <ele>8.7900000</ele>
        <time>2013-06-10T12:12:20Z</time>
      </trkpt>
      <trkpt lat="38.7781680" lon="15.2427200">
        <ele>8.3100000</ele>
        <time>2013-06-10T12:12:42Z</time>
      </trkpt>
      <trkpt lat="38.7787820" lon="15.2428540">
        <ele>8.7900000</ele>
        <time>2013-06-10T12:13:03Z</time>
      </trkpt>
      <trkpt lat="38.7794460" lon="15.2430020">
        <ele>8.7900000</ele>
        <time>2013-06-10T12:13:26Z</time>
      </trkpt>
      <trkpt lat="38.7800900" lon="15.2431370">
        <ele>8.7900000</ele>
        <time>2013-06-10T12:13:48Z</time>
      </trkpt>
      <trkpt lat="38.7806780" lon="15.2432430">
        <ele>8.3100000</ele>
        <time>2013-06-10T12:14:08Z</time>
      </trkpt>
      <trkpt lat="38.7814640" lon="15.2434100">
        <ele>8.7900000</ele>
        <time>2013-06-10T12:14:35Z</time>
      </trkpt>
      <trkpt lat="38.7821430" lon="15.2435460">
        <ele>8.7900000</ele>
        <time>2013-06-10T12:14:58Z</time>
      </trkpt>
      <trkpt lat="38.7828250" lon="15.2436850">
        <ele>8.7900000</ele>
        <time>2013-06-10T12:15:21Z</time>
      </trkpt>
      <trkpt lat="38.7834820" lon="15.2438080">
        <ele>8.7900000</ele>
        <time>2013-06-10T12:15:43Z</time>
      </trkpt>
      <trkpt lat="38.7841910" lon="15.2439560">
        <ele>8.7900000</ele>
        <time>2013-06-10T12:16:07Z</time>
      </trkpt>
      <trkpt lat="38.7849040" lon="15.2441020">
        <ele>8.7900000</ele>
        <time>2013-06-10T12:16:31Z</time>
      </trkpt>
      <trkpt lat="38.7856560" lon="15.2442500">
        <ele>9.2700000</ele>
        <time>2013-06-10T12:16:56Z</time>
      </trkpt>
      <trkpt lat="38.7863690" lon="15.2444080">
        <ele>8.7900000</ele>
        <time>2013-06-10T12:17:20Z</time>
      </trkpt>
      <trkpt lat="38.7871170" lon="15.2445630">
        <ele>8.7900000</ele>
        <time>2013-06-10T12:17:45Z</time>
      </trkpt>
      <trkpt lat="38.7877810" lon="15.2446950">
        <ele>9.2700000</ele>
        <time>2013-06-10T12:18:07Z</time>
      </trkpt>
      <trkpt lat="38.7885090" lon="15.2448500">
        <ele>8.7900000</ele>
        <time>2013-06-10T12:18:31Z</time>
      </trkpt>
      <trkpt lat="38.7891770" lon="15.2449930">
        <ele>8.7900000</ele>
        <time>2013-06-10T12:18:53Z</time>
      </trkpt>
      <trkpt lat="38.7898670" lon="15.2451450">
        <ele>9.2700000</ele>
        <time>2013-06-10T12:19:16Z</time>
      </trkpt>
      <trkpt lat="38.7904970" lon="15.2452450">
        <ele>8.3100000</ele>
        <time>2013-06-10T12:19:38Z</time>
      </trkpt>
      <trkpt lat="38.7913210" lon="15.2453700">
        <ele>8.7900000</ele>
        <time>2013-06-10T12:20:05Z</time>
      </trkpt>
      <trkpt lat="38.7919270" lon="15.2454860">
        <ele>8.7900000</ele>
        <time>2013-06-10T12:20:25Z</time>
      </trkpt>
      <trkpt lat="38.7925340" lon="15.2455920">
        <ele>9.2700000</ele>
        <time>2013-06-10T12:20:45Z</time>
      </trkpt>
      <trkpt lat="38.7932240" lon="15.2457090">
        <ele>8.7900000</ele>
        <time>2013-06-10T12:21:09Z</time>
      </trkpt>
      <trkpt lat="38.7939030" lon="15.2458330">
        <ele>7.8300000</ele>
        <time>2013-06-10T12:21:33Z</time>
      </trkpt>
      <trkpt lat="38.7945560" lon="15.2459770">
        <ele>8.3100000</ele>
        <time>2013-06-10T12:21:56Z</time>
      </trkpt>
      <trkpt lat="38.7952080" lon="15.2460920">
        <ele>8.3100000</ele>
        <time>2013-06-10T12:22:19Z</time>
      </trkpt>
      <trkpt lat="38.7959060" lon="15.2462210">
        <ele>8.3100000</ele>
        <time>2013-06-10T12:22:44Z</time>
      </trkpt>
      <trkpt lat="38.7966000" lon="15.2463090">
        <ele>8.3100000</ele>
        <time>2013-06-10T12:23:09Z</time>
      </trkpt>
      <trkpt lat="38.7973020" lon="15.2463840">
        <ele>8.7900000</ele>
        <time>2013-06-10T12:23:34Z</time>
      </trkpt>
      <trkpt lat="38.7979740" lon="15.2464520">
        <ele>8.7900000</ele>
        <time>2013-06-10T12:23:58Z</time>
      </trkpt>
      <trkpt lat="38.7986910" lon="15.2465120">
        <ele>8.7900000</ele>
        <time>2013-06-10T12:24:24Z</time>
      </trkpt>
      <trkpt lat="38.7993620" lon="15.2465700">
        <ele>8.7900000</ele>
        <time>2013-06-10T12:24:49Z</time>
      </trkpt>
      <trkpt lat="38.7999650" lon="15.2465740">
        <ele>8.7900000</ele>
        <time>2013-06-10T12:25:11Z</time>
      </trkpt>
      <trkpt lat="38.8005910" lon="15.2464490">
        <ele>8.3100000</ele>
        <time>2013-06-10T12:25:35Z</time>
      </trkpt>
      <trkpt lat="38.8012240" lon="15.2463340">
        <ele>8.3100000</ele>
        <time>2013-06-10T12:25:59Z</time>
      </trkpt>
      <trkpt lat="38.8019140" lon="15.2462340">
        <ele>8.7900000</ele>
        <time>2013-06-10T12:26:26Z</time>
      </trkpt>
      <trkpt lat="38.8024710" lon="15.2461140">
        <ele>8.7900000</ele>
        <time>2013-06-10T12:26:48Z</time>
      </trkpt>
      <trkpt lat="38.8031080" lon="15.2459570">
        <ele>8.7900000</ele>
        <time>2013-06-10T12:27:13Z</time>
      </trkpt>
      <trkpt lat="38.8037610" lon="15.2459320">
        <ele>8.3100000</ele>
        <time>2013-06-10T12:27:38Z</time>
      </trkpt>
      <trkpt lat="38.8043590" lon="15.2456590">
        <ele>8.3100000</ele>
        <time>2013-06-10T12:28:03Z</time>
      </trkpt>
      <trkpt lat="38.8048590" lon="15.2454140">
        <ele>8.3100000</ele>
        <time>2013-06-10T12:28:27Z</time>
      </trkpt>
      <trkpt lat="38.8052860" lon="15.2451500">
        <ele>8.3100000</ele>
        <time>2013-06-10T12:28:49Z</time>
      </trkpt>
      <trkpt lat="38.8059040" lon="15.2446210">
        <ele>8.3100000</ele>
        <time>2013-06-10T12:29:18Z</time>
      </trkpt>
      <trkpt lat="38.8064190" lon="15.2440930">
        <ele>8.7900000</ele>
        <time>2013-06-10T12:29:43Z</time>
      </trkpt>
      <trkpt lat="38.8069080" lon="15.2435030">
        <ele>8.3100000</ele>
        <time>2013-06-10T12:30:09Z</time>
      </trkpt>
      <trkpt lat="38.8073770" lon="15.2428850">
        <ele>8.3100000</ele>
        <time>2013-06-10T12:30:36Z</time>
      </trkpt>
      <trkpt lat="38.8077890" lon="15.2423160">
        <ele>8.3100000</ele>
        <time>2013-06-10T12:31:00Z</time>
      </trkpt>
      <trkpt lat="38.8080520" lon="15.2422100">
        <ele>8.7900000</ele>
        <time>2013-06-10T12:31:15Z</time>
      </trkpt>
      <trkpt lat="38.8080250" lon="15.2423790">
        <ele>8.3100000</ele>
        <time>2013-06-10T12:31:25Z</time>
      </trkpt>
      <trkpt lat="38.8076130" lon="15.2426320">
        <ele>8.3100000</ele>
        <time>2013-06-10T12:31:48Z</time>
      </trkpt>
      <trkpt lat="38.8069760" lon="15.2430280">
        <ele>8.3100000</ele>
        <time>2013-06-10T12:32:12Z</time>
      </trkpt>
      <trkpt lat="38.8061900" lon="15.2434970">
        <ele>8.3100000</ele>
        <time>2013-06-10T12:32:39Z</time>
      </trkpt>
      <trkpt lat="38.8054010" lon="15.2439470">
        <ele>8.3100000</ele>
        <time>2013-06-10T12:33:06Z</time>
      </trkpt>
      <trkpt lat="38.8045650" lon="15.2443410">
        <ele>8.7900000</ele>
        <time>2013-06-10T12:33:34Z</time>
      </trkpt>
      <trkpt lat="38.8036990" lon="15.2446110">
        <ele>8.3100000</ele>
        <time>2013-06-10T12:34:02Z</time>
      </trkpt>
      <trkpt lat="38.8028760" lon="15.2449000">
        <ele>8.3100000</ele>
        <time>2013-06-10T12:34:29Z</time>
      </trkpt>
      <trkpt lat="38.8021620" lon="15.2451640">
        <ele>8.3100000</ele>
        <time>2013-06-10T12:34:54Z</time>
      </trkpt>
      <trkpt lat="38.8016470" lon="15.2452370">
        <ele>8.7900000</ele>
        <time>2013-06-10T12:35:17Z</time>
      </trkpt>
      <trkpt lat="38.8010520" lon="15.2452360">
        <ele>8.7900000</ele>
        <time>2013-06-10T12:35:51Z</time>
      </trkpt>
      <trkpt lat="38.8006250" lon="15.2452330">
        <ele>8.7900000</ele>
        <time>2013-06-10T12:36:18Z</time>
      </trkpt>
      <trkpt lat="38.8002970" lon="15.2451470">
        <ele>9.7500000</ele>
        <time>2013-06-10T12:36:39Z</time>
      </trkpt>
      <trkpt lat="38.8000260" lon="15.2448420">
        <ele>9.7500000</ele>
        <time>2013-06-10T12:37:05Z</time>
      </trkpt>
      <trkpt lat="38.8000070" lon="15.2446950">
        <ele>9.7500000</ele>
        <time>2013-06-10T12:37:28Z</time>
      </trkpt>
      <trkpt lat="38.8000070" lon="15.2447070">
        <ele>9.7500000</ele>
        <time>2013-06-10T12:37:29Z</time>
      </trkpt>
      <trkpt lat="38.7999690" lon="15.2451580">
        <ele>9.7500000</ele>
        <time>2013-06-10T12:37:56Z</time>
      </trkpt>
      <trkpt lat="38.7998580" lon="15.2455170">
        <ele>9.7500000</ele>
        <time>2013-06-10T12:38:23Z</time>
      </trkpt>
      <trkpt lat="38.7997170" lon="15.2458630">
        <ele>9.2700000</ele>
        <time>2013-06-10T12:38:43Z</time>
      </trkpt>
      <trkpt lat="38.7997090" lon="15.2458230">
        <ele>9.2700000</ele>
        <time>2013-06-10T12:38:49Z</time>
      </trkpt>
      <trkpt lat="38.7998920" lon="15.2454960">
        <ele>9.2700000</ele>
        <time>2013-06-10T12:39:08Z</time>
      </trkpt>
      <trkpt lat="38.8002050" lon="15.2452510">
        <ele>9.2700000</ele>
        <time>2013-06-10T12:39:30Z</time>
      </trkpt>
      <trkpt lat="38.8004230" lon="15.2450890">
        <ele>8.7900000</ele>
        <time>2013-06-10T12:39:53Z</time>
      </trkpt>
      <trkpt lat="38.8005750" lon="15.2449420">
        <ele>9.2700000</ele>
        <time>2013-06-10T12:40:16Z</time>
      </trkpt>
      <trkpt lat="38.8007620" lon="15.2448440">
        <ele>9.2700000</ele>
        <time>2013-06-10T12:40:42Z</time>
      </trkpt>
      <trkpt lat="38.8009300" lon="15.2446930">
        <ele>9.2700000</ele>
        <time>2013-06-10T12:41:07Z</time>
      </trkpt>
      <trkpt lat="38.8012500" lon="15.2444840">
        <ele>8.7900000</ele>
        <time>2013-06-10T12:41:37Z</time>
      </trkpt>
      <trkpt lat="38.8014760" lon="15.2442780">
        <ele>8.7900000</ele>
        <time>2013-06-10T12:42:05Z</time>
      </trkpt>
      <trkpt lat="38.8015330" lon="15.2442100">
        <ele>8.7900000</ele>
        <time>2013-06-10T12:42:32Z</time>
      </trkpt>
      <trkpt lat="38.8015140" lon="15.2442340">
        <ele>8.3100000</ele>
        <time>2013-06-10T12:42:46Z</time>
      </trkpt>
      <trkpt lat="38.8012500" lon="15.2446010">
        <ele>8.3100000</ele>
        <time>2013-06-10T12:43:11Z</time>
      </trkpt>
      <trkpt lat="38.8012350" lon="15.2446050">
        <ele>8.7900000</ele>
        <time>2013-06-10T12:43:21Z</time>
      </trkpt>
      <trkpt lat="38.8013380" lon="15.2445340">
        <ele>8.7900000</ele>
        <time>2013-06-10T12:43:29Z</time>
      </trkpt>
      <trkpt lat="38.8016970" lon="15.2444420">
        <ele>8.7900000</ele>
        <time>2013-06-10T12:43:52Z</time>
      </trkpt>
      <trkpt lat="38.8019490" lon="15.2442980">
        <ele>8.3100000</ele>
        <time>2013-06-10T12:44:21Z</time>
      </trkpt>
      <trkpt lat="38.8019220" lon="15.2443160">
        <ele>8.3100000</ele>
        <time>2013-06-10T12:44:32Z</time>
      </trkpt>
      <trkpt lat="38.8017960" lon="15.2446760">
        <ele>8.7900000</ele>
        <time>2013-06-10T12:44:51Z</time>
      </trkpt>
      <trkpt lat="38.8017850" lon="15.2447130">
        <ele>8.3100000</ele>
        <time>2013-06-10T12:45:02Z</time>
      </trkpt>
      <trkpt lat="38.8015520" lon="15.2444200">
        <ele>8.7900000</ele>
        <time>2013-06-10T12:45:19Z</time>
      </trkpt>
      <trkpt lat="38.8015140" lon="15.2444030">
        <ele>8.3100000</ele>
        <time>2013-06-10T12:45:31Z</time>
      </trkpt>
      <trkpt lat="38.8018420" lon="15.2442460">
        <ele>8.7900000</ele>
        <time>2013-06-10T12:45:52Z</time>
      </trkpt>
      <trkpt lat="38.8019520" lon="15.2441880">
        <ele>8.7900000</ele>
        <time>2013-06-10T12:46:16Z</time>
      </trkpt>
      <trkpt lat="38.8019600" lon="15.2441890">
        <ele>8.3100000</ele>
        <time>2013-06-10T12:46:31Z</time>
      </trkpt>
      <trkpt lat="38.8018990" lon="15.2443000">
        <ele>8.7900000</ele>
        <time>2013-06-10T12:46:48Z</time>
      </trkpt>
      <trkpt lat="38.8018530" lon="15.2441900">
        <ele>8.7900000</ele>
        <time>2013-06-10T12:47:13Z</time>
      </trkpt>
      <trkpt lat="38.8018300" lon="15.2441100">
        <ele>8.3100000</ele>
        <time>2013-06-10T12:47:41Z</time>
      </trkpt>
      <trkpt lat="38.8017390" lon="15.2443170">
        <ele>8.3100000</ele>
        <time>2013-06-10T12:48:02Z</time>
      </trkpt>
      <trkpt lat="38.8016890" lon="15.2442580">
        <ele>8.7900000</ele>
        <time>2013-06-10T12:48:23Z</time>
      </trkpt>
      <trkpt lat="38.8016890" lon="15.2442670">
        <ele>8.3100000</ele>
        <time>2013-06-10T12:48:24Z</time>
      </trkpt>
      <trkpt lat="38.8016360" lon="15.2444480">
        <ele>8.3100000</ele>
        <time>2013-06-10T12:48:43Z</time>
      </trkpt>
      <trkpt lat="38.8016240" lon="15.2444210">
        <ele>8.7900000</ele>
        <time>2013-06-10T12:48:46Z</time>
      </trkpt>
      <trkpt lat="38.8016090" lon="15.2443680">
        <ele>8.7900000</ele>
        <time>2013-06-10T12:48:50Z</time>
      </trkpt>
      <trkpt lat="38.8016550" lon="15.2440380">
        <ele>8.3100000</ele>
        <time>2013-06-10T12:49:13Z</time>
      </trkpt>
      <trkpt lat="38.8017040" lon="15.2439600">
        <ele>7.8300000</ele>
        <time>2013-06-10T12:49:40Z</time>
      </trkpt>
      <trkpt lat="38.8017080" lon="15.2439410">
        <ele>7.8300000</ele>
        <time>2013-06-10T12:50:04Z</time>
      </trkpt>
      <trkpt lat="38.8017270" lon="15.2439170">
        <ele>7.3500000</ele>
        <time>2013-06-10T12:50:29Z</time>
      </trkpt>
      <trkpt lat="38.8017080" lon="15.2439190">
        <ele>8.3100000</ele>
        <time>2013-06-10T12:50:57Z</time>
      </trkpt>
      <trkpt lat="38.8017080" lon="15.2439290">
        <ele>8.3100000</ele>
        <time>2013-06-10T12:51:25Z</time>
      </trkpt>
      <trkpt lat="38.8017120" lon="15.2439170">
        <ele>8.3100000</ele>
        <time>2013-06-10T12:51:53Z</time>
      </trkpt>
      <trkpt lat="38.8017730" lon="15.2439770">
        <ele>7.8300000</ele>
        <time>2013-06-10T12:52:17Z</time>
      </trkpt>
      <trkpt lat="38.8018610" lon="15.2440850">
        <ele>8.7900000</ele>
        <time>2013-06-10T12:52:46Z</time>
      </trkpt>
      <trkpt lat="38.8019370" lon="15.2441450">
        <ele>8.3100000</ele>
        <time>2013-06-10T12:53:13Z</time>
      </trkpt>
      <trkpt lat="38.8018990" lon="15.2441650">
        <ele>7.8300000</ele>
        <time>2013-06-10T12:53:36Z</time>
      </trkpt>
      <trkpt lat="38.8019520" lon="15.2441850">
        <ele>7.3500000</ele>
        <time>2013-06-10T12:54:03Z</time>
      </trkpt>
      <trkpt lat="38.8019220" lon="15.2442260">
        <ele>7.8300000</ele>
        <time>2013-06-10T12:54:28Z</time>
      </trkpt>
      <trkpt lat="38.8019330" lon="15.2442200">
        <ele>7.8300000</ele>
        <time>2013-06-10T12:54:56Z</time>
      </trkpt>
      <trkpt lat="38.8019410" lon="15.2442350">
        <ele>7.8300000</ele>
        <time>2013-06-10T12:55:20Z</time>
      </trkpt>
      <trkpt lat="38.8019450" lon="15.2442300">
        <ele>7.8300000</ele>
        <time>2013-06-10T12:55:46Z</time>
      </trkpt>
      <trkpt lat="38.8019450" lon="15.2442300">
        <ele>8.3100000</ele>
        <time>2013-06-10T12:56:15Z</time>
      </trkpt>
      <trkpt lat="38.8019410" lon="15.2442260">
        <ele>7.8300000</ele>
        <time>2013-06-10T12:56:44Z</time>
      </trkpt>
      <trkpt lat="38.8019410" lon="15.2442240">
        <ele>7.8300000</ele>
        <time>2013-06-10T12:57:14Z</time>
      </trkpt>
      <trkpt lat="38.8019450" lon="15.2442230">
        <ele>8.3100000</ele>
        <time>2013-06-10T12:57:46Z</time>
      </trkpt>
      <trkpt lat="38.8019450" lon="15.2442230">
        <ele>8.3100000</ele>
        <time>2013-06-10T12:58:12Z</time>
      </trkpt>
      <trkpt lat="38.8019410" lon="15.2442190">
        <ele>8.3100000</ele>
        <time>2013-06-10T12:58:40Z</time>
      </trkpt>
      <trkpt lat="38.8019410" lon="15.2442170">
        <ele>8.3100000</ele>
        <time>2013-06-10T12:59:09Z</time>
      </trkpt>
      <trkpt lat="38.8019410" lon="15.2442170">
        <ele>8.3100000</ele>
        <time>2013-06-10T12:59:40Z</time>
      </trkpt>
      <trkpt lat="38.8019450" lon="15.2442100">
        <ele>8.7900000</ele>
        <time>2013-06-10T13:00:06Z</time>
      </trkpt>
      <trkpt lat="38.8019410" lon="15.2442070">
        <ele>8.7900000</ele>
        <time>2013-06-10T13:00:34Z</time>
      </trkpt>
      <trkpt lat="38.8019410" lon="15.2442070">
        <ele>8.7900000</ele>
        <time>2013-06-10T13:01:01Z</time>
      </trkpt>
      <trkpt lat="38.8019330" lon="15.2442260">
        <ele>8.7900000</ele>
        <time>2013-06-10T13:01:14Z</time>
      </trkpt>
      <trkpt lat="38.8016550" lon="15.2444740">
        <ele>8.7900000</ele>
        <time>2013-06-10T13:01:33Z</time>
      </trkpt>
      <trkpt lat="38.8013570" lon="15.2442810">
        <ele>9.2700000</ele>
        <time>2013-06-10T13:01:54Z</time>
      </trkpt>
      <trkpt lat="38.8013380" lon="15.2440900">
        <ele>8.7900000</ele>
        <time>2013-06-10T13:02:14Z</time>
      </trkpt>
      <trkpt lat="38.8014530" lon="15.2441160">
        <ele>9.2700000</ele>
        <time>2013-06-10T13:02:38Z</time>
      </trkpt>
      <trkpt lat="38.8015480" lon="15.2441560">
        <ele>9.2700000</ele>
        <time>2013-06-10T13:03:04Z</time>
      </trkpt>
      <trkpt lat="38.8015480" lon="15.2441560">
        <ele>9.2700000</ele>
        <time>2013-06-10T13:03:26Z</time>
      </trkpt>
      <trkpt lat="38.8015400" lon="15.2441730">
        <ele>9.2700000</ele>
        <time>2013-06-10T13:03:53Z</time>
      </trkpt>
      <trkpt lat="38.8015290" lon="15.2441780">
        <ele>8.7900000</ele>
        <time>2013-06-10T13:04:16Z</time>
      </trkpt>
      <trkpt lat="38.8015290" lon="15.2441780">
        <ele>8.7900000</ele>
        <time>2013-06-10T13:04:41Z</time>
      </trkpt>
      <trkpt lat="38.8015020" lon="15.2441650">
        <ele>8.7900000</ele>
        <time>2013-06-10T13:05:08Z</time>
      </trkpt>
      <trkpt lat="38.8014760" lon="15.2441540">
        <ele>8.7900000</ele>
        <time>2013-06-10T13:05:39Z</time>
      </trkpt>
      <trkpt lat="38.8014760" lon="15.2441540">
        <ele>8.7900000</ele>
        <time>2013-06-10T13:06:05Z</time>
      </trkpt>
      <trkpt lat="38.8014680" lon="15.2441540">
        <ele>8.3100000</ele>
        <time>2013-06-10T13:06:33Z</time>
      </trkpt>
      <trkpt lat="38.8014640" lon="15.2441550">
        <ele>8.7900000</ele>
        <time>2013-06-10T13:06:59Z</time>
      </trkpt>
      <trkpt lat="38.8014640" lon="15.2441550">
        <ele>8.3100000</ele>
        <time>2013-06-10T13:07:26Z</time>
      </trkpt>
      <trkpt lat="38.8014600" lon="15.2441580">
        <ele>8.3100000</ele>
        <time>2013-06-10T13:07:54Z</time>
      </trkpt>
      <trkpt lat="38.8014530" lon="15.2441630">
        <ele>8.7900000</ele>
        <time>2013-06-10T13:08:25Z</time>
      </trkpt>
      <trkpt lat="38.8014530" lon="15.2441630">
        <ele>8.7900000</ele>
        <time>2013-06-10T13:08:50Z</time>
      </trkpt>
      <trkpt lat="38.8014530" lon="15.2441630">
        <ele>8.7900000</ele>
        <time>2013-06-10T13:08:53Z</time>
      </trkpt>
      <trkpt lat="38.8014410" lon="15.2441730">
        <ele>8.7900000</ele>
        <time>2013-06-10T13:09:22Z</time>
      </trkpt>
      <trkpt lat="38.8014410" lon="15.2441750">
        <ele>8.3100000</ele>
        <time>2013-06-10T13:09:52Z</time>
      </trkpt>
      <trkpt lat="38.8014370" lon="15.2441800">
        <ele>8.3100000</ele>
        <time>2013-06-10T13:10:20Z</time>
      </trkpt>
      <trkpt lat="38.8014370" lon="15.2441800">
        <ele>8.3100000</ele>
        <time>2013-06-10T13:10:47Z</time>
      </trkpt>
      <trkpt lat="38.8014220" lon="15.2441870">
        <ele>7.8300000</ele>
        <time>2013-06-10T13:11:17Z</time>
      </trkpt>
      <trkpt lat="38.8014140" lon="15.2441850">
        <ele>8.3100000</ele>
        <time>2013-06-10T13:11:46Z</time>
      </trkpt>
      <trkpt lat="38.8014140" lon="15.2441850">
        <ele>8.3100000</ele>
        <time>2013-06-10T13:12:13Z</time>
      </trkpt>
      <trkpt lat="38.8013990" lon="15.2441760">
        <ele>8.3100000</ele>
        <time>2013-06-10T13:12:42Z</time>
      </trkpt>
      <trkpt lat="38.8013950" lon="15.2441810">
        <ele>8.3100000</ele>
        <time>2013-06-10T13:13:07Z</time>
      </trkpt>
      <trkpt lat="38.8013950" lon="15.2441810">
        <ele>8.3100000</ele>
        <time>2013-06-10T13:13:33Z</time>
      </trkpt>
      <trkpt lat="38.8013880" lon="15.2441880">
        <ele>8.3100000</ele>
        <time>2013-06-10T13:14:04Z</time>
      </trkpt>
      <trkpt lat="38.8013800" lon="15.2442070">
        <ele>7.8300000</ele>
        <time>2013-06-10T13:14:31Z</time>
      </trkpt>
      <trkpt lat="38.8013730" lon="15.2442260">
        <ele>7.8300000</ele>
        <time>2013-06-10T13:15:01Z</time>
      </trkpt>
      <trkpt lat="38.8013730" lon="15.2442260">
        <ele>7.8300000</ele>
        <time>2013-06-10T13:15:31Z</time>
      </trkpt>
      <trkpt lat="38.8013690" lon="15.2442260">
        <ele>7.8300000</ele>
        <time>2013-06-10T13:15:58Z</time>
      </trkpt>
      <trkpt lat="38.8013650" lon="15.2442280">
        <ele>7.8300000</ele>
        <time>2013-06-10T13:16:29Z</time>
      </trkpt>
      <trkpt lat="38.8013650" lon="15.2442250">
        <ele>7.8300000</ele>
        <time>2013-06-10T13:16:54Z</time>
      </trkpt>
      <trkpt lat="38.8013650" lon="15.2442250">
        <ele>7.8300000</ele>
        <time>2013-06-10T13:17:21Z</time>
      </trkpt>
      <trkpt lat="38.8013650" lon="15.2442250">
        <ele>7.8300000</ele>
        <time>2013-06-10T13:17:33Z</time>
      </trkpt>
      <trkpt lat="38.8013530" lon="15.2442210">
        <ele>7.8300000</ele>
        <time>2013-06-10T13:18:03Z</time>
      </trkpt>
      <trkpt lat="38.8013530" lon="15.2442320">
        <ele>7.8300000</ele>
        <time>2013-06-10T13:18:30Z</time>
      </trkpt>
      <trkpt lat="38.8013530" lon="15.2442320">
        <ele>7.8300000</ele>
        <time>2013-06-10T13:18:53Z</time>
      </trkpt>
      <trkpt lat="38.8013500" lon="15.2442390">
        <ele>7.3500000</ele>
        <time>2013-06-10T13:19:21Z</time>
      </trkpt>
      <trkpt lat="38.8013530" lon="15.2442380">
        <ele>7.3500000</ele>
        <time>2013-06-10T13:19:49Z</time>
      </trkpt>
      <trkpt lat="38.8013530" lon="15.2442390">
        <ele>7.3500000</ele>
        <time>2013-06-10T13:20:15Z</time>
      </trkpt>
      <trkpt lat="38.8013530" lon="15.2442390">
        <ele>7.8300000</ele>
        <time>2013-06-10T13:20:46Z</time>
      </trkpt>
      <trkpt lat="38.8013570" lon="15.2442390">
        <ele>7.8300000</ele>
        <time>2013-06-10T13:21:11Z</time>
      </trkpt>
      <trkpt lat="38.8013530" lon="15.2442390">
        <ele>7.8300000</ele>
        <time>2013-06-10T13:21:41Z</time>
      </trkpt>
      <trkpt lat="38.8013530" lon="15.2442390">
        <ele>7.8300000</ele>
        <time>2013-06-10T13:22:07Z</time>
      </trkpt>
      <trkpt lat="38.8013570" lon="15.2442460">
        <ele>7.3500000</ele>
        <time>2013-06-10T13:22:36Z</time>
      </trkpt>
      <trkpt lat="38.8013570" lon="15.2442490">
        <ele>7.8300000</ele>
        <time>2013-06-10T13:23:05Z</time>
      </trkpt>
      <trkpt lat="38.8013570" lon="15.2442490">
        <ele>7.3500000</ele>
        <time>2013-06-10T13:23:24Z</time>
      </trkpt>
      <trkpt lat="38.8013760" lon="15.2442710">
        <ele>7.3500000</ele>
        <time>2013-06-10T13:23:53Z</time>
      </trkpt>
      <trkpt lat="38.8013760" lon="15.2442690">
        <ele>7.8300000</ele>
        <time>2013-06-10T13:24:20Z</time>
      </trkpt>
      <trkpt lat="38.8013760" lon="15.2442620">
        <ele>6.8700000</ele>
        <time>2013-06-10T13:24:47Z</time>
      </trkpt>
      <trkpt lat="38.8013760" lon="15.2442620">
        <ele>7.3500000</ele>
        <time>2013-06-10T13:25:14Z</time>
      </trkpt>
      <trkpt lat="38.8013760" lon="15.2442640">
        <ele>7.3500000</ele>
        <time>2013-06-10T13:25:46Z</time>
      </trkpt>
      <trkpt lat="38.8013760" lon="15.2442660">
        <ele>6.8700000</ele>
        <time>2013-06-10T13:26:12Z</time>
      </trkpt>
      <trkpt lat="38.8013760" lon="15.2442660">
        <ele>6.8700000</ele>
        <time>2013-06-10T13:26:40Z</time>
      </trkpt>
      <trkpt lat="38.8013760" lon="15.2442660">
        <ele>7.3500000</ele>
        <time>2013-06-10T13:27:07Z</time>
      </trkpt>
      <trkpt lat="38.8013760" lon="15.2442670">
        <ele>7.3500000</ele>
        <time>2013-06-10T13:27:36Z</time>
      </trkpt>
      <trkpt lat="38.8013760" lon="15.2442670">
        <ele>7.3500000</ele>
        <time>2013-06-10T13:28:05Z</time>
      </trkpt>
      <trkpt lat="38.8013760" lon="15.2442710">
        <ele>7.3500000</ele>
        <time>2013-06-10T13:28:32Z</time>
      </trkpt>
      <trkpt lat="38.8013760" lon="15.2442720">
        <ele>6.8700000</ele>
        <time>2013-06-10T13:29:01Z</time>
      </trkpt>
      <trkpt lat="38.8013760" lon="15.2442720">
        <ele>7.3500000</ele>
        <time>2013-06-10T13:29:30Z</time>
      </trkpt>
      <trkpt lat="38.8013760" lon="15.2442720">
        <ele>7.3500000</ele>
        <time>2013-06-10T13:29:59Z</time>
      </trkpt>
      <trkpt lat="38.8013760" lon="15.2442750">
        <ele>7.3500000</ele>
        <time>2013-06-10T13:30:26Z</time>
      </trkpt>
      <trkpt lat="38.8013730" lon="15.2442720">
        <ele>7.3500000</ele>
        <time>2013-06-10T13:30:52Z</time>
      </trkpt>
      <trkpt lat="38.8013730" lon="15.2442720">
        <ele>7.3500000</ele>
        <time>2013-06-10T13:31:20Z</time>
      </trkpt>
      <trkpt lat="38.8013760" lon="15.2442730">
        <ele>6.8700000</ele>
        <time>2013-06-10T13:31:46Z</time>
      </trkpt>
      <trkpt lat="38.8013730" lon="15.2442670">
        <ele>7.3500000</ele>
        <time>2013-06-10T13:32:18Z</time>
      </trkpt>
      <trkpt lat="38.8013730" lon="15.2442670">
        <ele>6.8700000</ele>
        <time>2013-06-10T13:32:44Z</time>
      </trkpt>
      <trkpt lat="38.8013730" lon="15.2442670">
        <ele>7.3500000</ele>
        <time>2013-06-10T13:33:13Z</time>
      </trkpt>
      <trkpt lat="38.8013730" lon="15.2442650">
        <ele>6.8700000</ele>
        <time>2013-06-10T13:33:40Z</time>
      </trkpt>
      <trkpt lat="38.8013730" lon="15.2442660">
        <ele>6.8700000</ele>
        <time>2013-06-10T13:34:13Z</time>
      </trkpt>
      <trkpt lat="38.8013730" lon="15.2442660">
        <ele>6.8700000</ele>
        <time>2013-06-10T13:34:41Z</time>
      </trkpt>
      <trkpt lat="38.8013730" lon="15.2442700">
        <ele>6.8700000</ele>
        <time>2013-06-10T13:35:08Z</time>
      </trkpt>
      <trkpt lat="38.8013760" lon="15.2442700">
        <ele>6.8700000</ele>
        <time>2013-06-10T13:35:37Z</time>
      </trkpt>
      <trkpt lat="38.8013760" lon="15.2442710">
        <ele>6.8700000</ele>
        <time>2013-06-10T13:36:06Z</time>
      </trkpt>
      <trkpt lat="38.8013760" lon="15.2442710">
        <ele>7.3500000</ele>
        <time>2013-06-10T13:36:37Z</time>
      </trkpt>
      <trkpt lat="38.8013760" lon="15.2442710">
        <ele>6.8700000</ele>
        <time>2013-06-10T13:37:09Z</time>
      </trkpt>
      <trkpt lat="38.8013800" lon="15.2442730">
        <ele>7.3500000</ele>
        <time>2013-06-10T13:37:40Z</time>
      </trkpt>
      <trkpt lat="38.8013800" lon="15.2442740">
        <ele>7.3500000</ele>
        <time>2013-06-10T13:38:12Z</time>
      </trkpt>
      <trkpt lat="38.8013800" lon="15.2442740">
        <ele>7.3500000</ele>
        <time>2013-06-10T13:38:45Z</time>
      </trkpt>
      <trkpt lat="38.8013760" lon="15.2442780">
        <ele>7.3500000</ele>
        <time>2013-06-10T13:39:15Z</time>
      </trkpt>
      <trkpt lat="38.8013760" lon="15.2442790">
        <ele>7.3500000</ele>
        <time>2013-06-10T13:39:42Z</time>
      </trkpt>
      <trkpt lat="38.8013760" lon="15.2442800">
        <ele>7.8300000</ele>
        <time>2013-06-10T13:40:11Z</time>
      </trkpt>
      <trkpt lat="38.8013760" lon="15.2442800">
        <ele>7.3500000</ele>
        <time>2013-06-10T13:40:43Z</time>
      </trkpt>
      <trkpt lat="38.8013760" lon="15.2442770">
        <ele>7.8300000</ele>
        <time>2013-06-10T13:41:14Z</time>
      </trkpt>
      <trkpt lat="38.8013760" lon="15.2442720">
        <ele>7.8300000</ele>
        <time>2013-06-10T13:41:43Z</time>
      </trkpt>
      <trkpt lat="38.8013760" lon="15.2442690">
        <ele>7.8300000</ele>
        <time>2013-06-10T13:42:10Z</time>
      </trkpt>
      <trkpt lat="38.8013760" lon="15.2442690">
        <ele>7.3500000</ele>
        <time>2013-06-10T13:42:32Z</time>
      </trkpt>
      <trkpt lat="38.8013760" lon="15.2442690">
        <ele>7.3500000</ele>
        <time>2013-06-10T13:42:57Z</time>
      </trkpt>
      <trkpt lat="38.8013760" lon="15.2442690">
        <ele>7.3500000</ele>
        <time>2013-06-10T13:43:22Z</time>
      </trkpt>
      <trkpt lat="38.8013730" lon="15.2442650">
        <ele>7.3500000</ele>
        <time>2013-06-10T13:43:51Z</time>
      </trkpt>
      <trkpt lat="38.8013730" lon="15.2442620">
        <ele>7.8300000</ele>
        <time>2013-06-10T13:44:18Z</time>
      </trkpt>
      <trkpt lat="38.8013760" lon="15.2442610">
        <ele>7.3500000</ele>
        <time>2013-06-10T13:44:46Z</time>
      </trkpt>
      <trkpt lat="38.8013760" lon="15.2442610">
        <ele>6.8700000</ele>
        <time>2013-06-10T13:45:15Z</time>
      </trkpt>
      <trkpt lat="38.8013760" lon="15.2442610">
        <ele>6.3900000</ele>
        <time>2013-06-10T13:45:41Z</time>
      </trkpt>
      <trkpt lat="38.8013760" lon="15.2442600">
        <ele>7.3500000</ele>
        <time>2013-06-10T13:46:09Z</time>
      </trkpt>
      <trkpt lat="38.8013760" lon="15.2442600">
        <ele>7.3500000</ele>
        <time>2013-06-10T13:46:37Z</time>
      </trkpt>
      <trkpt lat="38.8013760" lon="15.2442570">
        <ele>7.3500000</ele>
        <time>2013-06-10T13:47:02Z</time>
      </trkpt>
      <trkpt lat="38.8013730" lon="15.2442510">
        <ele>7.8300000</ele>
        <time>2013-06-10T13:47:28Z</time>
      </trkpt>
      <trkpt lat="38.8013730" lon="15.2442510">
        <ele>7.8300000</ele>
        <time>2013-06-10T13:47:54Z</time>
      </trkpt>
      <trkpt lat="38.8013730" lon="15.2442500">
        <ele>7.3500000</ele>
        <time>2013-06-10T13:48:18Z</time>
      </trkpt>
      <trkpt lat="38.8013730" lon="15.2442510">
        <ele>7.3500000</ele>
        <time>2013-06-10T13:48:46Z</time>
      </trkpt>
      <trkpt lat="38.8013730" lon="15.2442510">
        <ele>7.3500000</ele>
        <time>2013-06-10T13:49:13Z</time>
      </trkpt>
      <trkpt lat="38.8013730" lon="15.2442500">
        <ele>7.8300000</ele>
        <time>2013-06-10T13:49:39Z</time>
      </trkpt>
      <trkpt lat="38.8013730" lon="15.2442500">
        <ele>7.3500000</ele>
        <time>2013-06-10T13:50:05Z</time>
      </trkpt>
      <trkpt lat="38.8013730" lon="15.2442500">
        <ele>7.3500000</ele>
        <time>2013-06-10T13:50:33Z</time>
      </trkpt>
      <trkpt lat="38.8013730" lon="15.2442460">
        <ele>7.3500000</ele>
        <time>2013-06-10T13:51:01Z</time>
      </trkpt>
      <trkpt lat="38.8013730" lon="15.2442460">
        <ele>7.3500000</ele>
        <time>2013-06-10T13:51:28Z</time>
      </trkpt>
      <trkpt lat="38.8013730" lon="15.2442460">
        <ele>7.3500000</ele>
        <time>2013-06-10T13:51:59Z</time>
      </trkpt>
      <trkpt lat="38.8013690" lon="15.2442490">
        <ele>7.3500000</ele>
        <time>2013-06-10T13:52:29Z</time>
      </trkpt>
      <trkpt lat="38.8013690" lon="15.2442480">
        <ele>7.3500000</ele>
        <time>2013-06-10T13:52:55Z</time>
      </trkpt>
      <trkpt lat="38.8013690" lon="15.2442480">
        <ele>7.3500000</ele>
        <time>2013-06-10T13:53:21Z</time>
      </trkpt>
      <trkpt lat="38.8013730" lon="15.2442550">
        <ele>7.3500000</ele>
        <time>2013-06-10T13:53:47Z</time>
      </trkpt>
      <trkpt lat="38.8013690" lon="15.2442590">
        <ele>7.3500000</ele>
        <time>2013-06-10T13:54:16Z</time>
      </trkpt>
      <trkpt lat="38.8013690" lon="15.2442590">
        <ele>7.3500000</ele>
        <time>2013-06-10T13:54:45Z</time>
      </trkpt>
      <trkpt lat="38.8013690" lon="15.2442520">
        <ele>7.8300000</ele>
        <time>2013-06-10T13:55:12Z</time>
      </trkpt>
      <trkpt lat="38.8013650" lon="15.2442500">
        <ele>7.3500000</ele>
        <time>2013-06-10T13:55:40Z</time>
      </trkpt>
      <trkpt lat="38.8013690" lon="15.2442530">
        <ele>7.3500000</ele>
        <time>2013-06-10T13:56:07Z</time>
      </trkpt>
      <trkpt lat="38.8013690" lon="15.2442530">
        <ele>7.8300000</ele>
        <time>2013-06-10T13:56:37Z</time>
      </trkpt>
      <trkpt lat="38.8013650" lon="15.2442530">
        <ele>7.3500000</ele>
        <time>2013-06-10T13:57:04Z</time>
      </trkpt>
      <trkpt lat="38.8013650" lon="15.2442550">
        <ele>7.8300000</ele>
        <time>2013-06-10T13:57:29Z</time>
      </trkpt>
      <trkpt lat="38.8013650" lon="15.2442550">
        <ele>7.8300000</ele>
        <time>2013-06-10T13:57:56Z</time>
      </trkpt>
      <trkpt lat="38.8013650" lon="15.2442540">
        <ele>7.3500000</ele>
        <time>2013-06-10T13:58:28Z</time>
      </trkpt>
      <trkpt lat="38.8013610" lon="15.2442560">
        <ele>7.8300000</ele>
        <time>2013-06-10T13:58:55Z</time>
      </trkpt>
      <trkpt lat="38.8013610" lon="15.2442590">
        <ele>7.3500000</ele>
        <time>2013-06-10T13:59:28Z</time>
      </trkpt>
      <trkpt lat="38.8013610" lon="15.2442590">
        <ele>7.8300000</ele>
        <time>2013-06-10T13:59:54Z</time>
      </trkpt>
      <trkpt lat="38.8013610" lon="15.2442560">
        <ele>7.8300000</ele>
        <time>2013-06-10T14:00:20Z</time>
      </trkpt>
      <trkpt lat="38.8013570" lon="15.2442500">
        <ele>7.8300000</ele>
        <time>2013-06-10T14:00:48Z</time>
      </trkpt>
      <trkpt lat="38.8013570" lon="15.2442500">
        <ele>7.8300000</ele>
        <time>2013-06-10T14:01:12Z</time>
      </trkpt>
      <trkpt lat="38.8013570" lon="15.2442540">
        <ele>7.3500000</ele>
        <time>2013-06-10T14:01:40Z</time>
      </trkpt>
      <trkpt lat="38.8013570" lon="15.2442540">
        <ele>7.3500000</ele>
        <time>2013-06-10T14:02:02Z</time>
      </trkpt>
      <trkpt lat="38.8013570" lon="15.2442550">
        <ele>6.3900000</ele>
        <time>2013-06-10T14:02:24Z</time>
      </trkpt>
    </trkseg>
  </trk>

  <trk>
    <name>Aktueller Track: 11 JUN 2013 07:54</name>
    <extensions>
      <gpxx:TrackExtension xmlns:gpxx="http://www.garmin.com/xmlschemas/GpxExtensions/v3">
        <gpxx:DisplayColor>Yellow</gpxx:DisplayColor>
      </gpxx:TrackExtension>
    </extensions>
    <trkseg>
      <trkpt lat="38.8013920" lon="15.2442890">
        <ele>-0.8200000</ele>
        <time>2013-06-11T05:54:15Z</time>
      </trkpt>
      <trkpt lat="38.8013650" lon="15.2443020">
        <ele>-2.2700000</ele>
        <time>2013-06-11T05:54:18Z</time>
      </trkpt>
      <trkpt lat="38.8013460" lon="15.2443020">
        <ele>1.5800000</ele>
        <time>2013-06-11T05:54:22Z</time>
      </trkpt>
      <trkpt lat="38.8013500" lon="15.2443010">
        <ele>3.0200000</ele>
        <time>2013-06-11T05:54:25Z</time>
      </trkpt>
      <trkpt lat="38.8013730" lon="15.2443160">
        <ele>6.3900000</ele>
        <time>2013-06-11T05:54:34Z</time>
      </trkpt>
      <trkpt lat="38.8013460" lon="15.2443280">
        <ele>6.3900000</ele>
        <time>2013-06-11T05:55:00Z</time>
      </trkpt>
      <trkpt lat="38.8013610" lon="15.2443150">
        <ele>5.9100000</ele>
        <time>2013-06-11T05:55:24Z</time>
      </trkpt>
      <trkpt lat="38.8013650" lon="15.2443140">
        <ele>6.3900000</ele>
        <time>2013-06-11T05:55:49Z</time>
      </trkpt>
      <trkpt lat="38.8013650" lon="15.2443070">
        <ele>6.3900000</ele>
        <time>2013-06-11T05:56:11Z</time>
      </trkpt>
      <trkpt lat="38.8013650" lon="15.2443070">
        <ele>6.8700000</ele>
        <time>2013-06-11T05:56:33Z</time>
      </trkpt>
      <trkpt lat="38.8013650" lon="15.2443060">
        <ele>6.8700000</ele>
        <time>2013-06-11T05:56:59Z</time>
      </trkpt>
      <trkpt lat="38.8013650" lon="15.2443030">
        <ele>6.8700000</ele>
        <time>2013-06-11T05:57:26Z</time>
      </trkpt>
      <trkpt lat="38.8013650" lon="15.2443030">
        <ele>7.3500000</ele>
        <time>2013-06-11T05:57:53Z</time>
      </trkpt>
      <trkpt lat="38.8013650" lon="15.2443030">
        <ele>6.8700000</ele>
        <time>2013-06-11T05:58:21Z</time>
      </trkpt>
      <trkpt lat="38.8013650" lon="15.2443040">
        <ele>6.8700000</ele>
        <time>2013-06-11T05:58:44Z</time>
      </trkpt>
      <trkpt lat="38.8013650" lon="15.2443040">
        <ele>6.8700000</ele>
        <time>2013-06-11T05:59:08Z</time>
      </trkpt>
      <trkpt lat="38.8013650" lon="15.2443060">
        <ele>6.8700000</ele>
        <time>2013-06-11T05:59:32Z</time>
      </trkpt>
      <trkpt lat="38.8013650" lon="15.2443060">
        <ele>6.8700000</ele>
        <time>2013-06-11T05:59:55Z</time>
      </trkpt>
      <trkpt lat="38.8013610" lon="15.2442970">
        <ele>6.3900000</ele>
        <time>2013-06-11T06:00:18Z</time>
      </trkpt>
      <trkpt lat="38.8013610" lon="15.2442970">
        <ele>6.8700000</ele>
        <time>2013-06-11T06:00:40Z</time>
      </trkpt>
      <trkpt lat="38.8013610" lon="15.2442970">
        <ele>6.8700000</ele>
        <time>2013-06-11T06:01:05Z</time>
      </trkpt>
      <trkpt lat="38.8013610" lon="15.2443020">
        <ele>6.8700000</ele>
        <time>2013-06-11T06:01:23Z</time>
      </trkpt>
      <trkpt lat="38.8013610" lon="15.2443020">
        <ele>6.3900000</ele>
        <time>2013-06-11T06:01:50Z</time>
      </trkpt>
      <trkpt lat="38.8013610" lon="15.2443030">
        <ele>6.3900000</ele>
        <time>2013-06-11T06:02:13Z</time>
      </trkpt>
      <trkpt lat="38.8013610" lon="15.2443030">
        <ele>6.8700000</ele>
        <time>2013-06-11T06:02:36Z</time>
      </trkpt>
      <trkpt lat="38.8013610" lon="15.2443040">
        <ele>6.8700000</ele>
        <time>2013-06-11T06:02:58Z</time>
      </trkpt>
      <trkpt lat="38.8013610" lon="15.2443040">
        <ele>6.3900000</ele>
        <time>2013-06-11T06:03:23Z</time>
      </trkpt>
      <trkpt lat="38.8013610" lon="15.2443040">
        <ele>6.8700000</ele>
        <time>2013-06-11T06:03:50Z</time>
      </trkpt>
      <trkpt lat="38.8013570" lon="15.2443010">
        <ele>6.8700000</ele>
        <time>2013-06-11T06:04:12Z</time>
      </trkpt>
      <trkpt lat="38.8013570" lon="15.2443010">
        <ele>6.3900000</ele>
        <time>2013-06-11T06:04:35Z</time>
      </trkpt>
      <trkpt lat="38.8013610" lon="15.2443030">
        <ele>6.8700000</ele>
        <time>2013-06-11T06:04:59Z</time>
      </trkpt>
      <trkpt lat="38.8013610" lon="15.2443050">
        <ele>6.8700000</ele>
        <time>2013-06-11T06:05:22Z</time>
      </trkpt>
      <trkpt lat="38.8013610" lon="15.2443050">
        <ele>6.8700000</ele>
        <time>2013-06-11T06:05:45Z</time>
      </trkpt>
      <trkpt lat="38.8013570" lon="15.2443030">
        <ele>6.3900000</ele>
        <time>2013-06-11T06:06:11Z</time>
      </trkpt>
      <trkpt lat="38.8013570" lon="15.2443030">
        <ele>6.3900000</ele>
        <time>2013-06-11T06:06:36Z</time>
      </trkpt>
      <trkpt lat="38.8013570" lon="15.2442950">
        <ele>6.3900000</ele>
        <time>2013-06-11T06:06:57Z</time>
      </trkpt>
      <trkpt lat="38.8013530" lon="15.2442940">
        <ele>6.3900000</ele>
        <time>2013-06-11T06:07:22Z</time>
      </trkpt>
      <trkpt lat="38.8013530" lon="15.2442940">
        <ele>6.3900000</ele>
        <time>2013-06-11T06:07:46Z</time>
      </trkpt>
      <trkpt lat="38.8013530" lon="15.2442910">
        <ele>6.3900000</ele>
        <time>2013-06-11T06:08:10Z</time>
      </trkpt>
      <trkpt lat="38.8013530" lon="15.2442910">
        <ele>5.9100000</ele>
        <time>2013-06-11T06:08:33Z</time>
      </trkpt>
      <trkpt lat="38.8013570" lon="15.2442880">
        <ele>6.3900000</ele>
        <time>2013-06-11T06:08:57Z</time>
      </trkpt>
      <trkpt lat="38.8013610" lon="15.2442950">
        <ele>5.4200000</ele>
        <time>2013-06-11T06:09:20Z</time>
      </trkpt>
      <trkpt lat="38.8013610" lon="15.2442950">
        <ele>5.9100000</ele>
        <time>2013-06-11T06:09:46Z</time>
      </trkpt>
      <trkpt lat="38.8013650" lon="15.2442940">
        <ele>6.3900000</ele>
        <time>2013-06-11T06:10:09Z</time>
      </trkpt>
      <trkpt lat="38.8013650" lon="15.2442940">
        <ele>5.9100000</ele>
        <time>2013-06-11T06:10:35Z</time>
      </trkpt>
      <trkpt lat="38.8013610" lon="15.2442910">
        <ele>5.9100000</ele>
        <time>2013-06-11T06:11:01Z</time>
      </trkpt>
      <trkpt lat="38.8013610" lon="15.2442950">
        <ele>6.3900000</ele>
        <time>2013-06-11T06:11:27Z</time>
      </trkpt>
      <trkpt lat="38.8013610" lon="15.2442950">
        <ele>6.3900000</ele>
        <time>2013-06-11T06:11:50Z</time>
      </trkpt>
      <trkpt lat="38.8013610" lon="15.2443010">
        <ele>5.4200000</ele>
        <time>2013-06-11T06:12:11Z</time>
      </trkpt>
      <trkpt lat="38.8013610" lon="15.2443010">
        <ele>5.9100000</ele>
        <time>2013-06-11T06:12:33Z</time>
      </trkpt>
      <trkpt lat="38.8013650" lon="15.2443020">
        <ele>5.4200000</ele>
        <time>2013-06-11T06:12:56Z</time>
      </trkpt>
      <trkpt lat="38.8013690" lon="15.2443050">
        <ele>5.4200000</ele>
        <time>2013-06-11T06:13:19Z</time>
      </trkpt>
      <trkpt lat="38.8013690" lon="15.2443050">
        <ele>5.4200000</ele>
        <time>2013-06-11T06:13:42Z</time>
      </trkpt>
      <trkpt lat="38.8013730" lon="15.2443080">
        <ele>5.4200000</ele>
        <time>2013-06-11T06:14:05Z</time>
      </trkpt>
      <trkpt lat="38.8013730" lon="15.2443080">
        <ele>5.4200000</ele>
        <time>2013-06-11T06:14:26Z</time>
      </trkpt>
      <trkpt lat="38.8013760" lon="15.2443100">
        <ele>5.9100000</ele>
        <time>2013-06-11T06:14:47Z</time>
      </trkpt>
      <trkpt lat="38.8013760" lon="15.2443100">
        <ele>5.4200000</ele>
        <time>2013-06-11T06:15:09Z</time>
      </trkpt>
      <trkpt lat="38.8013800" lon="15.2443140">
        <ele>5.4200000</ele>
        <time>2013-06-11T06:15:31Z</time>
      </trkpt>
      <trkpt lat="38.8013800" lon="15.2443140">
        <ele>5.4200000</ele>
        <time>2013-06-11T06:15:53Z</time>
      </trkpt>
      <trkpt lat="38.8013800" lon="15.2443180">
        <ele>5.9100000</ele>
        <time>2013-06-11T06:16:14Z</time>
      </trkpt>
      <trkpt lat="38.8013800" lon="15.2443180">
        <ele>5.4200000</ele>
        <time>2013-06-11T06:16:36Z</time>
      </trkpt>
      <trkpt lat="38.8013840" lon="15.2443160">
        <ele>5.9100000</ele>
        <time>2013-06-11T06:16:57Z</time>
      </trkpt>
      <trkpt lat="38.8013840" lon="15.2443160">
        <ele>5.4200000</ele>
        <time>2013-06-11T06:17:20Z</time>
      </trkpt>
      <trkpt lat="38.8013840" lon="15.2443160">
        <ele>5.9100000</ele>
        <time>2013-06-11T06:17:44Z</time>
      </trkpt>
      <trkpt lat="38.8013880" lon="15.2443090">
        <ele>5.9100000</ele>
        <time>2013-06-11T06:18:06Z</time>
      </trkpt>
      <trkpt lat="38.8013880" lon="15.2443090">
        <ele>5.9100000</ele>
        <time>2013-06-11T06:18:29Z</time>
      </trkpt>
      <trkpt lat="38.8013800" lon="15.2443080">
        <ele>6.3900000</ele>
        <time>2013-06-11T06:18:51Z</time>
      </trkpt>
      <trkpt lat="38.8013800" lon="15.2443080">
        <ele>5.9100000</ele>
        <time>2013-06-11T06:19:16Z</time>
      </trkpt>
      <trkpt lat="38.8013800" lon="15.2443090">
        <ele>5.9100000</ele>
        <time>2013-06-11T06:19:39Z</time>
      </trkpt>
      <trkpt lat="38.8013880" lon="15.2443110">
        <ele>6.3900000</ele>
        <time>2013-06-11T06:20:01Z</time>
      </trkpt>
      <trkpt lat="38.8013880" lon="15.2443110">
        <ele>6.8700000</ele>
        <time>2013-06-11T06:20:24Z</time>
      </trkpt>
      <trkpt lat="38.8013880" lon="15.2443130">
        <ele>6.8700000</ele>
        <time>2013-06-11T06:20:49Z</time>
      </trkpt>
      <trkpt lat="38.8013880" lon="15.2443130">
        <ele>6.8700000</ele>
        <time>2013-06-11T06:21:12Z</time>
      </trkpt>
      <trkpt lat="38.8013840" lon="15.2443110">
        <ele>6.8700000</ele>
        <time>2013-06-11T06:21:36Z</time>
      </trkpt>
      <trkpt lat="38.8013840" lon="15.2443110">
        <ele>6.8700000</ele>
        <time>2013-06-11T06:21:57Z</time>
      </trkpt>
      <trkpt lat="38.8013730" lon="15.2443040">
        <ele>6.8700000</ele>
        <time>2013-06-11T06:22:28Z</time>
      </trkpt>
      <trkpt lat="38.8013690" lon="15.2443020">
        <ele>6.3900000</ele>
        <time>2013-06-11T06:22:53Z</time>
      </trkpt>
      <trkpt lat="38.8013690" lon="15.2442960">
        <ele>6.8700000</ele>
        <time>2013-06-11T06:23:21Z</time>
      </trkpt>
      <trkpt lat="38.8013690" lon="15.2442960">
        <ele>6.8700000</ele>
        <time>2013-06-11T06:23:44Z</time>
      </trkpt>
      <trkpt lat="38.8013690" lon="15.2442970">
        <ele>6.3900000</ele>
        <time>2013-06-11T06:24:07Z</time>
      </trkpt>
      <trkpt lat="38.8013690" lon="15.2442970">
        <ele>6.8700000</ele>
        <time>2013-06-11T06:24:30Z</time>
      </trkpt>
      <trkpt lat="38.8013650" lon="15.2442930">
        <ele>6.8700000</ele>
        <time>2013-06-11T06:25:00Z</time>
      </trkpt>
      <trkpt lat="38.8013690" lon="15.2442950">
        <ele>6.3900000</ele>
        <time>2013-06-11T06:25:23Z</time>
      </trkpt>
      <trkpt lat="38.8013690" lon="15.2442950">
        <ele>6.3900000</ele>
        <time>2013-06-11T06:25:49Z</time>
      </trkpt>
      <trkpt lat="38.8013690" lon="15.2442930">
        <ele>6.3900000</ele>
        <time>2013-06-11T06:26:11Z</time>
      </trkpt>
      <trkpt lat="38.8013650" lon="15.2442920">
        <ele>6.3900000</ele>
        <time>2013-06-11T06:26:38Z</time>
      </trkpt>
      <trkpt lat="38.8013650" lon="15.2442920">
        <ele>6.3900000</ele>
        <time>2013-06-11T06:27:03Z</time>
      </trkpt>
      <trkpt lat="38.8013650" lon="15.2442970">
        <ele>6.3900000</ele>
        <time>2013-06-11T06:27:28Z</time>
      </trkpt>
      <trkpt lat="38.8013650" lon="15.2442970">
        <ele>6.3900000</ele>
        <time>2013-06-11T06:27:53Z</time>
      </trkpt>
      <trkpt lat="38.8013650" lon="15.2442990">
        <ele>6.3900000</ele>
        <time>2013-06-11T06:28:20Z</time>
      </trkpt>
      <trkpt lat="38.8013650" lon="15.2443010">
        <ele>6.3900000</ele>
        <time>2013-06-11T06:28:46Z</time>
      </trkpt>
      <trkpt lat="38.8013650" lon="15.2443010">
        <ele>6.3900000</ele>
        <time>2013-06-11T06:29:14Z</time>
      </trkpt>
      <trkpt lat="38.8013650" lon="15.2442990">
        <ele>5.9100000</ele>
        <time>2013-06-11T06:29:40Z</time>
      </trkpt>
      <trkpt lat="38.8013650" lon="15.2443010">
        <ele>6.8700000</ele>
        <time>2013-06-11T06:30:07Z</time>
      </trkpt>
      <trkpt lat="38.8013650" lon="15.2443010">
        <ele>6.3900000</ele>
        <time>2013-06-11T06:30:34Z</time>
      </trkpt>
      <trkpt lat="38.8013650" lon="15.2443000">
        <ele>6.3900000</ele>
        <time>2013-06-11T06:31:00Z</time>
      </trkpt>
      <trkpt lat="38.8013610" lon="15.2443040">
        <ele>5.9100000</ele>
        <time>2013-06-11T06:31:30Z</time>
      </trkpt>
      <trkpt lat="38.8013610" lon="15.2443040">
        <ele>6.3900000</ele>
        <time>2013-06-11T06:31:53Z</time>
      </trkpt>
      <trkpt lat="38.8013610" lon="15.2443040">
        <ele>6.3900000</ele>
        <time>2013-06-11T06:32:16Z</time>
      </trkpt>
      <trkpt lat="38.8013610" lon="15.2443050">
        <ele>6.3900000</ele>
        <time>2013-06-11T06:32:39Z</time>
      </trkpt>
      <trkpt lat="38.8013610" lon="15.2443050">
        <ele>5.9100000</ele>
        <time>2013-06-11T06:33:02Z</time>
      </trkpt>
      <trkpt lat="38.8013610" lon="15.2443030">
        <ele>5.9100000</ele>
        <time>2013-06-11T06:33:27Z</time>
      </trkpt>
      <trkpt lat="38.8013610" lon="15.2443030">
        <ele>6.3900000</ele>
        <time>2013-06-11T06:33:53Z</time>
      </trkpt>
      <trkpt lat="38.8013610" lon="15.2443010">
        <ele>6.3900000</ele>
        <time>2013-06-11T06:34:20Z</time>
      </trkpt>
      <trkpt lat="38.8013570" lon="15.2443020">
        <ele>6.3900000</ele>
        <time>2013-06-11T06:34:46Z</time>
      </trkpt>
      <trkpt lat="38.8013570" lon="15.2443020">
        <ele>5.4200000</ele>
        <time>2013-06-11T06:35:15Z</time>
      </trkpt>
      <trkpt lat="38.8013570" lon="15.2443030">
        <ele>5.9100000</ele>
        <time>2013-06-11T06:35:36Z</time>
      </trkpt>
      <trkpt lat="38.8013610" lon="15.2443040">
        <ele>6.3900000</ele>
        <time>2013-06-11T06:35:58Z</time>
      </trkpt>
      <trkpt lat="38.8013610" lon="15.2443040">
        <ele>5.9100000</ele>
        <time>2013-06-11T06:36:21Z</time>
      </trkpt>
      <trkpt lat="38.8013610" lon="15.2443060">
        <ele>5.9100000</ele>
        <time>2013-06-11T06:36:45Z</time>
      </trkpt>
      <trkpt lat="38.8013610" lon="15.2443060">
        <ele>5.4200000</ele>
        <time>2013-06-11T06:37:07Z</time>
      </trkpt>
      <trkpt lat="38.8013610" lon="15.2443040">
        <ele>5.9100000</ele>
        <time>2013-06-11T06:37:27Z</time>
      </trkpt>
      <trkpt lat="38.8013610" lon="15.2443040">
        <ele>5.4200000</ele>
        <time>2013-06-11T06:37:51Z</time>
      </trkpt>
      <trkpt lat="38.8013610" lon="15.2442970">
        <ele>5.4200000</ele>
        <time>2013-06-11T06:38:21Z</time>
      </trkpt>
      <trkpt lat="38.8013610" lon="15.2442950">
        <ele>5.4200000</ele>
        <time>2013-06-11T06:38:49Z</time>
      </trkpt>
      <trkpt lat="38.8013610" lon="15.2442960">
        <ele>4.9400000</ele>
        <time>2013-06-11T06:39:18Z</time>
      </trkpt>
      <trkpt lat="38.8013610" lon="15.2442960">
        <ele>5.4200000</ele>
        <time>2013-06-11T06:39:41Z</time>
      </trkpt>
      <trkpt lat="38.8013610" lon="15.2442990">
        <ele>5.4200000</ele>
        <time>2013-06-11T06:40:05Z</time>
      </trkpt>
      <trkpt lat="38.8013610" lon="15.2442990">
        <ele>5.4200000</ele>
        <time>2013-06-11T06:40:27Z</time>
      </trkpt>
      <trkpt lat="38.8013610" lon="15.2443000">
        <ele>5.4200000</ele>
        <time>2013-06-11T06:40:48Z</time>
      </trkpt>
      <trkpt lat="38.8013610" lon="15.2443000">
        <ele>5.4200000</ele>
        <time>2013-06-11T06:41:07Z</time>
      </trkpt>
      <trkpt lat="38.8013610" lon="15.2443000">
        <ele>5.4200000</ele>
        <time>2013-06-11T06:41:29Z</time>
      </trkpt>
      <trkpt lat="38.8013610" lon="15.2443000">
        <ele>5.4200000</ele>
        <time>2013-06-11T06:41:51Z</time>
      </trkpt>
      <trkpt lat="38.8013610" lon="15.2442990">
        <ele>5.4200000</ele>
        <time>2013-06-11T06:42:12Z</time>
      </trkpt>
      <trkpt lat="38.8013570" lon="15.2442930">
        <ele>5.4200000</ele>
        <time>2013-06-11T06:42:39Z</time>
      </trkpt>
      <trkpt lat="38.8013570" lon="15.2442930">
        <ele>4.9400000</ele>
        <time>2013-06-11T06:43:05Z</time>
      </trkpt>
      <trkpt lat="38.8013570" lon="15.2442930">
        <ele>4.9400000</ele>
        <time>2013-06-11T06:43:29Z</time>
      </trkpt>
      <trkpt lat="38.8013570" lon="15.2442930">
        <ele>4.9400000</ele>
        <time>2013-06-11T06:43:54Z</time>
      </trkpt>
      <trkpt lat="38.8013570" lon="15.2442930">
        <ele>4.9400000</ele>
        <time>2013-06-11T06:44:13Z</time>
      </trkpt>
      <trkpt lat="38.8013570" lon="15.2442950">
        <ele>5.4200000</ele>
        <time>2013-06-11T06:44:38Z</time>
      </trkpt>
      <trkpt lat="38.8013570" lon="15.2442950">
        <ele>4.4600000</ele>
        <time>2013-06-11T06:45:05Z</time>
      </trkpt>
      <trkpt lat="38.8013570" lon="15.2442980">
        <ele>4.9400000</ele>
        <time>2013-06-11T06:45:32Z</time>
      </trkpt>
      <trkpt lat="38.8013570" lon="15.2442980">
        <ele>5.4200000</ele>
        <time>2013-06-11T06:45:54Z</time>
      </trkpt>
      <trkpt lat="38.8013570" lon="15.2442970">
        <ele>4.9400000</ele>
        <time>2013-06-11T06:46:15Z</time>
      </trkpt>
      <trkpt lat="38.8013530" lon="15.2442960">
        <ele>4.4600000</ele>
        <time>2013-06-11T06:46:40Z</time>
      </trkpt>
      <trkpt lat="38.8013530" lon="15.2442960">
        <ele>4.9400000</ele>
        <time>2013-06-11T06:47:07Z</time>
      </trkpt>
      <trkpt lat="38.8013530" lon="15.2442950">
        <ele>4.9400000</ele>
        <time>2013-06-11T06:47:30Z</time>
      </trkpt>
      <trkpt lat="38.8013530" lon="15.2442950">
        <ele>4.9400000</ele>
        <time>2013-06-11T06:47:54Z</time>
      </trkpt>
      <trkpt lat="38.8013530" lon="15.2442960">
        <ele>4.9400000</ele>
        <time>2013-06-11T06:48:16Z</time>
      </trkpt>
      <trkpt lat="38.8013500" lon="15.2442930">
        <ele>3.9800000</ele>
        <time>2013-06-11T06:48:39Z</time>
      </trkpt>
      <trkpt lat="38.8013500" lon="15.2442930">
        <ele>4.4600000</ele>
        <time>2013-06-11T06:49:06Z</time>
      </trkpt>
      <trkpt lat="38.8013500" lon="15.2442930">
        <ele>3.9800000</ele>
        <time>2013-06-11T06:49:33Z</time>
      </trkpt>
      <trkpt lat="38.8013500" lon="15.2442930">
        <ele>4.4600000</ele>
        <time>2013-06-11T06:49:57Z</time>
      </trkpt>
      <trkpt lat="38.8013500" lon="15.2442980">
        <ele>4.4600000</ele>
        <time>2013-06-11T06:50:21Z</time>
      </trkpt>
      <trkpt lat="38.8013530" lon="15.2443050">
        <ele>4.4600000</ele>
        <time>2013-06-11T06:50:45Z</time>
      </trkpt>
      <trkpt lat="38.8013530" lon="15.2443050">
        <ele>3.9800000</ele>
        <time>2013-06-11T06:51:09Z</time>
      </trkpt>
      <trkpt lat="38.8013530" lon="15.2443070">
        <ele>3.9800000</ele>
        <time>2013-06-11T06:51:34Z</time>
      </trkpt>
      <trkpt lat="38.8013530" lon="15.2443050">
        <ele>4.4600000</ele>
        <time>2013-06-11T06:52:00Z</time>
      </trkpt>
      <trkpt lat="38.8013420" lon="15.2443100">
        <ele>4.4600000</ele>
        <time>2013-06-11T06:52:20Z</time>
      </trkpt>
      <trkpt lat="38.8014030" lon="15.2444130">
        <ele>4.4600000</ele>
        <time>2013-06-11T06:52:49Z</time>
      </trkpt>
      <trkpt lat="38.8014790" lon="15.2446470">
        <ele>3.9800000</ele>
        <time>2013-06-11T06:53:13Z</time>
      </trkpt>
      <trkpt lat="38.8014870" lon="15.2448480">
        <ele>3.9800000</ele>
        <time>2013-06-11T06:53:37Z</time>
      </trkpt>
      <trkpt lat="38.8014640" lon="15.2450090">
        <ele>4.4600000</ele>
        <time>2013-06-11T06:54:02Z</time>
      </trkpt>
      <trkpt lat="38.8014830" lon="15.2452180">
        <ele>3.5000000</ele>
        <time>2013-06-11T06:54:21Z</time>
      </trkpt>
      <trkpt lat="38.8015020" lon="15.2454940">
        <ele>3.5000000</ele>
        <time>2013-06-11T06:54:45Z</time>
      </trkpt>
      <trkpt lat="38.8015020" lon="15.2457600">
        <ele>3.5000000</ele>
        <time>2013-06-11T06:55:08Z</time>
      </trkpt>
      <trkpt lat="38.8014110" lon="15.2459570">
        <ele>3.5000000</ele>
        <time>2013-06-11T06:55:29Z</time>
      </trkpt>
      <trkpt lat="38.8013800" lon="15.2460120">
        <ele>3.5000000</ele>
        <time>2013-06-11T06:55:53Z</time>
      </trkpt>
      <trkpt lat="38.8015170" lon="15.2459140">
        <ele>3.5000000</ele>
        <time>2013-06-11T06:56:15Z</time>
      </trkpt>
      <trkpt lat="38.8017430" lon="15.2457590">
        <ele>3.5000000</ele>
        <time>2013-06-11T06:56:38Z</time>
      </trkpt>
      <trkpt lat="38.8020400" lon="15.2455460">
        <ele>3.5000000</ele>
        <time>2013-06-11T06:57:05Z</time>
      </trkpt>
      <trkpt lat="38.8023530" lon="15.2453240">
        <ele>3.0200000</ele>
        <time>2013-06-11T06:57:32Z</time>
      </trkpt>
      <trkpt lat="38.8026200" lon="15.2450780">
        <ele>3.5000000</ele>
        <time>2013-06-11T06:57:58Z</time>
      </trkpt>
      <trkpt lat="38.8028600" lon="15.2450130">
        <ele>3.5000000</ele>
        <time>2013-06-11T06:58:22Z</time>
      </trkpt>
      <trkpt lat="38.8031920" lon="15.2450210">
        <ele>2.5400000</ele>
        <time>2013-06-11T06:58:50Z</time>
      </trkpt>
      <trkpt lat="38.8035090" lon="15.2450710">
        <ele>3.5000000</ele>
        <time>2013-06-11T06:59:15Z</time>
      </trkpt>
      <trkpt lat="38.8037720" lon="15.2451220">
        <ele>3.5000000</ele>
        <time>2013-06-11T06:59:35Z</time>
      </trkpt>
      <trkpt lat="38.8041080" lon="15.2450890">
        <ele>3.0200000</ele>
        <time>2013-06-11T07:00:01Z</time>
      </trkpt>
      <trkpt lat="38.8044130" lon="15.2451110">
        <ele>3.0200000</ele>
        <time>2013-06-11T07:00:25Z</time>
      </trkpt>
      <trkpt lat="38.8047450" lon="15.2452120">
        <ele>2.5400000</ele>
        <time>2013-06-11T07:00:51Z</time>
      </trkpt>
      <trkpt lat="38.8050460" lon="15.2452080">
        <ele>2.5400000</ele>
        <time>2013-06-11T07:01:15Z</time>
      </trkpt>
      <trkpt lat="38.8053860" lon="15.2450990">
        <ele>2.5400000</ele>
        <time>2013-06-11T07:01:34Z</time>
      </trkpt>
      <trkpt lat="38.8059160" lon="15.2447090">
        <ele>2.5400000</ele>
        <time>2013-06-11T07:01:58Z</time>
      </trkpt>
      <trkpt lat="38.8064310" lon="15.2443490">
        <ele>2.5400000</ele>
        <time>2013-06-11T07:02:22Z</time>
      </trkpt>
      <trkpt lat="38.8069840" lon="15.2440220">
        <ele>2.5400000</ele>
        <time>2013-06-11T07:02:46Z</time>
      </trkpt>
      <trkpt lat="38.8074950" lon="15.2436870">
        <ele>2.5400000</ele>
        <time>2013-06-11T07:03:07Z</time>
      </trkpt>
      <trkpt lat="38.8079340" lon="15.2432660">
        <ele>2.5400000</ele>
        <time>2013-06-11T07:03:27Z</time>
      </trkpt>
      <trkpt lat="38.8084140" lon="15.2427480">
        <ele>2.5400000</ele>
        <time>2013-06-11T07:03:51Z</time>
      </trkpt>
      <trkpt lat="38.8088300" lon="15.2423300">
        <ele>3.0200000</ele>
        <time>2013-06-11T07:04:11Z</time>
      </trkpt>
      <trkpt lat="38.8092120" lon="15.2418960">
        <ele>2.5400000</ele>
        <time>2013-06-11T07:04:30Z</time>
      </trkpt>
      <trkpt lat="38.8095440" lon="15.2414450">
        <ele>2.5400000</ele>
        <time>2013-06-11T07:04:49Z</time>
      </trkpt>
      <trkpt lat="38.8098750" lon="15.2409650">
        <ele>1.5800000</ele>
        <time>2013-06-11T07:05:08Z</time>
      </trkpt>
      <trkpt lat="38.8101650" lon="15.2405390">
        <ele>2.0600000</ele>
        <time>2013-06-11T07:05:25Z</time>
      </trkpt>
      <trkpt lat="38.8104590" lon="15.2400980">
        <ele>2.0600000</ele>
        <time>2013-06-11T07:05:43Z</time>
      </trkpt>
      <trkpt lat="38.8108330" lon="15.2395180">
        <ele>2.0600000</ele>
        <time>2013-06-11T07:06:06Z</time>
      </trkpt>
      <trkpt lat="38.8111310" lon="15.2389640">
        <ele>2.0600000</ele>
        <time>2013-06-11T07:06:27Z</time>
      </trkpt>
      <trkpt lat="38.8114660" lon="15.2383370">
        <ele>2.5400000</ele>
        <time>2013-06-11T07:06:50Z</time>
      </trkpt>
      <trkpt lat="38.8117750" lon="15.2378760">
        <ele>1.5800000</ele>
        <time>2013-06-11T07:07:08Z</time>
      </trkpt>
      <trkpt lat="38.8120840" lon="15.2373580">
        <ele>2.0600000</ele>
        <time>2013-06-11T07:07:27Z</time>
      </trkpt>
      <trkpt lat="38.8123740" lon="15.2368590">
        <ele>1.5800000</ele>
        <time>2013-06-11T07:07:46Z</time>
      </trkpt>
      <trkpt lat="38.8126680" lon="15.2363590">
        <ele>1.5800000</ele>
        <time>2013-06-11T07:08:05Z</time>
      </trkpt>
      <trkpt lat="38.8128970" lon="15.2359370">
        <ele>1.1000000</ele>
        <time>2013-06-11T07:08:21Z</time>
      </trkpt>
      <trkpt lat="38.8131710" lon="15.2352690">
        <ele>1.5800000</ele>
        <time>2013-06-11T07:08:44Z</time>
      </trkpt>
      <trkpt lat="38.8134000" lon="15.2346640">
        <ele>2.0600000</ele>
        <time>2013-06-11T07:09:04Z</time>
      </trkpt>
      <trkpt lat="38.8136250" lon="15.2340560">
        <ele>2.0600000</ele>
        <time>2013-06-11T07:09:24Z</time>
      </trkpt>
      <trkpt lat="38.8138540" lon="15.2333210">
        <ele>2.0600000</ele>
        <time>2013-06-11T07:09:48Z</time>
      </trkpt>
      <trkpt lat="38.8140410" lon="15.2327390">
        <ele>1.5800000</ele>
        <time>2013-06-11T07:10:07Z</time>
      </trkpt>
      <trkpt lat="38.8142430" lon="15.2322170">
        <ele>2.0600000</ele>
        <time>2013-06-11T07:10:25Z</time>
      </trkpt>
      <trkpt lat="38.8145030" lon="15.2316920">
        <ele>2.0600000</ele>
        <time>2013-06-11T07:10:44Z</time>
      </trkpt>
      <trkpt lat="38.8147960" lon="15.2312660">
        <ele>2.5400000</ele>
        <time>2013-06-11T07:11:01Z</time>
      </trkpt>
      <trkpt lat="38.8150980" lon="15.2308080">
        <ele>2.0600000</ele>
        <time>2013-06-11T07:11:19Z</time>
      </trkpt>
      <trkpt lat="38.8153530" lon="15.2301860">
        <ele>2.0600000</ele>
        <time>2013-06-11T07:11:40Z</time>
      </trkpt>
      <trkpt lat="38.8154870" lon="15.2296350">
        <ele>1.5800000</ele>
        <time>2013-06-11T07:11:57Z</time>
      </trkpt>
      <trkpt lat="38.8155670" lon="15.2290810">
        <ele>2.5400000</ele>
        <time>2013-06-11T07:12:14Z</time>
      </trkpt>
      <trkpt lat="38.8156010" lon="15.2285110">
        <ele>1.5800000</ele>
        <time>2013-06-11T07:12:32Z</time>
      </trkpt>
      <trkpt lat="38.8156390" lon="15.2278830">
        <ele>1.5800000</ele>
        <time>2013-06-11T07:12:51Z</time>
      </trkpt>
      <trkpt lat="38.8157650" lon="15.2273210">
        <ele>1.5800000</ele>
        <time>2013-06-11T07:13:09Z</time>
      </trkpt>
      <trkpt lat="38.8159790" lon="15.2268090">
        <ele>2.0600000</ele>
        <time>2013-06-11T07:13:27Z</time>
      </trkpt>
      <trkpt lat="38.8162380" lon="15.2262490">
        <ele>1.1000000</ele>
        <time>2013-06-11T07:13:47Z</time>
      </trkpt>
      <trkpt lat="38.8165170" lon="15.2257670">
        <ele>1.5800000</ele>
        <time>2013-06-11T07:14:05Z</time>
      </trkpt>
      <trkpt lat="38.8168260" lon="15.2252940">
        <ele>1.5800000</ele>
        <time>2013-06-11T07:14:24Z</time>
      </trkpt>
      <trkpt lat="38.8170660" lon="15.2247880">
        <ele>1.5800000</ele>
        <time>2013-06-11T07:14:42Z</time>
      </trkpt>
      <trkpt lat="38.8172490" lon="15.2241890">
        <ele>1.1000000</ele>
        <time>2013-06-11T07:15:02Z</time>
      </trkpt>
      <trkpt lat="38.8174210" lon="15.2235880">
        <ele>2.0600000</ele>
        <time>2013-06-11T07:15:22Z</time>
      </trkpt>
      <trkpt lat="38.8175810" lon="15.2230250">
        <ele>1.5800000</ele>
        <time>2013-06-11T07:15:40Z</time>
      </trkpt>
      <trkpt lat="38.8177530" lon="15.2224890">
        <ele>2.0600000</ele>
        <time>2013-06-11T07:15:58Z</time>
      </trkpt>
      <trkpt lat="38.8178830" lon="15.2219210">
        <ele>1.5800000</ele>
        <time>2013-06-11T07:16:17Z</time>
      </trkpt>
      <trkpt lat="38.8179470" lon="15.2213520">
        <ele>2.0600000</ele>
        <time>2013-06-11T07:16:35Z</time>
      </trkpt>
      <trkpt lat="38.8179440" lon="15.2207460">
        <ele>2.0600000</ele>
        <time>2013-06-11T07:16:54Z</time>
      </trkpt>
      <trkpt lat="38.8179170" lon="15.2202140">
        <ele>1.5800000</ele>
        <time>2013-06-11T07:17:10Z</time>
      </trkpt>
      <trkpt lat="38.8178900" lon="15.2196880">
        <ele>1.5800000</ele>
        <time>2013-06-11T07:17:26Z</time>
      </trkpt>
      <trkpt lat="38.8178440" lon="15.2191500">
        <ele>1.1000000</ele>
        <time>2013-06-11T07:17:42Z</time>
      </trkpt>
      <trkpt lat="38.8178440" lon="15.2190900">
        <ele>2.0600000</ele>
        <time>2013-06-11T07:17:44Z</time>
      </trkpt>
      <trkpt lat="38.8179320" lon="15.2185730">
        <ele>1.5800000</ele>
        <time>2013-06-11T07:18:01Z</time>
      </trkpt>
      <trkpt lat="38.8180890" lon="15.2180400">
        <ele>1.5800000</ele>
        <time>2013-06-11T07:18:19Z</time>
      </trkpt>
      <trkpt lat="38.8180960" lon="15.2175660">
        <ele>1.1000000</ele>
        <time>2013-06-11T07:18:35Z</time>
      </trkpt>
      <trkpt lat="38.8180770" lon="15.2170310">
        <ele>2.0600000</ele>
        <time>2013-06-11T07:18:52Z</time>
      </trkpt>
      <trkpt lat="38.8180770" lon="15.2164500">
        <ele>1.5800000</ele>
        <time>2013-06-11T07:19:10Z</time>
      </trkpt>
      <trkpt lat="38.8180240" lon="15.2157960">
        <ele>2.0600000</ele>
        <time>2013-06-11T07:19:30Z</time>
      </trkpt>
      <trkpt lat="38.8179860" lon="15.2152550">
        <ele>1.5800000</ele>
        <time>2013-06-11T07:19:47Z</time>
      </trkpt>
      <trkpt lat="38.8179470" lon="15.2146750">
        <ele>1.5800000</ele>
        <time>2013-06-11T07:20:06Z</time>
      </trkpt>
      <trkpt lat="38.8178940" lon="15.2140500">
        <ele>1.5800000</ele>
        <time>2013-06-11T07:20:25Z</time>
      </trkpt>
      <trkpt lat="38.8178220" lon="15.2135500">
        <ele>1.1000000</ele>
        <time>2013-06-11T07:20:40Z</time>
      </trkpt>
      <trkpt lat="38.8176420" lon="15.2130130">
        <ele>1.1000000</ele>
        <time>2013-06-11T07:20:57Z</time>
      </trkpt>
      <trkpt lat="38.8174360" lon="15.2125600">
        <ele>1.5800000</ele>
        <time>2013-06-11T07:21:13Z</time>
      </trkpt>
      <trkpt lat="38.8172300" lon="15.2121590">
        <ele>1.5800000</ele>
        <time>2013-06-11T07:21:27Z</time>
      </trkpt>
      <trkpt lat="38.8169250" lon="15.2116580">
        <ele>1.1000000</ele>
        <time>2013-06-11T07:21:46Z</time>
      </trkpt>
      <trkpt lat="38.8167080" lon="15.2111820">
        <ele>1.1000000</ele>
        <time>2013-06-11T07:22:02Z</time>
      </trkpt>
      <trkpt lat="38.8165020" lon="15.2107690">
        <ele>1.5800000</ele>
        <time>2013-06-11T07:22:17Z</time>
      </trkpt>
      <trkpt lat="38.8163490" lon="15.2104050">
        <ele>0.6200000</ele>
        <time>2013-06-11T07:22:30Z</time>
      </trkpt>
      <trkpt lat="38.8161320" lon="15.2099090">
        <ele>1.5800000</ele>
        <time>2013-06-11T07:22:47Z</time>
      </trkpt>
      <trkpt lat="38.8158610" lon="15.2094240">
        <ele>1.5800000</ele>
        <time>2013-06-11T07:23:04Z</time>
      </trkpt>
      <trkpt lat="38.8156430" lon="15.2090440">
        <ele>1.5800000</ele>
        <time>2013-06-11T07:23:18Z</time>
      </trkpt>
      <trkpt lat="38.8153650" lon="15.2085060">
        <ele>1.5800000</ele>
        <time>2013-06-11T07:23:37Z</time>
      </trkpt>
      <trkpt lat="38.8151660" lon="15.2079940">
        <ele>1.1000000</ele>
        <time>2013-06-11T07:23:54Z</time>
      </trkpt>
      <trkpt lat="38.8149450" lon="15.2075230">
        <ele>0.6200000</ele>
        <time>2013-06-11T07:24:10Z</time>
      </trkpt>
      <trkpt lat="38.8146900" lon="15.2069550">
        <ele>2.0600000</ele>
        <time>2013-06-11T07:24:29Z</time>
      </trkpt>
      <trkpt lat="38.8144910" lon="15.2064620">
        <ele>0.6200000</ele>
        <time>2013-06-11T07:24:46Z</time>
      </trkpt>
      <trkpt lat="38.8143010" lon="15.2059750">
        <ele>1.1000000</ele>
        <time>2013-06-11T07:25:02Z</time>
      </trkpt>
      <trkpt lat="38.8141330" lon="15.2055280">
        <ele>1.1000000</ele>
        <time>2013-06-11T07:25:17Z</time>
      </trkpt>
      <trkpt lat="38.8139230" lon="15.2050590">
        <ele>1.1000000</ele>
        <time>2013-06-11T07:25:33Z</time>
      </trkpt>
      <trkpt lat="38.8136940" lon="15.2045830">
        <ele>1.5800000</ele>
        <time>2013-06-11T07:25:49Z</time>
      </trkpt>
      <trkpt lat="38.8134540" lon="15.2041650">
        <ele>0.6200000</ele>
        <time>2013-06-11T07:26:04Z</time>
      </trkpt>
      <trkpt lat="38.8132130" lon="15.2037620">
        <ele>0.6200000</ele>
        <time>2013-06-11T07:26:19Z</time>
      </trkpt>
      <trkpt lat="38.8129620" lon="15.2033070">
        <ele>0.6200000</ele>
        <time>2013-06-11T07:26:35Z</time>
      </trkpt>
      <trkpt lat="38.8127210" lon="15.2028410">
        <ele>0.6200000</ele>
        <time>2013-06-11T07:26:51Z</time>
      </trkpt>
      <trkpt lat="38.8124310" lon="15.2024100">
        <ele>1.1000000</ele>
        <time>2013-06-11T07:27:08Z</time>
      </trkpt>
      <trkpt lat="38.8121490" lon="15.2019570">
        <ele>0.1400000</ele>
        <time>2013-06-11T07:27:24Z</time>
      </trkpt>
      <trkpt lat="38.8119240" lon="15.2015850">
        <ele>0.6200000</ele>
        <time>2013-06-11T07:27:38Z</time>
      </trkpt>
      <trkpt lat="38.8116910" lon="15.2010820">
        <ele>0.1400000</ele>
        <time>2013-06-11T07:27:55Z</time>
      </trkpt>
      <trkpt lat="38.8114280" lon="15.2005690">
        <ele>0.1400000</ele>
        <time>2013-06-11T07:28:13Z</time>
      </trkpt>
      <trkpt lat="38.8111990" lon="15.2000680">
        <ele>0.6200000</ele>
        <time>2013-06-11T07:28:30Z</time>
      </trkpt>
      <trkpt lat="38.8109590" lon="15.1994950">
        <ele>0.6200000</ele>
        <time>2013-06-11T07:28:49Z</time>
      </trkpt>
      <trkpt lat="38.8107490" lon="15.1989790">
        <ele>0.1400000</ele>
        <time>2013-06-11T07:29:06Z</time>
      </trkpt>
      <trkpt lat="38.8105200" lon="15.1985350">
        <ele>0.6200000</ele>
        <time>2013-06-11T07:29:22Z</time>
      </trkpt>
      <trkpt lat="38.8102000" lon="15.1980470">
        <ele>1.1000000</ele>
        <time>2013-06-11T07:29:40Z</time>
      </trkpt>
      <trkpt lat="38.8099100" lon="15.1976790">
        <ele>0.1400000</ele>
        <time>2013-06-11T07:29:55Z</time>
      </trkpt>
      <trkpt lat="38.8095660" lon="15.1972480">
        <ele>0.6200000</ele>
        <time>2013-06-11T07:30:13Z</time>
      </trkpt>
      <trkpt lat="38.8092650" lon="15.1968760">
        <ele>0.1400000</ele>
        <time>2013-06-11T07:30:28Z</time>
      </trkpt>
      <trkpt lat="38.8091130" lon="15.1966700">
        <ele>-0.3400000</ele>
        <time>2013-06-11T07:30:36Z</time>
      </trkpt>
      <trkpt lat="38.8088190" lon="15.1962790">
        <ele>0.6200000</ele>
        <time>2013-06-11T07:30:51Z</time>
      </trkpt>
      <trkpt lat="38.8085480" lon="15.1958930">
        <ele>0.1400000</ele>
        <time>2013-06-11T07:31:06Z</time>
      </trkpt>
      <trkpt lat="38.8082470" lon="15.1954590">
        <ele>-0.3400000</ele>
        <time>2013-06-11T07:31:22Z</time>
      </trkpt>
      <trkpt lat="38.8079800" lon="15.1950740">
        <ele>0.6200000</ele>
        <time>2013-06-11T07:31:37Z</time>
      </trkpt>
      <trkpt lat="38.8078190" lon="15.1948290">
        <ele>-0.3400000</ele>
        <time>2013-06-11T07:31:46Z</time>
      </trkpt>
      <trkpt lat="38.8075450" lon="15.1944730">
        <ele>0.1400000</ele>
        <time>2013-06-11T07:32:01Z</time>
      </trkpt>
      <trkpt lat="38.8072280" lon="15.1940820">
        <ele>-0.3400000</ele>
        <time>2013-06-11T07:32:17Z</time>
      </trkpt>
      <trkpt lat="38.8068920" lon="15.1936000">
        <ele>0.6200000</ele>
        <time>2013-06-11T07:32:36Z</time>
      </trkpt>
      <trkpt lat="38.8065450" lon="15.1931880">
        <ele>0.6200000</ele>
        <time>2013-06-11T07:32:53Z</time>
      </trkpt>
      <trkpt lat="38.8061450" lon="15.1927420">
        <ele>-0.3400000</ele>
        <time>2013-06-11T07:33:12Z</time>
      </trkpt>
      <trkpt lat="38.8057790" lon="15.1923340">
        <ele>1.1000000</ele>
        <time>2013-06-11T07:33:29Z</time>
      </trkpt>
      <trkpt lat="38.8055040" lon="15.1919720">
        <ele>-0.3400000</ele>
        <time>2013-06-11T07:33:44Z</time>
      </trkpt>
      <trkpt lat="38.8052180" lon="15.1915340">
        <ele>0.1400000</ele>
        <time>2013-06-11T07:34:00Z</time>
      </trkpt>
      <trkpt lat="38.8049700" lon="15.1911770">
        <ele>-0.3400000</ele>
        <time>2013-06-11T07:34:14Z</time>
      </trkpt>
      <trkpt lat="38.8046570" lon="15.1907800">
        <ele>-0.3400000</ele>
        <time>2013-06-11T07:34:30Z</time>
      </trkpt>
      <trkpt lat="38.8043670" lon="15.1904870">
        <ele>-0.3400000</ele>
        <time>2013-06-11T07:34:44Z</time>
      </trkpt>
      <trkpt lat="38.8039740" lon="15.1901110">
        <ele>-0.3400000</ele>
        <time>2013-06-11T07:35:01Z</time>
      </trkpt>
      <trkpt lat="38.8036350" lon="15.1897900">
        <ele>0.1400000</ele>
        <time>2013-06-11T07:35:16Z</time>
      </trkpt>
      <trkpt lat="38.8032650" lon="15.1893910">
        <ele>-0.3400000</ele>
        <time>2013-06-11T07:35:33Z</time>
      </trkpt>
      <trkpt lat="38.8029100" lon="15.1889800">
        <ele>0.1400000</ele>
        <time>2013-06-11T07:35:50Z</time>
      </trkpt>
      <trkpt lat="38.8025320" lon="15.1886070">
        <ele>0.1400000</ele>
        <time>2013-06-11T07:36:07Z</time>
      </trkpt>
      <trkpt lat="38.8021890" lon="15.1882360">
        <ele>0.1400000</ele>
        <time>2013-06-11T07:36:23Z</time>
      </trkpt>
      <trkpt lat="38.8018420" lon="15.1878200">
        <ele>0.1400000</ele>
        <time>2013-06-11T07:36:40Z</time>
      </trkpt>
      <trkpt lat="38.8014720" lon="15.1874010">
        <ele>1.1000000</ele>
        <time>2013-06-11T07:36:57Z</time>
      </trkpt>
      <trkpt lat="38.8011090" lon="15.1869750">
        <ele>0.1400000</ele>
        <time>2013-06-11T07:37:14Z</time>
      </trkpt>
      <trkpt lat="38.8008040" lon="15.1866250">
        <ele>-0.3400000</ele>
        <time>2013-06-11T07:37:29Z</time>
      </trkpt>
      <trkpt lat="38.8005220" lon="15.1863500">
        <ele>-0.8200000</ele>
        <time>2013-06-11T07:37:41Z</time>
      </trkpt>
      <trkpt lat="38.8001560" lon="15.1860480">
        <ele>-0.3400000</ele>
        <time>2013-06-11T07:37:56Z</time>
      </trkpt>
      <trkpt lat="38.7998160" lon="15.1857310">
        <ele>-0.8200000</ele>
        <time>2013-06-11T07:38:11Z</time>
      </trkpt>
      <trkpt lat="38.7995000" lon="15.1854340">
        <ele>0.6200000</ele>
        <time>2013-06-11T07:38:25Z</time>
      </trkpt>
      <trkpt lat="38.7990760" lon="15.1850930">
        <ele>0.1400000</ele>
        <time>2013-06-11T07:38:42Z</time>
      </trkpt>
      <trkpt lat="38.7987670" lon="15.1848040">
        <ele>0.1400000</ele>
        <time>2013-06-11T07:38:56Z</time>
      </trkpt>
      <trkpt lat="38.7983700" lon="15.1845070">
        <ele>-0.3400000</ele>
        <time>2013-06-11T07:39:12Z</time>
      </trkpt>
      <trkpt lat="38.7979890" lon="15.1841600">
        <ele>-0.3400000</ele>
        <time>2013-06-11T07:39:29Z</time>
      </trkpt>
      <trkpt lat="38.7975920" lon="15.1837510">
        <ele>-0.3400000</ele>
        <time>2013-06-11T07:39:47Z</time>
      </trkpt>
      <trkpt lat="38.7972220" lon="15.1834850">
        <ele>0.1400000</ele>
        <time>2013-06-11T07:40:01Z</time>
      </trkpt>
      <trkpt lat="38.7968560" lon="15.1831900">
        <ele>-0.3400000</ele>
        <time>2013-06-11T07:40:16Z</time>
      </trkpt>
      <trkpt lat="38.7966880" lon="15.1830430">
        <ele>0.1400000</ele>
        <time>2013-06-11T07:40:23Z</time>
      </trkpt>
      <trkpt lat="38.7963410" lon="15.1827470">
        <ele>0.1400000</ele>
        <time>2013-06-11T07:40:37Z</time>
      </trkpt>
      <trkpt lat="38.7960090" lon="15.1824390">
        <ele>-0.3400000</ele>
        <time>2013-06-11T07:40:51Z</time>
      </trkpt>
      <trkpt lat="38.7958790" lon="15.1823370">
        <ele>-0.8200000</ele>
        <time>2013-06-11T07:40:56Z</time>
      </trkpt>
      <trkpt lat="38.7954860" lon="15.1819650">
        <ele>-0.8200000</ele>
        <time>2013-06-11T07:41:13Z</time>
      </trkpt>
      <trkpt lat="38.7950860" lon="15.1816470">
        <ele>-0.3400000</ele>
        <time>2013-06-11T07:41:29Z</time>
      </trkpt>
      <trkpt lat="38.7946510" lon="15.1813210">
        <ele>-0.8200000</ele>
        <time>2013-06-11T07:41:46Z</time>
      </trkpt>
      <trkpt lat="38.7942160" lon="15.1810180">
        <ele>0.1400000</ele>
        <time>2013-06-11T07:42:03Z</time>
      </trkpt>
      <trkpt lat="38.7938230" lon="15.1806660">
        <ele>0.1400000</ele>
        <time>2013-06-11T07:42:20Z</time>
      </trkpt>
      <trkpt lat="38.7934230" lon="15.1803480">
        <ele>-0.3400000</ele>
        <time>2013-06-11T07:42:36Z</time>
      </trkpt>
      <trkpt lat="38.7930260" lon="15.1800030">
        <ele>-0.3400000</ele>
        <time>2013-06-11T07:42:52Z</time>
      </trkpt>
      <trkpt lat="38.7926600" lon="15.1796450">
        <ele>-0.8200000</ele>
        <time>2013-06-11T07:43:08Z</time>
      </trkpt>
      <trkpt lat="38.7923010" lon="15.1793260">
        <ele>-0.3400000</ele>
        <time>2013-06-11T07:43:23Z</time>
      </trkpt>
      <trkpt lat="38.7919540" lon="15.1789860">
        <ele>0.1400000</ele>
        <time>2013-06-11T07:43:38Z</time>
      </trkpt>
      <trkpt lat="38.7915880" lon="15.1787060">
        <ele>0.1400000</ele>
        <time>2013-06-11T07:43:53Z</time>
      </trkpt>
      <trkpt lat="38.7915460" lon="15.1786700">
        <ele>-0.8200000</ele>
        <time>2013-06-11T07:43:55Z</time>
      </trkpt>
      <trkpt lat="38.7912060" lon="15.1783100">
        <ele>-0.3400000</ele>
        <time>2013-06-11T07:44:10Z</time>
      </trkpt>
      <trkpt lat="38.7907830" lon="15.1778950">
        <ele>-0.3400000</ele>
        <time>2013-06-11T07:44:28Z</time>
      </trkpt>
      <trkpt lat="38.7903860" lon="15.1775740">
        <ele>0.1400000</ele>
        <time>2013-06-11T07:44:44Z</time>
      </trkpt>
      <trkpt lat="38.7900960" lon="15.1773480">
        <ele>-0.8200000</ele>
        <time>2013-06-11T07:45:01Z</time>
      </trkpt>
      <trkpt lat="38.7899130" lon="15.1772090">
        <ele>-0.3400000</ele>
        <time>2013-06-11T07:45:16Z</time>
      </trkpt>
      <trkpt lat="38.7898030" lon="15.1770420">
        <ele>0.1400000</ele>
        <time>2013-06-11T07:45:31Z</time>
      </trkpt>
      <trkpt lat="38.7897490" lon="15.1768500">
        <ele>-0.3400000</ele>
        <time>2013-06-11T07:45:48Z</time>
      </trkpt>
      <trkpt lat="38.7897190" lon="15.1766810">
        <ele>0.1400000</ele>
        <time>2013-06-11T07:46:05Z</time>
      </trkpt>
      <trkpt lat="38.7897070" lon="15.1766380">
        <ele>-0.3400000</ele>
        <time>2013-06-11T07:46:09Z</time>
      </trkpt>
      <trkpt lat="38.7896880" lon="15.1765660">
        <ele>-0.3400000</ele>
        <time>2013-06-11T07:46:16Z</time>
      </trkpt>
      <trkpt lat="38.7896000" lon="15.1764550">
        <ele>-0.3400000</ele>
        <time>2013-06-11T07:46:32Z</time>
      </trkpt>
      <trkpt lat="38.7894940" lon="15.1763280">
        <ele>0.1400000</ele>
        <time>2013-06-11T07:46:49Z</time>
      </trkpt>
      <trkpt lat="38.7894820" lon="15.1763100">
        <ele>-0.3400000</ele>
        <time>2013-06-11T07:46:51Z</time>
      </trkpt>
      <trkpt lat="38.7893870" lon="15.1761310">
        <ele>-0.8200000</ele>
        <time>2013-06-11T07:47:10Z</time>
      </trkpt>
      <trkpt lat="38.7893640" lon="15.1760020">
        <ele>0.1400000</ele>
        <time>2013-06-11T07:47:22Z</time>
      </trkpt>
      <trkpt lat="38.7893410" lon="15.1758540">
        <ele>-0.3400000</ele>
        <time>2013-06-11T07:47:38Z</time>
      </trkpt>
      <trkpt lat="38.7893300" lon="15.1757230">
        <ele>0.1400000</ele>
        <time>2013-06-11T07:47:55Z</time>
      </trkpt>
      <trkpt lat="38.7893680" lon="15.1756020">
        <ele>0.6200000</ele>
        <time>2013-06-11T07:48:12Z</time>
      </trkpt>
      <trkpt lat="38.7894020" lon="15.1755530">
        <ele>-0.3400000</ele>
        <time>2013-06-11T07:48:29Z</time>
      </trkpt>
      <trkpt lat="38.7894480" lon="15.1754470">
        <ele>0.1400000</ele>
        <time>2013-06-11T07:48:45Z</time>
      </trkpt>
      <trkpt lat="38.7895200" lon="15.1751480">
        <ele>-0.3400000</ele>
        <time>2013-06-11T07:49:04Z</time>
      </trkpt>
      <trkpt lat="38.7895550" lon="15.1748730">
        <ele>0.1400000</ele>
        <time>2013-06-11T07:49:20Z</time>
      </trkpt>
      <trkpt lat="38.7895970" lon="15.1746420">
        <ele>0.1400000</ele>
        <time>2013-06-11T07:49:36Z</time>
      </trkpt>
      <trkpt lat="38.7896350" lon="15.1744120">
        <ele>0.6200000</ele>
        <time>2013-06-11T07:49:52Z</time>
      </trkpt>
      <trkpt lat="38.7895160" lon="15.1742090">
        <ele>1.1000000</ele>
        <time>2013-06-11T07:50:08Z</time>
      </trkpt>
      <trkpt lat="38.7894020" lon="15.1741130">
        <ele>1.5800000</ele>
        <time>2013-06-11T07:50:16Z</time>
      </trkpt>
      <trkpt lat="38.7891460" lon="15.1738710">
        <ele>1.1000000</ele>
        <time>2013-06-11T07:50:34Z</time>
      </trkpt>
      <trkpt lat="38.7888220" lon="15.1736450">
        <ele>1.1000000</ele>
        <time>2013-06-11T07:50:52Z</time>
      </trkpt>
      <trkpt lat="38.7885510" lon="15.1734420">
        <ele>1.5800000</ele>
        <time>2013-06-11T07:51:08Z</time>
      </trkpt>
      <trkpt lat="38.7882770" lon="15.1732730">
        <ele>2.0600000</ele>
        <time>2013-06-11T07:51:23Z</time>
      </trkpt>
      <trkpt lat="38.7880100" lon="15.1730390">
        <ele>0.6200000</ele>
        <time>2013-06-11T07:51:39Z</time>
      </trkpt>
      <trkpt lat="38.7878460" lon="15.1729380">
        <ele>1.5800000</ele>
        <time>2013-06-11T07:51:48Z</time>
      </trkpt>
      <trkpt lat="38.7875370" lon="15.1727310">
        <ele>1.1000000</ele>
        <time>2013-06-11T07:52:07Z</time>
      </trkpt>
      <trkpt lat="38.7873420" lon="15.1725830">
        <ele>1.5800000</ele>
        <time>2013-06-11T07:52:23Z</time>
      </trkpt>
      <trkpt lat="38.7871510" lon="15.1724250">
        <ele>2.0600000</ele>
        <time>2013-06-11T07:52:40Z</time>
      </trkpt>
      <trkpt lat="38.7871320" lon="15.1724010">
        <ele>1.5800000</ele>
        <time>2013-06-11T07:52:42Z</time>
      </trkpt>
      <trkpt lat="38.7870830" lon="15.1723530">
        <ele>2.0600000</ele>
        <time>2013-06-11T07:52:47Z</time>
      </trkpt>
      <trkpt lat="38.7869530" lon="15.1722660">
        <ele>2.5400000</ele>
        <time>2013-06-11T07:53:00Z</time>
      </trkpt>
      <trkpt lat="38.7868960" lon="15.1722270">
        <ele>1.5800000</ele>
        <time>2013-06-11T07:53:06Z</time>
      </trkpt>
      <trkpt lat="38.7867160" lon="15.1721000">
        <ele>2.5400000</ele>
        <time>2013-06-11T07:53:23Z</time>
      </trkpt>
      <trkpt lat="38.7867050" lon="15.1720980">
        <ele>2.0600000</ele>
        <time>2013-06-11T07:53:24Z</time>
      </trkpt>
      <trkpt lat="38.7865410" lon="15.1720010">
        <ele>2.5400000</ele>
        <time>2013-06-11T07:53:39Z</time>
      </trkpt>
      <trkpt lat="38.7863040" lon="15.1718750">
        <ele>1.5800000</ele>
        <time>2013-06-11T07:53:58Z</time>
      </trkpt>
      <trkpt lat="38.7861370" lon="15.1717390">
        <ele>2.0600000</ele>
        <time>2013-06-11T07:54:14Z</time>
      </trkpt>
      <trkpt lat="38.7860760" lon="15.1716970">
        <ele>2.0600000</ele>
        <time>2013-06-11T07:54:20Z</time>
      </trkpt>
      <trkpt lat="38.7860070" lon="15.1716380">
        <ele>1.5800000</ele>
        <time>2013-06-11T07:54:27Z</time>
      </trkpt>
      <trkpt lat="38.7857970" lon="15.1714980">
        <ele>1.5800000</ele>
        <time>2013-06-11T07:54:46Z</time>
      </trkpt>
      <trkpt lat="38.7855910" lon="15.1713590">
        <ele>2.0600000</ele>
        <time>2013-06-11T07:55:05Z</time>
      </trkpt>
      <trkpt lat="38.7854230" lon="15.1712290">
        <ele>2.0600000</ele>
        <time>2013-06-11T07:55:21Z</time>
      </trkpt>
      <trkpt lat="38.7854120" lon="15.1712100">
        <ele>1.5800000</ele>
        <time>2013-06-11T07:55:23Z</time>
      </trkpt>
      <trkpt lat="38.7851910" lon="15.1710610">
        <ele>1.5800000</ele>
        <time>2013-06-11T07:55:42Z</time>
      </trkpt>
      <trkpt lat="38.7849310" lon="15.1709120">
        <ele>2.5400000</ele>
        <time>2013-06-11T07:56:00Z</time>
      </trkpt>
      <trkpt lat="38.7846570" lon="15.1707350">
        <ele>2.0600000</ele>
        <time>2013-06-11T07:56:19Z</time>
      </trkpt>
      <trkpt lat="38.7844390" lon="15.1705880">
        <ele>2.0600000</ele>
        <time>2013-06-11T07:56:35Z</time>
      </trkpt>
      <trkpt lat="38.7843400" lon="15.1705270">
        <ele>2.5400000</ele>
        <time>2013-06-11T07:56:41Z</time>
      </trkpt>
      <trkpt lat="38.7841950" lon="15.1704240">
        <ele>2.5400000</ele>
        <time>2013-06-11T07:56:49Z</time>
      </trkpt>
      <trkpt lat="38.7839660" lon="15.1702360">
        <ele>2.0600000</ele>
        <time>2013-06-11T07:57:03Z</time>
      </trkpt>
      <trkpt lat="38.7836190" lon="15.1699960">
        <ele>1.1000000</ele>
        <time>2013-06-11T07:57:22Z</time>
      </trkpt>
      <trkpt lat="38.7833940" lon="15.1697980">
        <ele>1.1000000</ele>
        <time>2013-06-11T07:57:37Z</time>
      </trkpt>
      <trkpt lat="38.7831150" lon="15.1695840">
        <ele>1.1000000</ele>
        <time>2013-06-11T07:57:54Z</time>
      </trkpt>
      <trkpt lat="38.7828180" lon="15.1693890">
        <ele>0.6200000</ele>
        <time>2013-06-11T07:58:12Z</time>
      </trkpt>
      <trkpt lat="38.7825620" lon="15.1692320">
        <ele>1.5800000</ele>
        <time>2013-06-11T07:58:27Z</time>
      </trkpt>
      <trkpt lat="38.7823260" lon="15.1690810">
        <ele>1.5800000</ele>
        <time>2013-06-11T07:58:41Z</time>
      </trkpt>
      <trkpt lat="38.7820780" lon="15.1689280">
        <ele>1.5800000</ele>
        <time>2013-06-11T07:58:55Z</time>
      </trkpt>
      <trkpt lat="38.7817990" lon="15.1687420">
        <ele>0.6200000</ele>
        <time>2013-06-11T07:59:11Z</time>
      </trkpt>
      <trkpt lat="38.7815550" lon="15.1685980">
        <ele>0.6200000</ele>
        <time>2013-06-11T07:59:25Z</time>
      </trkpt>
      <trkpt lat="38.7813110" lon="15.1684430">
        <ele>1.1000000</ele>
        <time>2013-06-11T07:59:39Z</time>
      </trkpt>
      <trkpt lat="38.7810440" lon="15.1682750">
        <ele>1.5800000</ele>
        <time>2013-06-11T07:59:55Z</time>
      </trkpt>
      <trkpt lat="38.7807540" lon="15.1680800">
        <ele>1.1000000</ele>
        <time>2013-06-11T08:00:12Z</time>
      </trkpt>
      <trkpt lat="38.7804680" lon="15.1679130">
        <ele>1.1000000</ele>
        <time>2013-06-11T08:00:28Z</time>
      </trkpt>
      <trkpt lat="38.7801670" lon="15.1677040">
        <ele>1.1000000</ele>
        <time>2013-06-11T08:00:46Z</time>
      </trkpt>
      <trkpt lat="38.7798960" lon="15.1675150">
        <ele>2.5400000</ele>
        <time>2013-06-11T08:01:03Z</time>
      </trkpt>
      <trkpt lat="38.7798810" lon="15.1675040">
        <ele>2.0600000</ele>
        <time>2013-06-11T08:01:04Z</time>
      </trkpt>
      <trkpt lat="38.7797810" lon="15.1674160">
        <ele>0.6200000</ele>
        <time>2013-06-11T08:01:11Z</time>
      </trkpt>
      <trkpt lat="38.7795450" lon="15.1672330">
        <ele>1.1000000</ele>
        <time>2013-06-11T08:01:26Z</time>
      </trkpt>
      <trkpt lat="38.7793010" lon="15.1670540">
        <ele>1.1000000</ele>
        <time>2013-06-11T08:01:42Z</time>
      </trkpt>
      <trkpt lat="38.7790450" lon="15.1668770">
        <ele>1.5800000</ele>
        <time>2013-06-11T08:01:58Z</time>
      </trkpt>
      <trkpt lat="38.7787510" lon="15.1666600">
        <ele>1.5800000</ele>
        <time>2013-06-11T08:02:15Z</time>
      </trkpt>
      <trkpt lat="38.7784120" lon="15.1664310">
        <ele>1.5800000</ele>
        <time>2013-06-11T08:02:34Z</time>
      </trkpt>
      <trkpt lat="38.7780840" lon="15.1662310">
        <ele>1.5800000</ele>
        <time>2013-06-11T08:02:50Z</time>
      </trkpt>
      <trkpt lat="38.7777370" lon="15.1659980">
        <ele>1.5800000</ele>
        <time>2013-06-11T08:03:08Z</time>
      </trkpt>
      <trkpt lat="38.7773780" lon="15.1657480">
        <ele>1.5800000</ele>
        <time>2013-06-11T08:03:27Z</time>
      </trkpt>
      <trkpt lat="38.7770610" lon="15.1655640">
        <ele>1.5800000</ele>
        <time>2013-06-11T08:03:43Z</time>
      </trkpt>
      <trkpt lat="38.7767790" lon="15.1653480">
        <ele>1.5800000</ele>
        <time>2013-06-11T08:03:59Z</time>
      </trkpt>
      <trkpt lat="38.7765160" lon="15.1651400">
        <ele>0.6200000</ele>
        <time>2013-06-11T08:04:14Z</time>
      </trkpt>
      <trkpt lat="38.7762300" lon="15.1649480">
        <ele>1.1000000</ele>
        <time>2013-06-11T08:04:29Z</time>
      </trkpt>
      <trkpt lat="38.7759550" lon="15.1647870">
        <ele>1.5800000</ele>
        <time>2013-06-11T08:04:43Z</time>
      </trkpt>
      <trkpt lat="38.7756500" lon="15.1645790">
        <ele>1.1000000</ele>
        <time>2013-06-11T08:05:00Z</time>
      </trkpt>
      <trkpt lat="38.7753640" lon="15.1643770">
        <ele>1.5800000</ele>
        <time>2013-06-11T08:05:16Z</time>
      </trkpt>
      <trkpt lat="38.7750660" lon="15.1641760">
        <ele>1.5800000</ele>
        <time>2013-06-11T08:05:32Z</time>
      </trkpt>
      <trkpt lat="38.7747730" lon="15.1639960">
        <ele>1.5800000</ele>
        <time>2013-06-11T08:05:49Z</time>
      </trkpt>
      <trkpt lat="38.7744520" lon="15.1637950">
        <ele>1.1000000</ele>
        <time>2013-06-11T08:06:06Z</time>
      </trkpt>
      <trkpt lat="38.7741620" lon="15.1636420">
        <ele>1.5800000</ele>
        <time>2013-06-11T08:06:22Z</time>
      </trkpt>
      <trkpt lat="38.7738610" lon="15.1634310">
        <ele>1.1000000</ele>
        <time>2013-06-11T08:06:39Z</time>
      </trkpt>
      <trkpt lat="38.7735520" lon="15.1632510">
        <ele>1.5800000</ele>
        <time>2013-06-11T08:06:54Z</time>
      </trkpt>
      <trkpt lat="38.7732390" lon="15.1630960">
        <ele>1.1000000</ele>
        <time>2013-06-11T08:07:09Z</time>
      </trkpt>
      <trkpt lat="38.7728690" lon="15.1628750">
        <ele>1.5800000</ele>
        <time>2013-06-11T08:07:29Z</time>
      </trkpt>
      <trkpt lat="38.7725870" lon="15.1626890">
        <ele>1.1000000</ele>
        <time>2013-06-11T08:07:46Z</time>
      </trkpt>
      <trkpt lat="38.7723730" lon="15.1625440">
        <ele>1.1000000</ele>
        <time>2013-06-11T08:07:59Z</time>
      </trkpt>
      <trkpt lat="38.7722740" lon="15.1624900">
        <ele>2.0600000</ele>
        <time>2013-06-11T08:08:04Z</time>
      </trkpt>
      <trkpt lat="38.7719420" lon="15.1622800">
        <ele>2.0600000</ele>
        <time>2013-06-11T08:08:22Z</time>
      </trkpt>
      <trkpt lat="38.7716480" lon="15.1620250">
        <ele>2.0600000</ele>
        <time>2013-06-11T08:08:38Z</time>
      </trkpt>
      <trkpt lat="38.7713510" lon="15.1617770">
        <ele>1.5800000</ele>
        <time>2013-06-11T08:08:53Z</time>
      </trkpt>
      <trkpt lat="38.7709580" lon="15.1614720">
        <ele>1.1000000</ele>
        <time>2013-06-11T08:09:13Z</time>
      </trkpt>
      <trkpt lat="38.7706340" lon="15.1612570">
        <ele>2.5400000</ele>
        <time>2013-06-11T08:09:31Z</time>
      </trkpt>
      <trkpt lat="38.7703630" lon="15.1611000">
        <ele>1.1000000</ele>
        <time>2013-06-11T08:09:45Z</time>
      </trkpt>
      <trkpt lat="38.7701150" lon="15.1608940">
        <ele>1.5800000</ele>
        <time>2013-06-11T08:10:01Z</time>
      </trkpt>
      <trkpt lat="38.7698590" lon="15.1607130">
        <ele>1.5800000</ele>
        <time>2013-06-11T08:10:17Z</time>
      </trkpt>
      <trkpt lat="38.7695240" lon="15.1605130">
        <ele>1.5800000</ele>
        <time>2013-06-11T08:10:35Z</time>
      </trkpt>
      <trkpt lat="38.7692760" lon="15.1603430">
        <ele>1.1000000</ele>
        <time>2013-06-11T08:10:48Z</time>
      </trkpt>
      <trkpt lat="38.7690050" lon="15.1601510">
        <ele>1.5800000</ele>
        <time>2013-06-11T08:11:03Z</time>
      </trkpt>
      <trkpt lat="38.7687300" lon="15.1599650">
        <ele>1.1000000</ele>
        <time>2013-06-11T08:11:18Z</time>
      </trkpt>
      <trkpt lat="38.7684210" lon="15.1597650">
        <ele>1.5800000</ele>
        <time>2013-06-11T08:11:35Z</time>
      </trkpt>
      <trkpt lat="38.7681010" lon="15.1595460">
        <ele>1.5800000</ele>
        <time>2013-06-11T08:11:52Z</time>
      </trkpt>
      <trkpt lat="38.7677880" lon="15.1593410">
        <ele>1.5800000</ele>
        <time>2013-06-11T08:12:07Z</time>
      </trkpt>
      <trkpt lat="38.7674600" lon="15.1590860">
        <ele>1.5800000</ele>
        <time>2013-06-11T08:12:24Z</time>
      </trkpt>
      <trkpt lat="38.7671360" lon="15.1588340">
        <ele>1.1000000</ele>
        <time>2013-06-11T08:12:41Z</time>
      </trkpt>
      <trkpt lat="38.7667660" lon="15.1585800">
        <ele>2.0600000</ele>
        <time>2013-06-11T08:12:59Z</time>
      </trkpt>
      <trkpt lat="38.7664410" lon="15.1583590">
        <ele>0.6200000</ele>
        <time>2013-06-11T08:13:14Z</time>
      </trkpt>
      <trkpt lat="38.7661060" lon="15.1581170">
        <ele>0.6200000</ele>
        <time>2013-06-11T08:13:30Z</time>
      </trkpt>
      <trkpt lat="38.7657620" lon="15.1578860">
        <ele>0.6200000</ele>
        <time>2013-06-11T08:13:47Z</time>
      </trkpt>
      <trkpt lat="38.7657200" lon="15.1578720">
        <ele>1.5800000</ele>
        <time>2013-06-11T08:13:49Z</time>
      </trkpt>
      <trkpt lat="38.7653810" lon="15.1576030">
        <ele>1.1000000</ele>
        <time>2013-06-11T08:14:07Z</time>
      </trkpt>
      <trkpt lat="38.7650720" lon="15.1573580">
        <ele>0.6200000</ele>
        <time>2013-06-11T08:14:24Z</time>
      </trkpt>
      <trkpt lat="38.7647440" lon="15.1571460">
        <ele>1.1000000</ele>
        <time>2013-06-11T08:14:40Z</time>
      </trkpt>
      <trkpt lat="38.7644200" lon="15.1569160">
        <ele>1.5800000</ele>
        <time>2013-06-11T08:14:56Z</time>
      </trkpt>
      <trkpt lat="38.7640040" lon="15.1566250">
        <ele>1.1000000</ele>
        <time>2013-06-11T08:15:14Z</time>
      </trkpt>
      <trkpt lat="38.7636530" lon="15.1563650">
        <ele>1.5800000</ele>
        <time>2013-06-11T08:15:29Z</time>
      </trkpt>
      <trkpt lat="38.7633090" lon="15.1560900">
        <ele>1.1000000</ele>
        <time>2013-06-11T08:15:45Z</time>
      </trkpt>
      <trkpt lat="38.7629240" lon="15.1557780">
        <ele>2.0600000</ele>
        <time>2013-06-11T08:16:04Z</time>
      </trkpt>
      <trkpt lat="38.7625770" lon="15.1555200">
        <ele>1.1000000</ele>
        <time>2013-06-11T08:16:21Z</time>
      </trkpt>
      <trkpt lat="38.7622800" lon="15.1552860">
        <ele>1.1000000</ele>
        <time>2013-06-11T08:16:35Z</time>
      </trkpt>
      <trkpt lat="38.7619360" lon="15.1550050">
        <ele>1.1000000</ele>
        <time>2013-06-11T08:16:52Z</time>
      </trkpt>
      <trkpt lat="38.7617380" lon="15.1548790">
        <ele>0.6200000</ele>
        <time>2013-06-11T08:17:02Z</time>
      </trkpt>
      <trkpt lat="38.7614480" lon="15.1546880">
        <ele>2.0600000</ele>
        <time>2013-06-11T08:17:17Z</time>
      </trkpt>
      <trkpt lat="38.7610930" lon="15.1544320">
        <ele>0.6200000</ele>
        <time>2013-06-11T08:17:34Z</time>
      </trkpt>
      <trkpt lat="38.7607570" lon="15.1541880">
        <ele>1.1000000</ele>
        <time>2013-06-11T08:17:51Z</time>
      </trkpt>
      <trkpt lat="38.7604060" lon="15.1539030">
        <ele>1.5800000</ele>
        <time>2013-06-11T08:18:09Z</time>
      </trkpt>
      <trkpt lat="38.7600590" lon="15.1536710">
        <ele>1.5800000</ele>
        <time>2013-06-11T08:18:27Z</time>
      </trkpt>
      <trkpt lat="38.7597470" lon="15.1534710">
        <ele>1.1000000</ele>
        <time>2013-06-11T08:18:44Z</time>
      </trkpt>
      <trkpt lat="38.7593840" lon="15.1531900">
        <ele>1.1000000</ele>
        <time>2013-06-11T08:19:03Z</time>
      </trkpt>
      <trkpt lat="38.7590410" lon="15.1529610">
        <ele>0.6200000</ele>
        <time>2013-06-11T08:19:21Z</time>
      </trkpt>
      <trkpt lat="38.7587130" lon="15.1527290">
        <ele>1.5800000</ele>
        <time>2013-06-11T08:19:37Z</time>
      </trkpt>
      <trkpt lat="38.7584000" lon="15.1524880">
        <ele>1.5800000</ele>
        <time>2013-06-11T08:19:53Z</time>
      </trkpt>
      <trkpt lat="38.7581330" lon="15.1522710">
        <ele>1.1000000</ele>
        <time>2013-06-11T08:20:08Z</time>
      </trkpt>
      <trkpt lat="38.7578430" lon="15.1520900">
        <ele>1.5800000</ele>
        <time>2013-06-11T08:20:24Z</time>
      </trkpt>
      <trkpt lat="38.7575720" lon="15.1518440">
        <ele>1.1000000</ele>
        <time>2013-06-11T08:20:41Z</time>
      </trkpt>
      <trkpt lat="38.7572710" lon="15.1516680">
        <ele>1.1000000</ele>
        <time>2013-06-11T08:20:58Z</time>
      </trkpt>
      <trkpt lat="38.7569850" lon="15.1514840">
        <ele>1.1000000</ele>
        <time>2013-06-11T08:21:14Z</time>
      </trkpt>
      <trkpt lat="38.7566990" lon="15.1513050">
        <ele>1.5800000</ele>
        <time>2013-06-11T08:21:30Z</time>
      </trkpt>
      <trkpt lat="38.7564200" lon="15.1510990">
        <ele>1.5800000</ele>
        <time>2013-06-11T08:21:47Z</time>
      </trkpt>
      <trkpt lat="38.7561300" lon="15.1509230">
        <ele>1.1000000</ele>
        <time>2013-06-11T08:22:04Z</time>
      </trkpt>
      <trkpt lat="38.7559510" lon="15.1508190">
        <ele>2.0600000</ele>
        <time>2013-06-11T08:22:14Z</time>
      </trkpt>
      <trkpt lat="38.7556610" lon="15.1506120">
        <ele>1.5800000</ele>
        <time>2013-06-11T08:22:30Z</time>
      </trkpt>
      <trkpt lat="38.7553480" lon="15.1503930">
        <ele>1.1000000</ele>
        <time>2013-06-11T08:22:47Z</time>
      </trkpt>
      <trkpt lat="38.7550620" lon="15.1501930">
        <ele>2.0600000</ele>
        <time>2013-06-11T08:23:02Z</time>
      </trkpt>
      <trkpt lat="38.7547260" lon="15.1499810">
        <ele>2.0600000</ele>
        <time>2013-06-11T08:23:19Z</time>
      </trkpt>
      <trkpt lat="38.7543750" lon="15.1497650">
        <ele>1.5800000</ele>
        <time>2013-06-11T08:23:38Z</time>
      </trkpt>
      <trkpt lat="38.7540970" lon="15.1496040">
        <ele>1.1000000</ele>
        <time>2013-06-11T08:23:54Z</time>
      </trkpt>
      <trkpt lat="38.7538030" lon="15.1494090">
        <ele>1.5800000</ele>
        <time>2013-06-11T08:24:11Z</time>
      </trkpt>
      <trkpt lat="38.7534520" lon="15.1491760">
        <ele>2.0600000</ele>
        <time>2013-06-11T08:24:30Z</time>
      </trkpt>
      <trkpt lat="38.7531280" lon="15.1488840">
        <ele>1.5800000</ele>
        <time>2013-06-11T08:24:48Z</time>
      </trkpt>
      <trkpt lat="38.7528230" lon="15.1487110">
        <ele>1.5800000</ele>
        <time>2013-06-11T08:25:03Z</time>
      </trkpt>
      <trkpt lat="38.7524530" lon="15.1484720">
        <ele>2.0600000</ele>
        <time>2013-06-11T08:25:22Z</time>
      </trkpt>
      <trkpt lat="38.7521630" lon="15.1482870">
        <ele>2.0600000</ele>
        <time>2013-06-11T08:25:38Z</time>
      </trkpt>
      <trkpt lat="38.7518620" lon="15.1481020">
        <ele>1.5800000</ele>
        <time>2013-06-11T08:25:55Z</time>
      </trkpt>
      <trkpt lat="38.7516020" lon="15.1479370">
        <ele>1.5800000</ele>
        <time>2013-06-11T08:26:11Z</time>
      </trkpt>
      <trkpt lat="38.7513850" lon="15.1477990">
        <ele>1.5800000</ele>
        <time>2013-06-11T08:26:26Z</time>
      </trkpt>
      <trkpt lat="38.7511600" lon="15.1476370">
        <ele>1.5800000</ele>
        <time>2013-06-11T08:26:41Z</time>
      </trkpt>
      <trkpt lat="38.7508810" lon="15.1474720">
        <ele>1.5800000</ele>
        <time>2013-06-11T08:26:59Z</time>
      </trkpt>
      <trkpt lat="38.7506830" lon="15.1472720">
        <ele>2.0600000</ele>
        <time>2013-06-11T08:27:15Z</time>
      </trkpt>
      <trkpt lat="38.7504270" lon="15.1471350">
        <ele>2.0600000</ele>
        <time>2013-06-11T08:27:32Z</time>
      </trkpt>
      <trkpt lat="38.7501950" lon="15.1469780">
        <ele>1.5800000</ele>
        <time>2013-06-11T08:27:48Z</time>
      </trkpt>
      <trkpt lat="38.7499890" lon="15.1468470">
        <ele>1.5800000</ele>
        <time>2013-06-11T08:28:03Z</time>
      </trkpt>
      <trkpt lat="38.7497480" lon="15.1467000">
        <ele>2.0600000</ele>
        <time>2013-06-11T08:28:20Z</time>
      </trkpt>
      <trkpt lat="38.7495310" lon="15.1465440">
        <ele>2.5400000</ele>
        <time>2013-06-11T08:28:35Z</time>
      </trkpt>
      <trkpt lat="38.7493170" lon="15.1463630">
        <ele>2.5400000</ele>
        <time>2013-06-11T08:28:50Z</time>
      </trkpt>
      <trkpt lat="38.7491230" lon="15.1461820">
        <ele>2.0600000</ele>
        <time>2013-06-11T08:29:03Z</time>
      </trkpt>
      <trkpt lat="38.7488370" lon="15.1459670">
        <ele>2.0600000</ele>
        <time>2013-06-11T08:29:21Z</time>
      </trkpt>
      <trkpt lat="38.7485470" lon="15.1457360">
        <ele>1.5800000</ele>
        <time>2013-06-11T08:29:38Z</time>
      </trkpt>
      <trkpt lat="38.7482380" lon="15.1455640">
        <ele>1.5800000</ele>
        <time>2013-06-11T08:29:55Z</time>
      </trkpt>
      <trkpt lat="38.7479820" lon="15.1453540">
        <ele>1.5800000</ele>
        <time>2013-06-11T08:30:12Z</time>
      </trkpt>
      <trkpt lat="38.7477490" lon="15.1452020">
        <ele>2.5400000</ele>
        <time>2013-06-11T08:30:27Z</time>
      </trkpt>
      <trkpt lat="38.7475240" lon="15.1450330">
        <ele>2.5400000</ele>
        <time>2013-06-11T08:30:42Z</time>
      </trkpt>
      <trkpt lat="38.7472800" lon="15.1448650">
        <ele>1.5800000</ele>
        <time>2013-06-11T08:30:59Z</time>
      </trkpt>
      <trkpt lat="38.7470630" lon="15.1447100">
        <ele>2.0600000</ele>
        <time>2013-06-11T08:31:15Z</time>
      </trkpt>
      <trkpt lat="38.7468720" lon="15.1445670">
        <ele>2.5400000</ele>
        <time>2013-06-11T08:31:30Z</time>
      </trkpt>
      <trkpt lat="38.7467190" lon="15.1444590">
        <ele>1.5800000</ele>
        <time>2013-06-11T08:31:41Z</time>
      </trkpt>
      <trkpt lat="38.7464790" lon="15.1442710">
        <ele>1.5800000</ele>
        <time>2013-06-11T08:31:59Z</time>
      </trkpt>
      <trkpt lat="38.7462270" lon="15.1440800">
        <ele>1.5800000</ele>
        <time>2013-06-11T08:32:16Z</time>
      </trkpt>
      <trkpt lat="38.7459410" lon="15.1439440">
        <ele>2.0600000</ele>
        <time>2013-06-11T08:32:32Z</time>
      </trkpt>
      <trkpt lat="38.7456550" lon="15.1437670">
        <ele>1.5800000</ele>
        <time>2013-06-11T08:32:48Z</time>
      </trkpt>
      <trkpt lat="38.7453730" lon="15.1435680">
        <ele>2.0600000</ele>
        <time>2013-06-11T08:33:04Z</time>
      </trkpt>
      <trkpt lat="38.7451100" lon="15.1433730">
        <ele>2.0600000</ele>
        <time>2013-06-11T08:33:19Z</time>
      </trkpt>
      <trkpt lat="38.7448080" lon="15.1431950">
        <ele>1.5800000</ele>
        <time>2013-06-11T08:33:36Z</time>
      </trkpt>
      <trkpt lat="38.7444990" lon="15.1429880">
        <ele>2.5400000</ele>
        <time>2013-06-11T08:33:53Z</time>
      </trkpt>
      <trkpt lat="38.7442020" lon="15.1428140">
        <ele>1.5800000</ele>
        <time>2013-06-11T08:34:09Z</time>
      </trkpt>
      <trkpt lat="38.7439190" lon="15.1426260">
        <ele>2.5400000</ele>
        <time>2013-06-11T08:34:26Z</time>
      </trkpt>
      <trkpt lat="38.7436600" lon="15.1424400">
        <ele>2.0600000</ele>
        <time>2013-06-11T08:34:42Z</time>
      </trkpt>
      <trkpt lat="38.7433700" lon="15.1422560">
        <ele>2.0600000</ele>
        <time>2013-06-11T08:34:59Z</time>
      </trkpt>
      <trkpt lat="38.7431140" lon="15.1420640">
        <ele>2.0600000</ele>
        <time>2013-06-11T08:35:15Z</time>
      </trkpt>
      <trkpt lat="38.7430380" lon="15.1419930">
        <ele>2.5400000</ele>
        <time>2013-06-11T08:35:20Z</time>
      </trkpt>
      <trkpt lat="38.7427640" lon="15.1417860">
        <ele>2.0600000</ele>
        <time>2013-06-11T08:35:36Z</time>
      </trkpt>
      <trkpt lat="38.7424240" lon="15.1415290">
        <ele>1.5800000</ele>
        <time>2013-06-11T08:35:54Z</time>
      </trkpt>
      <trkpt lat="38.7420960" lon="15.1412810">
        <ele>2.0600000</ele>
        <time>2013-06-11T08:36:11Z</time>
      </trkpt>
      <trkpt lat="38.7417910" lon="15.1410590">
        <ele>2.0600000</ele>
        <time>2013-06-11T08:36:26Z</time>
      </trkpt>
      <trkpt lat="38.7414550" lon="15.1408170">
        <ele>2.0600000</ele>
        <time>2013-06-11T08:36:43Z</time>
      </trkpt>
      <trkpt lat="38.7411160" lon="15.1405590">
        <ele>2.0600000</ele>
        <time>2013-06-11T08:37:01Z</time>
      </trkpt>
      <trkpt lat="38.7408260" lon="15.1403170">
        <ele>2.0600000</ele>
        <time>2013-06-11T08:37:18Z</time>
      </trkpt>
      <trkpt lat="38.7404900" lon="15.1400860">
        <ele>2.0600000</ele>
        <time>2013-06-11T08:37:35Z</time>
      </trkpt>
      <trkpt lat="38.7401960" lon="15.1398650">
        <ele>2.0600000</ele>
        <time>2013-06-11T08:37:51Z</time>
      </trkpt>
      <trkpt lat="38.7398990" lon="15.1396680">
        <ele>2.0600000</ele>
        <time>2013-06-11T08:38:07Z</time>
      </trkpt>
      <trkpt lat="38.7395210" lon="15.1394530">
        <ele>1.1000000</ele>
        <time>2013-06-11T08:38:27Z</time>
      </trkpt>
      <trkpt lat="38.7394640" lon="15.1394210">
        <ele>2.5400000</ele>
        <time>2013-06-11T08:38:30Z</time>
      </trkpt>
      <trkpt lat="38.7391660" lon="15.1391480">
        <ele>2.0600000</ele>
        <time>2013-06-11T08:38:48Z</time>
      </trkpt>
      <trkpt lat="38.7388840" lon="15.1389060">
        <ele>2.5400000</ele>
        <time>2013-06-11T08:39:05Z</time>
      </trkpt>
      <trkpt lat="38.7386170" lon="15.1387400">
        <ele>2.0600000</ele>
        <time>2013-06-11T08:39:20Z</time>
      </trkpt>
      <trkpt lat="38.7383080" lon="15.1384900">
        <ele>2.5400000</ele>
        <time>2013-06-11T08:39:37Z</time>
      </trkpt>
      <trkpt lat="38.7379800" lon="15.1382650">
        <ele>2.5400000</ele>
        <time>2013-06-11T08:39:55Z</time>
      </trkpt>
      <trkpt lat="38.7377200" lon="15.1380590">
        <ele>2.5400000</ele>
        <time>2013-06-11T08:40:10Z</time>
      </trkpt>
      <trkpt lat="38.7374650" lon="15.1378790">
        <ele>3.0200000</ele>
        <time>2013-06-11T08:40:24Z</time>
      </trkpt>
      <trkpt lat="38.7371830" lon="15.1376380">
        <ele>2.5400000</ele>
        <time>2013-06-11T08:40:41Z</time>
      </trkpt>
      <trkpt lat="38.7368850" lon="15.1374120">
        <ele>2.0600000</ele>
        <time>2013-06-11T08:40:58Z</time>
      </trkpt>
      <trkpt lat="38.7366140" lon="15.1371720">
        <ele>2.5400000</ele>
        <time>2013-06-11T08:41:14Z</time>
      </trkpt>
      <trkpt lat="38.7363700" lon="15.1369560">
        <ele>3.0200000</ele>
        <time>2013-06-11T08:41:30Z</time>
      </trkpt>
      <trkpt lat="38.7360760" lon="15.1367200">
        <ele>3.5000000</ele>
        <time>2013-06-11T08:41:49Z</time>
      </trkpt>
      <trkpt lat="38.7358060" lon="15.1364910">
        <ele>3.0200000</ele>
        <time>2013-06-11T08:42:06Z</time>
      </trkpt>
      <trkpt lat="38.7355690" lon="15.1363040">
        <ele>3.0200000</ele>
        <time>2013-06-11T08:42:22Z</time>
      </trkpt>
      <trkpt lat="38.7352910" lon="15.1361090">
        <ele>3.0200000</ele>
        <time>2013-06-11T08:42:39Z</time>
      </trkpt>
      <trkpt lat="38.7350010" lon="15.1358950">
        <ele>3.0200000</ele>
        <time>2013-06-11T08:42:57Z</time>
      </trkpt>
      <trkpt lat="38.7348020" lon="15.1357280">
        <ele>3.0200000</ele>
        <time>2013-06-11T08:43:11Z</time>
      </trkpt>
      <trkpt lat="38.7345310" lon="15.1355260">
        <ele>3.5000000</ele>
        <time>2013-06-11T08:43:28Z</time>
      </trkpt>
      <trkpt lat="38.7342570" lon="15.1353310">
        <ele>3.5000000</ele>
        <time>2013-06-11T08:43:46Z</time>
      </trkpt>
      <trkpt lat="38.7339970" lon="15.1351090">
        <ele>3.9800000</ele>
        <time>2013-06-11T08:44:03Z</time>
      </trkpt>
      <trkpt lat="38.7337110" lon="15.1349010">
        <ele>3.9800000</ele>
        <time>2013-06-11T08:44:19Z</time>
      </trkpt>
      <trkpt lat="38.7334400" lon="15.1347030">
        <ele>3.5000000</ele>
        <time>2013-06-11T08:44:34Z</time>
      </trkpt>
      <trkpt lat="38.7331540" lon="15.1344850">
        <ele>3.5000000</ele>
        <time>2013-06-11T08:44:50Z</time>
      </trkpt>
      <trkpt lat="38.7328610" lon="15.1342670">
        <ele>3.5000000</ele>
        <time>2013-06-11T08:45:07Z</time>
      </trkpt>
      <trkpt lat="38.7325590" lon="15.1340620">
        <ele>3.5000000</ele>
        <time>2013-06-11T08:45:23Z</time>
      </trkpt>
      <trkpt lat="38.7322390" lon="15.1337900">
        <ele>3.0200000</ele>
        <time>2013-06-11T08:45:41Z</time>
      </trkpt>
      <trkpt lat="38.7318880" lon="15.1335540">
        <ele>3.9800000</ele>
        <time>2013-06-11T08:45:59Z</time>
      </trkpt>
      <trkpt lat="38.7315670" lon="15.1332610">
        <ele>3.9800000</ele>
        <time>2013-06-11T08:46:18Z</time>
      </trkpt>
      <trkpt lat="38.7313160" lon="15.1330290">
        <ele>3.0200000</ele>
        <time>2013-06-11T08:46:33Z</time>
      </trkpt>
      <trkpt lat="38.7310410" lon="15.1328120">
        <ele>3.9800000</ele>
        <time>2013-06-11T08:46:49Z</time>
      </trkpt>
      <trkpt lat="38.7307470" lon="15.1325330">
        <ele>3.9800000</ele>
        <time>2013-06-11T08:47:06Z</time>
      </trkpt>
      <trkpt lat="38.7304340" lon="15.1322820">
        <ele>3.5000000</ele>
        <time>2013-06-11T08:47:24Z</time>
      </trkpt>
      <trkpt lat="38.7301250" lon="15.1320230">
        <ele>3.9800000</ele>
        <time>2013-06-11T08:47:42Z</time>
      </trkpt>
      <trkpt lat="38.7297970" lon="15.1317320">
        <ele>3.9800000</ele>
        <time>2013-06-11T08:48:02Z</time>
      </trkpt>
      <trkpt lat="38.7295460" lon="15.1315320">
        <ele>3.9800000</ele>
        <time>2013-06-11T08:48:16Z</time>
      </trkpt>
      <trkpt lat="38.7292480" lon="15.1312880">
        <ele>3.0200000</ele>
        <time>2013-06-11T08:48:33Z</time>
      </trkpt>
      <trkpt lat="38.7289730" lon="15.1310640">
        <ele>3.5000000</ele>
        <time>2013-06-11T08:48:49Z</time>
      </trkpt>
      <trkpt lat="38.7286720" lon="15.1308140">
        <ele>3.5000000</ele>
        <time>2013-06-11T08:49:07Z</time>
      </trkpt>
      <trkpt lat="38.7283780" lon="15.1305710">
        <ele>3.9800000</ele>
        <time>2013-06-11T08:49:23Z</time>
      </trkpt>
      <trkpt lat="38.7280390" lon="15.1302590">
        <ele>3.9800000</ele>
        <time>2013-06-11T08:49:41Z</time>
      </trkpt>
      <trkpt lat="38.7277370" lon="15.1299890">
        <ele>3.0200000</ele>
        <time>2013-06-11T08:49:58Z</time>
      </trkpt>
      <trkpt lat="38.7274130" lon="15.1297050">
        <ele>3.5000000</ele>
        <time>2013-06-11T08:50:16Z</time>
      </trkpt>
      <trkpt lat="38.7271230" lon="15.1294820">
        <ele>3.9800000</ele>
        <time>2013-06-11T08:50:31Z</time>
      </trkpt>
      <trkpt lat="38.7268180" lon="15.1292460">
        <ele>3.5000000</ele>
        <time>2013-06-11T08:50:48Z</time>
      </trkpt>
      <trkpt lat="38.7265320" lon="15.1290080">
        <ele>3.9800000</ele>
        <time>2013-06-11T08:51:04Z</time>
      </trkpt>
      <trkpt lat="38.7262920" lon="15.1288190">
        <ele>4.4600000</ele>
        <time>2013-06-11T08:51:18Z</time>
      </trkpt>
      <trkpt lat="38.7262760" lon="15.1288080">
        <ele>4.4600000</ele>
        <time>2013-06-11T08:51:19Z</time>
      </trkpt>
      <trkpt lat="38.7259560" lon="15.1285910">
        <ele>3.9800000</ele>
        <time>2013-06-11T08:51:35Z</time>
      </trkpt>
      <trkpt lat="38.7256240" lon="15.1283510">
        <ele>3.9800000</ele>
        <time>2013-06-11T08:51:52Z</time>
      </trkpt>
      <trkpt lat="38.7253270" lon="15.1280910">
        <ele>3.5000000</ele>
        <time>2013-06-11T08:52:08Z</time>
      </trkpt>
      <trkpt lat="38.7249830" lon="15.1277910">
        <ele>3.5000000</ele>
        <time>2013-06-11T08:52:26Z</time>
      </trkpt>
      <trkpt lat="38.7248610" lon="15.1276840">
        <ele>3.0200000</ele>
        <time>2013-06-11T08:52:33Z</time>
      </trkpt>
      <trkpt lat="38.7245060" lon="15.1273570">
        <ele>4.4600000</ele>
        <time>2013-06-11T08:52:52Z</time>
      </trkpt>
      <trkpt lat="38.7241520" lon="15.1270570">
        <ele>3.9800000</ele>
        <time>2013-06-11T08:53:10Z</time>
      </trkpt>
      <trkpt lat="38.7238350" lon="15.1268140">
        <ele>3.9800000</ele>
        <time>2013-06-11T08:53:25Z</time>
      </trkpt>
      <trkpt lat="38.7235220" lon="15.1265880">
        <ele>3.9800000</ele>
        <time>2013-06-11T08:53:40Z</time>
      </trkpt>
      <trkpt lat="38.7231860" lon="15.1263100">
        <ele>4.4600000</ele>
        <time>2013-06-11T08:53:58Z</time>
      </trkpt>
      <trkpt lat="38.7228890" lon="15.1260310">
        <ele>3.5000000</ele>
        <time>2013-06-11T08:54:14Z</time>
      </trkpt>
      <trkpt lat="38.7225990" lon="15.1257680">
        <ele>4.4600000</ele>
        <time>2013-06-11T08:54:31Z</time>
      </trkpt>
      <trkpt lat="38.7222820" lon="15.1254750">
        <ele>3.5000000</ele>
        <time>2013-06-11T08:54:49Z</time>
      </trkpt>
      <trkpt lat="38.7219960" lon="15.1252500">
        <ele>3.5000000</ele>
        <time>2013-06-11T08:55:05Z</time>
      </trkpt>
      <trkpt lat="38.7217030" lon="15.1249940">
        <ele>3.5000000</ele>
        <time>2013-06-11T08:55:21Z</time>
      </trkpt>
      <trkpt lat="38.7214240" lon="15.1247480">
        <ele>3.5000000</ele>
        <time>2013-06-11T08:55:36Z</time>
      </trkpt>
      <trkpt lat="38.7211000" lon="15.1244860">
        <ele>3.9800000</ele>
        <time>2013-06-11T08:55:53Z</time>
      </trkpt>
      <trkpt lat="38.7207910" lon="15.1242020">
        <ele>3.5000000</ele>
        <time>2013-06-11T08:56:09Z</time>
      </trkpt>
      <trkpt lat="38.7204550" lon="15.1239400">
        <ele>3.5000000</ele>
        <time>2013-06-11T08:56:26Z</time>
      </trkpt>
      <trkpt lat="38.7201460" lon="15.1236990">
        <ele>3.9800000</ele>
        <time>2013-06-11T08:56:41Z</time>
      </trkpt>
      <trkpt lat="38.7198180" lon="15.1234250">
        <ele>3.5000000</ele>
        <time>2013-06-11T08:56:58Z</time>
      </trkpt>
      <trkpt lat="38.7194860" lon="15.1231530">
        <ele>3.9800000</ele>
        <time>2013-06-11T08:57:15Z</time>
      </trkpt>
      <trkpt lat="38.7191430" lon="15.1228530">
        <ele>4.4600000</ele>
        <time>2013-06-11T08:57:34Z</time>
      </trkpt>
      <trkpt lat="38.7188640" lon="15.1226380">
        <ele>3.0200000</ele>
        <time>2013-06-11T08:57:50Z</time>
      </trkpt>
      <trkpt lat="38.7188490" lon="15.1226280">
        <ele>3.0200000</ele>
        <time>2013-06-11T08:57:51Z</time>
      </trkpt>
      <trkpt lat="38.7187960" lon="15.1226070">
        <ele>4.4600000</ele>
        <time>2013-06-11T08:57:54Z</time>
      </trkpt>
      <trkpt lat="38.7185170" lon="15.1223750">
        <ele>3.9800000</ele>
        <time>2013-06-11T08:58:09Z</time>
      </trkpt>
      <trkpt lat="38.7182690" lon="15.1221150">
        <ele>3.0200000</ele>
        <time>2013-06-11T08:58:24Z</time>
      </trkpt>
      <trkpt lat="38.7179720" lon="15.1218510">
        <ele>3.9800000</ele>
        <time>2013-06-11T08:58:40Z</time>
      </trkpt>
      <trkpt lat="38.7176510" lon="15.1215860">
        <ele>3.9800000</ele>
        <time>2013-06-11T08:58:56Z</time>
      </trkpt>
      <trkpt lat="38.7173730" lon="15.1213480">
        <ele>3.5000000</ele>
        <time>2013-06-11T08:59:12Z</time>
      </trkpt>
      <trkpt lat="38.7170490" lon="15.1210670">
        <ele>4.4600000</ele>
        <time>2013-06-11T08:59:29Z</time>
      </trkpt>
      <trkpt lat="38.7166940" lon="15.1207790">
        <ele>4.4600000</ele>
        <time>2013-06-11T08:59:47Z</time>
      </trkpt>
      <trkpt lat="38.7163430" lon="15.1204850">
        <ele>3.9800000</ele>
        <time>2013-06-11T09:00:05Z</time>
      </trkpt>
      <trkpt lat="38.7159580" lon="15.1201560">
        <ele>4.4600000</ele>
        <time>2013-06-11T09:00:24Z</time>
      </trkpt>
      <trkpt lat="38.7156140" lon="15.1198980">
        <ele>3.9800000</ele>
        <time>2013-06-11T09:00:39Z</time>
      </trkpt>
      <trkpt lat="38.7152480" lon="15.1196020">
        <ele>3.9800000</ele>
        <time>2013-06-11T09:00:55Z</time>
      </trkpt>
      <trkpt lat="38.7148510" lon="15.1192190">
        <ele>3.9800000</ele>
        <time>2013-06-11T09:01:13Z</time>
      </trkpt>
      <trkpt lat="38.7145200" lon="15.1189430">
        <ele>3.9800000</ele>
        <time>2013-06-11T09:01:28Z</time>
      </trkpt>
      <trkpt lat="38.7141300" lon="15.1186170">
        <ele>3.9800000</ele>
        <time>2013-06-11T09:01:46Z</time>
      </trkpt>
      <trkpt lat="38.7137450" lon="15.1183070">
        <ele>3.9800000</ele>
        <time>2013-06-11T09:02:04Z</time>
      </trkpt>
      <trkpt lat="38.7133520" lon="15.1179480">
        <ele>3.5000000</ele>
        <time>2013-06-11T09:02:22Z</time>
      </trkpt>
      <trkpt lat="38.7130550" lon="15.1177020">
        <ele>3.9800000</ele>
        <time>2013-06-11T09:02:37Z</time>
      </trkpt>
      <trkpt lat="38.7127690" lon="15.1174350">
        <ele>3.9800000</ele>
        <time>2013-06-11T09:02:53Z</time>
      </trkpt>
      <trkpt lat="38.7124560" lon="15.1172070">
        <ele>3.5000000</ele>
        <time>2013-06-11T09:03:09Z</time>
      </trkpt>
      <trkpt lat="38.7121120" lon="15.1169270">
        <ele>3.9800000</ele>
        <time>2013-06-11T09:03:26Z</time>
      </trkpt>
      <trkpt lat="38.7117920" lon="15.1166320">
        <ele>3.5000000</ele>
        <time>2013-06-11T09:03:43Z</time>
      </trkpt>
      <trkpt lat="38.7114830" lon="15.1163870">
        <ele>3.5000000</ele>
        <time>2013-06-11T09:04:00Z</time>
      </trkpt>
      <trkpt lat="38.7111280" lon="15.1160840">
        <ele>3.9800000</ele>
        <time>2013-06-11T09:04:20Z</time>
      </trkpt>
      <trkpt lat="38.7108690" lon="15.1158400">
        <ele>3.9800000</ele>
        <time>2013-06-11T09:04:36Z</time>
      </trkpt>
      <trkpt lat="38.7105830" lon="15.1156170">
        <ele>4.4600000</ele>
        <time>2013-06-11T09:04:51Z</time>
      </trkpt>
      <trkpt lat="38.7102850" lon="15.1153460">
        <ele>3.9800000</ele>
        <time>2013-06-11T09:05:07Z</time>
      </trkpt>
      <trkpt lat="38.7099490" lon="15.1150810">
        <ele>3.9800000</ele>
        <time>2013-06-11T09:05:24Z</time>
      </trkpt>
      <trkpt lat="38.7096100" lon="15.1148170">
        <ele>3.9800000</ele>
        <time>2013-06-11T09:05:39Z</time>
      </trkpt>
      <trkpt lat="38.7092860" lon="15.1145120">
        <ele>3.5000000</ele>
        <time>2013-06-11T09:05:55Z</time>
      </trkpt>
      <trkpt lat="38.7089920" lon="15.1142830">
        <ele>3.5000000</ele>
        <time>2013-06-11T09:06:10Z</time>
      </trkpt>
      <trkpt lat="38.7086910" lon="15.1140720">
        <ele>3.9800000</ele>
        <time>2013-06-11T09:06:25Z</time>
      </trkpt>
      <trkpt lat="38.7083820" lon="15.1137970">
        <ele>4.4600000</ele>
        <time>2013-06-11T09:06:41Z</time>
      </trkpt>
      <trkpt lat="38.7080920" lon="15.1135390">
        <ele>3.9800000</ele>
        <time>2013-06-11T09:06:58Z</time>
      </trkpt>
      <trkpt lat="38.7077900" lon="15.1132720">
        <ele>3.5000000</ele>
        <time>2013-06-11T09:07:15Z</time>
      </trkpt>
      <trkpt lat="38.7075420" lon="15.1130560">
        <ele>3.5000000</ele>
        <time>2013-06-11T09:07:30Z</time>
      </trkpt>
      <trkpt lat="38.7072140" lon="15.1127900">
        <ele>3.9800000</ele>
        <time>2013-06-11T09:07:48Z</time>
      </trkpt>
      <trkpt lat="38.7069440" lon="15.1125770">
        <ele>4.4600000</ele>
        <time>2013-06-11T09:08:02Z</time>
      </trkpt>
      <trkpt lat="38.7065850" lon="15.1122420">
        <ele>4.4600000</ele>
        <time>2013-06-11T09:08:18Z</time>
      </trkpt>
      <trkpt lat="38.7062230" lon="15.1119170">
        <ele>4.4600000</ele>
        <time>2013-06-11T09:08:36Z</time>
      </trkpt>
      <trkpt lat="38.7059100" lon="15.1116210">
        <ele>3.5000000</ele>
        <time>2013-06-11T09:08:54Z</time>
      </trkpt>
      <trkpt lat="38.7056010" lon="15.1113780">
        <ele>4.4600000</ele>
        <time>2013-06-11T09:09:11Z</time>
      </trkpt>
      <trkpt lat="38.7053300" lon="15.1110940">
        <ele>3.9800000</ele>
        <time>2013-06-11T09:09:28Z</time>
      </trkpt>
      <trkpt lat="38.7052990" lon="15.1110680">
        <ele>3.5000000</ele>
        <time>2013-06-11T09:09:30Z</time>
      </trkpt>
      <trkpt lat="38.7050360" lon="15.1108800">
        <ele>3.0200000</ele>
        <time>2013-06-11T09:09:45Z</time>
      </trkpt>
      <trkpt lat="38.7047200" lon="15.1106190">
        <ele>3.9800000</ele>
        <time>2013-06-11T09:10:03Z</time>
      </trkpt>
      <trkpt lat="38.7044180" lon="15.1104060">
        <ele>3.9800000</ele>
        <time>2013-06-11T09:10:19Z</time>
      </trkpt>
      <trkpt lat="38.7040940" lon="15.1101380">
        <ele>4.4600000</ele>
        <time>2013-06-11T09:10:36Z</time>
      </trkpt>
      <trkpt lat="38.7036360" lon="15.1097560">
        <ele>3.9800000</ele>
        <time>2013-06-11T09:10:56Z</time>
      </trkpt>
      <trkpt lat="38.7032620" lon="15.1094160">
        <ele>4.4600000</ele>
        <time>2013-06-11T09:11:13Z</time>
      </trkpt>
      <trkpt lat="38.7029150" lon="15.1090800">
        <ele>3.9800000</ele>
        <time>2013-06-11T09:11:31Z</time>
      </trkpt>
      <trkpt lat="38.7026210" lon="15.1088310">
        <ele>3.5000000</ele>
        <time>2013-06-11T09:11:47Z</time>
      </trkpt>
      <trkpt lat="38.7023160" lon="15.1086110">
        <ele>4.4600000</ele>
        <time>2013-06-11T09:12:02Z</time>
      </trkpt>
      <trkpt lat="38.7019730" lon="15.1082830">
        <ele>4.4600000</ele>
        <time>2013-06-11T09:12:19Z</time>
      </trkpt>
      <trkpt lat="38.7016220" lon="15.1079990">
        <ele>3.9800000</ele>
        <time>2013-06-11T09:12:36Z</time>
      </trkpt>
      <trkpt lat="38.7013320" lon="15.1077310">
        <ele>3.9800000</ele>
        <time>2013-06-11T09:12:52Z</time>
      </trkpt>
      <trkpt lat="38.7010270" lon="15.1075020">
        <ele>3.5000000</ele>
        <time>2013-06-11T09:13:07Z</time>
      </trkpt>
      <trkpt lat="38.7006990" lon="15.1071950">
        <ele>3.5000000</ele>
        <time>2013-06-11T09:13:23Z</time>
      </trkpt>
      <trkpt lat="38.7004010" lon="15.1068540">
        <ele>3.9800000</ele>
        <time>2013-06-11T09:13:40Z</time>
      </trkpt>
      <trkpt lat="38.7001230" lon="15.1066440">
        <ele>4.4600000</ele>
        <time>2013-06-11T09:13:55Z</time>
      </trkpt>
      <trkpt lat="38.6997640" lon="15.1063770">
        <ele>3.5000000</ele>
        <time>2013-06-11T09:14:13Z</time>
      </trkpt>
      <trkpt lat="38.6994170" lon="15.1060570">
        <ele>3.9800000</ele>
        <time>2013-06-11T09:14:31Z</time>
      </trkpt>
      <trkpt lat="38.6991040" lon="15.1058100">
        <ele>3.5000000</ele>
        <time>2013-06-11T09:14:48Z</time>
      </trkpt>
      <trkpt lat="38.6989060" lon="15.1056580">
        <ele>3.0200000</ele>
        <time>2013-06-11T09:14:59Z</time>
      </trkpt>
      <trkpt lat="38.6985820" lon="15.1054070">
        <ele>3.9800000</ele>
        <time>2013-06-11T09:15:16Z</time>
      </trkpt>
      <trkpt lat="38.6982120" lon="15.1051020">
        <ele>3.5000000</ele>
        <time>2013-06-11T09:15:36Z</time>
      </trkpt>
      <trkpt lat="38.6978680" lon="15.1048540">
        <ele>3.9800000</ele>
        <time>2013-06-11T09:15:54Z</time>
      </trkpt>
      <trkpt lat="38.6975520" lon="15.1046020">
        <ele>4.4600000</ele>
        <time>2013-06-11T09:16:12Z</time>
      </trkpt>
      <trkpt lat="38.6972470" lon="15.1043780">
        <ele>3.5000000</ele>
        <time>2013-06-11T09:16:27Z</time>
      </trkpt>
      <trkpt lat="38.6970330" lon="15.1041700">
        <ele>3.9800000</ele>
        <time>2013-06-11T09:16:38Z</time>
      </trkpt>
      <trkpt lat="38.6966550" lon="15.1039240">
        <ele>4.4600000</ele>
        <time>2013-06-11T09:16:55Z</time>
      </trkpt>
      <trkpt lat="38.6963460" lon="15.1036390">
        <ele>4.4600000</ele>
        <time>2013-06-11T09:17:11Z</time>
      </trkpt>
      <trkpt lat="38.6960110" lon="15.1033550">
        <ele>4.4600000</ele>
        <time>2013-06-11T09:17:27Z</time>
      </trkpt>
      <trkpt lat="38.6956710" lon="15.1030780">
        <ele>4.4600000</ele>
        <time>2013-06-11T09:17:42Z</time>
      </trkpt>
      <trkpt lat="38.6953770" lon="15.1028600">
        <ele>4.9400000</ele>
        <time>2013-06-11T09:17:56Z</time>
      </trkpt>
      <trkpt lat="38.6951100" lon="15.1026120">
        <ele>4.9400000</ele>
        <time>2013-06-11T09:18:09Z</time>
      </trkpt>
      <trkpt lat="38.6947780" lon="15.1022920">
        <ele>4.4600000</ele>
        <time>2013-06-11T09:18:25Z</time>
      </trkpt>
      <trkpt lat="38.6944390" lon="15.1020070">
        <ele>4.9400000</ele>
        <time>2013-06-11T09:18:41Z</time>
      </trkpt>
      <trkpt lat="38.6940730" lon="15.1017020">
        <ele>3.9800000</ele>
        <time>2013-06-11T09:18:58Z</time>
      </trkpt>
      <trkpt lat="38.6937220" lon="15.1014280">
        <ele>3.9800000</ele>
        <time>2013-06-11T09:19:14Z</time>
      </trkpt>
      <trkpt lat="38.6934360" lon="15.1011820">
        <ele>3.9800000</ele>
        <time>2013-06-11T09:19:28Z</time>
      </trkpt>
      <trkpt lat="38.6931610" lon="15.1009390">
        <ele>3.5000000</ele>
        <time>2013-06-11T09:19:43Z</time>
      </trkpt>
      <trkpt lat="38.6929050" lon="15.1006690">
        <ele>3.9800000</ele>
        <time>2013-06-11T09:19:58Z</time>
      </trkpt>
      <trkpt lat="38.6926540" lon="15.1004780">
        <ele>4.4600000</ele>
        <time>2013-06-11T09:20:12Z</time>
      </trkpt>
      <trkpt lat="38.6923410" lon="15.1002230">
        <ele>4.4600000</ele>
        <time>2013-06-11T09:20:28Z</time>
      </trkpt>
      <trkpt lat="38.6920280" lon="15.0999800">
        <ele>3.9800000</ele>
        <time>2013-06-11T09:20:42Z</time>
      </trkpt>
      <trkpt lat="38.6916470" lon="15.0996600">
        <ele>4.4600000</ele>
        <time>2013-06-11T09:20:58Z</time>
      </trkpt>
      <trkpt lat="38.6913600" lon="15.0994090">
        <ele>4.4600000</ele>
        <time>2013-06-11T09:21:11Z</time>
      </trkpt>
      <trkpt lat="38.6910360" lon="15.0991010">
        <ele>4.4600000</ele>
        <time>2013-06-11T09:21:26Z</time>
      </trkpt>
      <trkpt lat="38.6906590" lon="15.0987630">
        <ele>4.9400000</ele>
        <time>2013-06-11T09:21:42Z</time>
      </trkpt>
      <trkpt lat="38.6902470" lon="15.0983120">
        <ele>4.4600000</ele>
        <time>2013-06-11T09:22:00Z</time>
      </trkpt>
      <trkpt lat="38.6899380" lon="15.0980160">
        <ele>4.9400000</ele>
        <time>2013-06-11T09:22:14Z</time>
      </trkpt>
      <trkpt lat="38.6895980" lon="15.0977370">
        <ele>4.9400000</ele>
        <time>2013-06-11T09:22:28Z</time>
      </trkpt>
      <trkpt lat="38.6892970" lon="15.0975060">
        <ele>4.4600000</ele>
        <time>2013-06-11T09:22:40Z</time>
      </trkpt>
      <trkpt lat="38.6889270" lon="15.0971640">
        <ele>3.9800000</ele>
        <time>2013-06-11T09:22:57Z</time>
      </trkpt>
      <trkpt lat="38.6886480" lon="15.0968730">
        <ele>4.4600000</ele>
        <time>2013-06-11T09:23:11Z</time>
      </trkpt>
      <trkpt lat="38.6883090" lon="15.0965020">
        <ele>3.9800000</ele>
        <time>2013-06-11T09:23:28Z</time>
      </trkpt>
      <trkpt lat="38.6880380" lon="15.0961970">
        <ele>4.4600000</ele>
        <time>2013-06-11T09:23:43Z</time>
      </trkpt>
      <trkpt lat="38.6877440" lon="15.0958660">
        <ele>4.4600000</ele>
        <time>2013-06-11T09:23:59Z</time>
      </trkpt>
      <trkpt lat="38.6875270" lon="15.0955840">
        <ele>4.4600000</ele>
        <time>2013-06-11T09:24:12Z</time>
      </trkpt>
      <trkpt lat="38.6872900" lon="15.0953420">
        <ele>4.4600000</ele>
        <time>2013-06-11T09:24:25Z</time>
      </trkpt>
      <trkpt lat="38.6870160" lon="15.0950380">
        <ele>4.4600000</ele>
        <time>2013-06-11T09:24:40Z</time>
      </trkpt>
      <trkpt lat="38.6866990" lon="15.0947440">
        <ele>3.9800000</ele>
        <time>2013-06-11T09:24:55Z</time>
      </trkpt>
      <trkpt lat="38.6864240" lon="15.0944270">
        <ele>4.4600000</ele>
        <time>2013-06-11T09:25:09Z</time>
      </trkpt>
      <trkpt lat="38.6861460" lon="15.0941040">
        <ele>3.9800000</ele>
        <time>2013-06-11T09:25:23Z</time>
      </trkpt>
      <trkpt lat="38.6858220" lon="15.0938060">
        <ele>3.9800000</ele>
        <time>2013-06-11T09:25:38Z</time>
      </trkpt>
      <trkpt lat="38.6855090" lon="15.0934840">
        <ele>4.4600000</ele>
        <time>2013-06-11T09:25:52Z</time>
      </trkpt>
      <trkpt lat="38.6852720" lon="15.0931880">
        <ele>4.9400000</ele>
        <time>2013-06-11T09:26:04Z</time>
      </trkpt>
      <trkpt lat="38.6849980" lon="15.0928480">
        <ele>4.4600000</ele>
        <time>2013-06-11T09:26:18Z</time>
      </trkpt>
      <trkpt lat="38.6847190" lon="15.0924810">
        <ele>3.9800000</ele>
        <time>2013-06-11T09:26:33Z</time>
      </trkpt>
      <trkpt lat="38.6844220" lon="15.0921180">
        <ele>3.9800000</ele>
        <time>2013-06-11T09:26:49Z</time>
      </trkpt>
      <trkpt lat="38.6841280" lon="15.0917590">
        <ele>4.4600000</ele>
        <time>2013-06-11T09:27:06Z</time>
      </trkpt>
      <trkpt lat="38.6838260" lon="15.0914080">
        <ele>4.9400000</ele>
        <time>2013-06-11T09:27:23Z</time>
      </trkpt>
      <trkpt lat="38.6835590" lon="15.0910690">
        <ele>4.9400000</ele>
        <time>2013-06-11T09:27:37Z</time>
      </trkpt>
      <trkpt lat="38.6833000" lon="15.0907610">
        <ele>4.4600000</ele>
        <time>2013-06-11T09:27:51Z</time>
      </trkpt>
      <trkpt lat="38.6830180" lon="15.0904350">
        <ele>3.9800000</ele>
        <time>2013-06-11T09:28:06Z</time>
      </trkpt>
      <trkpt lat="38.6827160" lon="15.0900860">
        <ele>4.4600000</ele>
        <time>2013-06-11T09:28:22Z</time>
      </trkpt>
      <trkpt lat="38.6823920" lon="15.0897880">
        <ele>4.9400000</ele>
        <time>2013-06-11T09:28:37Z</time>
      </trkpt>
      <trkpt lat="38.6821480" lon="15.0894910">
        <ele>4.4600000</ele>
        <time>2013-06-11T09:28:50Z</time>
      </trkpt>
      <trkpt lat="38.6818620" lon="15.0891460">
        <ele>4.4600000</ele>
        <time>2013-06-11T09:29:05Z</time>
      </trkpt>
      <trkpt lat="38.6816140" lon="15.0888560">
        <ele>3.9800000</ele>
        <time>2013-06-11T09:29:18Z</time>
      </trkpt>
      <trkpt lat="38.6813390" lon="15.0885300">
        <ele>4.4600000</ele>
        <time>2013-06-11T09:29:33Z</time>
      </trkpt>
      <trkpt lat="38.6811180" lon="15.0882090">
        <ele>4.4600000</ele>
        <time>2013-06-11T09:29:47Z</time>
      </trkpt>
      <trkpt lat="38.6808470" lon="15.0879450">
        <ele>4.4600000</ele>
        <time>2013-06-11T09:30:02Z</time>
      </trkpt>
      <trkpt lat="38.6806220" lon="15.0877460">
        <ele>3.9800000</ele>
        <time>2013-06-11T09:30:15Z</time>
      </trkpt>
      <trkpt lat="38.6803470" lon="15.0875080">
        <ele>3.9800000</ele>
        <time>2013-06-11T09:30:31Z</time>
      </trkpt>
      <trkpt lat="38.6801220" lon="15.0872790">
        <ele>3.9800000</ele>
        <time>2013-06-11T09:30:46Z</time>
      </trkpt>
      <trkpt lat="38.6798440" lon="15.0870440">
        <ele>3.9800000</ele>
        <time>2013-06-11T09:31:02Z</time>
      </trkpt>
      <trkpt lat="38.6795920" lon="15.0868090">
        <ele>3.9800000</ele>
        <time>2013-06-11T09:31:17Z</time>
      </trkpt>
      <trkpt lat="38.6794700" lon="15.0865280">
        <ele>3.9800000</ele>
        <time>2013-06-11T09:31:31Z</time>
      </trkpt>
      <trkpt lat="38.6794590" lon="15.0864760">
        <ele>4.4600000</ele>
        <time>2013-06-11T09:31:35Z</time>
      </trkpt>
      <trkpt lat="38.6794590" lon="15.0863020">
        <ele>3.5000000</ele>
        <time>2013-06-11T09:31:52Z</time>
      </trkpt>
      <trkpt lat="38.6794620" lon="15.0861760">
        <ele>3.9800000</ele>
        <time>2013-06-11T09:32:06Z</time>
      </trkpt>
      <trkpt lat="38.6794620" lon="15.0860540">
        <ele>3.9800000</ele>
        <time>2013-06-11T09:32:17Z</time>
      </trkpt>
      <trkpt lat="38.6794550" lon="15.0858710">
        <ele>4.4600000</ele>
        <time>2013-06-11T09:32:33Z</time>
      </trkpt>
      <trkpt lat="38.6794740" lon="15.0857250">
        <ele>4.4600000</ele>
        <time>2013-06-11T09:32:46Z</time>
      </trkpt>
      <trkpt lat="38.6795080" lon="15.0855200">
        <ele>3.9800000</ele>
        <time>2013-06-11T09:33:02Z</time>
      </trkpt>
      <trkpt lat="38.6795390" lon="15.0852970">
        <ele>4.4600000</ele>
        <time>2013-06-11T09:33:16Z</time>
      </trkpt>
      <trkpt lat="38.6795540" lon="15.0850440">
        <ele>4.4600000</ele>
        <time>2013-06-11T09:33:31Z</time>
      </trkpt>
      <trkpt lat="38.6795540" lon="15.0849440">
        <ele>4.9400000</ele>
        <time>2013-06-11T09:33:37Z</time>
      </trkpt>
      <trkpt lat="38.6795430" lon="15.0846470">
        <ele>4.4600000</ele>
        <time>2013-06-11T09:33:54Z</time>
      </trkpt>
      <trkpt lat="38.6795390" lon="15.0845650">
        <ele>4.9400000</ele>
        <time>2013-06-11T09:33:59Z</time>
      </trkpt>
      <trkpt lat="38.6794970" lon="15.0843070">
        <ele>3.9800000</ele>
        <time>2013-06-11T09:34:14Z</time>
      </trkpt>
      <trkpt lat="38.6794200" lon="15.0841020">
        <ele>3.9800000</ele>
        <time>2013-06-11T09:34:29Z</time>
      </trkpt>
      <trkpt lat="38.6794010" lon="15.0838510">
        <ele>3.9800000</ele>
        <time>2013-06-11T09:34:46Z</time>
      </trkpt>
      <trkpt lat="38.6793820" lon="15.0837170">
        <ele>3.9800000</ele>
        <time>2013-06-11T09:34:57Z</time>
      </trkpt>
      <trkpt lat="38.6793750" lon="15.0836590">
        <ele>3.5000000</ele>
        <time>2013-06-11T09:35:01Z</time>
      </trkpt>
      <trkpt lat="38.6793290" lon="15.0834070">
        <ele>3.9800000</ele>
        <time>2013-06-11T09:35:18Z</time>
      </trkpt>
      <trkpt lat="38.6793330" lon="15.0833610">
        <ele>3.5000000</ele>
        <time>2013-06-11T09:35:21Z</time>
      </trkpt>
      <trkpt lat="38.6793290" lon="15.0832090">
        <ele>3.5000000</ele>
        <time>2013-06-11T09:35:31Z</time>
      </trkpt>
      <trkpt lat="38.6793170" lon="15.0829680">
        <ele>3.5000000</ele>
        <time>2013-06-11T09:35:46Z</time>
      </trkpt>
      <trkpt lat="38.6793100" lon="15.0826950">
        <ele>3.5000000</ele>
        <time>2013-06-11T09:36:03Z</time>
      </trkpt>
      <trkpt lat="38.6792950" lon="15.0824260">
        <ele>3.9800000</ele>
        <time>2013-06-11T09:36:20Z</time>
      </trkpt>
      <trkpt lat="38.6792680" lon="15.0821580">
        <ele>3.5000000</ele>
        <time>2013-06-11T09:36:36Z</time>
      </trkpt>
      <trkpt lat="38.6792830" lon="15.0819310">
        <ele>3.9800000</ele>
        <time>2013-06-11T09:36:50Z</time>
      </trkpt>
      <trkpt lat="38.6793170" lon="15.0816830">
        <ele>3.5000000</ele>
        <time>2013-06-11T09:37:06Z</time>
      </trkpt>
      <trkpt lat="38.6793400" lon="15.0814360">
        <ele>3.5000000</ele>
        <time>2013-06-11T09:37:21Z</time>
      </trkpt>
      <trkpt lat="38.6793100" lon="15.0811480">
        <ele>3.9800000</ele>
        <time>2013-06-11T09:37:36Z</time>
      </trkpt>
      <trkpt lat="38.6792950" lon="15.0809080">
        <ele>4.4600000</ele>
        <time>2013-06-11T09:37:50Z</time>
      </trkpt>
      <trkpt lat="38.6792600" lon="15.0806470">
        <ele>4.4600000</ele>
        <time>2013-06-11T09:38:05Z</time>
      </trkpt>
      <trkpt lat="38.6792410" lon="15.0803760">
        <ele>3.5000000</ele>
        <time>2013-06-11T09:38:20Z</time>
      </trkpt>
      <trkpt lat="38.6792220" lon="15.0801250">
        <ele>4.4600000</ele>
        <time>2013-06-11T09:38:34Z</time>
      </trkpt>
      <trkpt lat="38.6791610" lon="15.0798640">
        <ele>3.9800000</ele>
        <time>2013-06-11T09:38:49Z</time>
      </trkpt>
      <trkpt lat="38.6791110" lon="15.0795960">
        <ele>3.5000000</ele>
        <time>2013-06-11T09:39:04Z</time>
      </trkpt>
      <trkpt lat="38.6790620" lon="15.0793140">
        <ele>3.9800000</ele>
        <time>2013-06-11T09:39:20Z</time>
      </trkpt>
      <trkpt lat="38.6789700" lon="15.0790410">
        <ele>3.9800000</ele>
        <time>2013-06-11T09:39:36Z</time>
      </trkpt>
      <trkpt lat="38.6787800" lon="15.0787770">
        <ele>4.4600000</ele>
        <time>2013-06-11T09:39:56Z</time>
      </trkpt>
      <trkpt lat="38.6785850" lon="15.0785060">
        <ele>3.9800000</ele>
        <time>2013-06-11T09:40:14Z</time>
      </trkpt>
      <trkpt lat="38.6785580" lon="15.0784770">
        <ele>3.9800000</ele>
        <time>2013-06-11T09:40:16Z</time>
      </trkpt>
      <trkpt lat="38.6784820" lon="15.0783800">
        <ele>4.9400000</ele>
        <time>2013-06-11T09:40:23Z</time>
      </trkpt>
      <trkpt lat="38.6782530" lon="15.0780690">
        <ele>4.9400000</ele>
        <time>2013-06-11T09:40:40Z</time>
      </trkpt>
      <trkpt lat="38.6780130" lon="15.0776820">
        <ele>4.9400000</ele>
        <time>2013-06-11T09:40:54Z</time>
      </trkpt>
      <trkpt lat="38.6777760" lon="15.0773480">
        <ele>4.4600000</ele>
        <time>2013-06-11T09:41:06Z</time>
      </trkpt>
      <trkpt lat="38.6774900" lon="15.0769300">
        <ele>4.4600000</ele>
        <time>2013-06-11T09:41:20Z</time>
      </trkpt>
      <trkpt lat="38.6772190" lon="15.0765170">
        <ele>4.9400000</ele>
        <time>2013-06-11T09:41:34Z</time>
      </trkpt>
      <trkpt lat="38.6769940" lon="15.0761860">
        <ele>4.9400000</ele>
        <time>2013-06-11T09:41:46Z</time>
      </trkpt>
      <trkpt lat="38.6766550" lon="15.0757740">
        <ele>4.9400000</ele>
        <time>2013-06-11T09:42:02Z</time>
      </trkpt>
      <trkpt lat="38.6764030" lon="15.0753350">
        <ele>4.9400000</ele>
        <time>2013-06-11T09:42:16Z</time>
      </trkpt>
      <trkpt lat="38.6761400" lon="15.0749070">
        <ele>6.3900000</ele>
        <time>2013-06-11T09:42:30Z</time>
      </trkpt>
      <trkpt lat="38.6759150" lon="15.0744620">
        <ele>5.4200000</ele>
        <time>2013-06-11T09:42:44Z</time>
      </trkpt>
      <trkpt lat="38.6756590" lon="15.0740830">
        <ele>5.4200000</ele>
        <time>2013-06-11T09:42:58Z</time>
      </trkpt>
      <trkpt lat="38.6754110" lon="15.0737020">
        <ele>5.9100000</ele>
        <time>2013-06-11T09:43:11Z</time>
      </trkpt>
      <trkpt lat="38.6751100" lon="15.0732690">
        <ele>5.9100000</ele>
        <time>2013-06-11T09:43:26Z</time>
      </trkpt>
      <trkpt lat="38.6747510" lon="15.0728340">
        <ele>5.4200000</ele>
        <time>2013-06-11T09:43:43Z</time>
      </trkpt>
      <trkpt lat="38.6745030" lon="15.0724990">
        <ele>5.4200000</ele>
        <time>2013-06-11T09:43:55Z</time>
      </trkpt>
      <trkpt lat="38.6741600" lon="15.0720590">
        <ele>5.4200000</ele>
        <time>2013-06-11T09:44:11Z</time>
      </trkpt>
      <trkpt lat="38.6741450" lon="15.0720280">
        <ele>5.4200000</ele>
        <time>2013-06-11T09:44:12Z</time>
      </trkpt>
      <trkpt lat="38.6738970" lon="15.0716080">
        <ele>5.9100000</ele>
        <time>2013-06-11T09:44:26Z</time>
      </trkpt>
      <trkpt lat="38.6736640" lon="15.0711630">
        <ele>5.4200000</ele>
        <time>2013-06-11T09:44:40Z</time>
      </trkpt>
      <trkpt lat="38.6734310" lon="15.0707610">
        <ele>5.9100000</ele>
        <time>2013-06-11T09:44:53Z</time>
      </trkpt>
      <trkpt lat="38.6731340" lon="15.0703330">
        <ele>5.4200000</ele>
        <time>2013-06-11T09:45:08Z</time>
      </trkpt>
      <trkpt lat="38.6728480" lon="15.0699330">
        <ele>5.4200000</ele>
        <time>2013-06-11T09:45:22Z</time>
      </trkpt>
      <trkpt lat="38.6725960" lon="15.0695710">
        <ele>5.9100000</ele>
        <time>2013-06-11T09:45:35Z</time>
      </trkpt>
      <trkpt lat="38.6722950" lon="15.0691040">
        <ele>6.3900000</ele>
        <time>2013-06-11T09:45:51Z</time>
      </trkpt>
      <trkpt lat="38.6719860" lon="15.0687340">
        <ele>6.3900000</ele>
        <time>2013-06-11T09:46:06Z</time>
      </trkpt>
      <trkpt lat="38.6717220" lon="15.0683850">
        <ele>5.9100000</ele>
        <time>2013-06-11T09:46:19Z</time>
      </trkpt>
      <trkpt lat="38.6714590" lon="15.0680790">
        <ele>5.9100000</ele>
        <time>2013-06-11T09:46:31Z</time>
      </trkpt>
      <trkpt lat="38.6711350" lon="15.0676760">
        <ele>5.9100000</ele>
        <time>2013-06-11T09:46:46Z</time>
      </trkpt>
      <trkpt lat="38.6708370" lon="15.0672580">
        <ele>5.4200000</ele>
        <time>2013-06-11T09:47:01Z</time>
      </trkpt>
      <trkpt lat="38.6705550" lon="15.0669010">
        <ele>6.3900000</ele>
        <time>2013-06-11T09:47:15Z</time>
      </trkpt>
      <trkpt lat="38.6702420" lon="15.0664900">
        <ele>5.9100000</ele>
        <time>2013-06-11T09:47:30Z</time>
      </trkpt>
      <trkpt lat="38.6699140" lon="15.0660400">
        <ele>5.9100000</ele>
        <time>2013-06-11T09:47:47Z</time>
      </trkpt>
      <trkpt lat="38.6696210" lon="15.0656970">
        <ele>5.9100000</ele>
        <time>2013-06-11T09:48:01Z</time>
      </trkpt>
      <trkpt lat="38.6693460" lon="15.0653850">
        <ele>5.4200000</ele>
        <time>2013-06-11T09:48:14Z</time>
      </trkpt>
      <trkpt lat="38.6692770" lon="15.0653190">
        <ele>6.8700000</ele>
        <time>2013-06-11T09:48:17Z</time>
      </trkpt>
      <trkpt lat="38.6689640" lon="15.0649900">
        <ele>5.4200000</ele>
        <time>2013-06-11T09:48:31Z</time>
      </trkpt>
      <trkpt lat="38.6688120" lon="15.0648030">
        <ele>6.8700000</ele>
        <time>2013-06-11T09:48:38Z</time>
      </trkpt>
      <trkpt lat="38.6685180" lon="15.0643950">
        <ele>7.3500000</ele>
        <time>2013-06-11T09:48:53Z</time>
      </trkpt>
      <trkpt lat="38.6682400" lon="15.0639770">
        <ele>5.9100000</ele>
        <time>2013-06-11T09:49:08Z</time>
      </trkpt>
      <trkpt lat="38.6679120" lon="15.0635810">
        <ele>5.4200000</ele>
        <time>2013-06-11T09:49:24Z</time>
      </trkpt>
      <trkpt lat="38.6676290" lon="15.0632310">
        <ele>5.9100000</ele>
        <time>2013-06-11T09:49:38Z</time>
      </trkpt>
      <trkpt lat="38.6674000" lon="15.0629270">
        <ele>5.4200000</ele>
        <time>2013-06-11T09:49:50Z</time>
      </trkpt>
      <trkpt lat="38.6671300" lon="15.0625550">
        <ele>6.3900000</ele>
        <time>2013-06-11T09:50:04Z</time>
      </trkpt>
      <trkpt lat="38.6669240" lon="15.0622640">
        <ele>6.3900000</ele>
        <time>2013-06-11T09:50:15Z</time>
      </trkpt>
      <trkpt lat="38.6666680" lon="15.0619370">
        <ele>5.9100000</ele>
        <time>2013-06-11T09:50:28Z</time>
      </trkpt>
      <trkpt lat="38.6664810" lon="15.0615690">
        <ele>5.9100000</ele>
        <time>2013-06-11T09:50:40Z</time>
      </trkpt>
      <trkpt lat="38.6663480" lon="15.0613230">
        <ele>5.4200000</ele>
        <time>2013-06-11T09:50:48Z</time>
      </trkpt>
      <trkpt lat="38.6661380" lon="15.0609190">
        <ele>6.3900000</ele>
        <time>2013-06-11T09:51:02Z</time>
      </trkpt>
      <trkpt lat="38.6659240" lon="15.0605180">
        <ele>5.4200000</ele>
        <time>2013-06-11T09:51:16Z</time>
      </trkpt>
      <trkpt lat="38.6657490" lon="15.0601520">
        <ele>6.3900000</ele>
        <time>2013-06-11T09:51:29Z</time>
      </trkpt>
      <trkpt lat="38.6655200" lon="15.0597810">
        <ele>5.4200000</ele>
        <time>2013-06-11T09:51:42Z</time>
      </trkpt>
      <trkpt lat="38.6652910" lon="15.0594250">
        <ele>5.9100000</ele>
        <time>2013-06-11T09:51:55Z</time>
      </trkpt>
      <trkpt lat="38.6650920" lon="15.0591050">
        <ele>5.4200000</ele>
        <time>2013-06-11T09:52:07Z</time>
      </trkpt>
      <trkpt lat="38.6647680" lon="15.0586830">
        <ele>5.9100000</ele>
        <time>2013-06-11T09:52:23Z</time>
      </trkpt>
      <trkpt lat="38.6645050" lon="15.0583730">
        <ele>5.9100000</ele>
        <time>2013-06-11T09:52:36Z</time>
      </trkpt>
      <trkpt lat="38.6642490" lon="15.0580180">
        <ele>5.4200000</ele>
        <time>2013-06-11T09:52:49Z</time>
      </trkpt>
      <trkpt lat="38.6639670" lon="15.0576460">
        <ele>6.8700000</ele>
        <time>2013-06-11T09:53:03Z</time>
      </trkpt>
      <trkpt lat="38.6638340" lon="15.0574130">
        <ele>6.8700000</ele>
        <time>2013-06-11T09:53:11Z</time>
      </trkpt>
      <trkpt lat="38.6637880" lon="15.0573270">
        <ele>5.4200000</ele>
        <time>2013-06-11T09:53:14Z</time>
      </trkpt>
      <trkpt lat="38.6635700" lon="15.0568690">
        <ele>6.3900000</ele>
        <time>2013-06-11T09:53:30Z</time>
      </trkpt>
      <trkpt lat="38.6633870" lon="15.0564980">
        <ele>5.4200000</ele>
        <time>2013-06-11T09:53:43Z</time>
      </trkpt>
      <trkpt lat="38.6631700" lon="15.0560940">
        <ele>5.9100000</ele>
        <time>2013-06-11T09:53:57Z</time>
      </trkpt>
      <trkpt lat="38.6629140" lon="15.0557380">
        <ele>6.3900000</ele>
        <time>2013-06-11T09:54:10Z</time>
      </trkpt>
      <trkpt lat="38.6626700" lon="15.0553610">
        <ele>5.9100000</ele>
        <time>2013-06-11T09:54:24Z</time>
      </trkpt>
      <trkpt lat="38.6624180" lon="15.0549960">
        <ele>6.3900000</ele>
        <time>2013-06-11T09:54:38Z</time>
      </trkpt>
      <trkpt lat="38.6621550" lon="15.0546370">
        <ele>5.9100000</ele>
        <time>2013-06-11T09:54:51Z</time>
      </trkpt>
      <trkpt lat="38.6619530" lon="15.0541960">
        <ele>5.9100000</ele>
        <time>2013-06-11T09:55:06Z</time>
      </trkpt>
      <trkpt lat="38.6617580" lon="15.0538300">
        <ele>4.9400000</ele>
        <time>2013-06-11T09:55:19Z</time>
      </trkpt>
      <trkpt lat="38.6615180" lon="15.0534050">
        <ele>5.9100000</ele>
        <time>2013-06-11T09:55:34Z</time>
      </trkpt>
      <trkpt lat="38.6613160" lon="15.0529630">
        <ele>4.9400000</ele>
        <time>2013-06-11T09:55:49Z</time>
      </trkpt>
      <trkpt lat="38.6611560" lon="15.0526440">
        <ele>6.3900000</ele>
        <time>2013-06-11T09:56:02Z</time>
      </trkpt>
      <trkpt lat="38.6609650" lon="15.0522790">
        <ele>5.4200000</ele>
        <time>2013-06-11T09:56:15Z</time>
      </trkpt>
      <trkpt lat="38.6607670" lon="15.0519170">
        <ele>5.4200000</ele>
        <time>2013-06-11T09:56:28Z</time>
      </trkpt>
      <trkpt lat="38.6605640" lon="15.0515380">
        <ele>5.4200000</ele>
        <time>2013-06-11T09:56:42Z</time>
      </trkpt>
      <trkpt lat="38.6603550" lon="15.0511620">
        <ele>5.9100000</ele>
        <time>2013-06-11T09:56:56Z</time>
      </trkpt>
      <trkpt lat="38.6601750" lon="15.0508380">
        <ele>6.3900000</ele>
        <time>2013-06-11T09:57:08Z</time>
      </trkpt>
      <trkpt lat="38.6600000" lon="15.0504940">
        <ele>5.4200000</ele>
        <time>2013-06-11T09:57:20Z</time>
      </trkpt>
      <trkpt lat="38.6598090" lon="15.0501190">
        <ele>5.9100000</ele>
        <time>2013-06-11T09:57:33Z</time>
      </trkpt>
      <trkpt lat="38.6596030" lon="15.0497810">
        <ele>5.4200000</ele>
        <time>2013-06-11T09:57:47Z</time>
      </trkpt>
      <trkpt lat="38.6594010" lon="15.0494500">
        <ele>5.4200000</ele>
        <time>2013-06-11T09:58:00Z</time>
      </trkpt>
      <trkpt lat="38.6591870" lon="15.0490380">
        <ele>5.4200000</ele>
        <time>2013-06-11T09:58:15Z</time>
      </trkpt>
      <trkpt lat="38.6590350" lon="15.0486770">
        <ele>5.4200000</ele>
        <time>2013-06-11T09:58:27Z</time>
      </trkpt>
      <trkpt lat="38.6588550" lon="15.0483010">
        <ele>5.4200000</ele>
        <time>2013-06-11T09:58:40Z</time>
      </trkpt>
      <trkpt lat="38.6586150" lon="15.0478920">
        <ele>5.4200000</ele>
        <time>2013-06-11T09:58:55Z</time>
      </trkpt>
      <trkpt lat="38.6583900" lon="15.0475490">
        <ele>5.9100000</ele>
        <time>2013-06-11T09:59:08Z</time>
      </trkpt>
      <trkpt lat="38.6582070" lon="15.0472190">
        <ele>5.9100000</ele>
        <time>2013-06-11T09:59:20Z</time>
      </trkpt>
      <trkpt lat="38.6579900" lon="15.0468750">
        <ele>5.4200000</ele>
        <time>2013-06-11T09:59:33Z</time>
      </trkpt>
      <trkpt lat="38.6578030" lon="15.0465210">
        <ele>5.4200000</ele>
        <time>2013-06-11T09:59:46Z</time>
      </trkpt>
      <trkpt lat="38.6576350" lon="15.0461690">
        <ele>5.9100000</ele>
        <time>2013-06-11T09:59:58Z</time>
      </trkpt>
      <trkpt lat="38.6574170" lon="15.0457420">
        <ele>5.4200000</ele>
        <time>2013-06-11T10:00:12Z</time>
      </trkpt>
      <trkpt lat="38.6572300" lon="15.0454030">
        <ele>5.9100000</ele>
        <time>2013-06-11T10:00:24Z</time>
      </trkpt>
      <trkpt lat="38.6570210" lon="15.0449960">
        <ele>4.9400000</ele>
        <time>2013-06-11T10:00:38Z</time>
      </trkpt>
      <trkpt lat="38.6568340" lon="15.0446580">
        <ele>4.4600000</ele>
        <time>2013-06-11T10:00:50Z</time>
      </trkpt>
      <trkpt lat="38.6566090" lon="15.0442540">
        <ele>4.9400000</ele>
        <time>2013-06-11T10:01:04Z</time>
      </trkpt>
      <trkpt lat="38.6564180" lon="15.0438620">
        <ele>4.9400000</ele>
        <time>2013-06-11T10:01:17Z</time>
      </trkpt>
      <trkpt lat="38.6561850" lon="15.0433920">
        <ele>5.4200000</ele>
        <time>2013-06-11T10:01:33Z</time>
      </trkpt>
      <trkpt lat="38.6559830" lon="15.0429910">
        <ele>5.4200000</ele>
        <time>2013-06-11T10:01:47Z</time>
      </trkpt>
      <trkpt lat="38.6557310" lon="15.0425260">
        <ele>5.9100000</ele>
        <time>2013-06-11T10:02:03Z</time>
      </trkpt>
      <trkpt lat="38.6555330" lon="15.0421430">
        <ele>5.4200000</ele>
        <time>2013-06-11T10:02:16Z</time>
      </trkpt>
      <trkpt lat="38.6553230" lon="15.0417490">
        <ele>5.4200000</ele>
        <time>2013-06-11T10:02:30Z</time>
      </trkpt>
      <trkpt lat="38.6551440" lon="15.0413430">
        <ele>5.4200000</ele>
        <time>2013-06-11T10:02:44Z</time>
      </trkpt>
      <trkpt lat="38.6549680" lon="15.0409140">
        <ele>5.9100000</ele>
        <time>2013-06-11T10:02:58Z</time>
      </trkpt>
      <trkpt lat="38.6547850" lon="15.0405710">
        <ele>5.4200000</ele>
        <time>2013-06-11T10:03:10Z</time>
      </trkpt>
      <trkpt lat="38.6546020" lon="15.0401910">
        <ele>5.4200000</ele>
        <time>2013-06-11T10:03:23Z</time>
      </trkpt>
      <trkpt lat="38.6544040" lon="15.0397950">
        <ele>5.9100000</ele>
        <time>2013-06-11T10:03:37Z</time>
      </trkpt>
      <trkpt lat="38.6542320" lon="15.0394670">
        <ele>5.9100000</ele>
        <time>2013-06-11T10:03:49Z</time>
      </trkpt>
      <trkpt lat="38.6540450" lon="15.0390420">
        <ele>5.9100000</ele>
        <time>2013-06-11T10:04:03Z</time>
      </trkpt>
      <trkpt lat="38.6538310" lon="15.0385950">
        <ele>6.3900000</ele>
        <time>2013-06-11T10:04:18Z</time>
      </trkpt>
      <trkpt lat="38.6536250" lon="15.0381920">
        <ele>5.9100000</ele>
        <time>2013-06-11T10:04:32Z</time>
      </trkpt>
      <trkpt lat="38.6534270" lon="15.0378450">
        <ele>5.9100000</ele>
        <time>2013-06-11T10:04:45Z</time>
      </trkpt>
      <trkpt lat="38.6532330" lon="15.0374590">
        <ele>5.9100000</ele>
        <time>2013-06-11T10:04:59Z</time>
      </trkpt>
      <trkpt lat="38.6530840" lon="15.0370580">
        <ele>5.9100000</ele>
        <time>2013-06-11T10:05:12Z</time>
      </trkpt>
      <trkpt lat="38.6528890" lon="15.0366840">
        <ele>6.3900000</ele>
        <time>2013-06-11T10:05:25Z</time>
      </trkpt>
      <trkpt lat="38.6526450" lon="15.0361680">
        <ele>5.9100000</ele>
        <time>2013-06-11T10:05:42Z</time>
      </trkpt>
      <trkpt lat="38.6524510" lon="15.0358020">
        <ele>6.3900000</ele>
        <time>2013-06-11T10:05:55Z</time>
      </trkpt>
      <trkpt lat="38.6522560" lon="15.0354760">
        <ele>5.9100000</ele>
        <time>2013-06-11T10:06:07Z</time>
      </trkpt>
      <trkpt lat="38.6520610" lon="15.0351100">
        <ele>5.9100000</ele>
        <time>2013-06-11T10:06:20Z</time>
      </trkpt>
      <trkpt lat="38.6518550" lon="15.0347510">
        <ele>6.8700000</ele>
        <time>2013-06-11T10:06:33Z</time>
      </trkpt>
      <trkpt lat="38.6516460" lon="15.0343460">
        <ele>6.8700000</ele>
        <time>2013-06-11T10:06:47Z</time>
      </trkpt>
      <trkpt lat="38.6514700" lon="15.0339370">
        <ele>6.3900000</ele>
        <time>2013-06-11T10:07:01Z</time>
      </trkpt>
      <trkpt lat="38.6512600" lon="15.0335190">
        <ele>6.8700000</ele>
        <time>2013-06-11T10:07:15Z</time>
      </trkpt>
      <trkpt lat="38.6510310" lon="15.0330790">
        <ele>6.8700000</ele>
        <time>2013-06-11T10:07:30Z</time>
      </trkpt>
      <trkpt lat="38.6507680" lon="15.0325980">
        <ele>6.3900000</ele>
        <time>2013-06-11T10:07:46Z</time>
      </trkpt>
      <trkpt lat="38.6505470" lon="15.0322120">
        <ele>6.3900000</ele>
        <time>2013-06-11T10:08:00Z</time>
      </trkpt>
      <trkpt lat="38.6503410" lon="15.0318330">
        <ele>5.9100000</ele>
        <time>2013-06-11T10:08:14Z</time>
      </trkpt>
      <trkpt lat="38.6501390" lon="15.0314220">
        <ele>5.9100000</ele>
        <time>2013-06-11T10:08:28Z</time>
      </trkpt>
      <trkpt lat="38.6498760" lon="15.0309490">
        <ele>7.3500000</ele>
        <time>2013-06-11T10:08:45Z</time>
      </trkpt>
      <trkpt lat="38.6496470" lon="15.0305640">
        <ele>6.3900000</ele>
        <time>2013-06-11T10:08:59Z</time>
      </trkpt>
      <trkpt lat="38.6494060" lon="15.0300990">
        <ele>6.3900000</ele>
        <time>2013-06-11T10:09:15Z</time>
      </trkpt>
      <trkpt lat="38.6492160" lon="15.0297990">
        <ele>6.3900000</ele>
        <time>2013-06-11T10:09:27Z</time>
      </trkpt>
      <trkpt lat="38.6489980" lon="15.0294310">
        <ele>6.3900000</ele>
        <time>2013-06-11T10:09:41Z</time>
      </trkpt>
      <trkpt lat="38.6487580" lon="15.0290110">
        <ele>6.8700000</ele>
        <time>2013-06-11T10:09:56Z</time>
      </trkpt>
      <trkpt lat="38.6485440" lon="15.0285920">
        <ele>5.9100000</ele>
        <time>2013-06-11T10:10:10Z</time>
      </trkpt>
      <trkpt lat="38.6483610" lon="15.0282540">
        <ele>5.9100000</ele>
        <time>2013-06-11T10:10:22Z</time>
      </trkpt>
      <trkpt lat="38.6481440" lon="15.0279050">
        <ele>6.3900000</ele>
        <time>2013-06-11T10:10:36Z</time>
      </trkpt>
      <trkpt lat="38.6479070" lon="15.0275190">
        <ele>5.9100000</ele>
        <time>2013-06-11T10:10:51Z</time>
      </trkpt>
      <trkpt lat="38.6477470" lon="15.0272180">
        <ele>6.8700000</ele>
        <time>2013-06-11T10:11:02Z</time>
      </trkpt>
      <trkpt lat="38.6475180" lon="15.0268540">
        <ele>6.8700000</ele>
        <time>2013-06-11T10:11:16Z</time>
      </trkpt>
      <trkpt lat="38.6472850" lon="15.0264550">
        <ele>6.3900000</ele>
        <time>2013-06-11T10:11:30Z</time>
      </trkpt>
      <trkpt lat="38.6470490" lon="15.0260550">
        <ele>7.3500000</ele>
        <time>2013-06-11T10:11:46Z</time>
      </trkpt>
      <trkpt lat="38.6468280" lon="15.0256880">
        <ele>6.3900000</ele>
        <time>2013-06-11T10:12:00Z</time>
      </trkpt>
      <trkpt lat="38.6466030" lon="15.0252900">
        <ele>6.3900000</ele>
        <time>2013-06-11T10:12:14Z</time>
      </trkpt>
      <trkpt lat="38.6463850" lon="15.0248850">
        <ele>6.3900000</ele>
        <time>2013-06-11T10:12:28Z</time>
      </trkpt>
      <trkpt lat="38.6461870" lon="15.0245840">
        <ele>6.3900000</ele>
        <time>2013-06-11T10:12:40Z</time>
      </trkpt>
      <trkpt lat="38.6460380" lon="15.0243710">
        <ele>5.9100000</ele>
        <time>2013-06-11T10:12:49Z</time>
      </trkpt>
      <trkpt lat="38.6458210" lon="15.0239570">
        <ele>6.8700000</ele>
        <time>2013-06-11T10:13:04Z</time>
      </trkpt>
      <trkpt lat="38.6455690" lon="15.0235340">
        <ele>7.3500000</ele>
        <time>2013-06-11T10:13:19Z</time>
      </trkpt>
      <trkpt lat="38.6453740" lon="15.0232170">
        <ele>7.3500000</ele>
        <time>2013-06-11T10:13:31Z</time>
      </trkpt>
      <trkpt lat="38.6451760" lon="15.0229020">
        <ele>7.8300000</ele>
        <time>2013-06-11T10:13:44Z</time>
      </trkpt>
      <trkpt lat="38.6448970" lon="15.0224190">
        <ele>6.8700000</ele>
        <time>2013-06-11T10:14:01Z</time>
      </trkpt>
      <trkpt lat="38.6446990" lon="15.0220390">
        <ele>6.8700000</ele>
        <time>2013-06-11T10:14:14Z</time>
      </trkpt>
      <trkpt lat="38.6444660" lon="15.0216300">
        <ele>7.3500000</ele>
        <time>2013-06-11T10:14:29Z</time>
      </trkpt>
      <trkpt lat="38.6442830" lon="15.0212200">
        <ele>6.8700000</ele>
        <time>2013-06-11T10:14:43Z</time>
      </trkpt>
      <trkpt lat="38.6441150" lon="15.0209110">
        <ele>7.8300000</ele>
        <time>2013-06-11T10:14:55Z</time>
      </trkpt>
      <trkpt lat="38.6439090" lon="15.0205450">
        <ele>7.3500000</ele>
        <time>2013-06-11T10:15:09Z</time>
      </trkpt>
      <trkpt lat="38.6437340" lon="15.0201980">
        <ele>7.3500000</ele>
        <time>2013-06-11T10:15:22Z</time>
      </trkpt>
      <trkpt lat="38.6435280" lon="15.0198240">
        <ele>7.3500000</ele>
        <time>2013-06-11T10:15:35Z</time>
      </trkpt>
      <trkpt lat="38.6433450" lon="15.0194710">
        <ele>6.8700000</ele>
        <time>2013-06-11T10:15:48Z</time>
      </trkpt>
      <trkpt lat="38.6431350" lon="15.0190500">
        <ele>6.8700000</ele>
        <time>2013-06-11T10:16:03Z</time>
      </trkpt>
      <trkpt lat="38.6429370" lon="15.0186390">
        <ele>7.3500000</ele>
        <time>2013-06-11T10:16:17Z</time>
      </trkpt>
      <trkpt lat="38.6427500" lon="15.0182960">
        <ele>6.8700000</ele>
        <time>2013-06-11T10:16:29Z</time>
      </trkpt>
      <trkpt lat="38.6425550" lon="15.0179480">
        <ele>7.3500000</ele>
        <time>2013-06-11T10:16:42Z</time>
      </trkpt>
      <trkpt lat="38.6423380" lon="15.0175780">
        <ele>7.3500000</ele>
        <time>2013-06-11T10:16:56Z</time>
      </trkpt>
      <trkpt lat="38.6421470" lon="15.0171790">
        <ele>7.3500000</ele>
        <time>2013-06-11T10:17:10Z</time>
      </trkpt>
      <trkpt lat="38.6419530" lon="15.0167600">
        <ele>6.8700000</ele>
        <time>2013-06-11T10:17:25Z</time>
      </trkpt>
      <trkpt lat="38.6417810" lon="15.0164110">
        <ele>6.8700000</ele>
        <time>2013-06-11T10:17:38Z</time>
      </trkpt>
      <trkpt lat="38.6416020" lon="15.0160410">
        <ele>7.3500000</ele>
        <time>2013-06-11T10:17:51Z</time>
      </trkpt>
      <trkpt lat="38.6414030" lon="15.0156760">
        <ele>6.8700000</ele>
        <time>2013-06-11T10:18:04Z</time>
      </trkpt>
      <trkpt lat="38.6411930" lon="15.0152500">
        <ele>6.3900000</ele>
        <time>2013-06-11T10:18:19Z</time>
      </trkpt>
      <trkpt lat="38.6409650" lon="15.0148670">
        <ele>7.3500000</ele>
        <time>2013-06-11T10:18:33Z</time>
      </trkpt>
      <trkpt lat="38.6407620" lon="15.0145360">
        <ele>7.3500000</ele>
        <time>2013-06-11T10:18:45Z</time>
      </trkpt>
      <trkpt lat="38.6405300" lon="15.0141580">
        <ele>7.8300000</ele>
        <time>2013-06-11T10:18:59Z</time>
      </trkpt>
      <trkpt lat="38.6403580" lon="15.0138530">
        <ele>7.3500000</ele>
        <time>2013-06-11T10:19:11Z</time>
      </trkpt>
      <trkpt lat="38.6401330" lon="15.0134260">
        <ele>8.3100000</ele>
        <time>2013-06-11T10:19:26Z</time>
      </trkpt>
      <trkpt lat="38.6399150" lon="15.0130480">
        <ele>7.8300000</ele>
        <time>2013-06-11T10:19:39Z</time>
      </trkpt>
      <trkpt lat="38.6397250" lon="15.0127080">
        <ele>8.3100000</ele>
        <time>2013-06-11T10:19:51Z</time>
      </trkpt>
      <trkpt lat="38.6394920" lon="15.0123960">
        <ele>7.8300000</ele>
        <time>2013-06-11T10:20:03Z</time>
      </trkpt>
      <trkpt lat="38.6392560" lon="15.0120540">
        <ele>7.3500000</ele>
        <time>2013-06-11T10:20:17Z</time>
      </trkpt>
      <trkpt lat="38.6390460" lon="15.0117240">
        <ele>6.8700000</ele>
        <time>2013-06-11T10:20:31Z</time>
      </trkpt>
      <trkpt lat="38.6388280" lon="15.0113850">
        <ele>7.8300000</ele>
        <time>2013-06-11T10:20:44Z</time>
      </trkpt>
      <trkpt lat="38.6385920" lon="15.0110240">
        <ele>7.8300000</ele>
        <time>2013-06-11T10:20:57Z</time>
      </trkpt>
      <trkpt lat="38.6383510" lon="15.0105880">
        <ele>7.3500000</ele>
        <time>2013-06-11T10:21:13Z</time>
      </trkpt>
      <trkpt lat="38.6380880" lon="15.0101340">
        <ele>7.8300000</ele>
        <time>2013-06-11T10:21:29Z</time>
      </trkpt>
      <trkpt lat="38.6378750" lon="15.0097090">
        <ele>7.3500000</ele>
        <time>2013-06-11T10:21:43Z</time>
      </trkpt>
      <trkpt lat="38.6376840" lon="15.0093530">
        <ele>7.3500000</ele>
        <time>2013-06-11T10:21:56Z</time>
      </trkpt>
      <trkpt lat="38.6374660" lon="15.0089790">
        <ele>6.8700000</ele>
        <time>2013-06-11T10:22:10Z</time>
      </trkpt>
      <trkpt lat="38.6372720" lon="15.0086550">
        <ele>7.3500000</ele>
        <time>2013-06-11T10:22:22Z</time>
      </trkpt>
      <trkpt lat="38.6370350" lon="15.0081940">
        <ele>7.3500000</ele>
        <time>2013-06-11T10:22:38Z</time>
      </trkpt>
      <trkpt lat="38.6368640" lon="15.0078700">
        <ele>7.3500000</ele>
        <time>2013-06-11T10:22:49Z</time>
      </trkpt>
      <trkpt lat="38.6366730" lon="15.0075140">
        <ele>7.3500000</ele>
        <time>2013-06-11T10:23:02Z</time>
      </trkpt>
      <trkpt lat="38.6364970" lon="15.0071660">
        <ele>6.8700000</ele>
        <time>2013-06-11T10:23:14Z</time>
      </trkpt>
      <trkpt lat="38.6363220" lon="15.0067810">
        <ele>7.3500000</ele>
        <time>2013-06-11T10:23:27Z</time>
      </trkpt>
      <trkpt lat="38.6361580" lon="15.0063880">
        <ele>7.3500000</ele>
        <time>2013-06-11T10:23:40Z</time>
      </trkpt>
      <trkpt lat="38.6359370" lon="15.0060040">
        <ele>7.8300000</ele>
        <time>2013-06-11T10:23:54Z</time>
      </trkpt>
      <trkpt lat="38.6357190" lon="15.0056290">
        <ele>8.3100000</ele>
        <time>2013-06-11T10:24:08Z</time>
      </trkpt>
      <trkpt lat="38.6355210" lon="15.0052540">
        <ele>7.3500000</ele>
        <time>2013-06-11T10:24:21Z</time>
      </trkpt>
      <trkpt lat="38.6353070" lon="15.0049310">
        <ele>8.3100000</ele>
        <time>2013-06-11T10:24:34Z</time>
      </trkpt>
      <trkpt lat="38.6351170" lon="15.0045630">
        <ele>7.8300000</ele>
        <time>2013-06-11T10:24:47Z</time>
      </trkpt>
      <trkpt lat="38.6349030" lon="15.0042100">
        <ele>7.8300000</ele>
        <time>2013-06-11T10:25:00Z</time>
      </trkpt>
      <trkpt lat="38.6346780" lon="15.0038420">
        <ele>7.8300000</ele>
        <time>2013-06-11T10:25:14Z</time>
      </trkpt>
      <trkpt lat="38.6344910" lon="15.0035190">
        <ele>7.8300000</ele>
        <time>2013-06-11T10:25:27Z</time>
      </trkpt>
      <trkpt lat="38.6342740" lon="15.0031560">
        <ele>7.8300000</ele>
        <time>2013-06-11T10:25:41Z</time>
      </trkpt>
      <trkpt lat="38.6340260" lon="15.0027250">
        <ele>7.8300000</ele>
        <time>2013-06-11T10:25:56Z</time>
      </trkpt>
      <trkpt lat="38.6338040" lon="15.0023750">
        <ele>7.8300000</ele>
        <time>2013-06-11T10:26:08Z</time>
      </trkpt>
      <trkpt lat="38.6337810" lon="15.0023540">
        <ele>8.3100000</ele>
        <time>2013-06-11T10:26:09Z</time>
      </trkpt>
      <trkpt lat="38.6335910" lon="15.0020320">
        <ele>7.3500000</ele>
        <time>2013-06-11T10:26:21Z</time>
      </trkpt>
      <trkpt lat="38.6333390" lon="15.0016380">
        <ele>7.3500000</ele>
        <time>2013-06-11T10:26:35Z</time>
      </trkpt>
      <trkpt lat="38.6331330" lon="15.0013610">
        <ele>8.3100000</ele>
        <time>2013-06-11T10:26:46Z</time>
      </trkpt>
      <trkpt lat="38.6329350" lon="15.0010410">
        <ele>8.3100000</ele>
        <time>2013-06-11T10:26:58Z</time>
      </trkpt>
      <trkpt lat="38.6327320" lon="15.0007500">
        <ele>7.3500000</ele>
        <time>2013-06-11T10:27:10Z</time>
      </trkpt>
      <trkpt lat="38.6325040" lon="15.0004110">
        <ele>7.3500000</ele>
        <time>2013-06-11T10:27:23Z</time>
      </trkpt>
      <trkpt lat="38.6322590" lon="14.9999940">
        <ele>6.8700000</ele>
        <time>2013-06-11T10:27:38Z</time>
      </trkpt>
      <trkpt lat="38.6320270" lon="14.9996590">
        <ele>7.8300000</ele>
        <time>2013-06-11T10:27:51Z</time>
      </trkpt>
      <trkpt lat="38.6317900" lon="14.9992630">
        <ele>7.3500000</ele>
        <time>2013-06-11T10:28:05Z</time>
      </trkpt>
      <trkpt lat="38.6315840" lon="14.9989420">
        <ele>7.3500000</ele>
        <time>2013-06-11T10:28:18Z</time>
      </trkpt>
      <trkpt lat="38.6313210" lon="14.9985050">
        <ele>6.8700000</ele>
        <time>2013-06-11T10:28:34Z</time>
      </trkpt>
      <trkpt lat="38.6311000" lon="14.9981490">
        <ele>7.3500000</ele>
        <time>2013-06-11T10:28:48Z</time>
      </trkpt>
      <trkpt lat="38.6308360" lon="14.9977800">
        <ele>7.3500000</ele>
        <time>2013-06-11T10:29:02Z</time>
      </trkpt>
      <trkpt lat="38.6306380" lon="14.9974450">
        <ele>7.3500000</ele>
        <time>2013-06-11T10:29:14Z</time>
      </trkpt>
      <trkpt lat="38.6304050" lon="14.9970630">
        <ele>7.3500000</ele>
        <time>2013-06-11T10:29:27Z</time>
      </trkpt>
      <trkpt lat="38.6302070" lon="14.9967520">
        <ele>7.8300000</ele>
        <time>2013-06-11T10:29:39Z</time>
      </trkpt>
      <trkpt lat="38.6300010" lon="14.9964110">
        <ele>6.8700000</ele>
        <time>2013-06-11T10:29:52Z</time>
      </trkpt>
      <trkpt lat="38.6297990" lon="14.9960570">
        <ele>6.3900000</ele>
        <time>2013-06-11T10:30:05Z</time>
      </trkpt>
      <trkpt lat="38.6296350" lon="14.9957440">
        <ele>7.3500000</ele>
        <time>2013-06-11T10:30:16Z</time>
      </trkpt>
      <trkpt lat="38.6294480" lon="14.9954140">
        <ele>7.3500000</ele>
        <time>2013-06-11T10:30:28Z</time>
      </trkpt>
      <trkpt lat="38.6292760" lon="14.9950440">
        <ele>7.8300000</ele>
        <time>2013-06-11T10:30:41Z</time>
      </trkpt>
      <trkpt lat="38.6290660" lon="14.9946710">
        <ele>7.8300000</ele>
        <time>2013-06-11T10:30:55Z</time>
      </trkpt>
      <trkpt lat="38.6288380" lon="14.9942560">
        <ele>7.3500000</ele>
        <time>2013-06-11T10:31:10Z</time>
      </trkpt>
      <trkpt lat="38.6286740" lon="14.9939710">
        <ele>7.3500000</ele>
        <time>2013-06-11T10:31:22Z</time>
      </trkpt>
      <trkpt lat="38.6284750" lon="14.9936380">
        <ele>7.8300000</ele>
        <time>2013-06-11T10:31:35Z</time>
      </trkpt>
      <trkpt lat="38.6282840" lon="14.9933200">
        <ele>7.8300000</ele>
        <time>2013-06-11T10:31:47Z</time>
      </trkpt>
      <trkpt lat="38.6280630" lon="14.9929430">
        <ele>7.3500000</ele>
        <time>2013-06-11T10:32:01Z</time>
      </trkpt>
      <trkpt lat="38.6278190" lon="14.9925140">
        <ele>7.3500000</ele>
        <time>2013-06-11T10:32:16Z</time>
      </trkpt>
      <trkpt lat="38.6276130" lon="14.9921670">
        <ele>7.3500000</ele>
        <time>2013-06-11T10:32:29Z</time>
      </trkpt>
      <trkpt lat="38.6274150" lon="14.9918380">
        <ele>6.8700000</ele>
        <time>2013-06-11T10:32:41Z</time>
      </trkpt>
      <trkpt lat="38.6272240" lon="14.9914430">
        <ele>7.8300000</ele>
        <time>2013-06-11T10:32:55Z</time>
      </trkpt>
      <trkpt lat="38.6270450" lon="14.9910850">
        <ele>7.8300000</ele>
        <time>2013-06-11T10:33:08Z</time>
      </trkpt>
      <trkpt lat="38.6268270" lon="14.9906830">
        <ele>6.8700000</ele>
        <time>2013-06-11T10:33:23Z</time>
      </trkpt>
      <trkpt lat="38.6266710" lon="14.9902720">
        <ele>7.8300000</ele>
        <time>2013-06-11T10:33:37Z</time>
      </trkpt>
      <trkpt lat="38.6265140" lon="14.9899580">
        <ele>7.3500000</ele>
        <time>2013-06-11T10:33:48Z</time>
      </trkpt>
      <trkpt lat="38.6263120" lon="14.9895930">
        <ele>8.3100000</ele>
        <time>2013-06-11T10:34:01Z</time>
      </trkpt>
      <trkpt lat="38.6261220" lon="14.9892060">
        <ele>7.8300000</ele>
        <time>2013-06-11T10:34:14Z</time>
      </trkpt>
      <trkpt lat="38.6259310" lon="14.9888520">
        <ele>7.8300000</ele>
        <time>2013-06-11T10:34:26Z</time>
      </trkpt>
      <trkpt lat="38.6257740" lon="14.9885370">
        <ele>7.8300000</ele>
        <time>2013-06-11T10:34:37Z</time>
      </trkpt>
      <trkpt lat="38.6255300" lon="14.9880730">
        <ele>8.3100000</ele>
        <time>2013-06-11T10:34:53Z</time>
      </trkpt>
      <trkpt lat="38.6252980" lon="14.9876570">
        <ele>7.3500000</ele>
        <time>2013-06-11T10:35:08Z</time>
      </trkpt>
      <trkpt lat="38.6250880" lon="14.9873070">
        <ele>8.3100000</ele>
        <time>2013-06-11T10:35:21Z</time>
      </trkpt>
      <trkpt lat="38.6248510" lon="14.9869220">
        <ele>8.3100000</ele>
        <time>2013-06-11T10:35:35Z</time>
      </trkpt>
      <trkpt lat="38.6246340" lon="14.9865840">
        <ele>8.3100000</ele>
        <time>2013-06-11T10:35:48Z</time>
      </trkpt>
      <trkpt lat="38.6244280" lon="14.9862160">
        <ele>7.8300000</ele>
        <time>2013-06-11T10:36:01Z</time>
      </trkpt>
      <trkpt lat="38.6243290" lon="14.9860450">
        <ele>8.7900000</ele>
        <time>2013-06-11T10:36:07Z</time>
      </trkpt>
      <trkpt lat="38.6241260" lon="14.9856010">
        <ele>7.3500000</ele>
        <time>2013-06-11T10:36:21Z</time>
      </trkpt>
      <trkpt lat="38.6239240" lon="14.9852770">
        <ele>7.3500000</ele>
        <time>2013-06-11T10:36:33Z</time>
      </trkpt>
      <trkpt lat="38.6237110" lon="14.9849270">
        <ele>7.8300000</ele>
        <time>2013-06-11T10:36:46Z</time>
      </trkpt>
      <trkpt lat="38.6234930" lon="14.9845760">
        <ele>7.8300000</ele>
        <time>2013-06-11T10:36:59Z</time>
      </trkpt>
      <trkpt lat="38.6233370" lon="14.9842830">
        <ele>7.8300000</ele>
        <time>2013-06-11T10:37:10Z</time>
      </trkpt>
      <trkpt lat="38.6231190" lon="14.9838770">
        <ele>8.7900000</ele>
        <time>2013-06-11T10:37:24Z</time>
      </trkpt>
      <trkpt lat="38.6229210" lon="14.9834910">
        <ele>7.8300000</ele>
        <time>2013-06-11T10:37:38Z</time>
      </trkpt>
      <trkpt lat="38.6227340" lon="14.9831060">
        <ele>7.8300000</ele>
        <time>2013-06-11T10:37:51Z</time>
      </trkpt>
      <trkpt lat="38.6225510" lon="14.9827720">
        <ele>8.3100000</ele>
        <time>2013-06-11T10:38:03Z</time>
      </trkpt>
      <trkpt lat="38.6223370" lon="14.9823900">
        <ele>8.3100000</ele>
        <time>2013-06-11T10:38:17Z</time>
      </trkpt>
      <trkpt lat="38.6221080" lon="14.9819900">
        <ele>7.8300000</ele>
        <time>2013-06-11T10:38:32Z</time>
      </trkpt>
      <trkpt lat="38.6219220" lon="14.9816150">
        <ele>7.8300000</ele>
        <time>2013-06-11T10:38:45Z</time>
      </trkpt>
      <trkpt lat="38.6216890" lon="14.9811900">
        <ele>8.7900000</ele>
        <time>2013-06-11T10:39:00Z</time>
      </trkpt>
      <trkpt lat="38.6214830" lon="14.9808470">
        <ele>7.8300000</ele>
        <time>2013-06-11T10:39:13Z</time>
      </trkpt>
      <trkpt lat="38.6212770" lon="14.9804700">
        <ele>7.8300000</ele>
        <time>2013-06-11T10:39:27Z</time>
      </trkpt>
      <trkpt lat="38.6211280" lon="14.9801240">
        <ele>7.8300000</ele>
        <time>2013-06-11T10:39:39Z</time>
      </trkpt>
      <trkpt lat="38.6209370" lon="14.9797130">
        <ele>8.3100000</ele>
        <time>2013-06-11T10:39:53Z</time>
      </trkpt>
      <trkpt lat="38.6207240" lon="14.9793050">
        <ele>7.8300000</ele>
        <time>2013-06-11T10:40:07Z</time>
      </trkpt>
      <trkpt lat="38.6205290" lon="14.9789510">
        <ele>8.3100000</ele>
        <time>2013-06-11T10:40:19Z</time>
      </trkpt>
      <trkpt lat="38.6203420" lon="14.9786610">
        <ele>7.3500000</ele>
        <time>2013-06-11T10:40:30Z</time>
      </trkpt>
      <trkpt lat="38.6203310" lon="14.9786270">
        <ele>7.3500000</ele>
        <time>2013-06-11T10:40:31Z</time>
      </trkpt>
      <trkpt lat="38.6201130" lon="14.9782500">
        <ele>7.8300000</ele>
        <time>2013-06-11T10:40:44Z</time>
      </trkpt>
      <trkpt lat="38.6198810" lon="14.9778160">
        <ele>7.8300000</ele>
        <time>2013-06-11T10:40:59Z</time>
      </trkpt>
      <trkpt lat="38.6196670" lon="14.9774220">
        <ele>8.3100000</ele>
        <time>2013-06-11T10:41:13Z</time>
      </trkpt>
      <trkpt lat="38.6194610" lon="14.9770610">
        <ele>8.3100000</ele>
        <time>2013-06-11T10:41:26Z</time>
      </trkpt>
      <trkpt lat="38.6192930" lon="14.9767450">
        <ele>8.3100000</ele>
        <time>2013-06-11T10:41:37Z</time>
      </trkpt>
      <trkpt lat="38.6190150" lon="14.9762660">
        <ele>8.3100000</ele>
        <time>2013-06-11T10:41:54Z</time>
      </trkpt>
      <trkpt lat="38.6187860" lon="14.9758730">
        <ele>8.3100000</ele>
        <time>2013-06-11T10:42:08Z</time>
      </trkpt>
      <trkpt lat="38.6185680" lon="14.9754770">
        <ele>8.3100000</ele>
        <time>2013-06-11T10:42:22Z</time>
      </trkpt>
      <trkpt lat="38.6183590" lon="14.9751120">
        <ele>8.3100000</ele>
        <time>2013-06-11T10:42:35Z</time>
      </trkpt>
      <trkpt lat="38.6181030" lon="14.9746650">
        <ele>8.7900000</ele>
        <time>2013-06-11T10:42:51Z</time>
      </trkpt>
      <trkpt lat="38.6179200" lon="14.9743250">
        <ele>8.7900000</ele>
        <time>2013-06-11T10:43:03Z</time>
      </trkpt>
      <trkpt lat="38.6177060" lon="14.9739030">
        <ele>8.3100000</ele>
        <time>2013-06-11T10:43:17Z</time>
      </trkpt>
      <trkpt lat="38.6175000" lon="14.9735480">
        <ele>8.3100000</ele>
        <time>2013-06-11T10:43:29Z</time>
      </trkpt>
      <trkpt lat="38.6172520" lon="14.9731620">
        <ele>7.8300000</ele>
        <time>2013-06-11T10:43:43Z</time>
      </trkpt>
      <trkpt lat="38.6169820" lon="14.9727650">
        <ele>8.3100000</ele>
        <time>2013-06-11T10:43:58Z</time>
      </trkpt>
      <trkpt lat="38.6167720" lon="14.9724360">
        <ele>8.3100000</ele>
        <time>2013-06-11T10:44:11Z</time>
      </trkpt>
      <trkpt lat="38.6165500" lon="14.9720270">
        <ele>7.8300000</ele>
        <time>2013-06-11T10:44:25Z</time>
      </trkpt>
      <trkpt lat="38.6163640" lon="14.9716910">
        <ele>8.3100000</ele>
        <time>2013-06-11T10:44:37Z</time>
      </trkpt>
      <trkpt lat="38.6161840" lon="14.9713670">
        <ele>7.8300000</ele>
        <time>2013-06-11T10:44:49Z</time>
      </trkpt>
      <trkpt lat="38.6160010" lon="14.9710140">
        <ele>8.3100000</ele>
        <time>2013-06-11T10:45:02Z</time>
      </trkpt>
      <trkpt lat="38.6158220" lon="14.9706140">
        <ele>8.3100000</ele>
        <time>2013-06-11T10:45:16Z</time>
      </trkpt>
      <trkpt lat="38.6156540" lon="14.9702540">
        <ele>8.7900000</ele>
        <time>2013-06-11T10:45:28Z</time>
      </trkpt>
      <trkpt lat="38.6154370" lon="14.9698100">
        <ele>8.3100000</ele>
        <time>2013-06-11T10:45:43Z</time>
      </trkpt>
      <trkpt lat="38.6152730" lon="14.9695060">
        <ele>8.3100000</ele>
        <time>2013-06-11T10:45:54Z</time>
      </trkpt>
      <trkpt lat="38.6150700" lon="14.9690940">
        <ele>8.7900000</ele>
        <time>2013-06-11T10:46:08Z</time>
      </trkpt>
      <trkpt lat="38.6149020" lon="14.9687860">
        <ele>8.3100000</ele>
        <time>2013-06-11T10:46:19Z</time>
      </trkpt>
      <trkpt lat="38.6146930" lon="14.9684110">
        <ele>8.7900000</ele>
        <time>2013-06-11T10:46:33Z</time>
      </trkpt>
      <trkpt lat="38.6144560" lon="14.9679870">
        <ele>8.7900000</ele>
        <time>2013-06-11T10:46:49Z</time>
      </trkpt>
      <trkpt lat="38.6142810" lon="14.9676300">
        <ele>8.7900000</ele>
        <time>2013-06-11T10:47:02Z</time>
      </trkpt>
      <trkpt lat="38.6141050" lon="14.9673210">
        <ele>9.2700000</ele>
        <time>2013-06-11T10:47:14Z</time>
      </trkpt>
      <trkpt lat="38.6138950" lon="14.9669390">
        <ele>8.7900000</ele>
        <time>2013-06-11T10:47:28Z</time>
      </trkpt>
      <trkpt lat="38.6136890" lon="14.9665350">
        <ele>8.3100000</ele>
        <time>2013-06-11T10:47:42Z</time>
      </trkpt>
      <trkpt lat="38.6135140" lon="14.9661350">
        <ele>8.3100000</ele>
        <time>2013-06-11T10:47:56Z</time>
      </trkpt>
      <trkpt lat="38.6133190" lon="14.9657750">
        <ele>8.7900000</ele>
        <time>2013-06-11T10:48:09Z</time>
      </trkpt>
      <trkpt lat="38.6131100" lon="14.9654320">
        <ele>8.7900000</ele>
        <time>2013-06-11T10:48:21Z</time>
      </trkpt>
      <trkpt lat="38.6128960" lon="14.9651470">
        <ele>9.7500000</ele>
        <time>2013-06-11T10:48:33Z</time>
      </trkpt>
      <trkpt lat="38.6127090" lon="14.9647930">
        <ele>8.7900000</ele>
        <time>2013-06-11T10:48:45Z</time>
      </trkpt>
      <trkpt lat="38.6124610" lon="14.9643940">
        <ele>8.7900000</ele>
        <time>2013-06-11T10:49:00Z</time>
      </trkpt>
      <trkpt lat="38.6124040" lon="14.9642890">
        <ele>7.8300000</ele>
        <time>2013-06-11T10:49:04Z</time>
      </trkpt>
      <trkpt lat="38.6121790" lon="14.9639390">
        <ele>8.7900000</ele>
        <time>2013-06-11T10:49:17Z</time>
      </trkpt>
      <trkpt lat="38.6119730" lon="14.9635680">
        <ele>9.2700000</ele>
        <time>2013-06-11T10:49:30Z</time>
      </trkpt>
      <trkpt lat="38.6118770" lon="14.9633570">
        <ele>8.7900000</ele>
        <time>2013-06-11T10:49:37Z</time>
      </trkpt>
      <trkpt lat="38.6116750" lon="14.9629270">
        <ele>8.7900000</ele>
        <time>2013-06-11T10:49:52Z</time>
      </trkpt>
      <trkpt lat="38.6115000" lon="14.9625800">
        <ele>9.7500000</ele>
        <time>2013-06-11T10:50:04Z</time>
      </trkpt>
      <trkpt lat="38.6112900" lon="14.9621500">
        <ele>9.2700000</ele>
        <time>2013-06-11T10:50:19Z</time>
      </trkpt>
      <trkpt lat="38.6110840" lon="14.9618180">
        <ele>8.7900000</ele>
        <time>2013-06-11T10:50:32Z</time>
      </trkpt>
      <trkpt lat="38.6108090" lon="14.9613400">
        <ele>8.3100000</ele>
        <time>2013-06-11T10:50:49Z</time>
      </trkpt>
      <trkpt lat="38.6105960" lon="14.9609800">
        <ele>9.2700000</ele>
        <time>2013-06-11T10:51:02Z</time>
      </trkpt>
      <trkpt lat="38.6105000" lon="14.9608250">
        <ele>9.7500000</ele>
        <time>2013-06-11T10:51:07Z</time>
      </trkpt>
      <trkpt lat="38.6102680" lon="14.9604230">
        <ele>8.7900000</ele>
        <time>2013-06-11T10:51:22Z</time>
      </trkpt>
      <trkpt lat="38.6100430" lon="14.9600320">
        <ele>8.7900000</ele>
        <time>2013-06-11T10:51:36Z</time>
      </trkpt>
      <trkpt lat="38.6098440" lon="14.9597080">
        <ele>9.2700000</ele>
        <time>2013-06-11T10:51:48Z</time>
      </trkpt>
      <trkpt lat="38.6096270" lon="14.9593130">
        <ele>9.2700000</ele>
        <time>2013-06-11T10:52:02Z</time>
      </trkpt>
      <trkpt lat="38.6094280" lon="14.9589200">
        <ele>10.2300000</ele>
        <time>2013-06-11T10:52:16Z</time>
      </trkpt>
      <trkpt lat="38.6092190" lon="14.9585410">
        <ele>9.2700000</ele>
        <time>2013-06-11T10:52:29Z</time>
      </trkpt>
      <trkpt lat="38.6090700" lon="14.9582720">
        <ele>8.7900000</ele>
        <time>2013-06-11T10:52:38Z</time>
      </trkpt>
      <trkpt lat="38.6088260" lon="14.9578770">
        <ele>8.7900000</ele>
        <time>2013-06-11T10:52:52Z</time>
      </trkpt>
      <trkpt lat="38.6086310" lon="14.9574900">
        <ele>9.7500000</ele>
        <time>2013-06-11T10:53:05Z</time>
      </trkpt>
      <trkpt lat="38.6084180" lon="14.9571540">
        <ele>8.7900000</ele>
        <time>2013-06-11T10:53:18Z</time>
      </trkpt>
      <trkpt lat="38.6081920" lon="14.9567530">
        <ele>9.2700000</ele>
        <time>2013-06-11T10:53:32Z</time>
      </trkpt>
      <trkpt lat="38.6079790" lon="14.9564200">
        <ele>8.7900000</ele>
        <time>2013-06-11T10:53:45Z</time>
      </trkpt>
      <trkpt lat="38.6077380" lon="14.9560540">
        <ele>9.2700000</ele>
        <time>2013-06-11T10:53:59Z</time>
      </trkpt>
      <trkpt lat="38.6075100" lon="14.9556730">
        <ele>9.2700000</ele>
        <time>2013-06-11T10:54:13Z</time>
      </trkpt>
      <trkpt lat="38.6072390" lon="14.9552220">
        <ele>9.7500000</ele>
        <time>2013-06-11T10:54:29Z</time>
      </trkpt>
      <trkpt lat="38.6070290" lon="14.9548040">
        <ele>9.2700000</ele>
        <time>2013-06-11T10:54:44Z</time>
      </trkpt>
      <trkpt lat="38.6069950" lon="14.9547250">
        <ele>9.2700000</ele>
        <time>2013-06-11T10:54:47Z</time>
      </trkpt>
      <trkpt lat="38.6068610" lon="14.9545650">
        <ele>10.2300000</ele>
        <time>2013-06-11T10:54:54Z</time>
      </trkpt>
      <trkpt lat="38.6067120" lon="14.9542300">
        <ele>9.7500000</ele>
        <time>2013-06-11T10:55:06Z</time>
      </trkpt>
      <trkpt lat="38.6065370" lon="14.9538650">
        <ele>9.7500000</ele>
        <time>2013-06-11T10:55:19Z</time>
      </trkpt>
      <trkpt lat="38.6063730" lon="14.9535630">
        <ele>9.2700000</ele>
        <time>2013-06-11T10:55:30Z</time>
      </trkpt>
      <trkpt lat="38.6061060" lon="14.9531560">
        <ele>9.7500000</ele>
        <time>2013-06-11T10:55:45Z</time>
      </trkpt>
      <trkpt lat="38.6059270" lon="14.9528320">
        <ele>9.2700000</ele>
        <time>2013-06-11T10:55:57Z</time>
      </trkpt>
      <trkpt lat="38.6057240" lon="14.9524420">
        <ele>9.7500000</ele>
        <time>2013-06-11T10:56:11Z</time>
      </trkpt>
      <trkpt lat="38.6054880" lon="14.9520420">
        <ele>9.2700000</ele>
        <time>2013-06-11T10:56:25Z</time>
      </trkpt>
      <trkpt lat="38.6052630" lon="14.9516420">
        <ele>9.2700000</ele>
        <time>2013-06-11T10:56:39Z</time>
      </trkpt>
      <trkpt lat="38.6050870" lon="14.9513380">
        <ele>9.2700000</ele>
        <time>2013-06-11T10:56:51Z</time>
      </trkpt>
      <trkpt lat="38.6048620" lon="14.9509330">
        <ele>9.7500000</ele>
        <time>2013-06-11T10:57:06Z</time>
      </trkpt>
      <trkpt lat="38.6046140" lon="14.9505380">
        <ele>9.7500000</ele>
        <time>2013-06-11T10:57:21Z</time>
      </trkpt>
      <trkpt lat="38.6043930" lon="14.9501710">
        <ele>9.2700000</ele>
        <time>2013-06-11T10:57:35Z</time>
      </trkpt>
      <trkpt lat="38.6041640" lon="14.9498330">
        <ele>9.7500000</ele>
        <time>2013-06-11T10:57:48Z</time>
      </trkpt>
      <trkpt lat="38.6039470" lon="14.9494670">
        <ele>9.7500000</ele>
        <time>2013-06-11T10:58:01Z</time>
      </trkpt>
      <trkpt lat="38.6037290" lon="14.9491430">
        <ele>8.7900000</ele>
        <time>2013-06-11T10:58:13Z</time>
      </trkpt>
      <trkpt lat="38.6035120" lon="14.9487750">
        <ele>10.2300000</ele>
        <time>2013-06-11T10:58:27Z</time>
      </trkpt>
      <trkpt lat="38.6033250" lon="14.9484210">
        <ele>9.2700000</ele>
        <time>2013-06-11T10:58:40Z</time>
      </trkpt>
      <trkpt lat="38.6031490" lon="14.9480710">
        <ele>9.2700000</ele>
        <time>2013-06-11T10:58:52Z</time>
      </trkpt>
      <trkpt lat="38.6029240" lon="14.9477080">
        <ele>10.2300000</ele>
        <time>2013-06-11T10:59:05Z</time>
      </trkpt>
      <trkpt lat="38.6026730" lon="14.9473220">
        <ele>8.7900000</ele>
        <time>2013-06-11T10:59:19Z</time>
      </trkpt>
      <trkpt lat="38.6025160" lon="14.9470880">
        <ele>10.2300000</ele>
        <time>2013-06-11T10:59:28Z</time>
      </trkpt>
      <trkpt lat="38.6023140" lon="14.9467810">
        <ele>9.2700000</ele>
        <time>2013-06-11T10:59:40Z</time>
      </trkpt>
      <trkpt lat="38.6020970" lon="14.9464420">
        <ele>9.7500000</ele>
        <time>2013-06-11T10:59:53Z</time>
      </trkpt>
      <trkpt lat="38.6018560" lon="14.9460350">
        <ele>8.3100000</ele>
        <time>2013-06-11T11:00:08Z</time>
      </trkpt>
      <trkpt lat="38.6016850" lon="14.9457440">
        <ele>10.2300000</ele>
        <time>2013-06-11T11:00:19Z</time>
      </trkpt>
      <trkpt lat="38.6014750" lon="14.9453810">
        <ele>8.7900000</ele>
        <time>2013-06-11T11:00:32Z</time>
      </trkpt>
      <trkpt lat="38.6012460" lon="14.9450040">
        <ele>9.2700000</ele>
        <time>2013-06-11T11:00:46Z</time>
      </trkpt>
      <trkpt lat="38.6010250" lon="14.9446480">
        <ele>8.7900000</ele>
        <time>2013-06-11T11:00:59Z</time>
      </trkpt>
      <trkpt lat="38.6007880" lon="14.9443340">
        <ele>9.2700000</ele>
        <time>2013-06-11T11:01:12Z</time>
      </trkpt>
      <trkpt lat="38.6005780" lon="14.9439310">
        <ele>9.2700000</ele>
        <time>2013-06-11T11:01:26Z</time>
      </trkpt>
      <trkpt lat="38.6003910" lon="14.9435950">
        <ele>9.2700000</ele>
        <time>2013-06-11T11:01:38Z</time>
      </trkpt>
      <trkpt lat="38.6001430" lon="14.9431370">
        <ele>9.2700000</ele>
        <time>2013-06-11T11:01:54Z</time>
      </trkpt>
      <trkpt lat="38.5999340" lon="14.9427740">
        <ele>9.2700000</ele>
        <time>2013-06-11T11:02:07Z</time>
      </trkpt>
      <trkpt lat="38.5996820" lon="14.9423840">
        <ele>9.2700000</ele>
        <time>2013-06-11T11:02:21Z</time>
      </trkpt>
      <trkpt lat="38.5994300" lon="14.9420610">
        <ele>9.7500000</ele>
        <time>2013-06-11T11:02:34Z</time>
      </trkpt>
      <trkpt lat="38.5992130" lon="14.9416720">
        <ele>9.7500000</ele>
        <time>2013-06-11T11:02:47Z</time>
      </trkpt>
      <trkpt lat="38.5989990" lon="14.9413470">
        <ele>9.2700000</ele>
        <time>2013-06-11T11:03:00Z</time>
      </trkpt>
      <trkpt lat="38.5988160" lon="14.9409950">
        <ele>9.7500000</ele>
        <time>2013-06-11T11:03:12Z</time>
      </trkpt>
      <trkpt lat="38.5986440" lon="14.9406370">
        <ele>8.7900000</ele>
        <time>2013-06-11T11:03:24Z</time>
      </trkpt>
      <trkpt lat="38.5984650" lon="14.9402310">
        <ele>10.2300000</ele>
        <time>2013-06-11T11:03:38Z</time>
      </trkpt>
      <trkpt lat="38.5982970" lon="14.9398160">
        <ele>9.2700000</ele>
        <time>2013-06-11T11:03:51Z</time>
      </trkpt>
      <trkpt lat="38.5981250" lon="14.9394700">
        <ele>9.2700000</ele>
        <time>2013-06-11T11:04:03Z</time>
      </trkpt>
      <trkpt lat="38.5979160" lon="14.9390540">
        <ele>9.7500000</ele>
        <time>2013-06-11T11:04:17Z</time>
      </trkpt>
      <trkpt lat="38.5977020" lon="14.9387020">
        <ele>9.7500000</ele>
        <time>2013-06-11T11:04:30Z</time>
      </trkpt>
      <trkpt lat="38.5975340" lon="14.9383560">
        <ele>9.2700000</ele>
        <time>2013-06-11T11:04:42Z</time>
      </trkpt>
      <trkpt lat="38.5973090" lon="14.9379350">
        <ele>10.2300000</ele>
        <time>2013-06-11T11:04:57Z</time>
      </trkpt>
      <trkpt lat="38.5970800" lon="14.9375630">
        <ele>9.7500000</ele>
        <time>2013-06-11T11:05:10Z</time>
      </trkpt>
      <trkpt lat="38.5968400" lon="14.9370790">
        <ele>9.2700000</ele>
        <time>2013-06-11T11:05:26Z</time>
      </trkpt>
      <trkpt lat="38.5966380" lon="14.9366560">
        <ele>9.2700000</ele>
        <time>2013-06-11T11:05:40Z</time>
      </trkpt>
      <trkpt lat="38.5964390" lon="14.9361560">
        <ele>9.2700000</ele>
        <time>2013-06-11T11:05:56Z</time>
      </trkpt>
      <trkpt lat="38.5962600" lon="14.9357380">
        <ele>9.2700000</ele>
        <time>2013-06-11T11:06:10Z</time>
      </trkpt>
      <trkpt lat="38.5960620" lon="14.9352640">
        <ele>9.2700000</ele>
        <time>2013-06-11T11:06:26Z</time>
      </trkpt>
      <trkpt lat="38.5958600" lon="14.9348990">
        <ele>8.7900000</ele>
        <time>2013-06-11T11:06:39Z</time>
      </trkpt>
      <trkpt lat="38.5956500" lon="14.9345780">
        <ele>9.2700000</ele>
        <time>2013-06-11T11:06:50Z</time>
      </trkpt>
      <trkpt lat="38.5954060" lon="14.9342220">
        <ele>9.2700000</ele>
        <time>2013-06-11T11:07:04Z</time>
      </trkpt>
      <trkpt lat="38.5952260" lon="14.9338680">
        <ele>10.7100000</ele>
        <time>2013-06-11T11:07:16Z</time>
      </trkpt>
      <trkpt lat="38.5950200" lon="14.9334990">
        <ele>9.7500000</ele>
        <time>2013-06-11T11:07:30Z</time>
      </trkpt>
      <trkpt lat="38.5948070" lon="14.9330980">
        <ele>9.2700000</ele>
        <time>2013-06-11T11:07:44Z</time>
      </trkpt>
      <trkpt lat="38.5946460" lon="14.9327740">
        <ele>8.7900000</ele>
        <time>2013-06-11T11:07:56Z</time>
      </trkpt>
      <trkpt lat="38.5944980" lon="14.9324510">
        <ele>10.2300000</ele>
        <time>2013-06-11T11:08:07Z</time>
      </trkpt>
      <trkpt lat="38.5942960" lon="14.9320510">
        <ele>8.7900000</ele>
        <time>2013-06-11T11:08:21Z</time>
      </trkpt>
      <trkpt lat="38.5940900" lon="14.9316420">
        <ele>9.2700000</ele>
        <time>2013-06-11T11:08:36Z</time>
      </trkpt>
      <trkpt lat="38.5938950" lon="14.9312380">
        <ele>9.7500000</ele>
        <time>2013-06-11T11:08:50Z</time>
      </trkpt>
      <trkpt lat="38.5937160" lon="14.9309260">
        <ele>9.2700000</ele>
        <time>2013-06-11T11:09:02Z</time>
      </trkpt>
      <trkpt lat="38.5935820" lon="14.9306550">
        <ele>9.7500000</ele>
        <time>2013-06-11T11:09:12Z</time>
      </trkpt>
      <trkpt lat="38.5934260" lon="14.9303330">
        <ele>8.7900000</ele>
        <time>2013-06-11T11:09:23Z</time>
      </trkpt>
      <trkpt lat="38.5932580" lon="14.9299630">
        <ele>9.2700000</ele>
        <time>2013-06-11T11:09:35Z</time>
      </trkpt>
      <trkpt lat="38.5930480" lon="14.9295430">
        <ele>8.7900000</ele>
        <time>2013-06-11T11:09:49Z</time>
      </trkpt>
      <trkpt lat="38.5928380" lon="14.9291270">
        <ele>8.7900000</ele>
        <time>2013-06-11T11:10:03Z</time>
      </trkpt>
      <trkpt lat="38.5926700" lon="14.9288080">
        <ele>8.7900000</ele>
        <time>2013-06-11T11:10:14Z</time>
      </trkpt>
      <trkpt lat="38.5924910" lon="14.9284790">
        <ele>8.7900000</ele>
        <time>2013-06-11T11:10:26Z</time>
      </trkpt>
      <trkpt lat="38.5922930" lon="14.9280990">
        <ele>9.2700000</ele>
        <time>2013-06-11T11:10:39Z</time>
      </trkpt>
      <trkpt lat="38.5920330" lon="14.9276520">
        <ele>9.2700000</ele>
        <time>2013-06-11T11:10:55Z</time>
      </trkpt>
      <trkpt lat="38.5920140" lon="14.9276250">
        <ele>9.2700000</ele>
        <time>2013-06-11T11:10:56Z</time>
      </trkpt>
      <trkpt lat="38.5917970" lon="14.9272230">
        <ele>9.2700000</ele>
        <time>2013-06-11T11:11:10Z</time>
      </trkpt>
      <trkpt lat="38.5915570" lon="14.9268720">
        <ele>9.2700000</ele>
        <time>2013-06-11T11:11:23Z</time>
      </trkpt>
      <trkpt lat="38.5912930" lon="14.9265410">
        <ele>9.2700000</ele>
        <time>2013-06-11T11:11:36Z</time>
      </trkpt>
      <trkpt lat="38.5910640" lon="14.9261910">
        <ele>8.7900000</ele>
        <time>2013-06-11T11:11:49Z</time>
      </trkpt>
      <trkpt lat="38.5908430" lon="14.9258380">
        <ele>9.7500000</ele>
        <time>2013-06-11T11:12:02Z</time>
      </trkpt>
      <trkpt lat="38.5906030" lon="14.9254130">
        <ele>9.7500000</ele>
        <time>2013-06-11T11:12:18Z</time>
      </trkpt>
      <trkpt lat="38.5904160" lon="14.9250030">
        <ele>9.7500000</ele>
        <time>2013-06-11T11:12:32Z</time>
      </trkpt>
      <trkpt lat="38.5901830" lon="14.9246400">
        <ele>10.2300000</ele>
        <time>2013-06-11T11:12:46Z</time>
      </trkpt>
      <trkpt lat="38.5899700" lon="14.9243120">
        <ele>9.2700000</ele>
        <time>2013-06-11T11:12:58Z</time>
      </trkpt>
      <trkpt lat="38.5897250" lon="14.9239180">
        <ele>9.7500000</ele>
        <time>2013-06-11T11:13:12Z</time>
      </trkpt>
      <trkpt lat="38.5895040" lon="14.9235600">
        <ele>9.2700000</ele>
        <time>2013-06-11T11:13:25Z</time>
      </trkpt>
      <trkpt lat="38.5892940" lon="14.9232400">
        <ele>9.2700000</ele>
        <time>2013-06-11T11:13:37Z</time>
      </trkpt>
      <trkpt lat="38.5890200" lon="14.9227930">
        <ele>9.2700000</ele>
        <time>2013-06-11T11:13:53Z</time>
      </trkpt>
      <trkpt lat="38.5887990" lon="14.9223470">
        <ele>9.2700000</ele>
        <time>2013-06-11T11:14:08Z</time>
      </trkpt>
      <trkpt lat="38.5885890" lon="14.9219740">
        <ele>9.2700000</ele>
        <time>2013-06-11T11:14:21Z</time>
      </trkpt>
      <trkpt lat="38.5884020" lon="14.9215970">
        <ele>9.2700000</ele>
        <time>2013-06-11T11:14:34Z</time>
      </trkpt>
      <trkpt lat="38.5882070" lon="14.9211520">
        <ele>8.7900000</ele>
        <time>2013-06-11T11:14:49Z</time>
      </trkpt>
      <trkpt lat="38.5880360" lon="14.9207800">
        <ele>9.2700000</ele>
        <time>2013-06-11T11:15:02Z</time>
      </trkpt>
      <trkpt lat="38.5878910" lon="14.9204210">
        <ele>8.7900000</ele>
        <time>2013-06-11T11:15:14Z</time>
      </trkpt>
      <trkpt lat="38.5876770" lon="14.9199750">
        <ele>9.2700000</ele>
        <time>2013-06-11T11:15:30Z</time>
      </trkpt>
      <trkpt lat="38.5874330" lon="14.9195340">
        <ele>8.7900000</ele>
        <time>2013-06-11T11:15:46Z</time>
      </trkpt>
      <trkpt lat="38.5871930" lon="14.9191160">
        <ele>8.7900000</ele>
        <time>2013-06-11T11:16:01Z</time>
      </trkpt>
      <trkpt lat="38.5869640" lon="14.9187260">
        <ele>9.7500000</ele>
        <time>2013-06-11T11:16:14Z</time>
      </trkpt>
      <trkpt lat="38.5867080" lon="14.9183200">
        <ele>9.7500000</ele>
        <time>2013-06-11T11:16:28Z</time>
      </trkpt>
      <trkpt lat="38.5865100" lon="14.9180060">
        <ele>10.2300000</ele>
        <time>2013-06-11T11:16:39Z</time>
      </trkpt>
      <trkpt lat="38.5862770" lon="14.9175750">
        <ele>9.2700000</ele>
        <time>2013-06-11T11:16:54Z</time>
      </trkpt>
      <trkpt lat="38.5860860" lon="14.9172390">
        <ele>8.7900000</ele>
        <time>2013-06-11T11:17:06Z</time>
      </trkpt>
      <trkpt lat="38.5858570" lon="14.9168540">
        <ele>9.2700000</ele>
        <time>2013-06-11T11:17:20Z</time>
      </trkpt>
      <trkpt lat="38.5856820" lon="14.9165450">
        <ele>9.2700000</ele>
        <time>2013-06-11T11:17:31Z</time>
      </trkpt>
      <trkpt lat="38.5854800" lon="14.9160640">
        <ele>9.2700000</ele>
        <time>2013-06-11T11:17:47Z</time>
      </trkpt>
      <trkpt lat="38.5852970" lon="14.9156850">
        <ele>9.2700000</ele>
        <time>2013-06-11T11:18:00Z</time>
      </trkpt>
      <trkpt lat="38.5851020" lon="14.9153110">
        <ele>9.2700000</ele>
        <time>2013-06-11T11:18:13Z</time>
      </trkpt>
      <trkpt lat="38.5848960" lon="14.9149510">
        <ele>8.7900000</ele>
        <time>2013-06-11T11:18:25Z</time>
      </trkpt>
      <trkpt lat="38.5848690" lon="14.9148950">
        <ele>9.7500000</ele>
        <time>2013-06-11T11:18:27Z</time>
      </trkpt>
      <trkpt lat="38.5846750" lon="14.9145540">
        <ele>9.2700000</ele>
        <time>2013-06-11T11:18:39Z</time>
      </trkpt>
      <trkpt lat="38.5844120" lon="14.9141440">
        <ele>9.7500000</ele>
        <time>2013-06-11T11:18:54Z</time>
      </trkpt>
      <trkpt lat="38.5841640" lon="14.9137370">
        <ele>8.7900000</ele>
        <time>2013-06-11T11:19:09Z</time>
      </trkpt>
      <trkpt lat="38.5839770" lon="14.9134490">
        <ele>9.7500000</ele>
        <time>2013-06-11T11:19:20Z</time>
      </trkpt>
      <trkpt lat="38.5837360" lon="14.9130620">
        <ele>9.2700000</ele>
        <time>2013-06-11T11:19:34Z</time>
      </trkpt>
      <trkpt lat="38.5835340" lon="14.9127020">
        <ele>9.2700000</ele>
        <time>2013-06-11T11:19:46Z</time>
      </trkpt>
      <trkpt lat="38.5833930" lon="14.9124780">
        <ele>9.7500000</ele>
        <time>2013-06-11T11:19:54Z</time>
      </trkpt>
      <trkpt lat="38.5830800" lon="14.9121480">
        <ele>8.7900000</ele>
        <time>2013-06-11T11:20:08Z</time>
      </trkpt>
      <trkpt lat="38.5828860" lon="14.9117780">
        <ele>9.7500000</ele>
        <time>2013-06-11T11:20:21Z</time>
      </trkpt>
      <trkpt lat="38.5826610" lon="14.9113230">
        <ele>9.7500000</ele>
        <time>2013-06-11T11:20:37Z</time>
      </trkpt>
      <trkpt lat="38.5824320" lon="14.9109110">
        <ele>9.2700000</ele>
        <time>2013-06-11T11:20:51Z</time>
      </trkpt>
      <trkpt lat="38.5821230" lon="14.9105130">
        <ele>9.7500000</ele>
        <time>2013-06-11T11:21:06Z</time>
      </trkpt>
      <trkpt lat="38.5819020" lon="14.9101850">
        <ele>8.7900000</ele>
        <time>2013-06-11T11:21:18Z</time>
      </trkpt>
      <trkpt lat="38.5816460" lon="14.9097960">
        <ele>9.2700000</ele>
        <time>2013-06-11T11:21:32Z</time>
      </trkpt>
      <trkpt lat="38.5814590" lon="14.9094470">
        <ele>9.2700000</ele>
        <time>2013-06-11T11:21:44Z</time>
      </trkpt>
      <trkpt lat="38.5812300" lon="14.9090550">
        <ele>9.7500000</ele>
        <time>2013-06-11T11:21:58Z</time>
      </trkpt>
      <trkpt lat="38.5809860" lon="14.9086340">
        <ele>10.2300000</ele>
        <time>2013-06-11T11:22:13Z</time>
      </trkpt>
      <trkpt lat="38.5808030" lon="14.9083200">
        <ele>9.7500000</ele>
        <time>2013-06-11T11:22:24Z</time>
      </trkpt>
      <trkpt lat="38.5805780" lon="14.9079070">
        <ele>9.7500000</ele>
        <time>2013-06-11T11:22:38Z</time>
      </trkpt>
      <trkpt lat="38.5803870" lon="14.9075630">
        <ele>9.7500000</ele>
        <time>2013-06-11T11:22:50Z</time>
      </trkpt>
      <trkpt lat="38.5802000" lon="14.9072290">
        <ele>9.7500000</ele>
        <time>2013-06-11T11:23:02Z</time>
      </trkpt>
      <trkpt lat="38.5800020" lon="14.9068320">
        <ele>9.7500000</ele>
        <time>2013-06-11T11:23:15Z</time>
      </trkpt>
      <trkpt lat="38.5797500" lon="14.9064080">
        <ele>10.2300000</ele>
        <time>2013-06-11T11:23:29Z</time>
      </trkpt>
      <trkpt lat="38.5794750" lon="14.9060330">
        <ele>9.7500000</ele>
        <time>2013-06-11T11:23:43Z</time>
      </trkpt>
      <trkpt lat="38.5792200" lon="14.9056200">
        <ele>9.7500000</ele>
        <time>2013-06-11T11:23:57Z</time>
      </trkpt>
      <trkpt lat="38.5789570" lon="14.9052110">
        <ele>9.7500000</ele>
        <time>2013-06-11T11:24:11Z</time>
      </trkpt>
      <trkpt lat="38.5787090" lon="14.9048590">
        <ele>9.7500000</ele>
        <time>2013-06-11T11:24:24Z</time>
      </trkpt>
      <trkpt lat="38.5784570" lon="14.9044630">
        <ele>9.2700000</ele>
        <time>2013-06-11T11:24:38Z</time>
      </trkpt>
      <trkpt lat="38.5781940" lon="14.9040560">
        <ele>10.2300000</ele>
        <time>2013-06-11T11:24:52Z</time>
      </trkpt>
      <trkpt lat="38.5779650" lon="14.9037130">
        <ele>10.2300000</ele>
        <time>2013-06-11T11:25:04Z</time>
      </trkpt>
      <trkpt lat="38.5776980" lon="14.9033450">
        <ele>9.7500000</ele>
        <time>2013-06-11T11:25:18Z</time>
      </trkpt>
      <trkpt lat="38.5773430" lon="14.9029400">
        <ele>9.7500000</ele>
        <time>2013-06-11T11:25:34Z</time>
      </trkpt>
      <trkpt lat="38.5770800" lon="14.9026010">
        <ele>10.2300000</ele>
        <time>2013-06-11T11:25:47Z</time>
      </trkpt>
      <trkpt lat="38.5767860" lon="14.9022210">
        <ele>10.2300000</ele>
        <time>2013-06-11T11:26:01Z</time>
      </trkpt>
      <trkpt lat="38.5765000" lon="14.9018800">
        <ele>10.2300000</ele>
        <time>2013-06-11T11:26:14Z</time>
      </trkpt>
      <trkpt lat="38.5761990" lon="14.9014680">
        <ele>9.2700000</ele>
        <time>2013-06-11T11:26:29Z</time>
      </trkpt>
      <trkpt lat="38.5759160" lon="14.9011300">
        <ele>9.7500000</ele>
        <time>2013-06-11T11:26:42Z</time>
      </trkpt>
      <trkpt lat="38.5756300" lon="14.9007860">
        <ele>10.2300000</ele>
        <time>2013-06-11T11:26:55Z</time>
      </trkpt>
      <trkpt lat="38.5753290" lon="14.9004140">
        <ele>10.2300000</ele>
        <time>2013-06-11T11:27:09Z</time>
      </trkpt>
      <trkpt lat="38.5749860" lon="14.9000230">
        <ele>10.2300000</ele>
        <time>2013-06-11T11:27:24Z</time>
      </trkpt>
      <trkpt lat="38.5746800" lon="14.8996570">
        <ele>9.7500000</ele>
        <time>2013-06-11T11:27:38Z</time>
      </trkpt>
      <trkpt lat="38.5743750" lon="14.8992890">
        <ele>9.7500000</ele>
        <time>2013-06-11T11:27:52Z</time>
      </trkpt>
      <trkpt lat="38.5740510" lon="14.8989890">
        <ele>10.2300000</ele>
        <time>2013-06-11T11:28:05Z</time>
      </trkpt>
      <trkpt lat="38.5737500" lon="14.8986590">
        <ele>10.7100000</ele>
        <time>2013-06-11T11:28:18Z</time>
      </trkpt>
      <trkpt lat="38.5735050" lon="14.8983770">
        <ele>10.7100000</ele>
        <time>2013-06-11T11:28:29Z</time>
      </trkpt>
      <trkpt lat="38.5731240" lon="14.8979880">
        <ele>10.7100000</ele>
        <time>2013-06-11T11:28:45Z</time>
      </trkpt>
      <trkpt lat="38.5728530" lon="14.8976300">
        <ele>10.7100000</ele>
        <time>2013-06-11T11:28:58Z</time>
      </trkpt>
      <trkpt lat="38.5725780" lon="14.8971880">
        <ele>11.1900000</ele>
        <time>2013-06-11T11:29:13Z</time>
      </trkpt>
      <trkpt lat="38.5723110" lon="14.8968160">
        <ele>10.7100000</ele>
        <time>2013-06-11T11:29:26Z</time>
      </trkpt>
      <trkpt lat="38.5719030" lon="14.8963930">
        <ele>10.2300000</ele>
        <time>2013-06-11T11:29:43Z</time>
      </trkpt>
      <trkpt lat="38.5716360" lon="14.8960800">
        <ele>10.7100000</ele>
        <time>2013-06-11T11:29:55Z</time>
      </trkpt>
      <trkpt lat="38.5713120" lon="14.8957340">
        <ele>10.7100000</ele>
        <time>2013-06-11T11:30:09Z</time>
      </trkpt>
      <trkpt lat="38.5710410" lon="14.8954040">
        <ele>10.7100000</ele>
        <time>2013-06-11T11:30:21Z</time>
      </trkpt>
      <trkpt lat="38.5707820" lon="14.8950880">
        <ele>10.7100000</ele>
        <time>2013-06-11T11:30:33Z</time>
      </trkpt>
      <trkpt lat="38.5704920" lon="14.8947450">
        <ele>10.7100000</ele>
        <time>2013-06-11T11:30:46Z</time>
      </trkpt>
      <trkpt lat="38.5701830" lon="14.8943740">
        <ele>10.7100000</ele>
        <time>2013-06-11T11:31:00Z</time>
      </trkpt>
      <trkpt lat="38.5698890" lon="14.8939970">
        <ele>10.7100000</ele>
        <time>2013-06-11T11:31:14Z</time>
      </trkpt>
      <trkpt lat="38.5695500" lon="14.8936120">
        <ele>10.7100000</ele>
        <time>2013-06-11T11:31:29Z</time>
      </trkpt>
      <trkpt lat="38.5691870" lon="14.8932020">
        <ele>10.7100000</ele>
        <time>2013-06-11T11:31:45Z</time>
      </trkpt>
      <trkpt lat="38.5688710" lon="14.8928320">
        <ele>10.7100000</ele>
        <time>2013-06-11T11:31:59Z</time>
      </trkpt>
      <trkpt lat="38.5684430" lon="14.8923330">
        <ele>10.2300000</ele>
        <time>2013-06-11T11:32:18Z</time>
      </trkpt>
      <trkpt lat="38.5680660" lon="14.8918790">
        <ele>10.7100000</ele>
        <time>2013-06-11T11:32:35Z</time>
      </trkpt>
      <trkpt lat="38.5676460" lon="14.8914140">
        <ele>10.7100000</ele>
        <time>2013-06-11T11:32:53Z</time>
      </trkpt>
      <trkpt lat="38.5672760" lon="14.8910000">
        <ele>10.2300000</ele>
        <time>2013-06-11T11:33:09Z</time>
      </trkpt>
      <trkpt lat="38.5669590" lon="14.8906260">
        <ele>10.7100000</ele>
        <time>2013-06-11T11:33:23Z</time>
      </trkpt>
      <trkpt lat="38.5665320" lon="14.8901190">
        <ele>10.7100000</ele>
        <time>2013-06-11T11:33:42Z</time>
      </trkpt>
      <trkpt lat="38.5661770" lon="14.8896420">
        <ele>11.1900000</ele>
        <time>2013-06-11T11:33:59Z</time>
      </trkpt>
      <trkpt lat="38.5658530" lon="14.8892400">
        <ele>11.6700000</ele>
        <time>2013-06-11T11:34:14Z</time>
      </trkpt>
      <trkpt lat="38.5654070" lon="14.8887730">
        <ele>10.2300000</ele>
        <time>2013-06-11T11:34:32Z</time>
      </trkpt>
      <trkpt lat="38.5650600" lon="14.8883230">
        <ele>10.7100000</ele>
        <time>2013-06-11T11:34:48Z</time>
      </trkpt>
      <trkpt lat="38.5646290" lon="14.8878470">
        <ele>9.7500000</ele>
        <time>2013-06-11T11:35:06Z</time>
      </trkpt>
      <trkpt lat="38.5642050" lon="14.8874220">
        <ele>10.2300000</ele>
        <time>2013-06-11T11:35:23Z</time>
      </trkpt>
      <trkpt lat="38.5638080" lon="14.8869650">
        <ele>11.6700000</ele>
        <time>2013-06-11T11:35:40Z</time>
      </trkpt>
      <trkpt lat="38.5634570" lon="14.8865090">
        <ele>10.2300000</ele>
        <time>2013-06-11T11:35:56Z</time>
      </trkpt>
      <trkpt lat="38.5630000" lon="14.8859580">
        <ele>10.2300000</ele>
        <time>2013-06-11T11:36:16Z</time>
      </trkpt>
      <trkpt lat="38.5625610" lon="14.8854750">
        <ele>11.6700000</ele>
        <time>2013-06-11T11:36:34Z</time>
      </trkpt>
      <trkpt lat="38.5621070" lon="14.8849160">
        <ele>10.7100000</ele>
        <time>2013-06-11T11:36:54Z</time>
      </trkpt>
      <trkpt lat="38.5617070" lon="14.8843930">
        <ele>9.7500000</ele>
        <time>2013-06-11T11:37:12Z</time>
      </trkpt>
      <trkpt lat="38.5613330" lon="14.8839750">
        <ele>10.2300000</ele>
        <time>2013-06-11T11:37:27Z</time>
      </trkpt>
      <trkpt lat="38.5609320" lon="14.8834330">
        <ele>11.6700000</ele>
        <time>2013-06-11T11:37:45Z</time>
      </trkpt>
      <trkpt lat="38.5605200" lon="14.8828990">
        <ele>11.1900000</ele>
        <time>2013-06-11T11:38:03Z</time>
      </trkpt>
      <trkpt lat="38.5601160" lon="14.8823840">
        <ele>11.6700000</ele>
        <time>2013-06-11T11:38:21Z</time>
      </trkpt>
      <trkpt lat="38.5596200" lon="14.8817380">
        <ele>11.1900000</ele>
        <time>2013-06-11T11:38:43Z</time>
      </trkpt>
      <trkpt lat="38.5592350" lon="14.8812410">
        <ele>9.7500000</ele>
        <time>2013-06-11T11:39:00Z</time>
      </trkpt>
      <trkpt lat="38.5587620" lon="14.8807370">
        <ele>9.7500000</ele>
        <time>2013-06-11T11:39:19Z</time>
      </trkpt>
      <trkpt lat="38.5582660" lon="14.8801750">
        <ele>10.2300000</ele>
        <time>2013-06-11T11:39:40Z</time>
      </trkpt>
      <trkpt lat="38.5578580" lon="14.8795590">
        <ele>11.1900000</ele>
        <time>2013-06-11T11:40:01Z</time>
      </trkpt>
      <trkpt lat="38.5575260" lon="14.8790150">
        <ele>12.1500000</ele>
        <time>2013-06-11T11:40:19Z</time>
      </trkpt>
      <trkpt lat="38.5571400" lon="14.8784620">
        <ele>11.6700000</ele>
        <time>2013-06-11T11:40:39Z</time>
      </trkpt>
      <trkpt lat="38.5567020" lon="14.8778090">
        <ele>10.2300000</ele>
        <time>2013-06-11T11:41:01Z</time>
      </trkpt>
      <trkpt lat="38.5563960" lon="14.8772780">
        <ele>10.2300000</ele>
        <time>2013-06-11T11:41:19Z</time>
      </trkpt>
      <trkpt lat="38.5560380" lon="14.8765690">
        <ele>9.7500000</ele>
        <time>2013-06-11T11:41:41Z</time>
      </trkpt>
      <trkpt lat="38.5556870" lon="14.8759080">
        <ele>9.7500000</ele>
        <time>2013-06-11T11:42:02Z</time>
      </trkpt>
      <trkpt lat="38.5553590" lon="14.8752720">
        <ele>9.7500000</ele>
        <time>2013-06-11T11:42:24Z</time>
      </trkpt>
      <trkpt lat="38.5551220" lon="14.8747840">
        <ele>9.7500000</ele>
        <time>2013-06-11T11:42:47Z</time>
      </trkpt>
      <trkpt lat="38.5548820" lon="14.8742100">
        <ele>9.7500000</ele>
        <time>2013-06-11T11:43:10Z</time>
      </trkpt>
      <trkpt lat="38.5546910" lon="14.8736450">
        <ele>10.2300000</ele>
        <time>2013-06-11T11:43:32Z</time>
      </trkpt>
      <trkpt lat="38.5544590" lon="14.8730750">
        <ele>9.2700000</ele>
        <time>2013-06-11T11:43:55Z</time>
      </trkpt>
      <trkpt lat="38.5542560" lon="14.8725080">
        <ele>9.2700000</ele>
        <time>2013-06-11T11:44:17Z</time>
      </trkpt>
      <trkpt lat="38.5541270" lon="14.8719400">
        <ele>9.7500000</ele>
        <time>2013-06-11T11:44:38Z</time>
      </trkpt>
      <trkpt lat="38.5542450" lon="14.8714230">
        <ele>9.7500000</ele>
        <time>2013-06-11T11:44:58Z</time>
      </trkpt>
      <trkpt lat="38.5542560" lon="14.8711060">
        <ele>8.3100000</ele>
        <time>2013-06-11T11:45:12Z</time>
      </trkpt>
      <trkpt lat="38.5541570" lon="14.8710770">
        <ele>8.7900000</ele>
        <time>2013-06-11T11:45:28Z</time>
      </trkpt>
      <trkpt lat="38.5543060" lon="14.8710460">
        <ele>9.7500000</ele>
        <time>2013-06-11T11:45:55Z</time>
      </trkpt>
      <trkpt lat="38.5543900" lon="14.8710470">
        <ele>9.7500000</ele>
        <time>2013-06-11T11:46:03Z</time>
      </trkpt>
      <trkpt lat="38.5546840" lon="14.8710280">
        <ele>9.7500000</ele>
        <time>2013-06-11T11:46:32Z</time>
      </trkpt>
      <trkpt lat="38.5548290" lon="14.8710420">
        <ele>9.7500000</ele>
        <time>2013-06-11T11:46:53Z</time>
      </trkpt>
      <trkpt lat="38.5549430" lon="14.8710890">
        <ele>9.7500000</ele>
        <time>2013-06-11T11:47:14Z</time>
      </trkpt>
      <trkpt lat="38.5550770" lon="14.8711400">
        <ele>9.7500000</ele>
        <time>2013-06-11T11:47:40Z</time>
      </trkpt>
      <trkpt lat="38.5551760" lon="14.8711870">
        <ele>8.7900000</ele>
        <time>2013-06-11T11:48:10Z</time>
      </trkpt>
      <trkpt lat="38.5552900" lon="14.8712300">
        <ele>8.7900000</ele>
        <time>2013-06-11T11:48:38Z</time>
      </trkpt>
      <trkpt lat="38.5554350" lon="14.8713070">
        <ele>9.7500000</ele>
        <time>2013-06-11T11:49:06Z</time>
      </trkpt>
      <trkpt lat="38.5556260" lon="14.8714440">
        <ele>8.7900000</ele>
        <time>2013-06-11T11:49:35Z</time>
      </trkpt>
      <trkpt lat="38.5557750" lon="14.8715870">
        <ele>8.7900000</ele>
        <time>2013-06-11T11:50:02Z</time>
      </trkpt>
      <trkpt lat="38.5558510" lon="14.8717050">
        <ele>9.2700000</ele>
        <time>2013-06-11T11:50:15Z</time>
      </trkpt>
      <trkpt lat="38.5559960" lon="14.8720260">
        <ele>9.7500000</ele>
        <time>2013-06-11T11:50:45Z</time>
      </trkpt>
      <trkpt lat="38.5560110" lon="14.8720600">
        <ele>9.2700000</ele>
        <time>2013-06-11T11:51:04Z</time>
      </trkpt>
      <trkpt lat="38.5560110" lon="14.8720620">
        <ele>8.7900000</ele>
        <time>2013-06-11T11:51:33Z</time>
      </trkpt>
      <trkpt lat="38.5560110" lon="14.8720620">
        <ele>9.7500000</ele>
        <time>2013-06-11T11:52:04Z</time>
      </trkpt>
      <trkpt lat="38.5560150" lon="14.8720610">
        <ele>10.2300000</ele>
        <time>2013-06-11T11:52:36Z</time>
      </trkpt>
      <trkpt lat="38.5560150" lon="14.8720520">
        <ele>10.2300000</ele>
        <time>2013-06-11T11:53:07Z</time>
      </trkpt>
      <trkpt lat="38.5560150" lon="14.8720550">
        <ele>10.7100000</ele>
        <time>2013-06-11T11:53:34Z</time>
      </trkpt>
      <trkpt lat="38.5560150" lon="14.8720550">
        <ele>9.7500000</ele>
        <time>2013-06-11T11:54:00Z</time>
      </trkpt>
      <trkpt lat="38.5560230" lon="14.8720580">
        <ele>10.2300000</ele>
        <time>2013-06-11T11:54:28Z</time>
      </trkpt>
      <trkpt lat="38.5560260" lon="14.8720620">
        <ele>10.2300000</ele>
        <time>2013-06-11T11:55:00Z</time>
      </trkpt>
      <trkpt lat="38.5560260" lon="14.8720620">
        <ele>10.7100000</ele>
        <time>2013-06-11T11:55:28Z</time>
      </trkpt>
      <trkpt lat="38.5560300" lon="14.8720640">
        <ele>10.2300000</ele>
        <time>2013-06-11T11:55:54Z</time>
      </trkpt>
      <trkpt lat="38.5560340" lon="14.8720680">
        <ele>10.7100000</ele>
        <time>2013-06-11T11:56:25Z</time>
      </trkpt>
      <trkpt lat="38.5560380" lon="14.8720670">
        <ele>10.7100000</ele>
        <time>2013-06-11T11:56:57Z</time>
      </trkpt>
      <trkpt lat="38.5560380" lon="14.8720670">
        <ele>8.3100000</ele>
        <time>2013-06-11T11:57:26Z</time>
      </trkpt>
      <trkpt lat="38.5560420" lon="14.8720740">
        <ele>11.1900000</ele>
        <time>2013-06-11T11:57:53Z</time>
      </trkpt>
      <trkpt lat="38.5560420" lon="14.8720770">
        <ele>10.7100000</ele>
        <time>2013-06-11T11:58:21Z</time>
      </trkpt>
      <trkpt lat="38.5560420" lon="14.8720770">
        <ele>10.7100000</ele>
        <time>2013-06-11T11:58:49Z</time>
      </trkpt>
      <trkpt lat="38.5560460" lon="14.8720750">
        <ele>11.1900000</ele>
        <time>2013-06-11T11:59:19Z</time>
      </trkpt>
      <trkpt lat="38.5560490" lon="14.8720790">
        <ele>11.1900000</ele>
        <time>2013-06-11T11:59:49Z</time>
      </trkpt>
      <trkpt lat="38.5560530" lon="14.8720780">
        <ele>11.6700000</ele>
        <time>2013-06-11T12:00:21Z</time>
      </trkpt>
      <trkpt lat="38.5560530" lon="14.8720830">
        <ele>11.1900000</ele>
        <time>2013-06-11T12:00:51Z</time>
      </trkpt>
      <trkpt lat="38.5560530" lon="14.8720830">
        <ele>12.1500000</ele>
        <time>2013-06-11T12:01:18Z</time>
      </trkpt>
      <trkpt lat="38.5560490" lon="14.8720800">
        <ele>10.7100000</ele>
        <time>2013-06-11T12:01:34Z</time>
      </trkpt>
    </trkseg>
  </trk>

  <trk>
    <name>Aktueller Track: 12 JUN 2013 07:55</name>
    <extensions>
      <gpxx:TrackExtension xmlns:gpxx="http://www.garmin.com/xmlschemas/GpxExtensions/v3">
        <gpxx:DisplayColor>Blue</gpxx:DisplayColor>
      </gpxx:TrackExtension>
    </extensions>
    <trkseg>
      <trkpt lat="38.5560610" lon="14.8719990">
        <ele>-4.1900000</ele>
        <time>2013-06-12T05:55:12Z</time>
      </trkpt>
      <trkpt lat="38.5560610" lon="14.8719930">
        <ele>-5.1500000</ele>
        <time>2013-06-12T05:55:14Z</time>
      </trkpt>
      <trkpt lat="38.5560300" lon="14.8720340">
        <ele>-5.6300000</ele>
        <time>2013-06-12T05:55:35Z</time>
      </trkpt>
      <trkpt lat="38.5560460" lon="14.8720330">
        <ele>-7.5500000</ele>
        <time>2013-06-12T05:56:04Z</time>
      </trkpt>
      <trkpt lat="38.5560460" lon="14.8720300">
        <ele>-4.6700000</ele>
        <time>2013-06-12T05:56:09Z</time>
      </trkpt>
      <trkpt lat="38.5560340" lon="14.8720490">
        <ele>-3.7100000</ele>
        <time>2013-06-12T05:56:44Z</time>
      </trkpt>
      <trkpt lat="38.5560460" lon="14.8720220">
        <ele>-3.2300000</ele>
        <time>2013-06-12T05:57:14Z</time>
      </trkpt>
      <trkpt lat="38.5560420" lon="14.8720230">
        <ele>-3.7100000</ele>
        <time>2013-06-12T05:57:44Z</time>
      </trkpt>
      <trkpt lat="38.5560420" lon="14.8720230">
        <ele>-2.7500000</ele>
        <time>2013-06-12T05:58:12Z</time>
      </trkpt>
      <trkpt lat="38.5560420" lon="14.8720220">
        <ele>-2.7500000</ele>
        <time>2013-06-12T05:58:41Z</time>
      </trkpt>
      <trkpt lat="38.5560380" lon="14.8720230">
        <ele>-2.2700000</ele>
        <time>2013-06-12T05:59:10Z</time>
      </trkpt>
      <trkpt lat="38.5560380" lon="14.8720210">
        <ele>-2.7500000</ele>
        <time>2013-06-12T05:59:46Z</time>
      </trkpt>
      <trkpt lat="38.5560380" lon="14.8720210">
        <ele>-2.2700000</ele>
        <time>2013-06-12T06:00:17Z</time>
      </trkpt>
      <trkpt lat="38.5560340" lon="14.8720230">
        <ele>-2.7500000</ele>
        <time>2013-06-12T06:00:51Z</time>
      </trkpt>
      <trkpt lat="38.5560340" lon="14.8720300">
        <ele>-2.7500000</ele>
        <time>2013-06-12T06:01:23Z</time>
      </trkpt>
      <trkpt lat="38.5560340" lon="14.8720330">
        <ele>-2.2700000</ele>
        <time>2013-06-12T06:01:49Z</time>
      </trkpt>
      <trkpt lat="38.5560300" lon="14.8720330">
        <ele>-0.8200000</ele>
        <time>2013-06-12T06:02:19Z</time>
      </trkpt>
      <trkpt lat="38.5560300" lon="14.8720330">
        <ele>-0.8200000</ele>
        <time>2013-06-12T06:02:47Z</time>
      </trkpt>
      <trkpt lat="38.5560300" lon="14.8720320">
        <ele>-1.3000000</ele>
        <time>2013-06-12T06:03:20Z</time>
      </trkpt>
      <trkpt lat="38.5560300" lon="14.8720330">
        <ele>-0.8200000</ele>
        <time>2013-06-12T06:03:51Z</time>
      </trkpt>
      <trkpt lat="38.5560300" lon="14.8720340">
        <ele>-0.3400000</ele>
        <time>2013-06-12T06:04:22Z</time>
      </trkpt>
      <trkpt lat="38.5560300" lon="14.8720340">
        <ele>0.1400000</ele>
        <time>2013-06-12T06:04:51Z</time>
      </trkpt>
      <trkpt lat="38.5560260" lon="14.8720350">
        <ele>0.1400000</ele>
        <time>2013-06-12T06:05:20Z</time>
      </trkpt>
      <trkpt lat="38.5560260" lon="14.8720370">
        <ele>0.1400000</ele>
        <time>2013-06-12T06:05:53Z</time>
      </trkpt>
      <trkpt lat="38.5560260" lon="14.8720360">
        <ele>0.1400000</ele>
        <time>2013-06-12T06:06:26Z</time>
      </trkpt>
      <trkpt lat="38.5560260" lon="14.8720350">
        <ele>0.6200000</ele>
        <time>2013-06-12T06:07:00Z</time>
      </trkpt>
      <trkpt lat="38.5560260" lon="14.8720350">
        <ele>0.6200000</ele>
        <time>2013-06-12T06:07:32Z</time>
      </trkpt>
      <trkpt lat="38.5560230" lon="14.8720370">
        <ele>1.5800000</ele>
        <time>2013-06-12T06:08:03Z</time>
      </trkpt>
      <trkpt lat="38.5560230" lon="14.8720420">
        <ele>1.5800000</ele>
        <time>2013-06-12T06:08:38Z</time>
      </trkpt>
      <trkpt lat="38.5560230" lon="14.8720410">
        <ele>2.0600000</ele>
        <time>2013-06-12T06:09:10Z</time>
      </trkpt>
      <trkpt lat="38.5560260" lon="14.8720390">
        <ele>2.0600000</ele>
        <time>2013-06-12T06:09:39Z</time>
      </trkpt>
      <trkpt lat="38.5560260" lon="14.8720390">
        <ele>1.5800000</ele>
        <time>2013-06-12T06:10:10Z</time>
      </trkpt>
      <trkpt lat="38.5560300" lon="14.8720390">
        <ele>2.0600000</ele>
        <time>2013-06-12T06:10:46Z</time>
      </trkpt>
      <trkpt lat="38.5560300" lon="14.8720380">
        <ele>2.0600000</ele>
        <time>2013-06-12T06:11:16Z</time>
      </trkpt>
      <trkpt lat="38.5560260" lon="14.8720350">
        <ele>2.0600000</ele>
        <time>2013-06-12T06:11:48Z</time>
      </trkpt>
      <trkpt lat="38.5560260" lon="14.8720360">
        <ele>2.0600000</ele>
        <time>2013-06-12T06:12:20Z</time>
      </trkpt>
      <trkpt lat="38.5560260" lon="14.8720360">
        <ele>2.5400000</ele>
        <time>2013-06-12T06:12:51Z</time>
      </trkpt>
      <trkpt lat="38.5560300" lon="14.8720360">
        <ele>2.0600000</ele>
        <time>2013-06-12T06:13:20Z</time>
      </trkpt>
      <trkpt lat="38.5560300" lon="14.8720330">
        <ele>1.5800000</ele>
        <time>2013-06-12T06:13:51Z</time>
      </trkpt>
      <trkpt lat="38.5560300" lon="14.8720310">
        <ele>2.5400000</ele>
        <time>2013-06-12T06:14:23Z</time>
      </trkpt>
      <trkpt lat="38.5560300" lon="14.8720310">
        <ele>2.0600000</ele>
        <time>2013-06-12T06:14:57Z</time>
      </trkpt>
      <trkpt lat="38.5560300" lon="14.8720320">
        <ele>2.5400000</ele>
        <time>2013-06-12T06:15:25Z</time>
      </trkpt>
      <trkpt lat="38.5560300" lon="14.8720310">
        <ele>1.5800000</ele>
        <time>2013-06-12T06:15:57Z</time>
      </trkpt>
      <trkpt lat="38.5560340" lon="14.8720320">
        <ele>1.5800000</ele>
        <time>2013-06-12T06:16:27Z</time>
      </trkpt>
      <trkpt lat="38.5560340" lon="14.8720320">
        <ele>2.0600000</ele>
        <time>2013-06-12T06:17:03Z</time>
      </trkpt>
      <trkpt lat="38.5560340" lon="14.8720320">
        <ele>2.0600000</ele>
        <time>2013-06-12T06:17:34Z</time>
      </trkpt>
      <trkpt lat="38.5560300" lon="14.8720330">
        <ele>1.5800000</ele>
        <time>2013-06-12T06:18:07Z</time>
      </trkpt>
      <trkpt lat="38.5560300" lon="14.8720360">
        <ele>1.1000000</ele>
        <time>2013-06-12T06:18:45Z</time>
      </trkpt>
      <trkpt lat="38.5560300" lon="14.8720350">
        <ele>2.5400000</ele>
        <time>2013-06-12T06:19:14Z</time>
      </trkpt>
      <trkpt lat="38.5560300" lon="14.8720360">
        <ele>2.5400000</ele>
        <time>2013-06-12T06:19:44Z</time>
      </trkpt>
      <trkpt lat="38.5560300" lon="14.8720360">
        <ele>2.5400000</ele>
        <time>2013-06-12T06:20:14Z</time>
      </trkpt>
      <trkpt lat="38.5560300" lon="14.8720330">
        <ele>2.5400000</ele>
        <time>2013-06-12T06:20:46Z</time>
      </trkpt>
      <trkpt lat="38.5560300" lon="14.8720350">
        <ele>2.5400000</ele>
        <time>2013-06-12T06:21:20Z</time>
      </trkpt>
      <trkpt lat="38.5560260" lon="14.8720320">
        <ele>2.0600000</ele>
        <time>2013-06-12T06:21:54Z</time>
      </trkpt>
      <trkpt lat="38.5560260" lon="14.8720350">
        <ele>2.0600000</ele>
        <time>2013-06-12T06:22:27Z</time>
      </trkpt>
      <trkpt lat="38.5560260" lon="14.8720380">
        <ele>2.0600000</ele>
        <time>2013-06-12T06:23:03Z</time>
      </trkpt>
      <trkpt lat="38.5560260" lon="14.8720380">
        <ele>1.5800000</ele>
        <time>2013-06-12T06:23:32Z</time>
      </trkpt>
      <trkpt lat="38.5560260" lon="14.8720440">
        <ele>2.5400000</ele>
        <time>2013-06-12T06:24:00Z</time>
      </trkpt>
      <trkpt lat="38.5560260" lon="14.8720440">
        <ele>2.0600000</ele>
        <time>2013-06-12T06:24:27Z</time>
      </trkpt>
      <trkpt lat="38.5560300" lon="14.8720460">
        <ele>2.0600000</ele>
        <time>2013-06-12T06:24:59Z</time>
      </trkpt>
      <trkpt lat="38.5560300" lon="14.8720460">
        <ele>1.5800000</ele>
        <time>2013-06-12T06:25:30Z</time>
      </trkpt>
      <trkpt lat="38.5560260" lon="14.8720460">
        <ele>2.0600000</ele>
        <time>2013-06-12T06:25:59Z</time>
      </trkpt>
      <trkpt lat="38.5560300" lon="14.8720470">
        <ele>2.5400000</ele>
        <time>2013-06-12T06:26:29Z</time>
      </trkpt>
      <trkpt lat="38.5560300" lon="14.8720510">
        <ele>1.5800000</ele>
        <time>2013-06-12T06:27:01Z</time>
      </trkpt>
      <trkpt lat="38.5560300" lon="14.8720510">
        <ele>1.5800000</ele>
        <time>2013-06-12T06:27:30Z</time>
      </trkpt>
      <trkpt lat="38.5560300" lon="14.8720520">
        <ele>1.5800000</ele>
        <time>2013-06-12T06:28:00Z</time>
      </trkpt>
      <trkpt lat="38.5560260" lon="14.8720510">
        <ele>2.0600000</ele>
        <time>2013-06-12T06:28:31Z</time>
      </trkpt>
      <trkpt lat="38.5560300" lon="14.8720500">
        <ele>2.0600000</ele>
        <time>2013-06-12T06:29:05Z</time>
      </trkpt>
      <trkpt lat="38.5560300" lon="14.8720500">
        <ele>2.0600000</ele>
        <time>2013-06-12T06:29:33Z</time>
      </trkpt>
      <trkpt lat="38.5560300" lon="14.8720470">
        <ele>2.0600000</ele>
        <time>2013-06-12T06:30:03Z</time>
      </trkpt>
      <trkpt lat="38.5560260" lon="14.8720500">
        <ele>2.0600000</ele>
        <time>2013-06-12T06:30:32Z</time>
      </trkpt>
      <trkpt lat="38.5560300" lon="14.8720460">
        <ele>2.5400000</ele>
        <time>2013-06-12T06:31:03Z</time>
      </trkpt>
      <trkpt lat="38.5560300" lon="14.8720430">
        <ele>2.0600000</ele>
        <time>2013-06-12T06:31:38Z</time>
      </trkpt>
      <trkpt lat="38.5560300" lon="14.8720430">
        <ele>2.0600000</ele>
        <time>2013-06-12T06:32:08Z</time>
      </trkpt>
      <trkpt lat="38.5560300" lon="14.8720440">
        <ele>2.0600000</ele>
        <time>2013-06-12T06:32:37Z</time>
      </trkpt>
      <trkpt lat="38.5560260" lon="14.8720410">
        <ele>1.1000000</ele>
        <time>2013-06-12T06:33:09Z</time>
      </trkpt>
      <trkpt lat="38.5560260" lon="14.8720390">
        <ele>2.0600000</ele>
        <time>2013-06-12T06:33:42Z</time>
      </trkpt>
      <trkpt lat="38.5560260" lon="14.8720390">
        <ele>3.0200000</ele>
        <time>2013-06-12T06:34:10Z</time>
      </trkpt>
      <trkpt lat="38.5560260" lon="14.8720380">
        <ele>2.5400000</ele>
        <time>2013-06-12T06:34:36Z</time>
      </trkpt>
      <trkpt lat="38.5560300" lon="14.8720370">
        <ele>2.0600000</ele>
        <time>2013-06-12T06:35:06Z</time>
      </trkpt>
      <trkpt lat="38.5560300" lon="14.8720330">
        <ele>1.5800000</ele>
        <time>2013-06-12T06:35:41Z</time>
      </trkpt>
      <trkpt lat="38.5560300" lon="14.8720330">
        <ele>1.5800000</ele>
        <time>2013-06-12T06:36:12Z</time>
      </trkpt>
      <trkpt lat="38.5560340" lon="14.8720340">
        <ele>1.5800000</ele>
        <time>2013-06-12T06:36:44Z</time>
      </trkpt>
      <trkpt lat="38.5560340" lon="14.8720330">
        <ele>2.0600000</ele>
        <time>2013-06-12T06:37:16Z</time>
      </trkpt>
      <trkpt lat="38.5560340" lon="14.8720350">
        <ele>1.5800000</ele>
        <time>2013-06-12T06:37:47Z</time>
      </trkpt>
      <trkpt lat="38.5560340" lon="14.8720330">
        <ele>1.5800000</ele>
        <time>2013-06-12T06:38:21Z</time>
      </trkpt>
      <trkpt lat="38.5560340" lon="14.8720330">
        <ele>2.5400000</ele>
        <time>2013-06-12T06:38:56Z</time>
      </trkpt>
      <trkpt lat="38.5560300" lon="14.8720300">
        <ele>2.5400000</ele>
        <time>2013-06-12T06:39:36Z</time>
      </trkpt>
      <trkpt lat="38.5560340" lon="14.8720320">
        <ele>2.0600000</ele>
        <time>2013-06-12T06:40:09Z</time>
      </trkpt>
      <trkpt lat="38.5560340" lon="14.8720310">
        <ele>3.0200000</ele>
        <time>2013-06-12T06:40:44Z</time>
      </trkpt>
      <trkpt lat="38.5560380" lon="14.8720350">
        <ele>3.0200000</ele>
        <time>2013-06-12T06:41:16Z</time>
      </trkpt>
      <trkpt lat="38.5560420" lon="14.8720370">
        <ele>2.5400000</ele>
        <time>2013-06-12T06:41:50Z</time>
      </trkpt>
      <trkpt lat="38.5560460" lon="14.8720450">
        <ele>2.0600000</ele>
        <time>2013-06-12T06:42:18Z</time>
      </trkpt>
      <trkpt lat="38.5560460" lon="14.8720450">
        <ele>2.5400000</ele>
        <time>2013-06-12T06:42:48Z</time>
      </trkpt>
      <trkpt lat="38.5560460" lon="14.8720450">
        <ele>3.0200000</ele>
        <time>2013-06-12T06:43:22Z</time>
      </trkpt>
      <trkpt lat="38.5560490" lon="14.8720420">
        <ele>2.5400000</ele>
        <time>2013-06-12T06:43:53Z</time>
      </trkpt>
      <trkpt lat="38.5560460" lon="14.8720380">
        <ele>2.0600000</ele>
        <time>2013-06-12T06:44:26Z</time>
      </trkpt>
      <trkpt lat="38.5560460" lon="14.8720380">
        <ele>1.5800000</ele>
        <time>2013-06-12T06:44:53Z</time>
      </trkpt>
      <trkpt lat="38.5560490" lon="14.8720400">
        <ele>2.5400000</ele>
        <time>2013-06-12T06:45:26Z</time>
      </trkpt>
      <trkpt lat="38.5560490" lon="14.8720380">
        <ele>2.5400000</ele>
        <time>2013-06-12T06:46:00Z</time>
      </trkpt>
      <trkpt lat="38.5560490" lon="14.8720370">
        <ele>2.5400000</ele>
        <time>2013-06-12T06:46:32Z</time>
      </trkpt>
      <trkpt lat="38.5560460" lon="14.8720390">
        <ele>2.0600000</ele>
        <time>2013-06-12T06:47:02Z</time>
      </trkpt>
      <trkpt lat="38.5560460" lon="14.8720390">
        <ele>2.5400000</ele>
        <time>2013-06-12T06:47:30Z</time>
      </trkpt>
      <trkpt lat="38.5560460" lon="14.8720360">
        <ele>3.0200000</ele>
        <time>2013-06-12T06:48:01Z</time>
      </trkpt>
      <trkpt lat="38.5560490" lon="14.8720380">
        <ele>2.5400000</ele>
        <time>2013-06-12T06:48:36Z</time>
      </trkpt>
      <trkpt lat="38.5560490" lon="14.8720340">
        <ele>2.5400000</ele>
        <time>2013-06-12T06:49:09Z</time>
      </trkpt>
      <trkpt lat="38.5560460" lon="14.8720360">
        <ele>2.0600000</ele>
        <time>2013-06-12T06:49:41Z</time>
      </trkpt>
      <trkpt lat="38.5560460" lon="14.8720360">
        <ele>2.5400000</ele>
        <time>2013-06-12T06:50:14Z</time>
      </trkpt>
      <trkpt lat="38.5560460" lon="14.8720390">
        <ele>3.0200000</ele>
        <time>2013-06-12T06:50:43Z</time>
      </trkpt>
      <trkpt lat="38.5560460" lon="14.8720410">
        <ele>2.0600000</ele>
        <time>2013-06-12T06:51:19Z</time>
      </trkpt>
      <trkpt lat="38.5560490" lon="14.8720450">
        <ele>2.0600000</ele>
        <time>2013-06-12T06:51:49Z</time>
      </trkpt>
      <trkpt lat="38.5560460" lon="14.8720440">
        <ele>2.0600000</ele>
        <time>2013-06-12T06:52:19Z</time>
      </trkpt>
      <trkpt lat="38.5560460" lon="14.8720440">
        <ele>1.5800000</ele>
        <time>2013-06-12T06:52:50Z</time>
      </trkpt>
      <trkpt lat="38.5560460" lon="14.8720450">
        <ele>1.5800000</ele>
        <time>2013-06-12T06:53:18Z</time>
      </trkpt>
      <trkpt lat="38.5560460" lon="14.8720440">
        <ele>1.1000000</ele>
        <time>2013-06-12T06:53:53Z</time>
      </trkpt>
      <trkpt lat="38.5560460" lon="14.8720430">
        <ele>2.0600000</ele>
        <time>2013-06-12T06:54:23Z</time>
      </trkpt>
      <trkpt lat="38.5560460" lon="14.8720430">
        <ele>1.5800000</ele>
        <time>2013-06-12T06:54:55Z</time>
      </trkpt>
      <trkpt lat="38.5560460" lon="14.8720410">
        <ele>2.0600000</ele>
        <time>2013-06-12T06:55:26Z</time>
      </trkpt>
      <trkpt lat="38.5560460" lon="14.8720410">
        <ele>2.0600000</ele>
        <time>2013-06-12T06:56:00Z</time>
      </trkpt>
      <trkpt lat="38.5560420" lon="14.8720410">
        <ele>1.5800000</ele>
        <time>2013-06-12T06:56:29Z</time>
      </trkpt>
      <trkpt lat="38.5560460" lon="14.8720450">
        <ele>2.0600000</ele>
        <time>2013-06-12T06:57:00Z</time>
      </trkpt>
      <trkpt lat="38.5560460" lon="14.8720450">
        <ele>2.0600000</ele>
        <time>2013-06-12T06:57:31Z</time>
      </trkpt>
      <trkpt lat="38.5560420" lon="14.8720440">
        <ele>1.5800000</ele>
        <time>2013-06-12T06:58:05Z</time>
      </trkpt>
      <trkpt lat="38.5560460" lon="14.8720440">
        <ele>2.0600000</ele>
        <time>2013-06-12T06:58:39Z</time>
      </trkpt>
      <trkpt lat="38.5560460" lon="14.8720440">
        <ele>2.5400000</ele>
        <time>2013-06-12T06:59:07Z</time>
      </trkpt>
      <trkpt lat="38.5560460" lon="14.8720450">
        <ele>2.0600000</ele>
        <time>2013-06-12T06:59:38Z</time>
      </trkpt>
      <trkpt lat="38.5560460" lon="14.8720450">
        <ele>2.5400000</ele>
        <time>2013-06-12T07:00:10Z</time>
      </trkpt>
      <trkpt lat="38.5560460" lon="14.8720450">
        <ele>3.0200000</ele>
        <time>2013-06-12T07:00:38Z</time>
      </trkpt>
      <trkpt lat="38.5560460" lon="14.8720470">
        <ele>2.0600000</ele>
        <time>2013-06-12T07:01:07Z</time>
      </trkpt>
      <trkpt lat="38.5560460" lon="14.8720470">
        <ele>2.5400000</ele>
        <time>2013-06-12T07:01:37Z</time>
      </trkpt>
      <trkpt lat="38.5560460" lon="14.8720480">
        <ele>2.0600000</ele>
        <time>2013-06-12T07:02:08Z</time>
      </trkpt>
      <trkpt lat="38.5560460" lon="14.8720460">
        <ele>2.0600000</ele>
        <time>2013-06-12T07:02:38Z</time>
      </trkpt>
      <trkpt lat="38.5560460" lon="14.8720460">
        <ele>1.5800000</ele>
        <time>2013-06-12T07:03:08Z</time>
      </trkpt>
      <trkpt lat="38.5560460" lon="14.8720460">
        <ele>2.5400000</ele>
        <time>2013-06-12T07:03:37Z</time>
      </trkpt>
      <trkpt lat="38.5560460" lon="14.8720460">
        <ele>3.0200000</ele>
        <time>2013-06-12T07:04:07Z</time>
      </trkpt>
      <trkpt lat="38.5560460" lon="14.8720460">
        <ele>2.5400000</ele>
        <time>2013-06-12T07:04:39Z</time>
      </trkpt>
      <trkpt lat="38.5560460" lon="14.8720460">
        <ele>2.0600000</ele>
        <time>2013-06-12T07:05:11Z</time>
      </trkpt>
      <trkpt lat="38.5560460" lon="14.8720460">
        <ele>3.0200000</ele>
        <time>2013-06-12T07:05:37Z</time>
      </trkpt>
      <trkpt lat="38.5560420" lon="14.8720490">
        <ele>3.0200000</ele>
        <time>2013-06-12T07:06:06Z</time>
      </trkpt>
      <trkpt lat="38.5560420" lon="14.8720480">
        <ele>2.5400000</ele>
        <time>2013-06-12T07:06:34Z</time>
      </trkpt>
      <trkpt lat="38.5560420" lon="14.8720480">
        <ele>3.0200000</ele>
        <time>2013-06-12T07:07:04Z</time>
      </trkpt>
      <trkpt lat="38.5560420" lon="14.8720480">
        <ele>3.5000000</ele>
        <time>2013-06-12T07:07:15Z</time>
      </trkpt>
      <trkpt lat="38.5560610" lon="14.8719020">
        <ele>3.0200000</ele>
        <time>2013-06-12T07:07:42Z</time>
      </trkpt>
      <trkpt lat="38.5560610" lon="14.8717220">
        <ele>3.0200000</ele>
        <time>2013-06-12T07:08:10Z</time>
      </trkpt>
      <trkpt lat="38.5559580" lon="14.8716660">
        <ele>3.5000000</ele>
        <time>2013-06-12T07:08:35Z</time>
      </trkpt>
      <trkpt lat="38.5558740" lon="14.8716230">
        <ele>3.5000000</ele>
        <time>2013-06-12T07:08:42Z</time>
      </trkpt>
      <trkpt lat="38.5555690" lon="14.8714640">
        <ele>3.0200000</ele>
        <time>2013-06-12T07:09:10Z</time>
      </trkpt>
      <trkpt lat="38.5553670" lon="14.8713670">
        <ele>3.0200000</ele>
        <time>2013-06-12T07:09:27Z</time>
      </trkpt>
      <trkpt lat="38.5550960" lon="14.8712750">
        <ele>3.5000000</ele>
        <time>2013-06-12T07:09:48Z</time>
      </trkpt>
      <trkpt lat="38.5547710" lon="14.8712040">
        <ele>3.9800000</ele>
        <time>2013-06-12T07:10:13Z</time>
      </trkpt>
      <trkpt lat="38.5544740" lon="14.8711970">
        <ele>3.5000000</ele>
        <time>2013-06-12T07:10:37Z</time>
      </trkpt>
      <trkpt lat="38.5542030" lon="14.8712620">
        <ele>3.5000000</ele>
        <time>2013-06-12T07:10:58Z</time>
      </trkpt>
      <trkpt lat="38.5539670" lon="14.8714440">
        <ele>4.4600000</ele>
        <time>2013-06-12T07:11:20Z</time>
      </trkpt>
      <trkpt lat="38.5537910" lon="14.8717270">
        <ele>4.4600000</ele>
        <time>2013-06-12T07:11:43Z</time>
      </trkpt>
      <trkpt lat="38.5537530" lon="14.8720140">
        <ele>4.4600000</ele>
        <time>2013-06-12T07:12:06Z</time>
      </trkpt>
      <trkpt lat="38.5538250" lon="14.8722350">
        <ele>3.5000000</ele>
        <time>2013-06-12T07:12:25Z</time>
      </trkpt>
      <trkpt lat="38.5538410" lon="14.8722850">
        <ele>3.5000000</ele>
        <time>2013-06-12T07:12:29Z</time>
      </trkpt>
      <trkpt lat="38.5539700" lon="14.8726780">
        <ele>3.5000000</ele>
        <time>2013-06-12T07:12:52Z</time>
      </trkpt>
      <trkpt lat="38.5542680" lon="14.8732820">
        <ele>2.5400000</ele>
        <time>2013-06-12T07:13:14Z</time>
      </trkpt>
      <trkpt lat="38.5546650" lon="14.8739820">
        <ele>3.5000000</ele>
        <time>2013-06-12T07:13:39Z</time>
      </trkpt>
      <trkpt lat="38.5551070" lon="14.8746140">
        <ele>3.0200000</ele>
        <time>2013-06-12T07:14:03Z</time>
      </trkpt>
      <trkpt lat="38.5556720" lon="14.8751770">
        <ele>3.0200000</ele>
        <time>2013-06-12T07:14:30Z</time>
      </trkpt>
      <trkpt lat="38.5561680" lon="14.8756200">
        <ele>3.9800000</ele>
        <time>2013-06-12T07:14:53Z</time>
      </trkpt>
      <trkpt lat="38.5566710" lon="14.8759620">
        <ele>3.9800000</ele>
        <time>2013-06-12T07:15:15Z</time>
      </trkpt>
      <trkpt lat="38.5571560" lon="14.8762220">
        <ele>4.9400000</ele>
        <time>2013-06-12T07:15:36Z</time>
      </trkpt>
      <trkpt lat="38.5576170" lon="14.8764080">
        <ele>4.9400000</ele>
        <time>2013-06-12T07:15:56Z</time>
      </trkpt>
      <trkpt lat="38.5581670" lon="14.8766300">
        <ele>4.4600000</ele>
        <time>2013-06-12T07:16:19Z</time>
      </trkpt>
      <trkpt lat="38.5587160" lon="14.8767730">
        <ele>4.4600000</ele>
        <time>2013-06-12T07:16:40Z</time>
      </trkpt>
      <trkpt lat="38.5592730" lon="14.8769690">
        <ele>3.9800000</ele>
        <time>2013-06-12T07:17:03Z</time>
      </trkpt>
      <trkpt lat="38.5597610" lon="14.8771510">
        <ele>4.4600000</ele>
        <time>2013-06-12T07:17:23Z</time>
      </trkpt>
      <trkpt lat="38.5603260" lon="14.8773660">
        <ele>5.9100000</ele>
        <time>2013-06-12T07:17:46Z</time>
      </trkpt>
      <trkpt lat="38.5609020" lon="14.8775940">
        <ele>4.9400000</ele>
        <time>2013-06-12T07:18:10Z</time>
      </trkpt>
      <trkpt lat="38.5614400" lon="14.8777460">
        <ele>5.9100000</ele>
        <time>2013-06-12T07:18:32Z</time>
      </trkpt>
      <trkpt lat="38.5620730" lon="14.8778880">
        <ele>4.9400000</ele>
        <time>2013-06-12T07:18:57Z</time>
      </trkpt>
      <trkpt lat="38.5626490" lon="14.8780780">
        <ele>5.4200000</ele>
        <time>2013-06-12T07:19:21Z</time>
      </trkpt>
      <trkpt lat="38.5631600" lon="14.8782420">
        <ele>5.9100000</ele>
        <time>2013-06-12T07:19:42Z</time>
      </trkpt>
      <trkpt lat="38.5636750" lon="14.8784610">
        <ele>5.9100000</ele>
        <time>2013-06-12T07:20:04Z</time>
      </trkpt>
      <trkpt lat="38.5642010" lon="14.8785980">
        <ele>5.9100000</ele>
        <time>2013-06-12T07:20:25Z</time>
      </trkpt>
      <trkpt lat="38.5647850" lon="14.8787400">
        <ele>5.4200000</ele>
        <time>2013-06-12T07:20:49Z</time>
      </trkpt>
      <trkpt lat="38.5652920" lon="14.8788770">
        <ele>6.8700000</ele>
        <time>2013-06-12T07:21:10Z</time>
      </trkpt>
      <trkpt lat="38.5657200" lon="14.8789380">
        <ele>6.8700000</ele>
        <time>2013-06-12T07:21:28Z</time>
      </trkpt>
      <trkpt lat="38.5662190" lon="14.8789500">
        <ele>5.4200000</ele>
        <time>2013-06-12T07:21:48Z</time>
      </trkpt>
      <trkpt lat="38.5667720" lon="14.8789570">
        <ele>4.9400000</ele>
        <time>2013-06-12T07:22:11Z</time>
      </trkpt>
      <trkpt lat="38.5673410" lon="14.8789630">
        <ele>5.9100000</ele>
        <time>2013-06-12T07:22:34Z</time>
      </trkpt>
      <trkpt lat="38.5678220" lon="14.8789780">
        <ele>4.9400000</ele>
        <time>2013-06-12T07:22:54Z</time>
      </trkpt>
      <trkpt lat="38.5683330" lon="14.8790020">
        <ele>5.4200000</ele>
        <time>2013-06-12T07:23:14Z</time>
      </trkpt>
      <trkpt lat="38.5688630" lon="14.8789730">
        <ele>5.9100000</ele>
        <time>2013-06-12T07:23:35Z</time>
      </trkpt>
      <trkpt lat="38.5694240" lon="14.8789410">
        <ele>5.4200000</ele>
        <time>2013-06-12T07:23:57Z</time>
      </trkpt>
      <trkpt lat="38.5699690" lon="14.8788840">
        <ele>5.4200000</ele>
        <time>2013-06-12T07:24:18Z</time>
      </trkpt>
      <trkpt lat="38.5704990" lon="14.8788150">
        <ele>5.4200000</ele>
        <time>2013-06-12T07:24:39Z</time>
      </trkpt>
      <trkpt lat="38.5710910" lon="14.8787570">
        <ele>6.8700000</ele>
        <time>2013-06-12T07:25:02Z</time>
      </trkpt>
      <trkpt lat="38.5716480" lon="14.8786750">
        <ele>3.9800000</ele>
        <time>2013-06-12T07:25:25Z</time>
      </trkpt>
      <trkpt lat="38.5721820" lon="14.8786820">
        <ele>3.5000000</ele>
        <time>2013-06-12T07:25:46Z</time>
      </trkpt>
      <trkpt lat="38.5726510" lon="14.8786690">
        <ele>3.9800000</ele>
        <time>2013-06-12T07:26:05Z</time>
      </trkpt>
      <trkpt lat="38.5731240" lon="14.8785930">
        <ele>3.9800000</ele>
        <time>2013-06-12T07:26:25Z</time>
      </trkpt>
      <trkpt lat="38.5735860" lon="14.8785460">
        <ele>4.4600000</ele>
        <time>2013-06-12T07:26:44Z</time>
      </trkpt>
      <trkpt lat="38.5740130" lon="14.8784890">
        <ele>4.4600000</ele>
        <time>2013-06-12T07:27:03Z</time>
      </trkpt>
      <trkpt lat="38.5745120" lon="14.8784120">
        <ele>4.9400000</ele>
        <time>2013-06-12T07:27:27Z</time>
      </trkpt>
      <trkpt lat="38.5748940" lon="14.8783550">
        <ele>4.4600000</ele>
        <time>2013-06-12T07:27:45Z</time>
      </trkpt>
      <trkpt lat="38.5753940" lon="14.8782600">
        <ele>4.9400000</ele>
        <time>2013-06-12T07:28:08Z</time>
      </trkpt>
      <trkpt lat="38.5758090" lon="14.8781800">
        <ele>3.9800000</ele>
        <time>2013-06-12T07:28:27Z</time>
      </trkpt>
      <trkpt lat="38.5762480" lon="14.8780620">
        <ele>4.4600000</ele>
        <time>2013-06-12T07:28:48Z</time>
      </trkpt>
      <trkpt lat="38.5766750" lon="14.8779570">
        <ele>3.0200000</ele>
        <time>2013-06-12T07:29:08Z</time>
      </trkpt>
      <trkpt lat="38.5771870" lon="14.8777360">
        <ele>3.0200000</ele>
        <time>2013-06-12T07:29:32Z</time>
      </trkpt>
      <trkpt lat="38.5775870" lon="14.8775870">
        <ele>3.0200000</ele>
        <time>2013-06-12T07:29:50Z</time>
      </trkpt>
      <trkpt lat="38.5780450" lon="14.8774540">
        <ele>2.5400000</ele>
        <time>2013-06-12T07:30:11Z</time>
      </trkpt>
      <trkpt lat="38.5784380" lon="14.8773210">
        <ele>2.0600000</ele>
        <time>2013-06-12T07:30:29Z</time>
      </trkpt>
      <trkpt lat="38.5788760" lon="14.8771480">
        <ele>3.0200000</ele>
        <time>2013-06-12T07:30:51Z</time>
      </trkpt>
      <trkpt lat="38.5792200" lon="14.8770470">
        <ele>2.5400000</ele>
        <time>2013-06-12T07:31:07Z</time>
      </trkpt>
      <trkpt lat="38.5796130" lon="14.8768750">
        <ele>2.0600000</ele>
        <time>2013-06-12T07:31:26Z</time>
      </trkpt>
      <trkpt lat="38.5800130" lon="14.8766800">
        <ele>2.0600000</ele>
        <time>2013-06-12T07:31:46Z</time>
      </trkpt>
      <trkpt lat="38.5803600" lon="14.8765570">
        <ele>2.5400000</ele>
        <time>2013-06-12T07:32:03Z</time>
      </trkpt>
      <trkpt lat="38.5806880" lon="14.8764040">
        <ele>2.0600000</ele>
        <time>2013-06-12T07:32:20Z</time>
      </trkpt>
      <trkpt lat="38.5810170" lon="14.8761980">
        <ele>2.5400000</ele>
        <time>2013-06-12T07:32:37Z</time>
      </trkpt>
      <trkpt lat="38.5812870" lon="14.8760370">
        <ele>2.5400000</ele>
        <time>2013-06-12T07:32:51Z</time>
      </trkpt>
      <trkpt lat="38.5816150" lon="14.8758310">
        <ele>2.5400000</ele>
        <time>2013-06-12T07:33:08Z</time>
      </trkpt>
      <trkpt lat="38.5818980" lon="14.8756590">
        <ele>2.5400000</ele>
        <time>2013-06-12T07:33:23Z</time>
      </trkpt>
      <trkpt lat="38.5821760" lon="14.8755110">
        <ele>2.0600000</ele>
        <time>2013-06-12T07:33:38Z</time>
      </trkpt>
      <trkpt lat="38.5824700" lon="14.8753470">
        <ele>2.0600000</ele>
        <time>2013-06-12T07:33:53Z</time>
      </trkpt>
      <trkpt lat="38.5828060" lon="14.8750940">
        <ele>2.0600000</ele>
        <time>2013-06-12T07:34:11Z</time>
      </trkpt>
      <trkpt lat="38.5830540" lon="14.8747930">
        <ele>1.5800000</ele>
        <time>2013-06-12T07:34:27Z</time>
      </trkpt>
      <trkpt lat="38.5832900" lon="14.8744040">
        <ele>2.0600000</ele>
        <time>2013-06-12T07:34:46Z</time>
      </trkpt>
      <trkpt lat="38.5835080" lon="14.8741090">
        <ele>1.5800000</ele>
        <time>2013-06-12T07:35:02Z</time>
      </trkpt>
      <trkpt lat="38.5837250" lon="14.8738450">
        <ele>2.5400000</ele>
        <time>2013-06-12T07:35:19Z</time>
      </trkpt>
      <trkpt lat="38.5839840" lon="14.8736140">
        <ele>2.5400000</ele>
        <time>2013-06-12T07:35:35Z</time>
      </trkpt>
      <trkpt lat="38.5842780" lon="14.8733030">
        <ele>2.5400000</ele>
        <time>2013-06-12T07:35:53Z</time>
      </trkpt>
      <trkpt lat="38.5845030" lon="14.8729800">
        <ele>2.0600000</ele>
        <time>2013-06-12T07:36:09Z</time>
      </trkpt>
      <trkpt lat="38.5847170" lon="14.8726970">
        <ele>2.0600000</ele>
        <time>2013-06-12T07:36:24Z</time>
      </trkpt>
      <trkpt lat="38.5849000" lon="14.8723930">
        <ele>2.0600000</ele>
        <time>2013-06-12T07:36:39Z</time>
      </trkpt>
      <trkpt lat="38.5851100" lon="14.8720260">
        <ele>2.0600000</ele>
        <time>2013-06-12T07:36:56Z</time>
      </trkpt>
      <trkpt lat="38.5852660" lon="14.8717190">
        <ele>2.0600000</ele>
        <time>2013-06-12T07:37:11Z</time>
      </trkpt>
      <trkpt lat="38.5854420" lon="14.8714270">
        <ele>2.5400000</ele>
        <time>2013-06-12T07:37:25Z</time>
      </trkpt>
      <trkpt lat="38.5856210" lon="14.8711180">
        <ele>2.5400000</ele>
        <time>2013-06-12T07:37:41Z</time>
      </trkpt>
      <trkpt lat="38.5858120" lon="14.8708270">
        <ele>2.5400000</ele>
        <time>2013-06-12T07:37:57Z</time>
      </trkpt>
      <trkpt lat="38.5860520" lon="14.8705410">
        <ele>2.0600000</ele>
        <time>2013-06-12T07:38:13Z</time>
      </trkpt>
      <trkpt lat="38.5862960" lon="14.8702550">
        <ele>2.0600000</ele>
        <time>2013-06-12T07:38:29Z</time>
      </trkpt>
      <trkpt lat="38.5864600" lon="14.8699410">
        <ele>1.5800000</ele>
        <time>2013-06-12T07:38:44Z</time>
      </trkpt>
      <trkpt lat="38.5866090" lon="14.8696040">
        <ele>2.0600000</ele>
        <time>2013-06-12T07:38:59Z</time>
      </trkpt>
      <trkpt lat="38.5867200" lon="14.8692960">
        <ele>2.0600000</ele>
        <time>2013-06-12T07:39:12Z</time>
      </trkpt>
      <trkpt lat="38.5868640" lon="14.8689470">
        <ele>2.0600000</ele>
        <time>2013-06-12T07:39:27Z</time>
      </trkpt>
      <trkpt lat="38.5870290" lon="14.8685940">
        <ele>1.5800000</ele>
        <time>2013-06-12T07:39:43Z</time>
      </trkpt>
      <trkpt lat="38.5871930" lon="14.8682800">
        <ele>2.0600000</ele>
        <time>2013-06-12T07:39:58Z</time>
      </trkpt>
      <trkpt lat="38.5873490" lon="14.8679500">
        <ele>1.1000000</ele>
        <time>2013-06-12T07:40:14Z</time>
      </trkpt>
      <trkpt lat="38.5874940" lon="14.8676820">
        <ele>1.5800000</ele>
        <time>2013-06-12T07:40:27Z</time>
      </trkpt>
      <trkpt lat="38.5876580" lon="14.8673540">
        <ele>1.5800000</ele>
        <time>2013-06-12T07:40:42Z</time>
      </trkpt>
      <trkpt lat="38.5877880" lon="14.8670360">
        <ele>1.5800000</ele>
        <time>2013-06-12T07:40:56Z</time>
      </trkpt>
      <trkpt lat="38.5878600" lon="14.8666090">
        <ele>1.5800000</ele>
        <time>2013-06-12T07:41:12Z</time>
      </trkpt>
      <trkpt lat="38.5879250" lon="14.8662530">
        <ele>1.5800000</ele>
        <time>2013-06-12T07:41:26Z</time>
      </trkpt>
      <trkpt lat="38.5879970" lon="14.8658460">
        <ele>0.6200000</ele>
        <time>2013-06-12T07:41:41Z</time>
      </trkpt>
      <trkpt lat="38.5880430" lon="14.8655500">
        <ele>0.6200000</ele>
        <time>2013-06-12T07:41:52Z</time>
      </trkpt>
      <trkpt lat="38.5880430" lon="14.8655280">
        <ele>1.1000000</ele>
        <time>2013-06-12T07:41:53Z</time>
      </trkpt>
      <trkpt lat="38.5881540" lon="14.8650750">
        <ele>1.1000000</ele>
        <time>2013-06-12T07:42:10Z</time>
      </trkpt>
      <trkpt lat="38.5882340" lon="14.8647760">
        <ele>1.1000000</ele>
        <time>2013-06-12T07:42:23Z</time>
      </trkpt>
      <trkpt lat="38.5883370" lon="14.8644680">
        <ele>1.1000000</ele>
        <time>2013-06-12T07:42:36Z</time>
      </trkpt>
      <trkpt lat="38.5884250" lon="14.8641760">
        <ele>1.5800000</ele>
        <time>2013-06-12T07:42:49Z</time>
      </trkpt>
      <trkpt lat="38.5885240" lon="14.8638130">
        <ele>1.1000000</ele>
        <time>2013-06-12T07:43:03Z</time>
      </trkpt>
      <trkpt lat="38.5885770" lon="14.8634850">
        <ele>0.6200000</ele>
        <time>2013-06-12T07:43:16Z</time>
      </trkpt>
      <trkpt lat="38.5886270" lon="14.8631420">
        <ele>0.6200000</ele>
        <time>2013-06-12T07:43:29Z</time>
      </trkpt>
      <trkpt lat="38.5886800" lon="14.8628330">
        <ele>1.1000000</ele>
        <time>2013-06-12T07:43:41Z</time>
      </trkpt>
      <trkpt lat="38.5887220" lon="14.8624770">
        <ele>0.6200000</ele>
        <time>2013-06-12T07:43:55Z</time>
      </trkpt>
      <trkpt lat="38.5888020" lon="14.8621430">
        <ele>1.1000000</ele>
        <time>2013-06-12T07:44:09Z</time>
      </trkpt>
      <trkpt lat="38.5889210" lon="14.8618490">
        <ele>0.6200000</ele>
        <time>2013-06-12T07:44:23Z</time>
      </trkpt>
      <trkpt lat="38.5890010" lon="14.8615650">
        <ele>0.6200000</ele>
        <time>2013-06-12T07:44:35Z</time>
      </trkpt>
      <trkpt lat="38.5890770" lon="14.8612430">
        <ele>0.6200000</ele>
        <time>2013-06-12T07:44:48Z</time>
      </trkpt>
      <trkpt lat="38.5891040" lon="14.8611370">
        <ele>0.6200000</ele>
        <time>2013-06-12T07:44:52Z</time>
      </trkpt>
      <trkpt lat="38.5891000" lon="14.8609700">
        <ele>0.6200000</ele>
        <time>2013-06-12T07:44:59Z</time>
      </trkpt>
      <trkpt lat="38.5891610" lon="14.8605610">
        <ele>0.6200000</ele>
        <time>2013-06-12T07:45:13Z</time>
      </trkpt>
      <trkpt lat="38.5892070" lon="14.8601720">
        <ele>0.6200000</ele>
        <time>2013-06-12T07:45:28Z</time>
      </trkpt>
      <trkpt lat="38.5892640" lon="14.8598060">
        <ele>1.5800000</ele>
        <time>2013-06-12T07:45:43Z</time>
      </trkpt>
      <trkpt lat="38.5893440" lon="14.8595360">
        <ele>0.6200000</ele>
        <time>2013-06-12T07:45:55Z</time>
      </trkpt>
      <trkpt lat="38.5894240" lon="14.8591970">
        <ele>1.1000000</ele>
        <time>2013-06-12T07:46:09Z</time>
      </trkpt>
      <trkpt lat="38.5894850" lon="14.8588440">
        <ele>0.6200000</ele>
        <time>2013-06-12T07:46:23Z</time>
      </trkpt>
      <trkpt lat="38.5896150" lon="14.8584700">
        <ele>0.6200000</ele>
        <time>2013-06-12T07:46:38Z</time>
      </trkpt>
      <trkpt lat="38.5897030" lon="14.8581440">
        <ele>1.1000000</ele>
        <time>2013-06-12T07:46:50Z</time>
      </trkpt>
      <trkpt lat="38.5897560" lon="14.8577920">
        <ele>0.6200000</ele>
        <time>2013-06-12T07:47:03Z</time>
      </trkpt>
      <trkpt lat="38.5898060" lon="14.8575180">
        <ele>0.6200000</ele>
        <time>2013-06-12T07:47:14Z</time>
      </trkpt>
      <trkpt lat="38.5898400" lon="14.8572140">
        <ele>0.6200000</ele>
        <time>2013-06-12T07:47:28Z</time>
      </trkpt>
      <trkpt lat="38.5899160" lon="14.8568340">
        <ele>0.6200000</ele>
        <time>2013-06-12T07:47:43Z</time>
      </trkpt>
      <trkpt lat="38.5900040" lon="14.8565620">
        <ele>1.1000000</ele>
        <time>2013-06-12T07:47:55Z</time>
      </trkpt>
      <trkpt lat="38.5901150" lon="14.8561420">
        <ele>0.6200000</ele>
        <time>2013-06-12T07:48:11Z</time>
      </trkpt>
      <trkpt lat="38.5901370" lon="14.8557480">
        <ele>1.1000000</ele>
        <time>2013-06-12T07:48:25Z</time>
      </trkpt>
      <trkpt lat="38.5901910" lon="14.8553750">
        <ele>0.6200000</ele>
        <time>2013-06-12T07:48:40Z</time>
      </trkpt>
      <trkpt lat="38.5902520" lon="14.8550340">
        <ele>1.1000000</ele>
        <time>2013-06-12T07:48:52Z</time>
      </trkpt>
      <trkpt lat="38.5903090" lon="14.8547000">
        <ele>0.6200000</ele>
        <time>2013-06-12T07:49:05Z</time>
      </trkpt>
      <trkpt lat="38.5904080" lon="14.8542830">
        <ele>1.1000000</ele>
        <time>2013-06-12T07:49:21Z</time>
      </trkpt>
      <trkpt lat="38.5905000" lon="14.8538800">
        <ele>1.1000000</ele>
        <time>2013-06-12T07:49:36Z</time>
      </trkpt>
      <trkpt lat="38.5905570" lon="14.8534940">
        <ele>0.6200000</ele>
        <time>2013-06-12T07:49:52Z</time>
      </trkpt>
      <trkpt lat="38.5906180" lon="14.8531590">
        <ele>1.1000000</ele>
        <time>2013-06-12T07:50:05Z</time>
      </trkpt>
      <trkpt lat="38.5906720" lon="14.8528190">
        <ele>0.6200000</ele>
        <time>2013-06-12T07:50:19Z</time>
      </trkpt>
      <trkpt lat="38.5907210" lon="14.8525310">
        <ele>0.6200000</ele>
        <time>2013-06-12T07:50:31Z</time>
      </trkpt>
      <trkpt lat="38.5907970" lon="14.8522310">
        <ele>1.1000000</ele>
        <time>2013-06-12T07:50:43Z</time>
      </trkpt>
      <trkpt lat="38.5908550" lon="14.8519350">
        <ele>0.6200000</ele>
        <time>2013-06-12T07:50:55Z</time>
      </trkpt>
      <trkpt lat="38.5909460" lon="14.8515930">
        <ele>0.6200000</ele>
        <time>2013-06-12T07:51:09Z</time>
      </trkpt>
      <trkpt lat="38.5910380" lon="14.8512170">
        <ele>0.6200000</ele>
        <time>2013-06-12T07:51:25Z</time>
      </trkpt>
      <trkpt lat="38.5911100" lon="14.8508890">
        <ele>0.6200000</ele>
        <time>2013-06-12T07:51:39Z</time>
      </trkpt>
      <trkpt lat="38.5911900" lon="14.8505470">
        <ele>0.6200000</ele>
        <time>2013-06-12T07:51:52Z</time>
      </trkpt>
      <trkpt lat="38.5912700" lon="14.8502160">
        <ele>0.6200000</ele>
        <time>2013-06-12T07:52:04Z</time>
      </trkpt>
      <trkpt lat="38.5913430" lon="14.8498760">
        <ele>1.1000000</ele>
        <time>2013-06-12T07:52:16Z</time>
      </trkpt>
      <trkpt lat="38.5913960" lon="14.8494980">
        <ele>0.6200000</ele>
        <time>2013-06-12T07:52:29Z</time>
      </trkpt>
      <trkpt lat="38.5914540" lon="14.8491430">
        <ele>1.1000000</ele>
        <time>2013-06-12T07:52:42Z</time>
      </trkpt>
      <trkpt lat="38.5914960" lon="14.8487680">
        <ele>1.1000000</ele>
        <time>2013-06-12T07:52:55Z</time>
      </trkpt>
      <trkpt lat="38.5916100" lon="14.8482840">
        <ele>1.1000000</ele>
        <time>2013-06-12T07:53:12Z</time>
      </trkpt>
      <trkpt lat="38.5916520" lon="14.8479460">
        <ele>1.1000000</ele>
        <time>2013-06-12T07:53:24Z</time>
      </trkpt>
      <trkpt lat="38.5916560" lon="14.8475680">
        <ele>0.6200000</ele>
        <time>2013-06-12T07:53:38Z</time>
      </trkpt>
      <trkpt lat="38.5916750" lon="14.8471810">
        <ele>1.1000000</ele>
        <time>2013-06-12T07:53:52Z</time>
      </trkpt>
      <trkpt lat="38.5917090" lon="14.8467830">
        <ele>0.6200000</ele>
        <time>2013-06-12T07:54:06Z</time>
      </trkpt>
      <trkpt lat="38.5917630" lon="14.8464110">
        <ele>1.1000000</ele>
        <time>2013-06-12T07:54:19Z</time>
      </trkpt>
      <trkpt lat="38.5918050" lon="14.8460670">
        <ele>0.6200000</ele>
        <time>2013-06-12T07:54:32Z</time>
      </trkpt>
      <trkpt lat="38.5918160" lon="14.8456360">
        <ele>0.6200000</ele>
        <time>2013-06-12T07:54:47Z</time>
      </trkpt>
      <trkpt lat="38.5918690" lon="14.8452280">
        <ele>0.6200000</ele>
        <time>2013-06-12T07:55:02Z</time>
      </trkpt>
      <trkpt lat="38.5919110" lon="14.8449000">
        <ele>0.6200000</ele>
        <time>2013-06-12T07:55:15Z</time>
      </trkpt>
      <trkpt lat="38.5919040" lon="14.8448510">
        <ele>0.6200000</ele>
        <time>2013-06-12T07:55:17Z</time>
      </trkpt>
      <trkpt lat="38.5918960" lon="14.8444730">
        <ele>0.1400000</ele>
        <time>2013-06-12T07:55:31Z</time>
      </trkpt>
      <trkpt lat="38.5919230" lon="14.8441930">
        <ele>0.1400000</ele>
        <time>2013-06-12T07:55:43Z</time>
      </trkpt>
      <trkpt lat="38.5919340" lon="14.8438670">
        <ele>0.1400000</ele>
        <time>2013-06-12T07:55:55Z</time>
      </trkpt>
      <trkpt lat="38.5919650" lon="14.8435470">
        <ele>0.1400000</ele>
        <time>2013-06-12T07:56:07Z</time>
      </trkpt>
      <trkpt lat="38.5920220" lon="14.8431960">
        <ele>0.6200000</ele>
        <time>2013-06-12T07:56:20Z</time>
      </trkpt>
      <trkpt lat="38.5920410" lon="14.8427910">
        <ele>0.6200000</ele>
        <time>2013-06-12T07:56:34Z</time>
      </trkpt>
      <trkpt lat="38.5920410" lon="14.8426770">
        <ele>1.1000000</ele>
        <time>2013-06-12T07:56:38Z</time>
      </trkpt>
      <trkpt lat="38.5920410" lon="14.8423160">
        <ele>0.6200000</ele>
        <time>2013-06-12T07:56:51Z</time>
      </trkpt>
      <trkpt lat="38.5920940" lon="14.8420230">
        <ele>0.6200000</ele>
        <time>2013-06-12T07:57:02Z</time>
      </trkpt>
      <trkpt lat="38.5920830" lon="14.8416390">
        <ele>0.1400000</ele>
        <time>2013-06-12T07:57:16Z</time>
      </trkpt>
      <trkpt lat="38.5921100" lon="14.8412400">
        <ele>0.1400000</ele>
        <time>2013-06-12T07:57:30Z</time>
      </trkpt>
      <trkpt lat="38.5920980" lon="14.8409000">
        <ele>0.6200000</ele>
        <time>2013-06-12T07:57:43Z</time>
      </trkpt>
      <trkpt lat="38.5921130" lon="14.8408010">
        <ele>0.6200000</ele>
        <time>2013-06-12T07:57:48Z</time>
      </trkpt>
      <trkpt lat="38.5921210" lon="14.8404580">
        <ele>0.1400000</ele>
        <time>2013-06-12T07:58:02Z</time>
      </trkpt>
      <trkpt lat="38.5921590" lon="14.8400680">
        <ele>0.1400000</ele>
        <time>2013-06-12T07:58:17Z</time>
      </trkpt>
      <trkpt lat="38.5921750" lon="14.8396620">
        <ele>0.1400000</ele>
        <time>2013-06-12T07:58:32Z</time>
      </trkpt>
      <trkpt lat="38.5921820" lon="14.8392590">
        <ele>-0.3400000</ele>
        <time>2013-06-12T07:58:47Z</time>
      </trkpt>
      <trkpt lat="38.5921860" lon="14.8388240">
        <ele>0.6200000</ele>
        <time>2013-06-12T07:59:02Z</time>
      </trkpt>
      <trkpt lat="38.5922010" lon="14.8384240">
        <ele>0.6200000</ele>
        <time>2013-06-12T07:59:16Z</time>
      </trkpt>
      <trkpt lat="38.5922320" lon="14.8380980">
        <ele>0.6200000</ele>
        <time>2013-06-12T07:59:28Z</time>
      </trkpt>
      <trkpt lat="38.5922360" lon="14.8379380">
        <ele>1.1000000</ele>
        <time>2013-06-12T07:59:34Z</time>
      </trkpt>
      <trkpt lat="38.5922430" lon="14.8378310">
        <ele>0.1400000</ele>
        <time>2013-06-12T07:59:38Z</time>
      </trkpt>
      <trkpt lat="38.5922240" lon="14.8376960">
        <ele>1.1000000</ele>
        <time>2013-06-12T07:59:44Z</time>
      </trkpt>
      <trkpt lat="38.5922580" lon="14.8373280">
        <ele>0.1400000</ele>
        <time>2013-06-12T07:59:58Z</time>
      </trkpt>
      <trkpt lat="38.5922890" lon="14.8370050">
        <ele>1.1000000</ele>
        <time>2013-06-12T08:00:10Z</time>
      </trkpt>
      <trkpt lat="38.5923160" lon="14.8366630">
        <ele>1.1000000</ele>
        <time>2013-06-12T08:00:23Z</time>
      </trkpt>
      <trkpt lat="38.5923190" lon="14.8362440">
        <ele>0.6200000</ele>
        <time>2013-06-12T08:00:38Z</time>
      </trkpt>
      <trkpt lat="38.5923420" lon="14.8357480">
        <ele>0.6200000</ele>
        <time>2013-06-12T08:00:55Z</time>
      </trkpt>
      <trkpt lat="38.5923580" lon="14.8353680">
        <ele>0.6200000</ele>
        <time>2013-06-12T08:01:08Z</time>
      </trkpt>
      <trkpt lat="38.5923500" lon="14.8350180">
        <ele>0.6200000</ele>
        <time>2013-06-12T08:01:21Z</time>
      </trkpt>
      <trkpt lat="38.5923580" lon="14.8345590">
        <ele>1.1000000</ele>
        <time>2013-06-12T08:01:37Z</time>
      </trkpt>
      <trkpt lat="38.5923610" lon="14.8342630">
        <ele>0.6200000</ele>
        <time>2013-06-12T08:01:48Z</time>
      </trkpt>
      <trkpt lat="38.5923650" lon="14.8341570">
        <ele>0.1400000</ele>
        <time>2013-06-12T08:01:52Z</time>
      </trkpt>
      <trkpt lat="38.5923690" lon="14.8337580">
        <ele>0.6200000</ele>
        <time>2013-06-12T08:02:06Z</time>
      </trkpt>
      <trkpt lat="38.5923690" lon="14.8333800">
        <ele>0.1400000</ele>
        <time>2013-06-12T08:02:20Z</time>
      </trkpt>
      <trkpt lat="38.5923840" lon="14.8329880">
        <ele>0.6200000</ele>
        <time>2013-06-12T08:02:34Z</time>
      </trkpt>
      <trkpt lat="38.5923960" lon="14.8326150">
        <ele>1.1000000</ele>
        <time>2013-06-12T08:02:47Z</time>
      </trkpt>
      <trkpt lat="38.5923960" lon="14.8322320">
        <ele>1.5800000</ele>
        <time>2013-06-12T08:03:00Z</time>
      </trkpt>
      <trkpt lat="38.5924220" lon="14.8318930">
        <ele>1.1000000</ele>
        <time>2013-06-12T08:03:12Z</time>
      </trkpt>
      <trkpt lat="38.5924450" lon="14.8314890">
        <ele>1.1000000</ele>
        <time>2013-06-12T08:03:26Z</time>
      </trkpt>
      <trkpt lat="38.5924680" lon="14.8311040">
        <ele>1.1000000</ele>
        <time>2013-06-12T08:03:42Z</time>
      </trkpt>
      <trkpt lat="38.5925140" lon="14.8307510">
        <ele>1.1000000</ele>
        <time>2013-06-12T08:03:55Z</time>
      </trkpt>
      <trkpt lat="38.5925520" lon="14.8303210">
        <ele>1.1000000</ele>
        <time>2013-06-12T08:04:10Z</time>
      </trkpt>
      <trkpt lat="38.5925290" lon="14.8301530">
        <ele>0.6200000</ele>
        <time>2013-06-12T08:04:17Z</time>
      </trkpt>
      <trkpt lat="38.5925560" lon="14.8299610">
        <ele>1.1000000</ele>
        <time>2013-06-12T08:04:24Z</time>
      </trkpt>
      <trkpt lat="38.5925410" lon="14.8295550">
        <ele>0.6200000</ele>
        <time>2013-06-12T08:04:38Z</time>
      </trkpt>
      <trkpt lat="38.5925030" lon="14.8291650">
        <ele>0.6200000</ele>
        <time>2013-06-12T08:04:52Z</time>
      </trkpt>
      <trkpt lat="38.5924800" lon="14.8288200">
        <ele>1.1000000</ele>
        <time>2013-06-12T08:05:05Z</time>
      </trkpt>
      <trkpt lat="38.5924420" lon="14.8283750">
        <ele>1.1000000</ele>
        <time>2013-06-12T08:05:21Z</time>
      </trkpt>
      <trkpt lat="38.5923880" lon="14.8280490">
        <ele>1.1000000</ele>
        <time>2013-06-12T08:05:33Z</time>
      </trkpt>
      <trkpt lat="38.5923610" lon="14.8278510">
        <ele>0.6200000</ele>
        <time>2013-06-12T08:05:41Z</time>
      </trkpt>
      <trkpt lat="38.5923390" lon="14.8275020">
        <ele>1.1000000</ele>
        <time>2013-06-12T08:05:55Z</time>
      </trkpt>
      <trkpt lat="38.5922850" lon="14.8271310">
        <ele>1.1000000</ele>
        <time>2013-06-12T08:06:09Z</time>
      </trkpt>
      <trkpt lat="38.5922580" lon="14.8269620">
        <ele>1.5800000</ele>
        <time>2013-06-12T08:06:15Z</time>
      </trkpt>
      <trkpt lat="38.5922240" lon="14.8264960">
        <ele>1.5800000</ele>
        <time>2013-06-12T08:06:31Z</time>
      </trkpt>
      <trkpt lat="38.5921520" lon="14.8261370">
        <ele>1.5800000</ele>
        <time>2013-06-12T08:06:44Z</time>
      </trkpt>
      <trkpt lat="38.5921020" lon="14.8257620">
        <ele>1.1000000</ele>
        <time>2013-06-12T08:06:57Z</time>
      </trkpt>
      <trkpt lat="38.5920940" lon="14.8256120">
        <ele>1.1000000</ele>
        <time>2013-06-12T08:07:03Z</time>
      </trkpt>
      <trkpt lat="38.5920640" lon="14.8252870">
        <ele>1.1000000</ele>
        <time>2013-06-12T08:07:16Z</time>
      </trkpt>
      <trkpt lat="38.5920300" lon="14.8248760">
        <ele>0.6200000</ele>
        <time>2013-06-12T08:07:31Z</time>
      </trkpt>
      <trkpt lat="38.5920100" lon="14.8246550">
        <ele>0.1400000</ele>
        <time>2013-06-12T08:07:38Z</time>
      </trkpt>
      <trkpt lat="38.5919720" lon="14.8242740">
        <ele>1.1000000</ele>
        <time>2013-06-12T08:07:51Z</time>
      </trkpt>
      <trkpt lat="38.5919570" lon="14.8239350">
        <ele>1.1000000</ele>
        <time>2013-06-12T08:08:03Z</time>
      </trkpt>
      <trkpt lat="38.5919190" lon="14.8235400">
        <ele>1.1000000</ele>
        <time>2013-06-12T08:08:17Z</time>
      </trkpt>
      <trkpt lat="38.5919110" lon="14.8231630">
        <ele>1.5800000</ele>
        <time>2013-06-12T08:08:31Z</time>
      </trkpt>
      <trkpt lat="38.5919110" lon="14.8227970">
        <ele>0.6200000</ele>
        <time>2013-06-12T08:08:44Z</time>
      </trkpt>
      <trkpt lat="38.5919000" lon="14.8223990">
        <ele>1.5800000</ele>
        <time>2013-06-12T08:08:58Z</time>
      </trkpt>
      <trkpt lat="38.5918770" lon="14.8220460">
        <ele>1.1000000</ele>
        <time>2013-06-12T08:09:11Z</time>
      </trkpt>
      <trkpt lat="38.5918430" lon="14.8217010">
        <ele>1.1000000</ele>
        <time>2013-06-12T08:09:24Z</time>
      </trkpt>
      <trkpt lat="38.5917970" lon="14.8212590">
        <ele>0.6200000</ele>
        <time>2013-06-12T08:09:39Z</time>
      </trkpt>
      <trkpt lat="38.5917700" lon="14.8209290">
        <ele>1.5800000</ele>
        <time>2013-06-12T08:09:51Z</time>
      </trkpt>
      <trkpt lat="38.5917470" lon="14.8205710">
        <ele>0.6200000</ele>
        <time>2013-06-12T08:10:04Z</time>
      </trkpt>
      <trkpt lat="38.5917130" lon="14.8202300">
        <ele>1.1000000</ele>
        <time>2013-06-12T08:10:17Z</time>
      </trkpt>
      <trkpt lat="38.5916820" lon="14.8198700">
        <ele>1.1000000</ele>
        <time>2013-06-12T08:10:30Z</time>
      </trkpt>
      <trkpt lat="38.5916630" lon="14.8195300">
        <ele>0.1400000</ele>
        <time>2013-06-12T08:10:42Z</time>
      </trkpt>
      <trkpt lat="38.5916560" lon="14.8194230">
        <ele>1.1000000</ele>
        <time>2013-06-12T08:10:46Z</time>
      </trkpt>
      <trkpt lat="38.5916330" lon="14.8190660">
        <ele>1.1000000</ele>
        <time>2013-06-12T08:10:59Z</time>
      </trkpt>
      <trkpt lat="38.5915950" lon="14.8186720">
        <ele>0.6200000</ele>
        <time>2013-06-12T08:11:13Z</time>
      </trkpt>
      <trkpt lat="38.5915300" lon="14.8183120">
        <ele>1.1000000</ele>
        <time>2013-06-12T08:11:26Z</time>
      </trkpt>
      <trkpt lat="38.5914960" lon="14.8179880">
        <ele>1.1000000</ele>
        <time>2013-06-12T08:11:38Z</time>
      </trkpt>
      <trkpt lat="38.5914460" lon="14.8175950">
        <ele>1.5800000</ele>
        <time>2013-06-12T08:11:52Z</time>
      </trkpt>
      <trkpt lat="38.5914000" lon="14.8171870">
        <ele>1.1000000</ele>
        <time>2013-06-12T08:12:07Z</time>
      </trkpt>
      <trkpt lat="38.5913730" lon="14.8168190">
        <ele>0.6200000</ele>
        <time>2013-06-12T08:12:20Z</time>
      </trkpt>
      <trkpt lat="38.5913160" lon="14.8164370">
        <ele>1.1000000</ele>
        <time>2013-06-12T08:12:34Z</time>
      </trkpt>
      <trkpt lat="38.5912700" lon="14.8160630">
        <ele>1.5800000</ele>
        <time>2013-06-12T08:12:48Z</time>
      </trkpt>
      <trkpt lat="38.5912170" lon="14.8157060">
        <ele>1.1000000</ele>
        <time>2013-06-12T08:13:01Z</time>
      </trkpt>
      <trkpt lat="38.5911750" lon="14.8154000">
        <ele>1.1000000</ele>
        <time>2013-06-12T08:13:13Z</time>
      </trkpt>
      <trkpt lat="38.5911140" lon="14.8150040">
        <ele>1.5800000</ele>
        <time>2013-06-12T08:13:28Z</time>
      </trkpt>
      <trkpt lat="38.5910110" lon="14.8146410">
        <ele>1.1000000</ele>
        <time>2013-06-12T08:13:42Z</time>
      </trkpt>
      <trkpt lat="38.5909420" lon="14.8143280">
        <ele>1.5800000</ele>
        <time>2013-06-12T08:13:54Z</time>
      </trkpt>
      <trkpt lat="38.5908890" lon="14.8140090">
        <ele>1.1000000</ele>
        <time>2013-06-12T08:14:06Z</time>
      </trkpt>
      <trkpt lat="38.5908390" lon="14.8136080">
        <ele>2.0600000</ele>
        <time>2013-06-12T08:14:21Z</time>
      </trkpt>
      <trkpt lat="38.5907820" lon="14.8132280">
        <ele>1.5800000</ele>
        <time>2013-06-12T08:14:34Z</time>
      </trkpt>
      <trkpt lat="38.5907020" lon="14.8127870">
        <ele>1.5800000</ele>
        <time>2013-06-12T08:14:49Z</time>
      </trkpt>
      <trkpt lat="38.5906260" lon="14.8124030">
        <ele>1.5800000</ele>
        <time>2013-06-12T08:15:03Z</time>
      </trkpt>
      <trkpt lat="38.5905380" lon="14.8119910">
        <ele>1.5800000</ele>
        <time>2013-06-12T08:15:18Z</time>
      </trkpt>
      <trkpt lat="38.5904690" lon="14.8115920">
        <ele>1.5800000</ele>
        <time>2013-06-12T08:15:32Z</time>
      </trkpt>
      <trkpt lat="38.5904310" lon="14.8112510">
        <ele>1.5800000</ele>
        <time>2013-06-12T08:15:44Z</time>
      </trkpt>
      <trkpt lat="38.5903850" lon="14.8109120">
        <ele>2.0600000</ele>
        <time>2013-06-12T08:15:57Z</time>
      </trkpt>
      <trkpt lat="38.5903320" lon="14.8105370">
        <ele>2.0600000</ele>
        <time>2013-06-12T08:16:11Z</time>
      </trkpt>
      <trkpt lat="38.5902600" lon="14.8101540">
        <ele>2.0600000</ele>
        <time>2013-06-12T08:16:24Z</time>
      </trkpt>
      <trkpt lat="38.5901530" lon="14.8097890">
        <ele>1.5800000</ele>
        <time>2013-06-12T08:16:37Z</time>
      </trkpt>
      <trkpt lat="38.5900650" lon="14.8093780">
        <ele>1.5800000</ele>
        <time>2013-06-12T08:16:52Z</time>
      </trkpt>
      <trkpt lat="38.5899770" lon="14.8089850">
        <ele>2.0600000</ele>
        <time>2013-06-12T08:17:06Z</time>
      </trkpt>
      <trkpt lat="38.5898780" lon="14.8086410">
        <ele>2.0600000</ele>
        <time>2013-06-12T08:17:19Z</time>
      </trkpt>
      <trkpt lat="38.5898170" lon="14.8082530">
        <ele>2.5400000</ele>
        <time>2013-06-12T08:17:33Z</time>
      </trkpt>
      <trkpt lat="38.5898170" lon="14.8082250">
        <ele>2.0600000</ele>
        <time>2013-06-12T08:17:34Z</time>
      </trkpt>
      <trkpt lat="38.5897330" lon="14.8078030">
        <ele>2.0600000</ele>
        <time>2013-06-12T08:17:50Z</time>
      </trkpt>
      <trkpt lat="38.5896840" lon="14.8073760">
        <ele>2.5400000</ele>
        <time>2013-06-12T08:18:05Z</time>
      </trkpt>
      <trkpt lat="38.5896490" lon="14.8070110">
        <ele>2.0600000</ele>
        <time>2013-06-12T08:18:19Z</time>
      </trkpt>
      <trkpt lat="38.5896260" lon="14.8065700">
        <ele>2.0600000</ele>
        <time>2013-06-12T08:18:36Z</time>
      </trkpt>
      <trkpt lat="38.5895420" lon="14.8061290">
        <ele>2.5400000</ele>
        <time>2013-06-12T08:18:52Z</time>
      </trkpt>
      <trkpt lat="38.5894930" lon="14.8057080">
        <ele>2.5400000</ele>
        <time>2013-06-12T08:19:07Z</time>
      </trkpt>
      <trkpt lat="38.5894200" lon="14.8052790">
        <ele>2.0600000</ele>
        <time>2013-06-12T08:19:21Z</time>
      </trkpt>
      <trkpt lat="38.5894130" lon="14.8049000">
        <ele>2.5400000</ele>
        <time>2013-06-12T08:19:34Z</time>
      </trkpt>
      <trkpt lat="38.5894010" lon="14.8045030">
        <ele>2.5400000</ele>
        <time>2013-06-12T08:19:48Z</time>
      </trkpt>
      <trkpt lat="38.5893210" lon="14.8040870">
        <ele>2.5400000</ele>
        <time>2013-06-12T08:20:03Z</time>
      </trkpt>
      <trkpt lat="38.5892600" lon="14.8037560">
        <ele>2.5400000</ele>
        <time>2013-06-12T08:20:15Z</time>
      </trkpt>
      <trkpt lat="38.5891990" lon="14.8033850">
        <ele>2.0600000</ele>
        <time>2013-06-12T08:20:29Z</time>
      </trkpt>
      <trkpt lat="38.5891230" lon="14.8030470">
        <ele>2.0600000</ele>
        <time>2013-06-12T08:20:42Z</time>
      </trkpt>
      <trkpt lat="38.5890460" lon="14.8026120">
        <ele>3.0200000</ele>
        <time>2013-06-12T08:20:58Z</time>
      </trkpt>
      <trkpt lat="38.5890010" lon="14.8021990">
        <ele>2.5400000</ele>
        <time>2013-06-12T08:21:13Z</time>
      </trkpt>
      <trkpt lat="38.5889320" lon="14.8017950">
        <ele>2.5400000</ele>
        <time>2013-06-12T08:21:27Z</time>
      </trkpt>
      <trkpt lat="38.5889210" lon="14.8014570">
        <ele>3.0200000</ele>
        <time>2013-06-12T08:21:39Z</time>
      </trkpt>
      <trkpt lat="38.5888790" lon="14.8010990">
        <ele>2.5400000</ele>
        <time>2013-06-12T08:21:52Z</time>
      </trkpt>
      <trkpt lat="38.5888370" lon="14.8007180">
        <ele>3.5000000</ele>
        <time>2013-06-12T08:22:05Z</time>
      </trkpt>
      <trkpt lat="38.5888060" lon="14.8003570">
        <ele>2.5400000</ele>
        <time>2013-06-12T08:22:18Z</time>
      </trkpt>
      <trkpt lat="38.5887720" lon="14.8000350">
        <ele>3.0200000</ele>
        <time>2013-06-12T08:22:30Z</time>
      </trkpt>
      <trkpt lat="38.5887220" lon="14.7996610">
        <ele>2.5400000</ele>
        <time>2013-06-12T08:22:44Z</time>
      </trkpt>
      <trkpt lat="38.5886730" lon="14.7993210">
        <ele>3.0200000</ele>
        <time>2013-06-12T08:22:56Z</time>
      </trkpt>
      <trkpt lat="38.5886310" lon="14.7988820">
        <ele>3.0200000</ele>
        <time>2013-06-12T08:23:11Z</time>
      </trkpt>
      <trkpt lat="38.5885930" lon="14.7984950">
        <ele>3.0200000</ele>
        <time>2013-06-12T08:23:24Z</time>
      </trkpt>
      <trkpt lat="38.5885200" lon="14.7980530">
        <ele>3.0200000</ele>
        <time>2013-06-12T08:23:39Z</time>
      </trkpt>
      <trkpt lat="38.5884700" lon="14.7976670">
        <ele>3.0200000</ele>
        <time>2013-06-12T08:23:53Z</time>
      </trkpt>
      <trkpt lat="38.5883750" lon="14.7972420">
        <ele>3.0200000</ele>
        <time>2013-06-12T08:24:09Z</time>
      </trkpt>
      <trkpt lat="38.5883140" lon="14.7968860">
        <ele>3.0200000</ele>
        <time>2013-06-12T08:24:21Z</time>
      </trkpt>
      <trkpt lat="38.5882720" lon="14.7964880">
        <ele>3.5000000</ele>
        <time>2013-06-12T08:24:34Z</time>
      </trkpt>
      <trkpt lat="38.5882000" lon="14.7960840">
        <ele>3.5000000</ele>
        <time>2013-06-12T08:24:48Z</time>
      </trkpt>
      <trkpt lat="38.5881390" lon="14.7957120">
        <ele>3.0200000</ele>
        <time>2013-06-12T08:25:01Z</time>
      </trkpt>
      <trkpt lat="38.5880620" lon="14.7952610">
        <ele>3.5000000</ele>
        <time>2013-06-12T08:25:16Z</time>
      </trkpt>
      <trkpt lat="38.5880240" lon="14.7948650">
        <ele>3.5000000</ele>
        <time>2013-06-12T08:25:30Z</time>
      </trkpt>
      <trkpt lat="38.5879480" lon="14.7944640">
        <ele>3.9800000</ele>
        <time>2013-06-12T08:25:45Z</time>
      </trkpt>
      <trkpt lat="38.5878910" lon="14.7940690">
        <ele>3.5000000</ele>
        <time>2013-06-12T08:26:00Z</time>
      </trkpt>
      <trkpt lat="38.5878450" lon="14.7936770">
        <ele>3.5000000</ele>
        <time>2013-06-12T08:26:15Z</time>
      </trkpt>
      <trkpt lat="38.5878030" lon="14.7932830">
        <ele>3.5000000</ele>
        <time>2013-06-12T08:26:29Z</time>
      </trkpt>
      <trkpt lat="38.5877300" lon="14.7928880">
        <ele>3.5000000</ele>
        <time>2013-06-12T08:26:43Z</time>
      </trkpt>
      <trkpt lat="38.5876390" lon="14.7924330">
        <ele>3.5000000</ele>
        <time>2013-06-12T08:26:59Z</time>
      </trkpt>
      <trkpt lat="38.5875970" lon="14.7920550">
        <ele>3.5000000</ele>
        <time>2013-06-12T08:27:13Z</time>
      </trkpt>
      <trkpt lat="38.5875660" lon="14.7916270">
        <ele>3.5000000</ele>
        <time>2013-06-12T08:27:28Z</time>
      </trkpt>
      <trkpt lat="38.5875320" lon="14.7912520">
        <ele>3.5000000</ele>
        <time>2013-06-12T08:27:43Z</time>
      </trkpt>
      <trkpt lat="38.5874710" lon="14.7909310">
        <ele>3.5000000</ele>
        <time>2013-06-12T08:27:55Z</time>
      </trkpt>
      <trkpt lat="38.5874020" lon="14.7905760">
        <ele>3.5000000</ele>
        <time>2013-06-12T08:28:08Z</time>
      </trkpt>
      <trkpt lat="38.5873340" lon="14.7901630">
        <ele>3.5000000</ele>
        <time>2013-06-12T08:28:23Z</time>
      </trkpt>
      <trkpt lat="38.5872730" lon="14.7897620">
        <ele>3.9800000</ele>
        <time>2013-06-12T08:28:37Z</time>
      </trkpt>
      <trkpt lat="38.5872150" lon="14.7893620">
        <ele>3.5000000</ele>
        <time>2013-06-12T08:28:52Z</time>
      </trkpt>
      <trkpt lat="38.5871620" lon="14.7890130">
        <ele>3.0200000</ele>
        <time>2013-06-12T08:29:05Z</time>
      </trkpt>
      <trkpt lat="38.5871090" lon="14.7885720">
        <ele>3.5000000</ele>
        <time>2013-06-12T08:29:21Z</time>
      </trkpt>
      <trkpt lat="38.5870440" lon="14.7881440">
        <ele>3.5000000</ele>
        <time>2013-06-12T08:29:36Z</time>
      </trkpt>
      <trkpt lat="38.5869750" lon="14.7876810">
        <ele>3.5000000</ele>
        <time>2013-06-12T08:29:51Z</time>
      </trkpt>
      <trkpt lat="38.5868910" lon="14.7872140">
        <ele>3.5000000</ele>
        <time>2013-06-12T08:30:07Z</time>
      </trkpt>
      <trkpt lat="38.5868190" lon="14.7867910">
        <ele>3.5000000</ele>
        <time>2013-06-12T08:30:23Z</time>
      </trkpt>
      <trkpt lat="38.5867650" lon="14.7864400">
        <ele>3.0200000</ele>
        <time>2013-06-12T08:30:36Z</time>
      </trkpt>
      <trkpt lat="38.5867500" lon="14.7863560">
        <ele>3.5000000</ele>
        <time>2013-06-12T08:30:39Z</time>
      </trkpt>
      <trkpt lat="38.5867040" lon="14.7859460">
        <ele>3.5000000</ele>
        <time>2013-06-12T08:30:54Z</time>
      </trkpt>
      <trkpt lat="38.5866550" lon="14.7856130">
        <ele>3.5000000</ele>
        <time>2013-06-12T08:31:07Z</time>
      </trkpt>
      <trkpt lat="38.5866200" lon="14.7852510">
        <ele>3.5000000</ele>
        <time>2013-06-12T08:31:20Z</time>
      </trkpt>
      <trkpt lat="38.5865710" lon="14.7849220">
        <ele>3.9800000</ele>
        <time>2013-06-12T08:31:33Z</time>
      </trkpt>
      <trkpt lat="38.5865020" lon="14.7844600">
        <ele>3.5000000</ele>
        <time>2013-06-12T08:31:49Z</time>
      </trkpt>
      <trkpt lat="38.5864410" lon="14.7840370">
        <ele>3.5000000</ele>
        <time>2013-06-12T08:32:04Z</time>
      </trkpt>
      <trkpt lat="38.5863950" lon="14.7836360">
        <ele>3.9800000</ele>
        <time>2013-06-12T08:32:20Z</time>
      </trkpt>
      <trkpt lat="38.5863840" lon="14.7831890">
        <ele>3.5000000</ele>
        <time>2013-06-12T08:32:36Z</time>
      </trkpt>
      <trkpt lat="38.5863270" lon="14.7828980">
        <ele>3.9800000</ele>
        <time>2013-06-12T08:32:48Z</time>
      </trkpt>
      <trkpt lat="38.5862540" lon="14.7824340">
        <ele>3.5000000</ele>
        <time>2013-06-12T08:33:04Z</time>
      </trkpt>
      <trkpt lat="38.5861850" lon="14.7819440">
        <ele>3.5000000</ele>
        <time>2013-06-12T08:33:21Z</time>
      </trkpt>
      <trkpt lat="38.5861170" lon="14.7815550">
        <ele>3.5000000</ele>
        <time>2013-06-12T08:33:35Z</time>
      </trkpt>
      <trkpt lat="38.5860480" lon="14.7811750">
        <ele>3.5000000</ele>
        <time>2013-06-12T08:33:49Z</time>
      </trkpt>
      <trkpt lat="38.5859790" lon="14.7807660">
        <ele>3.9800000</ele>
        <time>2013-06-12T08:34:04Z</time>
      </trkpt>
      <trkpt lat="38.5859380" lon="14.7804760">
        <ele>3.0200000</ele>
        <time>2013-06-12T08:34:16Z</time>
      </trkpt>
      <trkpt lat="38.5858650" lon="14.7801180">
        <ele>3.5000000</ele>
        <time>2013-06-12T08:34:30Z</time>
      </trkpt>
      <trkpt lat="38.5857730" lon="14.7796490">
        <ele>3.5000000</ele>
        <time>2013-06-12T08:34:47Z</time>
      </trkpt>
      <trkpt lat="38.5857120" lon="14.7792790">
        <ele>3.5000000</ele>
        <time>2013-06-12T08:35:00Z</time>
      </trkpt>
      <trkpt lat="38.5856510" lon="14.7789490">
        <ele>3.5000000</ele>
        <time>2013-06-12T08:35:13Z</time>
      </trkpt>
      <trkpt lat="38.5855980" lon="14.7785550">
        <ele>3.5000000</ele>
        <time>2013-06-12T08:35:27Z</time>
      </trkpt>
      <trkpt lat="38.5855480" lon="14.7781920">
        <ele>3.5000000</ele>
        <time>2013-06-12T08:35:39Z</time>
      </trkpt>
      <trkpt lat="38.5854840" lon="14.7778170">
        <ele>3.0200000</ele>
        <time>2013-06-12T08:35:53Z</time>
      </trkpt>
      <trkpt lat="38.5854190" lon="14.7774500">
        <ele>3.5000000</ele>
        <time>2013-06-12T08:36:07Z</time>
      </trkpt>
      <trkpt lat="38.5853730" lon="14.7770650">
        <ele>3.5000000</ele>
        <time>2013-06-12T08:36:21Z</time>
      </trkpt>
      <trkpt lat="38.5853000" lon="14.7766290">
        <ele>3.5000000</ele>
        <time>2013-06-12T08:36:37Z</time>
      </trkpt>
      <trkpt lat="38.5852280" lon="14.7761430">
        <ele>3.5000000</ele>
        <time>2013-06-12T08:36:53Z</time>
      </trkpt>
      <trkpt lat="38.5851440" lon="14.7756860">
        <ele>3.5000000</ele>
        <time>2013-06-12T08:37:09Z</time>
      </trkpt>
      <trkpt lat="38.5850640" lon="14.7752790">
        <ele>3.0200000</ele>
        <time>2013-06-12T08:37:23Z</time>
      </trkpt>
      <trkpt lat="38.5850070" lon="14.7748870">
        <ele>3.5000000</ele>
        <time>2013-06-12T08:37:38Z</time>
      </trkpt>
      <trkpt lat="38.5849570" lon="14.7745320">
        <ele>3.5000000</ele>
        <time>2013-06-12T08:37:52Z</time>
      </trkpt>
      <trkpt lat="38.5849000" lon="14.7741660">
        <ele>3.5000000</ele>
        <time>2013-06-12T08:38:06Z</time>
      </trkpt>
      <trkpt lat="38.5848200" lon="14.7737830">
        <ele>3.5000000</ele>
        <time>2013-06-12T08:38:20Z</time>
      </trkpt>
      <trkpt lat="38.5847360" lon="14.7733850">
        <ele>3.5000000</ele>
        <time>2013-06-12T08:38:34Z</time>
      </trkpt>
      <trkpt lat="38.5846600" lon="14.7728680">
        <ele>3.5000000</ele>
        <time>2013-06-12T08:38:52Z</time>
      </trkpt>
      <trkpt lat="38.5846020" lon="14.7724380">
        <ele>3.9800000</ele>
        <time>2013-06-12T08:39:07Z</time>
      </trkpt>
      <trkpt lat="38.5845260" lon="14.7719810">
        <ele>3.5000000</ele>
        <time>2013-06-12T08:39:23Z</time>
      </trkpt>
      <trkpt lat="38.5844610" lon="14.7716110">
        <ele>3.9800000</ele>
        <time>2013-06-12T08:39:37Z</time>
      </trkpt>
      <trkpt lat="38.5843960" lon="14.7712420">
        <ele>3.9800000</ele>
        <time>2013-06-12T08:39:51Z</time>
      </trkpt>
      <trkpt lat="38.5843160" lon="14.7708180">
        <ele>3.9800000</ele>
        <time>2013-06-12T08:40:06Z</time>
      </trkpt>
      <trkpt lat="38.5842550" lon="14.7703930">
        <ele>3.9800000</ele>
        <time>2013-06-12T08:40:21Z</time>
      </trkpt>
      <trkpt lat="38.5841750" lon="14.7699230">
        <ele>3.9800000</ele>
        <time>2013-06-12T08:40:38Z</time>
      </trkpt>
      <trkpt lat="38.5841220" lon="14.7695620">
        <ele>3.9800000</ele>
        <time>2013-06-12T08:40:51Z</time>
      </trkpt>
      <trkpt lat="38.5840230" lon="14.7691280">
        <ele>3.9800000</ele>
        <time>2013-06-12T08:41:07Z</time>
      </trkpt>
      <trkpt lat="38.5839200" lon="14.7686300">
        <ele>3.9800000</ele>
        <time>2013-06-12T08:41:25Z</time>
      </trkpt>
      <trkpt lat="38.5838510" lon="14.7682330">
        <ele>3.9800000</ele>
        <time>2013-06-12T08:41:39Z</time>
      </trkpt>
      <trkpt lat="38.5837750" lon="14.7677550">
        <ele>3.9800000</ele>
        <time>2013-06-12T08:41:55Z</time>
      </trkpt>
      <trkpt lat="38.5836720" lon="14.7672710">
        <ele>3.9800000</ele>
        <time>2013-06-12T08:42:11Z</time>
      </trkpt>
      <trkpt lat="38.5835800" lon="14.7668290">
        <ele>3.5000000</ele>
        <time>2013-06-12T08:42:26Z</time>
      </trkpt>
      <trkpt lat="38.5835000" lon="14.7664060">
        <ele>3.5000000</ele>
        <time>2013-06-12T08:42:41Z</time>
      </trkpt>
      <trkpt lat="38.5834120" lon="14.7660290">
        <ele>4.4600000</ele>
        <time>2013-06-12T08:42:55Z</time>
      </trkpt>
      <trkpt lat="38.5833400" lon="14.7656630">
        <ele>3.5000000</ele>
        <time>2013-06-12T08:43:08Z</time>
      </trkpt>
      <trkpt lat="38.5832410" lon="14.7652650">
        <ele>4.4600000</ele>
        <time>2013-06-12T08:43:22Z</time>
      </trkpt>
      <trkpt lat="38.5831600" lon="14.7648430">
        <ele>4.4600000</ele>
        <time>2013-06-12T08:43:37Z</time>
      </trkpt>
      <trkpt lat="38.5830690" lon="14.7644320">
        <ele>4.4600000</ele>
        <time>2013-06-12T08:43:53Z</time>
      </trkpt>
      <trkpt lat="38.5829960" lon="14.7640820">
        <ele>3.9800000</ele>
        <time>2013-06-12T08:44:07Z</time>
      </trkpt>
      <trkpt lat="38.5829160" lon="14.7636720">
        <ele>4.4600000</ele>
        <time>2013-06-12T08:44:22Z</time>
      </trkpt>
      <trkpt lat="38.5828440" lon="14.7632350">
        <ele>4.4600000</ele>
        <time>2013-06-12T08:44:37Z</time>
      </trkpt>
      <trkpt lat="38.5827260" lon="14.7627730">
        <ele>3.9800000</ele>
        <time>2013-06-12T08:44:52Z</time>
      </trkpt>
      <trkpt lat="38.5826450" lon="14.7624000">
        <ele>4.4600000</ele>
        <time>2013-06-12T08:45:05Z</time>
      </trkpt>
      <trkpt lat="38.5825580" lon="14.7619580">
        <ele>4.4600000</ele>
        <time>2013-06-12T08:45:21Z</time>
      </trkpt>
      <trkpt lat="38.5824470" lon="14.7615790">
        <ele>4.4600000</ele>
        <time>2013-06-12T08:45:35Z</time>
      </trkpt>
      <trkpt lat="38.5823820" lon="14.7612220">
        <ele>4.4600000</ele>
        <time>2013-06-12T08:45:48Z</time>
      </trkpt>
      <trkpt lat="38.5822870" lon="14.7607450">
        <ele>3.9800000</ele>
        <time>2013-06-12T08:46:05Z</time>
      </trkpt>
      <trkpt lat="38.5821950" lon="14.7602690">
        <ele>3.9800000</ele>
        <time>2013-06-12T08:46:21Z</time>
      </trkpt>
      <trkpt lat="38.5821000" lon="14.7598850">
        <ele>4.4600000</ele>
        <time>2013-06-12T08:46:37Z</time>
      </trkpt>
      <trkpt lat="38.5820160" lon="14.7594650">
        <ele>4.4600000</ele>
        <time>2013-06-12T08:46:52Z</time>
      </trkpt>
      <trkpt lat="38.5819550" lon="14.7590970">
        <ele>3.9800000</ele>
        <time>2013-06-12T08:47:06Z</time>
      </trkpt>
      <trkpt lat="38.5818900" lon="14.7586900">
        <ele>3.9800000</ele>
        <time>2013-06-12T08:47:21Z</time>
      </trkpt>
      <trkpt lat="38.5818060" lon="14.7583320">
        <ele>4.9400000</ele>
        <time>2013-06-12T08:47:34Z</time>
      </trkpt>
      <trkpt lat="38.5817300" lon="14.7579430">
        <ele>4.4600000</ele>
        <time>2013-06-12T08:47:49Z</time>
      </trkpt>
      <trkpt lat="38.5816800" lon="14.7575610">
        <ele>3.9800000</ele>
        <time>2013-06-12T08:48:03Z</time>
      </trkpt>
      <trkpt lat="38.5815770" lon="14.7570760">
        <ele>3.9800000</ele>
        <time>2013-06-12T08:48:20Z</time>
      </trkpt>
      <trkpt lat="38.5814700" lon="14.7565950">
        <ele>3.5000000</ele>
        <time>2013-06-12T08:48:37Z</time>
      </trkpt>
      <trkpt lat="38.5814020" lon="14.7562350">
        <ele>3.5000000</ele>
        <time>2013-06-12T08:48:51Z</time>
      </trkpt>
      <trkpt lat="38.5813290" lon="14.7558340">
        <ele>4.4600000</ele>
        <time>2013-06-12T08:49:06Z</time>
      </trkpt>
      <trkpt lat="38.5812450" lon="14.7553950">
        <ele>3.9800000</ele>
        <time>2013-06-12T08:49:22Z</time>
      </trkpt>
      <trkpt lat="38.5811960" lon="14.7550220">
        <ele>4.4600000</ele>
        <time>2013-06-12T08:49:35Z</time>
      </trkpt>
      <trkpt lat="38.5811270" lon="14.7546170">
        <ele>3.9800000</ele>
        <time>2013-06-12T08:49:49Z</time>
      </trkpt>
      <trkpt lat="38.5810810" lon="14.7542140">
        <ele>4.9400000</ele>
        <time>2013-06-12T08:50:03Z</time>
      </trkpt>
      <trkpt lat="38.5810200" lon="14.7538070">
        <ele>3.9800000</ele>
        <time>2013-06-12T08:50:18Z</time>
      </trkpt>
      <trkpt lat="38.5809590" lon="14.7533620">
        <ele>4.4600000</ele>
        <time>2013-06-12T08:50:34Z</time>
      </trkpt>
      <trkpt lat="38.5809020" lon="14.7529130">
        <ele>4.4600000</ele>
        <time>2013-06-12T08:50:49Z</time>
      </trkpt>
      <trkpt lat="38.5808110" lon="14.7524420">
        <ele>4.4600000</ele>
        <time>2013-06-12T08:51:05Z</time>
      </trkpt>
      <trkpt lat="38.5807460" lon="14.7520520">
        <ele>4.4600000</ele>
        <time>2013-06-12T08:51:19Z</time>
      </trkpt>
      <trkpt lat="38.5806660" lon="14.7515800">
        <ele>4.4600000</ele>
        <time>2013-06-12T08:51:35Z</time>
      </trkpt>
      <trkpt lat="38.5805850" lon="14.7511850">
        <ele>4.9400000</ele>
        <time>2013-06-12T08:51:48Z</time>
      </trkpt>
      <trkpt lat="38.5805090" lon="14.7508120">
        <ele>4.4600000</ele>
        <time>2013-06-12T08:52:01Z</time>
      </trkpt>
      <trkpt lat="38.5804290" lon="14.7503940">
        <ele>4.4600000</ele>
        <time>2013-06-12T08:52:15Z</time>
      </trkpt>
      <trkpt lat="38.5803570" lon="14.7499560">
        <ele>4.9400000</ele>
        <time>2013-06-12T08:52:30Z</time>
      </trkpt>
      <trkpt lat="38.5802460" lon="14.7495500">
        <ele>4.9400000</ele>
        <time>2013-06-12T08:52:45Z</time>
      </trkpt>
      <trkpt lat="38.5801810" lon="14.7491730">
        <ele>4.4600000</ele>
        <time>2013-06-12T08:52:59Z</time>
      </trkpt>
      <trkpt lat="38.5800590" lon="14.7487500">
        <ele>4.9400000</ele>
        <time>2013-06-12T08:53:14Z</time>
      </trkpt>
      <trkpt lat="38.5799710" lon="14.7483910">
        <ele>4.4600000</ele>
        <time>2013-06-12T08:53:28Z</time>
      </trkpt>
      <trkpt lat="38.5799030" lon="14.7480310">
        <ele>4.4600000</ele>
        <time>2013-06-12T08:53:42Z</time>
      </trkpt>
      <trkpt lat="38.5798990" lon="14.7476470">
        <ele>4.4600000</ele>
        <time>2013-06-12T08:53:56Z</time>
      </trkpt>
      <trkpt lat="38.5798720" lon="14.7472550">
        <ele>4.9400000</ele>
        <time>2013-06-12T08:54:11Z</time>
      </trkpt>
      <trkpt lat="38.5797880" lon="14.7468400">
        <ele>4.9400000</ele>
        <time>2013-06-12T08:54:26Z</time>
      </trkpt>
      <trkpt lat="38.5796970" lon="14.7464900">
        <ele>4.4600000</ele>
        <time>2013-06-12T08:54:39Z</time>
      </trkpt>
      <trkpt lat="38.5796050" lon="14.7460710">
        <ele>4.9400000</ele>
        <time>2013-06-12T08:54:55Z</time>
      </trkpt>
      <trkpt lat="38.5795100" lon="14.7456520">
        <ele>4.9400000</ele>
        <time>2013-06-12T08:55:11Z</time>
      </trkpt>
      <trkpt lat="38.5794370" lon="14.7452150">
        <ele>4.9400000</ele>
        <time>2013-06-12T08:55:26Z</time>
      </trkpt>
      <trkpt lat="38.5793610" lon="14.7448360">
        <ele>4.4600000</ele>
        <time>2013-06-12T08:55:40Z</time>
      </trkpt>
      <trkpt lat="38.5792690" lon="14.7444170">
        <ele>4.4600000</ele>
        <time>2013-06-12T08:55:54Z</time>
      </trkpt>
      <trkpt lat="38.5792120" lon="14.7440750">
        <ele>4.9400000</ele>
        <time>2013-06-12T08:56:06Z</time>
      </trkpt>
      <trkpt lat="38.5791280" lon="14.7436340">
        <ele>4.4600000</ele>
        <time>2013-06-12T08:56:22Z</time>
      </trkpt>
      <trkpt lat="38.5790480" lon="14.7432390">
        <ele>4.9400000</ele>
        <time>2013-06-12T08:56:36Z</time>
      </trkpt>
      <trkpt lat="38.5789870" lon="14.7428390">
        <ele>4.9400000</ele>
        <time>2013-06-12T08:56:49Z</time>
      </trkpt>
      <trkpt lat="38.5789150" lon="14.7424560">
        <ele>4.9400000</ele>
        <time>2013-06-12T08:57:03Z</time>
      </trkpt>
      <trkpt lat="38.5788420" lon="14.7420580">
        <ele>4.4600000</ele>
        <time>2013-06-12T08:57:17Z</time>
      </trkpt>
      <trkpt lat="38.5787430" lon="14.7416490">
        <ele>4.4600000</ele>
        <time>2013-06-12T08:57:32Z</time>
      </trkpt>
      <trkpt lat="38.5786550" lon="14.7412570">
        <ele>4.9400000</ele>
        <time>2013-06-12T08:57:47Z</time>
      </trkpt>
      <trkpt lat="38.5785750" lon="14.7408360">
        <ele>4.4600000</ele>
        <time>2013-06-12T08:58:02Z</time>
      </trkpt>
      <trkpt lat="38.5784760" lon="14.7404510">
        <ele>5.4200000</ele>
        <time>2013-06-12T08:58:17Z</time>
      </trkpt>
      <trkpt lat="38.5784150" lon="14.7400590">
        <ele>4.4600000</ele>
        <time>2013-06-12T08:58:31Z</time>
      </trkpt>
      <trkpt lat="38.5783420" lon="14.7396750">
        <ele>4.9400000</ele>
        <time>2013-06-12T08:58:45Z</time>
      </trkpt>
      <trkpt lat="38.5782780" lon="14.7392650">
        <ele>4.4600000</ele>
        <time>2013-06-12T08:58:59Z</time>
      </trkpt>
      <trkpt lat="38.5782200" lon="14.7389350">
        <ele>4.9400000</ele>
        <time>2013-06-12T08:59:12Z</time>
      </trkpt>
      <trkpt lat="38.5781560" lon="14.7385050">
        <ele>4.4600000</ele>
        <time>2013-06-12T08:59:28Z</time>
      </trkpt>
      <trkpt lat="38.5781100" lon="14.7381080">
        <ele>5.4200000</ele>
        <time>2013-06-12T08:59:43Z</time>
      </trkpt>
      <trkpt lat="38.5780110" lon="14.7377910">
        <ele>5.4200000</ele>
        <time>2013-06-12T08:59:56Z</time>
      </trkpt>
      <trkpt lat="38.5779230" lon="14.7374110">
        <ele>4.9400000</ele>
        <time>2013-06-12T09:00:10Z</time>
      </trkpt>
      <trkpt lat="38.5778310" lon="14.7369770">
        <ele>4.4600000</ele>
        <time>2013-06-12T09:00:25Z</time>
      </trkpt>
      <trkpt lat="38.5777660" lon="14.7366150">
        <ele>4.4600000</ele>
        <time>2013-06-12T09:00:38Z</time>
      </trkpt>
      <trkpt lat="38.5776790" lon="14.7361530">
        <ele>4.4600000</ele>
        <time>2013-06-12T09:00:54Z</time>
      </trkpt>
      <trkpt lat="38.5776020" lon="14.7357750">
        <ele>4.9400000</ele>
        <time>2013-06-12T09:01:08Z</time>
      </trkpt>
      <trkpt lat="38.5774990" lon="14.7353810">
        <ele>4.9400000</ele>
        <time>2013-06-12T09:01:24Z</time>
      </trkpt>
      <trkpt lat="38.5774120" lon="14.7349790">
        <ele>4.4600000</ele>
        <time>2013-06-12T09:01:39Z</time>
      </trkpt>
      <trkpt lat="38.5772930" lon="14.7345500">
        <ele>4.9400000</ele>
        <time>2013-06-12T09:01:55Z</time>
      </trkpt>
      <trkpt lat="38.5772250" lon="14.7341690">
        <ele>4.4600000</ele>
        <time>2013-06-12T09:02:09Z</time>
      </trkpt>
      <trkpt lat="38.5771410" lon="14.7337740">
        <ele>4.9400000</ele>
        <time>2013-06-12T09:02:24Z</time>
      </trkpt>
      <trkpt lat="38.5770420" lon="14.7332980">
        <ele>4.9400000</ele>
        <time>2013-06-12T09:02:41Z</time>
      </trkpt>
      <trkpt lat="38.5769420" lon="14.7328840">
        <ele>4.9400000</ele>
        <time>2013-06-12T09:02:56Z</time>
      </trkpt>
      <trkpt lat="38.5768360" lon="14.7324380">
        <ele>4.9400000</ele>
        <time>2013-06-12T09:03:13Z</time>
      </trkpt>
      <trkpt lat="38.5767520" lon="14.7320820">
        <ele>4.9400000</ele>
        <time>2013-06-12T09:03:26Z</time>
      </trkpt>
      <trkpt lat="38.5766940" lon="14.7316200">
        <ele>4.9400000</ele>
        <time>2013-06-12T09:03:42Z</time>
      </trkpt>
      <trkpt lat="38.5766410" lon="14.7311270">
        <ele>4.9400000</ele>
        <time>2013-06-12T09:03:59Z</time>
      </trkpt>
      <trkpt lat="38.5765720" lon="14.7306620">
        <ele>4.4600000</ele>
        <time>2013-06-12T09:04:15Z</time>
      </trkpt>
      <trkpt lat="38.5764620" lon="14.7302400">
        <ele>4.4600000</ele>
        <time>2013-06-12T09:04:30Z</time>
      </trkpt>
      <trkpt lat="38.5764010" lon="14.7298040">
        <ele>4.9400000</ele>
        <time>2013-06-12T09:04:46Z</time>
      </trkpt>
      <trkpt lat="38.5763280" lon="14.7293490">
        <ele>4.9400000</ele>
        <time>2013-06-12T09:05:01Z</time>
      </trkpt>
      <trkpt lat="38.5762860" lon="14.7289390">
        <ele>4.9400000</ele>
        <time>2013-06-12T09:05:15Z</time>
      </trkpt>
      <trkpt lat="38.5762250" lon="14.7285070">
        <ele>5.4200000</ele>
        <time>2013-06-12T09:05:30Z</time>
      </trkpt>
      <trkpt lat="38.5761800" lon="14.7280790">
        <ele>4.9400000</ele>
        <time>2013-06-12T09:05:45Z</time>
      </trkpt>
      <trkpt lat="38.5761180" lon="14.7276530">
        <ele>4.9400000</ele>
        <time>2013-06-12T09:06:01Z</time>
      </trkpt>
      <trkpt lat="38.5760650" lon="14.7272040">
        <ele>5.4200000</ele>
        <time>2013-06-12T09:06:16Z</time>
      </trkpt>
      <trkpt lat="38.5760040" lon="14.7268440">
        <ele>4.9400000</ele>
        <time>2013-06-12T09:06:30Z</time>
      </trkpt>
      <trkpt lat="38.5759580" lon="14.7264490">
        <ele>4.9400000</ele>
        <time>2013-06-12T09:06:44Z</time>
      </trkpt>
      <trkpt lat="38.5758930" lon="14.7260650">
        <ele>4.9400000</ele>
        <time>2013-06-12T09:06:58Z</time>
      </trkpt>
      <trkpt lat="38.5758320" lon="14.7255910">
        <ele>4.9400000</ele>
        <time>2013-06-12T09:07:15Z</time>
      </trkpt>
      <trkpt lat="38.5757790" lon="14.7251460">
        <ele>4.4600000</ele>
        <time>2013-06-12T09:07:31Z</time>
      </trkpt>
      <trkpt lat="38.5757330" lon="14.7247250">
        <ele>4.4600000</ele>
        <time>2013-06-12T09:07:46Z</time>
      </trkpt>
      <trkpt lat="38.5756800" lon="14.7243830">
        <ele>4.4600000</ele>
        <time>2013-06-12T09:07:59Z</time>
      </trkpt>
      <trkpt lat="38.5756230" lon="14.7239560">
        <ele>4.4600000</ele>
        <time>2013-06-12T09:08:14Z</time>
      </trkpt>
      <trkpt lat="38.5755840" lon="14.7235210">
        <ele>3.9800000</ele>
        <time>2013-06-12T09:08:29Z</time>
      </trkpt>
      <trkpt lat="38.5755160" lon="14.7230010">
        <ele>4.4600000</ele>
        <time>2013-06-12T09:08:47Z</time>
      </trkpt>
      <trkpt lat="38.5754660" lon="14.7226020">
        <ele>3.9800000</ele>
        <time>2013-06-12T09:09:01Z</time>
      </trkpt>
      <trkpt lat="38.5754240" lon="14.7222220">
        <ele>4.4600000</ele>
        <time>2013-06-12T09:09:15Z</time>
      </trkpt>
      <trkpt lat="38.5753440" lon="14.7218250">
        <ele>4.4600000</ele>
        <time>2013-06-12T09:09:29Z</time>
      </trkpt>
      <trkpt lat="38.5753140" lon="14.7214280">
        <ele>4.4600000</ele>
        <time>2013-06-12T09:09:43Z</time>
      </trkpt>
      <trkpt lat="38.5752410" lon="14.7209950">
        <ele>4.4600000</ele>
        <time>2013-06-12T09:09:58Z</time>
      </trkpt>
      <trkpt lat="38.5752030" lon="14.7206000">
        <ele>4.9400000</ele>
        <time>2013-06-12T09:10:12Z</time>
      </trkpt>
      <trkpt lat="38.5751110" lon="14.7201060">
        <ele>4.4600000</ele>
        <time>2013-06-12T09:10:29Z</time>
      </trkpt>
      <trkpt lat="38.5750620" lon="14.7197050">
        <ele>4.9400000</ele>
        <time>2013-06-12T09:10:43Z</time>
      </trkpt>
      <trkpt lat="38.5750050" lon="14.7192910">
        <ele>5.4200000</ele>
        <time>2013-06-12T09:10:59Z</time>
      </trkpt>
      <trkpt lat="38.5749510" lon="14.7189240">
        <ele>4.4600000</ele>
        <time>2013-06-12T09:11:13Z</time>
      </trkpt>
      <trkpt lat="38.5749050" lon="14.7185650">
        <ele>4.9400000</ele>
        <time>2013-06-12T09:11:27Z</time>
      </trkpt>
      <trkpt lat="38.5748330" lon="14.7182140">
        <ele>5.4200000</ele>
        <time>2013-06-12T09:11:41Z</time>
      </trkpt>
      <trkpt lat="38.5747870" lon="14.7177630">
        <ele>4.9400000</ele>
        <time>2013-06-12T09:11:57Z</time>
      </trkpt>
      <trkpt lat="38.5747340" lon="14.7173370">
        <ele>4.9400000</ele>
        <time>2013-06-12T09:12:13Z</time>
      </trkpt>
      <trkpt lat="38.5746990" lon="14.7169530">
        <ele>4.9400000</ele>
        <time>2013-06-12T09:12:28Z</time>
      </trkpt>
      <trkpt lat="38.5746500" lon="14.7165440">
        <ele>4.4600000</ele>
        <time>2013-06-12T09:12:42Z</time>
      </trkpt>
      <trkpt lat="38.5745810" lon="14.7161630">
        <ele>4.9400000</ele>
        <time>2013-06-12T09:12:55Z</time>
      </trkpt>
      <trkpt lat="38.5745350" lon="14.7157370">
        <ele>4.4600000</ele>
        <time>2013-06-12T09:13:11Z</time>
      </trkpt>
      <trkpt lat="38.5744740" lon="14.7153350">
        <ele>4.4600000</ele>
        <time>2013-06-12T09:13:25Z</time>
      </trkpt>
      <trkpt lat="38.5744440" lon="14.7149690">
        <ele>4.4600000</ele>
        <time>2013-06-12T09:13:40Z</time>
      </trkpt>
      <trkpt lat="38.5743870" lon="14.7145400">
        <ele>4.4600000</ele>
        <time>2013-06-12T09:13:56Z</time>
      </trkpt>
      <trkpt lat="38.5743290" lon="14.7140460">
        <ele>4.9400000</ele>
        <time>2013-06-12T09:14:14Z</time>
      </trkpt>
      <trkpt lat="38.5742570" lon="14.7136470">
        <ele>4.9400000</ele>
        <time>2013-06-12T09:14:28Z</time>
      </trkpt>
      <trkpt lat="38.5741920" lon="14.7131710">
        <ele>4.9400000</ele>
        <time>2013-06-12T09:14:45Z</time>
      </trkpt>
      <trkpt lat="38.5741230" lon="14.7127290">
        <ele>4.9400000</ele>
        <time>2013-06-12T09:15:02Z</time>
      </trkpt>
      <trkpt lat="38.5740660" lon="14.7123070">
        <ele>4.9400000</ele>
        <time>2013-06-12T09:15:18Z</time>
      </trkpt>
      <trkpt lat="38.5740170" lon="14.7119050">
        <ele>4.4600000</ele>
        <time>2013-06-12T09:15:32Z</time>
      </trkpt>
      <trkpt lat="38.5739670" lon="14.7114410">
        <ele>4.9400000</ele>
        <time>2013-06-12T09:15:48Z</time>
      </trkpt>
      <trkpt lat="38.5739020" lon="14.7109590">
        <ele>4.9400000</ele>
        <time>2013-06-12T09:16:05Z</time>
      </trkpt>
      <trkpt lat="38.5738560" lon="14.7105460">
        <ele>4.4600000</ele>
        <time>2013-06-12T09:16:21Z</time>
      </trkpt>
      <trkpt lat="38.5738300" lon="14.7100700">
        <ele>4.9400000</ele>
        <time>2013-06-12T09:16:39Z</time>
      </trkpt>
      <trkpt lat="38.5737720" lon="14.7096340">
        <ele>4.4600000</ele>
        <time>2013-06-12T09:16:54Z</time>
      </trkpt>
      <trkpt lat="38.5737420" lon="14.7092720">
        <ele>4.9400000</ele>
        <time>2013-06-12T09:17:07Z</time>
      </trkpt>
      <trkpt lat="38.5736690" lon="14.7087540">
        <ele>4.9400000</ele>
        <time>2013-06-12T09:17:24Z</time>
      </trkpt>
      <trkpt lat="38.5736310" lon="14.7083840">
        <ele>4.9400000</ele>
        <time>2013-06-12T09:17:37Z</time>
      </trkpt>
      <trkpt lat="38.5736080" lon="14.7079300">
        <ele>4.4600000</ele>
        <time>2013-06-12T09:17:53Z</time>
      </trkpt>
      <trkpt lat="38.5735400" lon="14.7073930">
        <ele>4.9400000</ele>
        <time>2013-06-12T09:18:10Z</time>
      </trkpt>
      <trkpt lat="38.5735130" lon="14.7069840">
        <ele>4.9400000</ele>
        <time>2013-06-12T09:18:25Z</time>
      </trkpt>
      <trkpt lat="38.5734410" lon="14.7065480">
        <ele>4.9400000</ele>
        <time>2013-06-12T09:18:40Z</time>
      </trkpt>
      <trkpt lat="38.5733830" lon="14.7060750">
        <ele>4.9400000</ele>
        <time>2013-06-12T09:18:57Z</time>
      </trkpt>
      <trkpt lat="38.5733340" lon="14.7056320">
        <ele>4.4600000</ele>
        <time>2013-06-12T09:19:14Z</time>
      </trkpt>
      <trkpt lat="38.5732540" lon="14.7052520">
        <ele>5.4200000</ele>
        <time>2013-06-12T09:19:28Z</time>
      </trkpt>
      <trkpt lat="38.5732230" lon="14.7048760">
        <ele>4.9400000</ele>
        <time>2013-06-12T09:19:41Z</time>
      </trkpt>
      <trkpt lat="38.5731770" lon="14.7045560">
        <ele>4.4600000</ele>
        <time>2013-06-12T09:19:55Z</time>
      </trkpt>
      <trkpt lat="38.5731390" lon="14.7042020">
        <ele>4.9400000</ele>
        <time>2013-06-12T09:20:10Z</time>
      </trkpt>
      <trkpt lat="38.5730670" lon="14.7038650">
        <ele>4.9400000</ele>
        <time>2013-06-12T09:20:23Z</time>
      </trkpt>
      <trkpt lat="38.5730170" lon="14.7034690">
        <ele>4.4600000</ele>
        <time>2013-06-12T09:20:39Z</time>
      </trkpt>
      <trkpt lat="38.5729750" lon="14.7030930">
        <ele>4.4600000</ele>
        <time>2013-06-12T09:20:53Z</time>
      </trkpt>
      <trkpt lat="38.5729140" lon="14.7026630">
        <ele>4.4600000</ele>
        <time>2013-06-12T09:21:08Z</time>
      </trkpt>
      <trkpt lat="38.5728450" lon="14.7022030">
        <ele>3.9800000</ele>
        <time>2013-06-12T09:21:25Z</time>
      </trkpt>
      <trkpt lat="38.5727880" lon="14.7017720">
        <ele>4.4600000</ele>
        <time>2013-06-12T09:21:40Z</time>
      </trkpt>
      <trkpt lat="38.5727120" lon="14.7012820">
        <ele>4.9400000</ele>
        <time>2013-06-12T09:21:57Z</time>
      </trkpt>
      <trkpt lat="38.5726510" lon="14.7008810">
        <ele>4.4600000</ele>
        <time>2013-06-12T09:22:12Z</time>
      </trkpt>
      <trkpt lat="38.5725980" lon="14.7005020">
        <ele>3.9800000</ele>
        <time>2013-06-12T09:22:26Z</time>
      </trkpt>
      <trkpt lat="38.5725480" lon="14.7001440">
        <ele>3.9800000</ele>
        <time>2013-06-12T09:22:42Z</time>
      </trkpt>
      <trkpt lat="38.5724830" lon="14.6997630">
        <ele>4.9400000</ele>
        <time>2013-06-12T09:22:56Z</time>
      </trkpt>
      <trkpt lat="38.5724110" lon="14.6993480">
        <ele>4.4600000</ele>
        <time>2013-06-12T09:23:11Z</time>
      </trkpt>
      <trkpt lat="38.5723230" lon="14.6989010">
        <ele>3.9800000</ele>
        <time>2013-06-12T09:23:27Z</time>
      </trkpt>
      <trkpt lat="38.5722960" lon="14.6985060">
        <ele>3.9800000</ele>
        <time>2013-06-12T09:23:42Z</time>
      </trkpt>
      <trkpt lat="38.5722160" lon="14.6980340">
        <ele>3.9800000</ele>
        <time>2013-06-12T09:23:59Z</time>
      </trkpt>
      <trkpt lat="38.5721360" lon="14.6975850">
        <ele>4.4600000</ele>
        <time>2013-06-12T09:24:15Z</time>
      </trkpt>
      <trkpt lat="38.5720670" lon="14.6971390">
        <ele>4.4600000</ele>
        <time>2013-06-12T09:24:30Z</time>
      </trkpt>
      <trkpt lat="38.5719950" lon="14.6967330">
        <ele>3.9800000</ele>
        <time>2013-06-12T09:24:46Z</time>
      </trkpt>
      <trkpt lat="38.5719410" lon="14.6963770">
        <ele>3.9800000</ele>
        <time>2013-06-12T09:25:00Z</time>
      </trkpt>
      <trkpt lat="38.5718880" lon="14.6959150">
        <ele>4.4600000</ele>
        <time>2013-06-12T09:25:16Z</time>
      </trkpt>
      <trkpt lat="38.5718230" lon="14.6954270">
        <ele>3.9800000</ele>
        <time>2013-06-12T09:25:33Z</time>
      </trkpt>
      <trkpt lat="38.5717540" lon="14.6949390">
        <ele>3.9800000</ele>
        <time>2013-06-12T09:25:50Z</time>
      </trkpt>
      <trkpt lat="38.5716820" lon="14.6945100">
        <ele>3.9800000</ele>
        <time>2013-06-12T09:26:05Z</time>
      </trkpt>
      <trkpt lat="38.5716020" lon="14.6941620">
        <ele>3.9800000</ele>
        <time>2013-06-12T09:26:18Z</time>
      </trkpt>
      <trkpt lat="38.5715290" lon="14.6936820">
        <ele>3.9800000</ele>
        <time>2013-06-12T09:26:34Z</time>
      </trkpt>
      <trkpt lat="38.5714570" lon="14.6932480">
        <ele>3.5000000</ele>
        <time>2013-06-12T09:26:50Z</time>
      </trkpt>
      <trkpt lat="38.5713960" lon="14.6928600">
        <ele>3.5000000</ele>
        <time>2013-06-12T09:27:05Z</time>
      </trkpt>
      <trkpt lat="38.5713200" lon="14.6924670">
        <ele>3.5000000</ele>
        <time>2013-06-12T09:27:20Z</time>
      </trkpt>
      <trkpt lat="38.5712360" lon="14.6920940">
        <ele>3.9800000</ele>
        <time>2013-06-12T09:27:34Z</time>
      </trkpt>
      <trkpt lat="38.5711670" lon="14.6917270">
        <ele>3.0200000</ele>
        <time>2013-06-12T09:27:48Z</time>
      </trkpt>
      <trkpt lat="38.5711290" lon="14.6914000">
        <ele>3.9800000</ele>
        <time>2013-06-12T09:28:01Z</time>
      </trkpt>
      <trkpt lat="38.5710680" lon="14.6910190">
        <ele>3.5000000</ele>
        <time>2013-06-12T09:28:15Z</time>
      </trkpt>
      <trkpt lat="38.5709950" lon="14.6906070">
        <ele>3.9800000</ele>
        <time>2013-06-12T09:28:29Z</time>
      </trkpt>
      <trkpt lat="38.5709340" lon="14.6902160">
        <ele>3.9800000</ele>
        <time>2013-06-12T09:28:43Z</time>
      </trkpt>
      <trkpt lat="38.5708240" lon="14.6898590">
        <ele>3.9800000</ele>
        <time>2013-06-12T09:28:56Z</time>
      </trkpt>
      <trkpt lat="38.5707740" lon="14.6894190">
        <ele>3.9800000</ele>
        <time>2013-06-12T09:29:11Z</time>
      </trkpt>
      <trkpt lat="38.5707130" lon="14.6889810">
        <ele>3.9800000</ele>
        <time>2013-06-12T09:29:27Z</time>
      </trkpt>
      <trkpt lat="38.5706520" lon="14.6885740">
        <ele>3.5000000</ele>
        <time>2013-06-12T09:29:43Z</time>
      </trkpt>
      <trkpt lat="38.5705990" lon="14.6881880">
        <ele>3.9800000</ele>
        <time>2013-06-12T09:29:58Z</time>
      </trkpt>
      <trkpt lat="38.5705260" lon="14.6876890">
        <ele>3.5000000</ele>
        <time>2013-06-12T09:30:15Z</time>
      </trkpt>
      <trkpt lat="38.5704420" lon="14.6872080">
        <ele>3.5000000</ele>
        <time>2013-06-12T09:30:31Z</time>
      </trkpt>
      <trkpt lat="38.5703660" lon="14.6867870">
        <ele>3.9800000</ele>
        <time>2013-06-12T09:30:46Z</time>
      </trkpt>
      <trkpt lat="38.5702900" lon="14.6863340">
        <ele>4.9400000</ele>
        <time>2013-06-12T09:31:02Z</time>
      </trkpt>
      <trkpt lat="38.5702400" lon="14.6858900">
        <ele>3.9800000</ele>
        <time>2013-06-12T09:31:17Z</time>
      </trkpt>
      <trkpt lat="38.5701900" lon="14.6855160">
        <ele>3.9800000</ele>
        <time>2013-06-12T09:31:31Z</time>
      </trkpt>
      <trkpt lat="38.5701330" lon="14.6851290">
        <ele>3.9800000</ele>
        <time>2013-06-12T09:31:45Z</time>
      </trkpt>
      <trkpt lat="38.5700800" lon="14.6847700">
        <ele>3.9800000</ele>
        <time>2013-06-12T09:31:59Z</time>
      </trkpt>
      <trkpt lat="38.5700260" lon="14.6843050">
        <ele>4.4600000</ele>
        <time>2013-06-12T09:32:16Z</time>
      </trkpt>
      <trkpt lat="38.5699730" lon="14.6839030">
        <ele>3.5000000</ele>
        <time>2013-06-12T09:32:31Z</time>
      </trkpt>
      <trkpt lat="38.5698850" lon="14.6835210">
        <ele>3.9800000</ele>
        <time>2013-06-12T09:32:46Z</time>
      </trkpt>
      <trkpt lat="38.5698170" lon="14.6831290">
        <ele>3.9800000</ele>
        <time>2013-06-12T09:33:00Z</time>
      </trkpt>
      <trkpt lat="38.5697440" lon="14.6826360">
        <ele>3.9800000</ele>
        <time>2013-06-12T09:33:18Z</time>
      </trkpt>
      <trkpt lat="38.5696870" lon="14.6822740">
        <ele>4.4600000</ele>
        <time>2013-06-12T09:33:32Z</time>
      </trkpt>
      <trkpt lat="38.5696410" lon="14.6818980">
        <ele>3.5000000</ele>
        <time>2013-06-12T09:33:46Z</time>
      </trkpt>
      <trkpt lat="38.5695690" lon="14.6815550">
        <ele>3.9800000</ele>
        <time>2013-06-12T09:33:58Z</time>
      </trkpt>
      <trkpt lat="38.5695080" lon="14.6810530">
        <ele>3.9800000</ele>
        <time>2013-06-12T09:34:15Z</time>
      </trkpt>
      <trkpt lat="38.5694770" lon="14.6806790">
        <ele>3.5000000</ele>
        <time>2013-06-12T09:34:29Z</time>
      </trkpt>
      <trkpt lat="38.5693930" lon="14.6802370">
        <ele>3.5000000</ele>
        <time>2013-06-12T09:34:46Z</time>
      </trkpt>
      <trkpt lat="38.5693440" lon="14.6798150">
        <ele>3.5000000</ele>
        <time>2013-06-12T09:35:01Z</time>
      </trkpt>
      <trkpt lat="38.5692860" lon="14.6793670">
        <ele>3.9800000</ele>
        <time>2013-06-12T09:35:16Z</time>
      </trkpt>
      <trkpt lat="38.5692410" lon="14.6789030">
        <ele>3.5000000</ele>
        <time>2013-06-12T09:35:31Z</time>
      </trkpt>
      <trkpt lat="38.5692060" lon="14.6786660">
        <ele>3.9800000</ele>
        <time>2013-06-12T09:35:40Z</time>
      </trkpt>
      <trkpt lat="38.5691530" lon="14.6782460">
        <ele>3.9800000</ele>
        <time>2013-06-12T09:35:55Z</time>
      </trkpt>
      <trkpt lat="38.5690770" lon="14.6778350">
        <ele>3.5000000</ele>
        <time>2013-06-12T09:36:11Z</time>
      </trkpt>
      <trkpt lat="38.5690190" lon="14.6774380">
        <ele>3.9800000</ele>
        <time>2013-06-12T09:36:26Z</time>
      </trkpt>
      <trkpt lat="38.5689510" lon="14.6770570">
        <ele>3.5000000</ele>
        <time>2013-06-12T09:36:40Z</time>
      </trkpt>
      <trkpt lat="38.5689050" lon="14.6766030">
        <ele>3.5000000</ele>
        <time>2013-06-12T09:36:56Z</time>
      </trkpt>
      <trkpt lat="38.5688250" lon="14.6761350">
        <ele>3.5000000</ele>
        <time>2013-06-12T09:37:12Z</time>
      </trkpt>
      <trkpt lat="38.5687520" lon="14.6756890">
        <ele>3.5000000</ele>
        <time>2013-06-12T09:37:27Z</time>
      </trkpt>
      <trkpt lat="38.5686870" lon="14.6752460">
        <ele>3.5000000</ele>
        <time>2013-06-12T09:37:43Z</time>
      </trkpt>
      <trkpt lat="38.5686300" lon="14.6748290">
        <ele>3.5000000</ele>
        <time>2013-06-12T09:37:58Z</time>
      </trkpt>
      <trkpt lat="38.5685620" lon="14.6743920">
        <ele>3.9800000</ele>
        <time>2013-06-12T09:38:14Z</time>
      </trkpt>
      <trkpt lat="38.5685010" lon="14.6739620">
        <ele>3.5000000</ele>
        <time>2013-06-12T09:38:29Z</time>
      </trkpt>
      <trkpt lat="38.5684200" lon="14.6736010">
        <ele>3.0200000</ele>
        <time>2013-06-12T09:38:43Z</time>
      </trkpt>
      <trkpt lat="38.5683710" lon="14.6731780">
        <ele>3.9800000</ele>
        <time>2013-06-12T09:38:59Z</time>
      </trkpt>
      <trkpt lat="38.5683170" lon="14.6727910">
        <ele>3.5000000</ele>
        <time>2013-06-12T09:39:13Z</time>
      </trkpt>
      <trkpt lat="38.5682450" lon="14.6723730">
        <ele>3.0200000</ele>
        <time>2013-06-12T09:39:28Z</time>
      </trkpt>
      <trkpt lat="38.5681800" lon="14.6719840">
        <ele>4.4600000</ele>
        <time>2013-06-12T09:39:42Z</time>
      </trkpt>
      <trkpt lat="38.5681150" lon="14.6715160">
        <ele>3.5000000</ele>
        <time>2013-06-12T09:39:58Z</time>
      </trkpt>
      <trkpt lat="38.5680540" lon="14.6710640">
        <ele>3.5000000</ele>
        <time>2013-06-12T09:40:14Z</time>
      </trkpt>
      <trkpt lat="38.5679740" lon="14.6706960">
        <ele>3.9800000</ele>
        <time>2013-06-12T09:40:28Z</time>
      </trkpt>
      <trkpt lat="38.5679320" lon="14.6703720">
        <ele>3.5000000</ele>
        <time>2013-06-12T09:40:40Z</time>
      </trkpt>
      <trkpt lat="38.5678710" lon="14.6699890">
        <ele>3.9800000</ele>
        <time>2013-06-12T09:40:54Z</time>
      </trkpt>
      <trkpt lat="38.5678060" lon="14.6695720">
        <ele>3.0200000</ele>
        <time>2013-06-12T09:41:10Z</time>
      </trkpt>
      <trkpt lat="38.5677570" lon="14.6691440">
        <ele>3.5000000</ele>
        <time>2013-06-12T09:41:25Z</time>
      </trkpt>
      <trkpt lat="38.5676880" lon="14.6687080">
        <ele>3.5000000</ele>
        <time>2013-06-12T09:41:40Z</time>
      </trkpt>
      <trkpt lat="38.5676310" lon="14.6682800">
        <ele>3.0200000</ele>
        <time>2013-06-12T09:41:55Z</time>
      </trkpt>
      <trkpt lat="38.5675620" lon="14.6678640">
        <ele>2.5400000</ele>
        <time>2013-06-12T09:42:10Z</time>
      </trkpt>
      <trkpt lat="38.5674780" lon="14.6674450">
        <ele>3.5000000</ele>
        <time>2013-06-12T09:42:25Z</time>
      </trkpt>
      <trkpt lat="38.5674100" lon="14.6670470">
        <ele>3.0200000</ele>
        <time>2013-06-12T09:42:39Z</time>
      </trkpt>
      <trkpt lat="38.5673480" lon="14.6666270">
        <ele>3.5000000</ele>
        <time>2013-06-12T09:42:54Z</time>
      </trkpt>
      <trkpt lat="38.5672530" lon="14.6661620">
        <ele>3.0200000</ele>
        <time>2013-06-12T09:43:10Z</time>
      </trkpt>
      <trkpt lat="38.5671880" lon="14.6657560">
        <ele>3.0200000</ele>
        <time>2013-06-12T09:43:24Z</time>
      </trkpt>
      <trkpt lat="38.5671270" lon="14.6653080">
        <ele>3.0200000</ele>
        <time>2013-06-12T09:43:39Z</time>
      </trkpt>
      <trkpt lat="38.5670510" lon="14.6647900">
        <ele>3.5000000</ele>
        <time>2013-06-12T09:43:56Z</time>
      </trkpt>
      <trkpt lat="38.5669820" lon="14.6643590">
        <ele>3.5000000</ele>
        <time>2013-06-12T09:44:12Z</time>
      </trkpt>
      <trkpt lat="38.5669440" lon="14.6640510">
        <ele>3.5000000</ele>
        <time>2013-06-12T09:44:24Z</time>
      </trkpt>
      <trkpt lat="38.5668560" lon="14.6635760">
        <ele>3.0200000</ele>
        <time>2013-06-12T09:44:41Z</time>
      </trkpt>
      <trkpt lat="38.5667950" lon="14.6631580">
        <ele>2.5400000</ele>
        <time>2013-06-12T09:44:56Z</time>
      </trkpt>
      <trkpt lat="38.5667340" lon="14.6627460">
        <ele>3.5000000</ele>
        <time>2013-06-12T09:45:11Z</time>
      </trkpt>
      <trkpt lat="38.5666770" lon="14.6622690">
        <ele>3.0200000</ele>
        <time>2013-06-12T09:45:28Z</time>
      </trkpt>
      <trkpt lat="38.5666010" lon="14.6618300">
        <ele>3.0200000</ele>
        <time>2013-06-12T09:45:44Z</time>
      </trkpt>
      <trkpt lat="38.5665440" lon="14.6614050">
        <ele>3.0200000</ele>
        <time>2013-06-12T09:46:00Z</time>
      </trkpt>
      <trkpt lat="38.5664830" lon="14.6609550">
        <ele>3.5000000</ele>
        <time>2013-06-12T09:46:17Z</time>
      </trkpt>
      <trkpt lat="38.5664250" lon="14.6605660">
        <ele>3.0200000</ele>
        <time>2013-06-12T09:46:31Z</time>
      </trkpt>
      <trkpt lat="38.5663910" lon="14.6602070">
        <ele>3.0200000</ele>
        <time>2013-06-12T09:46:44Z</time>
      </trkpt>
      <trkpt lat="38.5663380" lon="14.6598730">
        <ele>3.0200000</ele>
        <time>2013-06-12T09:46:58Z</time>
      </trkpt>
      <trkpt lat="38.5662650" lon="14.6594030">
        <ele>3.5000000</ele>
        <time>2013-06-12T09:47:15Z</time>
      </trkpt>
      <trkpt lat="38.5662190" lon="14.6589230">
        <ele>3.9800000</ele>
        <time>2013-06-12T09:47:31Z</time>
      </trkpt>
      <trkpt lat="38.5661770" lon="14.6585660">
        <ele>3.0200000</ele>
        <time>2013-06-12T09:47:45Z</time>
      </trkpt>
      <trkpt lat="38.5661280" lon="14.6581990">
        <ele>3.5000000</ele>
        <time>2013-06-12T09:47:59Z</time>
      </trkpt>
      <trkpt lat="38.5660820" lon="14.6578010">
        <ele>3.9800000</ele>
        <time>2013-06-12T09:48:14Z</time>
      </trkpt>
      <trkpt lat="38.5660360" lon="14.6574550">
        <ele>3.5000000</ele>
        <time>2013-06-12T09:48:27Z</time>
      </trkpt>
      <trkpt lat="38.5659870" lon="14.6570340">
        <ele>3.5000000</ele>
        <time>2013-06-12T09:48:43Z</time>
      </trkpt>
      <trkpt lat="38.5659290" lon="14.6566500">
        <ele>2.5400000</ele>
        <time>2013-06-12T09:48:57Z</time>
      </trkpt>
      <trkpt lat="38.5658720" lon="14.6562640">
        <ele>3.0200000</ele>
        <time>2013-06-12T09:49:11Z</time>
      </trkpt>
      <trkpt lat="38.5658110" lon="14.6558150">
        <ele>3.5000000</ele>
        <time>2013-06-12T09:49:27Z</time>
      </trkpt>
      <trkpt lat="38.5657620" lon="14.6553790">
        <ele>3.5000000</ele>
        <time>2013-06-12T09:49:42Z</time>
      </trkpt>
      <trkpt lat="38.5657160" lon="14.6549980">
        <ele>3.0200000</ele>
        <time>2013-06-12T09:49:55Z</time>
      </trkpt>
      <trkpt lat="38.5656590" lon="14.6545890">
        <ele>3.5000000</ele>
        <time>2013-06-12T09:50:09Z</time>
      </trkpt>
      <trkpt lat="38.5656010" lon="14.6541610">
        <ele>3.0200000</ele>
        <time>2013-06-12T09:50:24Z</time>
      </trkpt>
      <trkpt lat="38.5655560" lon="14.6538030">
        <ele>3.0200000</ele>
        <time>2013-06-12T09:50:37Z</time>
      </trkpt>
      <trkpt lat="38.5655100" lon="14.6534020">
        <ele>3.0200000</ele>
        <time>2013-06-12T09:50:51Z</time>
      </trkpt>
      <trkpt lat="38.5654370" lon="14.6529760">
        <ele>3.0200000</ele>
        <time>2013-06-12T09:51:06Z</time>
      </trkpt>
      <trkpt lat="38.5653720" lon="14.6525500">
        <ele>2.5400000</ele>
        <time>2013-06-12T09:51:20Z</time>
      </trkpt>
      <trkpt lat="38.5653500" lon="14.6522180">
        <ele>3.0200000</ele>
        <time>2013-06-12T09:51:32Z</time>
      </trkpt>
      <trkpt lat="38.5652770" lon="14.6518050">
        <ele>2.5400000</ele>
        <time>2013-06-12T09:51:48Z</time>
      </trkpt>
      <trkpt lat="38.5652200" lon="14.6513280">
        <ele>3.0200000</ele>
        <time>2013-06-12T09:52:05Z</time>
      </trkpt>
      <trkpt lat="38.5651780" lon="14.6509820">
        <ele>3.0200000</ele>
        <time>2013-06-12T09:52:18Z</time>
      </trkpt>
      <trkpt lat="38.5651360" lon="14.6506030">
        <ele>3.0200000</ele>
        <time>2013-06-12T09:52:32Z</time>
      </trkpt>
      <trkpt lat="38.5651210" lon="14.6502430">
        <ele>3.0200000</ele>
        <time>2013-06-12T09:52:45Z</time>
      </trkpt>
      <trkpt lat="38.5650830" lon="14.6498690">
        <ele>3.0200000</ele>
        <time>2013-06-12T09:52:58Z</time>
      </trkpt>
      <trkpt lat="38.5650410" lon="14.6494780">
        <ele>3.0200000</ele>
        <time>2013-06-12T09:53:13Z</time>
      </trkpt>
      <trkpt lat="38.5649800" lon="14.6490910">
        <ele>2.5400000</ele>
        <time>2013-06-12T09:53:27Z</time>
      </trkpt>
      <trkpt lat="38.5649190" lon="14.6486670">
        <ele>3.0200000</ele>
        <time>2013-06-12T09:53:41Z</time>
      </trkpt>
      <trkpt lat="38.5648610" lon="14.6481910">
        <ele>2.5400000</ele>
        <time>2013-06-12T09:53:57Z</time>
      </trkpt>
      <trkpt lat="38.5648080" lon="14.6478210">
        <ele>3.0200000</ele>
        <time>2013-06-12T09:54:11Z</time>
      </trkpt>
      <trkpt lat="38.5647540" lon="14.6473840">
        <ele>3.0200000</ele>
        <time>2013-06-12T09:54:27Z</time>
      </trkpt>
      <trkpt lat="38.5646900" lon="14.6469610">
        <ele>2.5400000</ele>
        <time>2013-06-12T09:54:42Z</time>
      </trkpt>
      <trkpt lat="38.5646360" lon="14.6465230">
        <ele>2.5400000</ele>
        <time>2013-06-12T09:54:57Z</time>
      </trkpt>
      <trkpt lat="38.5645790" lon="14.6461580">
        <ele>3.0200000</ele>
        <time>2013-06-12T09:55:11Z</time>
      </trkpt>
      <trkpt lat="38.5645480" lon="14.6458330">
        <ele>2.5400000</ele>
        <time>2013-06-12T09:55:24Z</time>
      </trkpt>
      <trkpt lat="38.5644870" lon="14.6453700">
        <ele>3.0200000</ele>
        <time>2013-06-12T09:55:41Z</time>
      </trkpt>
      <trkpt lat="38.5644420" lon="14.6449540">
        <ele>3.0200000</ele>
        <time>2013-06-12T09:55:55Z</time>
      </trkpt>
      <trkpt lat="38.5644340" lon="14.6447380">
        <ele>2.0600000</ele>
        <time>2013-06-12T09:56:02Z</time>
      </trkpt>
      <trkpt lat="38.5643810" lon="14.6443170">
        <ele>3.0200000</ele>
        <time>2013-06-12T09:56:17Z</time>
      </trkpt>
      <trkpt lat="38.5643230" lon="14.6439400">
        <ele>2.5400000</ele>
        <time>2013-06-12T09:56:33Z</time>
      </trkpt>
      <trkpt lat="38.5642890" lon="14.6434740">
        <ele>2.5400000</ele>
        <time>2013-06-12T09:56:49Z</time>
      </trkpt>
      <trkpt lat="38.5642320" lon="14.6430810">
        <ele>2.0600000</ele>
        <time>2013-06-12T09:57:03Z</time>
      </trkpt>
      <trkpt lat="38.5641780" lon="14.6427060">
        <ele>2.5400000</ele>
        <time>2013-06-12T09:57:17Z</time>
      </trkpt>
      <trkpt lat="38.5641630" lon="14.6423150">
        <ele>2.5400000</ele>
        <time>2013-06-12T09:57:32Z</time>
      </trkpt>
      <trkpt lat="38.5641140" lon="14.6419020">
        <ele>3.0200000</ele>
        <time>2013-06-12T09:57:47Z</time>
      </trkpt>
      <trkpt lat="38.5640640" lon="14.6415170">
        <ele>3.0200000</ele>
        <time>2013-06-12T09:58:01Z</time>
      </trkpt>
      <trkpt lat="38.5640300" lon="14.6411060">
        <ele>3.0200000</ele>
        <time>2013-06-12T09:58:15Z</time>
      </trkpt>
      <trkpt lat="38.5640140" lon="14.6406880">
        <ele>3.0200000</ele>
        <time>2013-06-12T09:58:29Z</time>
      </trkpt>
      <trkpt lat="38.5639500" lon="14.6402690">
        <ele>3.0200000</ele>
        <time>2013-06-12T09:58:43Z</time>
      </trkpt>
      <trkpt lat="38.5638920" lon="14.6398000">
        <ele>2.5400000</ele>
        <time>2013-06-12T09:58:59Z</time>
      </trkpt>
      <trkpt lat="38.5638500" lon="14.6394070">
        <ele>2.5400000</ele>
        <time>2013-06-12T09:59:12Z</time>
      </trkpt>
      <trkpt lat="38.5637930" lon="14.6389920">
        <ele>3.0200000</ele>
        <time>2013-06-12T09:59:26Z</time>
      </trkpt>
      <trkpt lat="38.5637440" lon="14.6385750">
        <ele>3.0200000</ele>
        <time>2013-06-12T09:59:40Z</time>
      </trkpt>
      <trkpt lat="38.5636600" lon="14.6381650">
        <ele>3.0200000</ele>
        <time>2013-06-12T09:59:54Z</time>
      </trkpt>
      <trkpt lat="38.5636410" lon="14.6377690">
        <ele>2.5400000</ele>
        <time>2013-06-12T10:00:07Z</time>
      </trkpt>
      <trkpt lat="38.5636140" lon="14.6373620">
        <ele>2.5400000</ele>
        <time>2013-06-12T10:00:21Z</time>
      </trkpt>
      <trkpt lat="38.5635720" lon="14.6369420">
        <ele>2.5400000</ele>
        <time>2013-06-12T10:00:36Z</time>
      </trkpt>
      <trkpt lat="38.5635340" lon="14.6364900">
        <ele>2.5400000</ele>
        <time>2013-06-12T10:00:52Z</time>
      </trkpt>
      <trkpt lat="38.5634800" lon="14.6360900">
        <ele>3.5000000</ele>
        <time>2013-06-12T10:01:06Z</time>
      </trkpt>
      <trkpt lat="38.5634500" lon="14.6357290">
        <ele>3.5000000</ele>
        <time>2013-06-12T10:01:18Z</time>
      </trkpt>
      <trkpt lat="38.5633770" lon="14.6352830">
        <ele>3.0200000</ele>
        <time>2013-06-12T10:01:33Z</time>
      </trkpt>
      <trkpt lat="38.5633430" lon="14.6348720">
        <ele>3.0200000</ele>
        <time>2013-06-12T10:01:47Z</time>
      </trkpt>
      <trkpt lat="38.5633090" lon="14.6344460">
        <ele>3.0200000</ele>
        <time>2013-06-12T10:02:01Z</time>
      </trkpt>
      <trkpt lat="38.5632740" lon="14.6340040">
        <ele>2.5400000</ele>
        <time>2013-06-12T10:02:16Z</time>
      </trkpt>
      <trkpt lat="38.5632130" lon="14.6335940">
        <ele>3.0200000</ele>
        <time>2013-06-12T10:02:30Z</time>
      </trkpt>
      <trkpt lat="38.5631830" lon="14.6331930">
        <ele>3.5000000</ele>
        <time>2013-06-12T10:02:44Z</time>
      </trkpt>
      <trkpt lat="38.5631520" lon="14.6327510">
        <ele>2.5400000</ele>
        <time>2013-06-12T10:02:59Z</time>
      </trkpt>
      <trkpt lat="38.5631140" lon="14.6322510">
        <ele>2.5400000</ele>
        <time>2013-06-12T10:03:15Z</time>
      </trkpt>
      <trkpt lat="38.5630760" lon="14.6317960">
        <ele>3.0200000</ele>
        <time>2013-06-12T10:03:30Z</time>
      </trkpt>
      <trkpt lat="38.5630650" lon="14.6313250">
        <ele>2.5400000</ele>
        <time>2013-06-12T10:03:45Z</time>
      </trkpt>
      <trkpt lat="38.5630420" lon="14.6309150">
        <ele>3.0200000</ele>
        <time>2013-06-12T10:03:58Z</time>
      </trkpt>
      <trkpt lat="38.5630070" lon="14.6304620">
        <ele>2.5400000</ele>
        <time>2013-06-12T10:04:12Z</time>
      </trkpt>
      <trkpt lat="38.5629620" lon="14.6300010">
        <ele>3.5000000</ele>
        <time>2013-06-12T10:04:27Z</time>
      </trkpt>
      <trkpt lat="38.5629350" lon="14.6295800">
        <ele>3.0200000</ele>
        <time>2013-06-12T10:04:41Z</time>
      </trkpt>
      <trkpt lat="38.5629390" lon="14.6291390">
        <ele>3.0200000</ele>
        <time>2013-06-12T10:04:56Z</time>
      </trkpt>
      <trkpt lat="38.5629200" lon="14.6286690">
        <ele>3.5000000</ele>
        <time>2013-06-12T10:05:12Z</time>
      </trkpt>
      <trkpt lat="38.5628930" lon="14.6281510">
        <ele>3.0200000</ele>
        <time>2013-06-12T10:05:29Z</time>
      </trkpt>
      <trkpt lat="38.5628850" lon="14.6276820">
        <ele>3.5000000</ele>
        <time>2013-06-12T10:05:45Z</time>
      </trkpt>
      <trkpt lat="38.5628810" lon="14.6272670">
        <ele>3.9800000</ele>
        <time>2013-06-12T10:05:59Z</time>
      </trkpt>
      <trkpt lat="38.5628470" lon="14.6267830">
        <ele>3.0200000</ele>
        <time>2013-06-12T10:06:15Z</time>
      </trkpt>
      <trkpt lat="38.5628200" lon="14.6264240">
        <ele>3.5000000</ele>
        <time>2013-06-12T10:06:28Z</time>
      </trkpt>
      <trkpt lat="38.5628090" lon="14.6260260">
        <ele>3.0200000</ele>
        <time>2013-06-12T10:06:42Z</time>
      </trkpt>
      <trkpt lat="38.5628130" lon="14.6255370">
        <ele>3.5000000</ele>
        <time>2013-06-12T10:06:58Z</time>
      </trkpt>
      <trkpt lat="38.5628170" lon="14.6251090">
        <ele>3.5000000</ele>
        <time>2013-06-12T10:07:13Z</time>
      </trkpt>
      <trkpt lat="38.5628240" lon="14.6246950">
        <ele>3.0200000</ele>
        <time>2013-06-12T10:07:28Z</time>
      </trkpt>
      <trkpt lat="38.5628050" lon="14.6242440">
        <ele>3.5000000</ele>
        <time>2013-06-12T10:07:43Z</time>
      </trkpt>
      <trkpt lat="38.5628170" lon="14.6237810">
        <ele>3.0200000</ele>
        <time>2013-06-12T10:07:58Z</time>
      </trkpt>
      <trkpt lat="38.5628130" lon="14.6233800">
        <ele>3.5000000</ele>
        <time>2013-06-12T10:08:12Z</time>
      </trkpt>
      <trkpt lat="38.5628240" lon="14.6229340">
        <ele>3.9800000</ele>
        <time>2013-06-12T10:08:27Z</time>
      </trkpt>
      <trkpt lat="38.5628360" lon="14.6224310">
        <ele>4.4600000</ele>
        <time>2013-06-12T10:08:44Z</time>
      </trkpt>
      <trkpt lat="38.5628240" lon="14.6219460">
        <ele>3.9800000</ele>
        <time>2013-06-12T10:09:01Z</time>
      </trkpt>
      <trkpt lat="38.5628360" lon="14.6214060">
        <ele>3.9800000</ele>
        <time>2013-06-12T10:09:19Z</time>
      </trkpt>
      <trkpt lat="38.5628320" lon="14.6209810">
        <ele>3.9800000</ele>
        <time>2013-06-12T10:09:33Z</time>
      </trkpt>
      <trkpt lat="38.5628280" lon="14.6205840">
        <ele>3.9800000</ele>
        <time>2013-06-12T10:09:46Z</time>
      </trkpt>
      <trkpt lat="38.5628170" lon="14.6201160">
        <ele>4.4600000</ele>
        <time>2013-06-12T10:10:01Z</time>
      </trkpt>
      <trkpt lat="38.5628200" lon="14.6196410">
        <ele>3.9800000</ele>
        <time>2013-06-12T10:10:16Z</time>
      </trkpt>
      <trkpt lat="38.5628050" lon="14.6191020">
        <ele>4.9400000</ele>
        <time>2013-06-12T10:10:33Z</time>
      </trkpt>
      <trkpt lat="38.5628010" lon="14.6186660">
        <ele>4.4600000</ele>
        <time>2013-06-12T10:10:48Z</time>
      </trkpt>
      <trkpt lat="38.5628170" lon="14.6181950">
        <ele>3.9800000</ele>
        <time>2013-06-12T10:11:04Z</time>
      </trkpt>
      <trkpt lat="38.5628200" lon="14.6177810">
        <ele>3.9800000</ele>
        <time>2013-06-12T10:11:18Z</time>
      </trkpt>
      <trkpt lat="38.5628240" lon="14.6173140">
        <ele>5.4200000</ele>
        <time>2013-06-12T10:11:34Z</time>
      </trkpt>
      <trkpt lat="38.5628050" lon="14.6169030">
        <ele>4.4600000</ele>
        <time>2013-06-12T10:11:47Z</time>
      </trkpt>
      <trkpt lat="38.5627630" lon="14.6164750">
        <ele>4.9400000</ele>
        <time>2013-06-12T10:12:01Z</time>
      </trkpt>
      <trkpt lat="38.5627440" lon="14.6160540">
        <ele>4.4600000</ele>
        <time>2013-06-12T10:12:15Z</time>
      </trkpt>
      <trkpt lat="38.5627290" lon="14.6156340">
        <ele>4.4600000</ele>
        <time>2013-06-12T10:12:29Z</time>
      </trkpt>
      <trkpt lat="38.5627520" lon="14.6151280">
        <ele>4.4600000</ele>
        <time>2013-06-12T10:12:45Z</time>
      </trkpt>
      <trkpt lat="38.5627980" lon="14.6146650">
        <ele>4.4600000</ele>
        <time>2013-06-12T10:13:00Z</time>
      </trkpt>
      <trkpt lat="38.5628130" lon="14.6141410">
        <ele>4.9400000</ele>
        <time>2013-06-12T10:13:17Z</time>
      </trkpt>
      <trkpt lat="38.5628170" lon="14.6137470">
        <ele>5.4200000</ele>
        <time>2013-06-12T10:13:30Z</time>
      </trkpt>
      <trkpt lat="38.5628470" lon="14.6132930">
        <ele>5.4200000</ele>
        <time>2013-06-12T10:13:46Z</time>
      </trkpt>
      <trkpt lat="38.5628320" lon="14.6128340">
        <ele>4.4600000</ele>
        <time>2013-06-12T10:14:01Z</time>
      </trkpt>
      <trkpt lat="38.5628430" lon="14.6123510">
        <ele>4.4600000</ele>
        <time>2013-06-12T10:14:17Z</time>
      </trkpt>
      <trkpt lat="38.5628740" lon="14.6119170">
        <ele>4.4600000</ele>
        <time>2013-06-12T10:14:31Z</time>
      </trkpt>
      <trkpt lat="38.5628660" lon="14.6115680">
        <ele>4.9400000</ele>
        <time>2013-06-12T10:14:43Z</time>
      </trkpt>
      <trkpt lat="38.5628700" lon="14.6110960">
        <ele>4.4600000</ele>
        <time>2013-06-12T10:14:59Z</time>
      </trkpt>
      <trkpt lat="38.5629010" lon="14.6105250">
        <ele>4.4600000</ele>
        <time>2013-06-12T10:15:18Z</time>
      </trkpt>
      <trkpt lat="38.5629010" lon="14.6099950">
        <ele>4.4600000</ele>
        <time>2013-06-12T10:15:35Z</time>
      </trkpt>
      <trkpt lat="38.5629230" lon="14.6094660">
        <ele>4.4600000</ele>
        <time>2013-06-12T10:15:52Z</time>
      </trkpt>
      <trkpt lat="38.5629810" lon="14.6090300">
        <ele>4.9400000</ele>
        <time>2013-06-12T10:16:06Z</time>
      </trkpt>
      <trkpt lat="38.5629920" lon="14.6085350">
        <ele>5.4200000</ele>
        <time>2013-06-12T10:16:22Z</time>
      </trkpt>
      <trkpt lat="38.5629960" lon="14.6084450">
        <ele>3.9800000</ele>
        <time>2013-06-12T10:16:25Z</time>
      </trkpt>
      <trkpt lat="38.5629770" lon="14.6079410">
        <ele>4.9400000</ele>
        <time>2013-06-12T10:16:41Z</time>
      </trkpt>
      <trkpt lat="38.5629960" lon="14.6074040">
        <ele>5.4200000</ele>
        <time>2013-06-12T10:16:58Z</time>
      </trkpt>
      <trkpt lat="38.5630040" lon="14.6069790">
        <ele>4.9400000</ele>
        <time>2013-06-12T10:17:12Z</time>
      </trkpt>
      <trkpt lat="38.5630190" lon="14.6064860">
        <ele>4.9400000</ele>
        <time>2013-06-12T10:17:28Z</time>
      </trkpt>
      <trkpt lat="38.5630000" lon="14.6059880">
        <ele>4.9400000</ele>
        <time>2013-06-12T10:17:44Z</time>
      </trkpt>
      <trkpt lat="38.5630070" lon="14.6054760">
        <ele>4.4600000</ele>
        <time>2013-06-12T10:18:00Z</time>
      </trkpt>
      <trkpt lat="38.5629840" lon="14.6049570">
        <ele>4.4600000</ele>
        <time>2013-06-12T10:18:16Z</time>
      </trkpt>
      <trkpt lat="38.5629540" lon="14.6044060">
        <ele>4.4600000</ele>
        <time>2013-06-12T10:18:33Z</time>
      </trkpt>
      <trkpt lat="38.5629310" lon="14.6039310">
        <ele>5.4200000</ele>
        <time>2013-06-12T10:18:48Z</time>
      </trkpt>
      <trkpt lat="38.5629310" lon="14.6039030">
        <ele>5.4200000</ele>
        <time>2013-06-12T10:18:49Z</time>
      </trkpt>
      <trkpt lat="38.5628850" lon="14.6033950">
        <ele>4.4600000</ele>
        <time>2013-06-12T10:19:06Z</time>
      </trkpt>
      <trkpt lat="38.5628510" lon="14.6029420">
        <ele>4.4600000</ele>
        <time>2013-06-12T10:19:21Z</time>
      </trkpt>
      <trkpt lat="38.5628430" lon="14.6025000">
        <ele>4.9400000</ele>
        <time>2013-06-12T10:19:35Z</time>
      </trkpt>
      <trkpt lat="38.5628240" lon="14.6020080">
        <ele>4.4600000</ele>
        <time>2013-06-12T10:19:51Z</time>
      </trkpt>
      <trkpt lat="38.5627900" lon="14.6014870">
        <ele>3.9800000</ele>
        <time>2013-06-12T10:20:08Z</time>
      </trkpt>
      <trkpt lat="38.5627670" lon="14.6009570">
        <ele>4.9400000</ele>
        <time>2013-06-12T10:20:25Z</time>
      </trkpt>
      <trkpt lat="38.5627630" lon="14.6004360">
        <ele>4.9400000</ele>
        <time>2013-06-12T10:20:41Z</time>
      </trkpt>
      <trkpt lat="38.5627520" lon="14.6000110">
        <ele>4.4600000</ele>
        <time>2013-06-12T10:20:55Z</time>
      </trkpt>
      <trkpt lat="38.5627440" lon="14.5995110">
        <ele>4.9400000</ele>
        <time>2013-06-12T10:21:11Z</time>
      </trkpt>
      <trkpt lat="38.5627370" lon="14.5990370">
        <ele>4.4600000</ele>
        <time>2013-06-12T10:21:26Z</time>
      </trkpt>
      <trkpt lat="38.5627100" lon="14.5985410">
        <ele>4.4600000</ele>
        <time>2013-06-12T10:21:42Z</time>
      </trkpt>
      <trkpt lat="38.5626560" lon="14.5979480">
        <ele>4.9400000</ele>
        <time>2013-06-12T10:22:01Z</time>
      </trkpt>
      <trkpt lat="38.5626300" lon="14.5974490">
        <ele>4.4600000</ele>
        <time>2013-06-12T10:22:17Z</time>
      </trkpt>
      <trkpt lat="38.5625990" lon="14.5969060">
        <ele>4.4600000</ele>
        <time>2013-06-12T10:22:34Z</time>
      </trkpt>
      <trkpt lat="38.5625760" lon="14.5964980">
        <ele>5.4200000</ele>
        <time>2013-06-12T10:22:47Z</time>
      </trkpt>
      <trkpt lat="38.5625690" lon="14.5960050">
        <ele>4.9400000</ele>
        <time>2013-06-12T10:23:03Z</time>
      </trkpt>
      <trkpt lat="38.5625230" lon="14.5955350">
        <ele>4.9400000</ele>
        <time>2013-06-12T10:23:18Z</time>
      </trkpt>
      <trkpt lat="38.5624690" lon="14.5950380">
        <ele>4.9400000</ele>
        <time>2013-06-12T10:23:34Z</time>
      </trkpt>
      <trkpt lat="38.5624280" lon="14.5945720">
        <ele>4.4600000</ele>
        <time>2013-06-12T10:23:49Z</time>
      </trkpt>
      <trkpt lat="38.5623590" lon="14.5940300">
        <ele>4.9400000</ele>
        <time>2013-06-12T10:24:06Z</time>
      </trkpt>
      <trkpt lat="38.5622180" lon="14.5935410">
        <ele>4.4600000</ele>
        <time>2013-06-12T10:24:22Z</time>
      </trkpt>
      <trkpt lat="38.5620540" lon="14.5931090">
        <ele>4.4600000</ele>
        <time>2013-06-12T10:24:37Z</time>
      </trkpt>
      <trkpt lat="38.5618860" lon="14.5925280">
        <ele>3.9800000</ele>
        <time>2013-06-12T10:24:56Z</time>
      </trkpt>
      <trkpt lat="38.5616990" lon="14.5920480">
        <ele>4.4600000</ele>
        <time>2013-06-12T10:25:12Z</time>
      </trkpt>
      <trkpt lat="38.5614890" lon="14.5915770">
        <ele>4.9400000</ele>
        <time>2013-06-12T10:25:29Z</time>
      </trkpt>
      <trkpt lat="38.5613480" lon="14.5910720">
        <ele>3.9800000</ele>
        <time>2013-06-12T10:25:45Z</time>
      </trkpt>
      <trkpt lat="38.5612300" lon="14.5905150">
        <ele>4.9400000</ele>
        <time>2013-06-12T10:26:03Z</time>
      </trkpt>
      <trkpt lat="38.5612030" lon="14.5901420">
        <ele>4.9400000</ele>
        <time>2013-06-12T10:26:19Z</time>
      </trkpt>
      <trkpt lat="38.5611310" lon="14.5898140">
        <ele>4.9400000</ele>
        <time>2013-06-12T10:26:36Z</time>
      </trkpt>
      <trkpt lat="38.5611460" lon="14.5895270">
        <ele>4.9400000</ele>
        <time>2013-06-12T10:26:51Z</time>
      </trkpt>
      <trkpt lat="38.5611610" lon="14.5891430">
        <ele>5.9100000</ele>
        <time>2013-06-12T10:27:11Z</time>
      </trkpt>
      <trkpt lat="38.5611690" lon="14.5887950">
        <ele>5.4200000</ele>
        <time>2013-06-12T10:27:29Z</time>
      </trkpt>
      <trkpt lat="38.5611650" lon="14.5884710">
        <ele>4.4600000</ele>
        <time>2013-06-12T10:27:46Z</time>
      </trkpt>
      <trkpt lat="38.5611610" lon="14.5881080">
        <ele>4.4600000</ele>
        <time>2013-06-12T10:28:03Z</time>
      </trkpt>
      <trkpt lat="38.5611000" lon="14.5876870">
        <ele>4.9400000</ele>
        <time>2013-06-12T10:28:24Z</time>
      </trkpt>
      <trkpt lat="38.5611000" lon="14.5876310">
        <ele>4.9400000</ele>
        <time>2013-06-12T10:28:28Z</time>
      </trkpt>
      <trkpt lat="38.5610920" lon="14.5875590">
        <ele>4.9400000</ele>
        <time>2013-06-12T10:28:33Z</time>
      </trkpt>
      <trkpt lat="38.5610690" lon="14.5873180">
        <ele>3.9800000</ele>
        <time>2013-06-12T10:28:54Z</time>
      </trkpt>
      <trkpt lat="38.5610660" lon="14.5870910">
        <ele>3.9800000</ele>
        <time>2013-06-12T10:29:15Z</time>
      </trkpt>
      <trkpt lat="38.5610580" lon="14.5869180">
        <ele>4.9400000</ele>
        <time>2013-06-12T10:29:31Z</time>
      </trkpt>
      <trkpt lat="38.5610470" lon="14.5867670">
        <ele>4.4600000</ele>
        <time>2013-06-12T10:29:47Z</time>
      </trkpt>
      <trkpt lat="38.5610500" lon="14.5866050">
        <ele>3.9800000</ele>
        <time>2013-06-12T10:30:04Z</time>
      </trkpt>
      <trkpt lat="38.5610620" lon="14.5865380">
        <ele>3.9800000</ele>
        <time>2013-06-12T10:30:10Z</time>
      </trkpt>
      <trkpt lat="38.5610660" lon="14.5863580">
        <ele>3.9800000</ele>
        <time>2013-06-12T10:30:28Z</time>
      </trkpt>
      <trkpt lat="38.5610770" lon="14.5861610">
        <ele>3.9800000</ele>
        <time>2013-06-12T10:30:45Z</time>
      </trkpt>
      <trkpt lat="38.5611380" lon="14.5859720">
        <ele>4.4600000</ele>
        <time>2013-06-12T10:31:03Z</time>
      </trkpt>
      <trkpt lat="38.5611500" lon="14.5857830">
        <ele>4.4600000</ele>
        <time>2013-06-12T10:31:20Z</time>
      </trkpt>
      <trkpt lat="38.5610580" lon="14.5856620">
        <ele>4.4600000</ele>
        <time>2013-06-12T10:31:40Z</time>
      </trkpt>
      <trkpt lat="38.5611230" lon="14.5855730">
        <ele>4.4600000</ele>
        <time>2013-06-12T10:32:00Z</time>
      </trkpt>
      <trkpt lat="38.5611920" lon="14.5856590">
        <ele>4.4600000</ele>
        <time>2013-06-12T10:32:20Z</time>
      </trkpt>
      <trkpt lat="38.5611990" lon="14.5856740">
        <ele>4.4600000</ele>
        <time>2013-06-12T10:32:39Z</time>
      </trkpt>
      <trkpt lat="38.5610960" lon="14.5856060">
        <ele>3.9800000</ele>
        <time>2013-06-12T10:33:01Z</time>
      </trkpt>
      <trkpt lat="38.5610580" lon="14.5854920">
        <ele>4.4600000</ele>
        <time>2013-06-12T10:33:18Z</time>
      </trkpt>
      <trkpt lat="38.5610890" lon="14.5853290">
        <ele>3.9800000</ele>
        <time>2013-06-12T10:33:37Z</time>
      </trkpt>
      <trkpt lat="38.5611310" lon="14.5852340">
        <ele>3.9800000</ele>
        <time>2013-06-12T10:33:53Z</time>
      </trkpt>
      <trkpt lat="38.5611920" lon="14.5850730">
        <ele>3.9800000</ele>
        <time>2013-06-12T10:34:11Z</time>
      </trkpt>
      <trkpt lat="38.5612180" lon="14.5849250">
        <ele>3.5000000</ele>
        <time>2013-06-12T10:34:29Z</time>
      </trkpt>
      <trkpt lat="38.5612340" lon="14.5847480">
        <ele>4.4600000</ele>
        <time>2013-06-12T10:34:48Z</time>
      </trkpt>
      <trkpt lat="38.5612750" lon="14.5845630">
        <ele>4.9400000</ele>
        <time>2013-06-12T10:35:08Z</time>
      </trkpt>
      <trkpt lat="38.5613140" lon="14.5843850">
        <ele>4.9400000</ele>
        <time>2013-06-12T10:35:25Z</time>
      </trkpt>
      <trkpt lat="38.5613480" lon="14.5841790">
        <ele>4.4600000</ele>
        <time>2013-06-12T10:35:46Z</time>
      </trkpt>
      <trkpt lat="38.5613520" lon="14.5841580">
        <ele>4.9400000</ele>
        <time>2013-06-12T10:35:48Z</time>
      </trkpt>
      <trkpt lat="38.5613780" lon="14.5838850">
        <ele>4.9400000</ele>
        <time>2013-06-12T10:36:10Z</time>
      </trkpt>
      <trkpt lat="38.5614170" lon="14.5836740">
        <ele>5.4200000</ele>
        <time>2013-06-12T10:36:30Z</time>
      </trkpt>
      <trkpt lat="38.5614430" lon="14.5834820">
        <ele>5.4200000</ele>
        <time>2013-06-12T10:36:48Z</time>
      </trkpt>
      <trkpt lat="38.5614590" lon="14.5834320">
        <ele>5.9100000</ele>
        <time>2013-06-12T10:37:05Z</time>
      </trkpt>
      <trkpt lat="38.5614590" lon="14.5834320">
        <ele>6.8700000</ele>
        <time>2013-06-12T10:37:17Z</time>
      </trkpt>
      <trkpt lat="38.5613780" lon="14.5834110">
        <ele>6.8700000</ele>
        <time>2013-06-12T10:37:37Z</time>
      </trkpt>
      <trkpt lat="38.5613820" lon="14.5833620">
        <ele>6.3900000</ele>
        <time>2013-06-12T10:37:57Z</time>
      </trkpt>
      <trkpt lat="38.5614660" lon="14.5833300">
        <ele>6.3900000</ele>
        <time>2013-06-12T10:38:17Z</time>
      </trkpt>
      <trkpt lat="38.5614890" lon="14.5833230">
        <ele>5.4200000</ele>
        <time>2013-06-12T10:38:43Z</time>
      </trkpt>
      <trkpt lat="38.5614890" lon="14.5833230">
        <ele>5.9100000</ele>
        <time>2013-06-12T10:39:06Z</time>
      </trkpt>
      <trkpt lat="38.5614930" lon="14.5833210">
        <ele>5.9100000</ele>
        <time>2013-06-12T10:39:28Z</time>
      </trkpt>
      <trkpt lat="38.5615010" lon="14.5833060">
        <ele>6.3900000</ele>
        <time>2013-06-12T10:39:46Z</time>
      </trkpt>
      <trkpt lat="38.5615010" lon="14.5833060">
        <ele>6.3900000</ele>
        <time>2013-06-12T10:40:04Z</time>
      </trkpt>
      <trkpt lat="38.5614810" lon="14.5832930">
        <ele>6.8700000</ele>
        <time>2013-06-12T10:40:22Z</time>
      </trkpt>
      <trkpt lat="38.5614430" lon="14.5832390">
        <ele>6.3900000</ele>
        <time>2013-06-12T10:40:41Z</time>
      </trkpt>
      <trkpt lat="38.5614240" lon="14.5832450">
        <ele>5.9100000</ele>
        <time>2013-06-12T10:40:59Z</time>
      </trkpt>
      <trkpt lat="38.5614240" lon="14.5832450">
        <ele>6.3900000</ele>
        <time>2013-06-12T10:41:18Z</time>
      </trkpt>
      <trkpt lat="38.5614240" lon="14.5832530">
        <ele>6.3900000</ele>
        <time>2013-06-12T10:41:41Z</time>
      </trkpt>
      <trkpt lat="38.5614240" lon="14.5832530">
        <ele>6.8700000</ele>
        <time>2013-06-12T10:42:01Z</time>
      </trkpt>
      <trkpt lat="38.5614200" lon="14.5832590">
        <ele>6.3900000</ele>
        <time>2013-06-12T10:42:22Z</time>
      </trkpt>
      <trkpt lat="38.5614200" lon="14.5832590">
        <ele>6.8700000</ele>
        <time>2013-06-12T10:42:46Z</time>
      </trkpt>
      <trkpt lat="38.5614170" lon="14.5832640">
        <ele>6.3900000</ele>
        <time>2013-06-12T10:43:09Z</time>
      </trkpt>
      <trkpt lat="38.5614170" lon="14.5832640">
        <ele>6.8700000</ele>
        <time>2013-06-12T10:43:30Z</time>
      </trkpt>
      <trkpt lat="38.5614170" lon="14.5832690">
        <ele>6.3900000</ele>
        <time>2013-06-12T10:43:50Z</time>
      </trkpt>
      <trkpt lat="38.5614170" lon="14.5832700">
        <ele>6.8700000</ele>
        <time>2013-06-12T10:44:13Z</time>
      </trkpt>
      <trkpt lat="38.5614170" lon="14.5832700">
        <ele>6.8700000</ele>
        <time>2013-06-12T10:44:36Z</time>
      </trkpt>
      <trkpt lat="38.5614170" lon="14.5832680">
        <ele>6.8700000</ele>
        <time>2013-06-12T10:44:58Z</time>
      </trkpt>
      <trkpt lat="38.5614170" lon="14.5832680">
        <ele>6.8700000</ele>
        <time>2013-06-12T10:45:19Z</time>
      </trkpt>
      <trkpt lat="38.5614170" lon="14.5832730">
        <ele>6.8700000</ele>
        <time>2013-06-12T10:45:35Z</time>
      </trkpt>
      <trkpt lat="38.5614090" lon="14.5832820">
        <ele>6.8700000</ele>
        <time>2013-06-12T10:45:52Z</time>
      </trkpt>
      <trkpt lat="38.5614090" lon="14.5832820">
        <ele>7.3500000</ele>
        <time>2013-06-12T10:46:17Z</time>
      </trkpt>
      <trkpt lat="38.5614050" lon="14.5832820">
        <ele>7.3500000</ele>
        <time>2013-06-12T10:46:38Z</time>
      </trkpt>
      <trkpt lat="38.5614050" lon="14.5832820">
        <ele>7.3500000</ele>
        <time>2013-06-12T10:46:57Z</time>
      </trkpt>
      <trkpt lat="38.5614050" lon="14.5832840">
        <ele>7.3500000</ele>
        <time>2013-06-12T10:47:19Z</time>
      </trkpt>
      <trkpt lat="38.5614050" lon="14.5832870">
        <ele>7.3500000</ele>
        <time>2013-06-12T10:47:37Z</time>
      </trkpt>
      <trkpt lat="38.5614050" lon="14.5832870">
        <ele>7.3500000</ele>
        <time>2013-06-12T10:48:00Z</time>
      </trkpt>
      <trkpt lat="38.5614050" lon="14.5832820">
        <ele>6.8700000</ele>
        <time>2013-06-12T10:48:21Z</time>
      </trkpt>
      <trkpt lat="38.5614050" lon="14.5832820">
        <ele>6.8700000</ele>
        <time>2013-06-12T10:48:40Z</time>
      </trkpt>
      <trkpt lat="38.5614090" lon="14.5832770">
        <ele>7.8300000</ele>
        <time>2013-06-12T10:49:01Z</time>
      </trkpt>
      <trkpt lat="38.5614090" lon="14.5832770">
        <ele>8.3100000</ele>
        <time>2013-06-12T10:49:20Z</time>
      </trkpt>
      <trkpt lat="38.5614090" lon="14.5832790">
        <ele>8.3100000</ele>
        <time>2013-06-12T10:49:40Z</time>
      </trkpt>
      <trkpt lat="38.5614090" lon="14.5832790">
        <ele>8.3100000</ele>
        <time>2013-06-12T10:50:01Z</time>
      </trkpt>
      <trkpt lat="38.5614090" lon="14.5832750">
        <ele>7.8300000</ele>
        <time>2013-06-12T10:50:23Z</time>
      </trkpt>
      <trkpt lat="38.5614090" lon="14.5832750">
        <ele>8.3100000</ele>
        <time>2013-06-12T10:50:45Z</time>
      </trkpt>
      <trkpt lat="38.5614090" lon="14.5832780">
        <ele>7.8300000</ele>
        <time>2013-06-12T10:51:04Z</time>
      </trkpt>
      <trkpt lat="38.5614090" lon="14.5832780">
        <ele>7.8300000</ele>
        <time>2013-06-12T10:51:25Z</time>
      </trkpt>
      <trkpt lat="38.5614090" lon="14.5832770">
        <ele>8.3100000</ele>
        <time>2013-06-12T10:51:43Z</time>
      </trkpt>
      <trkpt lat="38.5614090" lon="14.5832770">
        <ele>7.8300000</ele>
        <time>2013-06-12T10:51:59Z</time>
      </trkpt>
      <trkpt lat="38.5614090" lon="14.5832740">
        <ele>7.8300000</ele>
        <time>2013-06-12T10:52:20Z</time>
      </trkpt>
      <trkpt lat="38.5614010" lon="14.5832700">
        <ele>7.8300000</ele>
        <time>2013-06-12T10:52:40Z</time>
      </trkpt>
      <trkpt lat="38.5614010" lon="14.5832700">
        <ele>8.3100000</ele>
        <time>2013-06-12T10:53:00Z</time>
      </trkpt>
      <trkpt lat="38.5614010" lon="14.5832730">
        <ele>8.3100000</ele>
        <time>2013-06-12T10:53:11Z</time>
      </trkpt>
      <trkpt lat="38.5613900" lon="14.5832940">
        <ele>7.8300000</ele>
        <time>2013-06-12T10:53:32Z</time>
      </trkpt>
      <trkpt lat="38.5613900" lon="14.5832940">
        <ele>7.8300000</ele>
        <time>2013-06-12T10:53:53Z</time>
      </trkpt>
      <trkpt lat="38.5613940" lon="14.5833220">
        <ele>8.3100000</ele>
        <time>2013-06-12T10:54:16Z</time>
      </trkpt>
      <trkpt lat="38.5613940" lon="14.5833220">
        <ele>7.8300000</ele>
        <time>2013-06-12T10:54:33Z</time>
      </trkpt>
      <trkpt lat="38.5613940" lon="14.5833220">
        <ele>7.8300000</ele>
        <time>2013-06-12T10:54:52Z</time>
      </trkpt>
      <trkpt lat="38.5613900" lon="14.5833230">
        <ele>8.3100000</ele>
        <time>2013-06-12T10:55:10Z</time>
      </trkpt>
      <trkpt lat="38.5613900" lon="14.5833210">
        <ele>8.3100000</ele>
        <time>2013-06-12T10:55:26Z</time>
      </trkpt>
      <trkpt lat="38.5613900" lon="14.5833210">
        <ele>8.7900000</ele>
        <time>2013-06-12T10:55:47Z</time>
      </trkpt>
      <trkpt lat="38.5613900" lon="14.5833170">
        <ele>8.3100000</ele>
        <time>2013-06-12T10:56:09Z</time>
      </trkpt>
      <trkpt lat="38.5613900" lon="14.5833170">
        <ele>8.3100000</ele>
        <time>2013-06-12T10:56:27Z</time>
      </trkpt>
      <trkpt lat="38.5613900" lon="14.5833100">
        <ele>8.3100000</ele>
        <time>2013-06-12T10:56:48Z</time>
      </trkpt>
      <trkpt lat="38.5613900" lon="14.5833100">
        <ele>8.7900000</ele>
        <time>2013-06-12T10:57:06Z</time>
      </trkpt>
      <trkpt lat="38.5613900" lon="14.5833160">
        <ele>10.7100000</ele>
        <time>2013-06-12T10:57:23Z</time>
      </trkpt>
      <trkpt lat="38.5613900" lon="14.5833160">
        <ele>8.7900000</ele>
        <time>2013-06-12T10:57:46Z</time>
      </trkpt>
      <trkpt lat="38.5613900" lon="14.5833130">
        <ele>8.3100000</ele>
        <time>2013-06-12T10:58:08Z</time>
      </trkpt>
      <trkpt lat="38.5613900" lon="14.5833130">
        <ele>8.3100000</ele>
        <time>2013-06-12T10:58:31Z</time>
      </trkpt>
      <trkpt lat="38.5613900" lon="14.5833060">
        <ele>8.3100000</ele>
        <time>2013-06-12T10:58:52Z</time>
      </trkpt>
      <trkpt lat="38.5613900" lon="14.5833060">
        <ele>7.8300000</ele>
        <time>2013-06-12T10:59:17Z</time>
      </trkpt>
      <trkpt lat="38.5613900" lon="14.5832990">
        <ele>7.8300000</ele>
        <time>2013-06-12T10:59:37Z</time>
      </trkpt>
      <trkpt lat="38.5613900" lon="14.5832990">
        <ele>7.8300000</ele>
        <time>2013-06-12T11:00:01Z</time>
      </trkpt>
      <trkpt lat="38.5613980" lon="14.5832800">
        <ele>8.3100000</ele>
        <time>2013-06-12T11:00:19Z</time>
      </trkpt>
      <trkpt lat="38.5613980" lon="14.5832800">
        <ele>7.8300000</ele>
        <time>2013-06-12T11:00:36Z</time>
      </trkpt>
      <trkpt lat="38.5613980" lon="14.5832750">
        <ele>7.8300000</ele>
        <time>2013-06-12T11:00:56Z</time>
      </trkpt>
      <trkpt lat="38.5613980" lon="14.5832750">
        <ele>7.3500000</ele>
        <time>2013-06-12T11:01:17Z</time>
      </trkpt>
      <trkpt lat="38.5614010" lon="14.5832730">
        <ele>7.3500000</ele>
        <time>2013-06-12T11:01:37Z</time>
      </trkpt>
      <trkpt lat="38.5614010" lon="14.5832730">
        <ele>7.3500000</ele>
        <time>2013-06-12T11:01:59Z</time>
      </trkpt>
      <trkpt lat="38.5613980" lon="14.5832780">
        <ele>7.3500000</ele>
        <time>2013-06-12T11:02:20Z</time>
      </trkpt>
      <trkpt lat="38.5613980" lon="14.5832780">
        <ele>7.3500000</ele>
        <time>2013-06-12T11:02:37Z</time>
      </trkpt>
      <trkpt lat="38.5613900" lon="14.5832820">
        <ele>6.8700000</ele>
        <time>2013-06-12T11:02:58Z</time>
      </trkpt>
      <trkpt lat="38.5613900" lon="14.5832820">
        <ele>6.8700000</ele>
        <time>2013-06-12T11:03:21Z</time>
      </trkpt>
      <trkpt lat="38.5613860" lon="14.5832920">
        <ele>7.3500000</ele>
        <time>2013-06-12T11:03:38Z</time>
      </trkpt>
      <trkpt lat="38.5613860" lon="14.5832920">
        <ele>6.8700000</ele>
        <time>2013-06-12T11:03:59Z</time>
      </trkpt>
      <trkpt lat="38.5613820" lon="14.5833000">
        <ele>6.8700000</ele>
        <time>2013-06-12T11:04:22Z</time>
      </trkpt>
      <trkpt lat="38.5613780" lon="14.5833150">
        <ele>6.8700000</ele>
        <time>2013-06-12T11:04:45Z</time>
      </trkpt>
      <trkpt lat="38.5613780" lon="14.5833150">
        <ele>6.8700000</ele>
        <time>2013-06-12T11:05:08Z</time>
      </trkpt>
      <trkpt lat="38.5613780" lon="14.5833190">
        <ele>7.3500000</ele>
        <time>2013-06-12T11:05:33Z</time>
      </trkpt>
      <trkpt lat="38.5613750" lon="14.5833150">
        <ele>7.3500000</ele>
        <time>2013-06-12T11:05:53Z</time>
      </trkpt>
      <trkpt lat="38.5613750" lon="14.5833150">
        <ele>7.3500000</ele>
        <time>2013-06-12T11:06:14Z</time>
      </trkpt>
      <trkpt lat="38.5613750" lon="14.5833130">
        <ele>6.3900000</ele>
        <time>2013-06-12T11:06:39Z</time>
      </trkpt>
      <trkpt lat="38.5613750" lon="14.5833130">
        <ele>6.8700000</ele>
        <time>2013-06-12T11:07:03Z</time>
      </trkpt>
      <trkpt lat="38.5613780" lon="14.5833150">
        <ele>6.8700000</ele>
        <time>2013-06-12T11:07:25Z</time>
      </trkpt>
      <trkpt lat="38.5613750" lon="14.5833210">
        <ele>6.3900000</ele>
        <time>2013-06-12T11:07:50Z</time>
      </trkpt>
      <trkpt lat="38.5613750" lon="14.5833210">
        <ele>6.3900000</ele>
        <time>2013-06-12T11:08:11Z</time>
      </trkpt>
      <trkpt lat="38.5613820" lon="14.5833320">
        <ele>6.8700000</ele>
        <time>2013-06-12T11:08:32Z</time>
      </trkpt>
      <trkpt lat="38.5613860" lon="14.5833430">
        <ele>6.8700000</ele>
        <time>2013-06-12T11:08:49Z</time>
      </trkpt>
      <trkpt lat="38.5613860" lon="14.5833430">
        <ele>6.8700000</ele>
        <time>2013-06-12T11:09:09Z</time>
      </trkpt>
      <trkpt lat="38.5613900" lon="14.5833520">
        <ele>6.3900000</ele>
        <time>2013-06-12T11:09:28Z</time>
      </trkpt>
      <trkpt lat="38.5613900" lon="14.5833520">
        <ele>6.8700000</ele>
        <time>2013-06-12T11:09:48Z</time>
      </trkpt>
      <trkpt lat="38.5613940" lon="14.5833520">
        <ele>5.9100000</ele>
        <time>2013-06-12T11:10:06Z</time>
      </trkpt>
      <trkpt lat="38.5613940" lon="14.5833520">
        <ele>7.3500000</ele>
        <time>2013-06-12T11:10:28Z</time>
      </trkpt>
      <trkpt lat="38.5613940" lon="14.5833510">
        <ele>6.3900000</ele>
        <time>2013-06-12T11:10:50Z</time>
      </trkpt>
      <trkpt lat="38.5614090" lon="14.5833510">
        <ele>6.8700000</ele>
        <time>2013-06-12T11:11:08Z</time>
      </trkpt>
      <trkpt lat="38.5614090" lon="14.5833510">
        <ele>6.8700000</ele>
        <time>2013-06-12T11:11:13Z</time>
      </trkpt>
      <trkpt lat="38.5614320" lon="14.5833540">
        <ele>6.3900000</ele>
        <time>2013-06-12T11:11:31Z</time>
      </trkpt>
      <trkpt lat="38.5614320" lon="14.5833540">
        <ele>6.8700000</ele>
        <time>2013-06-12T11:11:54Z</time>
      </trkpt>
      <trkpt lat="38.5614320" lon="14.5833550">
        <ele>6.8700000</ele>
        <time>2013-06-12T11:12:13Z</time>
      </trkpt>
      <trkpt lat="38.5614360" lon="14.5833600">
        <ele>6.3900000</ele>
        <time>2013-06-12T11:12:37Z</time>
      </trkpt>
      <trkpt lat="38.5614360" lon="14.5833710">
        <ele>6.8700000</ele>
        <time>2013-06-12T11:12:54Z</time>
      </trkpt>
      <trkpt lat="38.5614360" lon="14.5833710">
        <ele>6.8700000</ele>
        <time>2013-06-12T11:13:16Z</time>
      </trkpt>
      <trkpt lat="38.5614890" lon="14.5834950">
        <ele>7.3500000</ele>
        <time>2013-06-12T11:13:39Z</time>
      </trkpt>
      <trkpt lat="38.5615310" lon="14.5835950">
        <ele>7.8300000</ele>
        <time>2013-06-12T11:14:01Z</time>
      </trkpt>
      <trkpt lat="38.5615580" lon="14.5835920">
        <ele>7.3500000</ele>
        <time>2013-06-12T11:14:20Z</time>
      </trkpt>
      <trkpt lat="38.5615770" lon="14.5835550">
        <ele>7.3500000</ele>
        <time>2013-06-12T11:14:39Z</time>
      </trkpt>
      <trkpt lat="38.5615880" lon="14.5835340">
        <ele>6.8700000</ele>
        <time>2013-06-12T11:14:55Z</time>
      </trkpt>
      <trkpt lat="38.5615960" lon="14.5835180">
        <ele>6.8700000</ele>
        <time>2013-06-12T11:15:13Z</time>
      </trkpt>
      <trkpt lat="38.5615960" lon="14.5835180">
        <ele>6.8700000</ele>
        <time>2013-06-12T11:15:15Z</time>
      </trkpt>
      <trkpt lat="38.5616040" lon="14.5835040">
        <ele>6.8700000</ele>
        <time>2013-06-12T11:15:35Z</time>
      </trkpt>
      <trkpt lat="38.5616070" lon="14.5834870">
        <ele>7.3500000</ele>
        <time>2013-06-12T11:15:51Z</time>
      </trkpt>
      <trkpt lat="38.5616070" lon="14.5834870">
        <ele>7.3500000</ele>
        <time>2013-06-12T11:16:12Z</time>
      </trkpt>
      <trkpt lat="38.5616110" lon="14.5834800">
        <ele>5.9100000</ele>
        <time>2013-06-12T11:16:36Z</time>
      </trkpt>
      <trkpt lat="38.5615960" lon="14.5834810">
        <ele>5.9100000</ele>
        <time>2013-06-12T11:17:03Z</time>
      </trkpt>
      <trkpt lat="38.5615770" lon="14.5834850">
        <ele>5.9100000</ele>
        <time>2013-06-12T11:17:24Z</time>
      </trkpt>
      <trkpt lat="38.5615350" lon="14.5835410">
        <ele>6.8700000</ele>
        <time>2013-06-12T11:17:47Z</time>
      </trkpt>
      <trkpt lat="38.5615270" lon="14.5835530">
        <ele>6.8700000</ele>
        <time>2013-06-12T11:18:06Z</time>
      </trkpt>
      <trkpt lat="38.5615270" lon="14.5835530">
        <ele>6.8700000</ele>
        <time>2013-06-12T11:18:25Z</time>
      </trkpt>
      <trkpt lat="38.5615270" lon="14.5835540">
        <ele>6.8700000</ele>
        <time>2013-06-12T11:18:44Z</time>
      </trkpt>
      <trkpt lat="38.5615270" lon="14.5835540">
        <ele>6.8700000</ele>
        <time>2013-06-12T11:19:03Z</time>
      </trkpt>
      <trkpt lat="38.5615430" lon="14.5835560">
        <ele>6.3900000</ele>
        <time>2013-06-12T11:19:20Z</time>
      </trkpt>
      <trkpt lat="38.5615430" lon="14.5835560">
        <ele>6.3900000</ele>
        <time>2013-06-12T11:19:40Z</time>
      </trkpt>
      <trkpt lat="38.5615500" lon="14.5835510">
        <ele>6.3900000</ele>
        <time>2013-06-12T11:19:55Z</time>
      </trkpt>
      <trkpt lat="38.5615500" lon="14.5835390">
        <ele>7.3500000</ele>
        <time>2013-06-12T11:20:15Z</time>
      </trkpt>
      <trkpt lat="38.5615500" lon="14.5835310">
        <ele>6.8700000</ele>
        <time>2013-06-12T11:20:30Z</time>
      </trkpt>
      <trkpt lat="38.5615500" lon="14.5835310">
        <ele>6.3900000</ele>
        <time>2013-06-12T11:20:49Z</time>
      </trkpt>
      <trkpt lat="38.5615540" lon="14.5835290">
        <ele>6.3900000</ele>
        <time>2013-06-12T11:21:09Z</time>
      </trkpt>
      <trkpt lat="38.5615460" lon="14.5835290">
        <ele>6.3900000</ele>
        <time>2013-06-12T11:21:33Z</time>
      </trkpt>
      <trkpt lat="38.5615460" lon="14.5835290">
        <ele>5.9100000</ele>
        <time>2013-06-12T11:21:56Z</time>
      </trkpt>
      <trkpt lat="38.5615350" lon="14.5835470">
        <ele>5.4200000</ele>
        <time>2013-06-12T11:22:17Z</time>
      </trkpt>
      <trkpt lat="38.5615270" lon="14.5835520">
        <ele>6.3900000</ele>
        <time>2013-06-12T11:22:36Z</time>
      </trkpt>
      <trkpt lat="38.5615270" lon="14.5835520">
        <ele>5.9100000</ele>
        <time>2013-06-12T11:22:59Z</time>
      </trkpt>
      <trkpt lat="38.5615310" lon="14.5835500">
        <ele>7.8300000</ele>
        <time>2013-06-12T11:23:20Z</time>
      </trkpt>
      <trkpt lat="38.5615770" lon="14.5835300">
        <ele>6.8700000</ele>
        <time>2013-06-12T11:23:39Z</time>
      </trkpt>
      <trkpt lat="38.5615880" lon="14.5835300">
        <ele>6.8700000</ele>
        <time>2013-06-12T11:24:00Z</time>
      </trkpt>
      <trkpt lat="38.5615880" lon="14.5835300">
        <ele>7.3500000</ele>
        <time>2013-06-12T11:24:24Z</time>
      </trkpt>
      <trkpt lat="38.5615920" lon="14.5835250">
        <ele>6.8700000</ele>
        <time>2013-06-12T11:24:46Z</time>
      </trkpt>
      <trkpt lat="38.5615920" lon="14.5835250">
        <ele>6.3900000</ele>
        <time>2013-06-12T11:25:07Z</time>
      </trkpt>
      <trkpt lat="38.5615920" lon="14.5835210">
        <ele>5.4200000</ele>
        <time>2013-06-12T11:25:29Z</time>
      </trkpt>
      <trkpt lat="38.5615920" lon="14.5835210">
        <ele>5.4200000</ele>
        <time>2013-06-12T11:25:49Z</time>
      </trkpt>
      <trkpt lat="38.5615840" lon="14.5835090">
        <ele>5.4200000</ele>
        <time>2013-06-12T11:26:13Z</time>
      </trkpt>
      <trkpt lat="38.5615840" lon="14.5835090">
        <ele>6.3900000</ele>
        <time>2013-06-12T11:26:34Z</time>
      </trkpt>
      <trkpt lat="38.5615840" lon="14.5835080">
        <ele>6.3900000</ele>
        <time>2013-06-12T11:26:55Z</time>
      </trkpt>
      <trkpt lat="38.5616040" lon="14.5834810">
        <ele>7.3500000</ele>
        <time>2013-06-12T11:27:19Z</time>
      </trkpt>
      <trkpt lat="38.5616610" lon="14.5835130">
        <ele>6.8700000</ele>
        <time>2013-06-12T11:27:42Z</time>
      </trkpt>
      <trkpt lat="38.5616650" lon="14.5835160">
        <ele>5.9100000</ele>
        <time>2013-06-12T11:28:01Z</time>
      </trkpt>
      <trkpt lat="38.5616610" lon="14.5835130">
        <ele>7.3500000</ele>
        <time>2013-06-12T11:28:24Z</time>
      </trkpt>
      <trkpt lat="38.5616610" lon="14.5835130">
        <ele>6.8700000</ele>
        <time>2013-06-12T11:28:44Z</time>
      </trkpt>
      <trkpt lat="38.5616570" lon="14.5835010">
        <ele>5.9100000</ele>
        <time>2013-06-12T11:29:05Z</time>
      </trkpt>
      <trkpt lat="38.5616570" lon="14.5835010">
        <ele>6.3900000</ele>
        <time>2013-06-12T11:29:25Z</time>
      </trkpt>
      <trkpt lat="38.5616570" lon="14.5834950">
        <ele>5.9100000</ele>
        <time>2013-06-12T11:29:45Z</time>
      </trkpt>
      <trkpt lat="38.5616490" lon="14.5834960">
        <ele>4.9400000</ele>
        <time>2013-06-12T11:30:09Z</time>
      </trkpt>
      <trkpt lat="38.5616490" lon="14.5834960">
        <ele>6.3900000</ele>
        <time>2013-06-12T11:30:36Z</time>
      </trkpt>
      <trkpt lat="38.5616460" lon="14.5834910">
        <ele>7.8300000</ele>
        <time>2013-06-12T11:30:57Z</time>
      </trkpt>
      <trkpt lat="38.5616460" lon="14.5834830">
        <ele>6.8700000</ele>
        <time>2013-06-12T11:31:20Z</time>
      </trkpt>
      <trkpt lat="38.5616460" lon="14.5834830">
        <ele>7.3500000</ele>
        <time>2013-06-12T11:31:24Z</time>
      </trkpt>
      <trkpt lat="38.5616490" lon="14.5834620">
        <ele>6.3900000</ele>
        <time>2013-06-12T11:31:46Z</time>
      </trkpt>
      <trkpt lat="38.5616490" lon="14.5834610">
        <ele>6.3900000</ele>
        <time>2013-06-12T11:32:14Z</time>
      </trkpt>
      <trkpt lat="38.5616490" lon="14.5834610">
        <ele>5.9100000</ele>
        <time>2013-06-12T11:32:37Z</time>
      </trkpt>
      <trkpt lat="38.5616490" lon="14.5834550">
        <ele>5.4200000</ele>
        <time>2013-06-12T11:32:59Z</time>
      </trkpt>
      <trkpt lat="38.5616490" lon="14.5834550">
        <ele>5.4200000</ele>
        <time>2013-06-12T11:33:20Z</time>
      </trkpt>
      <trkpt lat="38.5616490" lon="14.5834550">
        <ele>5.4200000</ele>
        <time>2013-06-12T11:33:25Z</time>
      </trkpt>
      <trkpt lat="38.5616490" lon="14.5834400">
        <ele>4.4600000</ele>
        <time>2013-06-12T11:33:47Z</time>
      </trkpt>
      <trkpt lat="38.5616460" lon="14.5834370">
        <ele>4.9400000</ele>
        <time>2013-06-12T11:34:07Z</time>
      </trkpt>
      <trkpt lat="38.5616260" lon="14.5834400">
        <ele>4.9400000</ele>
        <time>2013-06-12T11:34:32Z</time>
      </trkpt>
      <trkpt lat="38.5616260" lon="14.5834400">
        <ele>5.9100000</ele>
        <time>2013-06-12T11:34:56Z</time>
      </trkpt>
      <trkpt lat="38.5616190" lon="14.5834790">
        <ele>6.8700000</ele>
        <time>2013-06-12T11:35:08Z</time>
      </trkpt>
      <trkpt lat="38.5616340" lon="14.5835490">
        <ele>4.9400000</ele>
        <time>2013-06-12T11:35:32Z</time>
      </trkpt>
      <trkpt lat="38.5616420" lon="14.5835500">
        <ele>5.9100000</ele>
        <time>2013-06-12T11:35:55Z</time>
      </trkpt>
      <trkpt lat="38.5616420" lon="14.5835500">
        <ele>6.3900000</ele>
        <time>2013-06-12T11:36:02Z</time>
      </trkpt>
      <trkpt lat="38.5616420" lon="14.5835370">
        <ele>5.4200000</ele>
        <time>2013-06-12T11:36:27Z</time>
      </trkpt>
      <trkpt lat="38.5616340" lon="14.5835030">
        <ele>5.4200000</ele>
        <time>2013-06-12T11:36:47Z</time>
      </trkpt>
      <trkpt lat="38.5616070" lon="14.5834870">
        <ele>4.9400000</ele>
        <time>2013-06-12T11:37:04Z</time>
      </trkpt>
      <trkpt lat="38.5615650" lon="14.5834560">
        <ele>3.9800000</ele>
        <time>2013-06-12T11:37:25Z</time>
      </trkpt>
      <trkpt lat="38.5614930" lon="14.5834720">
        <ele>4.9400000</ele>
        <time>2013-06-12T11:37:48Z</time>
      </trkpt>
      <trkpt lat="38.5614780" lon="14.5835290">
        <ele>5.4200000</ele>
        <time>2013-06-12T11:38:11Z</time>
      </trkpt>
      <trkpt lat="38.5614810" lon="14.5835510">
        <ele>4.9400000</ele>
        <time>2013-06-12T11:38:31Z</time>
      </trkpt>
      <trkpt lat="38.5614810" lon="14.5835510">
        <ele>5.4200000</ele>
        <time>2013-06-12T11:38:50Z</time>
      </trkpt>
      <trkpt lat="38.5614810" lon="14.5835450">
        <ele>5.4200000</ele>
        <time>2013-06-12T11:39:07Z</time>
      </trkpt>
      <trkpt lat="38.5614850" lon="14.5835400">
        <ele>5.9100000</ele>
        <time>2013-06-12T11:39:25Z</time>
      </trkpt>
      <trkpt lat="38.5614850" lon="14.5835400">
        <ele>6.3900000</ele>
        <time>2013-06-12T11:39:34Z</time>
      </trkpt>
      <trkpt lat="38.5614970" lon="14.5834910">
        <ele>5.9100000</ele>
        <time>2013-06-12T11:39:51Z</time>
      </trkpt>
      <trkpt lat="38.5614970" lon="14.5834910">
        <ele>6.3900000</ele>
        <time>2013-06-12T11:40:14Z</time>
      </trkpt>
      <trkpt lat="38.5614970" lon="14.5834850">
        <ele>6.3900000</ele>
        <time>2013-06-12T11:40:34Z</time>
      </trkpt>
      <trkpt lat="38.5614970" lon="14.5834850">
        <ele>6.8700000</ele>
        <time>2013-06-12T11:40:58Z</time>
      </trkpt>
      <trkpt lat="38.5614970" lon="14.5834830">
        <ele>7.8300000</ele>
        <time>2013-06-12T11:41:23Z</time>
      </trkpt>
      <trkpt lat="38.5614970" lon="14.5834830">
        <ele>6.8700000</ele>
        <time>2013-06-12T11:41:35Z</time>
      </trkpt>
      <trkpt lat="38.5615350" lon="14.5834130">
        <ele>7.3500000</ele>
        <time>2013-06-12T11:41:56Z</time>
      </trkpt>
      <trkpt lat="38.5615350" lon="14.5834130">
        <ele>6.8700000</ele>
        <time>2013-06-12T11:42:16Z</time>
      </trkpt>
      <trkpt lat="38.5615390" lon="14.5834140">
        <ele>6.8700000</ele>
        <time>2013-06-12T11:42:36Z</time>
      </trkpt>
      <trkpt lat="38.5615390" lon="14.5834140">
        <ele>7.3500000</ele>
        <time>2013-06-12T11:42:37Z</time>
      </trkpt>
      <trkpt lat="38.5615810" lon="14.5834730">
        <ele>6.3900000</ele>
        <time>2013-06-12T11:42:56Z</time>
      </trkpt>
      <trkpt lat="38.5615810" lon="14.5834730">
        <ele>6.8700000</ele>
        <time>2013-06-12T11:43:15Z</time>
      </trkpt>
      <trkpt lat="38.5615840" lon="14.5834840">
        <ele>6.8700000</ele>
        <time>2013-06-12T11:43:37Z</time>
      </trkpt>
      <trkpt lat="38.5615840" lon="14.5834840">
        <ele>6.8700000</ele>
        <time>2013-06-12T11:44:03Z</time>
      </trkpt>
      <trkpt lat="38.5615840" lon="14.5834790">
        <ele>6.8700000</ele>
        <time>2013-06-12T11:44:27Z</time>
      </trkpt>
      <trkpt lat="38.5615840" lon="14.5834590">
        <ele>7.3500000</ele>
        <time>2013-06-12T11:44:51Z</time>
      </trkpt>
      <trkpt lat="38.5615810" lon="14.5834420">
        <ele>6.3900000</ele>
        <time>2013-06-12T11:45:13Z</time>
      </trkpt>
      <trkpt lat="38.5615810" lon="14.5834420">
        <ele>6.8700000</ele>
        <time>2013-06-12T11:45:33Z</time>
      </trkpt>
      <trkpt lat="38.5615770" lon="14.5834400">
        <ele>6.8700000</ele>
        <time>2013-06-12T11:45:57Z</time>
      </trkpt>
      <trkpt lat="38.5615770" lon="14.5834400">
        <ele>7.8300000</ele>
        <time>2013-06-12T11:46:19Z</time>
      </trkpt>
      <trkpt lat="38.5615770" lon="14.5834400">
        <ele>7.8300000</ele>
        <time>2013-06-12T11:46:25Z</time>
      </trkpt>
      <trkpt lat="38.5615690" lon="14.5834290">
        <ele>7.3500000</ele>
        <time>2013-06-12T11:46:51Z</time>
      </trkpt>
      <trkpt lat="38.5615620" lon="14.5834220">
        <ele>7.3500000</ele>
        <time>2013-06-12T11:47:09Z</time>
      </trkpt>
      <trkpt lat="38.5615620" lon="14.5834220">
        <ele>6.8700000</ele>
        <time>2013-06-12T11:47:29Z</time>
      </trkpt>
      <trkpt lat="38.5615580" lon="14.5834150">
        <ele>6.8700000</ele>
        <time>2013-06-12T11:47:48Z</time>
      </trkpt>
      <trkpt lat="38.5615430" lon="14.5833960">
        <ele>6.8700000</ele>
        <time>2013-06-12T11:48:06Z</time>
      </trkpt>
      <trkpt lat="38.5615430" lon="14.5833960">
        <ele>6.8700000</ele>
        <time>2013-06-12T11:48:26Z</time>
      </trkpt>
      <trkpt lat="38.5615390" lon="14.5833930">
        <ele>6.8700000</ele>
        <time>2013-06-12T11:48:48Z</time>
      </trkpt>
      <trkpt lat="38.5615390" lon="14.5833930">
        <ele>6.8700000</ele>
        <time>2013-06-12T11:49:07Z</time>
      </trkpt>
      <trkpt lat="38.5615080" lon="14.5833710">
        <ele>6.8700000</ele>
        <time>2013-06-12T11:49:24Z</time>
      </trkpt>
      <trkpt lat="38.5615080" lon="14.5833710">
        <ele>7.3500000</ele>
        <time>2013-06-12T11:49:43Z</time>
      </trkpt>
      <trkpt lat="38.5615080" lon="14.5833710">
        <ele>6.8700000</ele>
        <time>2013-06-12T11:49:59Z</time>
      </trkpt>
      <trkpt lat="38.5614970" lon="14.5833670">
        <ele>6.8700000</ele>
        <time>2013-06-12T11:50:25Z</time>
      </trkpt>
      <trkpt lat="38.5614970" lon="14.5833640">
        <ele>7.3500000</ele>
        <time>2013-06-12T11:50:45Z</time>
      </trkpt>
      <trkpt lat="38.5614970" lon="14.5833640">
        <ele>7.3500000</ele>
        <time>2013-06-12T11:51:08Z</time>
      </trkpt>
      <trkpt lat="38.5614930" lon="14.5833630">
        <ele>6.8700000</ele>
        <time>2013-06-12T11:51:33Z</time>
      </trkpt>
      <trkpt lat="38.5614930" lon="14.5833630">
        <ele>7.3500000</ele>
        <time>2013-06-12T11:51:57Z</time>
      </trkpt>
      <trkpt lat="38.5614930" lon="14.5833640">
        <ele>7.3500000</ele>
        <time>2013-06-12T11:52:19Z</time>
      </trkpt>
      <trkpt lat="38.5614890" lon="14.5833660">
        <ele>7.8300000</ele>
        <time>2013-06-12T11:52:42Z</time>
      </trkpt>
      <trkpt lat="38.5614890" lon="14.5833660">
        <ele>7.3500000</ele>
        <time>2013-06-12T11:53:02Z</time>
      </trkpt>
      <trkpt lat="38.5614890" lon="14.5833660">
        <ele>7.3500000</ele>
        <time>2013-06-12T11:53:23Z</time>
      </trkpt>
      <trkpt lat="38.5614890" lon="14.5833660">
        <ele>7.3500000</ele>
        <time>2013-06-12T11:53:41Z</time>
      </trkpt>
      <trkpt lat="38.5614810" lon="14.5833680">
        <ele>7.8300000</ele>
        <time>2013-06-12T11:54:03Z</time>
      </trkpt>
      <trkpt lat="38.5614810" lon="14.5833680">
        <ele>7.3500000</ele>
        <time>2013-06-12T11:54:26Z</time>
      </trkpt>
      <trkpt lat="38.5614740" lon="14.5833670">
        <ele>7.8300000</ele>
        <time>2013-06-12T11:54:49Z</time>
      </trkpt>
      <trkpt lat="38.5614740" lon="14.5833670">
        <ele>8.3100000</ele>
        <time>2013-06-12T11:55:13Z</time>
      </trkpt>
      <trkpt lat="38.5614700" lon="14.5833640">
        <ele>7.8300000</ele>
        <time>2013-06-12T11:55:41Z</time>
      </trkpt>
      <trkpt lat="38.5614700" lon="14.5833630">
        <ele>7.8300000</ele>
        <time>2013-06-12T11:56:06Z</time>
      </trkpt>
      <trkpt lat="38.5614700" lon="14.5833630">
        <ele>8.3100000</ele>
        <time>2013-06-12T11:56:27Z</time>
      </trkpt>
      <trkpt lat="38.5614660" lon="14.5833670">
        <ele>8.3100000</ele>
        <time>2013-06-12T11:56:50Z</time>
      </trkpt>
      <trkpt lat="38.5614660" lon="14.5833670">
        <ele>7.8300000</ele>
        <time>2013-06-12T11:57:12Z</time>
      </trkpt>
      <trkpt lat="38.5614660" lon="14.5833740">
        <ele>8.3100000</ele>
        <time>2013-06-12T11:57:34Z</time>
      </trkpt>
      <trkpt lat="38.5614660" lon="14.5833740">
        <ele>7.8300000</ele>
        <time>2013-06-12T11:57:57Z</time>
      </trkpt>
      <trkpt lat="38.5614660" lon="14.5833800">
        <ele>7.8300000</ele>
        <time>2013-06-12T11:58:19Z</time>
      </trkpt>
      <trkpt lat="38.5614550" lon="14.5833850">
        <ele>8.3100000</ele>
        <time>2013-06-12T11:58:44Z</time>
      </trkpt>
      <trkpt lat="38.5614550" lon="14.5833850">
        <ele>7.3500000</ele>
        <time>2013-06-12T11:59:02Z</time>
      </trkpt>
      <trkpt lat="38.5614510" lon="14.5833840">
        <ele>7.8300000</ele>
        <time>2013-06-12T11:59:22Z</time>
      </trkpt>
      <trkpt lat="38.5614510" lon="14.5833840">
        <ele>7.8300000</ele>
        <time>2013-06-12T11:59:44Z</time>
      </trkpt>
      <trkpt lat="38.5614510" lon="14.5833850">
        <ele>8.3100000</ele>
        <time>2013-06-12T12:00:08Z</time>
      </trkpt>
      <trkpt lat="38.5614510" lon="14.5833850">
        <ele>8.3100000</ele>
        <time>2013-06-12T12:00:30Z</time>
      </trkpt>
      <trkpt lat="38.5614510" lon="14.5833830">
        <ele>8.3100000</ele>
        <time>2013-06-12T12:00:55Z</time>
      </trkpt>
      <trkpt lat="38.5614510" lon="14.5833830">
        <ele>8.3100000</ele>
        <time>2013-06-12T12:01:17Z</time>
      </trkpt>
      <trkpt lat="38.5614550" lon="14.5833860">
        <ele>8.7900000</ele>
        <time>2013-06-12T12:01:38Z</time>
      </trkpt>
      <trkpt lat="38.5614550" lon="14.5833860">
        <ele>8.3100000</ele>
        <time>2013-06-12T12:01:59Z</time>
      </trkpt>
      <trkpt lat="38.5614550" lon="14.5833890">
        <ele>8.3100000</ele>
        <time>2013-06-12T12:02:19Z</time>
      </trkpt>
      <trkpt lat="38.5614590" lon="14.5833950">
        <ele>8.7900000</ele>
        <time>2013-06-12T12:02:43Z</time>
      </trkpt>
      <trkpt lat="38.5614590" lon="14.5833950">
        <ele>8.7900000</ele>
        <time>2013-06-12T12:03:05Z</time>
      </trkpt>
      <trkpt lat="38.5614590" lon="14.5833980">
        <ele>8.7900000</ele>
        <time>2013-06-12T12:03:28Z</time>
      </trkpt>
      <trkpt lat="38.5614590" lon="14.5833980">
        <ele>8.3100000</ele>
        <time>2013-06-12T12:03:51Z</time>
      </trkpt>
      <trkpt lat="38.5614590" lon="14.5833940">
        <ele>8.7900000</ele>
        <time>2013-06-12T12:04:13Z</time>
      </trkpt>
      <trkpt lat="38.5614590" lon="14.5833940">
        <ele>8.7900000</ele>
        <time>2013-06-12T12:04:34Z</time>
      </trkpt>
      <trkpt lat="38.5614590" lon="14.5833930">
        <ele>10.2300000</ele>
        <time>2013-06-12T12:04:55Z</time>
      </trkpt>
      <trkpt lat="38.5614700" lon="14.5833870">
        <ele>10.7100000</ele>
        <time>2013-06-12T12:05:16Z</time>
      </trkpt>
      <trkpt lat="38.5614970" lon="14.5833810">
        <ele>9.7500000</ele>
        <time>2013-06-12T12:05:36Z</time>
      </trkpt>
      <trkpt lat="38.5614970" lon="14.5833810">
        <ele>10.2300000</ele>
        <time>2013-06-12T12:05:55Z</time>
      </trkpt>
      <trkpt lat="38.5614970" lon="14.5833810">
        <ele>9.2700000</ele>
        <time>2013-06-12T12:06:12Z</time>
      </trkpt>
      <trkpt lat="38.5615080" lon="14.5833880">
        <ele>9.2700000</ele>
        <time>2013-06-12T12:06:37Z</time>
      </trkpt>
      <trkpt lat="38.5615120" lon="14.5833810">
        <ele>8.7900000</ele>
        <time>2013-06-12T12:07:03Z</time>
      </trkpt>
      <trkpt lat="38.5615120" lon="14.5833810">
        <ele>8.7900000</ele>
        <time>2013-06-12T12:07:31Z</time>
      </trkpt>
      <trkpt lat="38.5615120" lon="14.5833870">
        <ele>8.7900000</ele>
        <time>2013-06-12T12:07:54Z</time>
      </trkpt>
      <trkpt lat="38.5615160" lon="14.5834380">
        <ele>8.7900000</ele>
        <time>2013-06-12T12:08:20Z</time>
      </trkpt>
      <trkpt lat="38.5615160" lon="14.5834380">
        <ele>9.2700000</ele>
        <time>2013-06-12T12:08:46Z</time>
      </trkpt>
      <trkpt lat="38.5615200" lon="14.5834440">
        <ele>9.7500000</ele>
        <time>2013-06-12T12:09:04Z</time>
      </trkpt>
      <trkpt lat="38.5615200" lon="14.5834440">
        <ele>9.2700000</ele>
        <time>2013-06-12T12:09:24Z</time>
      </trkpt>
      <trkpt lat="38.5615200" lon="14.5834490">
        <ele>9.7500000</ele>
        <time>2013-06-12T12:09:43Z</time>
      </trkpt>
      <trkpt lat="38.5615200" lon="14.5834490">
        <ele>8.7900000</ele>
        <time>2013-06-12T12:10:04Z</time>
      </trkpt>
      <trkpt lat="38.5615160" lon="14.5834470">
        <ele>9.2700000</ele>
        <time>2013-06-12T12:10:23Z</time>
      </trkpt>
      <trkpt lat="38.5615160" lon="14.5834470">
        <ele>9.2700000</ele>
        <time>2013-06-12T12:10:41Z</time>
      </trkpt>
      <trkpt lat="38.5615120" lon="14.5834460">
        <ele>9.7500000</ele>
        <time>2013-06-12T12:11:03Z</time>
      </trkpt>
      <trkpt lat="38.5615120" lon="14.5834460">
        <ele>10.2300000</ele>
        <time>2013-06-12T12:11:24Z</time>
      </trkpt>
      <trkpt lat="38.5615160" lon="14.5834560">
        <ele>10.7100000</ele>
        <time>2013-06-12T12:11:40Z</time>
      </trkpt>
      <trkpt lat="38.5615160" lon="14.5834560">
        <ele>10.7100000</ele>
        <time>2013-06-12T12:11:58Z</time>
      </trkpt>
      <trkpt lat="38.5615160" lon="14.5834600">
        <ele>10.7100000</ele>
        <time>2013-06-12T12:12:17Z</time>
      </trkpt>
      <trkpt lat="38.5615200" lon="14.5834840">
        <ele>10.7100000</ele>
        <time>2013-06-12T12:12:34Z</time>
      </trkpt>
      <trkpt lat="38.5615160" lon="14.5835120">
        <ele>10.2300000</ele>
        <time>2013-06-12T12:12:54Z</time>
      </trkpt>
      <trkpt lat="38.5615160" lon="14.5835120">
        <ele>10.2300000</ele>
        <time>2013-06-12T12:13:14Z</time>
      </trkpt>
      <trkpt lat="38.5615120" lon="14.5835140">
        <ele>10.2300000</ele>
        <time>2013-06-12T12:13:24Z</time>
      </trkpt>
      <trkpt lat="38.5614700" lon="14.5835210">
        <ele>9.7500000</ele>
        <time>2013-06-12T12:13:44Z</time>
      </trkpt>
      <trkpt lat="38.5614700" lon="14.5835170">
        <ele>10.2300000</ele>
        <time>2013-06-12T12:14:04Z</time>
      </trkpt>
      <trkpt lat="38.5614620" lon="14.5834940">
        <ele>10.2300000</ele>
        <time>2013-06-12T12:14:22Z</time>
      </trkpt>
      <trkpt lat="38.5614590" lon="14.5834850">
        <ele>10.7100000</ele>
        <time>2013-06-12T12:14:37Z</time>
      </trkpt>
      <trkpt lat="38.5614510" lon="14.5834790">
        <ele>10.2300000</ele>
        <time>2013-06-12T12:14:54Z</time>
      </trkpt>
      <trkpt lat="38.5614510" lon="14.5834790">
        <ele>10.2300000</ele>
        <time>2013-06-12T12:15:11Z</time>
      </trkpt>
      <trkpt lat="38.5614510" lon="14.5834780">
        <ele>10.2300000</ele>
        <time>2013-06-12T12:15:33Z</time>
      </trkpt>
      <trkpt lat="38.5614510" lon="14.5834780">
        <ele>10.7100000</ele>
        <time>2013-06-12T12:15:56Z</time>
      </trkpt>
      <trkpt lat="38.5614510" lon="14.5834680">
        <ele>11.1900000</ele>
        <time>2013-06-12T12:16:19Z</time>
      </trkpt>
      <trkpt lat="38.5614510" lon="14.5834680">
        <ele>10.7100000</ele>
        <time>2013-06-12T12:16:40Z</time>
      </trkpt>
      <trkpt lat="38.5614360" lon="14.5834430">
        <ele>10.7100000</ele>
        <time>2013-06-12T12:16:59Z</time>
      </trkpt>
      <trkpt lat="38.5614360" lon="14.5834430">
        <ele>9.7500000</ele>
        <time>2013-06-12T12:17:19Z</time>
      </trkpt>
      <trkpt lat="38.5614320" lon="14.5834410">
        <ele>9.7500000</ele>
        <time>2013-06-12T12:17:41Z</time>
      </trkpt>
      <trkpt lat="38.5614320" lon="14.5834410">
        <ele>9.7500000</ele>
        <time>2013-06-12T12:18:03Z</time>
      </trkpt>
      <trkpt lat="38.5614280" lon="14.5834410">
        <ele>9.7500000</ele>
        <time>2013-06-12T12:18:25Z</time>
      </trkpt>
      <trkpt lat="38.5614280" lon="14.5834410">
        <ele>10.2300000</ele>
        <time>2013-06-12T12:18:48Z</time>
      </trkpt>
      <trkpt lat="38.5614320" lon="14.5834430">
        <ele>10.2300000</ele>
        <time>2013-06-12T12:19:12Z</time>
      </trkpt>
      <trkpt lat="38.5614320" lon="14.5834450">
        <ele>10.2300000</ele>
        <time>2013-06-12T12:19:39Z</time>
      </trkpt>
      <trkpt lat="38.5614320" lon="14.5834450">
        <ele>10.2300000</ele>
        <time>2013-06-12T12:20:02Z</time>
      </trkpt>
      <trkpt lat="38.5614360" lon="14.5834520">
        <ele>10.2300000</ele>
        <time>2013-06-12T12:20:19Z</time>
      </trkpt>
      <trkpt lat="38.5614360" lon="14.5834520">
        <ele>9.2700000</ele>
        <time>2013-06-12T12:20:42Z</time>
      </trkpt>
      <trkpt lat="38.5614320" lon="14.5834540">
        <ele>9.7500000</ele>
        <time>2013-06-12T12:21:04Z</time>
      </trkpt>
      <trkpt lat="38.5614200" lon="14.5834590">
        <ele>10.7100000</ele>
        <time>2013-06-12T12:21:28Z</time>
      </trkpt>
      <trkpt lat="38.5614200" lon="14.5834590">
        <ele>9.7500000</ele>
        <time>2013-06-12T12:21:48Z</time>
      </trkpt>
      <trkpt lat="38.5614170" lon="14.5834390">
        <ele>10.2300000</ele>
        <time>2013-06-12T12:22:07Z</time>
      </trkpt>
      <trkpt lat="38.5614200" lon="14.5834270">
        <ele>9.7500000</ele>
        <time>2013-06-12T12:22:28Z</time>
      </trkpt>
      <trkpt lat="38.5614280" lon="14.5834050">
        <ele>9.7500000</ele>
        <time>2013-06-12T12:22:47Z</time>
      </trkpt>
      <trkpt lat="38.5614280" lon="14.5834050">
        <ele>10.7100000</ele>
        <time>2013-06-12T12:23:09Z</time>
      </trkpt>
      <trkpt lat="38.5614280" lon="14.5833960">
        <ele>10.7100000</ele>
        <time>2013-06-12T12:23:32Z</time>
      </trkpt>
      <trkpt lat="38.5614280" lon="14.5833960">
        <ele>10.2300000</ele>
        <time>2013-06-12T12:23:38Z</time>
      </trkpt>
      <trkpt lat="38.5614360" lon="14.5833860">
        <ele>10.2300000</ele>
        <time>2013-06-12T12:23:59Z</time>
      </trkpt>
      <trkpt lat="38.5614360" lon="14.5833830">
        <ele>9.7500000</ele>
        <time>2013-06-12T12:24:24Z</time>
      </trkpt>
      <trkpt lat="38.5614320" lon="14.5833640">
        <ele>9.7500000</ele>
        <time>2013-06-12T12:24:47Z</time>
      </trkpt>
      <trkpt lat="38.5614320" lon="14.5833640">
        <ele>9.7500000</ele>
        <time>2013-06-12T12:25:09Z</time>
      </trkpt>
      <trkpt lat="38.5614360" lon="14.5833620">
        <ele>9.7500000</ele>
        <time>2013-06-12T12:25:27Z</time>
      </trkpt>
      <trkpt lat="38.5613980" lon="14.5833640">
        <ele>9.2700000</ele>
        <time>2013-06-12T12:25:50Z</time>
      </trkpt>
      <trkpt lat="38.5613980" lon="14.5833640">
        <ele>9.2700000</ele>
        <time>2013-06-12T12:26:12Z</time>
      </trkpt>
      <trkpt lat="38.5613980" lon="14.5833690">
        <ele>9.7500000</ele>
        <time>2013-06-12T12:26:35Z</time>
      </trkpt>
      <trkpt lat="38.5614050" lon="14.5833730">
        <ele>9.2700000</ele>
        <time>2013-06-12T12:26:55Z</time>
      </trkpt>
      <trkpt lat="38.5614050" lon="14.5833730">
        <ele>9.2700000</ele>
        <time>2013-06-12T12:27:17Z</time>
      </trkpt>
      <trkpt lat="38.5614130" lon="14.5833750">
        <ele>8.7900000</ele>
        <time>2013-06-12T12:27:39Z</time>
      </trkpt>
      <trkpt lat="38.5614130" lon="14.5833750">
        <ele>9.2700000</ele>
        <time>2013-06-12T12:27:59Z</time>
      </trkpt>
      <trkpt lat="38.5614050" lon="14.5833670">
        <ele>9.7500000</ele>
        <time>2013-06-12T12:28:18Z</time>
      </trkpt>
      <trkpt lat="38.5614050" lon="14.5833630">
        <ele>9.7500000</ele>
        <time>2013-06-12T12:28:39Z</time>
      </trkpt>
      <trkpt lat="38.5614050" lon="14.5833630">
        <ele>9.7500000</ele>
        <time>2013-06-12T12:29:04Z</time>
      </trkpt>
      <trkpt lat="38.5614010" lon="14.5833610">
        <ele>9.2700000</ele>
        <time>2013-06-12T12:29:27Z</time>
      </trkpt>
      <trkpt lat="38.5614010" lon="14.5833620">
        <ele>9.2700000</ele>
        <time>2013-06-12T12:29:49Z</time>
      </trkpt>
      <trkpt lat="38.5614050" lon="14.5833780">
        <ele>9.2700000</ele>
        <time>2013-06-12T12:30:12Z</time>
      </trkpt>
      <trkpt lat="38.5614050" lon="14.5834180">
        <ele>9.2700000</ele>
        <time>2013-06-12T12:30:36Z</time>
      </trkpt>
      <trkpt lat="38.5614050" lon="14.5834380">
        <ele>9.7500000</ele>
        <time>2013-06-12T12:30:57Z</time>
      </trkpt>
      <trkpt lat="38.5614050" lon="14.5834380">
        <ele>9.2700000</ele>
        <time>2013-06-12T12:31:16Z</time>
      </trkpt>
      <trkpt lat="38.5614010" lon="14.5834420">
        <ele>9.7500000</ele>
        <time>2013-06-12T12:31:33Z</time>
      </trkpt>
      <trkpt lat="38.5614010" lon="14.5834420">
        <ele>9.7500000</ele>
        <time>2013-06-12T12:31:55Z</time>
      </trkpt>
      <trkpt lat="38.5614050" lon="14.5834410">
        <ele>9.7500000</ele>
        <time>2013-06-12T12:32:18Z</time>
      </trkpt>
      <trkpt lat="38.5614010" lon="14.5834400">
        <ele>9.7500000</ele>
        <time>2013-06-12T12:32:39Z</time>
      </trkpt>
      <trkpt lat="38.5613980" lon="14.5834220">
        <ele>9.7500000</ele>
        <time>2013-06-12T12:32:59Z</time>
      </trkpt>
      <trkpt lat="38.5613900" lon="14.5834160">
        <ele>9.2700000</ele>
        <time>2013-06-12T12:33:18Z</time>
      </trkpt>
      <trkpt lat="38.5613900" lon="14.5834160">
        <ele>8.7900000</ele>
        <time>2013-06-12T12:33:38Z</time>
      </trkpt>
      <trkpt lat="38.5613900" lon="14.5834150">
        <ele>9.2700000</ele>
        <time>2013-06-12T12:34:01Z</time>
      </trkpt>
      <trkpt lat="38.5613940" lon="14.5834160">
        <ele>9.2700000</ele>
        <time>2013-06-12T12:34:17Z</time>
      </trkpt>
      <trkpt lat="38.5613940" lon="14.5834180">
        <ele>9.2700000</ele>
        <time>2013-06-12T12:34:42Z</time>
      </trkpt>
      <trkpt lat="38.5613940" lon="14.5834180">
        <ele>9.2700000</ele>
        <time>2013-06-12T12:35:06Z</time>
      </trkpt>
      <trkpt lat="38.5613940" lon="14.5834240">
        <ele>9.2700000</ele>
        <time>2013-06-12T12:35:27Z</time>
      </trkpt>
      <trkpt lat="38.5613940" lon="14.5834240">
        <ele>8.7900000</ele>
        <time>2013-06-12T12:35:45Z</time>
      </trkpt>
      <trkpt lat="38.5613980" lon="14.5834260">
        <ele>10.2300000</ele>
        <time>2013-06-12T12:36:02Z</time>
      </trkpt>
      <trkpt lat="38.5613980" lon="14.5834260">
        <ele>9.7500000</ele>
        <time>2013-06-12T12:36:23Z</time>
      </trkpt>
      <trkpt lat="38.5613980" lon="14.5834290">
        <ele>8.7900000</ele>
        <time>2013-06-12T12:36:46Z</time>
      </trkpt>
      <trkpt lat="38.5613980" lon="14.5834290">
        <ele>8.7900000</ele>
        <time>2013-06-12T12:37:06Z</time>
      </trkpt>
      <trkpt lat="38.5614010" lon="14.5834310">
        <ele>9.2700000</ele>
        <time>2013-06-12T12:37:27Z</time>
      </trkpt>
      <trkpt lat="38.5614010" lon="14.5834330">
        <ele>8.7900000</ele>
        <time>2013-06-12T12:37:53Z</time>
      </trkpt>
      <trkpt lat="38.5614010" lon="14.5834330">
        <ele>8.7900000</ele>
        <time>2013-06-12T12:38:17Z</time>
      </trkpt>
      <trkpt lat="38.5614010" lon="14.5834410">
        <ele>8.7900000</ele>
        <time>2013-06-12T12:38:39Z</time>
      </trkpt>
      <trkpt lat="38.5614010" lon="14.5834410">
        <ele>8.7900000</ele>
        <time>2013-06-12T12:39:01Z</time>
      </trkpt>
      <trkpt lat="38.5614050" lon="14.5834430">
        <ele>9.2700000</ele>
        <time>2013-06-12T12:39:22Z</time>
      </trkpt>
      <trkpt lat="38.5614050" lon="14.5834430">
        <ele>9.7500000</ele>
        <time>2013-06-12T12:39:43Z</time>
      </trkpt>
      <trkpt lat="38.5614050" lon="14.5834460">
        <ele>9.7500000</ele>
        <time>2013-06-12T12:40:10Z</time>
      </trkpt>
      <trkpt lat="38.5614050" lon="14.5834460">
        <ele>8.3100000</ele>
        <time>2013-06-12T12:40:30Z</time>
      </trkpt>
      <trkpt lat="38.5614050" lon="14.5834480">
        <ele>9.2700000</ele>
        <time>2013-06-12T12:40:52Z</time>
      </trkpt>
      <trkpt lat="38.5614050" lon="14.5834480">
        <ele>8.7900000</ele>
        <time>2013-06-12T12:41:13Z</time>
      </trkpt>
      <trkpt lat="38.5614050" lon="14.5834470">
        <ele>8.7900000</ele>
        <time>2013-06-12T12:41:36Z</time>
      </trkpt>
      <trkpt lat="38.5614050" lon="14.5834470">
        <ele>9.2700000</ele>
        <time>2013-06-12T12:41:54Z</time>
      </trkpt>
      <trkpt lat="38.5614050" lon="14.5834460">
        <ele>8.7900000</ele>
        <time>2013-06-12T12:42:12Z</time>
      </trkpt>
      <trkpt lat="38.5614010" lon="14.5834350">
        <ele>9.2700000</ele>
        <time>2013-06-12T12:42:29Z</time>
      </trkpt>
      <trkpt lat="38.5613980" lon="14.5834300">
        <ele>8.7900000</ele>
        <time>2013-06-12T12:42:53Z</time>
      </trkpt>
      <trkpt lat="38.5613940" lon="14.5834260">
        <ele>8.7900000</ele>
        <time>2013-06-12T12:43:15Z</time>
      </trkpt>
      <trkpt lat="38.5613940" lon="14.5834260">
        <ele>8.3100000</ele>
        <time>2013-06-12T12:43:39Z</time>
      </trkpt>
      <trkpt lat="38.5613980" lon="14.5834240">
        <ele>9.2700000</ele>
        <time>2013-06-12T12:44:03Z</time>
      </trkpt>
      <trkpt lat="38.5613980" lon="14.5834240">
        <ele>10.2300000</ele>
        <time>2013-06-12T12:44:23Z</time>
      </trkpt>
      <trkpt lat="38.5613980" lon="14.5834240">
        <ele>9.7500000</ele>
        <time>2013-06-12T12:44:43Z</time>
      </trkpt>
      <trkpt lat="38.5613980" lon="14.5834240">
        <ele>8.7900000</ele>
        <time>2013-06-12T12:45:04Z</time>
      </trkpt>
      <trkpt lat="38.5613980" lon="14.5834210">
        <ele>8.3100000</ele>
        <time>2013-06-12T12:45:25Z</time>
      </trkpt>
      <trkpt lat="38.5613980" lon="14.5834150">
        <ele>8.7900000</ele>
        <time>2013-06-12T12:45:50Z</time>
      </trkpt>
      <trkpt lat="38.5613980" lon="14.5834150">
        <ele>8.7900000</ele>
        <time>2013-06-12T12:46:15Z</time>
      </trkpt>
      <trkpt lat="38.5614010" lon="14.5834080">
        <ele>8.7900000</ele>
        <time>2013-06-12T12:46:36Z</time>
      </trkpt>
      <trkpt lat="38.5614010" lon="14.5834080">
        <ele>8.7900000</ele>
        <time>2013-06-12T12:46:57Z</time>
      </trkpt>
      <trkpt lat="38.5614050" lon="14.5834000">
        <ele>8.3100000</ele>
        <time>2013-06-12T12:47:20Z</time>
      </trkpt>
      <trkpt lat="38.5614050" lon="14.5834000">
        <ele>9.2700000</ele>
        <time>2013-06-12T12:47:38Z</time>
      </trkpt>
      <trkpt lat="38.5614200" lon="14.5833830">
        <ele>9.2700000</ele>
        <time>2013-06-12T12:47:59Z</time>
      </trkpt>
      <trkpt lat="38.5614320" lon="14.5833710">
        <ele>8.7900000</ele>
        <time>2013-06-12T12:48:12Z</time>
      </trkpt>
      <trkpt lat="38.5614320" lon="14.5833710">
        <ele>8.7900000</ele>
        <time>2013-06-12T12:48:30Z</time>
      </trkpt>
      <trkpt lat="38.5614280" lon="14.5833560">
        <ele>8.7900000</ele>
        <time>2013-06-12T12:48:50Z</time>
      </trkpt>
      <trkpt lat="38.5614280" lon="14.5833560">
        <ele>8.3100000</ele>
        <time>2013-06-12T12:49:07Z</time>
      </trkpt>
      <trkpt lat="38.5614320" lon="14.5833510">
        <ele>8.7900000</ele>
        <time>2013-06-12T12:49:27Z</time>
      </trkpt>
      <trkpt lat="38.5614320" lon="14.5833510">
        <ele>9.2700000</ele>
        <time>2013-06-12T12:49:51Z</time>
      </trkpt>
      <trkpt lat="38.5614280" lon="14.5833460">
        <ele>8.7900000</ele>
        <time>2013-06-12T12:50:13Z</time>
      </trkpt>
      <trkpt lat="38.5614280" lon="14.5833460">
        <ele>9.2700000</ele>
        <time>2013-06-12T12:50:40Z</time>
      </trkpt>
      <trkpt lat="38.5614280" lon="14.5833510">
        <ele>9.7500000</ele>
        <time>2013-06-12T12:51:04Z</time>
      </trkpt>
      <trkpt lat="38.5614280" lon="14.5833570">
        <ele>9.7500000</ele>
        <time>2013-06-12T12:51:28Z</time>
      </trkpt>
      <trkpt lat="38.5614280" lon="14.5833570">
        <ele>9.7500000</ele>
        <time>2013-06-12T12:51:50Z</time>
      </trkpt>
      <trkpt lat="38.5614240" lon="14.5833610">
        <ele>8.7900000</ele>
        <time>2013-06-12T12:52:11Z</time>
      </trkpt>
      <trkpt lat="38.5614240" lon="14.5833610">
        <ele>8.7900000</ele>
        <time>2013-06-12T12:52:30Z</time>
      </trkpt>
      <trkpt lat="38.5614240" lon="14.5833660">
        <ele>8.7900000</ele>
        <time>2013-06-12T12:52:52Z</time>
      </trkpt>
      <trkpt lat="38.5614240" lon="14.5833660">
        <ele>9.2700000</ele>
        <time>2013-06-12T12:53:15Z</time>
      </trkpt>
      <trkpt lat="38.5614240" lon="14.5833750">
        <ele>9.2700000</ele>
        <time>2013-06-12T12:53:37Z</time>
      </trkpt>
      <trkpt lat="38.5614240" lon="14.5833750">
        <ele>8.7900000</ele>
        <time>2013-06-12T12:53:57Z</time>
      </trkpt>
      <trkpt lat="38.5614280" lon="14.5833860">
        <ele>8.7900000</ele>
        <time>2013-06-12T12:54:20Z</time>
      </trkpt>
      <trkpt lat="38.5614280" lon="14.5833860">
        <ele>9.7500000</ele>
        <time>2013-06-12T12:54:43Z</time>
      </trkpt>
      <trkpt lat="38.5614280" lon="14.5833900">
        <ele>9.2700000</ele>
        <time>2013-06-12T12:55:08Z</time>
      </trkpt>
      <trkpt lat="38.5614320" lon="14.5833950">
        <ele>9.2700000</ele>
        <time>2013-06-12T12:55:33Z</time>
      </trkpt>
      <trkpt lat="38.5614320" lon="14.5833950">
        <ele>9.2700000</ele>
        <time>2013-06-12T12:55:54Z</time>
      </trkpt>
      <trkpt lat="38.5614360" lon="14.5833940">
        <ele>9.2700000</ele>
        <time>2013-06-12T12:56:15Z</time>
      </trkpt>
      <trkpt lat="38.5614360" lon="14.5833940">
        <ele>9.2700000</ele>
        <time>2013-06-12T12:56:36Z</time>
      </trkpt>
      <trkpt lat="38.5614430" lon="14.5833890">
        <ele>9.2700000</ele>
        <time>2013-06-12T12:56:58Z</time>
      </trkpt>
      <trkpt lat="38.5614430" lon="14.5833890">
        <ele>9.2700000</ele>
        <time>2013-06-12T12:57:21Z</time>
      </trkpt>
      <trkpt lat="38.5614430" lon="14.5833870">
        <ele>9.2700000</ele>
        <time>2013-06-12T12:57:42Z</time>
      </trkpt>
      <trkpt lat="38.5614430" lon="14.5833870">
        <ele>9.2700000</ele>
        <time>2013-06-12T12:58:00Z</time>
      </trkpt>
      <trkpt lat="38.5614400" lon="14.5833850">
        <ele>9.2700000</ele>
        <time>2013-06-12T12:58:24Z</time>
      </trkpt>
      <trkpt lat="38.5614400" lon="14.5833830">
        <ele>9.2700000</ele>
        <time>2013-06-12T12:58:51Z</time>
      </trkpt>
      <trkpt lat="38.5614400" lon="14.5833830">
        <ele>9.7500000</ele>
        <time>2013-06-12T12:59:13Z</time>
      </trkpt>
      <trkpt lat="38.5614400" lon="14.5833820">
        <ele>9.7500000</ele>
        <time>2013-06-12T12:59:37Z</time>
      </trkpt>
      <trkpt lat="38.5614400" lon="14.5833820">
        <ele>9.2700000</ele>
        <time>2013-06-12T13:00:02Z</time>
      </trkpt>
      <trkpt lat="38.5614320" lon="14.5833880">
        <ele>9.2700000</ele>
        <time>2013-06-12T13:00:24Z</time>
      </trkpt>
      <trkpt lat="38.5614320" lon="14.5833880">
        <ele>8.7900000</ele>
        <time>2013-06-12T13:00:42Z</time>
      </trkpt>
      <trkpt lat="38.5614320" lon="14.5833870">
        <ele>9.2700000</ele>
        <time>2013-06-12T13:01:01Z</time>
      </trkpt>
      <trkpt lat="38.5614320" lon="14.5833870">
        <ele>8.7900000</ele>
        <time>2013-06-12T13:01:23Z</time>
      </trkpt>
      <trkpt lat="38.5614320" lon="14.5833830">
        <ele>8.7900000</ele>
        <time>2013-06-12T13:01:49Z</time>
      </trkpt>
      <trkpt lat="38.5614280" lon="14.5833840">
        <ele>9.2700000</ele>
        <time>2013-06-12T13:02:12Z</time>
      </trkpt>
      <trkpt lat="38.5614280" lon="14.5833840">
        <ele>8.7900000</ele>
        <time>2013-06-12T13:02:37Z</time>
      </trkpt>
      <trkpt lat="38.5614280" lon="14.5833830">
        <ele>8.7900000</ele>
        <time>2013-06-12T13:02:58Z</time>
      </trkpt>
      <trkpt lat="38.5614280" lon="14.5833830">
        <ele>8.7900000</ele>
        <time>2013-06-12T13:03:21Z</time>
      </trkpt>
      <trkpt lat="38.5614280" lon="14.5833840">
        <ele>9.7500000</ele>
        <time>2013-06-12T13:03:46Z</time>
      </trkpt>
      <trkpt lat="38.5614200" lon="14.5833910">
        <ele>9.2700000</ele>
        <time>2013-06-12T13:04:10Z</time>
      </trkpt>
      <trkpt lat="38.5614200" lon="14.5833950">
        <ele>9.2700000</ele>
        <time>2013-06-12T13:04:34Z</time>
      </trkpt>
      <trkpt lat="38.5614200" lon="14.5833950">
        <ele>9.7500000</ele>
        <time>2013-06-12T13:04:54Z</time>
      </trkpt>
      <trkpt lat="38.5614170" lon="14.5833980">
        <ele>11.1900000</ele>
        <time>2013-06-12T13:05:17Z</time>
      </trkpt>
      <trkpt lat="38.5613750" lon="14.5833740">
        <ele>10.2300000</ele>
        <time>2013-06-12T13:05:41Z</time>
      </trkpt>
      <trkpt lat="38.5613750" lon="14.5833700">
        <ele>9.2700000</ele>
        <time>2013-06-12T13:06:04Z</time>
      </trkpt>
      <trkpt lat="38.5613750" lon="14.5833700">
        <ele>9.7500000</ele>
        <time>2013-06-12T13:06:28Z</time>
      </trkpt>
      <trkpt lat="38.5613780" lon="14.5833680">
        <ele>9.7500000</ele>
        <time>2013-06-12T13:06:51Z</time>
      </trkpt>
      <trkpt lat="38.5613750" lon="14.5833720">
        <ele>9.2700000</ele>
        <time>2013-06-12T13:07:14Z</time>
      </trkpt>
      <trkpt lat="38.5613750" lon="14.5833720">
        <ele>10.2300000</ele>
        <time>2013-06-12T13:07:35Z</time>
      </trkpt>
      <trkpt lat="38.5613750" lon="14.5833720">
        <ele>9.7500000</ele>
        <time>2013-06-12T13:07:58Z</time>
      </trkpt>
      <trkpt lat="38.5613750" lon="14.5833720">
        <ele>10.2300000</ele>
        <time>2013-06-12T13:08:20Z</time>
      </trkpt>
      <trkpt lat="38.5613710" lon="14.5833540">
        <ele>9.2700000</ele>
        <time>2013-06-12T13:08:38Z</time>
      </trkpt>
      <trkpt lat="38.5613710" lon="14.5833540">
        <ele>9.2700000</ele>
        <time>2013-06-12T13:09:01Z</time>
      </trkpt>
      <trkpt lat="38.5613710" lon="14.5833570">
        <ele>9.7500000</ele>
        <time>2013-06-12T13:09:18Z</time>
      </trkpt>
      <trkpt lat="38.5613710" lon="14.5833620">
        <ele>9.7500000</ele>
        <time>2013-06-12T13:09:40Z</time>
      </trkpt>
      <trkpt lat="38.5613710" lon="14.5833640">
        <ele>9.7500000</ele>
        <time>2013-06-12T13:10:02Z</time>
      </trkpt>
      <trkpt lat="38.5613710" lon="14.5833640">
        <ele>8.7900000</ele>
        <time>2013-06-12T13:10:23Z</time>
      </trkpt>
      <trkpt lat="38.5613710" lon="14.5833640">
        <ele>8.7900000</ele>
        <time>2013-06-12T13:10:45Z</time>
      </trkpt>
      <trkpt lat="38.5613710" lon="14.5833640">
        <ele>8.7900000</ele>
        <time>2013-06-12T13:11:07Z</time>
      </trkpt>
      <trkpt lat="38.5613750" lon="14.5833590">
        <ele>8.3100000</ele>
        <time>2013-06-12T13:11:32Z</time>
      </trkpt>
      <trkpt lat="38.5613750" lon="14.5833590">
        <ele>9.2700000</ele>
        <time>2013-06-12T13:11:54Z</time>
      </trkpt>
      <trkpt lat="38.5613780" lon="14.5833570">
        <ele>8.7900000</ele>
        <time>2013-06-12T13:12:18Z</time>
      </trkpt>
      <trkpt lat="38.5613750" lon="14.5833610">
        <ele>9.2700000</ele>
        <time>2013-06-12T13:12:44Z</time>
      </trkpt>
      <trkpt lat="38.5613750" lon="14.5833610">
        <ele>8.7900000</ele>
        <time>2013-06-12T13:13:07Z</time>
      </trkpt>
      <trkpt lat="38.5613780" lon="14.5833670">
        <ele>9.2700000</ele>
        <time>2013-06-12T13:13:33Z</time>
      </trkpt>
      <trkpt lat="38.5613780" lon="14.5833670">
        <ele>8.3100000</ele>
        <time>2013-06-12T13:13:55Z</time>
      </trkpt>
      <trkpt lat="38.5613780" lon="14.5833730">
        <ele>9.2700000</ele>
        <time>2013-06-12T13:14:19Z</time>
      </trkpt>
      <trkpt lat="38.5613780" lon="14.5833730">
        <ele>8.7900000</ele>
        <time>2013-06-12T13:14:39Z</time>
      </trkpt>
      <trkpt lat="38.5613780" lon="14.5833810">
        <ele>8.7900000</ele>
        <time>2013-06-12T13:15:02Z</time>
      </trkpt>
      <trkpt lat="38.5613710" lon="14.5833770">
        <ele>9.2700000</ele>
        <time>2013-06-12T13:15:21Z</time>
      </trkpt>
      <trkpt lat="38.5613710" lon="14.5833770">
        <ele>9.7500000</ele>
        <time>2013-06-12T13:15:44Z</time>
      </trkpt>
      <trkpt lat="38.5613670" lon="14.5833650">
        <ele>9.2700000</ele>
        <time>2013-06-12T13:16:07Z</time>
      </trkpt>
      <trkpt lat="38.5613670" lon="14.5833650">
        <ele>8.7900000</ele>
        <time>2013-06-12T13:16:28Z</time>
      </trkpt>
      <trkpt lat="38.5613750" lon="14.5833570">
        <ele>8.7900000</ele>
        <time>2013-06-12T13:16:53Z</time>
      </trkpt>
      <trkpt lat="38.5613750" lon="14.5833570">
        <ele>9.2700000</ele>
        <time>2013-06-12T13:17:08Z</time>
      </trkpt>
      <trkpt lat="38.5613860" lon="14.5833300">
        <ele>8.7900000</ele>
        <time>2013-06-12T13:17:30Z</time>
      </trkpt>
      <trkpt lat="38.5613860" lon="14.5833300">
        <ele>8.7900000</ele>
        <time>2013-06-12T13:17:52Z</time>
      </trkpt>
      <trkpt lat="38.5613860" lon="14.5833300">
        <ele>8.3100000</ele>
        <time>2013-06-12T13:18:17Z</time>
      </trkpt>
      <trkpt lat="38.5613860" lon="14.5833320">
        <ele>8.7900000</ele>
        <time>2013-06-12T13:18:43Z</time>
      </trkpt>
      <trkpt lat="38.5613860" lon="14.5833320">
        <ele>8.7900000</ele>
        <time>2013-06-12T13:19:04Z</time>
      </trkpt>
      <trkpt lat="38.5613860" lon="14.5833330">
        <ele>8.7900000</ele>
        <time>2013-06-12T13:19:25Z</time>
      </trkpt>
      <trkpt lat="38.5613860" lon="14.5833330">
        <ele>8.7900000</ele>
        <time>2013-06-12T13:19:49Z</time>
      </trkpt>
      <trkpt lat="38.5613900" lon="14.5833320">
        <ele>8.7900000</ele>
        <time>2013-06-12T13:20:14Z</time>
      </trkpt>
      <trkpt lat="38.5613860" lon="14.5833330">
        <ele>8.7900000</ele>
        <time>2013-06-12T13:20:41Z</time>
      </trkpt>
      <trkpt lat="38.5613860" lon="14.5833330">
        <ele>8.3100000</ele>
        <time>2013-06-12T13:21:03Z</time>
      </trkpt>
      <trkpt lat="38.5613860" lon="14.5833330">
        <ele>8.3100000</ele>
        <time>2013-06-12T13:21:28Z</time>
      </trkpt>
      <trkpt lat="38.5613860" lon="14.5833330">
        <ele>8.7900000</ele>
        <time>2013-06-12T13:21:50Z</time>
      </trkpt>
      <trkpt lat="38.5613860" lon="14.5833320">
        <ele>8.3100000</ele>
        <time>2013-06-12T13:22:16Z</time>
      </trkpt>
      <trkpt lat="38.5613860" lon="14.5833320">
        <ele>7.8300000</ele>
        <time>2013-06-12T13:22:38Z</time>
      </trkpt>
      <trkpt lat="38.5613860" lon="14.5833340">
        <ele>7.8300000</ele>
        <time>2013-06-12T13:22:59Z</time>
      </trkpt>
      <trkpt lat="38.5613860" lon="14.5833420">
        <ele>8.3100000</ele>
        <time>2013-06-12T13:23:22Z</time>
      </trkpt>
      <trkpt lat="38.5613860" lon="14.5833420">
        <ele>7.8300000</ele>
        <time>2013-06-12T13:23:46Z</time>
      </trkpt>
      <trkpt lat="38.5613860" lon="14.5833420">
        <ele>7.3500000</ele>
        <time>2013-06-12T13:24:09Z</time>
      </trkpt>
      <trkpt lat="38.5613860" lon="14.5833420">
        <ele>7.3500000</ele>
        <time>2013-06-12T13:24:35Z</time>
      </trkpt>
      <trkpt lat="38.5613860" lon="14.5833420">
        <ele>8.3100000</ele>
        <time>2013-06-12T13:24:57Z</time>
      </trkpt>
      <trkpt lat="38.5613820" lon="14.5833510">
        <ele>7.8300000</ele>
        <time>2013-06-12T13:25:21Z</time>
      </trkpt>
      <trkpt lat="38.5613820" lon="14.5833510">
        <ele>8.3100000</ele>
        <time>2013-06-12T13:25:48Z</time>
      </trkpt>
      <trkpt lat="38.5613750" lon="14.5833470">
        <ele>9.2700000</ele>
        <time>2013-06-12T13:26:08Z</time>
      </trkpt>
      <trkpt lat="38.5613750" lon="14.5833470">
        <ele>8.7900000</ele>
        <time>2013-06-12T13:26:30Z</time>
      </trkpt>
      <trkpt lat="38.5613780" lon="14.5833480">
        <ele>8.3100000</ele>
        <time>2013-06-12T13:26:53Z</time>
      </trkpt>
      <trkpt lat="38.5613750" lon="14.5833690">
        <ele>8.7900000</ele>
        <time>2013-06-12T13:27:15Z</time>
      </trkpt>
      <trkpt lat="38.5613750" lon="14.5833690">
        <ele>8.3100000</ele>
        <time>2013-06-12T13:27:16Z</time>
      </trkpt>
      <trkpt lat="38.5613670" lon="14.5833800">
        <ele>7.8300000</ele>
        <time>2013-06-12T13:27:44Z</time>
      </trkpt>
      <trkpt lat="38.5613780" lon="14.5833850">
        <ele>8.3100000</ele>
        <time>2013-06-12T13:28:02Z</time>
      </trkpt>
      <trkpt lat="38.5613780" lon="14.5833850">
        <ele>8.3100000</ele>
        <time>2013-06-12T13:28:20Z</time>
      </trkpt>
      <trkpt lat="38.5613780" lon="14.5833860">
        <ele>7.8300000</ele>
        <time>2013-06-12T13:28:42Z</time>
      </trkpt>
      <trkpt lat="38.5613780" lon="14.5833860">
        <ele>7.8300000</ele>
        <time>2013-06-12T13:29:04Z</time>
      </trkpt>
      <trkpt lat="38.5613780" lon="14.5833850">
        <ele>7.3500000</ele>
        <time>2013-06-12T13:29:25Z</time>
      </trkpt>
      <trkpt lat="38.5613780" lon="14.5833850">
        <ele>8.3100000</ele>
        <time>2013-06-12T13:29:50Z</time>
      </trkpt>
      <trkpt lat="38.5613780" lon="14.5833870">
        <ele>8.3100000</ele>
        <time>2013-06-12T13:30:11Z</time>
      </trkpt>
      <trkpt lat="38.5613780" lon="14.5833840">
        <ele>8.3100000</ele>
        <time>2013-06-12T13:30:38Z</time>
      </trkpt>
      <trkpt lat="38.5613780" lon="14.5833840">
        <ele>8.3100000</ele>
        <time>2013-06-12T13:30:59Z</time>
      </trkpt>
      <trkpt lat="38.5613750" lon="14.5833790">
        <ele>8.7900000</ele>
        <time>2013-06-12T13:31:24Z</time>
      </trkpt>
      <trkpt lat="38.5613590" lon="14.5833940">
        <ele>7.8300000</ele>
        <time>2013-06-12T13:31:52Z</time>
      </trkpt>
      <trkpt lat="38.5613590" lon="14.5833960">
        <ele>7.3500000</ele>
        <time>2013-06-12T13:32:18Z</time>
      </trkpt>
      <trkpt lat="38.5613590" lon="14.5833960">
        <ele>8.3100000</ele>
        <time>2013-06-12T13:32:40Z</time>
      </trkpt>
      <trkpt lat="38.5613630" lon="14.5833880">
        <ele>7.8300000</ele>
        <time>2013-06-12T13:33:02Z</time>
      </trkpt>
      <trkpt lat="38.5613630" lon="14.5833880">
        <ele>7.8300000</ele>
        <time>2013-06-12T13:33:24Z</time>
      </trkpt>
      <trkpt lat="38.5613630" lon="14.5833830">
        <ele>8.7900000</ele>
        <time>2013-06-12T13:33:46Z</time>
      </trkpt>
      <trkpt lat="38.5613630" lon="14.5833760">
        <ele>8.3100000</ele>
        <time>2013-06-12T13:34:08Z</time>
      </trkpt>
      <trkpt lat="38.5613630" lon="14.5833810">
        <ele>7.8300000</ele>
        <time>2013-06-12T13:34:27Z</time>
      </trkpt>
      <trkpt lat="38.5613630" lon="14.5833810">
        <ele>8.3100000</ele>
        <time>2013-06-12T13:34:50Z</time>
      </trkpt>
      <trkpt lat="38.5613630" lon="14.5833820">
        <ele>8.3100000</ele>
        <time>2013-06-12T13:35:11Z</time>
      </trkpt>
      <trkpt lat="38.5613590" lon="14.5834060">
        <ele>8.7900000</ele>
        <time>2013-06-12T13:35:29Z</time>
      </trkpt>
      <trkpt lat="38.5613560" lon="14.5834180">
        <ele>8.3100000</ele>
        <time>2013-06-12T13:35:52Z</time>
      </trkpt>
      <trkpt lat="38.5613560" lon="14.5834190">
        <ele>8.7900000</ele>
        <time>2013-06-12T13:36:15Z</time>
      </trkpt>
      <trkpt lat="38.5613560" lon="14.5834180">
        <ele>8.7900000</ele>
        <time>2013-06-12T13:36:35Z</time>
      </trkpt>
      <trkpt lat="38.5613560" lon="14.5834180">
        <ele>8.7900000</ele>
        <time>2013-06-12T13:36:57Z</time>
      </trkpt>
      <trkpt lat="38.5613560" lon="14.5834170">
        <ele>8.3100000</ele>
        <time>2013-06-12T13:37:21Z</time>
      </trkpt>
      <trkpt lat="38.5613560" lon="14.5834180">
        <ele>8.3100000</ele>
        <time>2013-06-12T13:37:45Z</time>
      </trkpt>
      <trkpt lat="38.5613560" lon="14.5834180">
        <ele>8.3100000</ele>
        <time>2013-06-12T13:38:06Z</time>
      </trkpt>
      <trkpt lat="38.5613560" lon="14.5834210">
        <ele>8.3100000</ele>
        <time>2013-06-12T13:38:27Z</time>
      </trkpt>
      <trkpt lat="38.5613560" lon="14.5834210">
        <ele>8.3100000</ele>
        <time>2013-06-12T13:38:54Z</time>
      </trkpt>
      <trkpt lat="38.5613560" lon="14.5834210">
        <ele>8.3100000</ele>
        <time>2013-06-12T13:39:18Z</time>
      </trkpt>
      <trkpt lat="38.5613560" lon="14.5834180">
        <ele>8.3100000</ele>
        <time>2013-06-12T13:39:40Z</time>
      </trkpt>
      <trkpt lat="38.5613560" lon="14.5834180">
        <ele>9.2700000</ele>
        <time>2013-06-12T13:40:02Z</time>
      </trkpt>
      <trkpt lat="38.5613560" lon="14.5834210">
        <ele>8.7900000</ele>
        <time>2013-06-12T13:40:23Z</time>
      </trkpt>
      <trkpt lat="38.5613560" lon="14.5834210">
        <ele>8.3100000</ele>
        <time>2013-06-12T13:40:44Z</time>
      </trkpt>
      <trkpt lat="38.5613560" lon="14.5834210">
        <ele>8.7900000</ele>
        <time>2013-06-12T13:41:07Z</time>
      </trkpt>
      <trkpt lat="38.5613560" lon="14.5834210">
        <ele>8.3100000</ele>
        <time>2013-06-12T13:41:29Z</time>
      </trkpt>
      <trkpt lat="38.5613560" lon="14.5834240">
        <ele>8.3100000</ele>
        <time>2013-06-12T13:41:55Z</time>
      </trkpt>
      <trkpt lat="38.5613560" lon="14.5834240">
        <ele>8.3100000</ele>
        <time>2013-06-12T13:42:17Z</time>
      </trkpt>
      <trkpt lat="38.5613560" lon="14.5834300">
        <ele>8.7900000</ele>
        <time>2013-06-12T13:42:37Z</time>
      </trkpt>
      <trkpt lat="38.5613590" lon="14.5834290">
        <ele>8.7900000</ele>
        <time>2013-06-12T13:43:00Z</time>
      </trkpt>
      <trkpt lat="38.5613590" lon="14.5834290">
        <ele>8.3100000</ele>
        <time>2013-06-12T13:43:24Z</time>
      </trkpt>
      <trkpt lat="38.5613590" lon="14.5834290">
        <ele>8.7900000</ele>
        <time>2013-06-12T13:43:47Z</time>
      </trkpt>
      <trkpt lat="38.5613590" lon="14.5834290">
        <ele>8.3100000</ele>
        <time>2013-06-12T13:44:08Z</time>
      </trkpt>
      <trkpt lat="38.5613590" lon="14.5834350">
        <ele>7.8300000</ele>
        <time>2013-06-12T13:44:27Z</time>
      </trkpt>
      <trkpt lat="38.5613590" lon="14.5834350">
        <ele>8.3100000</ele>
        <time>2013-06-12T13:44:50Z</time>
      </trkpt>
      <trkpt lat="38.5613590" lon="14.5834340">
        <ele>8.7900000</ele>
        <time>2013-06-12T13:45:08Z</time>
      </trkpt>
      <trkpt lat="38.5613590" lon="14.5834270">
        <ele>7.8300000</ele>
        <time>2013-06-12T13:45:30Z</time>
      </trkpt>
      <trkpt lat="38.5613590" lon="14.5834270">
        <ele>8.3100000</ele>
        <time>2013-06-12T13:45:52Z</time>
      </trkpt>
      <trkpt lat="38.5613630" lon="14.5834240">
        <ele>8.3100000</ele>
        <time>2013-06-12T13:46:15Z</time>
      </trkpt>
      <trkpt lat="38.5613630" lon="14.5834240">
        <ele>7.8300000</ele>
        <time>2013-06-12T13:46:39Z</time>
      </trkpt>
      <trkpt lat="38.5613630" lon="14.5834230">
        <ele>8.7900000</ele>
        <time>2013-06-12T13:46:59Z</time>
      </trkpt>
      <trkpt lat="38.5613630" lon="14.5834230">
        <ele>8.3100000</ele>
        <time>2013-06-12T13:47:16Z</time>
      </trkpt>
      <trkpt lat="38.5613670" lon="14.5834320">
        <ele>8.3100000</ele>
        <time>2013-06-12T13:47:37Z</time>
      </trkpt>
      <trkpt lat="38.5613670" lon="14.5834320">
        <ele>8.7900000</ele>
        <time>2013-06-12T13:47:56Z</time>
      </trkpt>
      <trkpt lat="38.5613630" lon="14.5834350">
        <ele>8.7900000</ele>
        <time>2013-06-12T13:48:19Z</time>
      </trkpt>
      <trkpt lat="38.5613630" lon="14.5834350">
        <ele>8.7900000</ele>
        <time>2013-06-12T13:48:41Z</time>
      </trkpt>
      <trkpt lat="38.5613630" lon="14.5834380">
        <ele>8.7900000</ele>
        <time>2013-06-12T13:49:06Z</time>
      </trkpt>
      <trkpt lat="38.5613630" lon="14.5834380">
        <ele>8.7900000</ele>
        <time>2013-06-12T13:49:30Z</time>
      </trkpt>
      <trkpt lat="38.5613670" lon="14.5834430">
        <ele>8.3100000</ele>
        <time>2013-06-12T13:49:54Z</time>
      </trkpt>
      <trkpt lat="38.5613670" lon="14.5834430">
        <ele>8.3100000</ele>
        <time>2013-06-12T13:50:10Z</time>
      </trkpt>
      <trkpt lat="38.5613780" lon="14.5834500">
        <ele>8.3100000</ele>
        <time>2013-06-12T13:50:33Z</time>
      </trkpt>
      <trkpt lat="38.5613780" lon="14.5834480">
        <ele>8.7900000</ele>
        <time>2013-06-12T13:50:59Z</time>
      </trkpt>
      <trkpt lat="38.5613780" lon="14.5834480">
        <ele>8.7900000</ele>
        <time>2013-06-12T13:51:22Z</time>
      </trkpt>
      <trkpt lat="38.5613780" lon="14.5834430">
        <ele>8.3100000</ele>
        <time>2013-06-12T13:51:45Z</time>
      </trkpt>
      <trkpt lat="38.5613780" lon="14.5834430">
        <ele>8.3100000</ele>
        <time>2013-06-12T13:52:05Z</time>
      </trkpt>
      <trkpt lat="38.5613780" lon="14.5834410">
        <ele>8.7900000</ele>
        <time>2013-06-12T13:52:26Z</time>
      </trkpt>
      <trkpt lat="38.5613780" lon="14.5834410">
        <ele>8.7900000</ele>
        <time>2013-06-12T13:52:48Z</time>
      </trkpt>
      <trkpt lat="38.5613780" lon="14.5834440">
        <ele>8.3100000</ele>
        <time>2013-06-12T13:53:10Z</time>
      </trkpt>
      <trkpt lat="38.5613780" lon="14.5834440">
        <ele>8.7900000</ele>
        <time>2013-06-12T13:53:32Z</time>
      </trkpt>
      <trkpt lat="38.5613780" lon="14.5834410">
        <ele>8.3100000</ele>
        <time>2013-06-12T13:53:55Z</time>
      </trkpt>
      <trkpt lat="38.5613780" lon="14.5834410">
        <ele>8.3100000</ele>
        <time>2013-06-12T13:54:14Z</time>
      </trkpt>
      <trkpt lat="38.5613780" lon="14.5834380">
        <ele>8.3100000</ele>
        <time>2013-06-12T13:54:35Z</time>
      </trkpt>
      <trkpt lat="38.5613780" lon="14.5834380">
        <ele>8.3100000</ele>
        <time>2013-06-12T13:54:57Z</time>
      </trkpt>
      <trkpt lat="38.5613780" lon="14.5834340">
        <ele>9.2700000</ele>
        <time>2013-06-12T13:55:19Z</time>
      </trkpt>
      <trkpt lat="38.5613750" lon="14.5834290">
        <ele>8.7900000</ele>
        <time>2013-06-12T13:55:45Z</time>
      </trkpt>
      <trkpt lat="38.5613750" lon="14.5834290">
        <ele>8.7900000</ele>
        <time>2013-06-12T13:56:07Z</time>
      </trkpt>
      <trkpt lat="38.5613750" lon="14.5834270">
        <ele>8.7900000</ele>
        <time>2013-06-12T13:56:25Z</time>
      </trkpt>
      <trkpt lat="38.5613750" lon="14.5834270">
        <ele>8.7900000</ele>
        <time>2013-06-12T13:56:45Z</time>
      </trkpt>
      <trkpt lat="38.5613750" lon="14.5834250">
        <ele>8.7900000</ele>
        <time>2013-06-12T13:57:05Z</time>
      </trkpt>
      <trkpt lat="38.5613750" lon="14.5834250">
        <ele>8.7900000</ele>
        <time>2013-06-12T13:57:23Z</time>
      </trkpt>
      <trkpt lat="38.5613750" lon="14.5834190">
        <ele>8.7900000</ele>
        <time>2013-06-12T13:57:45Z</time>
      </trkpt>
      <trkpt lat="38.5613750" lon="14.5834190">
        <ele>9.2700000</ele>
        <time>2013-06-12T13:58:09Z</time>
      </trkpt>
      <trkpt lat="38.5613750" lon="14.5834120">
        <ele>9.2700000</ele>
        <time>2013-06-12T13:58:30Z</time>
      </trkpt>
      <trkpt lat="38.5613750" lon="14.5834120">
        <ele>9.2700000</ele>
        <time>2013-06-12T13:58:55Z</time>
      </trkpt>
      <trkpt lat="38.5613710" lon="14.5834020">
        <ele>9.2700000</ele>
        <time>2013-06-12T13:59:16Z</time>
      </trkpt>
      <trkpt lat="38.5613710" lon="14.5834020">
        <ele>9.2700000</ele>
        <time>2013-06-12T13:59:38Z</time>
      </trkpt>
      <trkpt lat="38.5613710" lon="14.5833660">
        <ele>10.2300000</ele>
        <time>2013-06-12T13:59:59Z</time>
      </trkpt>
      <trkpt lat="38.5613370" lon="14.5833920">
        <ele>9.7500000</ele>
        <time>2013-06-12T14:00:21Z</time>
      </trkpt>
      <trkpt lat="38.5613440" lon="14.5834050">
        <ele>9.2700000</ele>
        <time>2013-06-12T14:00:44Z</time>
      </trkpt>
      <trkpt lat="38.5613520" lon="14.5834090">
        <ele>9.7500000</ele>
        <time>2013-06-12T14:01:05Z</time>
      </trkpt>
      <trkpt lat="38.5613520" lon="14.5834090">
        <ele>9.2700000</ele>
        <time>2013-06-12T14:01:26Z</time>
      </trkpt>
      <trkpt lat="38.5613520" lon="14.5834100">
        <ele>8.7900000</ele>
        <time>2013-06-12T14:01:51Z</time>
      </trkpt>
      <trkpt lat="38.5613520" lon="14.5834070">
        <ele>9.2700000</ele>
        <time>2013-06-12T14:02:13Z</time>
      </trkpt>
      <trkpt lat="38.5613520" lon="14.5834070">
        <ele>9.7500000</ele>
        <time>2013-06-12T14:02:39Z</time>
      </trkpt>
      <trkpt lat="38.5613520" lon="14.5834050">
        <ele>9.7500000</ele>
        <time>2013-06-12T14:02:57Z</time>
      </trkpt>
      <trkpt lat="38.5613520" lon="14.5834050">
        <ele>9.7500000</ele>
        <time>2013-06-12T14:03:17Z</time>
      </trkpt>
      <trkpt lat="38.5613630" lon="14.5833850">
        <ele>9.7500000</ele>
        <time>2013-06-12T14:03:35Z</time>
      </trkpt>
      <trkpt lat="38.5613630" lon="14.5833850">
        <ele>9.2700000</ele>
        <time>2013-06-12T14:03:53Z</time>
      </trkpt>
      <trkpt lat="38.5613630" lon="14.5833850">
        <ele>9.2700000</ele>
        <time>2013-06-12T14:04:14Z</time>
      </trkpt>
      <trkpt lat="38.5613630" lon="14.5833850">
        <ele>9.2700000</ele>
        <time>2013-06-12T14:04:35Z</time>
      </trkpt>
      <trkpt lat="38.5613670" lon="14.5833800">
        <ele>9.2700000</ele>
        <time>2013-06-12T14:04:58Z</time>
      </trkpt>
      <trkpt lat="38.5613670" lon="14.5833800">
        <ele>9.7500000</ele>
        <time>2013-06-12T14:05:20Z</time>
      </trkpt>
      <trkpt lat="38.5613630" lon="14.5833780">
        <ele>9.7500000</ele>
        <time>2013-06-12T14:05:38Z</time>
      </trkpt>
      <trkpt lat="38.5613630" lon="14.5833780">
        <ele>9.7500000</ele>
        <time>2013-06-12T14:05:58Z</time>
      </trkpt>
      <trkpt lat="38.5613630" lon="14.5833780">
        <ele>9.7500000</ele>
        <time>2013-06-12T14:06:19Z</time>
      </trkpt>
      <trkpt lat="38.5613630" lon="14.5833780">
        <ele>10.2300000</ele>
        <time>2013-06-12T14:06:43Z</time>
      </trkpt>
      <trkpt lat="38.5613630" lon="14.5833780">
        <ele>10.2300000</ele>
        <time>2013-06-12T14:07:05Z</time>
      </trkpt>
      <trkpt lat="38.5613630" lon="14.5833780">
        <ele>9.7500000</ele>
        <time>2013-06-12T14:07:22Z</time>
      </trkpt>
      <trkpt lat="38.5613630" lon="14.5833790">
        <ele>10.7100000</ele>
        <time>2013-06-12T14:07:42Z</time>
      </trkpt>
      <trkpt lat="38.5613630" lon="14.5833790">
        <ele>10.2300000</ele>
        <time>2013-06-12T14:08:02Z</time>
      </trkpt>
      <trkpt lat="38.5613630" lon="14.5833770">
        <ele>10.2300000</ele>
        <time>2013-06-12T14:08:20Z</time>
      </trkpt>
      <trkpt lat="38.5613630" lon="14.5833770">
        <ele>10.2300000</ele>
        <time>2013-06-12T14:08:44Z</time>
      </trkpt>
      <trkpt lat="38.5613670" lon="14.5833790">
        <ele>9.7500000</ele>
        <time>2013-06-12T14:09:04Z</time>
      </trkpt>
      <trkpt lat="38.5613670" lon="14.5833790">
        <ele>10.7100000</ele>
        <time>2013-06-12T14:09:26Z</time>
      </trkpt>
      <trkpt lat="38.5613630" lon="14.5833810">
        <ele>9.7500000</ele>
        <time>2013-06-12T14:09:50Z</time>
      </trkpt>
      <trkpt lat="38.5613630" lon="14.5833810">
        <ele>10.7100000</ele>
        <time>2013-06-12T14:10:10Z</time>
      </trkpt>
      <trkpt lat="38.5613630" lon="14.5833920">
        <ele>10.7100000</ele>
        <time>2013-06-12T14:10:32Z</time>
      </trkpt>
      <trkpt lat="38.5613630" lon="14.5833920">
        <ele>10.2300000</ele>
        <time>2013-06-12T14:10:57Z</time>
      </trkpt>
      <trkpt lat="38.5613630" lon="14.5833950">
        <ele>10.7100000</ele>
        <time>2013-06-12T14:11:20Z</time>
      </trkpt>
      <trkpt lat="38.5613630" lon="14.5833950">
        <ele>10.2300000</ele>
        <time>2013-06-12T14:11:40Z</time>
      </trkpt>
      <trkpt lat="38.5613630" lon="14.5834020">
        <ele>10.2300000</ele>
        <time>2013-06-12T14:12:01Z</time>
      </trkpt>
      <trkpt lat="38.5613630" lon="14.5834020">
        <ele>10.2300000</ele>
        <time>2013-06-12T14:12:24Z</time>
      </trkpt>
      <trkpt lat="38.5613630" lon="14.5834020">
        <ele>10.2300000</ele>
        <time>2013-06-12T14:12:47Z</time>
      </trkpt>
      <trkpt lat="38.5613630" lon="14.5834000">
        <ele>9.2700000</ele>
        <time>2013-06-12T14:13:10Z</time>
      </trkpt>
      <trkpt lat="38.5613630" lon="14.5834000">
        <ele>9.7500000</ele>
        <time>2013-06-12T14:13:28Z</time>
      </trkpt>
      <trkpt lat="38.5613560" lon="14.5833870">
        <ele>9.7500000</ele>
        <time>2013-06-12T14:13:49Z</time>
      </trkpt>
      <trkpt lat="38.5613560" lon="14.5833830">
        <ele>10.2300000</ele>
        <time>2013-06-12T14:14:09Z</time>
      </trkpt>
      <trkpt lat="38.5613560" lon="14.5833830">
        <ele>9.7500000</ele>
        <time>2013-06-12T14:14:31Z</time>
      </trkpt>
      <trkpt lat="38.5613590" lon="14.5833890">
        <ele>9.7500000</ele>
        <time>2013-06-12T14:14:51Z</time>
      </trkpt>
      <trkpt lat="38.5613590" lon="14.5833890">
        <ele>10.2300000</ele>
        <time>2013-06-12T14:15:13Z</time>
      </trkpt>
      <trkpt lat="38.5613590" lon="14.5834030">
        <ele>10.2300000</ele>
        <time>2013-06-12T14:15:32Z</time>
      </trkpt>
      <trkpt lat="38.5613590" lon="14.5834030">
        <ele>9.2700000</ele>
        <time>2013-06-12T14:15:54Z</time>
      </trkpt>
      <trkpt lat="38.5613590" lon="14.5833970">
        <ele>9.2700000</ele>
        <time>2013-06-12T14:16:14Z</time>
      </trkpt>
      <trkpt lat="38.5613630" lon="14.5833930">
        <ele>9.2700000</ele>
        <time>2013-06-12T14:16:32Z</time>
      </trkpt>
      <trkpt lat="38.5613630" lon="14.5833930">
        <ele>9.7500000</ele>
        <time>2013-06-12T14:16:54Z</time>
      </trkpt>
      <trkpt lat="38.5613630" lon="14.5833880">
        <ele>9.7500000</ele>
        <time>2013-06-12T14:17:14Z</time>
      </trkpt>
      <trkpt lat="38.5613630" lon="14.5833880">
        <ele>9.2700000</ele>
        <time>2013-06-12T14:17:35Z</time>
      </trkpt>
      <trkpt lat="38.5613630" lon="14.5833720">
        <ele>9.2700000</ele>
        <time>2013-06-12T14:18:00Z</time>
      </trkpt>
      <trkpt lat="38.5613630" lon="14.5833660">
        <ele>9.7500000</ele>
        <time>2013-06-12T14:18:25Z</time>
      </trkpt>
      <trkpt lat="38.5613630" lon="14.5833660">
        <ele>9.2700000</ele>
        <time>2013-06-12T14:18:49Z</time>
      </trkpt>
      <trkpt lat="38.5613590" lon="14.5833610">
        <ele>9.7500000</ele>
        <time>2013-06-12T14:19:09Z</time>
      </trkpt>
      <trkpt lat="38.5613590" lon="14.5833610">
        <ele>9.7500000</ele>
        <time>2013-06-12T14:19:31Z</time>
      </trkpt>
      <trkpt lat="38.5613590" lon="14.5833570">
        <ele>9.7500000</ele>
        <time>2013-06-12T14:19:48Z</time>
      </trkpt>
      <trkpt lat="38.5613590" lon="14.5833560">
        <ele>9.7500000</ele>
        <time>2013-06-12T14:20:11Z</time>
      </trkpt>
      <trkpt lat="38.5613590" lon="14.5833560">
        <ele>9.7500000</ele>
        <time>2013-06-12T14:20:31Z</time>
      </trkpt>
      <trkpt lat="38.5613560" lon="14.5833590">
        <ele>9.7500000</ele>
        <time>2013-06-12T14:20:54Z</time>
      </trkpt>
      <trkpt lat="38.5613560" lon="14.5833590">
        <ele>9.7500000</ele>
        <time>2013-06-12T14:21:15Z</time>
      </trkpt>
      <trkpt lat="38.5613560" lon="14.5833610">
        <ele>9.7500000</ele>
        <time>2013-06-12T14:21:33Z</time>
      </trkpt>
      <trkpt lat="38.5613560" lon="14.5833610">
        <ele>9.2700000</ele>
        <time>2013-06-12T14:21:51Z</time>
      </trkpt>
      <trkpt lat="38.5613560" lon="14.5833600">
        <ele>9.2700000</ele>
        <time>2013-06-12T14:22:15Z</time>
      </trkpt>
      <trkpt lat="38.5613560" lon="14.5833600">
        <ele>8.7900000</ele>
        <time>2013-06-12T14:22:36Z</time>
      </trkpt>
      <trkpt lat="38.5613590" lon="14.5833610">
        <ele>9.2700000</ele>
        <time>2013-06-12T14:22:59Z</time>
      </trkpt>
      <trkpt lat="38.5613590" lon="14.5833610">
        <ele>9.7500000</ele>
        <time>2013-06-12T14:23:22Z</time>
      </trkpt>
      <trkpt lat="38.5613590" lon="14.5833630">
        <ele>9.2700000</ele>
        <time>2013-06-12T14:23:43Z</time>
      </trkpt>
      <trkpt lat="38.5613590" lon="14.5833630">
        <ele>9.2700000</ele>
        <time>2013-06-12T14:24:04Z</time>
      </trkpt>
      <trkpt lat="38.5613590" lon="14.5833660">
        <ele>9.7500000</ele>
        <time>2013-06-12T14:24:24Z</time>
      </trkpt>
      <trkpt lat="38.5613590" lon="14.5833660">
        <ele>9.2700000</ele>
        <time>2013-06-12T14:24:46Z</time>
      </trkpt>
      <trkpt lat="38.5613590" lon="14.5833710">
        <ele>8.7900000</ele>
        <time>2013-06-12T14:25:08Z</time>
      </trkpt>
      <trkpt lat="38.5613590" lon="14.5833700">
        <ele>8.7900000</ele>
        <time>2013-06-12T14:25:28Z</time>
      </trkpt>
      <trkpt lat="38.5613560" lon="14.5833760">
        <ele>8.7900000</ele>
        <time>2013-06-12T14:25:48Z</time>
      </trkpt>
      <trkpt lat="38.5613560" lon="14.5833760">
        <ele>8.7900000</ele>
        <time>2013-06-12T14:26:08Z</time>
      </trkpt>
      <trkpt lat="38.5613560" lon="14.5833760">
        <ele>8.7900000</ele>
        <time>2013-06-12T14:26:29Z</time>
      </trkpt>
      <trkpt lat="38.5613560" lon="14.5833760">
        <ele>9.2700000</ele>
        <time>2013-06-12T14:26:51Z</time>
      </trkpt>
      <trkpt lat="38.5613560" lon="14.5833770">
        <ele>8.7900000</ele>
        <time>2013-06-12T14:27:16Z</time>
      </trkpt>
      <trkpt lat="38.5613520" lon="14.5833950">
        <ele>9.2700000</ele>
        <time>2013-06-12T14:27:34Z</time>
      </trkpt>
      <trkpt lat="38.5613290" lon="14.5834640">
        <ele>9.2700000</ele>
        <time>2013-06-12T14:28:00Z</time>
      </trkpt>
      <trkpt lat="38.5613400" lon="14.5834550">
        <ele>8.7900000</ele>
        <time>2013-06-12T14:28:17Z</time>
      </trkpt>
      <trkpt lat="38.5613400" lon="14.5834470">
        <ele>8.7900000</ele>
        <time>2013-06-12T14:28:37Z</time>
      </trkpt>
      <trkpt lat="38.5613480" lon="14.5834390">
        <ele>8.3100000</ele>
        <time>2013-06-12T14:28:59Z</time>
      </trkpt>
      <trkpt lat="38.5613480" lon="14.5834390">
        <ele>8.3100000</ele>
        <time>2013-06-12T14:29:21Z</time>
      </trkpt>
      <trkpt lat="38.5613440" lon="14.5834250">
        <ele>8.3100000</ele>
        <time>2013-06-12T14:29:47Z</time>
      </trkpt>
      <trkpt lat="38.5613440" lon="14.5834250">
        <ele>7.8300000</ele>
        <time>2013-06-12T14:30:09Z</time>
      </trkpt>
      <trkpt lat="38.5613440" lon="14.5834270">
        <ele>8.3100000</ele>
        <time>2013-06-12T14:30:31Z</time>
      </trkpt>
      <trkpt lat="38.5613440" lon="14.5834270">
        <ele>7.8300000</ele>
        <time>2013-06-12T14:30:50Z</time>
      </trkpt>
      <trkpt lat="38.5613440" lon="14.5834300">
        <ele>8.7900000</ele>
        <time>2013-06-12T14:31:13Z</time>
      </trkpt>
      <trkpt lat="38.5613480" lon="14.5834350">
        <ele>8.7900000</ele>
        <time>2013-06-12T14:31:31Z</time>
      </trkpt>
      <trkpt lat="38.5613480" lon="14.5834350">
        <ele>9.2700000</ele>
        <time>2013-06-12T14:31:51Z</time>
      </trkpt>
      <trkpt lat="38.5613480" lon="14.5834270">
        <ele>8.3100000</ele>
        <time>2013-06-12T14:32:16Z</time>
      </trkpt>
      <trkpt lat="38.5613480" lon="14.5834240">
        <ele>7.8300000</ele>
        <time>2013-06-12T14:32:40Z</time>
      </trkpt>
      <trkpt lat="38.5613480" lon="14.5834240">
        <ele>8.3100000</ele>
        <time>2013-06-12T14:33:01Z</time>
      </trkpt>
      <trkpt lat="38.5613440" lon="14.5834220">
        <ele>7.8300000</ele>
        <time>2013-06-12T14:33:25Z</time>
      </trkpt>
      <trkpt lat="38.5613440" lon="14.5834220">
        <ele>7.8300000</ele>
        <time>2013-06-12T14:33:46Z</time>
      </trkpt>
      <trkpt lat="38.5613480" lon="14.5834160">
        <ele>8.3100000</ele>
        <time>2013-06-12T14:34:07Z</time>
      </trkpt>
      <trkpt lat="38.5613480" lon="14.5834160">
        <ele>8.3100000</ele>
        <time>2013-06-12T14:34:30Z</time>
      </trkpt>
      <trkpt lat="38.5613400" lon="14.5834000">
        <ele>8.3100000</ele>
        <time>2013-06-12T14:34:53Z</time>
      </trkpt>
      <trkpt lat="38.5613370" lon="14.5834080">
        <ele>8.3100000</ele>
        <time>2013-06-12T14:35:16Z</time>
      </trkpt>
      <trkpt lat="38.5613370" lon="14.5834080">
        <ele>8.3100000</ele>
        <time>2013-06-12T14:35:38Z</time>
      </trkpt>
      <trkpt lat="38.5613370" lon="14.5834130">
        <ele>8.3100000</ele>
        <time>2013-06-12T14:35:59Z</time>
      </trkpt>
      <trkpt lat="38.5613370" lon="14.5834130">
        <ele>8.3100000</ele>
        <time>2013-06-12T14:36:18Z</time>
      </trkpt>
      <trkpt lat="38.5613400" lon="14.5834100">
        <ele>8.3100000</ele>
        <time>2013-06-12T14:36:36Z</time>
      </trkpt>
      <trkpt lat="38.5613400" lon="14.5834100">
        <ele>8.3100000</ele>
        <time>2013-06-12T14:36:58Z</time>
      </trkpt>
      <trkpt lat="38.5613400" lon="14.5834110">
        <ele>7.8300000</ele>
        <time>2013-06-12T14:37:18Z</time>
      </trkpt>
      <trkpt lat="38.5613400" lon="14.5834070">
        <ele>7.8300000</ele>
        <time>2013-06-12T14:37:37Z</time>
      </trkpt>
      <trkpt lat="38.5613400" lon="14.5834070">
        <ele>8.3100000</ele>
        <time>2013-06-12T14:37:55Z</time>
      </trkpt>
      <trkpt lat="38.5613400" lon="14.5834070">
        <ele>8.7900000</ele>
        <time>2013-06-12T14:38:08Z</time>
      </trkpt>
      <trkpt lat="38.5613370" lon="14.5833940">
        <ele>8.3100000</ele>
        <time>2013-06-12T14:38:31Z</time>
      </trkpt>
      <trkpt lat="38.5613330" lon="14.5833880">
        <ele>8.3100000</ele>
        <time>2013-06-12T14:38:52Z</time>
      </trkpt>
      <trkpt lat="38.5613330" lon="14.5833880">
        <ele>8.3100000</ele>
        <time>2013-06-12T14:39:13Z</time>
      </trkpt>
      <trkpt lat="38.5613370" lon="14.5833850">
        <ele>8.3100000</ele>
        <time>2013-06-12T14:39:38Z</time>
      </trkpt>
      <trkpt lat="38.5613370" lon="14.5833850">
        <ele>8.7900000</ele>
        <time>2013-06-12T14:39:56Z</time>
      </trkpt>
      <trkpt lat="38.5613370" lon="14.5833830">
        <ele>7.8300000</ele>
        <time>2013-06-12T14:40:20Z</time>
      </trkpt>
      <trkpt lat="38.5613370" lon="14.5833830">
        <ele>7.8300000</ele>
        <time>2013-06-12T14:40:40Z</time>
      </trkpt>
      <trkpt lat="38.5613370" lon="14.5833850">
        <ele>7.8300000</ele>
        <time>2013-06-12T14:41:01Z</time>
      </trkpt>
      <trkpt lat="38.5613370" lon="14.5833850">
        <ele>7.8300000</ele>
        <time>2013-06-12T14:41:20Z</time>
      </trkpt>
      <trkpt lat="38.5613370" lon="14.5833900">
        <ele>7.8300000</ele>
        <time>2013-06-12T14:41:42Z</time>
      </trkpt>
      <trkpt lat="38.5613370" lon="14.5833900">
        <ele>7.8300000</ele>
        <time>2013-06-12T14:42:03Z</time>
      </trkpt>
      <trkpt lat="38.5613370" lon="14.5833950">
        <ele>8.7900000</ele>
        <time>2013-06-12T14:42:20Z</time>
      </trkpt>
      <trkpt lat="38.5613400" lon="14.5833990">
        <ele>8.3100000</ele>
        <time>2013-06-12T14:42:36Z</time>
      </trkpt>
      <trkpt lat="38.5613440" lon="14.5833840">
        <ele>8.3100000</ele>
        <time>2013-06-12T14:42:56Z</time>
      </trkpt>
      <trkpt lat="38.5613440" lon="14.5833840">
        <ele>7.8300000</ele>
        <time>2013-06-12T14:43:17Z</time>
      </trkpt>
      <trkpt lat="38.5613440" lon="14.5833770">
        <ele>7.8300000</ele>
        <time>2013-06-12T14:43:38Z</time>
      </trkpt>
      <trkpt lat="38.5613440" lon="14.5833770">
        <ele>7.8300000</ele>
        <time>2013-06-12T14:43:57Z</time>
      </trkpt>
      <trkpt lat="38.5613520" lon="14.5833630">
        <ele>7.8300000</ele>
        <time>2013-06-12T14:44:22Z</time>
      </trkpt>
      <trkpt lat="38.5613520" lon="14.5833630">
        <ele>7.3500000</ele>
        <time>2013-06-12T14:44:46Z</time>
      </trkpt>
      <trkpt lat="38.5613560" lon="14.5833520">
        <ele>7.8300000</ele>
        <time>2013-06-12T14:45:08Z</time>
      </trkpt>
      <trkpt lat="38.5613560" lon="14.5833520">
        <ele>7.8300000</ele>
        <time>2013-06-12T14:45:30Z</time>
      </trkpt>
      <trkpt lat="38.5613560" lon="14.5833550">
        <ele>7.3500000</ele>
        <time>2013-06-12T14:45:52Z</time>
      </trkpt>
      <trkpt lat="38.5613560" lon="14.5833550">
        <ele>8.3100000</ele>
        <time>2013-06-12T14:46:11Z</time>
      </trkpt>
      <trkpt lat="38.5613560" lon="14.5833580">
        <ele>8.3100000</ele>
        <time>2013-06-12T14:46:29Z</time>
      </trkpt>
      <trkpt lat="38.5613560" lon="14.5833580">
        <ele>8.3100000</ele>
        <time>2013-06-12T14:46:51Z</time>
      </trkpt>
      <trkpt lat="38.5613590" lon="14.5833550">
        <ele>7.8300000</ele>
        <time>2013-06-12T14:47:16Z</time>
      </trkpt>
      <trkpt lat="38.5613590" lon="14.5833550">
        <ele>7.3500000</ele>
        <time>2013-06-12T14:47:38Z</time>
      </trkpt>
      <trkpt lat="38.5613590" lon="14.5833480">
        <ele>7.3500000</ele>
        <time>2013-06-12T14:48:00Z</time>
      </trkpt>
      <trkpt lat="38.5613590" lon="14.5833480">
        <ele>7.3500000</ele>
        <time>2013-06-12T14:48:23Z</time>
      </trkpt>
      <trkpt lat="38.5613630" lon="14.5833420">
        <ele>7.3500000</ele>
        <time>2013-06-12T14:48:43Z</time>
      </trkpt>
      <trkpt lat="38.5613630" lon="14.5833420">
        <ele>6.8700000</ele>
        <time>2013-06-12T14:49:04Z</time>
      </trkpt>
      <trkpt lat="38.5613630" lon="14.5833440">
        <ele>7.3500000</ele>
        <time>2013-06-12T14:49:26Z</time>
      </trkpt>
      <trkpt lat="38.5613670" lon="14.5833480">
        <ele>6.8700000</ele>
        <time>2013-06-12T14:49:49Z</time>
      </trkpt>
      <trkpt lat="38.5613670" lon="14.5833480">
        <ele>7.3500000</ele>
        <time>2013-06-12T14:50:12Z</time>
      </trkpt>
      <trkpt lat="38.5613710" lon="14.5833490">
        <ele>6.8700000</ele>
        <time>2013-06-12T14:50:36Z</time>
      </trkpt>
      <trkpt lat="38.5613710" lon="14.5833490">
        <ele>7.3500000</ele>
        <time>2013-06-12T14:51:00Z</time>
      </trkpt>
      <trkpt lat="38.5613710" lon="14.5833510">
        <ele>7.3500000</ele>
        <time>2013-06-12T14:51:20Z</time>
      </trkpt>
      <trkpt lat="38.5613710" lon="14.5833510">
        <ele>6.8700000</ele>
        <time>2013-06-12T14:51:44Z</time>
      </trkpt>
      <trkpt lat="38.5613710" lon="14.5833440">
        <ele>6.8700000</ele>
        <time>2013-06-12T14:52:10Z</time>
      </trkpt>
      <trkpt lat="38.5613710" lon="14.5833320">
        <ele>6.8700000</ele>
        <time>2013-06-12T14:52:32Z</time>
      </trkpt>
      <trkpt lat="38.5613710" lon="14.5833320">
        <ele>7.3500000</ele>
        <time>2013-06-12T14:52:51Z</time>
      </trkpt>
      <trkpt lat="38.5613750" lon="14.5833220">
        <ele>6.8700000</ele>
        <time>2013-06-12T14:53:10Z</time>
      </trkpt>
      <trkpt lat="38.5613750" lon="14.5833220">
        <ele>7.3500000</ele>
        <time>2013-06-12T14:53:32Z</time>
      </trkpt>
      <trkpt lat="38.5613780" lon="14.5833140">
        <ele>6.8700000</ele>
        <time>2013-06-12T14:53:54Z</time>
      </trkpt>
      <trkpt lat="38.5613780" lon="14.5833140">
        <ele>6.8700000</ele>
        <time>2013-06-12T14:54:16Z</time>
      </trkpt>
      <trkpt lat="38.5613820" lon="14.5833020">
        <ele>6.3900000</ele>
        <time>2013-06-12T14:54:40Z</time>
      </trkpt>
      <trkpt lat="38.5613820" lon="14.5833020">
        <ele>6.3900000</ele>
        <time>2013-06-12T14:55:00Z</time>
      </trkpt>
      <trkpt lat="38.5613860" lon="14.5832980">
        <ele>6.8700000</ele>
        <time>2013-06-12T14:55:21Z</time>
      </trkpt>
      <trkpt lat="38.5613860" lon="14.5832980">
        <ele>6.8700000</ele>
        <time>2013-06-12T14:55:47Z</time>
      </trkpt>
      <trkpt lat="38.5613900" lon="14.5832880">
        <ele>6.3900000</ele>
        <time>2013-06-12T14:56:10Z</time>
      </trkpt>
      <trkpt lat="38.5614090" lon="14.5832720">
        <ele>6.3900000</ele>
        <time>2013-06-12T14:56:26Z</time>
      </trkpt>
      <trkpt lat="38.5614090" lon="14.5832720">
        <ele>6.8700000</ele>
        <time>2013-06-12T14:56:45Z</time>
      </trkpt>
      <trkpt lat="38.5614090" lon="14.5832710">
        <ele>6.3900000</ele>
        <time>2013-06-12T14:57:08Z</time>
      </trkpt>
      <trkpt lat="38.5614090" lon="14.5832710">
        <ele>5.9100000</ele>
        <time>2013-06-12T14:57:28Z</time>
      </trkpt>
      <trkpt lat="38.5614090" lon="14.5832700">
        <ele>6.8700000</ele>
        <time>2013-06-12T14:57:50Z</time>
      </trkpt>
      <trkpt lat="38.5614090" lon="14.5832700">
        <ele>6.3900000</ele>
        <time>2013-06-12T14:58:13Z</time>
      </trkpt>
      <trkpt lat="38.5614090" lon="14.5832790">
        <ele>6.3900000</ele>
        <time>2013-06-12T14:58:35Z</time>
      </trkpt>
      <trkpt lat="38.5614010" lon="14.5833090">
        <ele>6.3900000</ele>
        <time>2013-06-12T14:58:55Z</time>
      </trkpt>
      <trkpt lat="38.5614010" lon="14.5833090">
        <ele>5.9100000</ele>
        <time>2013-06-12T14:59:18Z</time>
      </trkpt>
      <trkpt lat="38.5613980" lon="14.5833140">
        <ele>6.8700000</ele>
        <time>2013-06-12T14:59:36Z</time>
      </trkpt>
      <trkpt lat="38.5613980" lon="14.5833280">
        <ele>6.3900000</ele>
        <time>2013-06-12T14:59:54Z</time>
      </trkpt>
      <trkpt lat="38.5613980" lon="14.5833280">
        <ele>6.3900000</ele>
        <time>2013-06-12T15:00:19Z</time>
      </trkpt>
      <trkpt lat="38.5613980" lon="14.5833270">
        <ele>5.9100000</ele>
        <time>2013-06-12T15:00:39Z</time>
      </trkpt>
      <trkpt lat="38.5614010" lon="14.5833150">
        <ele>5.4200000</ele>
        <time>2013-06-12T15:01:03Z</time>
      </trkpt>
      <trkpt lat="38.5614010" lon="14.5833150">
        <ele>5.4200000</ele>
        <time>2013-06-12T15:01:23Z</time>
      </trkpt>
      <trkpt lat="38.5614050" lon="14.5833030">
        <ele>5.4200000</ele>
        <time>2013-06-12T15:01:43Z</time>
      </trkpt>
      <trkpt lat="38.5614050" lon="14.5833030">
        <ele>5.9100000</ele>
        <time>2013-06-12T15:02:00Z</time>
      </trkpt>
      <trkpt lat="38.5614050" lon="14.5833030">
        <ele>5.4200000</ele>
        <time>2013-06-12T15:02:19Z</time>
      </trkpt>
      <trkpt lat="38.5614170" lon="14.5832950">
        <ele>5.9100000</ele>
        <time>2013-06-12T15:02:40Z</time>
      </trkpt>
      <trkpt lat="38.5614200" lon="14.5832880">
        <ele>5.4200000</ele>
        <time>2013-06-12T15:03:02Z</time>
      </trkpt>
      <trkpt lat="38.5614200" lon="14.5832880">
        <ele>5.4200000</ele>
        <time>2013-06-12T15:03:23Z</time>
      </trkpt>
      <trkpt lat="38.5614240" lon="14.5832860">
        <ele>5.9100000</ele>
        <time>2013-06-12T15:03:45Z</time>
      </trkpt>
      <trkpt lat="38.5614240" lon="14.5832860">
        <ele>5.9100000</ele>
        <time>2013-06-12T15:04:03Z</time>
      </trkpt>
      <trkpt lat="38.5614240" lon="14.5832750">
        <ele>5.4200000</ele>
        <time>2013-06-12T15:04:25Z</time>
      </trkpt>
      <trkpt lat="38.5614240" lon="14.5832750">
        <ele>4.9400000</ele>
        <time>2013-06-12T15:04:47Z</time>
      </trkpt>
      <trkpt lat="38.5614280" lon="14.5832750">
        <ele>4.9400000</ele>
        <time>2013-06-12T15:05:05Z</time>
      </trkpt>
      <trkpt lat="38.5614280" lon="14.5832750">
        <ele>4.9400000</ele>
        <time>2013-06-12T15:05:25Z</time>
      </trkpt>
      <trkpt lat="38.5614400" lon="14.5832770">
        <ele>5.4200000</ele>
        <time>2013-06-12T15:05:42Z</time>
      </trkpt>
      <trkpt lat="38.5614400" lon="14.5832770">
        <ele>5.9100000</ele>
        <time>2013-06-12T15:06:07Z</time>
      </trkpt>
      <trkpt lat="38.5614470" lon="14.5832790">
        <ele>6.3900000</ele>
        <time>2013-06-12T15:06:22Z</time>
      </trkpt>
      <trkpt lat="38.5614470" lon="14.5832790">
        <ele>5.4200000</ele>
        <time>2013-06-12T15:06:42Z</time>
      </trkpt>
      <trkpt lat="38.5614470" lon="14.5832790">
        <ele>5.9100000</ele>
        <time>2013-06-12T15:06:53Z</time>
      </trkpt>
      <trkpt lat="38.5614660" lon="14.5833020">
        <ele>5.9100000</ele>
        <time>2013-06-12T15:07:15Z</time>
      </trkpt>
      <trkpt lat="38.5614740" lon="14.5833170">
        <ele>5.4200000</ele>
        <time>2013-06-12T15:07:32Z</time>
      </trkpt>
      <trkpt lat="38.5614740" lon="14.5833170">
        <ele>5.9100000</ele>
        <time>2013-06-12T15:07:51Z</time>
      </trkpt>
      <trkpt lat="38.5614810" lon="14.5833230">
        <ele>5.4200000</ele>
        <time>2013-06-12T15:08:07Z</time>
      </trkpt>
      <trkpt lat="38.5614810" lon="14.5833230">
        <ele>5.4200000</ele>
        <time>2013-06-12T15:08:25Z</time>
      </trkpt>
      <trkpt lat="38.5614810" lon="14.5833240">
        <ele>5.4200000</ele>
        <time>2013-06-12T15:08:43Z</time>
      </trkpt>
      <trkpt lat="38.5614810" lon="14.5833240">
        <ele>5.9100000</ele>
        <time>2013-06-12T15:09:05Z</time>
      </trkpt>
      <trkpt lat="38.5614780" lon="14.5833260">
        <ele>5.4200000</ele>
        <time>2013-06-12T15:09:28Z</time>
      </trkpt>
      <trkpt lat="38.5614780" lon="14.5833260">
        <ele>5.9100000</ele>
        <time>2013-06-12T15:09:48Z</time>
      </trkpt>
      <trkpt lat="38.5614780" lon="14.5833270">
        <ele>5.9100000</ele>
        <time>2013-06-12T15:10:10Z</time>
      </trkpt>
      <trkpt lat="38.5614780" lon="14.5833270">
        <ele>5.4200000</ele>
        <time>2013-06-12T15:10:29Z</time>
      </trkpt>
      <trkpt lat="38.5614740" lon="14.5833350">
        <ele>5.9100000</ele>
        <time>2013-06-12T15:10:51Z</time>
      </trkpt>
      <trkpt lat="38.5614740" lon="14.5833350">
        <ele>5.4200000</ele>
        <time>2013-06-12T15:11:08Z</time>
      </trkpt>
      <trkpt lat="38.5614780" lon="14.5833380">
        <ele>5.9100000</ele>
        <time>2013-06-12T15:11:28Z</time>
      </trkpt>
      <trkpt lat="38.5614780" lon="14.5833380">
        <ele>5.4200000</ele>
        <time>2013-06-12T15:11:48Z</time>
      </trkpt>
      <trkpt lat="38.5614780" lon="14.5833400">
        <ele>5.9100000</ele>
        <time>2013-06-12T15:12:09Z</time>
      </trkpt>
      <trkpt lat="38.5614780" lon="14.5833400">
        <ele>5.4200000</ele>
        <time>2013-06-12T15:12:30Z</time>
      </trkpt>
      <trkpt lat="38.5614810" lon="14.5833440">
        <ele>5.4200000</ele>
        <time>2013-06-12T15:12:50Z</time>
      </trkpt>
      <trkpt lat="38.5614810" lon="14.5833440">
        <ele>5.4200000</ele>
        <time>2013-06-12T15:13:08Z</time>
      </trkpt>
      <trkpt lat="38.5614810" lon="14.5833450">
        <ele>5.4200000</ele>
        <time>2013-06-12T15:13:29Z</time>
      </trkpt>
      <trkpt lat="38.5614810" lon="14.5833450">
        <ele>5.4200000</ele>
        <time>2013-06-12T15:13:56Z</time>
      </trkpt>
      <trkpt lat="38.5614850" lon="14.5833470">
        <ele>4.9400000</ele>
        <time>2013-06-12T15:14:20Z</time>
      </trkpt>
      <trkpt lat="38.5614850" lon="14.5833400">
        <ele>4.9400000</ele>
        <time>2013-06-12T15:14:42Z</time>
      </trkpt>
      <trkpt lat="38.5614850" lon="14.5833400">
        <ele>4.9400000</ele>
        <time>2013-06-12T15:15:05Z</time>
      </trkpt>
      <trkpt lat="38.5614850" lon="14.5833260">
        <ele>4.9400000</ele>
        <time>2013-06-12T15:15:28Z</time>
      </trkpt>
      <trkpt lat="38.5614850" lon="14.5833260">
        <ele>5.4200000</ele>
        <time>2013-06-12T15:15:50Z</time>
      </trkpt>
      <trkpt lat="38.5614780" lon="14.5833040">
        <ele>5.4200000</ele>
        <time>2013-06-12T15:16:12Z</time>
      </trkpt>
      <trkpt lat="38.5614780" lon="14.5833040">
        <ele>5.4200000</ele>
        <time>2013-06-12T15:16:31Z</time>
      </trkpt>
      <trkpt lat="38.5614700" lon="14.5832950">
        <ele>5.4200000</ele>
        <time>2013-06-12T15:16:52Z</time>
      </trkpt>
      <trkpt lat="38.5614700" lon="14.5832950">
        <ele>5.4200000</ele>
        <time>2013-06-12T15:17:10Z</time>
      </trkpt>
      <trkpt lat="38.5614660" lon="14.5832980">
        <ele>5.4200000</ele>
        <time>2013-06-12T15:17:33Z</time>
      </trkpt>
      <trkpt lat="38.5614660" lon="14.5832980">
        <ele>4.9400000</ele>
        <time>2013-06-12T15:17:52Z</time>
      </trkpt>
      <trkpt lat="38.5614620" lon="14.5832940">
        <ele>5.4200000</ele>
        <time>2013-06-12T15:18:19Z</time>
      </trkpt>
      <trkpt lat="38.5614620" lon="14.5832940">
        <ele>4.9400000</ele>
        <time>2013-06-12T15:18:36Z</time>
      </trkpt>
      <trkpt lat="38.5614470" lon="14.5832850">
        <ele>4.4600000</ele>
        <time>2013-06-12T15:18:55Z</time>
      </trkpt>
      <trkpt lat="38.5614470" lon="14.5832850">
        <ele>4.4600000</ele>
        <time>2013-06-12T15:19:19Z</time>
      </trkpt>
      <trkpt lat="38.5614400" lon="14.5833120">
        <ele>4.4600000</ele>
        <time>2013-06-12T15:19:43Z</time>
      </trkpt>
      <trkpt lat="38.5614400" lon="14.5833120">
        <ele>5.4200000</ele>
        <time>2013-06-12T15:20:05Z</time>
      </trkpt>
      <trkpt lat="38.5614400" lon="14.5833210">
        <ele>4.9400000</ele>
        <time>2013-06-12T15:20:25Z</time>
      </trkpt>
      <trkpt lat="38.5614400" lon="14.5833210">
        <ele>4.9400000</ele>
        <time>2013-06-12T15:20:44Z</time>
      </trkpt>
      <trkpt lat="38.5614360" lon="14.5833230">
        <ele>4.4600000</ele>
        <time>2013-06-12T15:21:08Z</time>
      </trkpt>
      <trkpt lat="38.5614360" lon="14.5833230">
        <ele>4.4600000</ele>
        <time>2013-06-12T15:21:34Z</time>
      </trkpt>
      <trkpt lat="38.5614360" lon="14.5833200">
        <ele>4.9400000</ele>
        <time>2013-06-12T15:21:55Z</time>
      </trkpt>
      <trkpt lat="38.5614360" lon="14.5833200">
        <ele>4.9400000</ele>
        <time>2013-06-12T15:22:14Z</time>
      </trkpt>
      <trkpt lat="38.5614360" lon="14.5833150">
        <ele>4.9400000</ele>
        <time>2013-06-12T15:22:39Z</time>
      </trkpt>
      <trkpt lat="38.5614360" lon="14.5833150">
        <ele>4.9400000</ele>
        <time>2013-06-12T15:22:58Z</time>
      </trkpt>
      <trkpt lat="38.5614320" lon="14.5833150">
        <ele>4.9400000</ele>
        <time>2013-06-12T15:23:19Z</time>
      </trkpt>
      <trkpt lat="38.5614320" lon="14.5833110">
        <ele>5.9100000</ele>
        <time>2013-06-12T15:23:41Z</time>
      </trkpt>
      <trkpt lat="38.5614320" lon="14.5833110">
        <ele>4.9400000</ele>
        <time>2013-06-12T15:24:03Z</time>
      </trkpt>
      <trkpt lat="38.5614400" lon="14.5833000">
        <ele>4.4600000</ele>
        <time>2013-06-12T15:24:28Z</time>
      </trkpt>
      <trkpt lat="38.5614400" lon="14.5833000">
        <ele>4.9400000</ele>
        <time>2013-06-12T15:24:51Z</time>
      </trkpt>
      <trkpt lat="38.5614400" lon="14.5832980">
        <ele>4.4600000</ele>
        <time>2013-06-12T15:25:10Z</time>
      </trkpt>
      <trkpt lat="38.5614400" lon="14.5832980">
        <ele>4.4600000</ele>
        <time>2013-06-12T15:25:27Z</time>
      </trkpt>
      <trkpt lat="38.5614400" lon="14.5832970">
        <ele>4.4600000</ele>
        <time>2013-06-12T15:25:52Z</time>
      </trkpt>
      <trkpt lat="38.5614400" lon="14.5832970">
        <ele>4.4600000</ele>
        <time>2013-06-12T15:26:13Z</time>
      </trkpt>
      <trkpt lat="38.5614400" lon="14.5832980">
        <ele>3.9800000</ele>
        <time>2013-06-12T15:26:33Z</time>
      </trkpt>
      <trkpt lat="38.5614400" lon="14.5832980">
        <ele>4.4600000</ele>
        <time>2013-06-12T15:26:54Z</time>
      </trkpt>
      <trkpt lat="38.5614360" lon="14.5833000">
        <ele>3.9800000</ele>
        <time>2013-06-12T15:27:16Z</time>
      </trkpt>
      <trkpt lat="38.5614360" lon="14.5833000">
        <ele>3.9800000</ele>
        <time>2013-06-12T15:27:38Z</time>
      </trkpt>
      <trkpt lat="38.5614320" lon="14.5832980">
        <ele>3.9800000</ele>
        <time>2013-06-12T15:27:57Z</time>
      </trkpt>
      <trkpt lat="38.5614320" lon="14.5832980">
        <ele>3.5000000</ele>
        <time>2013-06-12T15:28:17Z</time>
      </trkpt>
      <trkpt lat="38.5614320" lon="14.5832960">
        <ele>3.5000000</ele>
        <time>2013-06-12T15:28:35Z</time>
      </trkpt>
      <trkpt lat="38.5614320" lon="14.5832960">
        <ele>3.5000000</ele>
        <time>2013-06-12T15:28:56Z</time>
      </trkpt>
      <trkpt lat="38.5614280" lon="14.5833000">
        <ele>3.5000000</ele>
        <time>2013-06-12T15:29:20Z</time>
      </trkpt>
      <trkpt lat="38.5614240" lon="14.5833050">
        <ele>4.9400000</ele>
        <time>2013-06-12T15:29:44Z</time>
      </trkpt>
      <trkpt lat="38.5614240" lon="14.5833050">
        <ele>4.9400000</ele>
        <time>2013-06-12T15:30:06Z</time>
      </trkpt>
      <trkpt lat="38.5614240" lon="14.5833110">
        <ele>4.9400000</ele>
        <time>2013-06-12T15:30:25Z</time>
      </trkpt>
      <trkpt lat="38.5614240" lon="14.5833110">
        <ele>5.4200000</ele>
        <time>2013-06-12T15:30:44Z</time>
      </trkpt>
      <trkpt lat="38.5614240" lon="14.5833090">
        <ele>4.4600000</ele>
        <time>2013-06-12T15:31:08Z</time>
      </trkpt>
      <trkpt lat="38.5614240" lon="14.5833090">
        <ele>4.4600000</ele>
        <time>2013-06-12T15:31:32Z</time>
      </trkpt>
      <trkpt lat="38.5614200" lon="14.5833070">
        <ele>3.9800000</ele>
        <time>2013-06-12T15:31:54Z</time>
      </trkpt>
      <trkpt lat="38.5614170" lon="14.5833170">
        <ele>4.4600000</ele>
        <time>2013-06-12T15:32:17Z</time>
      </trkpt>
      <trkpt lat="38.5614170" lon="14.5833170">
        <ele>4.4600000</ele>
        <time>2013-06-12T15:32:36Z</time>
      </trkpt>
      <trkpt lat="38.5614130" lon="14.5833210">
        <ele>4.4600000</ele>
        <time>2013-06-12T15:32:56Z</time>
      </trkpt>
      <trkpt lat="38.5614130" lon="14.5833210">
        <ele>4.9400000</ele>
        <time>2013-06-12T15:33:15Z</time>
      </trkpt>
      <trkpt lat="38.5614130" lon="14.5833230">
        <ele>3.9800000</ele>
        <time>2013-06-12T15:33:33Z</time>
      </trkpt>
      <trkpt lat="38.5614130" lon="14.5833230">
        <ele>3.9800000</ele>
        <time>2013-06-12T15:33:54Z</time>
      </trkpt>
      <trkpt lat="38.5614130" lon="14.5833280">
        <ele>4.4600000</ele>
        <time>2013-06-12T15:34:15Z</time>
      </trkpt>
      <trkpt lat="38.5614130" lon="14.5833280">
        <ele>3.5000000</ele>
        <time>2013-06-12T15:34:39Z</time>
      </trkpt>
      <trkpt lat="38.5614090" lon="14.5833290">
        <ele>3.5000000</ele>
        <time>2013-06-12T15:34:59Z</time>
      </trkpt>
      <trkpt lat="38.5614090" lon="14.5833290">
        <ele>3.9800000</ele>
        <time>2013-06-12T15:35:20Z</time>
      </trkpt>
      <trkpt lat="38.5614130" lon="14.5833240">
        <ele>3.9800000</ele>
        <time>2013-06-12T15:35:38Z</time>
      </trkpt>
      <trkpt lat="38.5614130" lon="14.5833240">
        <ele>3.5000000</ele>
        <time>2013-06-12T15:35:57Z</time>
      </trkpt>
      <trkpt lat="38.5614090" lon="14.5833230">
        <ele>3.9800000</ele>
        <time>2013-06-12T15:36:18Z</time>
      </trkpt>
      <trkpt lat="38.5614090" lon="14.5833230">
        <ele>3.5000000</ele>
        <time>2013-06-12T15:36:36Z</time>
      </trkpt>
      <trkpt lat="38.5614010" lon="14.5833270">
        <ele>3.5000000</ele>
        <time>2013-06-12T15:36:55Z</time>
      </trkpt>
      <trkpt lat="38.5614010" lon="14.5833270">
        <ele>3.9800000</ele>
        <time>2013-06-12T15:37:14Z</time>
      </trkpt>
      <trkpt lat="38.5614010" lon="14.5833420">
        <ele>3.9800000</ele>
        <time>2013-06-12T15:37:31Z</time>
      </trkpt>
      <trkpt lat="38.5614050" lon="14.5833550">
        <ele>3.9800000</ele>
        <time>2013-06-12T15:37:47Z</time>
      </trkpt>
      <trkpt lat="38.5614050" lon="14.5833550">
        <ele>4.4600000</ele>
        <time>2013-06-12T15:38:07Z</time>
      </trkpt>
      <trkpt lat="38.5614050" lon="14.5833610">
        <ele>3.9800000</ele>
        <time>2013-06-12T15:38:31Z</time>
      </trkpt>
      <trkpt lat="38.5614050" lon="14.5833610">
        <ele>3.9800000</ele>
        <time>2013-06-12T15:38:51Z</time>
      </trkpt>
      <trkpt lat="38.5614050" lon="14.5833640">
        <ele>3.9800000</ele>
        <time>2013-06-12T15:39:12Z</time>
      </trkpt>
      <trkpt lat="38.5614050" lon="14.5833640">
        <ele>3.9800000</ele>
        <time>2013-06-12T15:39:30Z</time>
      </trkpt>
      <trkpt lat="38.5614050" lon="14.5833650">
        <ele>3.9800000</ele>
        <time>2013-06-12T15:39:49Z</time>
      </trkpt>
      <trkpt lat="38.5614050" lon="14.5833650">
        <ele>3.5000000</ele>
        <time>2013-06-12T15:40:09Z</time>
      </trkpt>
      <trkpt lat="38.5614050" lon="14.5833700">
        <ele>3.5000000</ele>
        <time>2013-06-12T15:40:31Z</time>
      </trkpt>
      <trkpt lat="38.5614050" lon="14.5833700">
        <ele>3.0200000</ele>
        <time>2013-06-12T15:40:49Z</time>
      </trkpt>
      <trkpt lat="38.5614050" lon="14.5833690">
        <ele>4.4600000</ele>
        <time>2013-06-12T15:41:09Z</time>
      </trkpt>
      <trkpt lat="38.5614050" lon="14.5833690">
        <ele>4.9400000</ele>
        <time>2013-06-12T15:41:26Z</time>
      </trkpt>
      <trkpt lat="38.5614090" lon="14.5833630">
        <ele>4.4600000</ele>
        <time>2013-06-12T15:41:45Z</time>
      </trkpt>
      <trkpt lat="38.5614090" lon="14.5833630">
        <ele>4.9400000</ele>
        <time>2013-06-12T15:42:06Z</time>
      </trkpt>
      <trkpt lat="38.5614010" lon="14.5833490">
        <ele>4.4600000</ele>
        <time>2013-06-12T15:42:27Z</time>
      </trkpt>
      <trkpt lat="38.5614010" lon="14.5833490">
        <ele>3.9800000</ele>
        <time>2013-06-12T15:42:49Z</time>
      </trkpt>
      <trkpt lat="38.5614050" lon="14.5833380">
        <ele>4.4600000</ele>
        <time>2013-06-12T15:43:12Z</time>
      </trkpt>
      <trkpt lat="38.5614050" lon="14.5833380">
        <ele>4.4600000</ele>
        <time>2013-06-12T15:43:33Z</time>
      </trkpt>
      <trkpt lat="38.5614050" lon="14.5833380">
        <ele>4.4600000</ele>
        <time>2013-06-12T15:43:40Z</time>
      </trkpt>
      <trkpt lat="38.5614130" lon="14.5833260">
        <ele>4.4600000</ele>
        <time>2013-06-12T15:43:59Z</time>
      </trkpt>
      <trkpt lat="38.5614130" lon="14.5833260">
        <ele>4.4600000</ele>
        <time>2013-06-12T15:44:20Z</time>
      </trkpt>
      <trkpt lat="38.5614170" lon="14.5833220">
        <ele>4.4600000</ele>
        <time>2013-06-12T15:44:40Z</time>
      </trkpt>
      <trkpt lat="38.5614240" lon="14.5833180">
        <ele>3.9800000</ele>
        <time>2013-06-12T15:45:00Z</time>
      </trkpt>
      <trkpt lat="38.5614240" lon="14.5833180">
        <ele>4.4600000</ele>
        <time>2013-06-12T15:45:23Z</time>
      </trkpt>
      <trkpt lat="38.5614240" lon="14.5833240">
        <ele>4.4600000</ele>
        <time>2013-06-12T15:45:41Z</time>
      </trkpt>
      <trkpt lat="38.5614240" lon="14.5833240">
        <ele>4.4600000</ele>
        <time>2013-06-12T15:45:55Z</time>
      </trkpt>
      <trkpt lat="38.5614200" lon="14.5833190">
        <ele>4.9400000</ele>
        <time>2013-06-12T15:46:15Z</time>
      </trkpt>
      <trkpt lat="38.5614200" lon="14.5833190">
        <ele>5.4200000</ele>
        <time>2013-06-12T15:46:37Z</time>
      </trkpt>
      <trkpt lat="38.5614170" lon="14.5833170">
        <ele>4.9400000</ele>
        <time>2013-06-12T15:46:59Z</time>
      </trkpt>
      <trkpt lat="38.5614170" lon="14.5833170">
        <ele>4.9400000</ele>
        <time>2013-06-12T15:47:19Z</time>
      </trkpt>
      <trkpt lat="38.5614170" lon="14.5833150">
        <ele>4.9400000</ele>
        <time>2013-06-12T15:47:41Z</time>
      </trkpt>
      <trkpt lat="38.5614170" lon="14.5833150">
        <ele>4.9400000</ele>
        <time>2013-06-12T15:48:01Z</time>
      </trkpt>
      <trkpt lat="38.5614130" lon="14.5833190">
        <ele>4.9400000</ele>
        <time>2013-06-12T15:48:23Z</time>
      </trkpt>
      <trkpt lat="38.5614130" lon="14.5833190">
        <ele>6.3900000</ele>
        <time>2013-06-12T15:48:47Z</time>
      </trkpt>
      <trkpt lat="38.5614170" lon="14.5833160">
        <ele>5.9100000</ele>
        <time>2013-06-12T15:49:09Z</time>
      </trkpt>
      <trkpt lat="38.5614170" lon="14.5833140">
        <ele>4.4600000</ele>
        <time>2013-06-12T15:49:33Z</time>
      </trkpt>
      <trkpt lat="38.5614170" lon="14.5833140">
        <ele>4.9400000</ele>
        <time>2013-06-12T15:49:55Z</time>
      </trkpt>
      <trkpt lat="38.5614130" lon="14.5833150">
        <ele>4.4600000</ele>
        <time>2013-06-12T15:50:19Z</time>
      </trkpt>
      <trkpt lat="38.5614130" lon="14.5833150">
        <ele>5.9100000</ele>
        <time>2013-06-12T15:50:42Z</time>
      </trkpt>
      <trkpt lat="38.5614170" lon="14.5833150">
        <ele>5.4200000</ele>
        <time>2013-06-12T15:51:05Z</time>
      </trkpt>
      <trkpt lat="38.5614170" lon="14.5833150">
        <ele>4.4600000</ele>
        <time>2013-06-12T15:51:30Z</time>
      </trkpt>
      <trkpt lat="38.5614200" lon="14.5833190">
        <ele>4.9400000</ele>
        <time>2013-06-12T15:51:53Z</time>
      </trkpt>
      <trkpt lat="38.5614240" lon="14.5833230">
        <ele>4.9400000</ele>
        <time>2013-06-12T15:52:18Z</time>
      </trkpt>
      <trkpt lat="38.5614240" lon="14.5833230">
        <ele>4.9400000</ele>
        <time>2013-06-12T15:52:41Z</time>
      </trkpt>
      <trkpt lat="38.5614240" lon="14.5833250">
        <ele>4.9400000</ele>
        <time>2013-06-12T15:53:01Z</time>
      </trkpt>
      <trkpt lat="38.5614240" lon="14.5833250">
        <ele>5.4200000</ele>
        <time>2013-06-12T15:53:22Z</time>
      </trkpt>
      <trkpt lat="38.5614240" lon="14.5833290">
        <ele>5.9100000</ele>
        <time>2013-06-12T15:53:44Z</time>
      </trkpt>
      <trkpt lat="38.5614240" lon="14.5833290">
        <ele>6.3900000</ele>
        <time>2013-06-12T15:54:04Z</time>
      </trkpt>
      <trkpt lat="38.5614240" lon="14.5833290">
        <ele>5.9100000</ele>
        <time>2013-06-12T15:54:25Z</time>
      </trkpt>
      <trkpt lat="38.5614240" lon="14.5833290">
        <ele>5.4200000</ele>
        <time>2013-06-12T15:54:50Z</time>
      </trkpt>
      <trkpt lat="38.5614200" lon="14.5833340">
        <ele>5.4200000</ele>
        <time>2013-06-12T15:55:12Z</time>
      </trkpt>
      <trkpt lat="38.5614240" lon="14.5833370">
        <ele>5.4200000</ele>
        <time>2013-06-12T15:55:34Z</time>
      </trkpt>
      <trkpt lat="38.5614240" lon="14.5833370">
        <ele>5.9100000</ele>
        <time>2013-06-12T15:55:53Z</time>
      </trkpt>
      <trkpt lat="38.5614200" lon="14.5833420">
        <ele>5.4200000</ele>
        <time>2013-06-12T15:56:14Z</time>
      </trkpt>
      <trkpt lat="38.5614200" lon="14.5833420">
        <ele>5.9100000</ele>
        <time>2013-06-12T15:56:36Z</time>
      </trkpt>
      <trkpt lat="38.5614200" lon="14.5833500">
        <ele>5.4200000</ele>
        <time>2013-06-12T15:56:58Z</time>
      </trkpt>
      <trkpt lat="38.5614200" lon="14.5833500">
        <ele>5.9100000</ele>
        <time>2013-06-12T15:57:19Z</time>
      </trkpt>
      <trkpt lat="38.5614200" lon="14.5833500">
        <ele>5.9100000</ele>
        <time>2013-06-12T15:57:38Z</time>
      </trkpt>
      <trkpt lat="38.5614200" lon="14.5833500">
        <ele>5.9100000</ele>
        <time>2013-06-12T15:57:56Z</time>
      </trkpt>
      <trkpt lat="38.5614240" lon="14.5833510">
        <ele>5.9100000</ele>
        <time>2013-06-12T15:58:19Z</time>
      </trkpt>
      <trkpt lat="38.5614240" lon="14.5833510">
        <ele>5.4200000</ele>
        <time>2013-06-12T15:58:37Z</time>
      </trkpt>
      <trkpt lat="38.5614240" lon="14.5833520">
        <ele>5.9100000</ele>
        <time>2013-06-12T15:58:58Z</time>
      </trkpt>
      <trkpt lat="38.5614240" lon="14.5833520">
        <ele>6.3900000</ele>
        <time>2013-06-12T15:59:19Z</time>
      </trkpt>
      <trkpt lat="38.5614240" lon="14.5833470">
        <ele>6.3900000</ele>
        <time>2013-06-12T15:59:39Z</time>
      </trkpt>
      <trkpt lat="38.5614240" lon="14.5833470">
        <ele>5.9100000</ele>
        <time>2013-06-12T16:00:01Z</time>
      </trkpt>
      <trkpt lat="38.5614240" lon="14.5833470">
        <ele>5.9100000</ele>
        <time>2013-06-12T16:00:22Z</time>
      </trkpt>
      <trkpt lat="38.5614240" lon="14.5833470">
        <ele>5.9100000</ele>
        <time>2013-06-12T16:00:43Z</time>
      </trkpt>
      <trkpt lat="38.5614280" lon="14.5833460">
        <ele>6.8700000</ele>
        <time>2013-06-12T16:01:03Z</time>
      </trkpt>
      <trkpt lat="38.5614280" lon="14.5833460">
        <ele>6.8700000</ele>
        <time>2013-06-12T16:01:24Z</time>
      </trkpt>
      <trkpt lat="38.5614240" lon="14.5833450">
        <ele>6.3900000</ele>
        <time>2013-06-12T16:01:46Z</time>
      </trkpt>
      <trkpt lat="38.5614240" lon="14.5833450">
        <ele>6.8700000</ele>
        <time>2013-06-12T16:02:07Z</time>
      </trkpt>
      <trkpt lat="38.5614240" lon="14.5833460">
        <ele>6.8700000</ele>
        <time>2013-06-12T16:02:28Z</time>
      </trkpt>
      <trkpt lat="38.5614240" lon="14.5833460">
        <ele>7.3500000</ele>
        <time>2013-06-12T16:02:50Z</time>
      </trkpt>
      <trkpt lat="38.5614240" lon="14.5833440">
        <ele>6.8700000</ele>
        <time>2013-06-12T16:03:15Z</time>
      </trkpt>
      <trkpt lat="38.5614240" lon="14.5833480">
        <ele>6.8700000</ele>
        <time>2013-06-12T16:03:38Z</time>
      </trkpt>
      <trkpt lat="38.5614240" lon="14.5833480">
        <ele>6.8700000</ele>
        <time>2013-06-12T16:03:59Z</time>
      </trkpt>
      <trkpt lat="38.5614200" lon="14.5833590">
        <ele>6.8700000</ele>
        <time>2013-06-12T16:04:20Z</time>
      </trkpt>
      <trkpt lat="38.5614200" lon="14.5833590">
        <ele>6.8700000</ele>
        <time>2013-06-12T16:04:37Z</time>
      </trkpt>
      <trkpt lat="38.5614200" lon="14.5833700">
        <ele>6.3900000</ele>
        <time>2013-06-12T16:05:00Z</time>
      </trkpt>
      <trkpt lat="38.5614200" lon="14.5833700">
        <ele>6.8700000</ele>
        <time>2013-06-12T16:05:23Z</time>
      </trkpt>
      <trkpt lat="38.5614200" lon="14.5833720">
        <ele>6.8700000</ele>
        <time>2013-06-12T16:05:43Z</time>
      </trkpt>
      <trkpt lat="38.5614200" lon="14.5833720">
        <ele>5.9100000</ele>
        <time>2013-06-12T16:06:05Z</time>
      </trkpt>
      <trkpt lat="38.5614200" lon="14.5833790">
        <ele>6.3900000</ele>
        <time>2013-06-12T16:06:23Z</time>
      </trkpt>
      <trkpt lat="38.5614200" lon="14.5833790">
        <ele>6.3900000</ele>
        <time>2013-06-12T16:06:43Z</time>
      </trkpt>
      <trkpt lat="38.5614240" lon="14.5833800">
        <ele>6.3900000</ele>
        <time>2013-06-12T16:07:05Z</time>
      </trkpt>
      <trkpt lat="38.5614240" lon="14.5833800">
        <ele>6.3900000</ele>
        <time>2013-06-12T16:07:22Z</time>
      </trkpt>
      <trkpt lat="38.5614240" lon="14.5833750">
        <ele>5.9100000</ele>
        <time>2013-06-12T16:07:44Z</time>
      </trkpt>
      <trkpt lat="38.5614240" lon="14.5833750">
        <ele>5.4200000</ele>
        <time>2013-06-12T16:08:03Z</time>
      </trkpt>
      <trkpt lat="38.5614200" lon="14.5833700">
        <ele>6.3900000</ele>
        <time>2013-06-12T16:08:22Z</time>
      </trkpt>
      <trkpt lat="38.5614200" lon="14.5833700">
        <ele>7.3500000</ele>
        <time>2013-06-12T16:08:45Z</time>
      </trkpt>
      <trkpt lat="38.5614240" lon="14.5833660">
        <ele>7.3500000</ele>
        <time>2013-06-12T16:09:08Z</time>
      </trkpt>
      <trkpt lat="38.5614240" lon="14.5833660">
        <ele>7.3500000</ele>
        <time>2013-06-12T16:09:30Z</time>
      </trkpt>
      <trkpt lat="38.5614280" lon="14.5833640">
        <ele>7.3500000</ele>
        <time>2013-06-12T16:09:51Z</time>
      </trkpt>
      <trkpt lat="38.5614280" lon="14.5833640">
        <ele>7.3500000</ele>
        <time>2013-06-12T16:10:12Z</time>
      </trkpt>
      <trkpt lat="38.5614280" lon="14.5833640">
        <ele>6.8700000</ele>
        <time>2013-06-12T16:10:29Z</time>
      </trkpt>
      <trkpt lat="38.5614280" lon="14.5833640">
        <ele>6.8700000</ele>
        <time>2013-06-12T16:10:47Z</time>
      </trkpt>
      <trkpt lat="38.5614280" lon="14.5833590">
        <ele>5.9100000</ele>
        <time>2013-06-12T16:11:04Z</time>
      </trkpt>
      <trkpt lat="38.5614280" lon="14.5833590">
        <ele>6.3900000</ele>
        <time>2013-06-12T16:11:23Z</time>
      </trkpt>
      <trkpt lat="38.5614280" lon="14.5833590">
        <ele>6.3900000</ele>
        <time>2013-06-12T16:11:42Z</time>
      </trkpt>
      <trkpt lat="38.5614280" lon="14.5833590">
        <ele>6.8700000</ele>
        <time>2013-06-12T16:12:03Z</time>
      </trkpt>
      <trkpt lat="38.5614280" lon="14.5833600">
        <ele>6.8700000</ele>
        <time>2013-06-12T16:12:26Z</time>
      </trkpt>
      <trkpt lat="38.5614320" lon="14.5833570">
        <ele>7.8300000</ele>
        <time>2013-06-12T16:12:50Z</time>
      </trkpt>
      <trkpt lat="38.5614320" lon="14.5833570">
        <ele>7.3500000</ele>
        <time>2013-06-12T16:13:11Z</time>
      </trkpt>
      <trkpt lat="38.5614280" lon="14.5833600">
        <ele>7.3500000</ele>
        <time>2013-06-12T16:13:29Z</time>
      </trkpt>
      <trkpt lat="38.5614280" lon="14.5833600">
        <ele>7.8300000</ele>
        <time>2013-06-12T16:13:50Z</time>
      </trkpt>
      <trkpt lat="38.5614240" lon="14.5833610">
        <ele>7.8300000</ele>
        <time>2013-06-12T16:14:11Z</time>
      </trkpt>
      <trkpt lat="38.5614170" lon="14.5833670">
        <ele>7.8300000</ele>
        <time>2013-06-12T16:14:32Z</time>
      </trkpt>
      <trkpt lat="38.5614170" lon="14.5833670">
        <ele>7.3500000</ele>
        <time>2013-06-12T16:14:52Z</time>
      </trkpt>
      <trkpt lat="38.5614170" lon="14.5833690">
        <ele>7.3500000</ele>
        <time>2013-06-12T16:15:12Z</time>
      </trkpt>
      <trkpt lat="38.5614170" lon="14.5833690">
        <ele>8.3100000</ele>
        <time>2013-06-12T16:15:34Z</time>
      </trkpt>
      <trkpt lat="38.5614170" lon="14.5833740">
        <ele>7.8300000</ele>
        <time>2013-06-12T16:15:54Z</time>
      </trkpt>
      <trkpt lat="38.5614170" lon="14.5833740">
        <ele>7.3500000</ele>
        <time>2013-06-12T16:16:16Z</time>
      </trkpt>
      <trkpt lat="38.5614130" lon="14.5833800">
        <ele>6.8700000</ele>
        <time>2013-06-12T16:16:38Z</time>
      </trkpt>
      <trkpt lat="38.5614090" lon="14.5833870">
        <ele>8.3100000</ele>
        <time>2013-06-12T16:17:01Z</time>
      </trkpt>
      <trkpt lat="38.5614090" lon="14.5833870">
        <ele>8.3100000</ele>
        <time>2013-06-12T16:17:26Z</time>
      </trkpt>
      <trkpt lat="38.5614090" lon="14.5833920">
        <ele>7.8300000</ele>
        <time>2013-06-12T16:17:50Z</time>
      </trkpt>
      <trkpt lat="38.5614090" lon="14.5833920">
        <ele>7.3500000</ele>
        <time>2013-06-12T16:18:08Z</time>
      </trkpt>
      <trkpt lat="38.5614090" lon="14.5833940">
        <ele>7.8300000</ele>
        <time>2013-06-12T16:18:34Z</time>
      </trkpt>
      <trkpt lat="38.5614010" lon="14.5834140">
        <ele>7.8300000</ele>
        <time>2013-06-12T16:18:50Z</time>
      </trkpt>
      <trkpt lat="38.5613900" lon="14.5834320">
        <ele>7.3500000</ele>
        <time>2013-06-12T16:19:09Z</time>
      </trkpt>
      <trkpt lat="38.5613900" lon="14.5834320">
        <ele>7.8300000</ele>
        <time>2013-06-12T16:19:28Z</time>
      </trkpt>
      <trkpt lat="38.5613900" lon="14.5834350">
        <ele>7.3500000</ele>
        <time>2013-06-12T16:19:50Z</time>
      </trkpt>
      <trkpt lat="38.5613900" lon="14.5834350">
        <ele>7.8300000</ele>
        <time>2013-06-12T16:20:12Z</time>
      </trkpt>
      <trkpt lat="38.5613900" lon="14.5834360">
        <ele>8.3100000</ele>
        <time>2013-06-12T16:20:33Z</time>
      </trkpt>
      <trkpt lat="38.5613940" lon="14.5834310">
        <ele>8.3100000</ele>
        <time>2013-06-12T16:20:55Z</time>
      </trkpt>
      <trkpt lat="38.5613940" lon="14.5834310">
        <ele>7.8300000</ele>
        <time>2013-06-12T16:21:15Z</time>
      </trkpt>
      <trkpt lat="38.5613940" lon="14.5834360">
        <ele>7.3500000</ele>
        <time>2013-06-12T16:21:35Z</time>
      </trkpt>
      <trkpt lat="38.5613940" lon="14.5834360">
        <ele>6.8700000</ele>
        <time>2013-06-12T16:21:56Z</time>
      </trkpt>
      <trkpt lat="38.5613940" lon="14.5834360">
        <ele>7.3500000</ele>
        <time>2013-06-12T16:22:17Z</time>
      </trkpt>
      <trkpt lat="38.5613940" lon="14.5834360">
        <ele>7.3500000</ele>
        <time>2013-06-12T16:22:42Z</time>
      </trkpt>
      <trkpt lat="38.5613980" lon="14.5834390">
        <ele>7.3500000</ele>
        <time>2013-06-12T16:23:01Z</time>
      </trkpt>
      <trkpt lat="38.5613980" lon="14.5834390">
        <ele>7.8300000</ele>
        <time>2013-06-12T16:23:25Z</time>
      </trkpt>
      <trkpt lat="38.5614010" lon="14.5834400">
        <ele>8.3100000</ele>
        <time>2013-06-12T16:23:43Z</time>
      </trkpt>
      <trkpt lat="38.5614010" lon="14.5834400">
        <ele>7.3500000</ele>
        <time>2013-06-12T16:24:05Z</time>
      </trkpt>
      <trkpt lat="38.5613980" lon="14.5834360">
        <ele>7.3500000</ele>
        <time>2013-06-12T16:24:26Z</time>
      </trkpt>
      <trkpt lat="38.5613980" lon="14.5834360">
        <ele>7.3500000</ele>
        <time>2013-06-12T16:24:43Z</time>
      </trkpt>
      <trkpt lat="38.5613630" lon="14.5834900">
        <ele>6.8700000</ele>
        <time>2013-06-12T16:25:06Z</time>
      </trkpt>
      <trkpt lat="38.5613630" lon="14.5834900">
        <ele>6.8700000</ele>
        <time>2013-06-12T16:25:28Z</time>
      </trkpt>
      <trkpt lat="38.5613860" lon="14.5834830">
        <ele>6.8700000</ele>
        <time>2013-06-12T16:25:48Z</time>
      </trkpt>
      <trkpt lat="38.5614170" lon="14.5834740">
        <ele>7.3500000</ele>
        <time>2013-06-12T16:26:11Z</time>
      </trkpt>
      <trkpt lat="38.5614170" lon="14.5834740">
        <ele>7.8300000</ele>
        <time>2013-06-12T16:26:34Z</time>
      </trkpt>
      <trkpt lat="38.5614130" lon="14.5834770">
        <ele>6.8700000</ele>
        <time>2013-06-12T16:26:56Z</time>
      </trkpt>
      <trkpt lat="38.5614130" lon="14.5834960">
        <ele>7.3500000</ele>
        <time>2013-06-12T16:27:15Z</time>
      </trkpt>
      <trkpt lat="38.5614130" lon="14.5834960">
        <ele>7.3500000</ele>
        <time>2013-06-12T16:27:34Z</time>
      </trkpt>
      <trkpt lat="38.5614130" lon="14.5834980">
        <ele>7.3500000</ele>
        <time>2013-06-12T16:27:59Z</time>
      </trkpt>
      <trkpt lat="38.5614130" lon="14.5834980">
        <ele>7.3500000</ele>
        <time>2013-06-12T16:28:20Z</time>
      </trkpt>
      <trkpt lat="38.5614130" lon="14.5834970">
        <ele>7.3500000</ele>
        <time>2013-06-12T16:28:40Z</time>
      </trkpt>
      <trkpt lat="38.5614130" lon="14.5834970">
        <ele>7.3500000</ele>
        <time>2013-06-12T16:29:02Z</time>
      </trkpt>
      <trkpt lat="38.5614130" lon="14.5834960">
        <ele>7.8300000</ele>
        <time>2013-06-12T16:29:22Z</time>
      </trkpt>
      <trkpt lat="38.5614130" lon="14.5834970">
        <ele>7.3500000</ele>
        <time>2013-06-12T16:29:41Z</time>
      </trkpt>
      <trkpt lat="38.5614280" lon="14.5835350">
        <ele>6.8700000</ele>
        <time>2013-06-12T16:30:03Z</time>
      </trkpt>
      <trkpt lat="38.5614240" lon="14.5835400">
        <ele>6.8700000</ele>
        <time>2013-06-12T16:30:25Z</time>
      </trkpt>
      <trkpt lat="38.5614320" lon="14.5835440">
        <ele>6.3900000</ele>
        <time>2013-06-12T16:30:44Z</time>
      </trkpt>
      <trkpt lat="38.5614510" lon="14.5835470">
        <ele>6.8700000</ele>
        <time>2013-06-12T16:31:00Z</time>
      </trkpt>
      <trkpt lat="38.5614510" lon="14.5835470">
        <ele>7.3500000</ele>
        <time>2013-06-12T16:31:20Z</time>
      </trkpt>
      <trkpt lat="38.5614620" lon="14.5835420">
        <ele>7.8300000</ele>
        <time>2013-06-12T16:31:40Z</time>
      </trkpt>
      <trkpt lat="38.5614620" lon="14.5835420">
        <ele>7.8300000</ele>
        <time>2013-06-12T16:32:02Z</time>
      </trkpt>
      <trkpt lat="38.5614620" lon="14.5835420">
        <ele>7.3500000</ele>
        <time>2013-06-12T16:32:09Z</time>
      </trkpt>
      <trkpt lat="38.5614620" lon="14.5835560">
        <ele>7.3500000</ele>
        <time>2013-06-12T16:32:32Z</time>
      </trkpt>
      <trkpt lat="38.5614620" lon="14.5835550">
        <ele>6.3900000</ele>
        <time>2013-06-12T16:32:56Z</time>
      </trkpt>
      <trkpt lat="38.5614620" lon="14.5835550">
        <ele>6.3900000</ele>
        <time>2013-06-12T16:33:20Z</time>
      </trkpt>
      <trkpt lat="38.5614660" lon="14.5835560">
        <ele>6.8700000</ele>
        <time>2013-06-12T16:33:40Z</time>
      </trkpt>
      <trkpt lat="38.5614660" lon="14.5835560">
        <ele>7.3500000</ele>
        <time>2013-06-12T16:34:03Z</time>
      </trkpt>
      <trkpt lat="38.5614660" lon="14.5835600">
        <ele>6.8700000</ele>
        <time>2013-06-12T16:34:26Z</time>
      </trkpt>
      <trkpt lat="38.5614660" lon="14.5835600">
        <ele>6.3900000</ele>
        <time>2013-06-12T16:34:46Z</time>
      </trkpt>
      <trkpt lat="38.5614660" lon="14.5835570">
        <ele>6.3900000</ele>
        <time>2013-06-12T16:35:07Z</time>
      </trkpt>
      <trkpt lat="38.5614660" lon="14.5835570">
        <ele>6.3900000</ele>
        <time>2013-06-12T16:35:21Z</time>
      </trkpt>
      <trkpt lat="38.5615010" lon="14.5835740">
        <ele>6.8700000</ele>
        <time>2013-06-12T16:35:40Z</time>
      </trkpt>
      <trkpt lat="38.5615010" lon="14.5835740">
        <ele>6.3900000</ele>
        <time>2013-06-12T16:36:03Z</time>
      </trkpt>
      <trkpt lat="38.5615010" lon="14.5835690">
        <ele>7.3500000</ele>
        <time>2013-06-12T16:36:24Z</time>
      </trkpt>
      <trkpt lat="38.5614810" lon="14.5835490">
        <ele>5.9100000</ele>
        <time>2013-06-12T16:36:49Z</time>
      </trkpt>
      <trkpt lat="38.5614740" lon="14.5835510">
        <ele>6.8700000</ele>
        <time>2013-06-12T16:37:12Z</time>
      </trkpt>
      <trkpt lat="38.5614890" lon="14.5835650">
        <ele>5.9100000</ele>
        <time>2013-06-12T16:37:33Z</time>
      </trkpt>
      <trkpt lat="38.5614970" lon="14.5835660">
        <ele>6.3900000</ele>
        <time>2013-06-12T16:37:56Z</time>
      </trkpt>
      <trkpt lat="38.5614970" lon="14.5835660">
        <ele>7.3500000</ele>
        <time>2013-06-12T16:38:18Z</time>
      </trkpt>
      <trkpt lat="38.5614890" lon="14.5835730">
        <ele>6.3900000</ele>
        <time>2013-06-12T16:38:41Z</time>
      </trkpt>
      <trkpt lat="38.5614890" lon="14.5835730">
        <ele>6.3900000</ele>
        <time>2013-06-12T16:39:00Z</time>
      </trkpt>
      <trkpt lat="38.5615010" lon="14.5835780">
        <ele>7.8300000</ele>
        <time>2013-06-12T16:39:24Z</time>
      </trkpt>
      <trkpt lat="38.5615230" lon="14.5835970">
        <ele>6.8700000</ele>
        <time>2013-06-12T16:39:47Z</time>
      </trkpt>
      <trkpt lat="38.5615230" lon="14.5835970">
        <ele>6.8700000</ele>
        <time>2013-06-12T16:40:08Z</time>
      </trkpt>
      <trkpt lat="38.5615160" lon="14.5835740">
        <ele>7.3500000</ele>
        <time>2013-06-12T16:40:29Z</time>
      </trkpt>
      <trkpt lat="38.5615160" lon="14.5835740">
        <ele>6.8700000</ele>
        <time>2013-06-12T16:40:49Z</time>
      </trkpt>
      <trkpt lat="38.5615160" lon="14.5835800">
        <ele>6.8700000</ele>
        <time>2013-06-12T16:41:07Z</time>
      </trkpt>
      <trkpt lat="38.5615160" lon="14.5835800">
        <ele>6.8700000</ele>
        <time>2013-06-12T16:41:30Z</time>
      </trkpt>
      <trkpt lat="38.5615040" lon="14.5835780">
        <ele>6.8700000</ele>
        <time>2013-06-12T16:41:50Z</time>
      </trkpt>
      <trkpt lat="38.5615040" lon="14.5835780">
        <ele>6.8700000</ele>
        <time>2013-06-12T16:42:15Z</time>
      </trkpt>
      <trkpt lat="38.5615040" lon="14.5835760">
        <ele>6.8700000</ele>
        <time>2013-06-12T16:42:38Z</time>
      </trkpt>
      <trkpt lat="38.5615010" lon="14.5835840">
        <ele>7.3500000</ele>
        <time>2013-06-12T16:42:59Z</time>
      </trkpt>
      <trkpt lat="38.5615010" lon="14.5835840">
        <ele>6.8700000</ele>
        <time>2013-06-12T16:43:24Z</time>
      </trkpt>
      <trkpt lat="38.5615010" lon="14.5835910">
        <ele>6.3900000</ele>
        <time>2013-06-12T16:43:45Z</time>
      </trkpt>
      <trkpt lat="38.5615010" lon="14.5835910">
        <ele>6.3900000</ele>
        <time>2013-06-12T16:44:11Z</time>
      </trkpt>
      <trkpt lat="38.5615040" lon="14.5835980">
        <ele>6.3900000</ele>
        <time>2013-06-12T16:44:33Z</time>
      </trkpt>
      <trkpt lat="38.5615040" lon="14.5835980">
        <ele>6.3900000</ele>
        <time>2013-06-12T16:44:55Z</time>
      </trkpt>
      <trkpt lat="38.5615010" lon="14.5835880">
        <ele>6.8700000</ele>
        <time>2013-06-12T16:45:17Z</time>
      </trkpt>
      <trkpt lat="38.5614930" lon="14.5835940">
        <ele>5.9100000</ele>
        <time>2013-06-12T16:45:37Z</time>
      </trkpt>
      <trkpt lat="38.5614930" lon="14.5835920">
        <ele>5.9100000</ele>
        <time>2013-06-12T16:45:57Z</time>
      </trkpt>
      <trkpt lat="38.5615010" lon="14.5835920">
        <ele>6.3900000</ele>
        <time>2013-06-12T16:46:21Z</time>
      </trkpt>
      <trkpt lat="38.5615010" lon="14.5835920">
        <ele>6.3900000</ele>
        <time>2013-06-12T16:46:43Z</time>
      </trkpt>
      <trkpt lat="38.5615010" lon="14.5835900">
        <ele>6.3900000</ele>
        <time>2013-06-12T16:47:09Z</time>
      </trkpt>
      <trkpt lat="38.5615010" lon="14.5835900">
        <ele>6.3900000</ele>
        <time>2013-06-12T16:47:31Z</time>
      </trkpt>
      <trkpt lat="38.5615200" lon="14.5835910">
        <ele>5.9100000</ele>
        <time>2013-06-12T16:47:54Z</time>
      </trkpt>
      <trkpt lat="38.5615200" lon="14.5835910">
        <ele>5.4200000</ele>
        <time>2013-06-12T16:48:15Z</time>
      </trkpt>
      <trkpt lat="38.5615230" lon="14.5835940">
        <ele>5.9100000</ele>
        <time>2013-06-12T16:48:36Z</time>
      </trkpt>
      <trkpt lat="38.5615200" lon="14.5835950">
        <ele>5.4200000</ele>
        <time>2013-06-12T16:49:00Z</time>
      </trkpt>
      <trkpt lat="38.5615200" lon="14.5835950">
        <ele>5.4200000</ele>
        <time>2013-06-12T16:49:23Z</time>
      </trkpt>
      <trkpt lat="38.5615200" lon="14.5835980">
        <ele>6.3900000</ele>
        <time>2013-06-12T16:49:44Z</time>
      </trkpt>
      <trkpt lat="38.5615120" lon="14.5836010">
        <ele>5.9100000</ele>
        <time>2013-06-12T16:50:06Z</time>
      </trkpt>
      <trkpt lat="38.5615040" lon="14.5836060">
        <ele>5.4200000</ele>
        <time>2013-06-12T16:50:27Z</time>
      </trkpt>
      <trkpt lat="38.5615040" lon="14.5836060">
        <ele>5.9100000</ele>
        <time>2013-06-12T16:50:46Z</time>
      </trkpt>
      <trkpt lat="38.5615080" lon="14.5836010">
        <ele>5.9100000</ele>
        <time>2013-06-12T16:51:07Z</time>
      </trkpt>
      <trkpt lat="38.5615080" lon="14.5836010">
        <ele>5.4200000</ele>
        <time>2013-06-12T16:51:28Z</time>
      </trkpt>
      <trkpt lat="38.5615080" lon="14.5836040">
        <ele>6.3900000</ele>
        <time>2013-06-12T16:51:49Z</time>
      </trkpt>
      <trkpt lat="38.5615080" lon="14.5836040">
        <ele>5.9100000</ele>
        <time>2013-06-12T16:52:12Z</time>
      </trkpt>
      <trkpt lat="38.5615080" lon="14.5836010">
        <ele>5.9100000</ele>
        <time>2013-06-12T16:52:34Z</time>
      </trkpt>
      <trkpt lat="38.5615200" lon="14.5835940">
        <ele>5.4200000</ele>
        <time>2013-06-12T16:52:58Z</time>
      </trkpt>
      <trkpt lat="38.5615200" lon="14.5835940">
        <ele>4.9400000</ele>
        <time>2013-06-12T16:53:18Z</time>
      </trkpt>
      <trkpt lat="38.5615200" lon="14.5835960">
        <ele>4.9400000</ele>
        <time>2013-06-12T16:53:41Z</time>
      </trkpt>
      <trkpt lat="38.5615200" lon="14.5835960">
        <ele>5.4200000</ele>
        <time>2013-06-12T16:54:02Z</time>
      </trkpt>
      <trkpt lat="38.5615390" lon="14.5835900">
        <ele>4.9400000</ele>
        <time>2013-06-12T16:54:23Z</time>
      </trkpt>
      <trkpt lat="38.5615430" lon="14.5835900">
        <ele>5.4200000</ele>
        <time>2013-06-12T16:54:44Z</time>
      </trkpt>
      <trkpt lat="38.5615430" lon="14.5835960">
        <ele>5.4200000</ele>
        <time>2013-06-12T16:55:08Z</time>
      </trkpt>
      <trkpt lat="38.5615270" lon="14.5836060">
        <ele>4.4600000</ele>
        <time>2013-06-12T16:55:27Z</time>
      </trkpt>
      <trkpt lat="38.5615270" lon="14.5836060">
        <ele>4.9400000</ele>
        <time>2013-06-12T16:55:48Z</time>
      </trkpt>
      <trkpt lat="38.5615270" lon="14.5836000">
        <ele>4.9400000</ele>
        <time>2013-06-12T16:56:08Z</time>
      </trkpt>
      <trkpt lat="38.5615270" lon="14.5836000">
        <ele>4.4600000</ele>
        <time>2013-06-12T16:56:31Z</time>
      </trkpt>
      <trkpt lat="38.5615270" lon="14.5836000">
        <ele>4.4600000</ele>
        <time>2013-06-12T16:56:41Z</time>
      </trkpt>
      <trkpt lat="38.5615200" lon="14.5835950">
        <ele>4.4600000</ele>
        <time>2013-06-12T16:57:05Z</time>
      </trkpt>
      <trkpt lat="38.5615270" lon="14.5835930">
        <ele>4.4600000</ele>
        <time>2013-06-12T16:57:29Z</time>
      </trkpt>
      <trkpt lat="38.5615310" lon="14.5835980">
        <ele>4.4600000</ele>
        <time>2013-06-12T16:57:55Z</time>
      </trkpt>
      <trkpt lat="38.5615310" lon="14.5835980">
        <ele>3.9800000</ele>
        <time>2013-06-12T16:58:17Z</time>
      </trkpt>
      <trkpt lat="38.5615310" lon="14.5835950">
        <ele>4.4600000</ele>
        <time>2013-06-12T16:58:37Z</time>
      </trkpt>
      <trkpt lat="38.5615310" lon="14.5835950">
        <ele>3.9800000</ele>
        <time>2013-06-12T16:59:02Z</time>
      </trkpt>
      <trkpt lat="38.5615310" lon="14.5835940">
        <ele>3.5000000</ele>
        <time>2013-06-12T16:59:23Z</time>
      </trkpt>
      <trkpt lat="38.5615310" lon="14.5835940">
        <ele>3.9800000</ele>
        <time>2013-06-12T16:59:44Z</time>
      </trkpt>
      <trkpt lat="38.5615230" lon="14.5835910">
        <ele>3.9800000</ele>
        <time>2013-06-12T17:00:05Z</time>
      </trkpt>
      <trkpt lat="38.5615230" lon="14.5835910">
        <ele>3.9800000</ele>
        <time>2013-06-12T17:00:25Z</time>
      </trkpt>
      <trkpt lat="38.5615230" lon="14.5835900">
        <ele>3.5000000</ele>
        <time>2013-06-12T17:00:49Z</time>
      </trkpt>
      <trkpt lat="38.5615230" lon="14.5835900">
        <ele>4.9400000</ele>
        <time>2013-06-12T17:01:13Z</time>
      </trkpt>
      <trkpt lat="38.5615230" lon="14.5835880">
        <ele>3.9800000</ele>
        <time>2013-06-12T17:01:34Z</time>
      </trkpt>
      <trkpt lat="38.5615200" lon="14.5835820">
        <ele>4.4600000</ele>
        <time>2013-06-12T17:01:55Z</time>
      </trkpt>
      <trkpt lat="38.5615200" lon="14.5835820">
        <ele>4.9400000</ele>
        <time>2013-06-12T17:02:14Z</time>
      </trkpt>
      <trkpt lat="38.5615200" lon="14.5835810">
        <ele>4.4600000</ele>
        <time>2013-06-12T17:02:36Z</time>
      </trkpt>
      <trkpt lat="38.5615270" lon="14.5835750">
        <ele>3.9800000</ele>
        <time>2013-06-12T17:02:59Z</time>
      </trkpt>
      <trkpt lat="38.5615270" lon="14.5835630">
        <ele>4.4600000</ele>
        <time>2013-06-12T17:03:22Z</time>
      </trkpt>
      <trkpt lat="38.5615270" lon="14.5835630">
        <ele>3.9800000</ele>
        <time>2013-06-12T17:03:44Z</time>
      </trkpt>
      <trkpt lat="38.5615230" lon="14.5835590">
        <ele>3.9800000</ele>
        <time>2013-06-12T17:04:02Z</time>
      </trkpt>
      <trkpt lat="38.5615230" lon="14.5835590">
        <ele>3.5000000</ele>
        <time>2013-06-12T17:04:20Z</time>
      </trkpt>
      <trkpt lat="38.5615230" lon="14.5835600">
        <ele>4.4600000</ele>
        <time>2013-06-12T17:04:40Z</time>
      </trkpt>
      <trkpt lat="38.5615460" lon="14.5835630">
        <ele>4.4600000</ele>
        <time>2013-06-12T17:05:02Z</time>
      </trkpt>
      <trkpt lat="38.5615500" lon="14.5835540">
        <ele>3.9800000</ele>
        <time>2013-06-12T17:05:23Z</time>
      </trkpt>
      <trkpt lat="38.5615500" lon="14.5835540">
        <ele>3.9800000</ele>
        <time>2013-06-12T17:05:43Z</time>
      </trkpt>
      <trkpt lat="38.5615500" lon="14.5835520">
        <ele>3.9800000</ele>
        <time>2013-06-12T17:06:04Z</time>
      </trkpt>
      <trkpt lat="38.5615500" lon="14.5835520">
        <ele>4.4600000</ele>
        <time>2013-06-12T17:06:25Z</time>
      </trkpt>
      <trkpt lat="38.5615500" lon="14.5835420">
        <ele>3.9800000</ele>
        <time>2013-06-12T17:06:49Z</time>
      </trkpt>
      <trkpt lat="38.5615500" lon="14.5835420">
        <ele>3.9800000</ele>
        <time>2013-06-12T17:07:11Z</time>
      </trkpt>
      <trkpt lat="38.5615650" lon="14.5835370">
        <ele>4.4600000</ele>
        <time>2013-06-12T17:07:33Z</time>
      </trkpt>
      <trkpt lat="38.5615650" lon="14.5835430">
        <ele>3.9800000</ele>
        <time>2013-06-12T17:07:56Z</time>
      </trkpt>
      <trkpt lat="38.5615650" lon="14.5835430">
        <ele>3.5000000</ele>
        <time>2013-06-12T17:08:18Z</time>
      </trkpt>
      <trkpt lat="38.5615650" lon="14.5835420">
        <ele>4.4600000</ele>
        <time>2013-06-12T17:08:40Z</time>
      </trkpt>
      <trkpt lat="38.5615650" lon="14.5835380">
        <ele>3.5000000</ele>
        <time>2013-06-12T17:08:59Z</time>
      </trkpt>
      <trkpt lat="38.5615650" lon="14.5835380">
        <ele>3.9800000</ele>
        <time>2013-06-12T17:09:17Z</time>
      </trkpt>
      <trkpt lat="38.5615540" lon="14.5835460">
        <ele>3.5000000</ele>
        <time>2013-06-12T17:09:38Z</time>
      </trkpt>
      <trkpt lat="38.5615540" lon="14.5835460">
        <ele>3.5000000</ele>
        <time>2013-06-12T17:09:58Z</time>
      </trkpt>
      <trkpt lat="38.5615540" lon="14.5835570">
        <ele>3.5000000</ele>
        <time>2013-06-12T17:10:19Z</time>
      </trkpt>
      <trkpt lat="38.5615540" lon="14.5835570">
        <ele>3.5000000</ele>
        <time>2013-06-12T17:10:39Z</time>
      </trkpt>
      <trkpt lat="38.5615540" lon="14.5835560">
        <ele>3.0200000</ele>
        <time>2013-06-12T17:11:01Z</time>
      </trkpt>
      <trkpt lat="38.5615540" lon="14.5835560">
        <ele>3.5000000</ele>
        <time>2013-06-12T17:11:21Z</time>
      </trkpt>
      <trkpt lat="38.5615500" lon="14.5835560">
        <ele>3.5000000</ele>
        <time>2013-06-12T17:11:40Z</time>
      </trkpt>
      <trkpt lat="38.5615460" lon="14.5835530">
        <ele>3.5000000</ele>
        <time>2013-06-12T17:12:02Z</time>
      </trkpt>
      <trkpt lat="38.5615460" lon="14.5835530">
        <ele>3.5000000</ele>
        <time>2013-06-12T17:12:24Z</time>
      </trkpt>
      <trkpt lat="38.5615540" lon="14.5835500">
        <ele>3.9800000</ele>
        <time>2013-06-12T17:12:46Z</time>
      </trkpt>
      <trkpt lat="38.5615580" lon="14.5835490">
        <ele>3.5000000</ele>
        <time>2013-06-12T17:13:05Z</time>
      </trkpt>
      <trkpt lat="38.5615580" lon="14.5835490">
        <ele>3.5000000</ele>
        <time>2013-06-12T17:13:26Z</time>
      </trkpt>
      <trkpt lat="38.5615620" lon="14.5835490">
        <ele>3.5000000</ele>
        <time>2013-06-12T17:13:49Z</time>
      </trkpt>
      <trkpt lat="38.5615620" lon="14.5835490">
        <ele>3.0200000</ele>
        <time>2013-06-12T17:14:10Z</time>
      </trkpt>
      <trkpt lat="38.5615430" lon="14.5835480">
        <ele>3.0200000</ele>
        <time>2013-06-12T17:14:30Z</time>
      </trkpt>
      <trkpt lat="38.5615270" lon="14.5835520">
        <ele>3.5000000</ele>
        <time>2013-06-12T17:14:53Z</time>
      </trkpt>
      <trkpt lat="38.5615390" lon="14.5835550">
        <ele>3.0200000</ele>
        <time>2013-06-12T17:15:12Z</time>
      </trkpt>
      <trkpt lat="38.5615430" lon="14.5835450">
        <ele>3.5000000</ele>
        <time>2013-06-12T17:15:33Z</time>
      </trkpt>
      <trkpt lat="38.5615390" lon="14.5835440">
        <ele>3.5000000</ele>
        <time>2013-06-12T17:15:57Z</time>
      </trkpt>
      <trkpt lat="38.5615350" lon="14.5835500">
        <ele>3.5000000</ele>
        <time>2013-06-12T17:16:20Z</time>
      </trkpt>
      <trkpt lat="38.5615390" lon="14.5835540">
        <ele>3.5000000</ele>
        <time>2013-06-12T17:16:41Z</time>
      </trkpt>
      <trkpt lat="38.5615390" lon="14.5835520">
        <ele>3.9800000</ele>
        <time>2013-06-12T17:17:02Z</time>
      </trkpt>
      <trkpt lat="38.5615390" lon="14.5835520">
        <ele>3.5000000</ele>
        <time>2013-06-12T17:17:21Z</time>
      </trkpt>
      <trkpt lat="38.5615390" lon="14.5835530">
        <ele>3.0200000</ele>
        <time>2013-06-12T17:17:40Z</time>
      </trkpt>
      <trkpt lat="38.5615390" lon="14.5835530">
        <ele>3.0200000</ele>
        <time>2013-06-12T17:18:05Z</time>
      </trkpt>
      <trkpt lat="38.5615350" lon="14.5835510">
        <ele>3.0200000</ele>
        <time>2013-06-12T17:18:28Z</time>
      </trkpt>
      <trkpt lat="38.5615540" lon="14.5835670">
        <ele>3.9800000</ele>
        <time>2013-06-12T17:18:51Z</time>
      </trkpt>
      <trkpt lat="38.5615650" lon="14.5835540">
        <ele>3.5000000</ele>
        <time>2013-06-12T17:19:08Z</time>
      </trkpt>
      <trkpt lat="38.5615650" lon="14.5835540">
        <ele>2.5400000</ele>
        <time>2013-06-12T17:19:31Z</time>
      </trkpt>
      <trkpt lat="38.5615650" lon="14.5835530">
        <ele>3.0200000</ele>
        <time>2013-06-12T17:19:57Z</time>
      </trkpt>
      <trkpt lat="38.5615650" lon="14.5835530">
        <ele>3.0200000</ele>
        <time>2013-06-12T17:20:17Z</time>
      </trkpt>
      <trkpt lat="38.5615650" lon="14.5835530">
        <ele>3.0200000</ele>
        <time>2013-06-12T17:20:37Z</time>
      </trkpt>
      <trkpt lat="38.5615650" lon="14.5835530">
        <ele>3.5000000</ele>
        <time>2013-06-12T17:20:58Z</time>
      </trkpt>
      <trkpt lat="38.5615650" lon="14.5835530">
        <ele>3.0200000</ele>
        <time>2013-06-12T17:21:19Z</time>
      </trkpt>
      <trkpt lat="38.5615620" lon="14.5835560">
        <ele>3.5000000</ele>
        <time>2013-06-12T17:21:43Z</time>
      </trkpt>
      <trkpt lat="38.5615620" lon="14.5835560">
        <ele>3.5000000</ele>
        <time>2013-06-12T17:22:05Z</time>
      </trkpt>
      <trkpt lat="38.5615580" lon="14.5835540">
        <ele>3.5000000</ele>
        <time>2013-06-12T17:22:25Z</time>
      </trkpt>
      <trkpt lat="38.5615500" lon="14.5835410">
        <ele>2.5400000</ele>
        <time>2013-06-12T17:22:47Z</time>
      </trkpt>
      <trkpt lat="38.5615500" lon="14.5835410">
        <ele>3.0200000</ele>
        <time>2013-06-12T17:23:12Z</time>
      </trkpt>
      <trkpt lat="38.5615500" lon="14.5835420">
        <ele>3.0200000</ele>
        <time>2013-06-12T17:23:34Z</time>
      </trkpt>
      <trkpt lat="38.5615500" lon="14.5835450">
        <ele>2.0600000</ele>
        <time>2013-06-12T17:23:56Z</time>
      </trkpt>
      <trkpt lat="38.5615390" lon="14.5835410">
        <ele>4.9400000</ele>
        <time>2013-06-12T17:24:15Z</time>
      </trkpt>
      <trkpt lat="38.5614740" lon="14.5835530">
        <ele>3.0200000</ele>
        <time>2013-06-12T17:24:39Z</time>
      </trkpt>
      <trkpt lat="38.5614890" lon="14.5835490">
        <ele>3.0200000</ele>
        <time>2013-06-12T17:25:04Z</time>
      </trkpt>
      <trkpt lat="38.5615010" lon="14.5835600">
        <ele>3.0200000</ele>
        <time>2013-06-12T17:25:26Z</time>
      </trkpt>
      <trkpt lat="38.5615010" lon="14.5835650">
        <ele>2.5400000</ele>
        <time>2013-06-12T17:25:46Z</time>
      </trkpt>
      <trkpt lat="38.5615010" lon="14.5835660">
        <ele>3.0200000</ele>
        <time>2013-06-12T17:26:08Z</time>
      </trkpt>
      <trkpt lat="38.5615010" lon="14.5835660">
        <ele>3.0200000</ele>
        <time>2013-06-12T17:26:34Z</time>
      </trkpt>
      <trkpt lat="38.5615010" lon="14.5835660">
        <ele>3.0200000</ele>
        <time>2013-06-12T17:26:57Z</time>
      </trkpt>
      <trkpt lat="38.5615200" lon="14.5835520">
        <ele>3.0200000</ele>
        <time>2013-06-12T17:27:17Z</time>
      </trkpt>
      <trkpt lat="38.5615200" lon="14.5835520">
        <ele>3.0200000</ele>
        <time>2013-06-12T17:27:42Z</time>
      </trkpt>
      <trkpt lat="38.5615120" lon="14.5835490">
        <ele>3.0200000</ele>
        <time>2013-06-12T17:28:02Z</time>
      </trkpt>
      <trkpt lat="38.5615350" lon="14.5835560">
        <ele>3.0200000</ele>
        <time>2013-06-12T17:28:28Z</time>
      </trkpt>
      <trkpt lat="38.5615460" lon="14.5835530">
        <ele>3.0200000</ele>
        <time>2013-06-12T17:28:50Z</time>
      </trkpt>
      <trkpt lat="38.5615310" lon="14.5835390">
        <ele>2.5400000</ele>
        <time>2013-06-12T17:29:14Z</time>
      </trkpt>
      <trkpt lat="38.5615270" lon="14.5835560">
        <ele>3.0200000</ele>
        <time>2013-06-12T17:29:34Z</time>
      </trkpt>
      <trkpt lat="38.5615460" lon="14.5835610">
        <ele>2.0600000</ele>
        <time>2013-06-12T17:29:55Z</time>
      </trkpt>
      <trkpt lat="38.5615460" lon="14.5835620">
        <ele>2.5400000</ele>
        <time>2013-06-12T17:30:19Z</time>
      </trkpt>
      <trkpt lat="38.5615460" lon="14.5835610">
        <ele>2.5400000</ele>
        <time>2013-06-12T17:30:45Z</time>
      </trkpt>
      <trkpt lat="38.5615460" lon="14.5835610">
        <ele>2.5400000</ele>
        <time>2013-06-12T17:31:08Z</time>
      </trkpt>
      <trkpt lat="38.5615460" lon="14.5835670">
        <ele>2.0600000</ele>
        <time>2013-06-12T17:31:29Z</time>
      </trkpt>
      <trkpt lat="38.5615540" lon="14.5835680">
        <ele>2.5400000</ele>
        <time>2013-06-12T17:31:50Z</time>
      </trkpt>
      <trkpt lat="38.5615540" lon="14.5835700">
        <ele>2.0600000</ele>
        <time>2013-06-12T17:32:13Z</time>
      </trkpt>
      <trkpt lat="38.5615390" lon="14.5835700">
        <ele>2.5400000</ele>
        <time>2013-06-12T17:32:32Z</time>
      </trkpt>
      <trkpt lat="38.5615390" lon="14.5835700">
        <ele>2.0600000</ele>
        <time>2013-06-12T17:32:55Z</time>
      </trkpt>
      <trkpt lat="38.5615430" lon="14.5835680">
        <ele>2.0600000</ele>
        <time>2013-06-12T17:33:17Z</time>
      </trkpt>
      <trkpt lat="38.5615390" lon="14.5835700">
        <ele>2.5400000</ele>
        <time>2013-06-12T17:33:42Z</time>
      </trkpt>
      <trkpt lat="38.5615310" lon="14.5835760">
        <ele>2.5400000</ele>
        <time>2013-06-12T17:34:04Z</time>
      </trkpt>
      <trkpt lat="38.5615230" lon="14.5835790">
        <ele>3.0200000</ele>
        <time>2013-06-12T17:34:25Z</time>
      </trkpt>
      <trkpt lat="38.5615230" lon="14.5835810">
        <ele>2.5400000</ele>
        <time>2013-06-12T17:34:48Z</time>
      </trkpt>
      <trkpt lat="38.5615350" lon="14.5835800">
        <ele>2.0600000</ele>
        <time>2013-06-12T17:35:09Z</time>
      </trkpt>
      <trkpt lat="38.5615350" lon="14.5835740">
        <ele>2.5400000</ele>
        <time>2013-06-12T17:35:28Z</time>
      </trkpt>
      <trkpt lat="38.5615230" lon="14.5835740">
        <ele>3.0200000</ele>
        <time>2013-06-12T17:35:49Z</time>
      </trkpt>
      <trkpt lat="38.5615120" lon="14.5835700">
        <ele>3.0200000</ele>
        <time>2013-06-12T17:36:09Z</time>
      </trkpt>
      <trkpt lat="38.5615120" lon="14.5835700">
        <ele>2.5400000</ele>
        <time>2013-06-12T17:36:28Z</time>
      </trkpt>
      <trkpt lat="38.5615120" lon="14.5835700">
        <ele>3.0200000</ele>
        <time>2013-06-12T17:36:49Z</time>
      </trkpt>
      <trkpt lat="38.5614660" lon="14.5835680">
        <ele>3.0200000</ele>
        <time>2013-06-12T17:37:09Z</time>
      </trkpt>
      <trkpt lat="38.5614660" lon="14.5835680">
        <ele>3.5000000</ele>
        <time>2013-06-12T17:37:31Z</time>
      </trkpt>
      <trkpt lat="38.5614740" lon="14.5835730">
        <ele>3.0200000</ele>
        <time>2013-06-12T17:37:50Z</time>
      </trkpt>
      <trkpt lat="38.5614970" lon="14.5835730">
        <ele>3.5000000</ele>
        <time>2013-06-12T17:38:11Z</time>
      </trkpt>
      <trkpt lat="38.5614890" lon="14.5835660">
        <ele>3.0200000</ele>
        <time>2013-06-12T17:38:32Z</time>
      </trkpt>
      <trkpt lat="38.5614850" lon="14.5835640">
        <ele>2.5400000</ele>
        <time>2013-06-12T17:38:48Z</time>
      </trkpt>
      <trkpt lat="38.5614850" lon="14.5835640">
        <ele>3.9800000</ele>
        <time>2013-06-12T17:39:12Z</time>
      </trkpt>
      <trkpt lat="38.5615160" lon="14.5835700">
        <ele>2.5400000</ele>
        <time>2013-06-12T17:39:32Z</time>
      </trkpt>
      <trkpt lat="38.5615160" lon="14.5835690">
        <ele>3.0200000</ele>
        <time>2013-06-12T17:39:58Z</time>
      </trkpt>
      <trkpt lat="38.5614700" lon="14.5835590">
        <ele>3.0200000</ele>
        <time>2013-06-12T17:40:20Z</time>
      </trkpt>
      <trkpt lat="38.5614700" lon="14.5835590">
        <ele>3.0200000</ele>
        <time>2013-06-12T17:40:39Z</time>
      </trkpt>
      <trkpt lat="38.5614700" lon="14.5835580">
        <ele>3.5000000</ele>
        <time>2013-06-12T17:41:00Z</time>
      </trkpt>
      <trkpt lat="38.5614700" lon="14.5835580">
        <ele>3.0200000</ele>
        <time>2013-06-12T17:41:19Z</time>
      </trkpt>
      <trkpt lat="38.5614700" lon="14.5835580">
        <ele>3.0200000</ele>
        <time>2013-06-12T17:41:37Z</time>
      </trkpt>
      <trkpt lat="38.5614740" lon="14.5835560">
        <ele>3.0200000</ele>
        <time>2013-06-12T17:41:54Z</time>
      </trkpt>
      <trkpt lat="38.5615650" lon="14.5835640">
        <ele>2.5400000</ele>
        <time>2013-06-12T17:42:14Z</time>
      </trkpt>
      <trkpt lat="38.5615310" lon="14.5835910">
        <ele>2.5400000</ele>
        <time>2013-06-12T17:42:37Z</time>
      </trkpt>
      <trkpt lat="38.5615200" lon="14.5835780">
        <ele>3.9800000</ele>
        <time>2013-06-12T17:42:54Z</time>
      </trkpt>
      <trkpt lat="38.5615010" lon="14.5835850">
        <ele>3.9800000</ele>
        <time>2013-06-12T17:43:16Z</time>
      </trkpt>
      <trkpt lat="38.5615390" lon="14.5835740">
        <ele>3.5000000</ele>
        <time>2013-06-12T17:43:37Z</time>
      </trkpt>
      <trkpt lat="38.5615270" lon="14.5835670">
        <ele>3.5000000</ele>
        <time>2013-06-12T17:43:54Z</time>
      </trkpt>
      <trkpt lat="38.5615120" lon="14.5835720">
        <ele>3.0200000</ele>
        <time>2013-06-12T17:44:18Z</time>
      </trkpt>
      <trkpt lat="38.5615120" lon="14.5835720">
        <ele>3.5000000</ele>
        <time>2013-06-12T17:44:40Z</time>
      </trkpt>
      <trkpt lat="38.5615160" lon="14.5835710">
        <ele>4.4600000</ele>
        <time>2013-06-12T17:45:01Z</time>
      </trkpt>
      <trkpt lat="38.5614850" lon="14.5835370">
        <ele>3.0200000</ele>
        <time>2013-06-12T17:45:27Z</time>
      </trkpt>
      <trkpt lat="38.5614850" lon="14.5835370">
        <ele>3.5000000</ele>
        <time>2013-06-12T17:45:46Z</time>
      </trkpt>
      <trkpt lat="38.5614850" lon="14.5835370">
        <ele>3.0200000</ele>
        <time>2013-06-12T17:46:10Z</time>
      </trkpt>
      <trkpt lat="38.5614850" lon="14.5835390">
        <ele>3.0200000</ele>
        <time>2013-06-12T17:46:34Z</time>
      </trkpt>
      <trkpt lat="38.5614850" lon="14.5835390">
        <ele>3.9800000</ele>
        <time>2013-06-12T17:46:54Z</time>
      </trkpt>
      <trkpt lat="38.5614850" lon="14.5835390">
        <ele>3.5000000</ele>
        <time>2013-06-12T17:47:13Z</time>
      </trkpt>
      <trkpt lat="38.5614890" lon="14.5835380">
        <ele>4.4600000</ele>
        <time>2013-06-12T17:47:38Z</time>
      </trkpt>
      <trkpt lat="38.5614930" lon="14.5835530">
        <ele>4.4600000</ele>
        <time>2013-06-12T17:48:01Z</time>
      </trkpt>
      <trkpt lat="38.5614850" lon="14.5835640">
        <ele>4.4600000</ele>
        <time>2013-06-12T17:48:23Z</time>
      </trkpt>
      <trkpt lat="38.5615040" lon="14.5835700">
        <ele>4.4600000</ele>
        <time>2013-06-12T17:48:40Z</time>
      </trkpt>
      <trkpt lat="38.5615040" lon="14.5835700">
        <ele>4.9400000</ele>
        <time>2013-06-12T17:49:00Z</time>
      </trkpt>
      <trkpt lat="38.5615040" lon="14.5835700">
        <ele>4.4600000</ele>
        <time>2013-06-12T17:49:16Z</time>
      </trkpt>
      <trkpt lat="38.5615080" lon="14.5835700">
        <ele>4.4600000</ele>
        <time>2013-06-12T17:49:35Z</time>
      </trkpt>
      <trkpt lat="38.5615080" lon="14.5835700">
        <ele>4.9400000</ele>
        <time>2013-06-12T17:49:53Z</time>
      </trkpt>
      <trkpt lat="38.5615230" lon="14.5835520">
        <ele>4.4600000</ele>
        <time>2013-06-12T17:50:14Z</time>
      </trkpt>
      <trkpt lat="38.5615230" lon="14.5835520">
        <ele>4.9400000</ele>
        <time>2013-06-12T17:50:35Z</time>
      </trkpt>
      <trkpt lat="38.5615270" lon="14.5835530">
        <ele>4.9400000</ele>
        <time>2013-06-12T17:50:58Z</time>
      </trkpt>
      <trkpt lat="38.5615270" lon="14.5835530">
        <ele>4.4600000</ele>
        <time>2013-06-12T17:51:20Z</time>
      </trkpt>
      <trkpt lat="38.5615230" lon="14.5835560">
        <ele>4.4600000</ele>
        <time>2013-06-12T17:51:43Z</time>
      </trkpt>
      <trkpt lat="38.5615230" lon="14.5835560">
        <ele>5.4200000</ele>
        <time>2013-06-12T17:52:05Z</time>
      </trkpt>
      <trkpt lat="38.5615270" lon="14.5835590">
        <ele>4.9400000</ele>
        <time>2013-06-12T17:52:30Z</time>
      </trkpt>
      <trkpt lat="38.5615270" lon="14.5835590">
        <ele>4.9400000</ele>
        <time>2013-06-12T17:52:53Z</time>
      </trkpt>
      <trkpt lat="38.5615230" lon="14.5835590">
        <ele>5.4200000</ele>
        <time>2013-06-12T17:53:15Z</time>
      </trkpt>
      <trkpt lat="38.5615080" lon="14.5835630">
        <ele>4.9400000</ele>
        <time>2013-06-12T17:53:35Z</time>
      </trkpt>
      <trkpt lat="38.5615080" lon="14.5835630">
        <ele>5.4200000</ele>
        <time>2013-06-12T17:53:58Z</time>
      </trkpt>
      <trkpt lat="38.5615080" lon="14.5835630">
        <ele>4.9400000</ele>
        <time>2013-06-12T17:54:05Z</time>
      </trkpt>
      <trkpt lat="38.5615080" lon="14.5835640">
        <ele>5.4200000</ele>
        <time>2013-06-12T17:54:26Z</time>
      </trkpt>
      <trkpt lat="38.5615080" lon="14.5835700">
        <ele>5.4200000</ele>
        <time>2013-06-12T17:54:42Z</time>
      </trkpt>
      <trkpt lat="38.5615080" lon="14.5835710">
        <ele>5.9100000</ele>
        <time>2013-06-12T17:55:05Z</time>
      </trkpt>
      <trkpt lat="38.5615080" lon="14.5835710">
        <ele>5.4200000</ele>
        <time>2013-06-12T17:55:25Z</time>
      </trkpt>
      <trkpt lat="38.5615080" lon="14.5835700">
        <ele>4.9400000</ele>
        <time>2013-06-12T17:55:45Z</time>
      </trkpt>
      <trkpt lat="38.5615080" lon="14.5835700">
        <ele>6.3900000</ele>
        <time>2013-06-12T17:56:06Z</time>
      </trkpt>
      <trkpt lat="38.5615080" lon="14.5835710">
        <ele>6.3900000</ele>
        <time>2013-06-12T17:56:27Z</time>
      </trkpt>
      <trkpt lat="38.5615040" lon="14.5835790">
        <ele>6.3900000</ele>
        <time>2013-06-12T17:56:49Z</time>
      </trkpt>
      <trkpt lat="38.5615200" lon="14.5835730">
        <ele>6.3900000</ele>
        <time>2013-06-12T17:57:08Z</time>
      </trkpt>
      <trkpt lat="38.5615200" lon="14.5835730">
        <ele>6.3900000</ele>
        <time>2013-06-12T17:57:33Z</time>
      </trkpt>
      <trkpt lat="38.5615200" lon="14.5835730">
        <ele>6.3900000</ele>
        <time>2013-06-12T17:57:51Z</time>
      </trkpt>
      <trkpt lat="38.5615160" lon="14.5835710">
        <ele>6.3900000</ele>
        <time>2013-06-12T17:58:15Z</time>
      </trkpt>
      <trkpt lat="38.5615120" lon="14.5835710">
        <ele>6.3900000</ele>
        <time>2013-06-12T17:58:34Z</time>
      </trkpt>
      <trkpt lat="38.5615120" lon="14.5835710">
        <ele>7.3500000</ele>
        <time>2013-06-12T17:58:54Z</time>
      </trkpt>
      <trkpt lat="38.5615160" lon="14.5835720">
        <ele>6.8700000</ele>
        <time>2013-06-12T17:59:16Z</time>
      </trkpt>
      <trkpt lat="38.5615160" lon="14.5835720">
        <ele>6.8700000</ele>
        <time>2013-06-12T17:59:36Z</time>
      </trkpt>
      <trkpt lat="38.5615160" lon="14.5835680">
        <ele>7.3500000</ele>
        <time>2013-06-12T17:59:55Z</time>
      </trkpt>
      <trkpt lat="38.5615160" lon="14.5835680">
        <ele>7.3500000</ele>
        <time>2013-06-12T18:00:20Z</time>
      </trkpt>
      <trkpt lat="38.5615160" lon="14.5835700">
        <ele>7.3500000</ele>
        <time>2013-06-12T18:00:42Z</time>
      </trkpt>
      <trkpt lat="38.5615270" lon="14.5835760">
        <ele>7.3500000</ele>
        <time>2013-06-12T18:00:58Z</time>
      </trkpt>
      <trkpt lat="38.5615270" lon="14.5835760">
        <ele>6.8700000</ele>
        <time>2013-06-12T18:01:22Z</time>
      </trkpt>
      <trkpt lat="38.5615270" lon="14.5835700">
        <ele>6.3900000</ele>
        <time>2013-06-12T18:01:44Z</time>
      </trkpt>
      <trkpt lat="38.5615230" lon="14.5835620">
        <ele>6.8700000</ele>
        <time>2013-06-12T18:02:07Z</time>
      </trkpt>
      <trkpt lat="38.5615230" lon="14.5835620">
        <ele>6.3900000</ele>
        <time>2013-06-12T18:02:34Z</time>
      </trkpt>
      <trkpt lat="38.5615230" lon="14.5835590">
        <ele>6.8700000</ele>
        <time>2013-06-12T18:02:55Z</time>
      </trkpt>
      <trkpt lat="38.5615230" lon="14.5835590">
        <ele>7.3500000</ele>
        <time>2013-06-12T18:03:18Z</time>
      </trkpt>
      <trkpt lat="38.5615200" lon="14.5835560">
        <ele>7.3500000</ele>
        <time>2013-06-12T18:03:40Z</time>
      </trkpt>
      <trkpt lat="38.5615200" lon="14.5835560">
        <ele>7.3500000</ele>
        <time>2013-06-12T18:04:04Z</time>
      </trkpt>
      <trkpt lat="38.5615230" lon="14.5835580">
        <ele>7.3500000</ele>
        <time>2013-06-12T18:04:24Z</time>
      </trkpt>
      <trkpt lat="38.5615230" lon="14.5835580">
        <ele>6.8700000</ele>
        <time>2013-06-12T18:04:46Z</time>
      </trkpt>
      <trkpt lat="38.5615270" lon="14.5835580">
        <ele>6.3900000</ele>
        <time>2013-06-12T18:05:09Z</time>
      </trkpt>
      <trkpt lat="38.5615230" lon="14.5835650">
        <ele>6.3900000</ele>
        <time>2013-06-12T18:05:31Z</time>
      </trkpt>
      <trkpt lat="38.5615270" lon="14.5835560">
        <ele>6.3900000</ele>
        <time>2013-06-12T18:05:49Z</time>
      </trkpt>
      <trkpt lat="38.5615270" lon="14.5835560">
        <ele>6.3900000</ele>
        <time>2013-06-12T18:06:06Z</time>
      </trkpt>
      <trkpt lat="38.5615310" lon="14.5835490">
        <ele>6.3900000</ele>
        <time>2013-06-12T18:06:28Z</time>
      </trkpt>
      <trkpt lat="38.5615310" lon="14.5835490">
        <ele>7.3500000</ele>
        <time>2013-06-12T18:06:50Z</time>
      </trkpt>
      <trkpt lat="38.5615200" lon="14.5835490">
        <ele>6.8700000</ele>
        <time>2013-06-12T18:07:14Z</time>
      </trkpt>
      <trkpt lat="38.5614970" lon="14.5835880">
        <ele>6.3900000</ele>
        <time>2013-06-12T18:07:36Z</time>
      </trkpt>
      <trkpt lat="38.5614970" lon="14.5835880">
        <ele>6.3900000</ele>
        <time>2013-06-12T18:07:57Z</time>
      </trkpt>
      <trkpt lat="38.5615040" lon="14.5835820">
        <ele>6.3900000</ele>
        <time>2013-06-12T18:08:17Z</time>
      </trkpt>
      <trkpt lat="38.5615040" lon="14.5835820">
        <ele>6.3900000</ele>
        <time>2013-06-12T18:08:40Z</time>
      </trkpt>
      <trkpt lat="38.5615080" lon="14.5835800">
        <ele>5.9100000</ele>
        <time>2013-06-12T18:09:03Z</time>
      </trkpt>
      <trkpt lat="38.5615080" lon="14.5835800">
        <ele>6.3900000</ele>
        <time>2013-06-12T18:09:31Z</time>
      </trkpt>
      <trkpt lat="38.5615040" lon="14.5835670">
        <ele>6.3900000</ele>
        <time>2013-06-12T18:09:47Z</time>
      </trkpt>
      <trkpt lat="38.5615120" lon="14.5835570">
        <ele>7.3500000</ele>
        <time>2013-06-12T18:10:08Z</time>
      </trkpt>
      <trkpt lat="38.5615690" lon="14.5835390">
        <ele>5.9100000</ele>
        <time>2013-06-12T18:10:30Z</time>
      </trkpt>
      <trkpt lat="38.5615690" lon="14.5835390">
        <ele>6.3900000</ele>
        <time>2013-06-12T18:10:52Z</time>
      </trkpt>
      <trkpt lat="38.5615840" lon="14.5835160">
        <ele>7.3500000</ele>
        <time>2013-06-12T18:11:13Z</time>
      </trkpt>
      <trkpt lat="38.5615810" lon="14.5834800">
        <ele>6.8700000</ele>
        <time>2013-06-12T18:11:36Z</time>
      </trkpt>
      <trkpt lat="38.5615810" lon="14.5834710">
        <ele>6.3900000</ele>
        <time>2013-06-12T18:12:01Z</time>
      </trkpt>
      <trkpt lat="38.5615810" lon="14.5834710">
        <ele>6.8700000</ele>
        <time>2013-06-12T18:12:28Z</time>
      </trkpt>
      <trkpt lat="38.5615920" lon="14.5834830">
        <ele>6.3900000</ele>
        <time>2013-06-12T18:12:49Z</time>
      </trkpt>
      <trkpt lat="38.5615920" lon="14.5834830">
        <ele>6.3900000</ele>
        <time>2013-06-12T18:13:10Z</time>
      </trkpt>
      <trkpt lat="38.5615920" lon="14.5834790">
        <ele>5.9100000</ele>
        <time>2013-06-12T18:13:35Z</time>
      </trkpt>
      <trkpt lat="38.5615880" lon="14.5834720">
        <ele>6.3900000</ele>
        <time>2013-06-12T18:13:58Z</time>
      </trkpt>
      <trkpt lat="38.5615880" lon="14.5834720">
        <ele>6.3900000</ele>
        <time>2013-06-12T18:14:23Z</time>
      </trkpt>
      <trkpt lat="38.5615880" lon="14.5834720">
        <ele>6.3900000</ele>
        <time>2013-06-12T18:14:53Z</time>
      </trkpt>
      <trkpt lat="38.5615880" lon="14.5834740">
        <ele>6.8700000</ele>
        <time>2013-06-12T18:15:19Z</time>
      </trkpt>
      <trkpt lat="38.5615880" lon="14.5834740">
        <ele>6.8700000</ele>
        <time>2013-06-12T18:15:36Z</time>
      </trkpt>
      <trkpt lat="38.5615880" lon="14.5834770">
        <ele>6.8700000</ele>
        <time>2013-06-12T18:15:56Z</time>
      </trkpt>
      <trkpt lat="38.5615880" lon="14.5834770">
        <ele>6.3900000</ele>
        <time>2013-06-12T18:16:20Z</time>
      </trkpt>
      <trkpt lat="38.5615840" lon="14.5834820">
        <ele>6.8700000</ele>
        <time>2013-06-12T18:16:46Z</time>
      </trkpt>
      <trkpt lat="38.5615810" lon="14.5834890">
        <ele>6.8700000</ele>
        <time>2013-06-12T18:17:11Z</time>
      </trkpt>
      <trkpt lat="38.5615810" lon="14.5834890">
        <ele>7.3500000</ele>
        <time>2013-06-12T18:17:32Z</time>
      </trkpt>
      <trkpt lat="38.5615810" lon="14.5834970">
        <ele>6.3900000</ele>
        <time>2013-06-12T18:17:52Z</time>
      </trkpt>
      <trkpt lat="38.5615810" lon="14.5834970">
        <ele>6.3900000</ele>
        <time>2013-06-12T18:18:16Z</time>
      </trkpt>
      <trkpt lat="38.5615730" lon="14.5835060">
        <ele>6.8700000</ele>
        <time>2013-06-12T18:18:42Z</time>
      </trkpt>
      <trkpt lat="38.5615730" lon="14.5835060">
        <ele>6.8700000</ele>
        <time>2013-06-12T18:18:43Z</time>
      </trkpt>
      <trkpt lat="38.5615620" lon="14.5835090">
        <ele>7.3500000</ele>
        <time>2013-06-12T18:19:04Z</time>
      </trkpt>
      <trkpt lat="38.5615620" lon="14.5835140">
        <ele>6.8700000</ele>
        <time>2013-06-12T18:19:28Z</time>
      </trkpt>
      <trkpt lat="38.5615620" lon="14.5835140">
        <ele>7.3500000</ele>
        <time>2013-06-12T18:19:47Z</time>
      </trkpt>
      <trkpt lat="38.5615580" lon="14.5835180">
        <ele>7.3500000</ele>
        <time>2013-06-12T18:20:07Z</time>
      </trkpt>
      <trkpt lat="38.5615580" lon="14.5835180">
        <ele>7.3500000</ele>
        <time>2013-06-12T18:20:30Z</time>
      </trkpt>
      <trkpt lat="38.5615540" lon="14.5835130">
        <ele>7.8300000</ele>
        <time>2013-06-12T18:20:50Z</time>
      </trkpt>
      <trkpt lat="38.5615350" lon="14.5835610">
        <ele>7.8300000</ele>
        <time>2013-06-12T18:21:15Z</time>
      </trkpt>
      <trkpt lat="38.5615270" lon="14.5835620">
        <ele>8.3100000</ele>
        <time>2013-06-12T18:21:37Z</time>
      </trkpt>
      <trkpt lat="38.5615270" lon="14.5835630">
        <ele>8.3100000</ele>
        <time>2013-06-12T18:22:01Z</time>
      </trkpt>
      <trkpt lat="38.5615500" lon="14.5835630">
        <ele>7.8300000</ele>
        <time>2013-06-12T18:22:22Z</time>
      </trkpt>
      <trkpt lat="38.5615540" lon="14.5835690">
        <ele>8.3100000</ele>
        <time>2013-06-12T18:22:43Z</time>
      </trkpt>
      <trkpt lat="38.5615500" lon="14.5835740">
        <ele>7.3500000</ele>
        <time>2013-06-12T18:23:04Z</time>
      </trkpt>
      <trkpt lat="38.5615460" lon="14.5835700">
        <ele>7.8300000</ele>
        <time>2013-06-12T18:23:22Z</time>
      </trkpt>
      <trkpt lat="38.5615230" lon="14.5835420">
        <ele>9.2700000</ele>
        <time>2013-06-12T18:23:41Z</time>
      </trkpt>
      <trkpt lat="38.5614890" lon="14.5835430">
        <ele>8.7900000</ele>
        <time>2013-06-12T18:24:04Z</time>
      </trkpt>
      <trkpt lat="38.5614700" lon="14.5835440">
        <ele>7.8300000</ele>
        <time>2013-06-12T18:24:23Z</time>
      </trkpt>
      <trkpt lat="38.5614700" lon="14.5835440">
        <ele>8.3100000</ele>
        <time>2013-06-12T18:24:45Z</time>
      </trkpt>
      <trkpt lat="38.5614660" lon="14.5835460">
        <ele>8.3100000</ele>
        <time>2013-06-12T18:25:06Z</time>
      </trkpt>
      <trkpt lat="38.5614660" lon="14.5835460">
        <ele>7.8300000</ele>
        <time>2013-06-12T18:25:28Z</time>
      </trkpt>
      <trkpt lat="38.5614700" lon="14.5835440">
        <ele>7.3500000</ele>
        <time>2013-06-12T18:25:45Z</time>
      </trkpt>
      <trkpt lat="38.5614700" lon="14.5835440">
        <ele>7.3500000</ele>
        <time>2013-06-12T18:26:04Z</time>
      </trkpt>
      <trkpt lat="38.5614740" lon="14.5835390">
        <ele>8.3100000</ele>
        <time>2013-06-12T18:26:28Z</time>
      </trkpt>
      <trkpt lat="38.5614780" lon="14.5835330">
        <ele>7.8300000</ele>
        <time>2013-06-12T18:26:50Z</time>
      </trkpt>
      <trkpt lat="38.5614780" lon="14.5835330">
        <ele>7.8300000</ele>
        <time>2013-06-12T18:27:11Z</time>
      </trkpt>
      <trkpt lat="38.5614780" lon="14.5835340">
        <ele>7.3500000</ele>
        <time>2013-06-12T18:27:33Z</time>
      </trkpt>
      <trkpt lat="38.5614780" lon="14.5835340">
        <ele>7.8300000</ele>
        <time>2013-06-12T18:27:52Z</time>
      </trkpt>
      <trkpt lat="38.5614850" lon="14.5835250">
        <ele>8.3100000</ele>
        <time>2013-06-12T18:28:09Z</time>
      </trkpt>
      <trkpt lat="38.5614850" lon="14.5835250">
        <ele>9.2700000</ele>
        <time>2013-06-12T18:28:31Z</time>
      </trkpt>
      <trkpt lat="38.5615160" lon="14.5835080">
        <ele>9.2700000</ele>
        <time>2013-06-12T18:28:49Z</time>
      </trkpt>
      <trkpt lat="38.5615390" lon="14.5835020">
        <ele>10.2300000</ele>
        <time>2013-06-12T18:29:09Z</time>
      </trkpt>
      <trkpt lat="38.5615460" lon="14.5835020">
        <ele>9.7500000</ele>
        <time>2013-06-12T18:29:37Z</time>
      </trkpt>
      <trkpt lat="38.5615310" lon="14.5834950">
        <ele>9.2700000</ele>
        <time>2013-06-12T18:30:02Z</time>
      </trkpt>
      <trkpt lat="38.5615230" lon="14.5835040">
        <ele>8.3100000</ele>
        <time>2013-06-12T18:30:29Z</time>
      </trkpt>
      <trkpt lat="38.5615120" lon="14.5835380">
        <ele>7.8300000</ele>
        <time>2013-06-12T18:30:49Z</time>
      </trkpt>
      <trkpt lat="38.5614970" lon="14.5835500">
        <ele>8.7900000</ele>
        <time>2013-06-12T18:31:07Z</time>
      </trkpt>
      <trkpt lat="38.5614930" lon="14.5835450">
        <ele>8.7900000</ele>
        <time>2013-06-12T18:31:27Z</time>
      </trkpt>
      <trkpt lat="38.5614930" lon="14.5835450">
        <ele>8.7900000</ele>
        <time>2013-06-12T18:31:53Z</time>
      </trkpt>
      <trkpt lat="38.5614930" lon="14.5835440">
        <ele>8.3100000</ele>
        <time>2013-06-12T18:32:16Z</time>
      </trkpt>
      <trkpt lat="38.5614930" lon="14.5835440">
        <ele>9.7500000</ele>
        <time>2013-06-12T18:32:38Z</time>
      </trkpt>
      <trkpt lat="38.5615040" lon="14.5835390">
        <ele>9.2700000</ele>
        <time>2013-06-12T18:33:00Z</time>
      </trkpt>
      <trkpt lat="38.5615040" lon="14.5835390">
        <ele>9.7500000</ele>
        <time>2013-06-12T18:33:22Z</time>
      </trkpt>
      <trkpt lat="38.5615080" lon="14.5835290">
        <ele>9.2700000</ele>
        <time>2013-06-12T18:33:46Z</time>
      </trkpt>
      <trkpt lat="38.5614970" lon="14.5835230">
        <ele>9.2700000</ele>
        <time>2013-06-12T18:34:07Z</time>
      </trkpt>
      <trkpt lat="38.5614970" lon="14.5835400">
        <ele>9.7500000</ele>
        <time>2013-06-12T18:34:30Z</time>
      </trkpt>
      <trkpt lat="38.5614890" lon="14.5835630">
        <ele>10.2300000</ele>
        <time>2013-06-12T18:34:56Z</time>
      </trkpt>
      <trkpt lat="38.5614890" lon="14.5835630">
        <ele>9.7500000</ele>
        <time>2013-06-12T18:35:15Z</time>
      </trkpt>
      <trkpt lat="38.5615010" lon="14.5835500">
        <ele>9.7500000</ele>
        <time>2013-06-12T18:35:37Z</time>
      </trkpt>
      <trkpt lat="38.5615040" lon="14.5835470">
        <ele>8.7900000</ele>
        <time>2013-06-12T18:35:56Z</time>
      </trkpt>
      <trkpt lat="38.5615040" lon="14.5835470">
        <ele>9.7500000</ele>
        <time>2013-06-12T18:36:17Z</time>
      </trkpt>
      <trkpt lat="38.5615040" lon="14.5835480">
        <ele>9.7500000</ele>
        <time>2013-06-12T18:36:41Z</time>
      </trkpt>
      <trkpt lat="38.5615080" lon="14.5835410">
        <ele>9.7500000</ele>
        <time>2013-06-12T18:37:05Z</time>
      </trkpt>
      <trkpt lat="38.5615080" lon="14.5835410">
        <ele>9.2700000</ele>
        <time>2013-06-12T18:37:27Z</time>
      </trkpt>
      <trkpt lat="38.5615120" lon="14.5835340">
        <ele>9.2700000</ele>
        <time>2013-06-12T18:37:51Z</time>
      </trkpt>
      <trkpt lat="38.5615120" lon="14.5835340">
        <ele>9.7500000</ele>
        <time>2013-06-12T18:38:11Z</time>
      </trkpt>
      <trkpt lat="38.5615080" lon="14.5835340">
        <ele>10.2300000</ele>
        <time>2013-06-12T18:38:30Z</time>
      </trkpt>
      <trkpt lat="38.5615080" lon="14.5835340">
        <ele>10.2300000</ele>
        <time>2013-06-12T18:38:52Z</time>
      </trkpt>
      <trkpt lat="38.5615080" lon="14.5835360">
        <ele>9.2700000</ele>
        <time>2013-06-12T18:39:11Z</time>
      </trkpt>
      <trkpt lat="38.5615080" lon="14.5835360">
        <ele>10.7100000</ele>
        <time>2013-06-12T18:39:31Z</time>
      </trkpt>
      <trkpt lat="38.5615160" lon="14.5835290">
        <ele>9.7500000</ele>
        <time>2013-06-12T18:39:50Z</time>
      </trkpt>
      <trkpt lat="38.5615160" lon="14.5835290">
        <ele>9.7500000</ele>
        <time>2013-06-12T18:40:14Z</time>
      </trkpt>
      <trkpt lat="38.5615120" lon="14.5835340">
        <ele>11.1900000</ele>
        <time>2013-06-12T18:40:38Z</time>
      </trkpt>
      <trkpt lat="38.5615350" lon="14.5835020">
        <ele>10.7100000</ele>
        <time>2013-06-12T18:40:58Z</time>
      </trkpt>
      <trkpt lat="38.5615350" lon="14.5835020">
        <ele>10.2300000</ele>
        <time>2013-06-12T18:41:22Z</time>
      </trkpt>
      <trkpt lat="38.5615430" lon="14.5835020">
        <ele>10.2300000</ele>
        <time>2013-06-12T18:41:45Z</time>
      </trkpt>
      <trkpt lat="38.5615430" lon="14.5835020">
        <ele>10.2300000</ele>
        <time>2013-06-12T18:42:06Z</time>
      </trkpt>
      <trkpt lat="38.5615460" lon="14.5835020">
        <ele>10.2300000</ele>
        <time>2013-06-12T18:42:28Z</time>
      </trkpt>
      <trkpt lat="38.5615460" lon="14.5835020">
        <ele>10.7100000</ele>
        <time>2013-06-12T18:42:50Z</time>
      </trkpt>
      <trkpt lat="38.5615460" lon="14.5835020">
        <ele>10.7100000</ele>
        <time>2013-06-12T18:43:13Z</time>
      </trkpt>
      <trkpt lat="38.5615500" lon="14.5835000">
        <ele>10.7100000</ele>
        <time>2013-06-12T18:43:36Z</time>
      </trkpt>
      <trkpt lat="38.5615500" lon="14.5835000">
        <ele>10.2300000</ele>
        <time>2013-06-12T18:43:57Z</time>
      </trkpt>
      <trkpt lat="38.5615460" lon="14.5834960">
        <ele>9.7500000</ele>
        <time>2013-06-12T18:44:20Z</time>
      </trkpt>
      <trkpt lat="38.5615460" lon="14.5834960">
        <ele>10.2300000</ele>
        <time>2013-06-12T18:44:42Z</time>
      </trkpt>
      <trkpt lat="38.5615650" lon="14.5834830">
        <ele>10.7100000</ele>
        <time>2013-06-12T18:45:04Z</time>
      </trkpt>
      <trkpt lat="38.5615650" lon="14.5834830">
        <ele>10.7100000</ele>
        <time>2013-06-12T18:45:21Z</time>
      </trkpt>
      <trkpt lat="38.5615650" lon="14.5834800">
        <ele>10.7100000</ele>
        <time>2013-06-12T18:45:44Z</time>
      </trkpt>
      <trkpt lat="38.5615620" lon="14.5834780">
        <ele>10.7100000</ele>
        <time>2013-06-12T18:46:06Z</time>
      </trkpt>
      <trkpt lat="38.5615620" lon="14.5834780">
        <ele>10.7100000</ele>
        <time>2013-06-12T18:46:29Z</time>
      </trkpt>
      <trkpt lat="38.5615620" lon="14.5834770">
        <ele>11.1900000</ele>
        <time>2013-06-12T18:46:54Z</time>
      </trkpt>
      <trkpt lat="38.5615620" lon="14.5834770">
        <ele>12.6300000</ele>
        <time>2013-06-12T18:47:11Z</time>
      </trkpt>
      <trkpt lat="38.5615650" lon="14.5834760">
        <ele>11.6700000</ele>
        <time>2013-06-12T18:47:34Z</time>
      </trkpt>
      <trkpt lat="38.5615650" lon="14.5834760">
        <ele>11.1900000</ele>
        <time>2013-06-12T18:48:01Z</time>
      </trkpt>
      <trkpt lat="38.5615650" lon="14.5834680">
        <ele>11.6700000</ele>
        <time>2013-06-12T18:48:22Z</time>
      </trkpt>
      <trkpt lat="38.5615580" lon="14.5834720">
        <ele>11.1900000</ele>
        <time>2013-06-12T18:48:49Z</time>
      </trkpt>
      <trkpt lat="38.5615580" lon="14.5834740">
        <ele>11.6700000</ele>
        <time>2013-06-12T18:49:09Z</time>
      </trkpt>
      <trkpt lat="38.5615580" lon="14.5834740">
        <ele>11.6700000</ele>
        <time>2013-06-12T18:49:35Z</time>
      </trkpt>
      <trkpt lat="38.5615540" lon="14.5834770">
        <ele>11.6700000</ele>
        <time>2013-06-12T18:50:00Z</time>
      </trkpt>
      <trkpt lat="38.5615540" lon="14.5834770">
        <ele>11.6700000</ele>
        <time>2013-06-12T18:50:24Z</time>
      </trkpt>
      <trkpt lat="38.5615580" lon="14.5834830">
        <ele>12.1500000</ele>
        <time>2013-06-12T18:50:46Z</time>
      </trkpt>
      <trkpt lat="38.5615580" lon="14.5834900">
        <ele>11.6700000</ele>
        <time>2013-06-12T18:51:13Z</time>
      </trkpt>
      <trkpt lat="38.5615580" lon="14.5834900">
        <ele>11.6700000</ele>
        <time>2013-06-12T18:51:38Z</time>
      </trkpt>
      <trkpt lat="38.5615580" lon="14.5834920">
        <ele>11.6700000</ele>
        <time>2013-06-12T18:51:57Z</time>
      </trkpt>
      <trkpt lat="38.5615580" lon="14.5834920">
        <ele>11.1900000</ele>
        <time>2013-06-12T18:52:20Z</time>
      </trkpt>
      <trkpt lat="38.5615620" lon="14.5834890">
        <ele>11.1900000</ele>
        <time>2013-06-12T18:52:42Z</time>
      </trkpt>
      <trkpt lat="38.5615580" lon="14.5834940">
        <ele>11.1900000</ele>
        <time>2013-06-12T18:53:07Z</time>
      </trkpt>
      <trkpt lat="38.5615580" lon="14.5834940">
        <ele>10.7100000</ele>
        <time>2013-06-12T18:53:29Z</time>
      </trkpt>
      <trkpt lat="38.5615650" lon="14.5834870">
        <ele>11.6700000</ele>
        <time>2013-06-12T18:53:50Z</time>
      </trkpt>
      <trkpt lat="38.5615770" lon="14.5834830">
        <ele>11.6700000</ele>
        <time>2013-06-12T18:54:09Z</time>
      </trkpt>
      <trkpt lat="38.5615770" lon="14.5834830">
        <ele>11.6700000</ele>
        <time>2013-06-12T18:54:36Z</time>
      </trkpt>
      <trkpt lat="38.5615810" lon="14.5834840">
        <ele>11.6700000</ele>
        <time>2013-06-12T18:55:02Z</time>
      </trkpt>
      <trkpt lat="38.5615810" lon="14.5834840">
        <ele>11.6700000</ele>
        <time>2013-06-12T18:55:26Z</time>
      </trkpt>
      <trkpt lat="38.5615730" lon="14.5834820">
        <ele>11.6700000</ele>
        <time>2013-06-12T18:55:47Z</time>
      </trkpt>
      <trkpt lat="38.5615690" lon="14.5834880">
        <ele>12.1500000</ele>
        <time>2013-06-12T18:56:07Z</time>
      </trkpt>
      <trkpt lat="38.5615690" lon="14.5834880">
        <ele>12.1500000</ele>
        <time>2013-06-12T18:56:27Z</time>
      </trkpt>
      <trkpt lat="38.5615690" lon="14.5834890">
        <ele>12.6300000</ele>
        <time>2013-06-12T18:56:47Z</time>
      </trkpt>
      <trkpt lat="38.5615690" lon="14.5834890">
        <ele>12.1500000</ele>
        <time>2013-06-12T18:57:07Z</time>
      </trkpt>
      <trkpt lat="38.5615690" lon="14.5834910">
        <ele>12.6300000</ele>
        <time>2013-06-12T18:57:30Z</time>
      </trkpt>
      <trkpt lat="38.5615690" lon="14.5834910">
        <ele>12.1500000</ele>
        <time>2013-06-12T18:57:53Z</time>
      </trkpt>
      <trkpt lat="38.5615690" lon="14.5834890">
        <ele>12.6300000</ele>
        <time>2013-06-12T18:58:15Z</time>
      </trkpt>
      <trkpt lat="38.5615690" lon="14.5834890">
        <ele>12.6300000</ele>
        <time>2013-06-12T18:58:37Z</time>
      </trkpt>
      <trkpt lat="38.5615730" lon="14.5834880">
        <ele>12.6300000</ele>
        <time>2013-06-12T18:58:58Z</time>
      </trkpt>
      <trkpt lat="38.5615730" lon="14.5834880">
        <ele>12.1500000</ele>
        <time>2013-06-12T18:59:22Z</time>
      </trkpt>
      <trkpt lat="38.5615730" lon="14.5834880">
        <ele>12.6300000</ele>
        <time>2013-06-12T18:59:45Z</time>
      </trkpt>
      <trkpt lat="38.5615690" lon="14.5834930">
        <ele>12.1500000</ele>
        <time>2013-06-12T19:00:11Z</time>
      </trkpt>
      <trkpt lat="38.5615620" lon="14.5834990">
        <ele>12.6300000</ele>
        <time>2013-06-12T19:00:31Z</time>
      </trkpt>
      <trkpt lat="38.5615620" lon="14.5834990">
        <ele>12.6300000</ele>
        <time>2013-06-12T19:00:52Z</time>
      </trkpt>
      <trkpt lat="38.5615620" lon="14.5834990">
        <ele>12.6300000</ele>
        <time>2013-06-12T19:01:13Z</time>
      </trkpt>
      <trkpt lat="38.5615620" lon="14.5834980">
        <ele>13.1200000</ele>
        <time>2013-06-12T19:01:33Z</time>
      </trkpt>
      <trkpt lat="38.5615620" lon="14.5834980">
        <ele>13.1200000</ele>
        <time>2013-06-12T19:01:55Z</time>
      </trkpt>
      <trkpt lat="38.5615620" lon="14.5835000">
        <ele>12.6300000</ele>
        <time>2013-06-12T19:02:19Z</time>
      </trkpt>
      <trkpt lat="38.5615620" lon="14.5835000">
        <ele>12.6300000</ele>
        <time>2013-06-12T19:02:51Z</time>
      </trkpt>
      <trkpt lat="38.5615620" lon="14.5835050">
        <ele>13.1200000</ele>
        <time>2013-06-12T19:03:14Z</time>
      </trkpt>
      <trkpt lat="38.5615620" lon="14.5835050">
        <ele>13.6000000</ele>
        <time>2013-06-12T19:03:34Z</time>
      </trkpt>
      <trkpt lat="38.5615500" lon="14.5835110">
        <ele>13.6000000</ele>
        <time>2013-06-12T19:03:53Z</time>
      </trkpt>
      <trkpt lat="38.5615500" lon="14.5835130">
        <ele>14.5600000</ele>
        <time>2013-06-12T19:04:11Z</time>
      </trkpt>
      <trkpt lat="38.5615390" lon="14.5835220">
        <ele>13.1200000</ele>
        <time>2013-06-12T19:04:35Z</time>
      </trkpt>
      <trkpt lat="38.5615390" lon="14.5835220">
        <ele>13.1200000</ele>
        <time>2013-06-12T19:05:02Z</time>
      </trkpt>
      <trkpt lat="38.5615350" lon="14.5835220">
        <ele>13.6000000</ele>
        <time>2013-06-12T19:05:28Z</time>
      </trkpt>
      <trkpt lat="38.5615350" lon="14.5835200">
        <ele>14.5600000</ele>
        <time>2013-06-12T19:05:50Z</time>
      </trkpt>
      <trkpt lat="38.5615350" lon="14.5835200">
        <ele>13.1200000</ele>
        <time>2013-06-12T19:06:12Z</time>
      </trkpt>
      <trkpt lat="38.5615310" lon="14.5835150">
        <ele>14.0800000</ele>
        <time>2013-06-12T19:06:34Z</time>
      </trkpt>
      <trkpt lat="38.5615310" lon="14.5835150">
        <ele>14.5600000</ele>
        <time>2013-06-12T19:06:58Z</time>
      </trkpt>
      <trkpt lat="38.5615310" lon="14.5835130">
        <ele>13.6000000</ele>
        <time>2013-06-12T19:07:22Z</time>
      </trkpt>
      <trkpt lat="38.5615230" lon="14.5835130">
        <ele>13.1200000</ele>
        <time>2013-06-12T19:07:45Z</time>
      </trkpt>
      <trkpt lat="38.5615230" lon="14.5835130">
        <ele>12.6300000</ele>
        <time>2013-06-12T19:08:06Z</time>
      </trkpt>
      <trkpt lat="38.5615230" lon="14.5835020">
        <ele>12.6300000</ele>
        <time>2013-06-12T19:08:28Z</time>
      </trkpt>
      <trkpt lat="38.5615230" lon="14.5835020">
        <ele>12.6300000</ele>
        <time>2013-06-12T19:08:50Z</time>
      </trkpt>
      <trkpt lat="38.5615200" lon="14.5834960">
        <ele>13.1200000</ele>
        <time>2013-06-12T19:09:10Z</time>
      </trkpt>
      <trkpt lat="38.5615200" lon="14.5834960">
        <ele>13.6000000</ele>
        <time>2013-06-12T19:09:29Z</time>
      </trkpt>
      <trkpt lat="38.5615200" lon="14.5834890">
        <ele>13.1200000</ele>
        <time>2013-06-12T19:09:44Z</time>
      </trkpt>
      <trkpt lat="38.5615200" lon="14.5834890">
        <ele>13.1200000</ele>
        <time>2013-06-12T19:10:00Z</time>
      </trkpt>
      <trkpt lat="38.5615200" lon="14.5834890">
        <ele>13.1200000</ele>
        <time>2013-06-12T19:10:17Z</time>
      </trkpt>
      <trkpt lat="38.5615230" lon="14.5834810">
        <ele>13.1200000</ele>
        <time>2013-06-12T19:10:38Z</time>
      </trkpt>
      <trkpt lat="38.5615230" lon="14.5834810">
        <ele>12.6300000</ele>
        <time>2013-06-12T19:10:54Z</time>
      </trkpt>
      <trkpt lat="38.5615230" lon="14.5834700">
        <ele>13.1200000</ele>
        <time>2013-06-12T19:11:10Z</time>
      </trkpt>
      <trkpt lat="38.5615230" lon="14.5834700">
        <ele>13.6000000</ele>
        <time>2013-06-12T19:11:20Z</time>
      </trkpt>
      <trkpt lat="38.5615040" lon="14.5834830">
        <ele>12.6300000</ele>
        <time>2013-06-12T19:11:36Z</time>
      </trkpt>
      <trkpt lat="38.5615040" lon="14.5834830">
        <ele>12.6300000</ele>
        <time>2013-06-12T19:11:56Z</time>
      </trkpt>
      <trkpt lat="38.5614970" lon="14.5834970">
        <ele>13.6000000</ele>
        <time>2013-06-12T19:12:14Z</time>
      </trkpt>
      <trkpt lat="38.5614970" lon="14.5834970">
        <ele>14.0800000</ele>
        <time>2013-06-12T19:12:36Z</time>
      </trkpt>
      <trkpt lat="38.5614890" lon="14.5835050">
        <ele>14.0800000</ele>
        <time>2013-06-12T19:12:56Z</time>
      </trkpt>
      <trkpt lat="38.5614890" lon="14.5835050">
        <ele>13.6000000</ele>
        <time>2013-06-12T19:13:17Z</time>
      </trkpt>
      <trkpt lat="38.5614740" lon="14.5835350">
        <ele>14.0800000</ele>
        <time>2013-06-12T19:13:35Z</time>
      </trkpt>
      <trkpt lat="38.5614740" lon="14.5835350">
        <ele>14.5600000</ele>
        <time>2013-06-12T19:13:54Z</time>
      </trkpt>
      <trkpt lat="38.5614810" lon="14.5835410">
        <ele>15.0400000</ele>
        <time>2013-06-12T19:14:14Z</time>
      </trkpt>
      <trkpt lat="38.5614810" lon="14.5835410">
        <ele>14.5600000</ele>
        <time>2013-06-12T19:14:38Z</time>
      </trkpt>
      <trkpt lat="38.5614810" lon="14.5835410">
        <ele>14.5600000</ele>
        <time>2013-06-12T19:14:51Z</time>
      </trkpt>
      <trkpt lat="38.5614700" lon="14.5835480">
        <ele>16.0000000</ele>
        <time>2013-06-12T19:15:09Z</time>
      </trkpt>
      <trkpt lat="38.5614850" lon="14.5835460">
        <ele>16.0000000</ele>
        <time>2013-06-12T19:15:31Z</time>
      </trkpt>
      <trkpt lat="38.5614890" lon="14.5835400">
        <ele>15.0400000</ele>
        <time>2013-06-12T19:15:51Z</time>
      </trkpt>
      <trkpt lat="38.5614890" lon="14.5835400">
        <ele>16.0000000</ele>
        <time>2013-06-12T19:16:15Z</time>
      </trkpt>
      <trkpt lat="38.5615040" lon="14.5835160">
        <ele>16.0000000</ele>
        <time>2013-06-12T19:16:38Z</time>
      </trkpt>
      <trkpt lat="38.5615040" lon="14.5835160">
        <ele>16.0000000</ele>
        <time>2013-06-12T19:17:02Z</time>
      </trkpt>
      <trkpt lat="38.5615120" lon="14.5835140">
        <ele>16.0000000</ele>
        <time>2013-06-12T19:17:28Z</time>
      </trkpt>
      <trkpt lat="38.5615120" lon="14.5835140">
        <ele>16.4800000</ele>
        <time>2013-06-12T19:17:49Z</time>
      </trkpt>
      <trkpt lat="38.5615230" lon="14.5835200">
        <ele>16.4800000</ele>
        <time>2013-06-12T19:18:15Z</time>
      </trkpt>
      <trkpt lat="38.5615230" lon="14.5835200">
        <ele>16.9600000</ele>
        <time>2013-06-12T19:18:36Z</time>
      </trkpt>
      <trkpt lat="38.5615270" lon="14.5835140">
        <ele>16.9600000</ele>
        <time>2013-06-12T19:18:54Z</time>
      </trkpt>
      <trkpt lat="38.5615350" lon="14.5835090">
        <ele>18.4000000</ele>
        <time>2013-06-12T19:19:05Z</time>
      </trkpt>
      <trkpt lat="38.5615810" lon="14.5835180">
        <ele>16.4800000</ele>
        <time>2013-06-12T19:19:21Z</time>
      </trkpt>
      <trkpt lat="38.5615690" lon="14.5835080">
        <ele>16.4800000</ele>
        <time>2013-06-12T19:19:44Z</time>
      </trkpt>
      <trkpt lat="38.5615460" lon="14.5834880">
        <ele>16.0000000</ele>
        <time>2013-06-12T19:20:04Z</time>
      </trkpt>
      <trkpt lat="38.5615460" lon="14.5834880">
        <ele>16.0000000</ele>
        <time>2013-06-12T19:20:24Z</time>
      </trkpt>
      <trkpt lat="38.5615460" lon="14.5834850">
        <ele>16.4800000</ele>
        <time>2013-06-12T19:20:45Z</time>
      </trkpt>
      <trkpt lat="38.5615460" lon="14.5834850">
        <ele>16.0000000</ele>
        <time>2013-06-12T19:21:02Z</time>
      </trkpt>
      <trkpt lat="38.5615920" lon="14.5834880">
        <ele>16.0000000</ele>
        <time>2013-06-12T19:21:20Z</time>
      </trkpt>
      <trkpt lat="38.5615960" lon="14.5834900">
        <ele>16.0000000</ele>
        <time>2013-06-12T19:21:37Z</time>
      </trkpt>
      <trkpt lat="38.5615960" lon="14.5834900">
        <ele>17.4400000</ele>
        <time>2013-06-12T19:21:57Z</time>
      </trkpt>
      <trkpt lat="38.5615920" lon="14.5834910">
        <ele>16.0000000</ele>
        <time>2013-06-12T19:22:19Z</time>
      </trkpt>
      <trkpt lat="38.5615920" lon="14.5834910">
        <ele>16.0000000</ele>
        <time>2013-06-12T19:22:23Z</time>
      </trkpt>
      <trkpt lat="38.5615810" lon="14.5834910">
        <ele>16.4800000</ele>
        <time>2013-06-12T19:22:49Z</time>
      </trkpt>
      <trkpt lat="38.5615040" lon="14.5835440">
        <ele>16.0000000</ele>
        <time>2013-06-12T19:23:12Z</time>
      </trkpt>
      <trkpt lat="38.5614970" lon="14.5835470">
        <ele>16.0000000</ele>
        <time>2013-06-12T19:23:34Z</time>
      </trkpt>
      <trkpt lat="38.5615010" lon="14.5835420">
        <ele>15.0400000</ele>
        <time>2013-06-12T19:23:56Z</time>
      </trkpt>
      <trkpt lat="38.5615010" lon="14.5835420">
        <ele>16.0000000</ele>
        <time>2013-06-12T19:24:15Z</time>
      </trkpt>
      <trkpt lat="38.5615040" lon="14.5835410">
        <ele>15.5200000</ele>
        <time>2013-06-12T19:24:34Z</time>
      </trkpt>
      <trkpt lat="38.5615040" lon="14.5835410">
        <ele>15.5200000</ele>
        <time>2013-06-12T19:24:54Z</time>
      </trkpt>
      <trkpt lat="38.5615040" lon="14.5835410">
        <ele>15.5200000</ele>
        <time>2013-06-12T19:25:13Z</time>
      </trkpt>
      <trkpt lat="38.5615010" lon="14.5835360">
        <ele>15.5200000</ele>
        <time>2013-06-12T19:25:35Z</time>
      </trkpt>
      <trkpt lat="38.5615010" lon="14.5835360">
        <ele>16.4800000</ele>
        <time>2013-06-12T19:25:57Z</time>
      </trkpt>
      <trkpt lat="38.5615010" lon="14.5835400">
        <ele>15.5200000</ele>
        <time>2013-06-12T19:26:21Z</time>
      </trkpt>
      <trkpt lat="38.5615010" lon="14.5835400">
        <ele>16.4800000</ele>
        <time>2013-06-12T19:26:40Z</time>
      </trkpt>
      <trkpt lat="38.5615010" lon="14.5835370">
        <ele>15.5200000</ele>
        <time>2013-06-12T19:26:59Z</time>
      </trkpt>
      <trkpt lat="38.5615010" lon="14.5835370">
        <ele>15.5200000</ele>
        <time>2013-06-12T19:27:22Z</time>
      </trkpt>
      <trkpt lat="38.5615040" lon="14.5835320">
        <ele>15.0400000</ele>
        <time>2013-06-12T19:27:45Z</time>
      </trkpt>
      <trkpt lat="38.5615040" lon="14.5835320">
        <ele>15.0400000</ele>
        <time>2013-06-12T19:28:08Z</time>
      </trkpt>
      <trkpt lat="38.5615040" lon="14.5835570">
        <ele>16.4800000</ele>
        <time>2013-06-12T19:28:28Z</time>
      </trkpt>
      <trkpt lat="38.5614700" lon="14.5835540">
        <ele>16.0000000</ele>
        <time>2013-06-12T19:28:50Z</time>
      </trkpt>
      <trkpt lat="38.5614700" lon="14.5835540">
        <ele>15.5200000</ele>
        <time>2013-06-12T19:29:09Z</time>
      </trkpt>
      <trkpt lat="38.5614740" lon="14.5835540">
        <ele>16.4800000</ele>
        <time>2013-06-12T19:29:27Z</time>
      </trkpt>
      <trkpt lat="38.5614740" lon="14.5835490">
        <ele>15.5200000</ele>
        <time>2013-06-12T19:29:46Z</time>
      </trkpt>
      <trkpt lat="38.5614740" lon="14.5835490">
        <ele>16.4800000</ele>
        <time>2013-06-12T19:29:53Z</time>
      </trkpt>
      <trkpt lat="38.5615040" lon="14.5835530">
        <ele>16.4800000</ele>
        <time>2013-06-12T19:30:13Z</time>
      </trkpt>
      <trkpt lat="38.5615230" lon="14.5835290">
        <ele>15.5200000</ele>
        <time>2013-06-12T19:30:31Z</time>
      </trkpt>
      <trkpt lat="38.5615430" lon="14.5835010">
        <ele>16.4800000</ele>
        <time>2013-06-12T19:30:50Z</time>
      </trkpt>
      <trkpt lat="38.5615430" lon="14.5835010">
        <ele>16.0000000</ele>
        <time>2013-06-12T19:31:09Z</time>
      </trkpt>
      <trkpt lat="38.5615430" lon="14.5834990">
        <ele>17.4400000</ele>
        <time>2013-06-12T19:31:30Z</time>
      </trkpt>
      <trkpt lat="38.5615880" lon="14.5834890">
        <ele>16.4800000</ele>
        <time>2013-06-12T19:31:48Z</time>
      </trkpt>
      <trkpt lat="38.5616230" lon="14.5835130">
        <ele>16.0000000</ele>
        <time>2013-06-12T19:32:13Z</time>
      </trkpt>
      <trkpt lat="38.5616230" lon="14.5835130">
        <ele>16.0000000</ele>
        <time>2013-06-12T19:32:34Z</time>
      </trkpt>
      <trkpt lat="38.5616190" lon="14.5835130">
        <ele>15.5200000</ele>
        <time>2013-06-12T19:33:00Z</time>
      </trkpt>
      <trkpt lat="38.5616150" lon="14.5835110">
        <ele>15.5200000</ele>
        <time>2013-06-12T19:33:20Z</time>
      </trkpt>
      <trkpt lat="38.5616150" lon="14.5835110">
        <ele>15.5200000</ele>
        <time>2013-06-12T19:33:41Z</time>
      </trkpt>
      <trkpt lat="38.5616150" lon="14.5835100">
        <ele>16.4800000</ele>
        <time>2013-06-12T19:34:01Z</time>
      </trkpt>
      <trkpt lat="38.5616070" lon="14.5835120">
        <ele>16.0000000</ele>
        <time>2013-06-12T19:34:20Z</time>
      </trkpt>
      <trkpt lat="38.5616040" lon="14.5835250">
        <ele>15.5200000</ele>
        <time>2013-06-12T19:34:37Z</time>
      </trkpt>
      <trkpt lat="38.5615920" lon="14.5835280">
        <ele>16.0000000</ele>
        <time>2013-06-12T19:34:52Z</time>
      </trkpt>
      <trkpt lat="38.5615960" lon="14.5835280">
        <ele>17.4400000</ele>
        <time>2013-06-12T19:35:10Z</time>
      </trkpt>
      <trkpt lat="38.5615960" lon="14.5835280">
        <ele>16.9600000</ele>
        <time>2013-06-12T19:35:15Z</time>
      </trkpt>
      <trkpt lat="38.5616040" lon="14.5835360">
        <ele>16.0000000</ele>
        <time>2013-06-12T19:35:30Z</time>
      </trkpt>
      <trkpt lat="38.5616040" lon="14.5835340">
        <ele>18.8800000</ele>
        <time>2013-06-12T19:35:49Z</time>
      </trkpt>
      <trkpt lat="38.5616040" lon="14.5835340">
        <ele>16.9600000</ele>
        <time>2013-06-12T19:36:12Z</time>
      </trkpt>
      <trkpt lat="38.5616000" lon="14.5835330">
        <ele>17.4400000</ele>
        <time>2013-06-12T19:36:36Z</time>
      </trkpt>
      <trkpt lat="38.5616040" lon="14.5835390">
        <ele>16.9600000</ele>
        <time>2013-06-12T19:37:02Z</time>
      </trkpt>
      <trkpt lat="38.5616040" lon="14.5835360">
        <ele>16.4800000</ele>
        <time>2013-06-12T19:37:21Z</time>
      </trkpt>
      <trkpt lat="38.5616040" lon="14.5835360">
        <ele>18.8800000</ele>
        <time>2013-06-12T19:37:42Z</time>
      </trkpt>
      <trkpt lat="38.5616260" lon="14.5835000">
        <ele>16.9600000</ele>
        <time>2013-06-12T19:37:57Z</time>
      </trkpt>
      <trkpt lat="38.5616300" lon="14.5835110">
        <ele>16.9600000</ele>
        <time>2013-06-12T19:38:18Z</time>
      </trkpt>
      <trkpt lat="38.5616260" lon="14.5835180">
        <ele>16.0000000</ele>
        <time>2013-06-12T19:38:43Z</time>
      </trkpt>
      <trkpt lat="38.5616260" lon="14.5835180">
        <ele>16.9600000</ele>
        <time>2013-06-12T19:39:06Z</time>
      </trkpt>
      <trkpt lat="38.5616230" lon="14.5835180">
        <ele>15.5200000</ele>
        <time>2013-06-12T19:39:29Z</time>
      </trkpt>
      <trkpt lat="38.5616190" lon="14.5835170">
        <ele>16.0000000</ele>
        <time>2013-06-12T19:39:54Z</time>
      </trkpt>
      <trkpt lat="38.5616110" lon="14.5835120">
        <ele>16.4800000</ele>
        <time>2013-06-12T19:40:09Z</time>
      </trkpt>
      <trkpt lat="38.5616040" lon="14.5835130">
        <ele>16.4800000</ele>
        <time>2013-06-12T19:40:25Z</time>
      </trkpt>
      <trkpt lat="38.5616040" lon="14.5835210">
        <ele>17.4400000</ele>
        <time>2013-06-12T19:40:44Z</time>
      </trkpt>
      <trkpt lat="38.5616040" lon="14.5835210">
        <ele>16.9600000</ele>
        <time>2013-06-12T19:41:10Z</time>
      </trkpt>
      <trkpt lat="38.5616040" lon="14.5835220">
        <ele>16.9600000</ele>
        <time>2013-06-12T19:41:34Z</time>
      </trkpt>
      <trkpt lat="38.5616040" lon="14.5835220">
        <ele>16.4800000</ele>
        <time>2013-06-12T19:41:59Z</time>
      </trkpt>
      <trkpt lat="38.5616040" lon="14.5835270">
        <ele>16.9600000</ele>
        <time>2013-06-12T19:42:20Z</time>
      </trkpt>
      <trkpt lat="38.5616040" lon="14.5835270">
        <ele>16.4800000</ele>
        <time>2013-06-12T19:42:41Z</time>
      </trkpt>
      <trkpt lat="38.5616000" lon="14.5835250">
        <ele>17.4400000</ele>
        <time>2013-06-12T19:43:03Z</time>
      </trkpt>
      <trkpt lat="38.5616000" lon="14.5835180">
        <ele>16.4800000</ele>
        <time>2013-06-12T19:43:24Z</time>
      </trkpt>
      <trkpt lat="38.5616000" lon="14.5835180">
        <ele>16.9600000</ele>
        <time>2013-06-12T19:43:41Z</time>
      </trkpt>
      <trkpt lat="38.5616000" lon="14.5835190">
        <ele>17.9200000</ele>
        <time>2013-06-12T19:44:03Z</time>
      </trkpt>
      <trkpt lat="38.5616000" lon="14.5835190">
        <ele>17.4400000</ele>
        <time>2013-06-12T19:44:21Z</time>
      </trkpt>
      <trkpt lat="38.5615960" lon="14.5835360">
        <ele>16.9600000</ele>
        <time>2013-06-12T19:44:46Z</time>
      </trkpt>
      <trkpt lat="38.5615810" lon="14.5835440">
        <ele>16.4800000</ele>
        <time>2013-06-12T19:45:04Z</time>
      </trkpt>
      <trkpt lat="38.5615810" lon="14.5835440">
        <ele>16.9600000</ele>
        <time>2013-06-12T19:45:20Z</time>
      </trkpt>
      <trkpt lat="38.5615810" lon="14.5835320">
        <ele>16.4800000</ele>
        <time>2013-06-12T19:45:37Z</time>
      </trkpt>
      <trkpt lat="38.5615690" lon="14.5835360">
        <ele>17.4400000</ele>
        <time>2013-06-12T19:45:50Z</time>
      </trkpt>
      <trkpt lat="38.5615690" lon="14.5835360">
        <ele>16.9600000</ele>
        <time>2013-06-12T19:46:08Z</time>
      </trkpt>
      <trkpt lat="38.5615650" lon="14.5835410">
        <ele>16.4800000</ele>
        <time>2013-06-12T19:46:24Z</time>
      </trkpt>
      <trkpt lat="38.5615620" lon="14.5835430">
        <ele>17.4400000</ele>
        <time>2013-06-12T19:46:39Z</time>
      </trkpt>
      <trkpt lat="38.5615620" lon="14.5835340">
        <ele>17.4400000</ele>
        <time>2013-06-12T19:46:56Z</time>
      </trkpt>
      <trkpt lat="38.5615690" lon="14.5835350">
        <ele>16.9600000</ele>
        <time>2013-06-12T19:47:13Z</time>
      </trkpt>
      <trkpt lat="38.5615810" lon="14.5835330">
        <ele>17.4400000</ele>
        <time>2013-06-12T19:47:29Z</time>
      </trkpt>
      <trkpt lat="38.5615810" lon="14.5835330">
        <ele>17.4400000</ele>
        <time>2013-06-12T19:47:47Z</time>
      </trkpt>
      <trkpt lat="38.5615810" lon="14.5835320">
        <ele>16.9600000</ele>
        <time>2013-06-12T19:48:10Z</time>
      </trkpt>
      <trkpt lat="38.5615810" lon="14.5835320">
        <ele>16.4800000</ele>
        <time>2013-06-12T19:48:32Z</time>
      </trkpt>
      <trkpt lat="38.5615770" lon="14.5835330">
        <ele>16.4800000</ele>
        <time>2013-06-12T19:48:58Z</time>
      </trkpt>
      <trkpt lat="38.5615770" lon="14.5835330">
        <ele>16.9600000</ele>
        <time>2013-06-12T19:49:24Z</time>
      </trkpt>
      <trkpt lat="38.5615770" lon="14.5835270">
        <ele>17.4400000</ele>
        <time>2013-06-12T19:49:45Z</time>
      </trkpt>
      <trkpt lat="38.5615770" lon="14.5835270">
        <ele>17.4400000</ele>
        <time>2013-06-12T19:50:01Z</time>
      </trkpt>
      <trkpt lat="38.5615810" lon="14.5835250">
        <ele>17.4400000</ele>
        <time>2013-06-12T19:50:19Z</time>
      </trkpt>
      <trkpt lat="38.5615810" lon="14.5835250">
        <ele>17.9200000</ele>
        <time>2013-06-12T19:50:42Z</time>
      </trkpt>
      <trkpt lat="38.5615810" lon="14.5835280">
        <ele>17.9200000</ele>
        <time>2013-06-12T19:51:07Z</time>
      </trkpt>
      <trkpt lat="38.5615770" lon="14.5835290">
        <ele>16.9600000</ele>
        <time>2013-06-12T19:51:24Z</time>
      </trkpt>
      <trkpt lat="38.5615770" lon="14.5835290">
        <ele>16.9600000</ele>
        <time>2013-06-12T19:51:42Z</time>
      </trkpt>
      <trkpt lat="38.5615840" lon="14.5835340">
        <ele>16.9600000</ele>
        <time>2013-06-12T19:51:58Z</time>
      </trkpt>
      <trkpt lat="38.5615810" lon="14.5835330">
        <ele>16.0000000</ele>
        <time>2013-06-12T19:52:13Z</time>
      </trkpt>
      <trkpt lat="38.5615810" lon="14.5835330">
        <ele>16.4800000</ele>
        <time>2013-06-12T19:52:32Z</time>
      </trkpt>
      <trkpt lat="38.5615810" lon="14.5835340">
        <ele>17.4400000</ele>
        <time>2013-06-12T19:52:51Z</time>
      </trkpt>
      <trkpt lat="38.5615810" lon="14.5835340">
        <ele>16.9600000</ele>
        <time>2013-06-12T19:53:11Z</time>
      </trkpt>
      <trkpt lat="38.5615730" lon="14.5835420">
        <ele>16.9600000</ele>
        <time>2013-06-12T19:53:30Z</time>
      </trkpt>
      <trkpt lat="38.5615730" lon="14.5835420">
        <ele>16.9600000</ele>
        <time>2013-06-12T19:53:51Z</time>
      </trkpt>
      <trkpt lat="38.5615690" lon="14.5835350">
        <ele>16.4800000</ele>
        <time>2013-06-12T19:54:07Z</time>
      </trkpt>
      <trkpt lat="38.5615650" lon="14.5835370">
        <ele>16.4800000</ele>
        <time>2013-06-12T19:54:23Z</time>
      </trkpt>
      <trkpt lat="38.5615650" lon="14.5835370">
        <ele>16.4800000</ele>
        <time>2013-06-12T19:54:40Z</time>
      </trkpt>
      <trkpt lat="38.5615690" lon="14.5835330">
        <ele>16.4800000</ele>
        <time>2013-06-12T19:54:57Z</time>
      </trkpt>
      <trkpt lat="38.5615690" lon="14.5835280">
        <ele>16.9600000</ele>
        <time>2013-06-12T19:55:16Z</time>
      </trkpt>
      <trkpt lat="38.5615690" lon="14.5835280">
        <ele>16.0000000</ele>
        <time>2013-06-12T19:55:32Z</time>
      </trkpt>
      <trkpt lat="38.5615690" lon="14.5835280">
        <ele>16.4800000</ele>
        <time>2013-06-12T19:55:50Z</time>
      </trkpt>
      <trkpt lat="38.5615690" lon="14.5835270">
        <ele>16.9600000</ele>
        <time>2013-06-12T19:56:10Z</time>
      </trkpt>
      <trkpt lat="38.5615690" lon="14.5835270">
        <ele>16.0000000</ele>
        <time>2013-06-12T19:56:31Z</time>
      </trkpt>
      <trkpt lat="38.5615690" lon="14.5835260">
        <ele>16.0000000</ele>
        <time>2013-06-12T19:56:48Z</time>
      </trkpt>
      <trkpt lat="38.5615690" lon="14.5835260">
        <ele>16.4800000</ele>
        <time>2013-06-12T19:57:09Z</time>
      </trkpt>
      <trkpt lat="38.5615690" lon="14.5835260">
        <ele>16.4800000</ele>
        <time>2013-06-12T19:57:12Z</time>
      </trkpt>
      <trkpt lat="38.5615770" lon="14.5835020">
        <ele>16.4800000</ele>
        <time>2013-06-12T19:57:30Z</time>
      </trkpt>
      <trkpt lat="38.5615920" lon="14.5834830">
        <ele>15.5200000</ele>
        <time>2013-06-12T19:57:47Z</time>
      </trkpt>
      <trkpt lat="38.5615920" lon="14.5834830">
        <ele>16.0000000</ele>
        <time>2013-06-12T19:58:12Z</time>
      </trkpt>
      <trkpt lat="38.5615960" lon="14.5834830">
        <ele>16.4800000</ele>
        <time>2013-06-12T19:58:39Z</time>
      </trkpt>
      <trkpt lat="38.5615960" lon="14.5834840">
        <ele>16.4800000</ele>
        <time>2013-06-12T19:59:03Z</time>
      </trkpt>
      <trkpt lat="38.5615960" lon="14.5834840">
        <ele>16.9600000</ele>
        <time>2013-06-12T19:59:24Z</time>
      </trkpt>
      <trkpt lat="38.5615880" lon="14.5834880">
        <ele>16.9600000</ele>
        <time>2013-06-12T19:59:48Z</time>
      </trkpt>
      <trkpt lat="38.5615810" lon="14.5835200">
        <ele>16.4800000</ele>
        <time>2013-06-12T20:00:10Z</time>
      </trkpt>
      <trkpt lat="38.5615810" lon="14.5835200">
        <ele>16.0000000</ele>
        <time>2013-06-12T20:00:31Z</time>
      </trkpt>
      <trkpt lat="38.5615620" lon="14.5835230">
        <ele>16.0000000</ele>
        <time>2013-06-12T20:00:47Z</time>
      </trkpt>
      <trkpt lat="38.5615620" lon="14.5835290">
        <ele>16.4800000</ele>
        <time>2013-06-12T20:01:08Z</time>
      </trkpt>
      <trkpt lat="38.5615460" lon="14.5835290">
        <ele>16.9600000</ele>
        <time>2013-06-12T20:01:24Z</time>
      </trkpt>
      <trkpt lat="38.5615460" lon="14.5835290">
        <ele>16.9600000</ele>
        <time>2013-06-12T20:01:43Z</time>
      </trkpt>
      <trkpt lat="38.5615460" lon="14.5835340">
        <ele>16.4800000</ele>
        <time>2013-06-12T20:02:05Z</time>
      </trkpt>
      <trkpt lat="38.5615460" lon="14.5835340">
        <ele>16.0000000</ele>
        <time>2013-06-12T20:02:24Z</time>
      </trkpt>
      <trkpt lat="38.5615430" lon="14.5835290">
        <ele>16.4800000</ele>
        <time>2013-06-12T20:02:41Z</time>
      </trkpt>
      <trkpt lat="38.5615270" lon="14.5835340">
        <ele>16.0000000</ele>
        <time>2013-06-12T20:03:00Z</time>
      </trkpt>
      <trkpt lat="38.5615200" lon="14.5835320">
        <ele>16.4800000</ele>
        <time>2013-06-12T20:03:19Z</time>
      </trkpt>
      <trkpt lat="38.5615200" lon="14.5835400">
        <ele>16.4800000</ele>
        <time>2013-06-12T20:03:39Z</time>
      </trkpt>
      <trkpt lat="38.5615200" lon="14.5835400">
        <ele>16.0000000</ele>
        <time>2013-06-12T20:03:56Z</time>
      </trkpt>
      <trkpt lat="38.5615230" lon="14.5835470">
        <ele>16.0000000</ele>
        <time>2013-06-12T20:04:12Z</time>
      </trkpt>
      <trkpt lat="38.5615230" lon="14.5835470">
        <ele>16.4800000</ele>
        <time>2013-06-12T20:04:33Z</time>
      </trkpt>
      <trkpt lat="38.5615270" lon="14.5835450">
        <ele>16.4800000</ele>
        <time>2013-06-12T20:04:53Z</time>
      </trkpt>
      <trkpt lat="38.5615270" lon="14.5835490">
        <ele>16.4800000</ele>
        <time>2013-06-12T20:05:13Z</time>
      </trkpt>
      <trkpt lat="38.5615310" lon="14.5835640">
        <ele>16.4800000</ele>
        <time>2013-06-12T20:05:32Z</time>
      </trkpt>
      <trkpt lat="38.5615310" lon="14.5835690">
        <ele>16.4800000</ele>
        <time>2013-06-12T20:05:50Z</time>
      </trkpt>
      <trkpt lat="38.5615310" lon="14.5835690">
        <ele>16.4800000</ele>
        <time>2013-06-12T20:06:10Z</time>
      </trkpt>
      <trkpt lat="38.5615230" lon="14.5835690">
        <ele>16.4800000</ele>
        <time>2013-06-12T20:06:29Z</time>
      </trkpt>
      <trkpt lat="38.5615230" lon="14.5835690">
        <ele>16.0000000</ele>
        <time>2013-06-12T20:06:47Z</time>
      </trkpt>
      <trkpt lat="38.5615230" lon="14.5835690">
        <ele>16.4800000</ele>
        <time>2013-06-12T20:07:06Z</time>
      </trkpt>
      <trkpt lat="38.5615230" lon="14.5835690">
        <ele>16.0000000</ele>
        <time>2013-06-12T20:07:24Z</time>
      </trkpt>
      <trkpt lat="38.5615310" lon="14.5835530">
        <ele>16.4800000</ele>
        <time>2013-06-12T20:07:41Z</time>
      </trkpt>
      <trkpt lat="38.5615350" lon="14.5835470">
        <ele>16.4800000</ele>
        <time>2013-06-12T20:07:55Z</time>
      </trkpt>
      <trkpt lat="38.5615350" lon="14.5835470">
        <ele>16.4800000</ele>
        <time>2013-06-12T20:08:13Z</time>
      </trkpt>
      <trkpt lat="38.5615390" lon="14.5835430">
        <ele>16.0000000</ele>
        <time>2013-06-12T20:08:32Z</time>
      </trkpt>
      <trkpt lat="38.5615390" lon="14.5835320">
        <ele>15.5200000</ele>
        <time>2013-06-12T20:08:51Z</time>
      </trkpt>
      <trkpt lat="38.5615390" lon="14.5835320">
        <ele>15.5200000</ele>
        <time>2013-06-12T20:09:12Z</time>
      </trkpt>
      <trkpt lat="38.5615350" lon="14.5835260">
        <ele>16.0000000</ele>
        <time>2013-06-12T20:09:32Z</time>
      </trkpt>
      <trkpt lat="38.5615350" lon="14.5835260">
        <ele>16.4800000</ele>
        <time>2013-06-12T20:09:53Z</time>
      </trkpt>
      <trkpt lat="38.5615390" lon="14.5835270">
        <ele>16.4800000</ele>
        <time>2013-06-12T20:10:16Z</time>
      </trkpt>
      <trkpt lat="38.5615390" lon="14.5835270">
        <ele>15.5200000</ele>
        <time>2013-06-12T20:10:32Z</time>
      </trkpt>
      <trkpt lat="38.5615430" lon="14.5835270">
        <ele>15.5200000</ele>
        <time>2013-06-12T20:10:49Z</time>
      </trkpt>
      <trkpt lat="38.5615390" lon="14.5835270">
        <ele>16.0000000</ele>
        <time>2013-06-12T20:11:06Z</time>
      </trkpt>
      <trkpt lat="38.5615390" lon="14.5835250">
        <ele>16.0000000</ele>
        <time>2013-06-12T20:11:25Z</time>
      </trkpt>
      <trkpt lat="38.5615390" lon="14.5835250">
        <ele>16.0000000</ele>
        <time>2013-06-12T20:11:46Z</time>
      </trkpt>
      <trkpt lat="38.5615390" lon="14.5835200">
        <ele>15.5200000</ele>
        <time>2013-06-12T20:12:07Z</time>
      </trkpt>
      <trkpt lat="38.5615390" lon="14.5835200">
        <ele>15.0400000</ele>
        <time>2013-06-12T20:12:28Z</time>
      </trkpt>
      <trkpt lat="38.5615390" lon="14.5835210">
        <ele>15.5200000</ele>
        <time>2013-06-12T20:12:51Z</time>
      </trkpt>
      <trkpt lat="38.5615390" lon="14.5835210">
        <ele>15.5200000</ele>
        <time>2013-06-12T20:13:09Z</time>
      </trkpt>
      <trkpt lat="38.5615430" lon="14.5835170">
        <ele>15.5200000</ele>
        <time>2013-06-12T20:13:28Z</time>
      </trkpt>
      <trkpt lat="38.5615430" lon="14.5835170">
        <ele>15.0400000</ele>
        <time>2013-06-12T20:13:46Z</time>
      </trkpt>
      <trkpt lat="38.5615430" lon="14.5835160">
        <ele>15.0400000</ele>
        <time>2013-06-12T20:14:07Z</time>
      </trkpt>
      <trkpt lat="38.5615430" lon="14.5835110">
        <ele>14.5600000</ele>
        <time>2013-06-12T20:14:26Z</time>
      </trkpt>
      <trkpt lat="38.5615430" lon="14.5835110">
        <ele>15.0400000</ele>
        <time>2013-06-12T20:14:44Z</time>
      </trkpt>
      <trkpt lat="38.5615460" lon="14.5835160">
        <ele>15.0400000</ele>
        <time>2013-06-12T20:15:00Z</time>
      </trkpt>
      <trkpt lat="38.5615460" lon="14.5835160">
        <ele>15.0400000</ele>
        <time>2013-06-12T20:15:19Z</time>
      </trkpt>
      <trkpt lat="38.5615460" lon="14.5835140">
        <ele>15.5200000</ele>
        <time>2013-06-12T20:15:39Z</time>
      </trkpt>
      <trkpt lat="38.5615460" lon="14.5835140">
        <ele>15.0400000</ele>
        <time>2013-06-12T20:15:55Z</time>
      </trkpt>
      <trkpt lat="38.5615460" lon="14.5835130">
        <ele>15.0400000</ele>
        <time>2013-06-12T20:16:19Z</time>
      </trkpt>
      <trkpt lat="38.5615460" lon="14.5835130">
        <ele>15.0400000</ele>
        <time>2013-06-12T20:16:40Z</time>
      </trkpt>
      <trkpt lat="38.5615460" lon="14.5835110">
        <ele>15.0400000</ele>
        <time>2013-06-12T20:17:01Z</time>
      </trkpt>
      <trkpt lat="38.5615460" lon="14.5835110">
        <ele>15.0400000</ele>
        <time>2013-06-12T20:17:20Z</time>
      </trkpt>
      <trkpt lat="38.5615460" lon="14.5835130">
        <ele>14.5600000</ele>
        <time>2013-06-12T20:17:41Z</time>
      </trkpt>
      <trkpt lat="38.5615460" lon="14.5835130">
        <ele>14.5600000</ele>
        <time>2013-06-12T20:17:58Z</time>
      </trkpt>
      <trkpt lat="38.5615540" lon="14.5835100">
        <ele>14.5600000</ele>
        <time>2013-06-12T20:18:17Z</time>
      </trkpt>
      <trkpt lat="38.5615540" lon="14.5835100">
        <ele>14.5600000</ele>
        <time>2013-06-12T20:18:36Z</time>
      </trkpt>
      <trkpt lat="38.5615580" lon="14.5835110">
        <ele>13.6000000</ele>
        <time>2013-06-12T20:18:54Z</time>
      </trkpt>
      <trkpt lat="38.5615580" lon="14.5835070">
        <ele>13.6000000</ele>
        <time>2013-06-12T20:19:16Z</time>
      </trkpt>
      <trkpt lat="38.5615540" lon="14.5835010">
        <ele>14.0800000</ele>
        <time>2013-06-12T20:19:33Z</time>
      </trkpt>
      <trkpt lat="38.5615540" lon="14.5835010">
        <ele>14.5600000</ele>
        <time>2013-06-12T20:19:51Z</time>
      </trkpt>
      <trkpt lat="38.5615620" lon="14.5834960">
        <ele>14.5600000</ele>
        <time>2013-06-12T20:20:11Z</time>
      </trkpt>
      <trkpt lat="38.5615620" lon="14.5834960">
        <ele>14.5600000</ele>
        <time>2013-06-12T20:20:29Z</time>
      </trkpt>
      <trkpt lat="38.5615620" lon="14.5834960">
        <ele>14.5600000</ele>
        <time>2013-06-12T20:20:50Z</time>
      </trkpt>
      <trkpt lat="38.5615620" lon="14.5834970">
        <ele>13.6000000</ele>
        <time>2013-06-12T20:21:08Z</time>
      </trkpt>
      <trkpt lat="38.5615620" lon="14.5834990">
        <ele>14.0800000</ele>
        <time>2013-06-12T20:21:26Z</time>
      </trkpt>
      <trkpt lat="38.5615620" lon="14.5834990">
        <ele>14.0800000</ele>
        <time>2013-06-12T20:21:45Z</time>
      </trkpt>
      <trkpt lat="38.5615580" lon="14.5834970">
        <ele>13.1200000</ele>
        <time>2013-06-12T20:22:07Z</time>
      </trkpt>
      <trkpt lat="38.5615580" lon="14.5834980">
        <ele>14.0800000</ele>
        <time>2013-06-12T20:22:28Z</time>
      </trkpt>
      <trkpt lat="38.5615540" lon="14.5835050">
        <ele>13.1200000</ele>
        <time>2013-06-12T20:22:47Z</time>
      </trkpt>
      <trkpt lat="38.5615540" lon="14.5835050">
        <ele>13.6000000</ele>
        <time>2013-06-12T20:23:07Z</time>
      </trkpt>
      <trkpt lat="38.5615540" lon="14.5835130">
        <ele>13.1200000</ele>
        <time>2013-06-12T20:23:26Z</time>
      </trkpt>
      <trkpt lat="38.5615540" lon="14.5835200">
        <ele>13.6000000</ele>
        <time>2013-06-12T20:23:44Z</time>
      </trkpt>
      <trkpt lat="38.5615540" lon="14.5835200">
        <ele>13.6000000</ele>
        <time>2013-06-12T20:24:07Z</time>
      </trkpt>
      <trkpt lat="38.5615460" lon="14.5835190">
        <ele>13.6000000</ele>
        <time>2013-06-12T20:24:25Z</time>
      </trkpt>
      <trkpt lat="38.5615500" lon="14.5835150">
        <ele>14.0800000</ele>
        <time>2013-06-12T20:24:43Z</time>
      </trkpt>
      <trkpt lat="38.5615500" lon="14.5835150">
        <ele>14.0800000</ele>
        <time>2013-06-12T20:24:59Z</time>
      </trkpt>
      <trkpt lat="38.5615540" lon="14.5835150">
        <ele>13.6000000</ele>
        <time>2013-06-12T20:25:21Z</time>
      </trkpt>
      <trkpt lat="38.5615580" lon="14.5835130">
        <ele>12.6300000</ele>
        <time>2013-06-12T20:25:39Z</time>
      </trkpt>
      <trkpt lat="38.5615580" lon="14.5835130">
        <ele>13.6000000</ele>
        <time>2013-06-12T20:26:01Z</time>
      </trkpt>
      <trkpt lat="38.5615580" lon="14.5835100">
        <ele>13.1200000</ele>
        <time>2013-06-12T20:26:27Z</time>
      </trkpt>
      <trkpt lat="38.5615460" lon="14.5834810">
        <ele>13.1200000</ele>
        <time>2013-06-12T20:26:50Z</time>
      </trkpt>
      <trkpt lat="38.5615460" lon="14.5834810">
        <ele>13.6000000</ele>
        <time>2013-06-12T20:27:11Z</time>
      </trkpt>
      <trkpt lat="38.5615500" lon="14.5834750">
        <ele>13.1200000</ele>
        <time>2013-06-12T20:27:32Z</time>
      </trkpt>
      <trkpt lat="38.5615500" lon="14.5834750">
        <ele>13.1200000</ele>
        <time>2013-06-12T20:27:53Z</time>
      </trkpt>
      <trkpt lat="38.5615540" lon="14.5834670">
        <ele>13.1200000</ele>
        <time>2013-06-12T20:28:13Z</time>
      </trkpt>
      <trkpt lat="38.5615540" lon="14.5834670">
        <ele>13.1200000</ele>
        <time>2013-06-12T20:28:37Z</time>
      </trkpt>
      <trkpt lat="38.5615580" lon="14.5834670">
        <ele>13.6000000</ele>
        <time>2013-06-12T20:29:01Z</time>
      </trkpt>
      <trkpt lat="38.5615350" lon="14.5834930">
        <ele>13.1200000</ele>
        <time>2013-06-12T20:29:26Z</time>
      </trkpt>
      <trkpt lat="38.5615270" lon="14.5835280">
        <ele>12.6300000</ele>
        <time>2013-06-12T20:29:46Z</time>
      </trkpt>
      <trkpt lat="38.5615270" lon="14.5835280">
        <ele>13.6000000</ele>
        <time>2013-06-12T20:30:07Z</time>
      </trkpt>
      <trkpt lat="38.5615310" lon="14.5835260">
        <ele>13.1200000</ele>
        <time>2013-06-12T20:30:25Z</time>
      </trkpt>
      <trkpt lat="38.5615310" lon="14.5835260">
        <ele>13.1200000</ele>
        <time>2013-06-12T20:30:43Z</time>
      </trkpt>
      <trkpt lat="38.5615310" lon="14.5835200">
        <ele>12.6300000</ele>
        <time>2013-06-12T20:31:00Z</time>
      </trkpt>
      <trkpt lat="38.5615310" lon="14.5835150">
        <ele>13.1200000</ele>
        <time>2013-06-12T20:31:17Z</time>
      </trkpt>
      <trkpt lat="38.5615310" lon="14.5835150">
        <ele>13.1200000</ele>
        <time>2013-06-12T20:31:34Z</time>
      </trkpt>
      <trkpt lat="38.5615310" lon="14.5835090">
        <ele>13.1200000</ele>
        <time>2013-06-12T20:31:55Z</time>
      </trkpt>
      <trkpt lat="38.5615310" lon="14.5835090">
        <ele>13.1200000</ele>
        <time>2013-06-12T20:32:14Z</time>
      </trkpt>
      <trkpt lat="38.5615310" lon="14.5835170">
        <ele>13.1200000</ele>
        <time>2013-06-12T20:32:37Z</time>
      </trkpt>
      <trkpt lat="38.5615310" lon="14.5835170">
        <ele>13.1200000</ele>
        <time>2013-06-12T20:33:00Z</time>
      </trkpt>
      <trkpt lat="38.5615270" lon="14.5835290">
        <ele>13.1200000</ele>
        <time>2013-06-12T20:33:22Z</time>
      </trkpt>
      <trkpt lat="38.5615270" lon="14.5835290">
        <ele>13.1200000</ele>
        <time>2013-06-12T20:33:38Z</time>
      </trkpt>
      <trkpt lat="38.5615390" lon="14.5835440">
        <ele>12.6300000</ele>
        <time>2013-06-12T20:33:56Z</time>
      </trkpt>
      <trkpt lat="38.5615430" lon="14.5835440">
        <ele>12.6300000</ele>
        <time>2013-06-12T20:34:09Z</time>
      </trkpt>
      <trkpt lat="38.5615430" lon="14.5835440">
        <ele>12.6300000</ele>
        <time>2013-06-12T20:34:27Z</time>
      </trkpt>
      <trkpt lat="38.5615350" lon="14.5835430">
        <ele>12.6300000</ele>
        <time>2013-06-12T20:34:50Z</time>
      </trkpt>
      <trkpt lat="38.5615230" lon="14.5835490">
        <ele>12.6300000</ele>
        <time>2013-06-12T20:35:09Z</time>
      </trkpt>
      <trkpt lat="38.5615230" lon="14.5835490">
        <ele>12.6300000</ele>
        <time>2013-06-12T20:35:30Z</time>
      </trkpt>
      <trkpt lat="38.5615230" lon="14.5835510">
        <ele>12.6300000</ele>
        <time>2013-06-12T20:35:47Z</time>
      </trkpt>
      <trkpt lat="38.5615200" lon="14.5835500">
        <ele>13.1200000</ele>
        <time>2013-06-12T20:36:05Z</time>
      </trkpt>
      <trkpt lat="38.5615230" lon="14.5835510">
        <ele>12.1500000</ele>
        <time>2013-06-12T20:36:21Z</time>
      </trkpt>
      <trkpt lat="38.5615120" lon="14.5835320">
        <ele>13.1200000</ele>
        <time>2013-06-12T20:36:35Z</time>
      </trkpt>
      <trkpt lat="38.5615010" lon="14.5835260">
        <ele>12.1500000</ele>
        <time>2013-06-12T20:36:50Z</time>
      </trkpt>
      <trkpt lat="38.5615010" lon="14.5835260">
        <ele>12.1500000</ele>
        <time>2013-06-12T20:37:11Z</time>
      </trkpt>
      <trkpt lat="38.5615040" lon="14.5835180">
        <ele>12.6300000</ele>
        <time>2013-06-12T20:37:30Z</time>
      </trkpt>
      <trkpt lat="38.5615040" lon="14.5835180">
        <ele>13.6000000</ele>
        <time>2013-06-12T20:37:51Z</time>
      </trkpt>
      <trkpt lat="38.5615200" lon="14.5835190">
        <ele>14.0800000</ele>
        <time>2013-06-12T20:38:11Z</time>
      </trkpt>
      <trkpt lat="38.5615620" lon="14.5835540">
        <ele>12.1500000</ele>
        <time>2013-06-12T20:38:29Z</time>
      </trkpt>
      <trkpt lat="38.5615620" lon="14.5835540">
        <ele>12.1500000</ele>
        <time>2013-06-12T20:38:47Z</time>
      </trkpt>
      <trkpt lat="38.5615620" lon="14.5835540">
        <ele>12.1500000</ele>
        <time>2013-06-12T20:39:07Z</time>
      </trkpt>
      <trkpt lat="38.5615620" lon="14.5835400">
        <ele>12.6300000</ele>
        <time>2013-06-12T20:39:26Z</time>
      </trkpt>
      <trkpt lat="38.5615650" lon="14.5835220">
        <ele>12.6300000</ele>
        <time>2013-06-12T20:39:45Z</time>
      </trkpt>
      <trkpt lat="38.5615690" lon="14.5835090">
        <ele>12.6300000</ele>
        <time>2013-06-12T20:40:03Z</time>
      </trkpt>
      <trkpt lat="38.5615690" lon="14.5835090">
        <ele>12.1500000</ele>
        <time>2013-06-12T20:40:25Z</time>
      </trkpt>
      <trkpt lat="38.5615770" lon="14.5835050">
        <ele>12.1500000</ele>
        <time>2013-06-12T20:40:46Z</time>
      </trkpt>
      <trkpt lat="38.5615770" lon="14.5835050">
        <ele>12.1500000</ele>
        <time>2013-06-12T20:41:05Z</time>
      </trkpt>
      <trkpt lat="38.5615770" lon="14.5835030">
        <ele>12.1500000</ele>
        <time>2013-06-12T20:41:30Z</time>
      </trkpt>
      <trkpt lat="38.5615770" lon="14.5835030">
        <ele>11.1900000</ele>
        <time>2013-06-12T20:41:52Z</time>
      </trkpt>
      <trkpt lat="38.5615810" lon="14.5835010">
        <ele>11.1900000</ele>
        <time>2013-06-12T20:42:12Z</time>
      </trkpt>
      <trkpt lat="38.5615810" lon="14.5835010">
        <ele>11.6700000</ele>
        <time>2013-06-12T20:42:34Z</time>
      </trkpt>
      <trkpt lat="38.5615770" lon="14.5834910">
        <ele>10.7100000</ele>
        <time>2013-06-12T20:42:56Z</time>
      </trkpt>
      <trkpt lat="38.5615730" lon="14.5834920">
        <ele>10.7100000</ele>
        <time>2013-06-12T20:43:23Z</time>
      </trkpt>
      <trkpt lat="38.5615730" lon="14.5834920">
        <ele>10.7100000</ele>
        <time>2013-06-12T20:43:45Z</time>
      </trkpt>
      <trkpt lat="38.5615650" lon="14.5834940">
        <ele>11.1900000</ele>
        <time>2013-06-12T20:44:12Z</time>
      </trkpt>
      <trkpt lat="38.5615650" lon="14.5834940">
        <ele>11.1900000</ele>
        <time>2013-06-12T20:44:33Z</time>
      </trkpt>
      <trkpt lat="38.5615730" lon="14.5834950">
        <ele>11.6700000</ele>
        <time>2013-06-12T20:44:56Z</time>
      </trkpt>
      <trkpt lat="38.5615770" lon="14.5834930">
        <ele>11.1900000</ele>
        <time>2013-06-12T20:45:15Z</time>
      </trkpt>
      <trkpt lat="38.5615770" lon="14.5834960">
        <ele>11.1900000</ele>
        <time>2013-06-12T20:45:38Z</time>
      </trkpt>
      <trkpt lat="38.5615840" lon="14.5835140">
        <ele>10.2300000</ele>
        <time>2013-06-12T20:46:00Z</time>
      </trkpt>
      <trkpt lat="38.5615770" lon="14.5835280">
        <ele>9.7500000</ele>
        <time>2013-06-12T20:46:22Z</time>
      </trkpt>
      <trkpt lat="38.5615730" lon="14.5835310">
        <ele>9.7500000</ele>
        <time>2013-06-12T20:46:43Z</time>
      </trkpt>
      <trkpt lat="38.5615730" lon="14.5835310">
        <ele>9.2700000</ele>
        <time>2013-06-12T20:47:03Z</time>
      </trkpt>
      <trkpt lat="38.5615650" lon="14.5835350">
        <ele>8.7900000</ele>
        <time>2013-06-12T20:47:20Z</time>
      </trkpt>
      <trkpt lat="38.5615620" lon="14.5835330">
        <ele>9.2700000</ele>
        <time>2013-06-12T20:47:46Z</time>
      </trkpt>
      <trkpt lat="38.5615620" lon="14.5835330">
        <ele>9.7500000</ele>
        <time>2013-06-12T20:48:07Z</time>
      </trkpt>
      <trkpt lat="38.5615620" lon="14.5835330">
        <ele>10.2300000</ele>
        <time>2013-06-12T20:48:29Z</time>
      </trkpt>
      <trkpt lat="38.5615620" lon="14.5835330">
        <ele>9.2700000</ele>
        <time>2013-06-12T20:48:54Z</time>
      </trkpt>
      <trkpt lat="38.5615650" lon="14.5835230">
        <ele>9.2700000</ele>
        <time>2013-06-12T20:49:14Z</time>
      </trkpt>
      <trkpt lat="38.5615650" lon="14.5835230">
        <ele>8.7900000</ele>
        <time>2013-06-12T20:49:36Z</time>
      </trkpt>
      <trkpt lat="38.5615650" lon="14.5835140">
        <ele>8.7900000</ele>
        <time>2013-06-12T20:49:55Z</time>
      </trkpt>
      <trkpt lat="38.5615620" lon="14.5835100">
        <ele>8.7900000</ele>
        <time>2013-06-12T20:50:15Z</time>
      </trkpt>
      <trkpt lat="38.5615580" lon="14.5835110">
        <ele>9.2700000</ele>
        <time>2013-06-12T20:50:37Z</time>
      </trkpt>
      <trkpt lat="38.5615580" lon="14.5835110">
        <ele>8.7900000</ele>
        <time>2013-06-12T20:50:57Z</time>
      </trkpt>
      <trkpt lat="38.5615580" lon="14.5835110">
        <ele>8.7900000</ele>
        <time>2013-06-12T20:51:16Z</time>
      </trkpt>
      <trkpt lat="38.5615580" lon="14.5835100">
        <ele>8.7900000</ele>
        <time>2013-06-12T20:51:36Z</time>
      </trkpt>
      <trkpt lat="38.5615540" lon="14.5835100">
        <ele>8.3100000</ele>
        <time>2013-06-12T20:51:58Z</time>
      </trkpt>
      <trkpt lat="38.5615540" lon="14.5835100">
        <ele>8.3100000</ele>
        <time>2013-06-12T20:52:20Z</time>
      </trkpt>
      <trkpt lat="38.5615430" lon="14.5835080">
        <ele>8.3100000</ele>
        <time>2013-06-12T20:52:36Z</time>
      </trkpt>
      <trkpt lat="38.5615430" lon="14.5835080">
        <ele>8.3100000</ele>
        <time>2013-06-12T20:52:55Z</time>
      </trkpt>
      <trkpt lat="38.5615390" lon="14.5835080">
        <ele>8.3100000</ele>
        <time>2013-06-12T20:53:13Z</time>
      </trkpt>
      <trkpt lat="38.5615390" lon="14.5835080">
        <ele>7.8300000</ele>
        <time>2013-06-12T20:53:32Z</time>
      </trkpt>
      <trkpt lat="38.5615390" lon="14.5835110">
        <ele>8.3100000</ele>
        <time>2013-06-12T20:53:50Z</time>
      </trkpt>
      <trkpt lat="38.5615390" lon="14.5835110">
        <ele>8.3100000</ele>
        <time>2013-06-12T20:54:08Z</time>
      </trkpt>
      <trkpt lat="38.5615390" lon="14.5835090">
        <ele>8.3100000</ele>
        <time>2013-06-12T20:54:30Z</time>
      </trkpt>
      <trkpt lat="38.5615390" lon="14.5835090">
        <ele>8.7900000</ele>
        <time>2013-06-12T20:54:53Z</time>
      </trkpt>
      <trkpt lat="38.5615350" lon="14.5835080">
        <ele>8.7900000</ele>
        <time>2013-06-12T20:55:12Z</time>
      </trkpt>
      <trkpt lat="38.5615310" lon="14.5834990">
        <ele>8.3100000</ele>
        <time>2013-06-12T20:55:29Z</time>
      </trkpt>
      <trkpt lat="38.5615200" lon="14.5835030">
        <ele>8.3100000</ele>
        <time>2013-06-12T20:55:47Z</time>
      </trkpt>
      <trkpt lat="38.5615120" lon="14.5835090">
        <ele>8.3100000</ele>
        <time>2013-06-12T20:56:06Z</time>
      </trkpt>
      <trkpt lat="38.5615120" lon="14.5835090">
        <ele>8.3100000</ele>
        <time>2013-06-12T20:56:25Z</time>
      </trkpt>
      <trkpt lat="38.5615080" lon="14.5835140">
        <ele>7.8300000</ele>
        <time>2013-06-12T20:56:47Z</time>
      </trkpt>
      <trkpt lat="38.5615080" lon="14.5835140">
        <ele>7.8300000</ele>
        <time>2013-06-12T20:57:05Z</time>
      </trkpt>
      <trkpt lat="38.5615080" lon="14.5835150">
        <ele>7.8300000</ele>
        <time>2013-06-12T20:57:25Z</time>
      </trkpt>
      <trkpt lat="38.5615080" lon="14.5835150">
        <ele>7.3500000</ele>
        <time>2013-06-12T20:57:46Z</time>
      </trkpt>
      <trkpt lat="38.5615080" lon="14.5835120">
        <ele>7.8300000</ele>
        <time>2013-06-12T20:58:03Z</time>
      </trkpt>
      <trkpt lat="38.5615040" lon="14.5835080">
        <ele>8.3100000</ele>
        <time>2013-06-12T20:58:19Z</time>
      </trkpt>
      <trkpt lat="38.5615040" lon="14.5835080">
        <ele>8.3100000</ele>
        <time>2013-06-12T20:58:38Z</time>
      </trkpt>
      <trkpt lat="38.5615040" lon="14.5835030">
        <ele>7.8300000</ele>
        <time>2013-06-12T20:59:00Z</time>
      </trkpt>
      <trkpt lat="38.5615040" lon="14.5835030">
        <ele>7.8300000</ele>
        <time>2013-06-12T20:59:21Z</time>
      </trkpt>
      <trkpt lat="38.5615040" lon="14.5835000">
        <ele>7.8300000</ele>
        <time>2013-06-12T20:59:43Z</time>
      </trkpt>
      <trkpt lat="38.5615040" lon="14.5835000">
        <ele>7.8300000</ele>
        <time>2013-06-12T21:00:06Z</time>
      </trkpt>
      <trkpt lat="38.5615040" lon="14.5834990">
        <ele>7.3500000</ele>
        <time>2013-06-12T21:00:26Z</time>
      </trkpt>
      <trkpt lat="38.5615040" lon="14.5834950">
        <ele>7.3500000</ele>
        <time>2013-06-12T21:00:41Z</time>
      </trkpt>
      <trkpt lat="38.5615010" lon="14.5834960">
        <ele>6.8700000</ele>
        <time>2013-06-12T21:00:58Z</time>
      </trkpt>
      <trkpt lat="38.5614970" lon="14.5834830">
        <ele>6.8700000</ele>
        <time>2013-06-12T21:01:13Z</time>
      </trkpt>
      <trkpt lat="38.5614970" lon="14.5834830">
        <ele>7.3500000</ele>
        <time>2013-06-12T21:01:37Z</time>
      </trkpt>
      <trkpt lat="38.5614930" lon="14.5834880">
        <ele>7.3500000</ele>
        <time>2013-06-12T21:01:52Z</time>
      </trkpt>
      <trkpt lat="38.5614930" lon="14.5834880">
        <ele>7.3500000</ele>
        <time>2013-06-12T21:02:15Z</time>
      </trkpt>
      <trkpt lat="38.5614890" lon="14.5834940">
        <ele>6.8700000</ele>
        <time>2013-06-12T21:02:36Z</time>
      </trkpt>
      <trkpt lat="38.5614890" lon="14.5834940">
        <ele>7.3500000</ele>
        <time>2013-06-12T21:02:56Z</time>
      </trkpt>
      <trkpt lat="38.5614890" lon="14.5834950">
        <ele>6.8700000</ele>
        <time>2013-06-12T21:03:19Z</time>
      </trkpt>
      <trkpt lat="38.5614890" lon="14.5834930">
        <ele>7.3500000</ele>
        <time>2013-06-12T21:03:43Z</time>
      </trkpt>
      <trkpt lat="38.5614850" lon="14.5834940">
        <ele>7.3500000</ele>
        <time>2013-06-12T21:04:01Z</time>
      </trkpt>
      <trkpt lat="38.5614780" lon="14.5834970">
        <ele>7.3500000</ele>
        <time>2013-06-12T21:04:23Z</time>
      </trkpt>
      <trkpt lat="38.5614780" lon="14.5834970">
        <ele>6.8700000</ele>
        <time>2013-06-12T21:04:40Z</time>
      </trkpt>
      <trkpt lat="38.5614780" lon="14.5834980">
        <ele>6.8700000</ele>
        <time>2013-06-12T21:05:02Z</time>
      </trkpt>
      <trkpt lat="38.5614780" lon="14.5834980">
        <ele>6.3900000</ele>
        <time>2013-06-12T21:05:22Z</time>
      </trkpt>
      <trkpt lat="38.5614740" lon="14.5835010">
        <ele>6.3900000</ele>
        <time>2013-06-12T21:05:41Z</time>
      </trkpt>
      <trkpt lat="38.5614740" lon="14.5835010">
        <ele>6.8700000</ele>
        <time>2013-06-12T21:05:59Z</time>
      </trkpt>
      <trkpt lat="38.5614740" lon="14.5835010">
        <ele>6.3900000</ele>
        <time>2013-06-12T21:06:16Z</time>
      </trkpt>
      <trkpt lat="38.5614780" lon="14.5834930">
        <ele>6.8700000</ele>
        <time>2013-06-12T21:06:40Z</time>
      </trkpt>
      <trkpt lat="38.5614780" lon="14.5834900">
        <ele>6.3900000</ele>
        <time>2013-06-12T21:07:00Z</time>
      </trkpt>
      <trkpt lat="38.5614780" lon="14.5834900">
        <ele>6.3900000</ele>
        <time>2013-06-12T21:07:23Z</time>
      </trkpt>
      <trkpt lat="38.5614660" lon="14.5834860">
        <ele>6.3900000</ele>
        <time>2013-06-12T21:07:45Z</time>
      </trkpt>
      <trkpt lat="38.5614430" lon="14.5834880">
        <ele>6.3900000</ele>
        <time>2013-06-12T21:08:03Z</time>
      </trkpt>
      <trkpt lat="38.5614430" lon="14.5834880">
        <ele>6.3900000</ele>
        <time>2013-06-12T21:08:32Z</time>
      </trkpt>
      <trkpt lat="38.5614430" lon="14.5834900">
        <ele>6.3900000</ele>
        <time>2013-06-12T21:08:55Z</time>
      </trkpt>
      <trkpt lat="38.5614430" lon="14.5834900">
        <ele>5.4200000</ele>
        <time>2013-06-12T21:09:17Z</time>
      </trkpt>
      <trkpt lat="38.5614430" lon="14.5834910">
        <ele>5.4200000</ele>
        <time>2013-06-12T21:09:37Z</time>
      </trkpt>
      <trkpt lat="38.5614430" lon="14.5834910">
        <ele>6.3900000</ele>
        <time>2013-06-12T21:09:57Z</time>
      </trkpt>
      <trkpt lat="38.5614430" lon="14.5834910">
        <ele>6.3900000</ele>
        <time>2013-06-12T21:10:15Z</time>
      </trkpt>
      <trkpt lat="38.5614430" lon="14.5834910">
        <ele>6.3900000</ele>
        <time>2013-06-12T21:10:34Z</time>
      </trkpt>
      <trkpt lat="38.5614470" lon="14.5834890">
        <ele>6.8700000</ele>
        <time>2013-06-12T21:10:56Z</time>
      </trkpt>
      <trkpt lat="38.5614430" lon="14.5834900">
        <ele>6.3900000</ele>
        <time>2013-06-12T21:11:21Z</time>
      </trkpt>
      <trkpt lat="38.5614430" lon="14.5834900">
        <ele>6.3900000</ele>
        <time>2013-06-12T21:11:39Z</time>
      </trkpt>
      <trkpt lat="38.5614430" lon="14.5834900">
        <ele>6.3900000</ele>
        <time>2013-06-12T21:11:57Z</time>
      </trkpt>
      <trkpt lat="38.5614430" lon="14.5834940">
        <ele>6.3900000</ele>
        <time>2013-06-12T21:12:16Z</time>
      </trkpt>
      <trkpt lat="38.5614430" lon="14.5834940">
        <ele>6.3900000</ele>
        <time>2013-06-12T21:12:38Z</time>
      </trkpt>
      <trkpt lat="38.5614430" lon="14.5834930">
        <ele>6.3900000</ele>
        <time>2013-06-12T21:12:58Z</time>
      </trkpt>
      <trkpt lat="38.5614430" lon="14.5834930">
        <ele>6.8700000</ele>
        <time>2013-06-12T21:13:18Z</time>
      </trkpt>
      <trkpt lat="38.5614430" lon="14.5834940">
        <ele>6.3900000</ele>
        <time>2013-06-12T21:13:37Z</time>
      </trkpt>
      <trkpt lat="38.5614430" lon="14.5834940">
        <ele>6.3900000</ele>
        <time>2013-06-12T21:13:58Z</time>
      </trkpt>
      <trkpt lat="38.5614510" lon="14.5834960">
        <ele>6.8700000</ele>
        <time>2013-06-12T21:14:18Z</time>
      </trkpt>
      <trkpt lat="38.5614510" lon="14.5834960">
        <ele>6.3900000</ele>
        <time>2013-06-12T21:14:36Z</time>
      </trkpt>
      <trkpt lat="38.5614550" lon="14.5834940">
        <ele>6.3900000</ele>
        <time>2013-06-12T21:14:54Z</time>
      </trkpt>
      <trkpt lat="38.5614550" lon="14.5834940">
        <ele>6.8700000</ele>
        <time>2013-06-12T21:15:18Z</time>
      </trkpt>
      <trkpt lat="38.5614620" lon="14.5834890">
        <ele>6.8700000</ele>
        <time>2013-06-12T21:15:38Z</time>
      </trkpt>
      <trkpt lat="38.5614620" lon="14.5834890">
        <ele>6.8700000</ele>
        <time>2013-06-12T21:15:58Z</time>
      </trkpt>
      <trkpt lat="38.5614660" lon="14.5834880">
        <ele>7.3500000</ele>
        <time>2013-06-12T21:16:20Z</time>
      </trkpt>
      <trkpt lat="38.5614740" lon="14.5834870">
        <ele>7.3500000</ele>
        <time>2013-06-12T21:16:44Z</time>
      </trkpt>
      <trkpt lat="38.5614740" lon="14.5834870">
        <ele>6.8700000</ele>
        <time>2013-06-12T21:17:10Z</time>
      </trkpt>
      <trkpt lat="38.5615080" lon="14.5835010">
        <ele>6.8700000</ele>
        <time>2013-06-12T21:17:37Z</time>
      </trkpt>
      <trkpt lat="38.5615080" lon="14.5835010">
        <ele>7.3500000</ele>
        <time>2013-06-12T21:18:00Z</time>
      </trkpt>
      <trkpt lat="38.5615230" lon="14.5835030">
        <ele>6.8700000</ele>
        <time>2013-06-12T21:18:26Z</time>
      </trkpt>
      <trkpt lat="38.5615230" lon="14.5835020">
        <ele>6.8700000</ele>
        <time>2013-06-12T21:18:52Z</time>
      </trkpt>
      <trkpt lat="38.5615230" lon="14.5835020">
        <ele>6.8700000</ele>
        <time>2013-06-12T21:19:19Z</time>
      </trkpt>
      <trkpt lat="38.5615270" lon="14.5835010">
        <ele>7.8300000</ele>
        <time>2013-06-12T21:19:41Z</time>
      </trkpt>
      <trkpt lat="38.5615430" lon="14.5834900">
        <ele>7.8300000</ele>
        <time>2013-06-12T21:20:06Z</time>
      </trkpt>
      <trkpt lat="38.5615430" lon="14.5834900">
        <ele>7.8300000</ele>
        <time>2013-06-12T21:20:28Z</time>
      </trkpt>
      <trkpt lat="38.5615460" lon="14.5834880">
        <ele>7.3500000</ele>
        <time>2013-06-12T21:20:52Z</time>
      </trkpt>
      <trkpt lat="38.5615460" lon="14.5834880">
        <ele>7.3500000</ele>
        <time>2013-06-12T21:21:15Z</time>
      </trkpt>
      <trkpt lat="38.5615540" lon="14.5834800">
        <ele>7.3500000</ele>
        <time>2013-06-12T21:21:41Z</time>
      </trkpt>
      <trkpt lat="38.5615500" lon="14.5834780">
        <ele>7.3500000</ele>
        <time>2013-06-12T21:22:07Z</time>
      </trkpt>
      <trkpt lat="38.5615500" lon="14.5834780">
        <ele>7.3500000</ele>
        <time>2013-06-12T21:22:36Z</time>
      </trkpt>
      <trkpt lat="38.5615500" lon="14.5834780">
        <ele>7.8300000</ele>
        <time>2013-06-12T21:23:02Z</time>
      </trkpt>
      <trkpt lat="38.5615540" lon="14.5834810">
        <ele>7.3500000</ele>
        <time>2013-06-12T21:23:26Z</time>
      </trkpt>
      <trkpt lat="38.5615540" lon="14.5834810">
        <ele>7.8300000</ele>
        <time>2013-06-12T21:23:51Z</time>
      </trkpt>
      <trkpt lat="38.5615540" lon="14.5834840">
        <ele>7.3500000</ele>
        <time>2013-06-12T21:24:13Z</time>
      </trkpt>
      <trkpt lat="38.5615540" lon="14.5834840">
        <ele>8.3100000</ele>
        <time>2013-06-12T21:24:33Z</time>
      </trkpt>
      <trkpt lat="38.5615580" lon="14.5834800">
        <ele>7.8300000</ele>
        <time>2013-06-12T21:24:55Z</time>
      </trkpt>
      <trkpt lat="38.5615580" lon="14.5834800">
        <ele>7.3500000</ele>
        <time>2013-06-12T21:25:17Z</time>
      </trkpt>
      <trkpt lat="38.5615620" lon="14.5834790">
        <ele>7.3500000</ele>
        <time>2013-06-12T21:25:44Z</time>
      </trkpt>
      <trkpt lat="38.5615620" lon="14.5834830">
        <ele>7.8300000</ele>
        <time>2013-06-12T21:26:13Z</time>
      </trkpt>
      <trkpt lat="38.5615620" lon="14.5834830">
        <ele>7.3500000</ele>
        <time>2013-06-12T21:26:38Z</time>
      </trkpt>
      <trkpt lat="38.5615690" lon="14.5834800">
        <ele>7.8300000</ele>
        <time>2013-06-12T21:27:04Z</time>
      </trkpt>
      <trkpt lat="38.5615580" lon="14.5834730">
        <ele>8.3100000</ele>
        <time>2013-06-12T21:27:29Z</time>
      </trkpt>
      <trkpt lat="38.5615580" lon="14.5834730">
        <ele>7.3500000</ele>
        <time>2013-06-12T21:27:49Z</time>
      </trkpt>
      <trkpt lat="38.5615580" lon="14.5834770">
        <ele>7.8300000</ele>
        <time>2013-06-12T21:28:12Z</time>
      </trkpt>
      <trkpt lat="38.5615580" lon="14.5834770">
        <ele>7.8300000</ele>
        <time>2013-06-12T21:28:38Z</time>
      </trkpt>
      <trkpt lat="38.5615540" lon="14.5834850">
        <ele>7.8300000</ele>
        <time>2013-06-12T21:28:59Z</time>
      </trkpt>
      <trkpt lat="38.5615540" lon="14.5834850">
        <ele>7.8300000</ele>
        <time>2013-06-12T21:29:18Z</time>
      </trkpt>
      <trkpt lat="38.5615540" lon="14.5834810">
        <ele>8.3100000</ele>
        <time>2013-06-12T21:29:36Z</time>
      </trkpt>
      <trkpt lat="38.5615540" lon="14.5834810">
        <ele>8.3100000</ele>
        <time>2013-06-12T21:30:00Z</time>
      </trkpt>
      <trkpt lat="38.5615500" lon="14.5834810">
        <ele>7.8300000</ele>
        <time>2013-06-12T21:30:23Z</time>
      </trkpt>
      <trkpt lat="38.5615500" lon="14.5834810">
        <ele>7.8300000</ele>
        <time>2013-06-12T21:30:41Z</time>
      </trkpt>
      <trkpt lat="38.5615460" lon="14.5834810">
        <ele>8.3100000</ele>
        <time>2013-06-12T21:31:00Z</time>
      </trkpt>
      <trkpt lat="38.5615460" lon="14.5834810">
        <ele>8.3100000</ele>
        <time>2013-06-12T21:31:14Z</time>
      </trkpt>
      <trkpt lat="38.5615430" lon="14.5834810">
        <ele>8.7900000</ele>
        <time>2013-06-12T21:31:36Z</time>
      </trkpt>
      <trkpt lat="38.5615430" lon="14.5834810">
        <ele>8.7900000</ele>
        <time>2013-06-12T21:31:58Z</time>
      </trkpt>
      <trkpt lat="38.5615430" lon="14.5834880">
        <ele>8.7900000</ele>
        <time>2013-06-12T21:32:22Z</time>
      </trkpt>
      <trkpt lat="38.5615430" lon="14.5834880">
        <ele>8.7900000</ele>
        <time>2013-06-12T21:32:38Z</time>
      </trkpt>
      <trkpt lat="38.5615390" lon="14.5835030">
        <ele>8.7900000</ele>
        <time>2013-06-12T21:32:57Z</time>
      </trkpt>
      <trkpt lat="38.5615390" lon="14.5835040">
        <ele>8.7900000</ele>
        <time>2013-06-12T21:33:15Z</time>
      </trkpt>
      <trkpt lat="38.5615390" lon="14.5835040">
        <ele>8.3100000</ele>
        <time>2013-06-12T21:33:37Z</time>
      </trkpt>
      <trkpt lat="38.5615390" lon="14.5835050">
        <ele>8.7900000</ele>
        <time>2013-06-12T21:34:01Z</time>
      </trkpt>
      <trkpt lat="38.5615390" lon="14.5835050">
        <ele>8.7900000</ele>
        <time>2013-06-12T21:34:25Z</time>
      </trkpt>
      <trkpt lat="38.5615390" lon="14.5835100">
        <ele>8.3100000</ele>
        <time>2013-06-12T21:34:48Z</time>
      </trkpt>
      <trkpt lat="38.5615390" lon="14.5835100">
        <ele>8.3100000</ele>
        <time>2013-06-12T21:35:09Z</time>
      </trkpt>
      <trkpt lat="38.5615390" lon="14.5835150">
        <ele>8.3100000</ele>
        <time>2013-06-12T21:35:26Z</time>
      </trkpt>
      <trkpt lat="38.5615390" lon="14.5835150">
        <ele>8.7900000</ele>
        <time>2013-06-12T21:35:47Z</time>
      </trkpt>
      <trkpt lat="38.5615390" lon="14.5835160">
        <ele>9.2700000</ele>
        <time>2013-06-12T21:36:04Z</time>
      </trkpt>
      <trkpt lat="38.5615390" lon="14.5835160">
        <ele>8.7900000</ele>
        <time>2013-06-12T21:36:29Z</time>
      </trkpt>
      <trkpt lat="38.5615390" lon="14.5835140">
        <ele>8.7900000</ele>
        <time>2013-06-12T21:36:48Z</time>
      </trkpt>
      <trkpt lat="38.5615390" lon="14.5835140">
        <ele>8.7900000</ele>
        <time>2013-06-12T21:37:09Z</time>
      </trkpt>
      <trkpt lat="38.5615390" lon="14.5835130">
        <ele>8.7900000</ele>
        <time>2013-06-12T21:37:33Z</time>
      </trkpt>
      <trkpt lat="38.5615390" lon="14.5835140">
        <ele>8.7900000</ele>
        <time>2013-06-12T21:37:57Z</time>
      </trkpt>
      <trkpt lat="38.5615390" lon="14.5835140">
        <ele>8.7900000</ele>
        <time>2013-06-12T21:38:15Z</time>
      </trkpt>
      <trkpt lat="38.5615390" lon="14.5835140">
        <ele>9.2700000</ele>
        <time>2013-06-12T21:38:22Z</time>
      </trkpt>
      <trkpt lat="38.5615500" lon="14.5835070">
        <ele>8.7900000</ele>
        <time>2013-06-12T21:38:42Z</time>
      </trkpt>
      <trkpt lat="38.5615500" lon="14.5835040">
        <ele>8.7900000</ele>
        <time>2013-06-12T21:39:07Z</time>
      </trkpt>
      <trkpt lat="38.5615500" lon="14.5835040">
        <ele>8.7900000</ele>
        <time>2013-06-12T21:39:31Z</time>
      </trkpt>
      <trkpt lat="38.5615500" lon="14.5835040">
        <ele>9.2700000</ele>
        <time>2013-06-12T21:39:58Z</time>
      </trkpt>
      <trkpt lat="38.5615460" lon="14.5835000">
        <ele>9.7500000</ele>
        <time>2013-06-12T21:40:23Z</time>
      </trkpt>
      <trkpt lat="38.5615460" lon="14.5835000">
        <ele>8.7900000</ele>
        <time>2013-06-12T21:40:47Z</time>
      </trkpt>
      <trkpt lat="38.5615460" lon="14.5834990">
        <ele>8.7900000</ele>
        <time>2013-06-12T21:41:08Z</time>
      </trkpt>
      <trkpt lat="38.5615460" lon="14.5834990">
        <ele>8.3100000</ele>
        <time>2013-06-12T21:41:31Z</time>
      </trkpt>
      <trkpt lat="38.5615460" lon="14.5835000">
        <ele>8.7900000</ele>
        <time>2013-06-12T21:41:52Z</time>
      </trkpt>
      <trkpt lat="38.5615460" lon="14.5835000">
        <ele>9.2700000</ele>
        <time>2013-06-12T21:42:13Z</time>
      </trkpt>
      <trkpt lat="38.5615500" lon="14.5835010">
        <ele>8.7900000</ele>
        <time>2013-06-12T21:42:37Z</time>
      </trkpt>
      <trkpt lat="38.5615500" lon="14.5835010">
        <ele>8.3100000</ele>
        <time>2013-06-12T21:43:02Z</time>
      </trkpt>
      <trkpt lat="38.5615460" lon="14.5835020">
        <ele>8.3100000</ele>
        <time>2013-06-12T21:43:20Z</time>
      </trkpt>
      <trkpt lat="38.5615500" lon="14.5834970">
        <ele>8.3100000</ele>
        <time>2013-06-12T21:43:43Z</time>
      </trkpt>
      <trkpt lat="38.5615500" lon="14.5834970">
        <ele>8.7900000</ele>
        <time>2013-06-12T21:44:05Z</time>
      </trkpt>
      <trkpt lat="38.5615430" lon="14.5834950">
        <ele>8.3100000</ele>
        <time>2013-06-12T21:44:29Z</time>
      </trkpt>
      <trkpt lat="38.5615430" lon="14.5834950">
        <ele>8.7900000</ele>
        <time>2013-06-12T21:44:51Z</time>
      </trkpt>
      <trkpt lat="38.5615430" lon="14.5834950">
        <ele>8.3100000</ele>
        <time>2013-06-12T21:45:11Z</time>
      </trkpt>
      <trkpt lat="38.5615430" lon="14.5834950">
        <ele>8.7900000</ele>
        <time>2013-06-12T21:45:28Z</time>
      </trkpt>
      <trkpt lat="38.5615430" lon="14.5834940">
        <ele>8.7900000</ele>
        <time>2013-06-12T21:45:51Z</time>
      </trkpt>
      <trkpt lat="38.5615430" lon="14.5834940">
        <ele>8.7900000</ele>
        <time>2013-06-12T21:46:10Z</time>
      </trkpt>
      <trkpt lat="38.5615430" lon="14.5834890">
        <ele>8.3100000</ele>
        <time>2013-06-12T21:46:29Z</time>
      </trkpt>
      <trkpt lat="38.5615430" lon="14.5834890">
        <ele>8.3100000</ele>
        <time>2013-06-12T21:46:49Z</time>
      </trkpt>
      <trkpt lat="38.5615310" lon="14.5834740">
        <ele>8.7900000</ele>
        <time>2013-06-12T21:47:07Z</time>
      </trkpt>
      <trkpt lat="38.5615310" lon="14.5834740">
        <ele>8.3100000</ele>
        <time>2013-06-12T21:47:30Z</time>
      </trkpt>
      <trkpt lat="38.5615270" lon="14.5834740">
        <ele>8.3100000</ele>
        <time>2013-06-12T21:47:52Z</time>
      </trkpt>
      <trkpt lat="38.5615270" lon="14.5834740">
        <ele>8.3100000</ele>
        <time>2013-06-12T21:48:08Z</time>
      </trkpt>
      <trkpt lat="38.5615080" lon="14.5834690">
        <ele>7.8300000</ele>
        <time>2013-06-12T21:48:28Z</time>
      </trkpt>
      <trkpt lat="38.5614930" lon="14.5834640">
        <ele>7.8300000</ele>
        <time>2013-06-12T21:48:47Z</time>
      </trkpt>
      <trkpt lat="38.5614930" lon="14.5834640">
        <ele>7.8300000</ele>
        <time>2013-06-12T21:49:08Z</time>
      </trkpt>
      <trkpt lat="38.5614890" lon="14.5834660">
        <ele>7.8300000</ele>
        <time>2013-06-12T21:49:31Z</time>
      </trkpt>
      <trkpt lat="38.5614890" lon="14.5834650">
        <ele>8.3100000</ele>
        <time>2013-06-12T21:49:53Z</time>
      </trkpt>
      <trkpt lat="38.5614890" lon="14.5834650">
        <ele>7.8300000</ele>
        <time>2013-06-12T21:50:13Z</time>
      </trkpt>
      <trkpt lat="38.5614890" lon="14.5834650">
        <ele>7.3500000</ele>
        <time>2013-06-12T21:50:31Z</time>
      </trkpt>
      <trkpt lat="38.5614850" lon="14.5834620">
        <ele>7.8300000</ele>
        <time>2013-06-12T21:50:54Z</time>
      </trkpt>
      <trkpt lat="38.5614850" lon="14.5834610">
        <ele>8.3100000</ele>
        <time>2013-06-12T21:51:17Z</time>
      </trkpt>
      <trkpt lat="38.5614850" lon="14.5834610">
        <ele>8.3100000</ele>
        <time>2013-06-12T21:51:42Z</time>
      </trkpt>
      <trkpt lat="38.5614850" lon="14.5834610">
        <ele>7.8300000</ele>
        <time>2013-06-12T21:52:05Z</time>
      </trkpt>
      <trkpt lat="38.5614850" lon="14.5834610">
        <ele>7.8300000</ele>
        <time>2013-06-12T21:52:26Z</time>
      </trkpt>
      <trkpt lat="38.5614810" lon="14.5834660">
        <ele>8.3100000</ele>
        <time>2013-06-12T21:52:46Z</time>
      </trkpt>
      <trkpt lat="38.5614810" lon="14.5834660">
        <ele>8.3100000</ele>
        <time>2013-06-12T21:53:06Z</time>
      </trkpt>
      <trkpt lat="38.5614810" lon="14.5834670">
        <ele>7.8300000</ele>
        <time>2013-06-12T21:53:30Z</time>
      </trkpt>
      <trkpt lat="38.5614810" lon="14.5834670">
        <ele>8.3100000</ele>
        <time>2013-06-12T21:53:50Z</time>
      </trkpt>
      <trkpt lat="38.5614810" lon="14.5834670">
        <ele>7.8300000</ele>
        <time>2013-06-12T21:53:52Z</time>
      </trkpt>
      <trkpt lat="38.5615080" lon="14.5834860">
        <ele>8.3100000</ele>
        <time>2013-06-12T21:54:15Z</time>
      </trkpt>
      <trkpt lat="38.5615080" lon="14.5834860">
        <ele>7.8300000</ele>
        <time>2013-06-12T21:54:37Z</time>
      </trkpt>
      <trkpt lat="38.5615080" lon="14.5834860">
        <ele>8.3100000</ele>
        <time>2013-06-12T21:55:03Z</time>
      </trkpt>
      <trkpt lat="38.5615120" lon="14.5834850">
        <ele>7.8300000</ele>
        <time>2013-06-12T21:55:24Z</time>
      </trkpt>
      <trkpt lat="38.5615120" lon="14.5834850">
        <ele>8.3100000</ele>
        <time>2013-06-12T21:55:47Z</time>
      </trkpt>
      <trkpt lat="38.5615120" lon="14.5834830">
        <ele>7.8300000</ele>
        <time>2013-06-12T21:56:11Z</time>
      </trkpt>
      <trkpt lat="38.5615120" lon="14.5834830">
        <ele>7.8300000</ele>
        <time>2013-06-12T21:56:35Z</time>
      </trkpt>
      <trkpt lat="38.5615160" lon="14.5834870">
        <ele>8.3100000</ele>
        <time>2013-06-12T21:56:54Z</time>
      </trkpt>
      <trkpt lat="38.5615120" lon="14.5834900">
        <ele>8.3100000</ele>
        <time>2013-06-12T21:57:14Z</time>
      </trkpt>
      <trkpt lat="38.5615120" lon="14.5834900">
        <ele>8.3100000</ele>
        <time>2013-06-12T21:57:38Z</time>
      </trkpt>
      <trkpt lat="38.5615120" lon="14.5834910">
        <ele>8.3100000</ele>
        <time>2013-06-12T21:57:58Z</time>
      </trkpt>
      <trkpt lat="38.5615120" lon="14.5834910">
        <ele>7.8300000</ele>
        <time>2013-06-12T21:58:22Z</time>
      </trkpt>
      <trkpt lat="38.5615120" lon="14.5834910">
        <ele>8.3100000</ele>
        <time>2013-06-12T21:58:40Z</time>
      </trkpt>
      <trkpt lat="38.5615120" lon="14.5834910">
        <ele>8.3100000</ele>
        <time>2013-06-12T21:59:01Z</time>
      </trkpt>
      <trkpt lat="38.5615120" lon="14.5834960">
        <ele>8.7900000</ele>
        <time>2013-06-12T21:59:25Z</time>
      </trkpt>
    </trkseg>
  </trk>

  <trk>
    <name>Aktueller Track: 13 JUN 2013 08:11</name>
    <extensions>
      <gpxx:TrackExtension xmlns:gpxx="http://www.garmin.com/xmlschemas/GpxExtensions/v3">
        <gpxx:DisplayColor>Magenta</gpxx:DisplayColor>
      </gpxx:TrackExtension>
    </extensions>
    <trkseg>
      <trkpt lat="38.5615120" lon="14.5834910">
        <ele>8.3100000</ele>
        <time>2013-06-13T05:05:01Z</time>
      </trkpt>
      <trkpt lat="38.5375480" lon="14.6764910">
        <ele>-20.5300000</ele>
        <time>2013-06-13T06:11:23Z</time>
      </trkpt>
      <trkpt lat="38.5374830" lon="14.6765570">
        <ele>-14.7600000</ele>
        <time>2013-06-13T06:11:32Z</time>
      </trkpt>
      <trkpt lat="38.5374300" lon="14.6765630">
        <ele>-11.4000000</ele>
        <time>2013-06-13T06:11:37Z</time>
      </trkpt>
      <trkpt lat="38.5373950" lon="14.6765870">
        <ele>-6.5900000</ele>
        <time>2013-06-13T06:11:43Z</time>
      </trkpt>
      <trkpt lat="38.5373380" lon="14.6766360">
        <ele>-2.7500000</ele>
        <time>2013-06-13T06:11:50Z</time>
      </trkpt>
      <trkpt lat="38.5373310" lon="14.6766430">
        <ele>-2.7500000</ele>
        <time>2013-06-13T06:11:51Z</time>
      </trkpt>
      <trkpt lat="38.5372730" lon="14.6766950">
        <ele>0.6200000</ele>
        <time>2013-06-13T06:11:58Z</time>
      </trkpt>
      <trkpt lat="38.5372540" lon="14.6767120">
        <ele>0.6200000</ele>
        <time>2013-06-13T06:12:00Z</time>
      </trkpt>
      <trkpt lat="38.5371550" lon="14.6767980">
        <ele>4.4600000</ele>
        <time>2013-06-13T06:12:11Z</time>
      </trkpt>
      <trkpt lat="38.5370750" lon="14.6768920">
        <ele>5.9100000</ele>
        <time>2013-06-13T06:12:25Z</time>
      </trkpt>
      <trkpt lat="38.5369260" lon="14.6769810">
        <ele>6.3900000</ele>
        <time>2013-06-13T06:12:43Z</time>
      </trkpt>
      <trkpt lat="38.5367890" lon="14.6770590">
        <ele>7.3500000</ele>
        <time>2013-06-13T06:12:59Z</time>
      </trkpt>
      <trkpt lat="38.5366520" lon="14.6771500">
        <ele>6.3900000</ele>
        <time>2013-06-13T06:13:13Z</time>
      </trkpt>
      <trkpt lat="38.5365300" lon="14.6772730">
        <ele>6.8700000</ele>
        <time>2013-06-13T06:13:28Z</time>
      </trkpt>
      <trkpt lat="38.5364040" lon="14.6774160">
        <ele>6.3900000</ele>
        <time>2013-06-13T06:13:45Z</time>
      </trkpt>
      <trkpt lat="38.5362630" lon="14.6775570">
        <ele>6.3900000</ele>
        <time>2013-06-13T06:14:03Z</time>
      </trkpt>
      <trkpt lat="38.5362360" lon="14.6775720">
        <ele>6.3900000</ele>
        <time>2013-06-13T06:14:06Z</time>
      </trkpt>
      <trkpt lat="38.5361020" lon="14.6776440">
        <ele>6.3900000</ele>
        <time>2013-06-13T06:14:22Z</time>
      </trkpt>
      <trkpt lat="38.5359380" lon="14.6777130">
        <ele>5.4200000</ele>
        <time>2013-06-13T06:14:39Z</time>
      </trkpt>
      <trkpt lat="38.5357740" lon="14.6778170">
        <ele>5.9100000</ele>
        <time>2013-06-13T06:14:55Z</time>
      </trkpt>
      <trkpt lat="38.5357670" lon="14.6778240">
        <ele>5.9100000</ele>
        <time>2013-06-13T06:14:56Z</time>
      </trkpt>
      <trkpt lat="38.5355800" lon="14.6779420">
        <ele>5.9100000</ele>
        <time>2013-06-13T06:15:12Z</time>
      </trkpt>
      <trkpt lat="38.5353890" lon="14.6780380">
        <ele>5.9100000</ele>
        <time>2013-06-13T06:15:26Z</time>
      </trkpt>
      <trkpt lat="38.5351830" lon="14.6781600">
        <ele>5.9100000</ele>
        <time>2013-06-13T06:15:41Z</time>
      </trkpt>
      <trkpt lat="38.5350760" lon="14.6782150">
        <ele>5.4200000</ele>
        <time>2013-06-13T06:15:49Z</time>
      </trkpt>
      <trkpt lat="38.5349540" lon="14.6783130">
        <ele>5.9100000</ele>
        <time>2013-06-13T06:15:57Z</time>
      </trkpt>
      <trkpt lat="38.5347370" lon="14.6785400">
        <ele>5.4200000</ele>
        <time>2013-06-13T06:16:13Z</time>
      </trkpt>
      <trkpt lat="38.5346150" lon="14.6788140">
        <ele>4.4600000</ele>
        <time>2013-06-13T06:16:28Z</time>
      </trkpt>
      <trkpt lat="38.5344120" lon="14.6790660">
        <ele>5.4200000</ele>
        <time>2013-06-13T06:16:44Z</time>
      </trkpt>
      <trkpt lat="38.5342330" lon="14.6792540">
        <ele>4.9400000</ele>
        <time>2013-06-13T06:17:00Z</time>
      </trkpt>
      <trkpt lat="38.5340080" lon="14.6794530">
        <ele>4.4600000</ele>
        <time>2013-06-13T06:17:15Z</time>
      </trkpt>
      <trkpt lat="38.5337910" lon="14.6796160">
        <ele>4.4600000</ele>
        <time>2013-06-13T06:17:30Z</time>
      </trkpt>
      <trkpt lat="38.5335880" lon="14.6798410">
        <ele>4.9400000</ele>
        <time>2013-06-13T06:17:46Z</time>
      </trkpt>
      <trkpt lat="38.5334210" lon="14.6800530">
        <ele>4.9400000</ele>
        <time>2013-06-13T06:17:59Z</time>
      </trkpt>
      <trkpt lat="38.5332370" lon="14.6802450">
        <ele>4.9400000</ele>
        <time>2013-06-13T06:18:13Z</time>
      </trkpt>
      <trkpt lat="38.5329480" lon="14.6804740">
        <ele>4.9400000</ele>
        <time>2013-06-13T06:18:30Z</time>
      </trkpt>
      <trkpt lat="38.5326810" lon="14.6806810">
        <ele>4.9400000</ele>
        <time>2013-06-13T06:18:44Z</time>
      </trkpt>
      <trkpt lat="38.5324480" lon="14.6809250">
        <ele>4.9400000</ele>
        <time>2013-06-13T06:19:00Z</time>
      </trkpt>
      <trkpt lat="38.5322070" lon="14.6811610">
        <ele>4.9400000</ele>
        <time>2013-06-13T06:19:14Z</time>
      </trkpt>
      <trkpt lat="38.5319600" lon="14.6814050">
        <ele>4.4600000</ele>
        <time>2013-06-13T06:19:30Z</time>
      </trkpt>
      <trkpt lat="38.5317540" lon="14.6816260">
        <ele>4.4600000</ele>
        <time>2013-06-13T06:19:45Z</time>
      </trkpt>
      <trkpt lat="38.5315440" lon="14.6818970">
        <ele>4.4600000</ele>
        <time>2013-06-13T06:20:04Z</time>
      </trkpt>
      <trkpt lat="38.5313870" lon="14.6820910">
        <ele>3.9800000</ele>
        <time>2013-06-13T06:20:19Z</time>
      </trkpt>
      <trkpt lat="38.5312080" lon="14.6823210">
        <ele>4.4600000</ele>
        <time>2013-06-13T06:20:36Z</time>
      </trkpt>
      <trkpt lat="38.5310290" lon="14.6825560">
        <ele>4.4600000</ele>
        <time>2013-06-13T06:20:52Z</time>
      </trkpt>
      <trkpt lat="38.5308040" lon="14.6827970">
        <ele>3.9800000</ele>
        <time>2013-06-13T06:21:10Z</time>
      </trkpt>
      <trkpt lat="38.5289310" lon="14.6849300">
        <ele>3.5000000</ele>
        <time>2013-06-13T06:23:57Z</time>
      </trkpt>
      <trkpt lat="38.5287020" lon="14.6850260">
        <ele>5.9100000</ele>
        <time>2013-06-13T06:24:13Z</time>
      </trkpt>
      <trkpt lat="38.5284810" lon="14.6850940">
        <ele>7.3500000</ele>
        <time>2013-06-13T06:24:29Z</time>
      </trkpt>
      <trkpt lat="38.5282170" lon="14.6852500">
        <ele>8.3100000</ele>
        <time>2013-06-13T06:24:50Z</time>
      </trkpt>
      <trkpt lat="38.5280230" lon="14.6854250">
        <ele>8.7900000</ele>
        <time>2013-06-13T06:25:08Z</time>
      </trkpt>
      <trkpt lat="38.5278510" lon="14.6855360">
        <ele>8.3100000</ele>
        <time>2013-06-13T06:25:25Z</time>
      </trkpt>
      <trkpt lat="38.5276180" lon="14.6856160">
        <ele>8.7900000</ele>
        <time>2013-06-13T06:25:43Z</time>
      </trkpt>
      <trkpt lat="38.5274470" lon="14.6856620">
        <ele>8.3100000</ele>
        <time>2013-06-13T06:25:56Z</time>
      </trkpt>
      <trkpt lat="38.5272220" lon="14.6857380">
        <ele>8.7900000</ele>
        <time>2013-06-13T06:26:12Z</time>
      </trkpt>
      <trkpt lat="38.5270160" lon="14.6857820">
        <ele>9.2700000</ele>
        <time>2013-06-13T06:26:26Z</time>
      </trkpt>
      <trkpt lat="38.5267680" lon="14.6858470">
        <ele>9.2700000</ele>
        <time>2013-06-13T06:26:42Z</time>
      </trkpt>
      <trkpt lat="38.5265120" lon="14.6858980">
        <ele>8.3100000</ele>
        <time>2013-06-13T06:26:58Z</time>
      </trkpt>
      <trkpt lat="38.5263100" lon="14.6860050">
        <ele>8.3100000</ele>
        <time>2013-06-13T06:27:12Z</time>
      </trkpt>
      <trkpt lat="38.5260770" lon="14.6861140">
        <ele>8.3100000</ele>
        <time>2013-06-13T06:27:29Z</time>
      </trkpt>
      <trkpt lat="38.5259900" lon="14.6861490">
        <ele>8.3100000</ele>
        <time>2013-06-13T06:27:35Z</time>
      </trkpt>
      <trkpt lat="38.5258870" lon="14.6861790">
        <ele>8.3100000</ele>
        <time>2013-06-13T06:27:42Z</time>
      </trkpt>
      <trkpt lat="38.5256920" lon="14.6862300">
        <ele>8.7900000</ele>
        <time>2013-06-13T06:27:55Z</time>
      </trkpt>
      <trkpt lat="38.5254400" lon="14.6863340">
        <ele>8.7900000</ele>
        <time>2013-06-13T06:28:10Z</time>
      </trkpt>
      <trkpt lat="38.5252270" lon="14.6865500">
        <ele>8.7900000</ele>
        <time>2013-06-13T06:28:27Z</time>
      </trkpt>
      <trkpt lat="38.5250590" lon="14.6867260">
        <ele>9.2700000</ele>
        <time>2013-06-13T06:28:42Z</time>
      </trkpt>
      <trkpt lat="38.5248490" lon="14.6868670">
        <ele>8.3100000</ele>
        <time>2013-06-13T06:28:58Z</time>
      </trkpt>
      <trkpt lat="38.5246510" lon="14.6869590">
        <ele>8.7900000</ele>
        <time>2013-06-13T06:29:11Z</time>
      </trkpt>
      <trkpt lat="38.5245360" lon="14.6869950">
        <ele>8.3100000</ele>
        <time>2013-06-13T06:29:18Z</time>
      </trkpt>
      <trkpt lat="38.5242880" lon="14.6871420">
        <ele>8.3100000</ele>
        <time>2013-06-13T06:29:33Z</time>
      </trkpt>
      <trkpt lat="38.5240820" lon="14.6873410">
        <ele>8.7900000</ele>
        <time>2013-06-13T06:29:48Z</time>
      </trkpt>
      <trkpt lat="38.5239260" lon="14.6875750">
        <ele>8.7900000</ele>
        <time>2013-06-13T06:30:04Z</time>
      </trkpt>
      <trkpt lat="38.5237430" lon="14.6877930">
        <ele>8.7900000</ele>
        <time>2013-06-13T06:30:19Z</time>
      </trkpt>
      <trkpt lat="38.5234910" lon="14.6881010">
        <ele>8.7900000</ele>
        <time>2013-06-13T06:30:36Z</time>
      </trkpt>
      <trkpt lat="38.5232470" lon="14.6884140">
        <ele>8.7900000</ele>
        <time>2013-06-13T06:30:51Z</time>
      </trkpt>
      <trkpt lat="38.5228880" lon="14.6887150">
        <ele>9.2700000</ele>
        <time>2013-06-13T06:31:09Z</time>
      </trkpt>
      <trkpt lat="38.5225300" lon="14.6889550">
        <ele>9.2700000</ele>
        <time>2013-06-13T06:31:25Z</time>
      </trkpt>
      <trkpt lat="38.5221940" lon="14.6891750">
        <ele>9.7500000</ele>
        <time>2013-06-13T06:31:39Z</time>
      </trkpt>
      <trkpt lat="38.5219150" lon="14.6894430">
        <ele>9.2700000</ele>
        <time>2013-06-13T06:31:52Z</time>
      </trkpt>
      <trkpt lat="38.5217400" lon="14.6898290">
        <ele>9.2700000</ele>
        <time>2013-06-13T06:32:07Z</time>
      </trkpt>
      <trkpt lat="38.5215340" lon="14.6901380">
        <ele>8.7900000</ele>
        <time>2013-06-13T06:32:22Z</time>
      </trkpt>
      <trkpt lat="38.5213700" lon="14.6904560">
        <ele>8.3100000</ele>
        <time>2013-06-13T06:32:37Z</time>
      </trkpt>
      <trkpt lat="38.5211940" lon="14.6907460">
        <ele>8.7900000</ele>
        <time>2013-06-13T06:32:52Z</time>
      </trkpt>
      <trkpt lat="38.5209430" lon="14.6911240">
        <ele>9.2700000</ele>
        <time>2013-06-13T06:33:10Z</time>
      </trkpt>
      <trkpt lat="38.5207630" lon="14.6914130">
        <ele>8.7900000</ele>
        <time>2013-06-13T06:33:24Z</time>
      </trkpt>
      <trkpt lat="38.5205650" lon="14.6916580">
        <ele>8.7900000</ele>
        <time>2013-06-13T06:33:36Z</time>
      </trkpt>
      <trkpt lat="38.5203090" lon="14.6920830">
        <ele>9.2700000</ele>
        <time>2013-06-13T06:33:54Z</time>
      </trkpt>
      <trkpt lat="38.5201530" lon="14.6924140">
        <ele>8.7900000</ele>
        <time>2013-06-13T06:34:08Z</time>
      </trkpt>
      <trkpt lat="38.5199780" lon="14.6927130">
        <ele>8.7900000</ele>
        <time>2013-06-13T06:34:21Z</time>
      </trkpt>
      <trkpt lat="38.5197070" lon="14.6931360">
        <ele>8.7900000</ele>
        <time>2013-06-13T06:34:39Z</time>
      </trkpt>
      <trkpt lat="38.5194630" lon="14.6935790">
        <ele>8.7900000</ele>
        <time>2013-06-13T06:34:57Z</time>
      </trkpt>
      <trkpt lat="38.5192300" lon="14.6940500">
        <ele>8.7900000</ele>
        <time>2013-06-13T06:35:16Z</time>
      </trkpt>
      <trkpt lat="38.5190890" lon="14.6943820">
        <ele>8.7900000</ele>
        <time>2013-06-13T06:35:30Z</time>
      </trkpt>
      <trkpt lat="38.5189290" lon="14.6947060">
        <ele>8.3100000</ele>
        <time>2013-06-13T06:35:45Z</time>
      </trkpt>
      <trkpt lat="38.5187000" lon="14.6950740">
        <ele>8.7900000</ele>
        <time>2013-06-13T06:36:03Z</time>
      </trkpt>
      <trkpt lat="38.5183370" lon="14.6955330">
        <ele>8.3100000</ele>
        <time>2013-06-13T06:36:25Z</time>
      </trkpt>
      <trkpt lat="38.5179900" lon="14.6960930">
        <ele>8.3100000</ele>
        <time>2013-06-13T06:36:50Z</time>
      </trkpt>
      <trkpt lat="38.5176470" lon="14.6965630">
        <ele>8.7900000</ele>
        <time>2013-06-13T06:37:12Z</time>
      </trkpt>
      <trkpt lat="38.5172960" lon="14.6970430">
        <ele>8.7900000</ele>
        <time>2013-06-13T06:37:36Z</time>
      </trkpt>
      <trkpt lat="38.5169140" lon="14.6975150">
        <ele>8.7900000</ele>
        <time>2013-06-13T06:38:01Z</time>
      </trkpt>
      <trkpt lat="38.5166170" lon="14.6979230">
        <ele>8.3100000</ele>
        <time>2013-06-13T06:38:22Z</time>
      </trkpt>
      <trkpt lat="38.5161780" lon="14.6983890">
        <ele>8.3100000</ele>
        <time>2013-06-13T06:38:48Z</time>
      </trkpt>
      <trkpt lat="38.5158080" lon="14.6988700">
        <ele>8.3100000</ele>
        <time>2013-06-13T06:39:10Z</time>
      </trkpt>
      <trkpt lat="38.5154190" lon="14.6992970">
        <ele>8.3100000</ele>
        <time>2013-06-13T06:39:33Z</time>
      </trkpt>
      <trkpt lat="38.5150260" lon="14.6996420">
        <ele>7.8300000</ele>
        <time>2013-06-13T06:39:53Z</time>
      </trkpt>
      <trkpt lat="38.5146370" lon="14.7000450">
        <ele>7.8300000</ele>
        <time>2013-06-13T06:40:14Z</time>
      </trkpt>
      <trkpt lat="38.5142780" lon="14.7004650">
        <ele>7.8300000</ele>
        <time>2013-06-13T06:40:35Z</time>
      </trkpt>
      <trkpt lat="38.5139310" lon="14.7008440">
        <ele>7.8300000</ele>
        <time>2013-06-13T06:40:54Z</time>
      </trkpt>
      <trkpt lat="38.5135960" lon="14.7012270">
        <ele>7.8300000</ele>
        <time>2013-06-13T06:41:14Z</time>
      </trkpt>
      <trkpt lat="38.5132100" lon="14.7016190">
        <ele>8.3100000</ele>
        <time>2013-06-13T06:41:36Z</time>
      </trkpt>
      <trkpt lat="38.5129590" lon="14.7020990">
        <ele>7.3500000</ele>
        <time>2013-06-13T06:41:58Z</time>
      </trkpt>
      <trkpt lat="38.5126880" lon="14.7025540">
        <ele>7.3500000</ele>
        <time>2013-06-13T06:42:23Z</time>
      </trkpt>
      <trkpt lat="38.5123940" lon="14.7030320">
        <ele>7.8300000</ele>
        <time>2013-06-13T06:42:46Z</time>
      </trkpt>
      <trkpt lat="38.5121610" lon="14.7035470">
        <ele>7.8300000</ele>
        <time>2013-06-13T06:43:12Z</time>
      </trkpt>
      <trkpt lat="38.5118830" lon="14.7040200">
        <ele>7.3500000</ele>
        <time>2013-06-13T06:43:37Z</time>
      </trkpt>
      <trkpt lat="38.5115550" lon="14.7045370">
        <ele>7.8300000</ele>
        <time>2013-06-13T06:44:03Z</time>
      </trkpt>
      <trkpt lat="38.5113220" lon="14.7050060">
        <ele>7.8300000</ele>
        <time>2013-06-13T06:44:26Z</time>
      </trkpt>
      <trkpt lat="38.5109790" lon="14.7054410">
        <ele>7.8300000</ele>
        <time>2013-06-13T06:44:51Z</time>
      </trkpt>
      <trkpt lat="38.5105590" lon="14.7057700">
        <ele>8.3100000</ele>
        <time>2013-06-13T06:45:14Z</time>
      </trkpt>
      <trkpt lat="38.5101700" lon="14.7061980">
        <ele>7.8300000</ele>
        <time>2013-06-13T06:45:38Z</time>
      </trkpt>
      <trkpt lat="38.5098760" lon="14.7066430">
        <ele>7.8300000</ele>
        <time>2013-06-13T06:46:00Z</time>
      </trkpt>
      <trkpt lat="38.5095410" lon="14.7071630">
        <ele>7.8300000</ele>
        <time>2013-06-13T06:46:24Z</time>
      </trkpt>
      <trkpt lat="38.5091970" lon="14.7077260">
        <ele>7.3500000</ele>
        <time>2013-06-13T06:46:50Z</time>
      </trkpt>
      <trkpt lat="38.5089000" lon="14.7082010">
        <ele>7.3500000</ele>
        <time>2013-06-13T06:47:13Z</time>
      </trkpt>
      <trkpt lat="38.5085450" lon="14.7086510">
        <ele>7.8300000</ele>
        <time>2013-06-13T06:47:36Z</time>
      </trkpt>
      <trkpt lat="38.5081630" lon="14.7091590">
        <ele>7.8300000</ele>
        <time>2013-06-13T06:47:58Z</time>
      </trkpt>
      <trkpt lat="38.5079040" lon="14.7096800">
        <ele>7.3500000</ele>
        <time>2013-06-13T06:48:21Z</time>
      </trkpt>
      <trkpt lat="38.5076480" lon="14.7100840">
        <ele>7.3500000</ele>
        <time>2013-06-13T06:48:41Z</time>
      </trkpt>
      <trkpt lat="38.5073200" lon="14.7105210">
        <ele>7.3500000</ele>
        <time>2013-06-13T06:49:03Z</time>
      </trkpt>
      <trkpt lat="38.5069390" lon="14.7110710">
        <ele>7.3500000</ele>
        <time>2013-06-13T06:49:28Z</time>
      </trkpt>
      <trkpt lat="38.5066530" lon="14.7116180">
        <ele>7.3500000</ele>
        <time>2013-06-13T06:49:51Z</time>
      </trkpt>
      <trkpt lat="38.5062830" lon="14.7121590">
        <ele>7.3500000</ele>
        <time>2013-06-13T06:50:17Z</time>
      </trkpt>
      <trkpt lat="38.5059700" lon="14.7126850">
        <ele>6.8700000</ele>
        <time>2013-06-13T06:50:41Z</time>
      </trkpt>
      <trkpt lat="38.5056990" lon="14.7131700">
        <ele>6.8700000</ele>
        <time>2013-06-13T06:51:04Z</time>
      </trkpt>
      <trkpt lat="38.5053670" lon="14.7136630">
        <ele>6.8700000</ele>
        <time>2013-06-13T06:51:27Z</time>
      </trkpt>
      <trkpt lat="38.5051230" lon="14.7141290">
        <ele>6.8700000</ele>
        <time>2013-06-13T06:51:49Z</time>
      </trkpt>
      <trkpt lat="38.5048450" lon="14.7146060">
        <ele>6.8700000</ele>
        <time>2013-06-13T06:52:11Z</time>
      </trkpt>
      <trkpt lat="38.5045590" lon="14.7150880">
        <ele>6.3900000</ele>
        <time>2013-06-13T06:52:32Z</time>
      </trkpt>
      <trkpt lat="38.5042380" lon="14.7155380">
        <ele>6.8700000</ele>
        <time>2013-06-13T06:52:54Z</time>
      </trkpt>
      <trkpt lat="38.5038800" lon="14.7161090">
        <ele>6.8700000</ele>
        <time>2013-06-13T06:53:19Z</time>
      </trkpt>
      <trkpt lat="38.5035780" lon="14.7166170">
        <ele>6.8700000</ele>
        <time>2013-06-13T06:53:42Z</time>
      </trkpt>
      <trkpt lat="38.5032460" lon="14.7170900">
        <ele>5.9100000</ele>
        <time>2013-06-13T06:54:06Z</time>
      </trkpt>
      <trkpt lat="38.5028920" lon="14.7175820">
        <ele>5.9100000</ele>
        <time>2013-06-13T06:54:29Z</time>
      </trkpt>
      <trkpt lat="38.5028340" lon="14.7176870">
        <ele>7.8300000</ele>
        <time>2013-06-13T06:54:34Z</time>
      </trkpt>
      <trkpt lat="38.5025290" lon="14.7182070">
        <ele>6.8700000</ele>
        <time>2013-06-13T06:54:59Z</time>
      </trkpt>
      <trkpt lat="38.5022090" lon="14.7187310">
        <ele>6.3900000</ele>
        <time>2013-06-13T06:55:23Z</time>
      </trkpt>
      <trkpt lat="38.5019260" lon="14.7191560">
        <ele>6.8700000</ele>
        <time>2013-06-13T06:55:44Z</time>
      </trkpt>
      <trkpt lat="38.5016020" lon="14.7195910">
        <ele>6.8700000</ele>
        <time>2013-06-13T06:56:04Z</time>
      </trkpt>
      <trkpt lat="38.5012360" lon="14.7201360">
        <ele>6.8700000</ele>
        <time>2013-06-13T06:56:29Z</time>
      </trkpt>
      <trkpt lat="38.5009460" lon="14.7206140">
        <ele>6.8700000</ele>
        <time>2013-06-13T06:56:53Z</time>
      </trkpt>
      <trkpt lat="38.5006680" lon="14.7210280">
        <ele>6.3900000</ele>
        <time>2013-06-13T06:57:14Z</time>
      </trkpt>
      <trkpt lat="38.5002940" lon="14.7214490">
        <ele>6.3900000</ele>
        <time>2013-06-13T06:57:37Z</time>
      </trkpt>
      <trkpt lat="38.5000150" lon="14.7218920">
        <ele>6.3900000</ele>
        <time>2013-06-13T06:57:58Z</time>
      </trkpt>
      <trkpt lat="38.4997790" lon="14.7223530">
        <ele>6.8700000</ele>
        <time>2013-06-13T06:58:20Z</time>
      </trkpt>
      <trkpt lat="38.4994620" lon="14.7227790">
        <ele>6.3900000</ele>
        <time>2013-06-13T06:58:41Z</time>
      </trkpt>
      <trkpt lat="38.4990460" lon="14.7231790">
        <ele>6.3900000</ele>
        <time>2013-06-13T06:59:03Z</time>
      </trkpt>
      <trkpt lat="38.4987410" lon="14.7236760">
        <ele>5.9100000</ele>
        <time>2013-06-13T06:59:25Z</time>
      </trkpt>
      <trkpt lat="38.4985050" lon="14.7241250">
        <ele>6.8700000</ele>
        <time>2013-06-13T06:59:47Z</time>
      </trkpt>
      <trkpt lat="38.4982190" lon="14.7245430">
        <ele>6.3900000</ele>
        <time>2013-06-13T07:00:09Z</time>
      </trkpt>
      <trkpt lat="38.4978830" lon="14.7249980">
        <ele>6.3900000</ele>
        <time>2013-06-13T07:00:30Z</time>
      </trkpt>
      <trkpt lat="38.4976580" lon="14.7254710">
        <ele>6.3900000</ele>
        <time>2013-06-13T07:00:51Z</time>
      </trkpt>
      <trkpt lat="38.4974060" lon="14.7259090">
        <ele>6.3900000</ele>
        <time>2013-06-13T07:01:14Z</time>
      </trkpt>
      <trkpt lat="38.4971200" lon="14.7262990">
        <ele>6.8700000</ele>
        <time>2013-06-13T07:01:34Z</time>
      </trkpt>
      <trkpt lat="38.4967230" lon="14.7267690">
        <ele>6.8700000</ele>
        <time>2013-06-13T07:01:58Z</time>
      </trkpt>
      <trkpt lat="38.4964220" lon="14.7272930">
        <ele>6.3900000</ele>
        <time>2013-06-13T07:02:21Z</time>
      </trkpt>
      <trkpt lat="38.4961620" lon="14.7277360">
        <ele>6.8700000</ele>
        <time>2013-06-13T07:02:45Z</time>
      </trkpt>
      <trkpt lat="38.4958310" lon="14.7282080">
        <ele>6.3900000</ele>
        <time>2013-06-13T07:03:07Z</time>
      </trkpt>
      <trkpt lat="38.4954760" lon="14.7287180">
        <ele>6.8700000</ele>
        <time>2013-06-13T07:03:31Z</time>
      </trkpt>
      <trkpt lat="38.4951440" lon="14.7292920">
        <ele>6.3900000</ele>
        <time>2013-06-13T07:03:56Z</time>
      </trkpt>
      <trkpt lat="38.4948810" lon="14.7296930">
        <ele>6.8700000</ele>
        <time>2013-06-13T07:04:17Z</time>
      </trkpt>
      <trkpt lat="38.4945760" lon="14.7299970">
        <ele>6.8700000</ele>
        <time>2013-06-13T07:04:38Z</time>
      </trkpt>
      <trkpt lat="38.4942320" lon="14.7304280">
        <ele>6.8700000</ele>
        <time>2013-06-13T07:05:00Z</time>
      </trkpt>
      <trkpt lat="38.4938050" lon="14.7309480">
        <ele>7.3500000</ele>
        <time>2013-06-13T07:05:26Z</time>
      </trkpt>
      <trkpt lat="38.4934460" lon="14.7313000">
        <ele>7.3500000</ele>
        <time>2013-06-13T07:05:47Z</time>
      </trkpt>
      <trkpt lat="38.4930570" lon="14.7316820">
        <ele>7.3500000</ele>
        <time>2013-06-13T07:06:10Z</time>
      </trkpt>
      <trkpt lat="38.4927480" lon="14.7321610">
        <ele>7.3500000</ele>
        <time>2013-06-13T07:06:34Z</time>
      </trkpt>
      <trkpt lat="38.4924010" lon="14.7326040">
        <ele>7.3500000</ele>
        <time>2013-06-13T07:06:56Z</time>
      </trkpt>
      <trkpt lat="38.4921000" lon="14.7330880">
        <ele>7.3500000</ele>
        <time>2013-06-13T07:07:17Z</time>
      </trkpt>
      <trkpt lat="38.4918060" lon="14.7336220">
        <ele>6.8700000</ele>
        <time>2013-06-13T07:07:41Z</time>
      </trkpt>
      <trkpt lat="38.4915200" lon="14.7339980">
        <ele>6.8700000</ele>
        <time>2013-06-13T07:08:02Z</time>
      </trkpt>
      <trkpt lat="38.4911800" lon="14.7345260">
        <ele>7.3500000</ele>
        <time>2013-06-13T07:08:27Z</time>
      </trkpt>
      <trkpt lat="38.4909020" lon="14.7350030">
        <ele>6.8700000</ele>
        <time>2013-06-13T07:08:51Z</time>
      </trkpt>
      <trkpt lat="38.4905700" lon="14.7354770">
        <ele>6.8700000</ele>
        <time>2013-06-13T07:09:17Z</time>
      </trkpt>
      <trkpt lat="38.4902460" lon="14.7359260">
        <ele>6.8700000</ele>
        <time>2013-06-13T07:09:41Z</time>
      </trkpt>
      <trkpt lat="38.4898570" lon="14.7364400">
        <ele>6.8700000</ele>
        <time>2013-06-13T07:10:05Z</time>
      </trkpt>
      <trkpt lat="38.4895940" lon="14.7369360">
        <ele>6.3900000</ele>
        <time>2013-06-13T07:10:29Z</time>
      </trkpt>
      <trkpt lat="38.4893340" lon="14.7373430">
        <ele>6.8700000</ele>
        <time>2013-06-13T07:10:50Z</time>
      </trkpt>
      <trkpt lat="38.4889340" lon="14.7377120">
        <ele>6.8700000</ele>
        <time>2013-06-13T07:11:12Z</time>
      </trkpt>
      <trkpt lat="38.4886360" lon="14.7382760">
        <ele>6.3900000</ele>
        <time>2013-06-13T07:11:37Z</time>
      </trkpt>
      <trkpt lat="38.4883040" lon="14.7388540">
        <ele>6.8700000</ele>
        <time>2013-06-13T07:12:03Z</time>
      </trkpt>
      <trkpt lat="38.4880520" lon="14.7392590">
        <ele>6.3900000</ele>
        <time>2013-06-13T07:12:23Z</time>
      </trkpt>
      <trkpt lat="38.4878430" lon="14.7397380">
        <ele>6.8700000</ele>
        <time>2013-06-13T07:12:45Z</time>
      </trkpt>
      <trkpt lat="38.4875110" lon="14.7401530">
        <ele>6.3900000</ele>
        <time>2013-06-13T07:13:11Z</time>
      </trkpt>
      <trkpt lat="38.4872280" lon="14.7405860">
        <ele>5.9100000</ele>
        <time>2013-06-13T07:13:34Z</time>
      </trkpt>
      <trkpt lat="38.4869840" lon="14.7409950">
        <ele>6.3900000</ele>
        <time>2013-06-13T07:13:59Z</time>
      </trkpt>
      <trkpt lat="38.4867100" lon="14.7415080">
        <ele>6.3900000</ele>
        <time>2013-06-13T07:14:23Z</time>
      </trkpt>
      <trkpt lat="38.4864390" lon="14.7419560">
        <ele>5.9100000</ele>
        <time>2013-06-13T07:14:46Z</time>
      </trkpt>
      <trkpt lat="38.4861410" lon="14.7424640">
        <ele>6.3900000</ele>
        <time>2013-06-13T07:15:11Z</time>
      </trkpt>
      <trkpt lat="38.4858250" lon="14.7429070">
        <ele>6.3900000</ele>
        <time>2013-06-13T07:15:35Z</time>
      </trkpt>
      <trkpt lat="38.4854930" lon="14.7434120">
        <ele>6.3900000</ele>
        <time>2013-06-13T07:16:01Z</time>
      </trkpt>
      <trkpt lat="38.4851610" lon="14.7439050">
        <ele>6.3900000</ele>
        <time>2013-06-13T07:16:26Z</time>
      </trkpt>
      <trkpt lat="38.4849050" lon="14.7443660">
        <ele>6.3900000</ele>
        <time>2013-06-13T07:16:49Z</time>
      </trkpt>
      <trkpt lat="38.4846420" lon="14.7448010">
        <ele>6.3900000</ele>
        <time>2013-06-13T07:17:12Z</time>
      </trkpt>
      <trkpt lat="38.4844090" lon="14.7451740">
        <ele>6.3900000</ele>
        <time>2013-06-13T07:17:35Z</time>
      </trkpt>
      <trkpt lat="38.4841460" lon="14.7454910">
        <ele>6.3900000</ele>
        <time>2013-06-13T07:17:54Z</time>
      </trkpt>
      <trkpt lat="38.4838450" lon="14.7458970">
        <ele>5.9100000</ele>
        <time>2013-06-13T07:18:16Z</time>
      </trkpt>
      <trkpt lat="38.4834820" lon="14.7463480">
        <ele>6.3900000</ele>
        <time>2013-06-13T07:18:42Z</time>
      </trkpt>
      <trkpt lat="38.4832610" lon="14.7467560">
        <ele>6.3900000</ele>
        <time>2013-06-13T07:19:05Z</time>
      </trkpt>
      <trkpt lat="38.4829900" lon="14.7471730">
        <ele>6.3900000</ele>
        <time>2013-06-13T07:19:31Z</time>
      </trkpt>
      <trkpt lat="38.4826510" lon="14.7475790">
        <ele>6.3900000</ele>
        <time>2013-06-13T07:19:56Z</time>
      </trkpt>
      <trkpt lat="38.4823950" lon="14.7480540">
        <ele>6.3900000</ele>
        <time>2013-06-13T07:20:21Z</time>
      </trkpt>
      <trkpt lat="38.4821240" lon="14.7484610">
        <ele>6.3900000</ele>
        <time>2013-06-13T07:20:43Z</time>
      </trkpt>
      <trkpt lat="38.4818990" lon="14.7488030">
        <ele>5.9100000</ele>
        <time>2013-06-13T07:21:03Z</time>
      </trkpt>
      <trkpt lat="38.4816630" lon="14.7492290">
        <ele>6.3900000</ele>
        <time>2013-06-13T07:21:29Z</time>
      </trkpt>
      <trkpt lat="38.4813800" lon="14.7496270">
        <ele>6.3900000</ele>
        <time>2013-06-13T07:21:53Z</time>
      </trkpt>
      <trkpt lat="38.4811330" lon="14.7499650">
        <ele>5.9100000</ele>
        <time>2013-06-13T07:22:15Z</time>
      </trkpt>
      <trkpt lat="38.4809040" lon="14.7504210">
        <ele>6.3900000</ele>
        <time>2013-06-13T07:22:41Z</time>
      </trkpt>
      <trkpt lat="38.4806590" lon="14.7508050">
        <ele>5.9100000</ele>
        <time>2013-06-13T07:23:05Z</time>
      </trkpt>
      <trkpt lat="38.4803960" lon="14.7511850">
        <ele>6.3900000</ele>
        <time>2013-06-13T07:23:28Z</time>
      </trkpt>
      <trkpt lat="38.4801250" lon="14.7516540">
        <ele>5.9100000</ele>
        <time>2013-06-13T07:23:56Z</time>
      </trkpt>
      <trkpt lat="38.4798890" lon="14.7520740">
        <ele>5.9100000</ele>
        <time>2013-06-13T07:24:19Z</time>
      </trkpt>
      <trkpt lat="38.4796220" lon="14.7524970">
        <ele>5.9100000</ele>
        <time>2013-06-13T07:24:44Z</time>
      </trkpt>
      <trkpt lat="38.4793050" lon="14.7529880">
        <ele>6.3900000</ele>
        <time>2013-06-13T07:25:10Z</time>
      </trkpt>
      <trkpt lat="38.4790610" lon="14.7533410">
        <ele>5.9100000</ele>
        <time>2013-06-13T07:25:32Z</time>
      </trkpt>
      <trkpt lat="38.4787410" lon="14.7538530">
        <ele>5.4200000</ele>
        <time>2013-06-13T07:25:57Z</time>
      </trkpt>
      <trkpt lat="38.4784890" lon="14.7543010">
        <ele>5.9100000</ele>
        <time>2013-06-13T07:26:21Z</time>
      </trkpt>
      <trkpt lat="38.4781990" lon="14.7546910">
        <ele>5.9100000</ele>
        <time>2013-06-13T07:26:46Z</time>
      </trkpt>
      <trkpt lat="38.4779660" lon="14.7550460">
        <ele>5.9100000</ele>
        <time>2013-06-13T07:27:08Z</time>
      </trkpt>
      <trkpt lat="38.4776460" lon="14.7554690">
        <ele>5.9100000</ele>
        <time>2013-06-13T07:27:34Z</time>
      </trkpt>
      <trkpt lat="38.4773480" lon="14.7559030">
        <ele>5.9100000</ele>
        <time>2013-06-13T07:27:56Z</time>
      </trkpt>
      <trkpt lat="38.4770360" lon="14.7562710">
        <ele>6.3900000</ele>
        <time>2013-06-13T07:28:18Z</time>
      </trkpt>
      <trkpt lat="38.4767380" lon="14.7567340">
        <ele>5.9100000</ele>
        <time>2013-06-13T07:28:44Z</time>
      </trkpt>
      <trkpt lat="38.4764180" lon="14.7571460">
        <ele>5.9100000</ele>
        <time>2013-06-13T07:29:08Z</time>
      </trkpt>
      <trkpt lat="38.4760320" lon="14.7575970">
        <ele>6.3900000</ele>
        <time>2013-06-13T07:29:36Z</time>
      </trkpt>
      <trkpt lat="38.4757120" lon="14.7578900">
        <ele>5.9100000</ele>
        <time>2013-06-13T07:29:56Z</time>
      </trkpt>
      <trkpt lat="38.4754710" lon="14.7582880">
        <ele>6.3900000</ele>
        <time>2013-06-13T07:30:17Z</time>
      </trkpt>
      <trkpt lat="38.4751740" lon="14.7587610">
        <ele>6.3900000</ele>
        <time>2013-06-13T07:30:42Z</time>
      </trkpt>
      <trkpt lat="38.4748540" lon="14.7591560">
        <ele>6.3900000</ele>
        <time>2013-06-13T07:31:05Z</time>
      </trkpt>
      <trkpt lat="38.4745980" lon="14.7596500">
        <ele>6.8700000</ele>
        <time>2013-06-13T07:31:30Z</time>
      </trkpt>
      <trkpt lat="38.4743390" lon="14.7601540">
        <ele>6.8700000</ele>
        <time>2013-06-13T07:31:56Z</time>
      </trkpt>
      <trkpt lat="38.4740180" lon="14.7606040">
        <ele>6.8700000</ele>
        <time>2013-06-13T07:32:21Z</time>
      </trkpt>
      <trkpt lat="38.4737430" lon="14.7610570">
        <ele>7.3500000</ele>
        <time>2013-06-13T07:32:44Z</time>
      </trkpt>
      <trkpt lat="38.4734610" lon="14.7615240">
        <ele>6.8700000</ele>
        <time>2013-06-13T07:33:10Z</time>
      </trkpt>
      <trkpt lat="38.4731860" lon="14.7619990">
        <ele>7.3500000</ele>
        <time>2013-06-13T07:33:36Z</time>
      </trkpt>
      <trkpt lat="38.4728780" lon="14.7623610">
        <ele>7.3500000</ele>
        <time>2013-06-13T07:33:58Z</time>
      </trkpt>
      <trkpt lat="38.4725150" lon="14.7628330">
        <ele>7.8300000</ele>
        <time>2013-06-13T07:34:24Z</time>
      </trkpt>
      <trkpt lat="38.4721640" lon="14.7633210">
        <ele>7.3500000</ele>
        <time>2013-06-13T07:34:51Z</time>
      </trkpt>
      <trkpt lat="38.4718670" lon="14.7637850">
        <ele>7.8300000</ele>
        <time>2013-06-13T07:35:18Z</time>
      </trkpt>
      <trkpt lat="38.4715580" lon="14.7642320">
        <ele>7.8300000</ele>
        <time>2013-06-13T07:35:43Z</time>
      </trkpt>
      <trkpt lat="38.4712370" lon="14.7647000">
        <ele>7.8300000</ele>
        <time>2013-06-13T07:36:09Z</time>
      </trkpt>
      <trkpt lat="38.4708900" lon="14.7651850">
        <ele>7.8300000</ele>
        <time>2013-06-13T07:36:36Z</time>
      </trkpt>
      <trkpt lat="38.4706000" lon="14.7656400">
        <ele>8.3100000</ele>
        <time>2013-06-13T07:37:00Z</time>
      </trkpt>
      <trkpt lat="38.4703750" lon="14.7660360">
        <ele>7.8300000</ele>
        <time>2013-06-13T07:37:24Z</time>
      </trkpt>
      <trkpt lat="38.4701420" lon="14.7664400">
        <ele>8.3100000</ele>
        <time>2013-06-13T07:37:47Z</time>
      </trkpt>
      <trkpt lat="38.4698030" lon="14.7669060">
        <ele>7.8300000</ele>
        <time>2013-06-13T07:38:12Z</time>
      </trkpt>
      <trkpt lat="38.4694900" lon="14.7673440">
        <ele>7.8300000</ele>
        <time>2013-06-13T07:38:38Z</time>
      </trkpt>
      <trkpt lat="38.4692080" lon="14.7678140">
        <ele>7.8300000</ele>
        <time>2013-06-13T07:39:05Z</time>
      </trkpt>
      <trkpt lat="38.4689600" lon="14.7682120">
        <ele>8.3100000</ele>
        <time>2013-06-13T07:39:29Z</time>
      </trkpt>
      <trkpt lat="38.4685970" lon="14.7686410">
        <ele>7.8300000</ele>
        <time>2013-06-13T07:39:56Z</time>
      </trkpt>
      <trkpt lat="38.4682430" lon="14.7691900">
        <ele>6.8700000</ele>
        <time>2013-06-13T07:40:24Z</time>
      </trkpt>
      <trkpt lat="38.4681130" lon="14.7694430">
        <ele>7.3500000</ele>
        <time>2013-06-13T07:40:38Z</time>
      </trkpt>
      <trkpt lat="38.4679640" lon="14.7697910">
        <ele>7.3500000</ele>
        <time>2013-06-13T07:40:57Z</time>
      </trkpt>
      <trkpt lat="38.4678120" lon="14.7699910">
        <ele>7.3500000</ele>
        <time>2013-06-13T07:41:10Z</time>
      </trkpt>
      <trkpt lat="38.4676020" lon="14.7703220">
        <ele>7.8300000</ele>
        <time>2013-06-13T07:41:30Z</time>
      </trkpt>
      <trkpt lat="38.4674340" lon="14.7706480">
        <ele>7.8300000</ele>
        <time>2013-06-13T07:41:48Z</time>
      </trkpt>
      <trkpt lat="38.4672810" lon="14.7709630">
        <ele>7.8300000</ele>
        <time>2013-06-13T07:42:05Z</time>
      </trkpt>
      <trkpt lat="38.4671290" lon="14.7713560">
        <ele>7.3500000</ele>
        <time>2013-06-13T07:42:27Z</time>
      </trkpt>
      <trkpt lat="38.4669460" lon="14.7717140">
        <ele>7.3500000</ele>
        <time>2013-06-13T07:42:47Z</time>
      </trkpt>
      <trkpt lat="38.4667400" lon="14.7720680">
        <ele>7.3500000</ele>
        <time>2013-06-13T07:43:05Z</time>
      </trkpt>
      <trkpt lat="38.4665260" lon="14.7723680">
        <ele>7.8300000</ele>
        <time>2013-06-13T07:43:22Z</time>
      </trkpt>
      <trkpt lat="38.4663470" lon="14.7726860">
        <ele>7.8300000</ele>
        <time>2013-06-13T07:43:38Z</time>
      </trkpt>
      <trkpt lat="38.4661480" lon="14.7730260">
        <ele>7.8300000</ele>
        <time>2013-06-13T07:43:56Z</time>
      </trkpt>
      <trkpt lat="38.4659840" lon="14.7733580">
        <ele>7.8300000</ele>
        <time>2013-06-13T07:44:13Z</time>
      </trkpt>
      <trkpt lat="38.4658160" lon="14.7737270">
        <ele>7.8300000</ele>
        <time>2013-06-13T07:44:33Z</time>
      </trkpt>
      <trkpt lat="38.4655880" lon="14.7740680">
        <ele>7.3500000</ele>
        <time>2013-06-13T07:44:52Z</time>
      </trkpt>
      <trkpt lat="38.4653590" lon="14.7744310">
        <ele>7.8300000</ele>
        <time>2013-06-13T07:45:12Z</time>
      </trkpt>
      <trkpt lat="38.4651110" lon="14.7748410">
        <ele>7.8300000</ele>
        <time>2013-06-13T07:45:34Z</time>
      </trkpt>
      <trkpt lat="38.4648700" lon="14.7751780">
        <ele>7.8300000</ele>
        <time>2013-06-13T07:45:55Z</time>
      </trkpt>
      <trkpt lat="38.4646000" lon="14.7755260">
        <ele>7.8300000</ele>
        <time>2013-06-13T07:46:16Z</time>
      </trkpt>
      <trkpt lat="38.4643170" lon="14.7758520">
        <ele>7.8300000</ele>
        <time>2013-06-13T07:46:35Z</time>
      </trkpt>
      <trkpt lat="38.4640050" lon="14.7762160">
        <ele>8.3100000</ele>
        <time>2013-06-13T07:46:57Z</time>
      </trkpt>
      <trkpt lat="38.4636880" lon="14.7765760">
        <ele>7.8300000</ele>
        <time>2013-06-13T07:47:18Z</time>
      </trkpt>
      <trkpt lat="38.4634060" lon="14.7768310">
        <ele>7.8300000</ele>
        <time>2013-06-13T07:47:36Z</time>
      </trkpt>
      <trkpt lat="38.4631540" lon="14.7771990">
        <ele>7.8300000</ele>
        <time>2013-06-13T07:47:57Z</time>
      </trkpt>
      <trkpt lat="38.4628220" lon="14.7775410">
        <ele>7.8300000</ele>
        <time>2013-06-13T07:48:20Z</time>
      </trkpt>
      <trkpt lat="38.4625850" lon="14.7778450">
        <ele>7.8300000</ele>
        <time>2013-06-13T07:48:38Z</time>
      </trkpt>
      <trkpt lat="38.4623570" lon="14.7781660">
        <ele>8.3100000</ele>
        <time>2013-06-13T07:48:56Z</time>
      </trkpt>
      <trkpt lat="38.4620320" lon="14.7784710">
        <ele>7.8300000</ele>
        <time>2013-06-13T07:49:15Z</time>
      </trkpt>
      <trkpt lat="38.4616970" lon="14.7787690">
        <ele>8.3100000</ele>
        <time>2013-06-13T07:49:34Z</time>
      </trkpt>
      <trkpt lat="38.4614070" lon="14.7791300">
        <ele>7.8300000</ele>
        <time>2013-06-13T07:49:54Z</time>
      </trkpt>
      <trkpt lat="38.4611020" lon="14.7795350">
        <ele>7.8300000</ele>
        <time>2013-06-13T07:50:16Z</time>
      </trkpt>
      <trkpt lat="38.4608880" lon="14.7797940">
        <ele>7.8300000</ele>
        <time>2013-06-13T07:50:32Z</time>
      </trkpt>
      <trkpt lat="38.4606440" lon="14.7801170">
        <ele>7.3500000</ele>
        <time>2013-06-13T07:50:50Z</time>
      </trkpt>
      <trkpt lat="38.4603880" lon="14.7804320">
        <ele>7.8300000</ele>
        <time>2013-06-13T07:51:09Z</time>
      </trkpt>
      <trkpt lat="38.4600560" lon="14.7807930">
        <ele>7.8300000</ele>
        <time>2013-06-13T07:51:29Z</time>
      </trkpt>
      <trkpt lat="38.4597740" lon="14.7810980">
        <ele>8.3100000</ele>
        <time>2013-06-13T07:51:47Z</time>
      </trkpt>
      <trkpt lat="38.4594460" lon="14.7814430">
        <ele>7.3500000</ele>
        <time>2013-06-13T07:52:07Z</time>
      </trkpt>
      <trkpt lat="38.4591100" lon="14.7817800">
        <ele>7.8300000</ele>
        <time>2013-06-13T07:52:28Z</time>
      </trkpt>
      <trkpt lat="38.4588240" lon="14.7821040">
        <ele>7.8300000</ele>
        <time>2013-06-13T07:52:47Z</time>
      </trkpt>
      <trkpt lat="38.4585190" lon="14.7824900">
        <ele>7.8300000</ele>
        <time>2013-06-13T07:53:09Z</time>
      </trkpt>
      <trkpt lat="38.4582290" lon="14.7828600">
        <ele>7.8300000</ele>
        <time>2013-06-13T07:53:29Z</time>
      </trkpt>
      <trkpt lat="38.4579430" lon="14.7832280">
        <ele>7.8300000</ele>
        <time>2013-06-13T07:53:50Z</time>
      </trkpt>
      <trkpt lat="38.4576990" lon="14.7835840">
        <ele>7.8300000</ele>
        <time>2013-06-13T07:54:09Z</time>
      </trkpt>
      <trkpt lat="38.4573970" lon="14.7839540">
        <ele>7.3500000</ele>
        <time>2013-06-13T07:54:29Z</time>
      </trkpt>
      <trkpt lat="38.4571190" lon="14.7843310">
        <ele>7.8300000</ele>
        <time>2013-06-13T07:54:49Z</time>
      </trkpt>
      <trkpt lat="38.4568940" lon="14.7846700">
        <ele>7.3500000</ele>
        <time>2013-06-13T07:55:08Z</time>
      </trkpt>
      <trkpt lat="38.4566880" lon="14.7850200">
        <ele>7.3500000</ele>
        <time>2013-06-13T07:55:26Z</time>
      </trkpt>
      <trkpt lat="38.4564320" lon="14.7853930">
        <ele>7.3500000</ele>
        <time>2013-06-13T07:55:45Z</time>
      </trkpt>
      <trkpt lat="38.4560810" lon="14.7858820">
        <ele>7.3500000</ele>
        <time>2013-06-13T07:56:10Z</time>
      </trkpt>
      <trkpt lat="38.4557760" lon="14.7863440">
        <ele>7.3500000</ele>
        <time>2013-06-13T07:56:33Z</time>
      </trkpt>
      <trkpt lat="38.4554860" lon="14.7867610">
        <ele>6.8700000</ele>
        <time>2013-06-13T07:56:55Z</time>
      </trkpt>
      <trkpt lat="38.4552540" lon="14.7871340">
        <ele>7.3500000</ele>
        <time>2013-06-13T07:57:13Z</time>
      </trkpt>
      <trkpt lat="38.4549710" lon="14.7876280">
        <ele>6.8700000</ele>
        <time>2013-06-13T07:57:39Z</time>
      </trkpt>
      <trkpt lat="38.4547120" lon="14.7881130">
        <ele>7.3500000</ele>
        <time>2013-06-13T07:58:03Z</time>
      </trkpt>
      <trkpt lat="38.4544980" lon="14.7885400">
        <ele>7.3500000</ele>
        <time>2013-06-13T07:58:25Z</time>
      </trkpt>
      <trkpt lat="38.4542880" lon="14.7890170">
        <ele>7.3500000</ele>
        <time>2013-06-13T07:58:48Z</time>
      </trkpt>
      <trkpt lat="38.4540900" lon="14.7894660">
        <ele>6.8700000</ele>
        <time>2013-06-13T07:59:11Z</time>
      </trkpt>
      <trkpt lat="38.4539220" lon="14.7898940">
        <ele>6.8700000</ele>
        <time>2013-06-13T07:59:32Z</time>
      </trkpt>
      <trkpt lat="38.4537390" lon="14.7902600">
        <ele>7.8300000</ele>
        <time>2013-06-13T07:59:51Z</time>
      </trkpt>
      <trkpt lat="38.4535410" lon="14.7906530">
        <ele>7.3500000</ele>
        <time>2013-06-13T08:00:11Z</time>
      </trkpt>
      <trkpt lat="38.4533500" lon="14.7910300">
        <ele>7.3500000</ele>
        <time>2013-06-13T08:00:30Z</time>
      </trkpt>
      <trkpt lat="38.4532170" lon="14.7913270">
        <ele>6.3900000</ele>
        <time>2013-06-13T08:00:46Z</time>
      </trkpt>
      <trkpt lat="38.4530560" lon="14.7916820">
        <ele>7.8300000</ele>
        <time>2013-06-13T08:01:04Z</time>
      </trkpt>
      <trkpt lat="38.4529190" lon="14.7920250">
        <ele>7.3500000</ele>
        <time>2013-06-13T08:01:22Z</time>
      </trkpt>
      <trkpt lat="38.4527740" lon="14.7923810">
        <ele>7.3500000</ele>
        <time>2013-06-13T08:01:41Z</time>
      </trkpt>
      <trkpt lat="38.4526630" lon="14.7927020">
        <ele>7.3500000</ele>
        <time>2013-06-13T08:01:58Z</time>
      </trkpt>
      <trkpt lat="38.4525640" lon="14.7929740">
        <ele>7.8300000</ele>
        <time>2013-06-13T08:02:13Z</time>
      </trkpt>
      <trkpt lat="38.4524540" lon="14.7932620">
        <ele>7.3500000</ele>
        <time>2013-06-13T08:02:29Z</time>
      </trkpt>
      <trkpt lat="38.4523620" lon="14.7935490">
        <ele>7.3500000</ele>
        <time>2013-06-13T08:02:45Z</time>
      </trkpt>
      <trkpt lat="38.4522820" lon="14.7937980">
        <ele>7.3500000</ele>
        <time>2013-06-13T08:02:59Z</time>
      </trkpt>
      <trkpt lat="38.4521870" lon="14.7940190">
        <ele>7.3500000</ele>
        <time>2013-06-13T08:03:12Z</time>
      </trkpt>
      <trkpt lat="38.4520190" lon="14.7943370">
        <ele>7.3500000</ele>
        <time>2013-06-13T08:03:30Z</time>
      </trkpt>
      <trkpt lat="38.4518470" lon="14.7946550">
        <ele>7.8300000</ele>
        <time>2013-06-13T08:03:47Z</time>
      </trkpt>
      <trkpt lat="38.4516790" lon="14.7949650">
        <ele>7.3500000</ele>
        <time>2013-06-13T08:04:03Z</time>
      </trkpt>
      <trkpt lat="38.4515190" lon="14.7952660">
        <ele>6.8700000</ele>
        <time>2013-06-13T08:04:19Z</time>
      </trkpt>
      <trkpt lat="38.4512980" lon="14.7956580">
        <ele>7.8300000</ele>
        <time>2013-06-13T08:04:39Z</time>
      </trkpt>
      <trkpt lat="38.4510840" lon="14.7960200">
        <ele>7.8300000</ele>
        <time>2013-06-13T08:04:57Z</time>
      </trkpt>
      <trkpt lat="38.4508440" lon="14.7964130">
        <ele>7.8300000</ele>
        <time>2013-06-13T08:05:16Z</time>
      </trkpt>
      <trkpt lat="38.4506300" lon="14.7967100">
        <ele>7.8300000</ele>
        <time>2013-06-13T08:05:31Z</time>
      </trkpt>
      <trkpt lat="38.4503750" lon="14.7970410">
        <ele>7.8300000</ele>
        <time>2013-06-13T08:05:47Z</time>
      </trkpt>
      <trkpt lat="38.4501460" lon="14.7973790">
        <ele>8.3100000</ele>
        <time>2013-06-13T08:06:03Z</time>
      </trkpt>
      <trkpt lat="38.4499130" lon="14.7977500">
        <ele>8.3100000</ele>
        <time>2013-06-13T08:06:20Z</time>
      </trkpt>
      <trkpt lat="38.4497300" lon="14.7981040">
        <ele>8.3100000</ele>
        <time>2013-06-13T08:06:36Z</time>
      </trkpt>
      <trkpt lat="38.4495120" lon="14.7985580">
        <ele>7.3500000</ele>
        <time>2013-06-13T08:06:56Z</time>
      </trkpt>
      <trkpt lat="38.4493290" lon="14.7989610">
        <ele>7.8300000</ele>
        <time>2013-06-13T08:07:14Z</time>
      </trkpt>
      <trkpt lat="38.4491230" lon="14.7994010">
        <ele>7.8300000</ele>
        <time>2013-06-13T08:07:34Z</time>
      </trkpt>
      <trkpt lat="38.4489590" lon="14.7997380">
        <ele>7.8300000</ele>
        <time>2013-06-13T08:07:50Z</time>
      </trkpt>
      <trkpt lat="38.4487840" lon="14.8000520">
        <ele>8.3100000</ele>
        <time>2013-06-13T08:08:05Z</time>
      </trkpt>
      <trkpt lat="38.4485890" lon="14.8004330">
        <ele>7.8300000</ele>
        <time>2013-06-13T08:08:24Z</time>
      </trkpt>
      <trkpt lat="38.4484250" lon="14.8008340">
        <ele>7.3500000</ele>
        <time>2013-06-13T08:08:44Z</time>
      </trkpt>
      <trkpt lat="38.4482690" lon="14.8012530">
        <ele>7.8300000</ele>
        <time>2013-06-13T08:09:05Z</time>
      </trkpt>
      <trkpt lat="38.4481350" lon="14.8016280">
        <ele>7.8300000</ele>
        <time>2013-06-13T08:09:24Z</time>
      </trkpt>
      <trkpt lat="38.4480090" lon="14.8019930">
        <ele>7.8300000</ele>
        <time>2013-06-13T08:09:43Z</time>
      </trkpt>
      <trkpt lat="38.4478490" lon="14.8023390">
        <ele>7.8300000</ele>
        <time>2013-06-13T08:10:01Z</time>
      </trkpt>
      <trkpt lat="38.4475780" lon="14.8027770">
        <ele>8.3100000</ele>
        <time>2013-06-13T08:10:23Z</time>
      </trkpt>
      <trkpt lat="38.4473380" lon="14.8031220">
        <ele>7.8300000</ele>
        <time>2013-06-13T08:10:41Z</time>
      </trkpt>
      <trkpt lat="38.4470370" lon="14.8035370">
        <ele>7.8300000</ele>
        <time>2013-06-13T08:11:02Z</time>
      </trkpt>
      <trkpt lat="38.4467390" lon="14.8039260">
        <ele>7.8300000</ele>
        <time>2013-06-13T08:11:22Z</time>
      </trkpt>
      <trkpt lat="38.4464800" lon="14.8043280">
        <ele>7.8300000</ele>
        <time>2013-06-13T08:11:41Z</time>
      </trkpt>
      <trkpt lat="38.4462200" lon="14.8047480">
        <ele>7.8300000</ele>
        <time>2013-06-13T08:12:00Z</time>
      </trkpt>
      <trkpt lat="38.4460220" lon="14.8051040">
        <ele>6.8700000</ele>
        <time>2013-06-13T08:12:17Z</time>
      </trkpt>
      <trkpt lat="38.4458470" lon="14.8054430">
        <ele>7.3500000</ele>
        <time>2013-06-13T08:12:33Z</time>
      </trkpt>
      <trkpt lat="38.4455950" lon="14.8058700">
        <ele>7.8300000</ele>
        <time>2013-06-13T08:12:53Z</time>
      </trkpt>
      <trkpt lat="38.4452400" lon="14.8063610">
        <ele>7.8300000</ele>
        <time>2013-06-13T08:13:16Z</time>
      </trkpt>
      <trkpt lat="38.4448660" lon="14.8067570">
        <ele>7.3500000</ele>
        <time>2013-06-13T08:13:37Z</time>
      </trkpt>
      <trkpt lat="38.4445800" lon="14.8071380">
        <ele>7.8300000</ele>
        <time>2013-06-13T08:13:56Z</time>
      </trkpt>
      <trkpt lat="38.4443400" lon="14.8074920">
        <ele>7.8300000</ele>
        <time>2013-06-13T08:14:13Z</time>
      </trkpt>
      <trkpt lat="38.4441490" lon="14.8078540">
        <ele>7.8300000</ele>
        <time>2013-06-13T08:14:30Z</time>
      </trkpt>
      <trkpt lat="38.4439770" lon="14.8082720">
        <ele>7.8300000</ele>
        <time>2013-06-13T08:14:50Z</time>
      </trkpt>
      <trkpt lat="38.4438510" lon="14.8085570">
        <ele>7.8300000</ele>
        <time>2013-06-13T08:15:05Z</time>
      </trkpt>
      <trkpt lat="38.4437220" lon="14.8088390">
        <ele>7.8300000</ele>
        <time>2013-06-13T08:15:20Z</time>
      </trkpt>
      <trkpt lat="38.4435650" lon="14.8091370">
        <ele>7.8300000</ele>
        <time>2013-06-13T08:15:36Z</time>
      </trkpt>
      <trkpt lat="38.4433250" lon="14.8095070">
        <ele>8.3100000</ele>
        <time>2013-06-13T08:15:55Z</time>
      </trkpt>
      <trkpt lat="38.4430050" lon="14.8098710">
        <ele>7.8300000</ele>
        <time>2013-06-13T08:16:14Z</time>
      </trkpt>
      <trkpt lat="38.4426650" lon="14.8102280">
        <ele>8.3100000</ele>
        <time>2013-06-13T08:16:33Z</time>
      </trkpt>
      <trkpt lat="38.4424480" lon="14.8105390">
        <ele>7.8300000</ele>
        <time>2013-06-13T08:16:49Z</time>
      </trkpt>
      <trkpt lat="38.4422340" lon="14.8109490">
        <ele>7.8300000</ele>
        <time>2013-06-13T08:17:08Z</time>
      </trkpt>
      <trkpt lat="38.4420470" lon="14.8113910">
        <ele>8.3100000</ele>
        <time>2013-06-13T08:17:28Z</time>
      </trkpt>
      <trkpt lat="38.4418910" lon="14.8117540">
        <ele>8.3100000</ele>
        <time>2013-06-13T08:17:45Z</time>
      </trkpt>
      <trkpt lat="38.4417650" lon="14.8120770">
        <ele>7.3500000</ele>
        <time>2013-06-13T08:18:00Z</time>
      </trkpt>
      <trkpt lat="38.4415890" lon="14.8124630">
        <ele>7.8300000</ele>
        <time>2013-06-13T08:18:17Z</time>
      </trkpt>
      <trkpt lat="38.4414020" lon="14.8128470">
        <ele>8.3100000</ele>
        <time>2013-06-13T08:18:33Z</time>
      </trkpt>
      <trkpt lat="38.4412080" lon="14.8132910">
        <ele>7.8300000</ele>
        <time>2013-06-13T08:18:51Z</time>
      </trkpt>
      <trkpt lat="38.4410860" lon="14.8136340">
        <ele>7.8300000</ele>
        <time>2013-06-13T08:19:06Z</time>
      </trkpt>
      <trkpt lat="38.4409600" lon="14.8140400">
        <ele>8.3100000</ele>
        <time>2013-06-13T08:19:24Z</time>
      </trkpt>
      <trkpt lat="38.4408490" lon="14.8143580">
        <ele>8.3100000</ele>
        <time>2013-06-13T08:19:39Z</time>
      </trkpt>
      <trkpt lat="38.4406930" lon="14.8148200">
        <ele>8.3100000</ele>
        <time>2013-06-13T08:20:00Z</time>
      </trkpt>
      <trkpt lat="38.4405210" lon="14.8151970">
        <ele>8.3100000</ele>
        <time>2013-06-13T08:20:17Z</time>
      </trkpt>
      <trkpt lat="38.4403500" lon="14.8155550">
        <ele>8.7900000</ele>
        <time>2013-06-13T08:20:33Z</time>
      </trkpt>
      <trkpt lat="38.4401130" lon="14.8159700">
        <ele>8.3100000</ele>
        <time>2013-06-13T08:20:51Z</time>
      </trkpt>
      <trkpt lat="38.4398610" lon="14.8163980">
        <ele>8.3100000</ele>
        <time>2013-06-13T08:21:10Z</time>
      </trkpt>
      <trkpt lat="38.4396710" lon="14.8167700">
        <ele>8.3100000</ele>
        <time>2013-06-13T08:21:25Z</time>
      </trkpt>
      <trkpt lat="38.4394380" lon="14.8172100">
        <ele>8.3100000</ele>
        <time>2013-06-13T08:21:43Z</time>
      </trkpt>
      <trkpt lat="38.4391940" lon="14.8176640">
        <ele>8.7900000</ele>
        <time>2013-06-13T08:22:01Z</time>
      </trkpt>
      <trkpt lat="38.4389800" lon="14.8180890">
        <ele>8.7900000</ele>
        <time>2013-06-13T08:22:18Z</time>
      </trkpt>
      <trkpt lat="38.4387550" lon="14.8185300">
        <ele>8.7900000</ele>
        <time>2013-06-13T08:22:36Z</time>
      </trkpt>
      <trkpt lat="38.4385030" lon="14.8189930">
        <ele>8.7900000</ele>
        <time>2013-06-13T08:22:54Z</time>
      </trkpt>
      <trkpt lat="38.4382170" lon="14.8194370">
        <ele>8.7900000</ele>
        <time>2013-06-13T08:23:12Z</time>
      </trkpt>
      <trkpt lat="38.4378970" lon="14.8199230">
        <ele>8.3100000</ele>
        <time>2013-06-13T08:23:32Z</time>
      </trkpt>
      <trkpt lat="38.4376530" lon="14.8203890">
        <ele>8.7900000</ele>
        <time>2013-06-13T08:23:50Z</time>
      </trkpt>
      <trkpt lat="38.4373700" lon="14.8208900">
        <ele>9.2700000</ele>
        <time>2013-06-13T08:24:09Z</time>
      </trkpt>
      <trkpt lat="38.4371220" lon="14.8213880">
        <ele>8.7900000</ele>
        <time>2013-06-13T08:24:28Z</time>
      </trkpt>
      <trkpt lat="38.4369130" lon="14.8218260">
        <ele>7.8300000</ele>
        <time>2013-06-13T08:24:45Z</time>
      </trkpt>
      <trkpt lat="38.4366840" lon="14.8222840">
        <ele>9.2700000</ele>
        <time>2013-06-13T08:25:04Z</time>
      </trkpt>
      <trkpt lat="38.4364510" lon="14.8227230">
        <ele>8.7900000</ele>
        <time>2013-06-13T08:25:21Z</time>
      </trkpt>
      <trkpt lat="38.4361650" lon="14.8232780">
        <ele>8.7900000</ele>
        <time>2013-06-13T08:25:41Z</time>
      </trkpt>
      <trkpt lat="38.4359050" lon="14.8237580">
        <ele>9.2700000</ele>
        <time>2013-06-13T08:25:59Z</time>
      </trkpt>
      <trkpt lat="38.4357030" lon="14.8241450">
        <ele>8.7900000</ele>
        <time>2013-06-13T08:26:13Z</time>
      </trkpt>
      <trkpt lat="38.4354440" lon="14.8246630">
        <ele>9.2700000</ele>
        <time>2013-06-13T08:26:32Z</time>
      </trkpt>
      <trkpt lat="38.4352260" lon="14.8251350">
        <ele>8.7900000</ele>
        <time>2013-06-13T08:26:50Z</time>
      </trkpt>
      <trkpt lat="38.4350510" lon="14.8254980">
        <ele>8.7900000</ele>
        <time>2013-06-13T08:27:04Z</time>
      </trkpt>
      <trkpt lat="38.4348340" lon="14.8259380">
        <ele>9.2700000</ele>
        <time>2013-06-13T08:27:21Z</time>
      </trkpt>
      <trkpt lat="38.4345590" lon="14.8264440">
        <ele>9.2700000</ele>
        <time>2013-06-13T08:27:41Z</time>
      </trkpt>
      <trkpt lat="38.4343680" lon="14.8268200">
        <ele>8.7900000</ele>
        <time>2013-06-13T08:27:56Z</time>
      </trkpt>
      <trkpt lat="38.4342190" lon="14.8272700">
        <ele>9.2700000</ele>
        <time>2013-06-13T08:28:12Z</time>
      </trkpt>
      <trkpt lat="38.4340670" lon="14.8277960">
        <ele>8.7900000</ele>
        <time>2013-06-13T08:28:31Z</time>
      </trkpt>
      <trkpt lat="38.4339100" lon="14.8282500">
        <ele>8.7900000</ele>
        <time>2013-06-13T08:28:48Z</time>
      </trkpt>
      <trkpt lat="38.4337310" lon="14.8288250">
        <ele>9.2700000</ele>
        <time>2013-06-13T08:29:09Z</time>
      </trkpt>
      <trkpt lat="38.4336320" lon="14.8292890">
        <ele>9.2700000</ele>
        <time>2013-06-13T08:29:27Z</time>
      </trkpt>
      <trkpt lat="38.4334870" lon="14.8297790">
        <ele>9.7500000</ele>
        <time>2013-06-13T08:29:47Z</time>
      </trkpt>
      <trkpt lat="38.4332470" lon="14.8303050">
        <ele>9.2700000</ele>
        <time>2013-06-13T08:30:08Z</time>
      </trkpt>
      <trkpt lat="38.4330670" lon="14.8307880">
        <ele>9.2700000</ele>
        <time>2013-06-13T08:30:25Z</time>
      </trkpt>
      <trkpt lat="38.4329340" lon="14.8311870">
        <ele>8.7900000</ele>
        <time>2013-06-13T08:30:40Z</time>
      </trkpt>
      <trkpt lat="38.4327740" lon="14.8315770">
        <ele>9.2700000</ele>
        <time>2013-06-13T08:30:56Z</time>
      </trkpt>
      <trkpt lat="38.4325980" lon="14.8319870">
        <ele>9.2700000</ele>
        <time>2013-06-13T08:31:13Z</time>
      </trkpt>
      <trkpt lat="38.4324720" lon="14.8324260">
        <ele>9.7500000</ele>
        <time>2013-06-13T08:31:29Z</time>
      </trkpt>
      <trkpt lat="38.4322740" lon="14.8328490">
        <ele>9.7500000</ele>
        <time>2013-06-13T08:31:47Z</time>
      </trkpt>
      <trkpt lat="38.4319920" lon="14.8333000">
        <ele>9.2700000</ele>
        <time>2013-06-13T08:32:06Z</time>
      </trkpt>
      <trkpt lat="38.4318050" lon="14.8337690">
        <ele>9.2700000</ele>
        <time>2013-06-13T08:32:24Z</time>
      </trkpt>
      <trkpt lat="38.4316670" lon="14.8342590">
        <ele>9.2700000</ele>
        <time>2013-06-13T08:32:42Z</time>
      </trkpt>
      <trkpt lat="38.4316410" lon="14.8346750">
        <ele>9.7500000</ele>
        <time>2013-06-13T08:32:59Z</time>
      </trkpt>
      <trkpt lat="38.4315030" lon="14.8349920">
        <ele>9.7500000</ele>
        <time>2013-06-13T08:33:13Z</time>
      </trkpt>
      <trkpt lat="38.4313090" lon="14.8353410">
        <ele>9.7500000</ele>
        <time>2013-06-13T08:33:29Z</time>
      </trkpt>
      <trkpt lat="38.4310380" lon="14.8356980">
        <ele>10.2300000</ele>
        <time>2013-06-13T08:33:45Z</time>
      </trkpt>
      <trkpt lat="38.4307520" lon="14.8360530">
        <ele>9.7500000</ele>
        <time>2013-06-13T08:34:01Z</time>
      </trkpt>
      <trkpt lat="38.4305190" lon="14.8364840">
        <ele>9.2700000</ele>
        <time>2013-06-13T08:34:18Z</time>
      </trkpt>
      <trkpt lat="38.4303440" lon="14.8369110">
        <ele>9.7500000</ele>
        <time>2013-06-13T08:34:35Z</time>
      </trkpt>
      <trkpt lat="38.4301720" lon="14.8374080">
        <ele>8.7900000</ele>
        <time>2013-06-13T08:34:55Z</time>
      </trkpt>
      <trkpt lat="38.4299890" lon="14.8379410">
        <ele>9.2700000</ele>
        <time>2013-06-13T08:35:17Z</time>
      </trkpt>
      <trkpt lat="38.4298170" lon="14.8383220">
        <ele>10.2300000</ele>
        <time>2013-06-13T08:35:33Z</time>
      </trkpt>
      <trkpt lat="38.4295920" lon="14.8387960">
        <ele>9.7500000</ele>
        <time>2013-06-13T08:35:53Z</time>
      </trkpt>
      <trkpt lat="38.4293710" lon="14.8392550">
        <ele>9.2700000</ele>
        <time>2013-06-13T08:36:11Z</time>
      </trkpt>
      <trkpt lat="38.4291880" lon="14.8396910">
        <ele>9.2700000</ele>
        <time>2013-06-13T08:36:28Z</time>
      </trkpt>
      <trkpt lat="38.4289700" lon="14.8401760">
        <ele>10.2300000</ele>
        <time>2013-06-13T08:36:47Z</time>
      </trkpt>
      <trkpt lat="38.4286960" lon="14.8406850">
        <ele>9.7500000</ele>
        <time>2013-06-13T08:37:08Z</time>
      </trkpt>
      <trkpt lat="38.4283910" lon="14.8411900">
        <ele>9.2700000</ele>
        <time>2013-06-13T08:37:29Z</time>
      </trkpt>
      <trkpt lat="38.4281880" lon="14.8416270">
        <ele>10.2300000</ele>
        <time>2013-06-13T08:37:47Z</time>
      </trkpt>
      <trkpt lat="38.4279400" lon="14.8420190">
        <ele>9.7500000</ele>
        <time>2013-06-13T08:38:04Z</time>
      </trkpt>
      <trkpt lat="38.4276850" lon="14.8424470">
        <ele>10.2300000</ele>
        <time>2013-06-13T08:38:22Z</time>
      </trkpt>
      <trkpt lat="38.4274860" lon="14.8428690">
        <ele>10.2300000</ele>
        <time>2013-06-13T08:38:39Z</time>
      </trkpt>
      <trkpt lat="38.4272690" lon="14.8432520">
        <ele>9.7500000</ele>
        <time>2013-06-13T08:38:55Z</time>
      </trkpt>
      <trkpt lat="38.4270170" lon="14.8436240">
        <ele>9.2700000</ele>
        <time>2013-06-13T08:39:12Z</time>
      </trkpt>
      <trkpt lat="38.4267960" lon="14.8439510">
        <ele>9.7500000</ele>
        <time>2013-06-13T08:39:26Z</time>
      </trkpt>
      <trkpt lat="38.4264790" lon="14.8444540">
        <ele>9.7500000</ele>
        <time>2013-06-13T08:39:47Z</time>
      </trkpt>
      <trkpt lat="38.4263270" lon="14.8448490">
        <ele>9.2700000</ele>
        <time>2013-06-13T08:40:03Z</time>
      </trkpt>
      <trkpt lat="38.4262080" lon="14.8452850">
        <ele>9.2700000</ele>
        <time>2013-06-13T08:40:20Z</time>
      </trkpt>
      <trkpt lat="38.4260790" lon="14.8456490">
        <ele>9.2700000</ele>
        <time>2013-06-13T08:40:35Z</time>
      </trkpt>
      <trkpt lat="38.4259150" lon="14.8460870">
        <ele>9.2700000</ele>
        <time>2013-06-13T08:40:54Z</time>
      </trkpt>
      <trkpt lat="38.4257580" lon="14.8464580">
        <ele>9.2700000</ele>
        <time>2013-06-13T08:41:11Z</time>
      </trkpt>
      <trkpt lat="38.4255560" lon="14.8468940">
        <ele>9.2700000</ele>
        <time>2013-06-13T08:41:30Z</time>
      </trkpt>
      <trkpt lat="38.4253390" lon="14.8474000">
        <ele>9.2700000</ele>
        <time>2013-06-13T08:41:51Z</time>
      </trkpt>
      <trkpt lat="38.4251820" lon="14.8477540">
        <ele>9.2700000</ele>
        <time>2013-06-13T08:42:06Z</time>
      </trkpt>
      <trkpt lat="38.4250110" lon="14.8481260">
        <ele>9.2700000</ele>
        <time>2013-06-13T08:42:23Z</time>
      </trkpt>
      <trkpt lat="38.4248240" lon="14.8484900">
        <ele>9.7500000</ele>
        <time>2013-06-13T08:42:40Z</time>
      </trkpt>
      <trkpt lat="38.4246410" lon="14.8489010">
        <ele>8.7900000</ele>
        <time>2013-06-13T08:42:58Z</time>
      </trkpt>
      <trkpt lat="38.4244730" lon="14.8492450">
        <ele>8.7900000</ele>
        <time>2013-06-13T08:43:14Z</time>
      </trkpt>
      <trkpt lat="38.4242400" lon="14.8496610">
        <ele>8.7900000</ele>
        <time>2013-06-13T08:43:32Z</time>
      </trkpt>
      <trkpt lat="38.4240380" lon="14.8500250">
        <ele>9.2700000</ele>
        <time>2013-06-13T08:43:48Z</time>
      </trkpt>
      <trkpt lat="38.4238400" lon="14.8504350">
        <ele>9.2700000</ele>
        <time>2013-06-13T08:44:06Z</time>
      </trkpt>
      <trkpt lat="38.4236490" lon="14.8508140">
        <ele>8.7900000</ele>
        <time>2013-06-13T08:44:24Z</time>
      </trkpt>
      <trkpt lat="38.4234660" lon="14.8511800">
        <ele>8.7900000</ele>
        <time>2013-06-13T08:44:42Z</time>
      </trkpt>
      <trkpt lat="38.4233400" lon="14.8514890">
        <ele>9.2700000</ele>
        <time>2013-06-13T08:44:57Z</time>
      </trkpt>
      <trkpt lat="38.4231570" lon="14.8518300">
        <ele>9.2700000</ele>
        <time>2013-06-13T08:45:14Z</time>
      </trkpt>
      <trkpt lat="38.4229580" lon="14.8522190">
        <ele>8.7900000</ele>
        <time>2013-06-13T08:45:33Z</time>
      </trkpt>
      <trkpt lat="38.4227870" lon="14.8525670">
        <ele>9.2700000</ele>
        <time>2013-06-13T08:45:50Z</time>
      </trkpt>
      <trkpt lat="38.4226070" lon="14.8528940">
        <ele>9.2700000</ele>
        <time>2013-06-13T08:46:06Z</time>
      </trkpt>
      <trkpt lat="38.4224090" lon="14.8532730">
        <ele>8.7900000</ele>
        <time>2013-06-13T08:46:25Z</time>
      </trkpt>
      <trkpt lat="38.4222110" lon="14.8535810">
        <ele>9.7500000</ele>
        <time>2013-06-13T08:46:41Z</time>
      </trkpt>
      <trkpt lat="38.4219740" lon="14.8539110">
        <ele>10.2300000</ele>
        <time>2013-06-13T08:46:59Z</time>
      </trkpt>
      <trkpt lat="38.4217530" lon="14.8542980">
        <ele>9.2700000</ele>
        <time>2013-06-13T08:47:17Z</time>
      </trkpt>
      <trkpt lat="38.4216310" lon="14.8545920">
        <ele>9.7500000</ele>
        <time>2013-06-13T08:47:30Z</time>
      </trkpt>
      <trkpt lat="38.4214480" lon="14.8550540">
        <ele>9.7500000</ele>
        <time>2013-06-13T08:47:52Z</time>
      </trkpt>
      <trkpt lat="38.4212990" lon="14.8553920">
        <ele>9.7500000</ele>
        <time>2013-06-13T08:48:08Z</time>
      </trkpt>
      <trkpt lat="38.4211810" lon="14.8556810">
        <ele>9.2700000</ele>
        <time>2013-06-13T08:48:23Z</time>
      </trkpt>
      <trkpt lat="38.4210130" lon="14.8560620">
        <ele>9.2700000</ele>
        <time>2013-06-13T08:48:41Z</time>
      </trkpt>
      <trkpt lat="38.4208720" lon="14.8564170">
        <ele>8.7900000</ele>
        <time>2013-06-13T08:48:58Z</time>
      </trkpt>
      <trkpt lat="38.4206890" lon="14.8567840">
        <ele>9.7500000</ele>
        <time>2013-06-13T08:49:15Z</time>
      </trkpt>
      <trkpt lat="38.4205360" lon="14.8570890">
        <ele>9.7500000</ele>
        <time>2013-06-13T08:49:31Z</time>
      </trkpt>
      <trkpt lat="38.4203990" lon="14.8574240">
        <ele>9.7500000</ele>
        <time>2013-06-13T08:49:46Z</time>
      </trkpt>
      <trkpt lat="38.4202230" lon="14.8577680">
        <ele>9.2700000</ele>
        <time>2013-06-13T08:50:02Z</time>
      </trkpt>
      <trkpt lat="38.4200100" lon="14.8581970">
        <ele>9.7500000</ele>
        <time>2013-06-13T08:50:21Z</time>
      </trkpt>
      <trkpt lat="38.4198460" lon="14.8585750">
        <ele>9.7500000</ele>
        <time>2013-06-13T08:50:37Z</time>
      </trkpt>
      <trkpt lat="38.4197160" lon="14.8589620">
        <ele>8.7900000</ele>
        <time>2013-06-13T08:50:54Z</time>
      </trkpt>
      <trkpt lat="38.4195940" lon="14.8592660">
        <ele>9.2700000</ele>
        <time>2013-06-13T08:51:09Z</time>
      </trkpt>
      <trkpt lat="38.4194720" lon="14.8596190">
        <ele>9.2700000</ele>
        <time>2013-06-13T08:51:25Z</time>
      </trkpt>
      <trkpt lat="38.4193040" lon="14.8599430">
        <ele>9.2700000</ele>
        <time>2013-06-13T08:51:41Z</time>
      </trkpt>
      <trkpt lat="38.4191280" lon="14.8602970">
        <ele>9.2700000</ele>
        <time>2013-06-13T08:51:57Z</time>
      </trkpt>
      <trkpt lat="38.4189300" lon="14.8607120">
        <ele>9.7500000</ele>
        <time>2013-06-13T08:52:16Z</time>
      </trkpt>
      <trkpt lat="38.4187050" lon="14.8611250">
        <ele>9.2700000</ele>
        <time>2013-06-13T08:52:35Z</time>
      </trkpt>
      <trkpt lat="38.4185070" lon="14.8615680">
        <ele>9.2700000</ele>
        <time>2013-06-13T08:52:54Z</time>
      </trkpt>
      <trkpt lat="38.4183120" lon="14.8619610">
        <ele>8.3100000</ele>
        <time>2013-06-13T08:53:11Z</time>
      </trkpt>
      <trkpt lat="38.4181100" lon="14.8623790">
        <ele>9.7500000</ele>
        <time>2013-06-13T08:53:28Z</time>
      </trkpt>
      <trkpt lat="38.4179150" lon="14.8628250">
        <ele>8.7900000</ele>
        <time>2013-06-13T08:53:46Z</time>
      </trkpt>
      <trkpt lat="38.4177280" lon="14.8632630">
        <ele>8.7900000</ele>
        <time>2013-06-13T08:54:04Z</time>
      </trkpt>
      <trkpt lat="38.4175570" lon="14.8637030">
        <ele>8.3100000</ele>
        <time>2013-06-13T08:54:23Z</time>
      </trkpt>
      <trkpt lat="38.4173470" lon="14.8641640">
        <ele>9.2700000</ele>
        <time>2013-06-13T08:54:43Z</time>
      </trkpt>
      <trkpt lat="38.4171710" lon="14.8646160">
        <ele>8.3100000</ele>
        <time>2013-06-13T08:55:02Z</time>
      </trkpt>
      <trkpt lat="38.4170040" lon="14.8651030">
        <ele>8.3100000</ele>
        <time>2013-06-13T08:55:22Z</time>
      </trkpt>
      <trkpt lat="38.4168210" lon="14.8655640">
        <ele>8.3100000</ele>
        <time>2013-06-13T08:55:42Z</time>
      </trkpt>
      <trkpt lat="38.4166260" lon="14.8660760">
        <ele>8.3100000</ele>
        <time>2013-06-13T08:56:05Z</time>
      </trkpt>
      <trkpt lat="38.4164430" lon="14.8664910">
        <ele>7.8300000</ele>
        <time>2013-06-13T08:56:23Z</time>
      </trkpt>
      <trkpt lat="38.4162670" lon="14.8669110">
        <ele>8.3100000</ele>
        <time>2013-06-13T08:56:41Z</time>
      </trkpt>
      <trkpt lat="38.4161150" lon="14.8673110">
        <ele>8.3100000</ele>
        <time>2013-06-13T08:56:58Z</time>
      </trkpt>
      <trkpt lat="38.4159620" lon="14.8677560">
        <ele>8.3100000</ele>
        <time>2013-06-13T08:57:18Z</time>
      </trkpt>
      <trkpt lat="38.4157640" lon="14.8681850">
        <ele>8.3100000</ele>
        <time>2013-06-13T08:57:37Z</time>
      </trkpt>
      <trkpt lat="38.4154890" lon="14.8687530">
        <ele>8.3100000</ele>
        <time>2013-06-13T08:57:59Z</time>
      </trkpt>
      <trkpt lat="38.4153100" lon="14.8691640">
        <ele>7.8300000</ele>
        <time>2013-06-13T08:58:15Z</time>
      </trkpt>
      <trkpt lat="38.4151080" lon="14.8695920">
        <ele>8.3100000</ele>
        <time>2013-06-13T08:58:33Z</time>
      </trkpt>
      <trkpt lat="38.4149360" lon="14.8700450">
        <ele>7.8300000</ele>
        <time>2013-06-13T08:58:51Z</time>
      </trkpt>
      <trkpt lat="38.4147450" lon="14.8705350">
        <ele>8.3100000</ele>
        <time>2013-06-13T08:59:10Z</time>
      </trkpt>
      <trkpt lat="38.4146350" lon="14.8710340">
        <ele>8.3100000</ele>
        <time>2013-06-13T08:59:31Z</time>
      </trkpt>
      <trkpt lat="38.4144970" lon="14.8715350">
        <ele>7.8300000</ele>
        <time>2013-06-13T08:59:52Z</time>
      </trkpt>
      <trkpt lat="38.4143490" lon="14.8719630">
        <ele>8.3100000</ele>
        <time>2013-06-13T09:00:11Z</time>
      </trkpt>
      <trkpt lat="38.4142230" lon="14.8724240">
        <ele>7.8300000</ele>
        <time>2013-06-13T09:00:29Z</time>
      </trkpt>
      <trkpt lat="38.4141960" lon="14.8728690">
        <ele>7.8300000</ele>
        <time>2013-06-13T09:00:48Z</time>
      </trkpt>
      <trkpt lat="38.4142990" lon="14.8731940">
        <ele>8.3100000</ele>
        <time>2013-06-13T09:01:05Z</time>
      </trkpt>
      <trkpt lat="38.4145550" lon="14.8732300">
        <ele>8.7900000</ele>
        <time>2013-06-13T09:01:20Z</time>
      </trkpt>
      <trkpt lat="38.4147190" lon="14.8730780">
        <ele>8.7900000</ele>
        <time>2013-06-13T09:01:35Z</time>
      </trkpt>
      <trkpt lat="38.4148940" lon="14.8730110">
        <ele>8.3100000</ele>
        <time>2013-06-13T09:01:50Z</time>
      </trkpt>
      <trkpt lat="38.4149930" lon="14.8733300">
        <ele>8.3100000</ele>
        <time>2013-06-13T09:02:05Z</time>
      </trkpt>
      <trkpt lat="38.4151080" lon="14.8736490">
        <ele>7.3500000</ele>
        <time>2013-06-13T09:02:23Z</time>
      </trkpt>
      <trkpt lat="38.4153100" lon="14.8738990">
        <ele>7.8300000</ele>
        <time>2013-06-13T09:02:41Z</time>
      </trkpt>
      <trkpt lat="38.4154470" lon="14.8741910">
        <ele>7.8300000</ele>
        <time>2013-06-13T09:02:57Z</time>
      </trkpt>
      <trkpt lat="38.4155540" lon="14.8745310">
        <ele>8.3100000</ele>
        <time>2013-06-13T09:03:15Z</time>
      </trkpt>
      <trkpt lat="38.4156880" lon="14.8747940">
        <ele>8.3100000</ele>
        <time>2013-06-13T09:03:32Z</time>
      </trkpt>
      <trkpt lat="38.4158130" lon="14.8751320">
        <ele>7.8300000</ele>
        <time>2013-06-13T09:03:52Z</time>
      </trkpt>
      <trkpt lat="38.4159850" lon="14.8754170">
        <ele>7.8300000</ele>
        <time>2013-06-13T09:04:10Z</time>
      </trkpt>
      <trkpt lat="38.4161530" lon="14.8757200">
        <ele>7.8300000</ele>
        <time>2013-06-13T09:04:28Z</time>
      </trkpt>
      <trkpt lat="38.4163130" lon="14.8760190">
        <ele>7.8300000</ele>
        <time>2013-06-13T09:04:45Z</time>
      </trkpt>
      <trkpt lat="38.4164700" lon="14.8762800">
        <ele>7.8300000</ele>
        <time>2013-06-13T09:05:01Z</time>
      </trkpt>
      <trkpt lat="38.4166530" lon="14.8765700">
        <ele>7.8300000</ele>
        <time>2013-06-13T09:05:18Z</time>
      </trkpt>
      <trkpt lat="38.4168740" lon="14.8768560">
        <ele>8.3100000</ele>
        <time>2013-06-13T09:05:35Z</time>
      </trkpt>
      <trkpt lat="38.4170910" lon="14.8770770">
        <ele>7.8300000</ele>
        <time>2013-06-13T09:05:50Z</time>
      </trkpt>
      <trkpt lat="38.4173390" lon="14.8773330">
        <ele>7.3500000</ele>
        <time>2013-06-13T09:06:08Z</time>
      </trkpt>
      <trkpt lat="38.4175450" lon="14.8775570">
        <ele>7.8300000</ele>
        <time>2013-06-13T09:06:23Z</time>
      </trkpt>
      <trkpt lat="38.4177930" lon="14.8777770">
        <ele>7.8300000</ele>
        <time>2013-06-13T09:06:39Z</time>
      </trkpt>
      <trkpt lat="38.4180530" lon="14.8779870">
        <ele>7.8300000</ele>
        <time>2013-06-13T09:06:55Z</time>
      </trkpt>
      <trkpt lat="38.4183160" lon="14.8782020">
        <ele>7.8300000</ele>
        <time>2013-06-13T09:07:11Z</time>
      </trkpt>
      <trkpt lat="38.4185710" lon="14.8784470">
        <ele>7.8300000</ele>
        <time>2013-06-13T09:07:26Z</time>
      </trkpt>
      <trkpt lat="38.4188000" lon="14.8787590">
        <ele>7.3500000</ele>
        <time>2013-06-13T09:07:42Z</time>
      </trkpt>
      <trkpt lat="38.4189870" lon="14.8790710">
        <ele>7.8300000</ele>
        <time>2013-06-13T09:07:58Z</time>
      </trkpt>
      <trkpt lat="38.4191700" lon="14.8793980">
        <ele>7.3500000</ele>
        <time>2013-06-13T09:08:14Z</time>
      </trkpt>
      <trkpt lat="38.4193570" lon="14.8797460">
        <ele>7.8300000</ele>
        <time>2013-06-13T09:08:32Z</time>
      </trkpt>
      <trkpt lat="38.4195290" lon="14.8800790">
        <ele>7.8300000</ele>
        <time>2013-06-13T09:08:50Z</time>
      </trkpt>
      <trkpt lat="38.4196820" lon="14.8803340">
        <ele>7.3500000</ele>
        <time>2013-06-13T09:09:04Z</time>
      </trkpt>
      <trkpt lat="38.4198490" lon="14.8806300">
        <ele>7.3500000</ele>
        <time>2013-06-13T09:09:20Z</time>
      </trkpt>
      <trkpt lat="38.4200630" lon="14.8808820">
        <ele>7.3500000</ele>
        <time>2013-06-13T09:09:36Z</time>
      </trkpt>
      <trkpt lat="38.4202650" lon="14.8811130">
        <ele>6.8700000</ele>
        <time>2013-06-13T09:09:51Z</time>
      </trkpt>
      <trkpt lat="38.4205060" lon="14.8814120">
        <ele>7.3500000</ele>
        <time>2013-06-13T09:10:10Z</time>
      </trkpt>
      <trkpt lat="38.4206810" lon="14.8817520">
        <ele>7.3500000</ele>
        <time>2013-06-13T09:10:28Z</time>
      </trkpt>
      <trkpt lat="38.4208530" lon="14.8820270">
        <ele>7.8300000</ele>
        <time>2013-06-13T09:10:45Z</time>
      </trkpt>
      <trkpt lat="38.4210400" lon="14.8823340">
        <ele>7.3500000</ele>
        <time>2013-06-13T09:11:04Z</time>
      </trkpt>
      <trkpt lat="38.4212300" lon="14.8826050">
        <ele>6.8700000</ele>
        <time>2013-06-13T09:11:21Z</time>
      </trkpt>
      <trkpt lat="38.4213980" lon="14.8828340">
        <ele>7.3500000</ele>
        <time>2013-06-13T09:11:35Z</time>
      </trkpt>
      <trkpt lat="38.4216190" lon="14.8831010">
        <ele>7.3500000</ele>
        <time>2013-06-13T09:11:51Z</time>
      </trkpt>
      <trkpt lat="38.4218410" lon="14.8833690">
        <ele>7.8300000</ele>
        <time>2013-06-13T09:12:07Z</time>
      </trkpt>
      <trkpt lat="38.4220700" lon="14.8836650">
        <ele>7.3500000</ele>
        <time>2013-06-13T09:12:25Z</time>
      </trkpt>
      <trkpt lat="38.4222300" lon="14.8839560">
        <ele>7.3500000</ele>
        <time>2013-06-13T09:12:41Z</time>
      </trkpt>
      <trkpt lat="38.4223630" lon="14.8842340">
        <ele>7.3500000</ele>
        <time>2013-06-13T09:12:57Z</time>
      </trkpt>
      <trkpt lat="38.4225730" lon="14.8845610">
        <ele>7.3500000</ele>
        <time>2013-06-13T09:13:17Z</time>
      </trkpt>
      <trkpt lat="38.4227330" lon="14.8849050">
        <ele>7.3500000</ele>
        <time>2013-06-13T09:13:37Z</time>
      </trkpt>
      <trkpt lat="38.4228590" lon="14.8851820">
        <ele>7.8300000</ele>
        <time>2013-06-13T09:13:54Z</time>
      </trkpt>
      <trkpt lat="38.4229890" lon="14.8854240">
        <ele>7.8300000</ele>
        <time>2013-06-13T09:14:09Z</time>
      </trkpt>
      <trkpt lat="38.4231410" lon="14.8856680">
        <ele>7.8300000</ele>
        <time>2013-06-13T09:14:24Z</time>
      </trkpt>
      <trkpt lat="38.4233210" lon="14.8858890">
        <ele>7.8300000</ele>
        <time>2013-06-13T09:14:39Z</time>
      </trkpt>
      <trkpt lat="38.4235000" lon="14.8861640">
        <ele>7.8300000</ele>
        <time>2013-06-13T09:14:55Z</time>
      </trkpt>
      <trkpt lat="38.4236760" lon="14.8864380">
        <ele>7.8300000</ele>
        <time>2013-06-13T09:15:12Z</time>
      </trkpt>
      <trkpt lat="38.4238700" lon="14.8866640">
        <ele>7.8300000</ele>
        <time>2013-06-13T09:15:26Z</time>
      </trkpt>
      <trkpt lat="38.4240680" lon="14.8869150">
        <ele>7.3500000</ele>
        <time>2013-06-13T09:15:41Z</time>
      </trkpt>
      <trkpt lat="38.4242900" lon="14.8871740">
        <ele>7.3500000</ele>
        <time>2013-06-13T09:15:56Z</time>
      </trkpt>
      <trkpt lat="38.4245760" lon="14.8874540">
        <ele>7.3500000</ele>
        <time>2013-06-13T09:16:14Z</time>
      </trkpt>
      <trkpt lat="38.4247860" lon="14.8876850">
        <ele>7.8300000</ele>
        <time>2013-06-13T09:16:28Z</time>
      </trkpt>
      <trkpt lat="38.4249650" lon="14.8879780">
        <ele>7.8300000</ele>
        <time>2013-06-13T09:16:44Z</time>
      </trkpt>
      <trkpt lat="38.4251440" lon="14.8883050">
        <ele>7.3500000</ele>
        <time>2013-06-13T09:17:02Z</time>
      </trkpt>
      <trkpt lat="38.4253390" lon="14.8886070">
        <ele>7.8300000</ele>
        <time>2013-06-13T09:17:20Z</time>
      </trkpt>
      <trkpt lat="38.4255070" lon="14.8888520">
        <ele>7.8300000</ele>
        <time>2013-06-13T09:17:38Z</time>
      </trkpt>
      <trkpt lat="38.4256630" lon="14.8891120">
        <ele>7.3500000</ele>
        <time>2013-06-13T09:17:55Z</time>
      </trkpt>
      <trkpt lat="38.4258190" lon="14.8893680">
        <ele>7.8300000</ele>
        <time>2013-06-13T09:18:11Z</time>
      </trkpt>
      <trkpt lat="38.4259870" lon="14.8896380">
        <ele>8.3100000</ele>
        <time>2013-06-13T09:18:27Z</time>
      </trkpt>
      <trkpt lat="38.4261970" lon="14.8899060">
        <ele>7.8300000</ele>
        <time>2013-06-13T09:18:44Z</time>
      </trkpt>
      <trkpt lat="38.4263840" lon="14.8901590">
        <ele>7.8300000</ele>
        <time>2013-06-13T09:18:59Z</time>
      </trkpt>
      <trkpt lat="38.4266170" lon="14.8904230">
        <ele>7.8300000</ele>
        <time>2013-06-13T09:19:16Z</time>
      </trkpt>
      <trkpt lat="38.4268340" lon="14.8906650">
        <ele>8.3100000</ele>
        <time>2013-06-13T09:19:32Z</time>
      </trkpt>
      <trkpt lat="38.4270520" lon="14.8909230">
        <ele>7.8300000</ele>
        <time>2013-06-13T09:19:48Z</time>
      </trkpt>
      <trkpt lat="38.4273030" lon="14.8912270">
        <ele>7.8300000</ele>
        <time>2013-06-13T09:20:05Z</time>
      </trkpt>
      <trkpt lat="38.4274790" lon="14.8915110">
        <ele>8.3100000</ele>
        <time>2013-06-13T09:20:20Z</time>
      </trkpt>
      <trkpt lat="38.4276810" lon="14.8917980">
        <ele>7.8300000</ele>
        <time>2013-06-13T09:20:36Z</time>
      </trkpt>
      <trkpt lat="38.4279330" lon="14.8921540">
        <ele>8.3100000</ele>
        <time>2013-06-13T09:20:55Z</time>
      </trkpt>
      <trkpt lat="38.4281580" lon="14.8924570">
        <ele>7.8300000</ele>
        <time>2013-06-13T09:21:12Z</time>
      </trkpt>
      <trkpt lat="38.4283490" lon="14.8927470">
        <ele>7.8300000</ele>
        <time>2013-06-13T09:21:28Z</time>
      </trkpt>
      <trkpt lat="38.4285240" lon="14.8929660">
        <ele>7.8300000</ele>
        <time>2013-06-13T09:21:41Z</time>
      </trkpt>
      <trkpt lat="38.4287150" lon="14.8932430">
        <ele>8.3100000</ele>
        <time>2013-06-13T09:21:57Z</time>
      </trkpt>
      <trkpt lat="38.4288860" lon="14.8934540">
        <ele>7.8300000</ele>
        <time>2013-06-13T09:22:10Z</time>
      </trkpt>
      <trkpt lat="38.4291150" lon="14.8937510">
        <ele>8.7900000</ele>
        <time>2013-06-13T09:22:28Z</time>
      </trkpt>
      <trkpt lat="38.4293060" lon="14.8940450">
        <ele>7.3500000</ele>
        <time>2013-06-13T09:22:45Z</time>
      </trkpt>
      <trkpt lat="38.4295430" lon="14.8943350">
        <ele>7.8300000</ele>
        <time>2013-06-13T09:23:02Z</time>
      </trkpt>
      <trkpt lat="38.4297100" lon="14.8945890">
        <ele>8.3100000</ele>
        <time>2013-06-13T09:23:16Z</time>
      </trkpt>
      <trkpt lat="38.4299620" lon="14.8949110">
        <ele>7.8300000</ele>
        <time>2013-06-13T09:23:35Z</time>
      </trkpt>
      <trkpt lat="38.4301450" lon="14.8952130">
        <ele>7.8300000</ele>
        <time>2013-06-13T09:23:52Z</time>
      </trkpt>
      <trkpt lat="38.4303250" lon="14.8954680">
        <ele>8.3100000</ele>
        <time>2013-06-13T09:24:07Z</time>
      </trkpt>
      <trkpt lat="38.4305500" lon="14.8957180">
        <ele>8.7900000</ele>
        <time>2013-06-13T09:24:23Z</time>
      </trkpt>
      <trkpt lat="38.4307210" lon="14.8959510">
        <ele>7.8300000</ele>
        <time>2013-06-13T09:24:38Z</time>
      </trkpt>
      <trkpt lat="38.4308550" lon="14.8961620">
        <ele>8.7900000</ele>
        <time>2013-06-13T09:24:52Z</time>
      </trkpt>
      <trkpt lat="38.4310150" lon="14.8963940">
        <ele>7.8300000</ele>
        <time>2013-06-13T09:25:08Z</time>
      </trkpt>
      <trkpt lat="38.4311900" lon="14.8966270">
        <ele>8.3100000</ele>
        <time>2013-06-13T09:25:24Z</time>
      </trkpt>
      <trkpt lat="38.4313960" lon="14.8969000">
        <ele>8.3100000</ele>
        <time>2013-06-13T09:25:42Z</time>
      </trkpt>
      <trkpt lat="38.4315610" lon="14.8971290">
        <ele>7.8300000</ele>
        <time>2013-06-13T09:25:57Z</time>
      </trkpt>
      <trkpt lat="38.4317440" lon="14.8973400">
        <ele>7.8300000</ele>
        <time>2013-06-13T09:26:11Z</time>
      </trkpt>
      <trkpt lat="38.4319760" lon="14.8975760">
        <ele>7.8300000</ele>
        <time>2013-06-13T09:26:28Z</time>
      </trkpt>
      <trkpt lat="38.4322320" lon="14.8977720">
        <ele>7.3500000</ele>
        <time>2013-06-13T09:26:44Z</time>
      </trkpt>
      <trkpt lat="38.4325030" lon="14.8980160">
        <ele>7.3500000</ele>
        <time>2013-06-13T09:27:01Z</time>
      </trkpt>
      <trkpt lat="38.4326630" lon="14.8982180">
        <ele>7.3500000</ele>
        <time>2013-06-13T09:27:13Z</time>
      </trkpt>
      <trkpt lat="38.4328880" lon="14.8984650">
        <ele>7.8300000</ele>
        <time>2013-06-13T09:27:30Z</time>
      </trkpt>
      <trkpt lat="38.4331090" lon="14.8987050">
        <ele>7.3500000</ele>
        <time>2013-06-13T09:27:48Z</time>
      </trkpt>
      <trkpt lat="38.4333530" lon="14.8989260">
        <ele>7.8300000</ele>
        <time>2013-06-13T09:28:05Z</time>
      </trkpt>
      <trkpt lat="38.4335820" lon="14.8991640">
        <ele>7.8300000</ele>
        <time>2013-06-13T09:28:22Z</time>
      </trkpt>
      <trkpt lat="38.4338000" lon="14.8994250">
        <ele>7.3500000</ele>
        <time>2013-06-13T09:28:39Z</time>
      </trkpt>
      <trkpt lat="38.4340320" lon="14.8996520">
        <ele>7.3500000</ele>
        <time>2013-06-13T09:28:55Z</time>
      </trkpt>
      <trkpt lat="38.4342500" lon="14.8999160">
        <ele>7.3500000</ele>
        <time>2013-06-13T09:29:12Z</time>
      </trkpt>
      <trkpt lat="38.4344710" lon="14.9001430">
        <ele>7.8300000</ele>
        <time>2013-06-13T09:29:27Z</time>
      </trkpt>
      <trkpt lat="38.4347460" lon="14.9004870">
        <ele>6.8700000</ele>
        <time>2013-06-13T09:29:47Z</time>
      </trkpt>
      <trkpt lat="38.4350240" lon="14.9008100">
        <ele>6.8700000</ele>
        <time>2013-06-13T09:30:06Z</time>
      </trkpt>
      <trkpt lat="38.4352720" lon="14.9010790">
        <ele>7.8300000</ele>
        <time>2013-06-13T09:30:22Z</time>
      </trkpt>
      <trkpt lat="38.4354820" lon="14.9013780">
        <ele>7.3500000</ele>
        <time>2013-06-13T09:30:39Z</time>
      </trkpt>
      <trkpt lat="38.4356730" lon="14.9015740">
        <ele>7.3500000</ele>
        <time>2013-06-13T09:30:53Z</time>
      </trkpt>
      <trkpt lat="38.4358860" lon="14.9018180">
        <ele>7.3500000</ele>
        <time>2013-06-13T09:31:09Z</time>
      </trkpt>
      <trkpt lat="38.4360620" lon="14.9020400">
        <ele>7.3500000</ele>
        <time>2013-06-13T09:31:23Z</time>
      </trkpt>
      <trkpt lat="38.4362600" lon="14.9023010">
        <ele>7.3500000</ele>
        <time>2013-06-13T09:31:38Z</time>
      </trkpt>
      <trkpt lat="38.4364850" lon="14.9025530">
        <ele>7.3500000</ele>
        <time>2013-06-13T09:31:54Z</time>
      </trkpt>
      <trkpt lat="38.4367100" lon="14.9028040">
        <ele>7.3500000</ele>
        <time>2013-06-13T09:32:10Z</time>
      </trkpt>
      <trkpt lat="38.4369160" lon="14.9030610">
        <ele>6.8700000</ele>
        <time>2013-06-13T09:32:26Z</time>
      </trkpt>
      <trkpt lat="38.4371300" lon="14.9032750">
        <ele>7.3500000</ele>
        <time>2013-06-13T09:32:41Z</time>
      </trkpt>
      <trkpt lat="38.4373930" lon="14.9035010">
        <ele>7.3500000</ele>
        <time>2013-06-13T09:32:58Z</time>
      </trkpt>
      <trkpt lat="38.4376560" lon="14.9037740">
        <ele>7.3500000</ele>
        <time>2013-06-13T09:33:15Z</time>
      </trkpt>
      <trkpt lat="38.4378970" lon="14.9040480">
        <ele>8.3100000</ele>
        <time>2013-06-13T09:33:32Z</time>
      </trkpt>
      <trkpt lat="38.4381520" lon="14.9043460">
        <ele>7.8300000</ele>
        <time>2013-06-13T09:33:49Z</time>
      </trkpt>
      <trkpt lat="38.4384000" lon="14.9045970">
        <ele>7.3500000</ele>
        <time>2013-06-13T09:34:05Z</time>
      </trkpt>
      <trkpt lat="38.4386860" lon="14.9048310">
        <ele>7.8300000</ele>
        <time>2013-06-13T09:34:22Z</time>
      </trkpt>
      <trkpt lat="38.4389310" lon="14.9050930">
        <ele>7.3500000</ele>
        <time>2013-06-13T09:34:40Z</time>
      </trkpt>
      <trkpt lat="38.4391560" lon="14.9053950">
        <ele>7.8300000</ele>
        <time>2013-06-13T09:34:58Z</time>
      </trkpt>
      <trkpt lat="38.4393620" lon="14.9056600">
        <ele>7.8300000</ele>
        <time>2013-06-13T09:35:14Z</time>
      </trkpt>
      <trkpt lat="38.4395330" lon="14.9059230">
        <ele>6.8700000</ele>
        <time>2013-06-13T09:35:29Z</time>
      </trkpt>
      <trkpt lat="38.4397130" lon="14.9061690">
        <ele>7.8300000</ele>
        <time>2013-06-13T09:35:43Z</time>
      </trkpt>
      <trkpt lat="38.4399110" lon="14.9064080">
        <ele>7.3500000</ele>
        <time>2013-06-13T09:35:58Z</time>
      </trkpt>
      <trkpt lat="38.4401780" lon="14.9067230">
        <ele>7.3500000</ele>
        <time>2013-06-13T09:36:18Z</time>
      </trkpt>
      <trkpt lat="38.4404030" lon="14.9070030">
        <ele>7.8300000</ele>
        <time>2013-06-13T09:36:34Z</time>
      </trkpt>
      <trkpt lat="38.4406970" lon="14.9073040">
        <ele>7.8300000</ele>
        <time>2013-06-13T09:36:53Z</time>
      </trkpt>
      <trkpt lat="38.4409370" lon="14.9075750">
        <ele>8.3100000</ele>
        <time>2013-06-13T09:37:09Z</time>
      </trkpt>
      <trkpt lat="38.4411540" lon="14.9078130">
        <ele>7.8300000</ele>
        <time>2013-06-13T09:37:24Z</time>
      </trkpt>
      <trkpt lat="38.4414520" lon="14.9080440">
        <ele>8.3100000</ele>
        <time>2013-06-13T09:37:42Z</time>
      </trkpt>
      <trkpt lat="38.4417570" lon="14.9082740">
        <ele>7.3500000</ele>
        <time>2013-06-13T09:37:59Z</time>
      </trkpt>
      <trkpt lat="38.4420320" lon="14.9084900">
        <ele>7.8300000</ele>
        <time>2013-06-13T09:38:14Z</time>
      </trkpt>
      <trkpt lat="38.4422910" lon="14.9087540">
        <ele>7.8300000</ele>
        <time>2013-06-13T09:38:30Z</time>
      </trkpt>
      <trkpt lat="38.4425280" lon="14.9089720">
        <ele>8.3100000</ele>
        <time>2013-06-13T09:38:46Z</time>
      </trkpt>
      <trkpt lat="38.4427490" lon="14.9091720">
        <ele>8.3100000</ele>
        <time>2013-06-13T09:39:02Z</time>
      </trkpt>
      <trkpt lat="38.4430120" lon="14.9094130">
        <ele>7.8300000</ele>
        <time>2013-06-13T09:39:20Z</time>
      </trkpt>
      <trkpt lat="38.4432790" lon="14.9096980">
        <ele>7.8300000</ele>
        <time>2013-06-13T09:39:39Z</time>
      </trkpt>
      <trkpt lat="38.4434850" lon="14.9099540">
        <ele>8.3100000</ele>
        <time>2013-06-13T09:39:55Z</time>
      </trkpt>
      <trkpt lat="38.4437290" lon="14.9101950">
        <ele>7.8300000</ele>
        <time>2013-06-13T09:40:12Z</time>
      </trkpt>
      <trkpt lat="38.4440040" lon="14.9104170">
        <ele>7.8300000</ele>
        <time>2013-06-13T09:40:29Z</time>
      </trkpt>
      <trkpt lat="38.4442670" lon="14.9106580">
        <ele>8.3100000</ele>
        <time>2013-06-13T09:40:45Z</time>
      </trkpt>
      <trkpt lat="38.4446030" lon="14.9109130">
        <ele>7.8300000</ele>
        <time>2013-06-13T09:41:04Z</time>
      </trkpt>
      <trkpt lat="38.4449390" lon="14.9111830">
        <ele>8.3100000</ele>
        <time>2013-06-13T09:41:23Z</time>
      </trkpt>
      <trkpt lat="38.4452060" lon="14.9114270">
        <ele>7.3500000</ele>
        <time>2013-06-13T09:41:38Z</time>
      </trkpt>
      <trkpt lat="38.4455380" lon="14.9116800">
        <ele>7.8300000</ele>
        <time>2013-06-13T09:41:56Z</time>
      </trkpt>
      <trkpt lat="38.4458350" lon="14.9118980">
        <ele>8.7900000</ele>
        <time>2013-06-13T09:42:11Z</time>
      </trkpt>
      <trkpt lat="38.4461290" lon="14.9121200">
        <ele>8.3100000</ele>
        <time>2013-06-13T09:42:25Z</time>
      </trkpt>
      <trkpt lat="38.4464870" lon="14.9123640">
        <ele>8.3100000</ele>
        <time>2013-06-13T09:42:42Z</time>
      </trkpt>
      <trkpt lat="38.4468690" lon="14.9126210">
        <ele>8.3100000</ele>
        <time>2013-06-13T09:43:00Z</time>
      </trkpt>
      <trkpt lat="38.4471550" lon="14.9128810">
        <ele>8.3100000</ele>
        <time>2013-06-13T09:43:16Z</time>
      </trkpt>
      <trkpt lat="38.4473800" lon="14.9131720">
        <ele>7.8300000</ele>
        <time>2013-06-13T09:43:32Z</time>
      </trkpt>
      <trkpt lat="38.4476930" lon="14.9134160">
        <ele>8.7900000</ele>
        <time>2013-06-13T09:43:50Z</time>
      </trkpt>
      <trkpt lat="38.4480290" lon="14.9136430">
        <ele>8.7900000</ele>
        <time>2013-06-13T09:44:07Z</time>
      </trkpt>
      <trkpt lat="38.4483450" lon="14.9138840">
        <ele>8.7900000</ele>
        <time>2013-06-13T09:44:23Z</time>
      </trkpt>
      <trkpt lat="38.4486850" lon="14.9140950">
        <ele>8.7900000</ele>
        <time>2013-06-13T09:44:40Z</time>
      </trkpt>
      <trkpt lat="38.4490050" lon="14.9143250">
        <ele>8.7900000</ele>
        <time>2013-06-13T09:44:57Z</time>
      </trkpt>
      <trkpt lat="38.4493260" lon="14.9145570">
        <ele>8.3100000</ele>
        <time>2013-06-13T09:45:15Z</time>
      </trkpt>
      <trkpt lat="38.4495660" lon="14.9147270">
        <ele>7.8300000</ele>
        <time>2013-06-13T09:45:29Z</time>
      </trkpt>
      <trkpt lat="38.4498250" lon="14.9148610">
        <ele>8.3100000</ele>
        <time>2013-06-13T09:45:42Z</time>
      </trkpt>
      <trkpt lat="38.4501500" lon="14.9150350">
        <ele>8.3100000</ele>
        <time>2013-06-13T09:45:57Z</time>
      </trkpt>
      <trkpt lat="38.4505120" lon="14.9153090">
        <ele>8.3100000</ele>
        <time>2013-06-13T09:46:15Z</time>
      </trkpt>
      <trkpt lat="38.4507450" lon="14.9155470">
        <ele>8.3100000</ele>
        <time>2013-06-13T09:46:29Z</time>
      </trkpt>
      <trkpt lat="38.4510120" lon="14.9157960">
        <ele>8.3100000</ele>
        <time>2013-06-13T09:46:45Z</time>
      </trkpt>
      <trkpt lat="38.4512980" lon="14.9160090">
        <ele>7.8300000</ele>
        <time>2013-06-13T09:47:02Z</time>
      </trkpt>
      <trkpt lat="38.4516030" lon="14.9161610">
        <ele>8.3100000</ele>
        <time>2013-06-13T09:47:17Z</time>
      </trkpt>
      <trkpt lat="38.4520150" lon="14.9164310">
        <ele>8.3100000</ele>
        <time>2013-06-13T09:47:36Z</time>
      </trkpt>
      <trkpt lat="38.4523580" lon="14.9166580">
        <ele>8.7900000</ele>
        <time>2013-06-13T09:47:52Z</time>
      </trkpt>
      <trkpt lat="38.4527050" lon="14.9169480">
        <ele>7.8300000</ele>
        <time>2013-06-13T09:48:11Z</time>
      </trkpt>
      <trkpt lat="38.4529690" lon="14.9172190">
        <ele>7.8300000</ele>
        <time>2013-06-13T09:48:27Z</time>
      </trkpt>
      <trkpt lat="38.4532740" lon="14.9174810">
        <ele>7.8300000</ele>
        <time>2013-06-13T09:48:44Z</time>
      </trkpt>
      <trkpt lat="38.4535330" lon="14.9177460">
        <ele>7.3500000</ele>
        <time>2013-06-13T09:49:00Z</time>
      </trkpt>
      <trkpt lat="38.4538120" lon="14.9180010">
        <ele>7.8300000</ele>
        <time>2013-06-13T09:49:15Z</time>
      </trkpt>
      <trkpt lat="38.4541130" lon="14.9182560">
        <ele>7.3500000</ele>
        <time>2013-06-13T09:49:31Z</time>
      </trkpt>
      <trkpt lat="38.4543720" lon="14.9185140">
        <ele>7.8300000</ele>
        <time>2013-06-13T09:49:47Z</time>
      </trkpt>
      <trkpt lat="38.4543950" lon="14.9188310">
        <ele>8.3100000</ele>
        <time>2013-06-13T09:50:03Z</time>
      </trkpt>
      <trkpt lat="38.4541130" lon="14.9189960">
        <ele>8.7900000</ele>
        <time>2013-06-13T09:50:18Z</time>
      </trkpt>
      <trkpt lat="38.4537810" lon="14.9194660">
        <ele>7.8300000</ele>
        <time>2013-06-13T09:50:36Z</time>
      </trkpt>
      <trkpt lat="38.4534990" lon="14.9199100">
        <ele>7.8300000</ele>
        <time>2013-06-13T09:50:53Z</time>
      </trkpt>
      <trkpt lat="38.4532200" lon="14.9203420">
        <ele>7.8300000</ele>
        <time>2013-06-13T09:51:09Z</time>
      </trkpt>
      <trkpt lat="38.4529230" lon="14.9208180">
        <ele>7.8300000</ele>
        <time>2013-06-13T09:51:26Z</time>
      </trkpt>
      <trkpt lat="38.4526480" lon="14.9212650">
        <ele>7.8300000</ele>
        <time>2013-06-13T09:51:42Z</time>
      </trkpt>
      <trkpt lat="38.4523470" lon="14.9217390">
        <ele>7.8300000</ele>
        <time>2013-06-13T09:52:00Z</time>
      </trkpt>
      <trkpt lat="38.4520610" lon="14.9221800">
        <ele>8.3100000</ele>
        <time>2013-06-13T09:52:17Z</time>
      </trkpt>
      <trkpt lat="38.4517360" lon="14.9226650">
        <ele>7.8300000</ele>
        <time>2013-06-13T09:52:36Z</time>
      </trkpt>
      <trkpt lat="38.4515080" lon="14.9230340">
        <ele>8.3100000</ele>
        <time>2013-06-13T09:52:51Z</time>
      </trkpt>
      <trkpt lat="38.4512100" lon="14.9235320">
        <ele>7.8300000</ele>
        <time>2013-06-13T09:53:10Z</time>
      </trkpt>
      <trkpt lat="38.4509470" lon="14.9239300">
        <ele>7.8300000</ele>
        <time>2013-06-13T09:53:26Z</time>
      </trkpt>
      <trkpt lat="38.4506380" lon="14.9244110">
        <ele>7.8300000</ele>
        <time>2013-06-13T09:53:46Z</time>
      </trkpt>
      <trkpt lat="38.4503940" lon="14.9247940">
        <ele>7.8300000</ele>
        <time>2013-06-13T09:54:03Z</time>
      </trkpt>
      <trkpt lat="38.4500920" lon="14.9253030">
        <ele>7.8300000</ele>
        <time>2013-06-13T09:54:24Z</time>
      </trkpt>
      <trkpt lat="38.4498670" lon="14.9256550">
        <ele>7.8300000</ele>
        <time>2013-06-13T09:54:39Z</time>
      </trkpt>
      <trkpt lat="38.4495700" lon="14.9261270">
        <ele>7.8300000</ele>
        <time>2013-06-13T09:54:59Z</time>
      </trkpt>
      <trkpt lat="38.4493220" lon="14.9265330">
        <ele>8.3100000</ele>
        <time>2013-06-13T09:55:17Z</time>
      </trkpt>
      <trkpt lat="38.4491120" lon="14.9268610">
        <ele>7.8300000</ele>
        <time>2013-06-13T09:55:32Z</time>
      </trkpt>
      <trkpt lat="38.4488980" lon="14.9272000">
        <ele>7.8300000</ele>
        <time>2013-06-13T09:55:48Z</time>
      </trkpt>
      <trkpt lat="38.4486470" lon="14.9276200">
        <ele>8.3100000</ele>
        <time>2013-06-13T09:56:07Z</time>
      </trkpt>
      <trkpt lat="38.4483800" lon="14.9280400">
        <ele>7.8300000</ele>
        <time>2013-06-13T09:56:26Z</time>
      </trkpt>
      <trkpt lat="38.4481660" lon="14.9283870">
        <ele>7.8300000</ele>
        <time>2013-06-13T09:56:44Z</time>
      </trkpt>
      <trkpt lat="38.4479060" lon="14.9286920">
        <ele>7.8300000</ele>
        <time>2013-06-13T09:57:03Z</time>
      </trkpt>
      <trkpt lat="38.4477350" lon="14.9289590">
        <ele>7.8300000</ele>
        <time>2013-06-13T09:57:18Z</time>
      </trkpt>
      <trkpt lat="38.4475210" lon="14.9293490">
        <ele>7.8300000</ele>
        <time>2013-06-13T09:57:38Z</time>
      </trkpt>
      <trkpt lat="38.4473270" lon="14.9297250">
        <ele>7.8300000</ele>
        <time>2013-06-13T09:57:56Z</time>
      </trkpt>
      <trkpt lat="38.4470790" lon="14.9300170">
        <ele>8.7900000</ele>
        <time>2013-06-13T09:58:14Z</time>
      </trkpt>
      <trkpt lat="38.4468690" lon="14.9299800">
        <ele>8.3100000</ele>
        <time>2013-06-13T09:58:29Z</time>
      </trkpt>
      <trkpt lat="38.4467700" lon="14.9299000">
        <ele>7.8300000</ele>
        <time>2013-06-13T09:58:46Z</time>
      </trkpt>
      <trkpt lat="38.4467580" lon="14.9298880">
        <ele>7.3500000</ele>
        <time>2013-06-13T09:59:04Z</time>
      </trkpt>
      <trkpt lat="38.4467510" lon="14.9299090">
        <ele>7.3500000</ele>
        <time>2013-06-13T09:59:20Z</time>
      </trkpt>
      <trkpt lat="38.4467510" lon="14.9299760">
        <ele>7.8300000</ele>
        <time>2013-06-13T09:59:39Z</time>
      </trkpt>
      <trkpt lat="38.4467240" lon="14.9300880">
        <ele>8.3100000</ele>
        <time>2013-06-13T09:59:59Z</time>
      </trkpt>
      <trkpt lat="38.4466360" lon="14.9301680">
        <ele>7.8300000</ele>
        <time>2013-06-13T10:00:14Z</time>
      </trkpt>
      <trkpt lat="38.4465330" lon="14.9300850">
        <ele>7.8300000</ele>
        <time>2013-06-13T10:00:34Z</time>
      </trkpt>
      <trkpt lat="38.4464380" lon="14.9300000">
        <ele>7.8300000</ele>
        <time>2013-06-13T10:00:55Z</time>
      </trkpt>
      <trkpt lat="38.4463230" lon="14.9300120">
        <ele>8.3100000</ele>
        <time>2013-06-13T10:01:13Z</time>
      </trkpt>
      <trkpt lat="38.4461250" lon="14.9301010">
        <ele>8.3100000</ele>
        <time>2013-06-13T10:01:37Z</time>
      </trkpt>
      <trkpt lat="38.4459190" lon="14.9302090">
        <ele>8.3100000</ele>
        <time>2013-06-13T10:02:02Z</time>
      </trkpt>
      <trkpt lat="38.4457280" lon="14.9302870">
        <ele>8.3100000</ele>
        <time>2013-06-13T10:02:24Z</time>
      </trkpt>
      <trkpt lat="38.4456020" lon="14.9302920">
        <ele>8.3100000</ele>
        <time>2013-06-13T10:02:37Z</time>
      </trkpt>
      <trkpt lat="38.4454120" lon="14.9302940">
        <ele>8.3100000</ele>
        <time>2013-06-13T10:02:59Z</time>
      </trkpt>
      <trkpt lat="38.4452210" lon="14.9303050">
        <ele>8.3100000</ele>
        <time>2013-06-13T10:03:22Z</time>
      </trkpt>
      <trkpt lat="38.4450450" lon="14.9303250">
        <ele>8.3100000</ele>
        <time>2013-06-13T10:03:42Z</time>
      </trkpt>
      <trkpt lat="38.4448930" lon="14.9303240">
        <ele>8.3100000</ele>
        <time>2013-06-13T10:04:01Z</time>
      </trkpt>
      <trkpt lat="38.4447440" lon="14.9304090">
        <ele>8.3100000</ele>
        <time>2013-06-13T10:04:17Z</time>
      </trkpt>
      <trkpt lat="38.4446030" lon="14.9306350">
        <ele>8.3100000</ele>
        <time>2013-06-13T10:04:38Z</time>
      </trkpt>
      <trkpt lat="38.4445190" lon="14.9309090">
        <ele>8.3100000</ele>
        <time>2013-06-13T10:04:59Z</time>
      </trkpt>
      <trkpt lat="38.4444160" lon="14.9311430">
        <ele>7.8300000</ele>
        <time>2013-06-13T10:05:18Z</time>
      </trkpt>
      <trkpt lat="38.4442560" lon="14.9315170">
        <ele>7.8300000</ele>
        <time>2013-06-13T10:05:44Z</time>
      </trkpt>
      <trkpt lat="38.4441490" lon="14.9318120">
        <ele>8.3100000</ele>
        <time>2013-06-13T10:06:07Z</time>
      </trkpt>
      <trkpt lat="38.4439810" lon="14.9322490">
        <ele>8.3100000</ele>
        <time>2013-06-13T10:06:25Z</time>
      </trkpt>
      <trkpt lat="38.4436910" lon="14.9327510">
        <ele>8.3100000</ele>
        <time>2013-06-13T10:06:44Z</time>
      </trkpt>
      <trkpt lat="38.4433940" lon="14.9331250">
        <ele>8.3100000</ele>
        <time>2013-06-13T10:07:00Z</time>
      </trkpt>
      <trkpt lat="38.4429740" lon="14.9335360">
        <ele>7.8300000</ele>
        <time>2013-06-13T10:07:20Z</time>
      </trkpt>
      <trkpt lat="38.4425540" lon="14.9339970">
        <ele>8.3100000</ele>
        <time>2013-06-13T10:07:41Z</time>
      </trkpt>
      <trkpt lat="38.4422420" lon="14.9344170">
        <ele>8.3100000</ele>
        <time>2013-06-13T10:07:58Z</time>
      </trkpt>
      <trkpt lat="38.4419360" lon="14.9348340">
        <ele>8.7900000</ele>
        <time>2013-06-13T10:08:15Z</time>
      </trkpt>
      <trkpt lat="38.4416470" lon="14.9352140">
        <ele>8.3100000</ele>
        <time>2013-06-13T10:08:31Z</time>
      </trkpt>
      <trkpt lat="38.4412540" lon="14.9356470">
        <ele>8.3100000</ele>
        <time>2013-06-13T10:08:51Z</time>
      </trkpt>
      <trkpt lat="38.4408800" lon="14.9360830">
        <ele>8.7900000</ele>
        <time>2013-06-13T10:09:10Z</time>
      </trkpt>
      <trkpt lat="38.4405780" lon="14.9364430">
        <ele>8.7900000</ele>
        <time>2013-06-13T10:09:25Z</time>
      </trkpt>
      <trkpt lat="38.4402770" lon="14.9368780">
        <ele>8.7900000</ele>
        <time>2013-06-13T10:09:42Z</time>
      </trkpt>
      <trkpt lat="38.4399800" lon="14.9373170">
        <ele>8.3100000</ele>
        <time>2013-06-13T10:09:59Z</time>
      </trkpt>
      <trkpt lat="38.4396970" lon="14.9377130">
        <ele>8.7900000</ele>
        <time>2013-06-13T10:10:15Z</time>
      </trkpt>
      <trkpt lat="38.4394230" lon="14.9380840">
        <ele>8.7900000</ele>
        <time>2013-06-13T10:10:30Z</time>
      </trkpt>
      <trkpt lat="38.4390830" lon="14.9385400">
        <ele>9.2700000</ele>
        <time>2013-06-13T10:10:49Z</time>
      </trkpt>
      <trkpt lat="38.4387970" lon="14.9390020">
        <ele>8.7900000</ele>
        <time>2013-06-13T10:11:06Z</time>
      </trkpt>
      <trkpt lat="38.4385300" lon="14.9394580">
        <ele>8.7900000</ele>
        <time>2013-06-13T10:11:23Z</time>
      </trkpt>
      <trkpt lat="38.4382480" lon="14.9400790">
        <ele>8.7900000</ele>
        <time>2013-06-13T10:11:44Z</time>
      </trkpt>
      <trkpt lat="38.4380070" lon="14.9406910">
        <ele>8.7900000</ele>
        <time>2013-06-13T10:12:04Z</time>
      </trkpt>
      <trkpt lat="38.4377780" lon="14.9412900">
        <ele>8.7900000</ele>
        <time>2013-06-13T10:12:24Z</time>
      </trkpt>
      <trkpt lat="38.4377590" lon="14.9419080">
        <ele>8.7900000</ele>
        <time>2013-06-13T10:12:42Z</time>
      </trkpt>
      <trkpt lat="38.4379310" lon="14.9422920">
        <ele>9.2700000</ele>
        <time>2013-06-13T10:13:00Z</time>
      </trkpt>
      <trkpt lat="38.4381710" lon="14.9424140">
        <ele>9.2700000</ele>
        <time>2013-06-13T10:13:19Z</time>
      </trkpt>
      <trkpt lat="38.4383660" lon="14.9424730">
        <ele>9.2700000</ele>
        <time>2013-06-13T10:13:37Z</time>
      </trkpt>
      <trkpt lat="38.4385760" lon="14.9425130">
        <ele>9.2700000</ele>
        <time>2013-06-13T10:13:56Z</time>
      </trkpt>
      <trkpt lat="38.4387550" lon="14.9425030">
        <ele>9.2700000</ele>
        <time>2013-06-13T10:14:14Z</time>
      </trkpt>
      <trkpt lat="38.4389460" lon="14.9424600">
        <ele>9.2700000</ele>
        <time>2013-06-13T10:14:35Z</time>
      </trkpt>
      <trkpt lat="38.4391440" lon="14.9423790">
        <ele>8.7900000</ele>
        <time>2013-06-13T10:14:58Z</time>
      </trkpt>
      <trkpt lat="38.4392930" lon="14.9423390">
        <ele>9.7500000</ele>
        <time>2013-06-13T10:15:16Z</time>
      </trkpt>
      <trkpt lat="38.4394340" lon="14.9422980">
        <ele>8.3100000</ele>
        <time>2013-06-13T10:15:35Z</time>
      </trkpt>
      <trkpt lat="38.4395710" lon="14.9422180">
        <ele>9.2700000</ele>
        <time>2013-06-13T10:15:52Z</time>
      </trkpt>
      <trkpt lat="38.4397430" lon="14.9420900">
        <ele>9.2700000</ele>
        <time>2013-06-13T10:16:10Z</time>
      </trkpt>
      <trkpt lat="38.4399450" lon="14.9419650">
        <ele>8.3100000</ele>
        <time>2013-06-13T10:16:28Z</time>
      </trkpt>
      <trkpt lat="38.4401510" lon="14.9417920">
        <ele>8.7900000</ele>
        <time>2013-06-13T10:16:45Z</time>
      </trkpt>
      <trkpt lat="38.4404560" lon="14.9415810">
        <ele>8.7900000</ele>
        <time>2013-06-13T10:17:02Z</time>
      </trkpt>
      <trkpt lat="38.4407460" lon="14.9413510">
        <ele>8.7900000</ele>
        <time>2013-06-13T10:17:19Z</time>
      </trkpt>
      <trkpt lat="38.4410360" lon="14.9410440">
        <ele>8.7900000</ele>
        <time>2013-06-13T10:17:37Z</time>
      </trkpt>
      <trkpt lat="38.4413030" lon="14.9407700">
        <ele>8.7900000</ele>
        <time>2013-06-13T10:17:53Z</time>
      </trkpt>
      <trkpt lat="38.4415400" lon="14.9405380">
        <ele>8.7900000</ele>
        <time>2013-06-13T10:18:07Z</time>
      </trkpt>
      <trkpt lat="38.4418110" lon="14.9402450">
        <ele>8.3100000</ele>
        <time>2013-06-13T10:18:26Z</time>
      </trkpt>
      <trkpt lat="38.4420510" lon="14.9400090">
        <ele>8.3100000</ele>
        <time>2013-06-13T10:18:42Z</time>
      </trkpt>
      <trkpt lat="38.4423560" lon="14.9396910">
        <ele>8.7900000</ele>
        <time>2013-06-13T10:19:00Z</time>
      </trkpt>
      <trkpt lat="38.4426460" lon="14.9394050">
        <ele>8.7900000</ele>
        <time>2013-06-13T10:19:18Z</time>
      </trkpt>
      <trkpt lat="38.4428750" lon="14.9390980">
        <ele>8.7900000</ele>
        <time>2013-06-13T10:19:35Z</time>
      </trkpt>
      <trkpt lat="38.4431950" lon="14.9388600">
        <ele>9.2700000</ele>
        <time>2013-06-13T10:19:52Z</time>
      </trkpt>
      <trkpt lat="38.4434550" lon="14.9385810">
        <ele>8.7900000</ele>
        <time>2013-06-13T10:20:09Z</time>
      </trkpt>
      <trkpt lat="38.4434090" lon="14.9384120">
        <ele>8.7900000</ele>
        <time>2013-06-13T10:20:19Z</time>
      </trkpt>
      <trkpt lat="38.4432980" lon="14.9385110">
        <ele>8.3100000</ele>
        <time>2013-06-13T10:20:26Z</time>
      </trkpt>
      <trkpt lat="38.4430770" lon="14.9389180">
        <ele>8.3100000</ele>
        <time>2013-06-13T10:20:44Z</time>
      </trkpt>
      <trkpt lat="38.4428370" lon="14.9393300">
        <ele>8.3100000</ele>
        <time>2013-06-13T10:21:01Z</time>
      </trkpt>
      <trkpt lat="38.4426000" lon="14.9397490">
        <ele>8.7900000</ele>
        <time>2013-06-13T10:21:18Z</time>
      </trkpt>
      <trkpt lat="38.4423790" lon="14.9401840">
        <ele>8.3100000</ele>
        <time>2013-06-13T10:21:35Z</time>
      </trkpt>
      <trkpt lat="38.4420930" lon="14.9407240">
        <ele>8.3100000</ele>
        <time>2013-06-13T10:21:56Z</time>
      </trkpt>
      <trkpt lat="38.4418450" lon="14.9411580">
        <ele>7.8300000</ele>
        <time>2013-06-13T10:22:15Z</time>
      </trkpt>
      <trkpt lat="38.4416620" lon="14.9415060">
        <ele>8.7900000</ele>
        <time>2013-06-13T10:22:35Z</time>
      </trkpt>
      <trkpt lat="38.4415050" lon="14.9417680">
        <ele>8.7900000</ele>
        <time>2013-06-13T10:22:55Z</time>
      </trkpt>
      <trkpt lat="38.4413950" lon="14.9419850">
        <ele>8.3100000</ele>
        <time>2013-06-13T10:23:11Z</time>
      </trkpt>
      <trkpt lat="38.4412540" lon="14.9422980">
        <ele>8.7900000</ele>
        <time>2013-06-13T10:23:34Z</time>
      </trkpt>
      <trkpt lat="38.4411200" lon="14.9425880">
        <ele>8.7900000</ele>
        <time>2013-06-13T10:23:54Z</time>
      </trkpt>
      <trkpt lat="38.4410060" lon="14.9428520">
        <ele>8.7900000</ele>
        <time>2013-06-13T10:24:13Z</time>
      </trkpt>
      <trkpt lat="38.4408650" lon="14.9431150">
        <ele>8.7900000</ele>
        <time>2013-06-13T10:24:34Z</time>
      </trkpt>
      <trkpt lat="38.4407310" lon="14.9433930">
        <ele>8.3100000</ele>
        <time>2013-06-13T10:24:55Z</time>
      </trkpt>
      <trkpt lat="38.4406130" lon="14.9437040">
        <ele>8.7900000</ele>
        <time>2013-06-13T10:25:18Z</time>
      </trkpt>
      <trkpt lat="38.4404640" lon="14.9439240">
        <ele>8.7900000</ele>
        <time>2013-06-13T10:25:37Z</time>
      </trkpt>
      <trkpt lat="38.4403380" lon="14.9442360">
        <ele>8.3100000</ele>
        <time>2013-06-13T10:25:57Z</time>
      </trkpt>
      <trkpt lat="38.4401440" lon="14.9443740">
        <ele>8.7900000</ele>
        <time>2013-06-13T10:26:13Z</time>
      </trkpt>
      <trkpt lat="38.4398770" lon="14.9445200">
        <ele>8.7900000</ele>
        <time>2013-06-13T10:26:33Z</time>
      </trkpt>
      <trkpt lat="38.4395710" lon="14.9447480">
        <ele>9.2700000</ele>
        <time>2013-06-13T10:26:54Z</time>
      </trkpt>
      <trkpt lat="38.4393230" lon="14.9449930">
        <ele>8.7900000</ele>
        <time>2013-06-13T10:27:13Z</time>
      </trkpt>
      <trkpt lat="38.4391140" lon="14.9453340">
        <ele>8.7900000</ele>
        <time>2013-06-13T10:27:32Z</time>
      </trkpt>
      <trkpt lat="38.4389500" lon="14.9457830">
        <ele>8.7900000</ele>
        <time>2013-06-13T10:27:54Z</time>
      </trkpt>
      <trkpt lat="38.4388240" lon="14.9462410">
        <ele>8.7900000</ele>
        <time>2013-06-13T10:28:15Z</time>
      </trkpt>
      <trkpt lat="38.4386410" lon="14.9467040">
        <ele>8.7900000</ele>
        <time>2013-06-13T10:28:36Z</time>
      </trkpt>
      <trkpt lat="38.4385150" lon="14.9471240">
        <ele>8.7900000</ele>
        <time>2013-06-13T10:28:53Z</time>
      </trkpt>
      <trkpt lat="38.4383390" lon="14.9477290">
        <ele>8.7900000</ele>
        <time>2013-06-13T10:29:11Z</time>
      </trkpt>
      <trkpt lat="38.4381140" lon="14.9485060">
        <ele>8.7900000</ele>
        <time>2013-06-13T10:29:33Z</time>
      </trkpt>
      <trkpt lat="38.4379390" lon="14.9492250">
        <ele>8.7900000</ele>
        <time>2013-06-13T10:29:53Z</time>
      </trkpt>
      <trkpt lat="38.4378050" lon="14.9498040">
        <ele>8.3100000</ele>
        <time>2013-06-13T10:30:09Z</time>
      </trkpt>
      <trkpt lat="38.4376950" lon="14.9504190">
        <ele>8.3100000</ele>
        <time>2013-06-13T10:30:26Z</time>
      </trkpt>
      <trkpt lat="38.4375530" lon="14.9510830">
        <ele>7.8300000</ele>
        <time>2013-06-13T10:30:44Z</time>
      </trkpt>
      <trkpt lat="38.4374240" lon="14.9518280">
        <ele>8.3100000</ele>
        <time>2013-06-13T10:31:04Z</time>
      </trkpt>
      <trkpt lat="38.4373130" lon="14.9527040">
        <ele>8.3100000</ele>
        <time>2013-06-13T10:31:27Z</time>
      </trkpt>
      <trkpt lat="38.4372480" lon="14.9535100">
        <ele>8.3100000</ele>
        <time>2013-06-13T10:31:48Z</time>
      </trkpt>
      <trkpt lat="38.4373050" lon="14.9543540">
        <ele>8.3100000</ele>
        <time>2013-06-13T10:32:10Z</time>
      </trkpt>
      <trkpt lat="38.4374080" lon="14.9550910">
        <ele>8.3100000</ele>
        <time>2013-06-13T10:32:29Z</time>
      </trkpt>
      <trkpt lat="38.4376140" lon="14.9557880">
        <ele>8.3100000</ele>
        <time>2013-06-13T10:32:48Z</time>
      </trkpt>
      <trkpt lat="38.4378740" lon="14.9565290">
        <ele>8.7900000</ele>
        <time>2013-06-13T10:33:09Z</time>
      </trkpt>
      <trkpt lat="38.4382130" lon="14.9572820">
        <ele>8.7900000</ele>
        <time>2013-06-13T10:33:32Z</time>
      </trkpt>
      <trkpt lat="38.4385950" lon="14.9579290">
        <ele>8.3100000</ele>
        <time>2013-06-13T10:33:53Z</time>
      </trkpt>
      <trkpt lat="38.4390220" lon="14.9584130">
        <ele>8.3100000</ele>
        <time>2013-06-13T10:34:12Z</time>
      </trkpt>
      <trkpt lat="38.4395790" lon="14.9589050">
        <ele>8.3100000</ele>
        <time>2013-06-13T10:34:34Z</time>
      </trkpt>
      <trkpt lat="38.4401020" lon="14.9594530">
        <ele>8.7900000</ele>
        <time>2013-06-13T10:34:56Z</time>
      </trkpt>
      <trkpt lat="38.4405630" lon="14.9599190">
        <ele>7.8300000</ele>
        <time>2013-06-13T10:35:15Z</time>
      </trkpt>
      <trkpt lat="38.4411090" lon="14.9604180">
        <ele>8.3100000</ele>
        <time>2013-06-13T10:35:37Z</time>
      </trkpt>
      <trkpt lat="38.4416890" lon="14.9608730">
        <ele>7.8300000</ele>
        <time>2013-06-13T10:35:59Z</time>
      </trkpt>
      <trkpt lat="38.4422190" lon="14.9611310">
        <ele>7.8300000</ele>
        <time>2013-06-13T10:36:19Z</time>
      </trkpt>
      <trkpt lat="38.4426230" lon="14.9611740">
        <ele>7.8300000</ele>
        <time>2013-06-13T10:36:41Z</time>
      </trkpt>
      <trkpt lat="38.4430310" lon="14.9612800">
        <ele>8.3100000</ele>
        <time>2013-06-13T10:37:08Z</time>
      </trkpt>
      <trkpt lat="38.4433980" lon="14.9613590">
        <ele>8.3100000</ele>
        <time>2013-06-13T10:37:35Z</time>
      </trkpt>
      <trkpt lat="38.4436720" lon="14.9614280">
        <ele>7.8300000</ele>
        <time>2013-06-13T10:37:55Z</time>
      </trkpt>
      <trkpt lat="38.4439770" lon="14.9615290">
        <ele>8.3100000</ele>
        <time>2013-06-13T10:38:21Z</time>
      </trkpt>
      <trkpt lat="38.4442670" lon="14.9616020">
        <ele>8.7900000</ele>
        <time>2013-06-13T10:38:49Z</time>
      </trkpt>
      <trkpt lat="38.4445800" lon="14.9616430">
        <ele>8.3100000</ele>
        <time>2013-06-13T10:39:19Z</time>
      </trkpt>
      <trkpt lat="38.4448360" lon="14.9617530">
        <ele>7.8300000</ele>
        <time>2013-06-13T10:39:45Z</time>
      </trkpt>
      <trkpt lat="38.4450990" lon="14.9618700">
        <ele>8.3100000</ele>
        <time>2013-06-13T10:40:13Z</time>
      </trkpt>
      <trkpt lat="38.4453120" lon="14.9620140">
        <ele>8.7900000</ele>
        <time>2013-06-13T10:40:38Z</time>
      </trkpt>
      <trkpt lat="38.4455180" lon="14.9621390">
        <ele>8.7900000</ele>
        <time>2013-06-13T10:41:04Z</time>
      </trkpt>
      <trkpt lat="38.4457820" lon="14.9622060">
        <ele>9.7500000</ele>
        <time>2013-06-13T10:41:34Z</time>
      </trkpt>
      <trkpt lat="38.4460180" lon="14.9623070">
        <ele>7.8300000</ele>
        <time>2013-06-13T10:42:03Z</time>
      </trkpt>
      <trkpt lat="38.4461330" lon="14.9623950">
        <ele>8.3100000</ele>
        <time>2013-06-13T10:42:25Z</time>
      </trkpt>
      <trkpt lat="38.4461480" lon="14.9624020">
        <ele>8.3100000</ele>
        <time>2013-06-13T10:42:51Z</time>
      </trkpt>
      <trkpt lat="38.4461480" lon="14.9624010">
        <ele>8.7900000</ele>
        <time>2013-06-13T10:43:17Z</time>
      </trkpt>
      <trkpt lat="38.4461480" lon="14.9624010">
        <ele>8.7900000</ele>
        <time>2013-06-13T10:43:43Z</time>
      </trkpt>
      <trkpt lat="38.4462130" lon="14.9624570">
        <ele>9.2700000</ele>
        <time>2013-06-13T10:44:08Z</time>
      </trkpt>
      <trkpt lat="38.4462320" lon="14.9624820">
        <ele>9.2700000</ele>
        <time>2013-06-13T10:44:36Z</time>
      </trkpt>
      <trkpt lat="38.4462320" lon="14.9624820">
        <ele>9.2700000</ele>
        <time>2013-06-13T10:44:41Z</time>
      </trkpt>
      <trkpt lat="38.4462930" lon="14.9626250">
        <ele>9.7500000</ele>
        <time>2013-06-13T10:45:16Z</time>
      </trkpt>
      <trkpt lat="38.4463270" lon="14.9625840">
        <ele>8.3100000</ele>
        <time>2013-06-13T10:45:35Z</time>
      </trkpt>
      <trkpt lat="38.4463270" lon="14.9625840">
        <ele>8.7900000</ele>
        <time>2013-06-13T10:45:57Z</time>
      </trkpt>
      <trkpt lat="38.4463270" lon="14.9625840">
        <ele>9.2700000</ele>
        <time>2013-06-13T10:46:20Z</time>
      </trkpt>
      <trkpt lat="38.4463770" lon="14.9626700">
        <ele>9.7500000</ele>
        <time>2013-06-13T10:46:42Z</time>
      </trkpt>
      <trkpt lat="38.4464070" lon="14.9627920">
        <ele>9.2700000</ele>
        <time>2013-06-13T10:46:53Z</time>
      </trkpt>
      <trkpt lat="38.4465710" lon="14.9630490">
        <ele>8.7900000</ele>
        <time>2013-06-13T10:47:16Z</time>
      </trkpt>
      <trkpt lat="38.4469490" lon="14.9632270">
        <ele>8.7900000</ele>
        <time>2013-06-13T10:47:41Z</time>
      </trkpt>
      <trkpt lat="38.4472620" lon="14.9633960">
        <ele>8.7900000</ele>
        <time>2013-06-13T10:48:03Z</time>
      </trkpt>
      <trkpt lat="38.4475980" lon="14.9636320">
        <ele>8.7900000</ele>
        <time>2013-06-13T10:48:27Z</time>
      </trkpt>
      <trkpt lat="38.4479220" lon="14.9638730">
        <ele>9.2700000</ele>
        <time>2013-06-13T10:48:49Z</time>
      </trkpt>
      <trkpt lat="38.4482920" lon="14.9640670">
        <ele>8.7900000</ele>
        <time>2013-06-13T10:49:13Z</time>
      </trkpt>
      <trkpt lat="38.4486080" lon="14.9641940">
        <ele>8.7900000</ele>
        <time>2013-06-13T10:49:32Z</time>
      </trkpt>
      <trkpt lat="38.4489330" lon="14.9643390">
        <ele>8.7900000</ele>
        <time>2013-06-13T10:49:53Z</time>
      </trkpt>
      <trkpt lat="38.4493220" lon="14.9645110">
        <ele>9.2700000</ele>
        <time>2013-06-13T10:50:17Z</time>
      </trkpt>
      <trkpt lat="38.4499170" lon="14.9646400">
        <ele>8.7900000</ele>
        <time>2013-06-13T10:50:41Z</time>
      </trkpt>
      <trkpt lat="38.4506000" lon="14.9648320">
        <ele>10.2300000</ele>
        <time>2013-06-13T10:51:07Z</time>
      </trkpt>
      <trkpt lat="38.4512180" lon="14.9649980">
        <ele>8.7900000</ele>
        <time>2013-06-13T10:51:31Z</time>
      </trkpt>
      <trkpt lat="38.4519160" lon="14.9651860">
        <ele>8.7900000</ele>
        <time>2013-06-13T10:51:58Z</time>
      </trkpt>
      <trkpt lat="38.4526370" lon="14.9653520">
        <ele>8.7900000</ele>
        <time>2013-06-13T10:52:24Z</time>
      </trkpt>
      <trkpt lat="38.4533730" lon="14.9654100">
        <ele>8.7900000</ele>
        <time>2013-06-13T10:52:50Z</time>
      </trkpt>
      <trkpt lat="38.4539830" lon="14.9655300">
        <ele>8.7900000</ele>
        <time>2013-06-13T10:53:13Z</time>
      </trkpt>
      <trkpt lat="38.4546660" lon="14.9657070">
        <ele>8.7900000</ele>
        <time>2013-06-13T10:53:38Z</time>
      </trkpt>
      <trkpt lat="38.4552880" lon="14.9658140">
        <ele>8.7900000</ele>
        <time>2013-06-13T10:54:01Z</time>
      </trkpt>
      <trkpt lat="38.4560470" lon="14.9659040">
        <ele>10.2300000</ele>
        <time>2013-06-13T10:54:29Z</time>
      </trkpt>
      <trkpt lat="38.4566080" lon="14.9658890">
        <ele>9.2700000</ele>
        <time>2013-06-13T10:54:49Z</time>
      </trkpt>
      <trkpt lat="38.4573290" lon="14.9659420">
        <ele>8.7900000</ele>
        <time>2013-06-13T10:55:15Z</time>
      </trkpt>
      <trkpt lat="38.4580120" lon="14.9659580">
        <ele>9.7500000</ele>
        <time>2013-06-13T10:55:40Z</time>
      </trkpt>
      <trkpt lat="38.4586070" lon="14.9659380">
        <ele>9.7500000</ele>
        <time>2013-06-13T10:56:01Z</time>
      </trkpt>
      <trkpt lat="38.4590340" lon="14.9660470">
        <ele>10.2300000</ele>
        <time>2013-06-13T10:56:18Z</time>
      </trkpt>
      <trkpt lat="38.4596370" lon="14.9661540">
        <ele>9.2700000</ele>
        <time>2013-06-13T10:56:40Z</time>
      </trkpt>
      <trkpt lat="38.4603770" lon="14.9661900">
        <ele>9.7500000</ele>
        <time>2013-06-13T10:57:06Z</time>
      </trkpt>
      <trkpt lat="38.4611130" lon="14.9662580">
        <ele>9.7500000</ele>
        <time>2013-06-13T10:57:32Z</time>
      </trkpt>
      <trkpt lat="38.4619330" lon="14.9662510">
        <ele>9.7500000</ele>
        <time>2013-06-13T10:58:01Z</time>
      </trkpt>
      <trkpt lat="38.4627150" lon="14.9662990">
        <ele>10.7100000</ele>
        <time>2013-06-13T10:58:29Z</time>
      </trkpt>
      <trkpt lat="38.4634360" lon="14.9662960">
        <ele>10.7100000</ele>
        <time>2013-06-13T10:58:55Z</time>
      </trkpt>
      <trkpt lat="38.4640920" lon="14.9662690">
        <ele>9.7500000</ele>
        <time>2013-06-13T10:59:18Z</time>
      </trkpt>
      <trkpt lat="38.4648780" lon="14.9661030">
        <ele>10.7100000</ele>
        <time>2013-06-13T10:59:46Z</time>
      </trkpt>
      <trkpt lat="38.4656140" lon="14.9657950">
        <ele>10.2300000</ele>
        <time>2013-06-13T11:00:14Z</time>
      </trkpt>
      <trkpt lat="38.4663310" lon="14.9654710">
        <ele>9.7500000</ele>
        <time>2013-06-13T11:00:41Z</time>
      </trkpt>
      <trkpt lat="38.4670260" lon="14.9650780">
        <ele>10.7100000</ele>
        <time>2013-06-13T11:01:08Z</time>
      </trkpt>
      <trkpt lat="38.4676510" lon="14.9646850">
        <ele>10.2300000</ele>
        <time>2013-06-13T11:01:33Z</time>
      </trkpt>
      <trkpt lat="38.4681970" lon="14.9643090">
        <ele>10.7100000</ele>
        <time>2013-06-13T11:01:55Z</time>
      </trkpt>
      <trkpt lat="38.4688000" lon="14.9638340">
        <ele>10.7100000</ele>
        <time>2013-06-13T11:02:20Z</time>
      </trkpt>
      <trkpt lat="38.4694020" lon="14.9633140">
        <ele>11.1900000</ele>
        <time>2013-06-13T11:02:46Z</time>
      </trkpt>
      <trkpt lat="38.4700360" lon="14.9626830">
        <ele>10.2300000</ele>
        <time>2013-06-13T11:03:15Z</time>
      </trkpt>
      <trkpt lat="38.4706150" lon="14.9620810">
        <ele>10.2300000</ele>
        <time>2013-06-13T11:03:42Z</time>
      </trkpt>
      <trkpt lat="38.4711190" lon="14.9615910">
        <ele>10.7100000</ele>
        <time>2013-06-13T11:04:04Z</time>
      </trkpt>
      <trkpt lat="38.4716870" lon="14.9609430">
        <ele>10.2300000</ele>
        <time>2013-06-13T11:04:31Z</time>
      </trkpt>
      <trkpt lat="38.4721910" lon="14.9602770">
        <ele>10.2300000</ele>
        <time>2013-06-13T11:04:57Z</time>
      </trkpt>
      <trkpt lat="38.4727060" lon="14.9595140">
        <ele>10.7100000</ele>
        <time>2013-06-13T11:05:25Z</time>
      </trkpt>
      <trkpt lat="38.4732670" lon="14.9586490">
        <ele>10.2300000</ele>
        <time>2013-06-13T11:05:57Z</time>
      </trkpt>
      <trkpt lat="38.4736400" lon="14.9578320">
        <ele>10.7100000</ele>
        <time>2013-06-13T11:06:24Z</time>
      </trkpt>
      <trkpt lat="38.4739720" lon="14.9572530">
        <ele>10.7100000</ele>
        <time>2013-06-13T11:06:46Z</time>
      </trkpt>
      <trkpt lat="38.4743500" lon="14.9570900">
        <ele>9.7500000</ele>
        <time>2013-06-13T11:07:01Z</time>
      </trkpt>
      <trkpt lat="38.4748540" lon="14.9569460">
        <ele>9.7500000</ele>
        <time>2013-06-13T11:07:22Z</time>
      </trkpt>
      <trkpt lat="38.4752270" lon="14.9570670">
        <ele>9.7500000</ele>
        <time>2013-06-13T11:07:47Z</time>
      </trkpt>
      <trkpt lat="38.4753070" lon="14.9572450">
        <ele>9.2700000</ele>
        <time>2013-06-13T11:08:12Z</time>
      </trkpt>
      <trkpt lat="38.4752920" lon="14.9572520">
        <ele>9.2700000</ele>
        <time>2013-06-13T11:08:21Z</time>
      </trkpt>
      <trkpt lat="38.4752390" lon="14.9572520">
        <ele>9.7500000</ele>
        <time>2013-06-13T11:08:40Z</time>
      </trkpt>
      <trkpt lat="38.4753720" lon="14.9574890">
        <ele>9.7500000</ele>
        <time>2013-06-13T11:09:03Z</time>
      </trkpt>
      <trkpt lat="38.4752660" lon="14.9573850">
        <ele>9.2700000</ele>
        <time>2013-06-13T11:09:26Z</time>
      </trkpt>
      <trkpt lat="38.4752310" lon="14.9571610">
        <ele>9.7500000</ele>
        <time>2013-06-13T11:09:50Z</time>
      </trkpt>
      <trkpt lat="38.4752580" lon="14.9569070">
        <ele>9.2700000</ele>
        <time>2013-06-13T11:10:21Z</time>
      </trkpt>
      <trkpt lat="38.4752460" lon="14.9567400">
        <ele>9.7500000</ele>
        <time>2013-06-13T11:10:51Z</time>
      </trkpt>
      <trkpt lat="38.4752240" lon="14.9565780">
        <ele>10.2300000</ele>
        <time>2013-06-13T11:11:20Z</time>
      </trkpt>
      <trkpt lat="38.4750790" lon="14.9564030">
        <ele>9.7500000</ele>
        <time>2013-06-13T11:11:46Z</time>
      </trkpt>
      <trkpt lat="38.4750060" lon="14.9563170">
        <ele>9.7500000</ele>
        <time>2013-06-13T11:12:13Z</time>
      </trkpt>
      <trkpt lat="38.4750060" lon="14.9563170">
        <ele>8.7900000</ele>
        <time>2013-06-13T11:12:42Z</time>
      </trkpt>
      <trkpt lat="38.4750060" lon="14.9563190">
        <ele>9.7500000</ele>
        <time>2013-06-13T11:13:08Z</time>
      </trkpt>
      <trkpt lat="38.4750060" lon="14.9563190">
        <ele>9.2700000</ele>
        <time>2013-06-13T11:13:39Z</time>
      </trkpt>
      <trkpt lat="38.4750060" lon="14.9563210">
        <ele>9.2700000</ele>
        <time>2013-06-13T11:14:05Z</time>
      </trkpt>
      <trkpt lat="38.4750100" lon="14.9563210">
        <ele>8.7900000</ele>
        <time>2013-06-13T11:14:38Z</time>
      </trkpt>
      <trkpt lat="38.4750100" lon="14.9563210">
        <ele>8.7900000</ele>
        <time>2013-06-13T11:15:03Z</time>
      </trkpt>
      <trkpt lat="38.4750100" lon="14.9563210">
        <ele>8.7900000</ele>
        <time>2013-06-13T11:15:32Z</time>
      </trkpt>
      <trkpt lat="38.4750100" lon="14.9563220">
        <ele>8.7900000</ele>
        <time>2013-06-13T11:16:02Z</time>
      </trkpt>
      <trkpt lat="38.4750140" lon="14.9563220">
        <ele>8.3100000</ele>
        <time>2013-06-13T11:16:33Z</time>
      </trkpt>
      <trkpt lat="38.4750140" lon="14.9563220">
        <ele>8.3100000</ele>
        <time>2013-06-13T11:17:00Z</time>
      </trkpt>
      <trkpt lat="38.4750140" lon="14.9563220">
        <ele>8.3100000</ele>
        <time>2013-06-13T11:17:26Z</time>
      </trkpt>
      <trkpt lat="38.4750140" lon="14.9563240">
        <ele>8.3100000</ele>
        <time>2013-06-13T11:17:54Z</time>
      </trkpt>
      <trkpt lat="38.4750140" lon="14.9563240">
        <ele>8.3100000</ele>
        <time>2013-06-13T11:18:23Z</time>
      </trkpt>
      <trkpt lat="38.4750180" lon="14.9563230">
        <ele>7.8300000</ele>
        <time>2013-06-13T11:18:50Z</time>
      </trkpt>
      <trkpt lat="38.4750180" lon="14.9563220">
        <ele>8.3100000</ele>
        <time>2013-06-13T11:19:16Z</time>
      </trkpt>
      <trkpt lat="38.4750180" lon="14.9563220">
        <ele>8.3100000</ele>
        <time>2013-06-13T11:19:46Z</time>
      </trkpt>
      <trkpt lat="38.4750210" lon="14.9563210">
        <ele>7.8300000</ele>
        <time>2013-06-13T11:20:08Z</time>
      </trkpt>
      <trkpt lat="38.4750250" lon="14.9563220">
        <ele>7.8300000</ele>
        <time>2013-06-13T11:20:35Z</time>
      </trkpt>
      <trkpt lat="38.4750250" lon="14.9563220">
        <ele>7.8300000</ele>
        <time>2013-06-13T11:20:58Z</time>
      </trkpt>
      <trkpt lat="38.4750250" lon="14.9563220">
        <ele>7.8300000</ele>
        <time>2013-06-13T11:21:20Z</time>
      </trkpt>
      <trkpt lat="38.4750250" lon="14.9563220">
        <ele>7.8300000</ele>
        <time>2013-06-13T11:21:37Z</time>
      </trkpt>
      <trkpt lat="38.4750250" lon="14.9563210">
        <ele>8.3100000</ele>
        <time>2013-06-13T11:22:00Z</time>
      </trkpt>
      <trkpt lat="38.4750250" lon="14.9563210">
        <ele>7.8300000</ele>
        <time>2013-06-13T11:22:20Z</time>
      </trkpt>
      <trkpt lat="38.4750250" lon="14.9563220">
        <ele>7.8300000</ele>
        <time>2013-06-13T11:22:41Z</time>
      </trkpt>
      <trkpt lat="38.4750250" lon="14.9563230">
        <ele>8.3100000</ele>
        <time>2013-06-13T11:23:09Z</time>
      </trkpt>
      <trkpt lat="38.4750250" lon="14.9563230">
        <ele>8.3100000</ele>
        <time>2013-06-13T11:23:38Z</time>
      </trkpt>
      <trkpt lat="38.4750290" lon="14.9563240">
        <ele>7.3500000</ele>
        <time>2013-06-13T11:24:02Z</time>
      </trkpt>
      <trkpt lat="38.4750250" lon="14.9563230">
        <ele>7.8300000</ele>
        <time>2013-06-13T11:24:27Z</time>
      </trkpt>
      <trkpt lat="38.4750250" lon="14.9563230">
        <ele>8.3100000</ele>
        <time>2013-06-13T11:24:53Z</time>
      </trkpt>
      <trkpt lat="38.4750250" lon="14.9563260">
        <ele>7.8300000</ele>
        <time>2013-06-13T11:25:18Z</time>
      </trkpt>
      <trkpt lat="38.4750250" lon="14.9563260">
        <ele>7.3500000</ele>
        <time>2013-06-13T11:25:40Z</time>
      </trkpt>
      <trkpt lat="38.4750290" lon="14.9563260">
        <ele>6.8700000</ele>
        <time>2013-06-13T11:26:06Z</time>
      </trkpt>
      <trkpt lat="38.4750250" lon="14.9563270">
        <ele>6.8700000</ele>
        <time>2013-06-13T11:26:30Z</time>
      </trkpt>
      <trkpt lat="38.4750250" lon="14.9563270">
        <ele>6.8700000</ele>
        <time>2013-06-13T11:26:49Z</time>
      </trkpt>
      <trkpt lat="38.4750290" lon="14.9563280">
        <ele>6.8700000</ele>
        <time>2013-06-13T11:27:07Z</time>
      </trkpt>
      <trkpt lat="38.4750290" lon="14.9563280">
        <ele>7.3500000</ele>
        <time>2013-06-13T11:27:23Z</time>
      </trkpt>
      <trkpt lat="38.4750290" lon="14.9563280">
        <ele>6.8700000</ele>
        <time>2013-06-13T11:27:41Z</time>
      </trkpt>
      <trkpt lat="38.4750290" lon="14.9563280">
        <ele>7.8300000</ele>
        <time>2013-06-13T11:28:03Z</time>
      </trkpt>
      <trkpt lat="38.4750290" lon="14.9563300">
        <ele>7.3500000</ele>
        <time>2013-06-13T11:28:27Z</time>
      </trkpt>
      <trkpt lat="38.4750290" lon="14.9563300">
        <ele>6.8700000</ele>
        <time>2013-06-13T11:28:55Z</time>
      </trkpt>
      <trkpt lat="38.4750290" lon="14.9563310">
        <ele>6.8700000</ele>
        <time>2013-06-13T11:29:25Z</time>
      </trkpt>
      <trkpt lat="38.4750290" lon="14.9563320">
        <ele>6.8700000</ele>
        <time>2013-06-13T11:29:50Z</time>
      </trkpt>
      <trkpt lat="38.4750290" lon="14.9563320">
        <ele>5.4200000</ele>
        <time>2013-06-13T11:30:18Z</time>
      </trkpt>
    </trkseg>
  </trk>

  <trk>
    <name>Aktueller Track: 14 JUN 2013 06:34</name>
    <extensions>
      <gpxx:TrackExtension xmlns:gpxx="http://www.garmin.com/xmlschemas/GpxExtensions/v3">
        <gpxx:DisplayColor>Cyan</gpxx:DisplayColor>
      </gpxx:TrackExtension>
    </extensions>
    <trkseg>
      <trkpt lat="38.4749720" lon="14.9563420">
        <ele>-11.4000000</ele>
        <time>2013-06-14T04:34:01Z</time>
      </trkpt>
      <trkpt lat="38.4749760" lon="14.9563440">
        <ele>-10.4400000</ele>
        <time>2013-06-14T04:34:02Z</time>
      </trkpt>
      <trkpt lat="38.4749760" lon="14.9563540">
        <ele>-7.5500000</ele>
        <time>2013-06-14T04:34:11Z</time>
      </trkpt>
      <trkpt lat="38.4749870" lon="14.9563390">
        <ele>-5.6300000</ele>
        <time>2013-06-14T04:34:15Z</time>
      </trkpt>
      <trkpt lat="38.4749980" lon="14.9563430">
        <ele>-2.2700000</ele>
        <time>2013-06-14T04:34:24Z</time>
      </trkpt>
      <trkpt lat="38.4749760" lon="14.9563940">
        <ele>1.1000000</ele>
        <time>2013-06-14T04:34:39Z</time>
      </trkpt>
      <trkpt lat="38.4749910" lon="14.9564040">
        <ele>4.4600000</ele>
        <time>2013-06-14T04:34:55Z</time>
      </trkpt>
      <trkpt lat="38.4750290" lon="14.9563530">
        <ele>6.8700000</ele>
        <time>2013-06-14T04:35:24Z</time>
      </trkpt>
      <trkpt lat="38.4750440" lon="14.9563570">
        <ele>9.2700000</ele>
        <time>2013-06-14T04:35:48Z</time>
      </trkpt>
      <trkpt lat="38.4750480" lon="14.9563550">
        <ele>9.7500000</ele>
        <time>2013-06-14T04:36:16Z</time>
      </trkpt>
      <trkpt lat="38.4750440" lon="14.9563550">
        <ele>10.2300000</ele>
        <time>2013-06-14T04:36:44Z</time>
      </trkpt>
      <trkpt lat="38.4750400" lon="14.9563550">
        <ele>10.2300000</ele>
        <time>2013-06-14T04:37:13Z</time>
      </trkpt>
      <trkpt lat="38.4750400" lon="14.9563550">
        <ele>10.2300000</ele>
        <time>2013-06-14T04:37:44Z</time>
      </trkpt>
      <trkpt lat="38.4750400" lon="14.9563540">
        <ele>10.2300000</ele>
        <time>2013-06-14T04:38:16Z</time>
      </trkpt>
      <trkpt lat="38.4750400" lon="14.9563520">
        <ele>10.2300000</ele>
        <time>2013-06-14T04:38:51Z</time>
      </trkpt>
      <trkpt lat="38.4750400" lon="14.9563530">
        <ele>10.7100000</ele>
        <time>2013-06-14T04:39:20Z</time>
      </trkpt>
      <trkpt lat="38.4750400" lon="14.9563550">
        <ele>10.7100000</ele>
        <time>2013-06-14T04:39:54Z</time>
      </trkpt>
      <trkpt lat="38.4750400" lon="14.9563550">
        <ele>10.2300000</ele>
        <time>2013-06-14T04:40:21Z</time>
      </trkpt>
      <trkpt lat="38.4750400" lon="14.9563580">
        <ele>10.2300000</ele>
        <time>2013-06-14T04:40:52Z</time>
      </trkpt>
      <trkpt lat="38.4750400" lon="14.9563590">
        <ele>10.2300000</ele>
        <time>2013-06-14T04:41:21Z</time>
      </trkpt>
      <trkpt lat="38.4750370" lon="14.9563630">
        <ele>10.7100000</ele>
        <time>2013-06-14T04:41:52Z</time>
      </trkpt>
      <trkpt lat="38.4750370" lon="14.9563630">
        <ele>10.2300000</ele>
        <time>2013-06-14T04:42:18Z</time>
      </trkpt>
      <trkpt lat="38.4750370" lon="14.9563600">
        <ele>10.2300000</ele>
        <time>2013-06-14T04:42:48Z</time>
      </trkpt>
      <trkpt lat="38.4750370" lon="14.9563560">
        <ele>10.7100000</ele>
        <time>2013-06-14T04:43:16Z</time>
      </trkpt>
      <trkpt lat="38.4750370" lon="14.9563560">
        <ele>10.2300000</ele>
        <time>2013-06-14T04:43:46Z</time>
      </trkpt>
      <trkpt lat="38.4750370" lon="14.9563530">
        <ele>10.2300000</ele>
        <time>2013-06-14T04:44:13Z</time>
      </trkpt>
      <trkpt lat="38.4750330" lon="14.9563480">
        <ele>10.2300000</ele>
        <time>2013-06-14T04:44:42Z</time>
      </trkpt>
      <trkpt lat="38.4750330" lon="14.9563480">
        <ele>10.2300000</ele>
        <time>2013-06-14T04:45:10Z</time>
      </trkpt>
      <trkpt lat="38.4750330" lon="14.9563420">
        <ele>10.2300000</ele>
        <time>2013-06-14T04:45:40Z</time>
      </trkpt>
      <trkpt lat="38.4750290" lon="14.9563400">
        <ele>10.7100000</ele>
        <time>2013-06-14T04:46:14Z</time>
      </trkpt>
      <trkpt lat="38.4750290" lon="14.9563380">
        <ele>10.2300000</ele>
        <time>2013-06-14T04:46:50Z</time>
      </trkpt>
      <trkpt lat="38.4750250" lon="14.9563350">
        <ele>9.7500000</ele>
        <time>2013-06-14T04:47:24Z</time>
      </trkpt>
      <trkpt lat="38.4750250" lon="14.9563330">
        <ele>10.2300000</ele>
        <time>2013-06-14T04:47:58Z</time>
      </trkpt>
      <trkpt lat="38.4750250" lon="14.9563330">
        <ele>10.2300000</ele>
        <time>2013-06-14T04:48:30Z</time>
      </trkpt>
      <trkpt lat="38.4750210" lon="14.9563340">
        <ele>10.2300000</ele>
        <time>2013-06-14T04:48:59Z</time>
      </trkpt>
      <trkpt lat="38.4750180" lon="14.9563320">
        <ele>9.7500000</ele>
        <time>2013-06-14T04:49:29Z</time>
      </trkpt>
      <trkpt lat="38.4750180" lon="14.9563300">
        <ele>9.7500000</ele>
        <time>2013-06-14T04:49:59Z</time>
      </trkpt>
      <trkpt lat="38.4750180" lon="14.9563300">
        <ele>9.7500000</ele>
        <time>2013-06-14T04:50:30Z</time>
      </trkpt>
      <trkpt lat="38.4750180" lon="14.9563290">
        <ele>9.7500000</ele>
        <time>2013-06-14T04:50:58Z</time>
      </trkpt>
      <trkpt lat="38.4750180" lon="14.9563270">
        <ele>9.7500000</ele>
        <time>2013-06-14T04:51:27Z</time>
      </trkpt>
      <trkpt lat="38.4750180" lon="14.9563260">
        <ele>9.7500000</ele>
        <time>2013-06-14T04:52:00Z</time>
      </trkpt>
      <trkpt lat="38.4750180" lon="14.9563260">
        <ele>9.7500000</ele>
        <time>2013-06-14T04:52:30Z</time>
      </trkpt>
      <trkpt lat="38.4750180" lon="14.9563240">
        <ele>9.7500000</ele>
        <time>2013-06-14T04:52:59Z</time>
      </trkpt>
      <trkpt lat="38.4750180" lon="14.9563240">
        <ele>9.2700000</ele>
        <time>2013-06-14T04:53:23Z</time>
      </trkpt>
      <trkpt lat="38.4750140" lon="14.9563240">
        <ele>9.7500000</ele>
        <time>2013-06-14T04:53:55Z</time>
      </trkpt>
      <trkpt lat="38.4750140" lon="14.9563240">
        <ele>9.2700000</ele>
        <time>2013-06-14T04:54:24Z</time>
      </trkpt>
      <trkpt lat="38.4750180" lon="14.9563250">
        <ele>9.2700000</ele>
        <time>2013-06-14T04:54:54Z</time>
      </trkpt>
      <trkpt lat="38.4750180" lon="14.9563250">
        <ele>9.2700000</ele>
        <time>2013-06-14T04:55:26Z</time>
      </trkpt>
      <trkpt lat="38.4750180" lon="14.9563250">
        <ele>9.2700000</ele>
        <time>2013-06-14T04:55:59Z</time>
      </trkpt>
      <trkpt lat="38.4750180" lon="14.9563250">
        <ele>9.7500000</ele>
        <time>2013-06-14T04:56:31Z</time>
      </trkpt>
      <trkpt lat="38.4750180" lon="14.9563260">
        <ele>9.7500000</ele>
        <time>2013-06-14T04:57:03Z</time>
      </trkpt>
      <trkpt lat="38.4750180" lon="14.9563270">
        <ele>9.2700000</ele>
        <time>2013-06-14T04:57:33Z</time>
      </trkpt>
      <trkpt lat="38.4750180" lon="14.9563260">
        <ele>9.7500000</ele>
        <time>2013-06-14T04:57:59Z</time>
      </trkpt>
      <trkpt lat="38.4750180" lon="14.9563260">
        <ele>9.2700000</ele>
        <time>2013-06-14T04:58:24Z</time>
      </trkpt>
      <trkpt lat="38.4750180" lon="14.9563280">
        <ele>9.2700000</ele>
        <time>2013-06-14T04:58:48Z</time>
      </trkpt>
      <trkpt lat="38.4750180" lon="14.9563300">
        <ele>9.2700000</ele>
        <time>2013-06-14T04:59:16Z</time>
      </trkpt>
      <trkpt lat="38.4750180" lon="14.9563300">
        <ele>8.7900000</ele>
        <time>2013-06-14T04:59:45Z</time>
      </trkpt>
      <trkpt lat="38.4750180" lon="14.9563290">
        <ele>9.2700000</ele>
        <time>2013-06-14T05:00:12Z</time>
      </trkpt>
      <trkpt lat="38.4750140" lon="14.9563320">
        <ele>9.2700000</ele>
        <time>2013-06-14T05:00:36Z</time>
      </trkpt>
      <trkpt lat="38.4750140" lon="14.9563320">
        <ele>8.7900000</ele>
        <time>2013-06-14T05:01:08Z</time>
      </trkpt>
      <trkpt lat="38.4750140" lon="14.9563310">
        <ele>8.7900000</ele>
        <time>2013-06-14T05:01:42Z</time>
      </trkpt>
      <trkpt lat="38.4750140" lon="14.9563320">
        <ele>8.7900000</ele>
        <time>2013-06-14T05:02:12Z</time>
      </trkpt>
      <trkpt lat="38.4750140" lon="14.9563310">
        <ele>8.7900000</ele>
        <time>2013-06-14T05:02:47Z</time>
      </trkpt>
      <trkpt lat="38.4750180" lon="14.9563330">
        <ele>8.3100000</ele>
        <time>2013-06-14T05:03:20Z</time>
      </trkpt>
      <trkpt lat="38.4750180" lon="14.9563310">
        <ele>8.7900000</ele>
        <time>2013-06-14T05:03:52Z</time>
      </trkpt>
      <trkpt lat="38.4750180" lon="14.9563310">
        <ele>8.3100000</ele>
        <time>2013-06-14T05:04:25Z</time>
      </trkpt>
      <trkpt lat="38.4750180" lon="14.9563310">
        <ele>8.3100000</ele>
        <time>2013-06-14T05:05:00Z</time>
      </trkpt>
      <trkpt lat="38.4750180" lon="14.9563330">
        <ele>8.7900000</ele>
        <time>2013-06-14T05:05:31Z</time>
      </trkpt>
      <trkpt lat="38.4750140" lon="14.9563350">
        <ele>8.3100000</ele>
        <time>2013-06-14T05:06:04Z</time>
      </trkpt>
      <trkpt lat="38.4750140" lon="14.9563350">
        <ele>8.3100000</ele>
        <time>2013-06-14T05:06:37Z</time>
      </trkpt>
      <trkpt lat="38.4750140" lon="14.9563350">
        <ele>8.3100000</ele>
        <time>2013-06-14T05:07:09Z</time>
      </trkpt>
      <trkpt lat="38.4750140" lon="14.9563360">
        <ele>7.8300000</ele>
        <time>2013-06-14T05:07:42Z</time>
      </trkpt>
      <trkpt lat="38.4750140" lon="14.9563420">
        <ele>8.3100000</ele>
        <time>2013-06-14T05:08:12Z</time>
      </trkpt>
      <trkpt lat="38.4750140" lon="14.9563420">
        <ele>7.8300000</ele>
        <time>2013-06-14T05:08:40Z</time>
      </trkpt>
      <trkpt lat="38.4750140" lon="14.9563420">
        <ele>7.8300000</ele>
        <time>2013-06-14T05:09:11Z</time>
      </trkpt>
      <trkpt lat="38.4750100" lon="14.9563380">
        <ele>7.8300000</ele>
        <time>2013-06-14T05:09:38Z</time>
      </trkpt>
      <trkpt lat="38.4750100" lon="14.9563380">
        <ele>7.8300000</ele>
        <time>2013-06-14T05:10:12Z</time>
      </trkpt>
      <trkpt lat="38.4750140" lon="14.9563400">
        <ele>7.8300000</ele>
        <time>2013-06-14T05:10:37Z</time>
      </trkpt>
      <trkpt lat="38.4750140" lon="14.9563400">
        <ele>7.8300000</ele>
        <time>2013-06-14T05:11:11Z</time>
      </trkpt>
      <trkpt lat="38.4750140" lon="14.9563420">
        <ele>7.8300000</ele>
        <time>2013-06-14T05:11:45Z</time>
      </trkpt>
      <trkpt lat="38.4750140" lon="14.9563430">
        <ele>7.8300000</ele>
        <time>2013-06-14T05:12:14Z</time>
      </trkpt>
      <trkpt lat="38.4750140" lon="14.9563410">
        <ele>7.8300000</ele>
        <time>2013-06-14T05:12:42Z</time>
      </trkpt>
      <trkpt lat="38.4750140" lon="14.9563420">
        <ele>7.8300000</ele>
        <time>2013-06-14T05:13:13Z</time>
      </trkpt>
      <trkpt lat="38.4750140" lon="14.9563420">
        <ele>7.8300000</ele>
        <time>2013-06-14T05:13:49Z</time>
      </trkpt>
      <trkpt lat="38.4750140" lon="14.9563410">
        <ele>7.8300000</ele>
        <time>2013-06-14T05:14:20Z</time>
      </trkpt>
      <trkpt lat="38.4750140" lon="14.9563420">
        <ele>7.3500000</ele>
        <time>2013-06-14T05:14:52Z</time>
      </trkpt>
      <trkpt lat="38.4750140" lon="14.9563400">
        <ele>7.8300000</ele>
        <time>2013-06-14T05:15:26Z</time>
      </trkpt>
      <trkpt lat="38.4750140" lon="14.9563400">
        <ele>7.3500000</ele>
        <time>2013-06-14T05:16:01Z</time>
      </trkpt>
      <trkpt lat="38.4750140" lon="14.9563400">
        <ele>7.3500000</ele>
        <time>2013-06-14T05:16:33Z</time>
      </trkpt>
      <trkpt lat="38.4750140" lon="14.9563400">
        <ele>7.3500000</ele>
        <time>2013-06-14T05:17:05Z</time>
      </trkpt>
      <trkpt lat="38.4750140" lon="14.9563410">
        <ele>7.3500000</ele>
        <time>2013-06-14T05:17:43Z</time>
      </trkpt>
      <trkpt lat="38.4750140" lon="14.9563380">
        <ele>7.3500000</ele>
        <time>2013-06-14T05:18:17Z</time>
      </trkpt>
      <trkpt lat="38.4750140" lon="14.9563380">
        <ele>7.3500000</ele>
        <time>2013-06-14T05:18:49Z</time>
      </trkpt>
      <trkpt lat="38.4750140" lon="14.9563360">
        <ele>7.3500000</ele>
        <time>2013-06-14T05:19:23Z</time>
      </trkpt>
      <trkpt lat="38.4750140" lon="14.9563380">
        <ele>6.8700000</ele>
        <time>2013-06-14T05:19:58Z</time>
      </trkpt>
      <trkpt lat="38.4750140" lon="14.9563380">
        <ele>6.8700000</ele>
        <time>2013-06-14T05:20:31Z</time>
      </trkpt>
      <trkpt lat="38.4750180" lon="14.9563390">
        <ele>6.8700000</ele>
        <time>2013-06-14T05:21:04Z</time>
      </trkpt>
      <trkpt lat="38.4750180" lon="14.9563420">
        <ele>6.8700000</ele>
        <time>2013-06-14T05:21:42Z</time>
      </trkpt>
      <trkpt lat="38.4750180" lon="14.9563400">
        <ele>6.8700000</ele>
        <time>2013-06-14T05:22:15Z</time>
      </trkpt>
      <trkpt lat="38.4750180" lon="14.9563390">
        <ele>6.8700000</ele>
        <time>2013-06-14T05:22:45Z</time>
      </trkpt>
      <trkpt lat="38.4750140" lon="14.9563390">
        <ele>6.8700000</ele>
        <time>2013-06-14T05:23:19Z</time>
      </trkpt>
      <trkpt lat="38.4750140" lon="14.9563390">
        <ele>6.8700000</ele>
        <time>2013-06-14T05:23:50Z</time>
      </trkpt>
      <trkpt lat="38.4750140" lon="14.9563400">
        <ele>6.8700000</ele>
        <time>2013-06-14T05:24:23Z</time>
      </trkpt>
      <trkpt lat="38.4750140" lon="14.9563390">
        <ele>6.8700000</ele>
        <time>2013-06-14T05:24:53Z</time>
      </trkpt>
      <trkpt lat="38.4750140" lon="14.9563390">
        <ele>6.3900000</ele>
        <time>2013-06-14T05:25:27Z</time>
      </trkpt>
      <trkpt lat="38.4750140" lon="14.9563380">
        <ele>6.8700000</ele>
        <time>2013-06-14T05:25:55Z</time>
      </trkpt>
      <trkpt lat="38.4750100" lon="14.9563380">
        <ele>6.3900000</ele>
        <time>2013-06-14T05:26:33Z</time>
      </trkpt>
      <trkpt lat="38.4750100" lon="14.9563380">
        <ele>6.3900000</ele>
        <time>2013-06-14T05:27:05Z</time>
      </trkpt>
      <trkpt lat="38.4750100" lon="14.9563370">
        <ele>5.9100000</ele>
        <time>2013-06-14T05:27:42Z</time>
      </trkpt>
      <trkpt lat="38.4750100" lon="14.9563350">
        <ele>6.3900000</ele>
        <time>2013-06-14T05:28:13Z</time>
      </trkpt>
      <trkpt lat="38.4750100" lon="14.9563340">
        <ele>5.9100000</ele>
        <time>2013-06-14T05:28:47Z</time>
      </trkpt>
      <trkpt lat="38.4750140" lon="14.9563350">
        <ele>5.9100000</ele>
        <time>2013-06-14T05:29:25Z</time>
      </trkpt>
      <trkpt lat="38.4750180" lon="14.9563350">
        <ele>5.9100000</ele>
        <time>2013-06-14T05:29:55Z</time>
      </trkpt>
      <trkpt lat="38.4750180" lon="14.9563350">
        <ele>5.9100000</ele>
        <time>2013-06-14T05:30:28Z</time>
      </trkpt>
      <trkpt lat="38.4750180" lon="14.9563370">
        <ele>5.9100000</ele>
        <time>2013-06-14T05:31:04Z</time>
      </trkpt>
      <trkpt lat="38.4750180" lon="14.9563370">
        <ele>5.9100000</ele>
        <time>2013-06-14T05:31:40Z</time>
      </trkpt>
      <trkpt lat="38.4750180" lon="14.9563400">
        <ele>5.9100000</ele>
        <time>2013-06-14T05:32:16Z</time>
      </trkpt>
      <trkpt lat="38.4750180" lon="14.9563390">
        <ele>5.9100000</ele>
        <time>2013-06-14T05:32:55Z</time>
      </trkpt>
      <trkpt lat="38.4750210" lon="14.9563400">
        <ele>5.9100000</ele>
        <time>2013-06-14T05:33:29Z</time>
      </trkpt>
      <trkpt lat="38.4750210" lon="14.9563390">
        <ele>5.4200000</ele>
        <time>2013-06-14T05:34:01Z</time>
      </trkpt>
      <trkpt lat="38.4750210" lon="14.9563390">
        <ele>6.3900000</ele>
        <time>2013-06-14T05:34:34Z</time>
      </trkpt>
      <trkpt lat="38.4750180" lon="14.9563370">
        <ele>5.4200000</ele>
        <time>2013-06-14T05:35:14Z</time>
      </trkpt>
      <trkpt lat="38.4750180" lon="14.9563370">
        <ele>5.9100000</ele>
        <time>2013-06-14T05:35:49Z</time>
      </trkpt>
      <trkpt lat="38.4750210" lon="14.9563370">
        <ele>5.4200000</ele>
        <time>2013-06-14T05:36:15Z</time>
      </trkpt>
      <trkpt lat="38.4750180" lon="14.9563330">
        <ele>5.9100000</ele>
        <time>2013-06-14T05:36:41Z</time>
      </trkpt>
      <trkpt lat="38.4750180" lon="14.9563360">
        <ele>5.4200000</ele>
        <time>2013-06-14T05:37:13Z</time>
      </trkpt>
      <trkpt lat="38.4750180" lon="14.9563360">
        <ele>5.4200000</ele>
        <time>2013-06-14T05:37:41Z</time>
      </trkpt>
      <trkpt lat="38.4750180" lon="14.9563350">
        <ele>5.4200000</ele>
        <time>2013-06-14T05:38:07Z</time>
      </trkpt>
      <trkpt lat="38.4750140" lon="14.9563320">
        <ele>5.4200000</ele>
        <time>2013-06-14T05:38:35Z</time>
      </trkpt>
      <trkpt lat="38.4750140" lon="14.9563320">
        <ele>4.9400000</ele>
        <time>2013-06-14T05:39:05Z</time>
      </trkpt>
      <trkpt lat="38.4750140" lon="14.9563330">
        <ele>5.9100000</ele>
        <time>2013-06-14T05:39:34Z</time>
      </trkpt>
      <trkpt lat="38.4750140" lon="14.9563340">
        <ele>5.9100000</ele>
        <time>2013-06-14T05:40:02Z</time>
      </trkpt>
      <trkpt lat="38.4750100" lon="14.9563340">
        <ele>5.4200000</ele>
        <time>2013-06-14T05:40:34Z</time>
      </trkpt>
      <trkpt lat="38.4750100" lon="14.9563340">
        <ele>5.4200000</ele>
        <time>2013-06-14T05:41:06Z</time>
      </trkpt>
      <trkpt lat="38.4750140" lon="14.9563320">
        <ele>5.9100000</ele>
        <time>2013-06-14T05:41:32Z</time>
      </trkpt>
      <trkpt lat="38.4750100" lon="14.9563320">
        <ele>5.4200000</ele>
        <time>2013-06-14T05:42:05Z</time>
      </trkpt>
      <trkpt lat="38.4750100" lon="14.9563330">
        <ele>4.9400000</ele>
        <time>2013-06-14T05:42:33Z</time>
      </trkpt>
      <trkpt lat="38.4750100" lon="14.9563330">
        <ele>4.9400000</ele>
        <time>2013-06-14T05:43:02Z</time>
      </trkpt>
      <trkpt lat="38.4750060" lon="14.9563360">
        <ele>5.4200000</ele>
        <time>2013-06-14T05:43:30Z</time>
      </trkpt>
      <trkpt lat="38.4750060" lon="14.9563370">
        <ele>4.9400000</ele>
        <time>2013-06-14T05:43:58Z</time>
      </trkpt>
      <trkpt lat="38.4750060" lon="14.9563370">
        <ele>5.4200000</ele>
        <time>2013-06-14T05:44:26Z</time>
      </trkpt>
      <trkpt lat="38.4750060" lon="14.9563380">
        <ele>4.9400000</ele>
        <time>2013-06-14T05:44:57Z</time>
      </trkpt>
      <trkpt lat="38.4750020" lon="14.9563390">
        <ele>5.4200000</ele>
        <time>2013-06-14T05:45:28Z</time>
      </trkpt>
      <trkpt lat="38.4750020" lon="14.9563410">
        <ele>4.9400000</ele>
        <time>2013-06-14T05:46:02Z</time>
      </trkpt>
      <trkpt lat="38.4750020" lon="14.9563430">
        <ele>4.9400000</ele>
        <time>2013-06-14T05:46:33Z</time>
      </trkpt>
      <trkpt lat="38.4750020" lon="14.9563430">
        <ele>4.9400000</ele>
        <time>2013-06-14T05:46:57Z</time>
      </trkpt>
      <trkpt lat="38.4750020" lon="14.9563430">
        <ele>4.4600000</ele>
        <time>2013-06-14T05:47:23Z</time>
      </trkpt>
      <trkpt lat="38.4750020" lon="14.9563430">
        <ele>4.9400000</ele>
        <time>2013-06-14T05:47:43Z</time>
      </trkpt>
      <trkpt lat="38.4749980" lon="14.9563470">
        <ele>4.9400000</ele>
        <time>2013-06-14T05:48:08Z</time>
      </trkpt>
      <trkpt lat="38.4749980" lon="14.9563480">
        <ele>4.9400000</ele>
        <time>2013-06-14T05:48:37Z</time>
      </trkpt>
      <trkpt lat="38.4749980" lon="14.9563480">
        <ele>4.9400000</ele>
        <time>2013-06-14T05:49:01Z</time>
      </trkpt>
      <trkpt lat="38.4749980" lon="14.9563480">
        <ele>4.9400000</ele>
        <time>2013-06-14T05:49:29Z</time>
      </trkpt>
      <trkpt lat="38.4749980" lon="14.9563500">
        <ele>4.9400000</ele>
        <time>2013-06-14T05:49:58Z</time>
      </trkpt>
      <trkpt lat="38.4749980" lon="14.9563500">
        <ele>4.9400000</ele>
        <time>2013-06-14T05:50:29Z</time>
      </trkpt>
      <trkpt lat="38.4749980" lon="14.9563520">
        <ele>4.9400000</ele>
        <time>2013-06-14T05:51:03Z</time>
      </trkpt>
      <trkpt lat="38.4749980" lon="14.9563530">
        <ele>4.9400000</ele>
        <time>2013-06-14T05:51:31Z</time>
      </trkpt>
      <trkpt lat="38.4749950" lon="14.9563540">
        <ele>4.9400000</ele>
        <time>2013-06-14T05:52:04Z</time>
      </trkpt>
      <trkpt lat="38.4749950" lon="14.9563560">
        <ele>4.9400000</ele>
        <time>2013-06-14T05:52:40Z</time>
      </trkpt>
      <trkpt lat="38.4749950" lon="14.9563570">
        <ele>4.9400000</ele>
        <time>2013-06-14T05:53:21Z</time>
      </trkpt>
      <trkpt lat="38.4749950" lon="14.9563540">
        <ele>4.9400000</ele>
        <time>2013-06-14T05:53:55Z</time>
      </trkpt>
      <trkpt lat="38.4749950" lon="14.9563540">
        <ele>4.4600000</ele>
        <time>2013-06-14T05:54:33Z</time>
      </trkpt>
      <trkpt lat="38.4749950" lon="14.9563540">
        <ele>4.9400000</ele>
        <time>2013-06-14T05:55:06Z</time>
      </trkpt>
      <trkpt lat="38.4749910" lon="14.9563550">
        <ele>5.4200000</ele>
        <time>2013-06-14T05:55:46Z</time>
      </trkpt>
      <trkpt lat="38.4749910" lon="14.9563530">
        <ele>5.4200000</ele>
        <time>2013-06-14T05:56:21Z</time>
      </trkpt>
      <trkpt lat="38.4749910" lon="14.9563520">
        <ele>4.9400000</ele>
        <time>2013-06-14T05:56:52Z</time>
      </trkpt>
      <trkpt lat="38.4749870" lon="14.9563530">
        <ele>5.4200000</ele>
        <time>2013-06-14T05:57:22Z</time>
      </trkpt>
      <trkpt lat="38.4749910" lon="14.9563520">
        <ele>5.4200000</ele>
        <time>2013-06-14T05:57:57Z</time>
      </trkpt>
      <trkpt lat="38.4749910" lon="14.9563510">
        <ele>5.9100000</ele>
        <time>2013-06-14T05:58:34Z</time>
      </trkpt>
      <trkpt lat="38.4749870" lon="14.9563520">
        <ele>5.9100000</ele>
        <time>2013-06-14T05:59:12Z</time>
      </trkpt>
      <trkpt lat="38.4749870" lon="14.9563520">
        <ele>5.9100000</ele>
        <time>2013-06-14T05:59:48Z</time>
      </trkpt>
      <trkpt lat="38.4749870" lon="14.9563520">
        <ele>5.4200000</ele>
        <time>2013-06-14T06:00:17Z</time>
      </trkpt>
      <trkpt lat="38.4749830" lon="14.9563550">
        <ele>5.4200000</ele>
        <time>2013-06-14T06:00:49Z</time>
      </trkpt>
      <trkpt lat="38.4749830" lon="14.9563540">
        <ele>5.9100000</ele>
        <time>2013-06-14T06:01:24Z</time>
      </trkpt>
      <trkpt lat="38.4749830" lon="14.9563550">
        <ele>5.4200000</ele>
        <time>2013-06-14T06:01:56Z</time>
      </trkpt>
      <trkpt lat="38.4749830" lon="14.9563550">
        <ele>5.4200000</ele>
        <time>2013-06-14T06:02:26Z</time>
      </trkpt>
      <trkpt lat="38.4749830" lon="14.9563570">
        <ele>6.3900000</ele>
        <time>2013-06-14T06:02:59Z</time>
      </trkpt>
      <trkpt lat="38.4749830" lon="14.9563570">
        <ele>5.9100000</ele>
        <time>2013-06-14T06:03:31Z</time>
      </trkpt>
      <trkpt lat="38.4749830" lon="14.9563570">
        <ele>5.9100000</ele>
        <time>2013-06-14T06:04:07Z</time>
      </trkpt>
      <trkpt lat="38.4749830" lon="14.9563550">
        <ele>6.3900000</ele>
        <time>2013-06-14T06:04:40Z</time>
      </trkpt>
      <trkpt lat="38.4749830" lon="14.9563550">
        <ele>5.9100000</ele>
        <time>2013-06-14T06:05:14Z</time>
      </trkpt>
      <trkpt lat="38.4749830" lon="14.9563550">
        <ele>5.9100000</ele>
        <time>2013-06-14T06:05:48Z</time>
      </trkpt>
      <trkpt lat="38.4749870" lon="14.9563570">
        <ele>5.4200000</ele>
        <time>2013-06-14T06:06:21Z</time>
      </trkpt>
      <trkpt lat="38.4749870" lon="14.9563590">
        <ele>5.9100000</ele>
        <time>2013-06-14T06:06:52Z</time>
      </trkpt>
      <trkpt lat="38.4749830" lon="14.9563600">
        <ele>5.9100000</ele>
        <time>2013-06-14T06:07:23Z</time>
      </trkpt>
      <trkpt lat="38.4749830" lon="14.9563610">
        <ele>5.4200000</ele>
        <time>2013-06-14T06:07:55Z</time>
      </trkpt>
      <trkpt lat="38.4749830" lon="14.9563610">
        <ele>6.3900000</ele>
        <time>2013-06-14T06:08:22Z</time>
      </trkpt>
      <trkpt lat="38.4749830" lon="14.9563620">
        <ele>6.3900000</ele>
        <time>2013-06-14T06:08:52Z</time>
      </trkpt>
      <trkpt lat="38.4749830" lon="14.9563600">
        <ele>6.3900000</ele>
        <time>2013-06-14T06:09:16Z</time>
      </trkpt>
      <trkpt lat="38.4749830" lon="14.9563600">
        <ele>6.3900000</ele>
        <time>2013-06-14T06:09:35Z</time>
      </trkpt>
      <trkpt lat="38.4749830" lon="14.9563590">
        <ele>6.3900000</ele>
        <time>2013-06-14T06:10:02Z</time>
      </trkpt>
      <trkpt lat="38.4749830" lon="14.9563590">
        <ele>6.3900000</ele>
        <time>2013-06-14T06:10:24Z</time>
      </trkpt>
      <trkpt lat="38.4749830" lon="14.9563580">
        <ele>5.9100000</ele>
        <time>2013-06-14T06:10:52Z</time>
      </trkpt>
      <trkpt lat="38.4749830" lon="14.9563570">
        <ele>6.8700000</ele>
        <time>2013-06-14T06:11:18Z</time>
      </trkpt>
      <trkpt lat="38.4749830" lon="14.9563570">
        <ele>5.9100000</ele>
        <time>2013-06-14T06:11:45Z</time>
      </trkpt>
      <trkpt lat="38.4749790" lon="14.9563560">
        <ele>6.8700000</ele>
        <time>2013-06-14T06:12:17Z</time>
      </trkpt>
      <trkpt lat="38.4749790" lon="14.9563560">
        <ele>6.8700000</ele>
        <time>2013-06-14T06:12:50Z</time>
      </trkpt>
      <trkpt lat="38.4749760" lon="14.9563570">
        <ele>6.8700000</ele>
        <time>2013-06-14T06:13:15Z</time>
      </trkpt>
      <trkpt lat="38.4749760" lon="14.9563580">
        <ele>6.8700000</ele>
        <time>2013-06-14T06:13:46Z</time>
      </trkpt>
      <trkpt lat="38.4749760" lon="14.9563580">
        <ele>6.8700000</ele>
        <time>2013-06-14T06:14:20Z</time>
      </trkpt>
      <trkpt lat="38.4749760" lon="14.9563580">
        <ele>6.8700000</ele>
        <time>2013-06-14T06:14:48Z</time>
      </trkpt>
      <trkpt lat="38.4749760" lon="14.9563580">
        <ele>6.3900000</ele>
        <time>2013-06-14T06:15:19Z</time>
      </trkpt>
      <trkpt lat="38.4749790" lon="14.9563550">
        <ele>6.3900000</ele>
        <time>2013-06-14T06:15:48Z</time>
      </trkpt>
      <trkpt lat="38.4749790" lon="14.9563560">
        <ele>6.3900000</ele>
        <time>2013-06-14T06:16:19Z</time>
      </trkpt>
      <trkpt lat="38.4749790" lon="14.9563560">
        <ele>6.8700000</ele>
        <time>2013-06-14T06:16:49Z</time>
      </trkpt>
      <trkpt lat="38.4749830" lon="14.9563560">
        <ele>6.8700000</ele>
        <time>2013-06-14T06:17:26Z</time>
      </trkpt>
      <trkpt lat="38.4749830" lon="14.9563540">
        <ele>6.8700000</ele>
        <time>2013-06-14T06:18:00Z</time>
      </trkpt>
      <trkpt lat="38.4749830" lon="14.9563480">
        <ele>6.8700000</ele>
        <time>2013-06-14T06:18:35Z</time>
      </trkpt>
      <trkpt lat="38.4749830" lon="14.9563430">
        <ele>6.8700000</ele>
        <time>2013-06-14T06:19:05Z</time>
      </trkpt>
      <trkpt lat="38.4749830" lon="14.9563430">
        <ele>6.8700000</ele>
        <time>2013-06-14T06:19:29Z</time>
      </trkpt>
      <trkpt lat="38.4749830" lon="14.9563420">
        <ele>6.8700000</ele>
        <time>2013-06-14T06:19:52Z</time>
      </trkpt>
      <trkpt lat="38.4749870" lon="14.9563400">
        <ele>6.8700000</ele>
        <time>2013-06-14T06:20:15Z</time>
      </trkpt>
      <trkpt lat="38.4749870" lon="14.9563400">
        <ele>6.3900000</ele>
        <time>2013-06-14T06:20:40Z</time>
      </trkpt>
      <trkpt lat="38.4749870" lon="14.9563390">
        <ele>6.3900000</ele>
        <time>2013-06-14T06:21:02Z</time>
      </trkpt>
      <trkpt lat="38.4749870" lon="14.9563390">
        <ele>7.3500000</ele>
        <time>2013-06-14T06:21:26Z</time>
      </trkpt>
      <trkpt lat="38.4749870" lon="14.9563380">
        <ele>6.3900000</ele>
        <time>2013-06-14T06:21:52Z</time>
      </trkpt>
      <trkpt lat="38.4749870" lon="14.9563370">
        <ele>6.8700000</ele>
        <time>2013-06-14T06:22:18Z</time>
      </trkpt>
      <trkpt lat="38.4749870" lon="14.9563370">
        <ele>6.8700000</ele>
        <time>2013-06-14T06:22:40Z</time>
      </trkpt>
      <trkpt lat="38.4749950" lon="14.9563340">
        <ele>6.8700000</ele>
        <time>2013-06-14T06:23:07Z</time>
      </trkpt>
      <trkpt lat="38.4749950" lon="14.9563330">
        <ele>6.3900000</ele>
        <time>2013-06-14T06:23:37Z</time>
      </trkpt>
      <trkpt lat="38.4749950" lon="14.9563330">
        <ele>6.8700000</ele>
        <time>2013-06-14T06:24:07Z</time>
      </trkpt>
      <trkpt lat="38.4749980" lon="14.9563310">
        <ele>6.8700000</ele>
        <time>2013-06-14T06:24:42Z</time>
      </trkpt>
      <trkpt lat="38.4750020" lon="14.9563310">
        <ele>6.8700000</ele>
        <time>2013-06-14T06:25:07Z</time>
      </trkpt>
      <trkpt lat="38.4750020" lon="14.9563300">
        <ele>6.3900000</ele>
        <time>2013-06-14T06:25:39Z</time>
      </trkpt>
      <trkpt lat="38.4750020" lon="14.9563300">
        <ele>6.3900000</ele>
        <time>2013-06-14T06:26:09Z</time>
      </trkpt>
      <trkpt lat="38.4750060" lon="14.9563290">
        <ele>6.8700000</ele>
        <time>2013-06-14T06:26:35Z</time>
      </trkpt>
      <trkpt lat="38.4750020" lon="14.9563310">
        <ele>7.3500000</ele>
        <time>2013-06-14T06:27:09Z</time>
      </trkpt>
      <trkpt lat="38.4750060" lon="14.9563300">
        <ele>6.8700000</ele>
        <time>2013-06-14T06:27:40Z</time>
      </trkpt>
      <trkpt lat="38.4750060" lon="14.9563300">
        <ele>7.3500000</ele>
        <time>2013-06-14T06:28:10Z</time>
      </trkpt>
      <trkpt lat="38.4750060" lon="14.9563290">
        <ele>7.3500000</ele>
        <time>2013-06-14T06:28:38Z</time>
      </trkpt>
      <trkpt lat="38.4750060" lon="14.9563330">
        <ele>7.3500000</ele>
        <time>2013-06-14T06:29:09Z</time>
      </trkpt>
      <trkpt lat="38.4750060" lon="14.9563330">
        <ele>7.8300000</ele>
        <time>2013-06-14T06:29:39Z</time>
      </trkpt>
      <trkpt lat="38.4750060" lon="14.9563330">
        <ele>7.8300000</ele>
        <time>2013-06-14T06:30:11Z</time>
      </trkpt>
      <trkpt lat="38.4750060" lon="14.9563300">
        <ele>7.3500000</ele>
        <time>2013-06-14T06:30:40Z</time>
      </trkpt>
      <trkpt lat="38.4750060" lon="14.9563320">
        <ele>7.3500000</ele>
        <time>2013-06-14T06:31:13Z</time>
      </trkpt>
      <trkpt lat="38.4750060" lon="14.9563320">
        <ele>7.8300000</ele>
        <time>2013-06-14T06:31:45Z</time>
      </trkpt>
      <trkpt lat="38.4750060" lon="14.9563320">
        <ele>6.8700000</ele>
        <time>2013-06-14T06:32:14Z</time>
      </trkpt>
      <trkpt lat="38.4750060" lon="14.9563320">
        <ele>7.3500000</ele>
        <time>2013-06-14T06:32:44Z</time>
      </trkpt>
      <trkpt lat="38.4750060" lon="14.9563320">
        <ele>6.8700000</ele>
        <time>2013-06-14T06:33:16Z</time>
      </trkpt>
      <trkpt lat="38.4750060" lon="14.9563320">
        <ele>7.3500000</ele>
        <time>2013-06-14T06:33:46Z</time>
      </trkpt>
      <trkpt lat="38.4750060" lon="14.9563330">
        <ele>7.8300000</ele>
        <time>2013-06-14T06:34:16Z</time>
      </trkpt>
      <trkpt lat="38.4750060" lon="14.9563330">
        <ele>7.8300000</ele>
        <time>2013-06-14T06:34:46Z</time>
      </trkpt>
      <trkpt lat="38.4750060" lon="14.9563340">
        <ele>7.8300000</ele>
        <time>2013-06-14T06:35:14Z</time>
      </trkpt>
      <trkpt lat="38.4750060" lon="14.9563340">
        <ele>7.8300000</ele>
        <time>2013-06-14T06:35:44Z</time>
      </trkpt>
      <trkpt lat="38.4750060" lon="14.9563340">
        <ele>7.3500000</ele>
        <time>2013-06-14T06:36:14Z</time>
      </trkpt>
      <trkpt lat="38.4750060" lon="14.9563340">
        <ele>7.8300000</ele>
        <time>2013-06-14T06:36:42Z</time>
      </trkpt>
      <trkpt lat="38.4750060" lon="14.9563340">
        <ele>7.3500000</ele>
        <time>2013-06-14T06:37:12Z</time>
      </trkpt>
      <trkpt lat="38.4750060" lon="14.9563350">
        <ele>6.8700000</ele>
        <time>2013-06-14T06:37:40Z</time>
      </trkpt>
      <trkpt lat="38.4750060" lon="14.9563350">
        <ele>7.3500000</ele>
        <time>2013-06-14T06:38:12Z</time>
      </trkpt>
      <trkpt lat="38.4750060" lon="14.9563340">
        <ele>7.8300000</ele>
        <time>2013-06-14T06:38:44Z</time>
      </trkpt>
      <trkpt lat="38.4750100" lon="14.9563370">
        <ele>7.8300000</ele>
        <time>2013-06-14T06:39:18Z</time>
      </trkpt>
      <trkpt lat="38.4750100" lon="14.9563370">
        <ele>7.3500000</ele>
        <time>2013-06-14T06:39:47Z</time>
      </trkpt>
      <trkpt lat="38.4750100" lon="14.9563380">
        <ele>7.3500000</ele>
        <time>2013-06-14T06:40:21Z</time>
      </trkpt>
      <trkpt lat="38.4750100" lon="14.9563380">
        <ele>6.8700000</ele>
        <time>2013-06-14T06:40:52Z</time>
      </trkpt>
      <trkpt lat="38.4750100" lon="14.9563380">
        <ele>7.3500000</ele>
        <time>2013-06-14T06:41:22Z</time>
      </trkpt>
      <trkpt lat="38.4750100" lon="14.9563380">
        <ele>6.8700000</ele>
        <time>2013-06-14T06:41:53Z</time>
      </trkpt>
      <trkpt lat="38.4750100" lon="14.9563400">
        <ele>7.3500000</ele>
        <time>2013-06-14T06:42:22Z</time>
      </trkpt>
      <trkpt lat="38.4750100" lon="14.9563400">
        <ele>7.3500000</ele>
        <time>2013-06-14T06:42:53Z</time>
      </trkpt>
      <trkpt lat="38.4750140" lon="14.9563420">
        <ele>7.3500000</ele>
        <time>2013-06-14T06:43:23Z</time>
      </trkpt>
      <trkpt lat="38.4750100" lon="14.9563430">
        <ele>7.3500000</ele>
        <time>2013-06-14T06:43:57Z</time>
      </trkpt>
      <trkpt lat="38.4750140" lon="14.9563430">
        <ele>7.3500000</ele>
        <time>2013-06-14T06:44:30Z</time>
      </trkpt>
      <trkpt lat="38.4750140" lon="14.9563430">
        <ele>7.8300000</ele>
        <time>2013-06-14T06:45:02Z</time>
      </trkpt>
      <trkpt lat="38.4750140" lon="14.9563440">
        <ele>6.8700000</ele>
        <time>2013-06-14T06:45:38Z</time>
      </trkpt>
      <trkpt lat="38.4750140" lon="14.9563440">
        <ele>7.8300000</ele>
        <time>2013-06-14T06:46:14Z</time>
      </trkpt>
      <trkpt lat="38.4750140" lon="14.9563440">
        <ele>7.8300000</ele>
        <time>2013-06-14T06:46:49Z</time>
      </trkpt>
      <trkpt lat="38.4750140" lon="14.9563440">
        <ele>7.3500000</ele>
        <time>2013-06-14T06:47:21Z</time>
      </trkpt>
      <trkpt lat="38.4750140" lon="14.9563430">
        <ele>7.3500000</ele>
        <time>2013-06-14T06:47:53Z</time>
      </trkpt>
      <trkpt lat="38.4750140" lon="14.9563440">
        <ele>7.3500000</ele>
        <time>2013-06-14T06:48:26Z</time>
      </trkpt>
      <trkpt lat="38.4750140" lon="14.9563440">
        <ele>7.3500000</ele>
        <time>2013-06-14T06:48:56Z</time>
      </trkpt>
      <trkpt lat="38.4750140" lon="14.9563440">
        <ele>7.8300000</ele>
        <time>2013-06-14T06:49:28Z</time>
      </trkpt>
      <trkpt lat="38.4750140" lon="14.9563430">
        <ele>7.8300000</ele>
        <time>2013-06-14T06:49:59Z</time>
      </trkpt>
      <trkpt lat="38.4750140" lon="14.9563440">
        <ele>7.8300000</ele>
        <time>2013-06-14T06:50:30Z</time>
      </trkpt>
      <trkpt lat="38.4750140" lon="14.9563440">
        <ele>7.8300000</ele>
        <time>2013-06-14T06:51:02Z</time>
      </trkpt>
      <trkpt lat="38.4750140" lon="14.9563440">
        <ele>7.8300000</ele>
        <time>2013-06-14T06:51:34Z</time>
      </trkpt>
      <trkpt lat="38.4750140" lon="14.9563440">
        <ele>7.8300000</ele>
        <time>2013-06-14T06:52:04Z</time>
      </trkpt>
      <trkpt lat="38.4750140" lon="14.9563470">
        <ele>7.8300000</ele>
        <time>2013-06-14T06:52:35Z</time>
      </trkpt>
      <trkpt lat="38.4750140" lon="14.9563470">
        <ele>7.3500000</ele>
        <time>2013-06-14T06:53:06Z</time>
      </trkpt>
      <trkpt lat="38.4750140" lon="14.9563470">
        <ele>7.8300000</ele>
        <time>2013-06-14T06:53:39Z</time>
      </trkpt>
      <trkpt lat="38.4750140" lon="14.9563480">
        <ele>7.8300000</ele>
        <time>2013-06-14T06:54:01Z</time>
      </trkpt>
      <trkpt lat="38.4750180" lon="14.9563480">
        <ele>7.8300000</ele>
        <time>2013-06-14T06:54:30Z</time>
      </trkpt>
      <trkpt lat="38.4750180" lon="14.9563480">
        <ele>7.3500000</ele>
        <time>2013-06-14T06:55:00Z</time>
      </trkpt>
      <trkpt lat="38.4750180" lon="14.9563470">
        <ele>7.3500000</ele>
        <time>2013-06-14T06:55:29Z</time>
      </trkpt>
      <trkpt lat="38.4750180" lon="14.9563480">
        <ele>7.3500000</ele>
        <time>2013-06-14T06:55:57Z</time>
      </trkpt>
      <trkpt lat="38.4750180" lon="14.9563470">
        <ele>7.3500000</ele>
        <time>2013-06-14T06:56:24Z</time>
      </trkpt>
      <trkpt lat="38.4750180" lon="14.9563470">
        <ele>7.3500000</ele>
        <time>2013-06-14T06:56:54Z</time>
      </trkpt>
      <trkpt lat="38.4750180" lon="14.9563470">
        <ele>7.3500000</ele>
        <time>2013-06-14T06:57:26Z</time>
      </trkpt>
      <trkpt lat="38.4750210" lon="14.9563470">
        <ele>7.3500000</ele>
        <time>2013-06-14T06:57:55Z</time>
      </trkpt>
      <trkpt lat="38.4749760" lon="14.9563580">
        <ele>7.3500000</ele>
        <time>2013-06-14T06:58:21Z</time>
      </trkpt>
      <trkpt lat="38.4749790" lon="14.9563560">
        <ele>7.3500000</ele>
        <time>2013-06-14T06:58:48Z</time>
      </trkpt>
      <trkpt lat="38.4749790" lon="14.9563560">
        <ele>7.3500000</ele>
        <time>2013-06-14T06:59:12Z</time>
      </trkpt>
      <trkpt lat="38.4749830" lon="14.9563550">
        <ele>7.3500000</ele>
        <time>2013-06-14T06:59:42Z</time>
      </trkpt>
      <trkpt lat="38.4749870" lon="14.9563550">
        <ele>7.3500000</ele>
        <time>2013-06-14T07:00:13Z</time>
      </trkpt>
      <trkpt lat="38.4749870" lon="14.9563550">
        <ele>7.3500000</ele>
        <time>2013-06-14T07:00:44Z</time>
      </trkpt>
      <trkpt lat="38.4749870" lon="14.9563550">
        <ele>7.8300000</ele>
        <time>2013-06-14T07:01:14Z</time>
      </trkpt>
      <trkpt lat="38.4749910" lon="14.9563550">
        <ele>7.3500000</ele>
        <time>2013-06-14T07:01:42Z</time>
      </trkpt>
      <trkpt lat="38.4749910" lon="14.9563550">
        <ele>7.3500000</ele>
        <time>2013-06-14T07:02:08Z</time>
      </trkpt>
      <trkpt lat="38.4749910" lon="14.9563550">
        <ele>7.8300000</ele>
        <time>2013-06-14T07:02:39Z</time>
      </trkpt>
      <trkpt lat="38.4749760" lon="14.9563470">
        <ele>7.8300000</ele>
        <time>2013-06-14T07:03:05Z</time>
      </trkpt>
      <trkpt lat="38.4749570" lon="14.9563310">
        <ele>7.3500000</ele>
        <time>2013-06-14T07:03:30Z</time>
      </trkpt>
      <trkpt lat="38.4750210" lon="14.9563680">
        <ele>7.3500000</ele>
        <time>2013-06-14T07:03:54Z</time>
      </trkpt>
      <trkpt lat="38.4750210" lon="14.9563680">
        <ele>7.8300000</ele>
        <time>2013-06-14T07:04:19Z</time>
      </trkpt>
      <trkpt lat="38.4750370" lon="14.9563610">
        <ele>7.8300000</ele>
        <time>2013-06-14T07:04:45Z</time>
      </trkpt>
      <trkpt lat="38.4750400" lon="14.9563700">
        <ele>7.8300000</ele>
        <time>2013-06-14T07:05:13Z</time>
      </trkpt>
      <trkpt lat="38.4750820" lon="14.9563790">
        <ele>7.8300000</ele>
        <time>2013-06-14T07:05:35Z</time>
      </trkpt>
      <trkpt lat="38.4750820" lon="14.9563790">
        <ele>7.8300000</ele>
        <time>2013-06-14T07:06:02Z</time>
      </trkpt>
      <trkpt lat="38.4750250" lon="14.9563290">
        <ele>7.8300000</ele>
        <time>2013-06-14T07:06:27Z</time>
      </trkpt>
      <trkpt lat="38.4750250" lon="14.9563290">
        <ele>7.8300000</ele>
        <time>2013-06-14T07:06:53Z</time>
      </trkpt>
      <trkpt lat="38.4750250" lon="14.9563300">
        <ele>8.3100000</ele>
        <time>2013-06-14T07:07:22Z</time>
      </trkpt>
      <trkpt lat="38.4750210" lon="14.9563260">
        <ele>8.3100000</ele>
        <time>2013-06-14T07:07:32Z</time>
      </trkpt>
      <trkpt lat="38.4749790" lon="14.9562640">
        <ele>8.7900000</ele>
        <time>2013-06-14T07:08:00Z</time>
      </trkpt>
      <trkpt lat="38.4750020" lon="14.9563130">
        <ele>8.7900000</ele>
        <time>2013-06-14T07:08:07Z</time>
      </trkpt>
      <trkpt lat="38.4750370" lon="14.9563620">
        <ele>8.3100000</ele>
        <time>2013-06-14T07:08:32Z</time>
      </trkpt>
      <trkpt lat="38.4750370" lon="14.9563610">
        <ele>8.7900000</ele>
        <time>2013-06-14T07:08:59Z</time>
      </trkpt>
      <trkpt lat="38.4750370" lon="14.9563610">
        <ele>8.7900000</ele>
        <time>2013-06-14T07:09:27Z</time>
      </trkpt>
      <trkpt lat="38.4750370" lon="14.9563600">
        <ele>9.2700000</ele>
        <time>2013-06-14T07:09:53Z</time>
      </trkpt>
      <trkpt lat="38.4750330" lon="14.9563570">
        <ele>9.2700000</ele>
        <time>2013-06-14T07:10:21Z</time>
      </trkpt>
      <trkpt lat="38.4750330" lon="14.9563570">
        <ele>9.7500000</ele>
        <time>2013-06-14T07:10:50Z</time>
      </trkpt>
      <trkpt lat="38.4750290" lon="14.9563560">
        <ele>10.2300000</ele>
        <time>2013-06-14T07:11:14Z</time>
      </trkpt>
      <trkpt lat="38.4750290" lon="14.9563560">
        <ele>10.2300000</ele>
        <time>2013-06-14T07:11:43Z</time>
      </trkpt>
      <trkpt lat="38.4750290" lon="14.9563560">
        <ele>10.2300000</ele>
        <time>2013-06-14T07:12:09Z</time>
      </trkpt>
      <trkpt lat="38.4750290" lon="14.9563550">
        <ele>10.2300000</ele>
        <time>2013-06-14T07:12:37Z</time>
      </trkpt>
      <trkpt lat="38.4750330" lon="14.9563550">
        <ele>9.7500000</ele>
        <time>2013-06-14T07:13:02Z</time>
      </trkpt>
      <trkpt lat="38.4750330" lon="14.9563550">
        <ele>10.7100000</ele>
        <time>2013-06-14T07:13:31Z</time>
      </trkpt>
      <trkpt lat="38.4750330" lon="14.9563270">
        <ele>10.7100000</ele>
        <time>2013-06-14T07:13:54Z</time>
      </trkpt>
      <trkpt lat="38.4750330" lon="14.9563540">
        <ele>10.7100000</ele>
        <time>2013-06-14T07:14:21Z</time>
      </trkpt>
      <trkpt lat="38.4750330" lon="14.9563540">
        <ele>10.7100000</ele>
        <time>2013-06-14T07:14:46Z</time>
      </trkpt>
      <trkpt lat="38.4750250" lon="14.9563560">
        <ele>10.7100000</ele>
        <time>2013-06-14T07:15:13Z</time>
      </trkpt>
      <trkpt lat="38.4750250" lon="14.9563700">
        <ele>10.7100000</ele>
        <time>2013-06-14T07:15:40Z</time>
      </trkpt>
      <trkpt lat="38.4750250" lon="14.9563850">
        <ele>10.7100000</ele>
        <time>2013-06-14T07:16:05Z</time>
      </trkpt>
      <trkpt lat="38.4750290" lon="14.9564180">
        <ele>10.7100000</ele>
        <time>2013-06-14T07:16:29Z</time>
      </trkpt>
      <trkpt lat="38.4750330" lon="14.9563920">
        <ele>11.1900000</ele>
        <time>2013-06-14T07:16:53Z</time>
      </trkpt>
      <trkpt lat="38.4750630" lon="14.9564340">
        <ele>10.7100000</ele>
        <time>2013-06-14T07:17:17Z</time>
      </trkpt>
      <trkpt lat="38.4750630" lon="14.9564340">
        <ele>10.7100000</ele>
        <time>2013-06-14T07:17:18Z</time>
      </trkpt>
      <trkpt lat="38.4749830" lon="14.9563900">
        <ele>11.1900000</ele>
        <time>2013-06-14T07:17:46Z</time>
      </trkpt>
      <trkpt lat="38.4749830" lon="14.9563900">
        <ele>11.1900000</ele>
        <time>2013-06-14T07:18:15Z</time>
      </trkpt>
      <trkpt lat="38.4749950" lon="14.9563610">
        <ele>11.1900000</ele>
        <time>2013-06-14T07:18:47Z</time>
      </trkpt>
      <trkpt lat="38.4749950" lon="14.9563610">
        <ele>11.6700000</ele>
        <time>2013-06-14T07:19:11Z</time>
      </trkpt>
      <trkpt lat="38.4749950" lon="14.9563610">
        <ele>11.6700000</ele>
        <time>2013-06-14T07:19:22Z</time>
      </trkpt>
      <trkpt lat="38.4750060" lon="14.9563670">
        <ele>11.1900000</ele>
        <time>2013-06-14T07:19:50Z</time>
      </trkpt>
      <trkpt lat="38.4750180" lon="14.9563780">
        <ele>11.1900000</ele>
        <time>2013-06-14T07:20:14Z</time>
      </trkpt>
      <trkpt lat="38.4750180" lon="14.9563780">
        <ele>11.6700000</ele>
        <time>2013-06-14T07:20:37Z</time>
      </trkpt>
      <trkpt lat="38.4750290" lon="14.9563720">
        <ele>11.1900000</ele>
        <time>2013-06-14T07:21:02Z</time>
      </trkpt>
      <trkpt lat="38.4750290" lon="14.9563720">
        <ele>11.6700000</ele>
        <time>2013-06-14T07:21:21Z</time>
      </trkpt>
      <trkpt lat="38.4750330" lon="14.9563710">
        <ele>11.1900000</ele>
        <time>2013-06-14T07:21:39Z</time>
      </trkpt>
      <trkpt lat="38.4750400" lon="14.9563680">
        <ele>11.6700000</ele>
        <time>2013-06-14T07:21:56Z</time>
      </trkpt>
      <trkpt lat="38.4750400" lon="14.9563680">
        <ele>11.6700000</ele>
        <time>2013-06-14T07:22:18Z</time>
      </trkpt>
      <trkpt lat="38.4750400" lon="14.9563710">
        <ele>11.1900000</ele>
        <time>2013-06-14T07:22:37Z</time>
      </trkpt>
      <trkpt lat="38.4750400" lon="14.9563710">
        <ele>11.1900000</ele>
        <time>2013-06-14T07:22:57Z</time>
      </trkpt>
      <trkpt lat="38.4750400" lon="14.9563680">
        <ele>11.1900000</ele>
        <time>2013-06-14T07:23:19Z</time>
      </trkpt>
      <trkpt lat="38.4750400" lon="14.9563680">
        <ele>11.1900000</ele>
        <time>2013-06-14T07:23:37Z</time>
      </trkpt>
      <trkpt lat="38.4750440" lon="14.9563690">
        <ele>11.1900000</ele>
        <time>2013-06-14T07:23:55Z</time>
      </trkpt>
      <trkpt lat="38.4750440" lon="14.9563690">
        <ele>11.1900000</ele>
        <time>2013-06-14T07:24:14Z</time>
      </trkpt>
      <trkpt lat="38.4750440" lon="14.9563720">
        <ele>11.1900000</ele>
        <time>2013-06-14T07:24:33Z</time>
      </trkpt>
      <trkpt lat="38.4750440" lon="14.9563720">
        <ele>10.7100000</ele>
        <time>2013-06-14T07:24:54Z</time>
      </trkpt>
      <trkpt lat="38.4750440" lon="14.9563730">
        <ele>11.1900000</ele>
        <time>2013-06-14T07:25:15Z</time>
      </trkpt>
      <trkpt lat="38.4750440" lon="14.9563730">
        <ele>11.1900000</ele>
        <time>2013-06-14T07:25:34Z</time>
      </trkpt>
      <trkpt lat="38.4750440" lon="14.9563720">
        <ele>11.1900000</ele>
        <time>2013-06-14T07:25:57Z</time>
      </trkpt>
      <trkpt lat="38.4750440" lon="14.9563720">
        <ele>11.1900000</ele>
        <time>2013-06-14T07:26:14Z</time>
      </trkpt>
      <trkpt lat="38.4750480" lon="14.9563710">
        <ele>11.1900000</ele>
        <time>2013-06-14T07:26:38Z</time>
      </trkpt>
      <trkpt lat="38.4750480" lon="14.9563710">
        <ele>11.1900000</ele>
        <time>2013-06-14T07:26:59Z</time>
      </trkpt>
      <trkpt lat="38.4750520" lon="14.9563710">
        <ele>11.1900000</ele>
        <time>2013-06-14T07:27:21Z</time>
      </trkpt>
      <trkpt lat="38.4750520" lon="14.9563680">
        <ele>11.6700000</ele>
        <time>2013-06-14T07:27:40Z</time>
      </trkpt>
      <trkpt lat="38.4750520" lon="14.9563680">
        <ele>11.1900000</ele>
        <time>2013-06-14T07:27:57Z</time>
      </trkpt>
      <trkpt lat="38.4750520" lon="14.9563680">
        <ele>11.6700000</ele>
        <time>2013-06-14T07:28:13Z</time>
      </trkpt>
      <trkpt lat="38.4750520" lon="14.9563670">
        <ele>11.6700000</ele>
        <time>2013-06-14T07:28:29Z</time>
      </trkpt>
      <trkpt lat="38.4750520" lon="14.9563670">
        <ele>11.6700000</ele>
        <time>2013-06-14T07:28:49Z</time>
      </trkpt>
      <trkpt lat="38.4750520" lon="14.9563670">
        <ele>11.1900000</ele>
        <time>2013-06-14T07:29:08Z</time>
      </trkpt>
      <trkpt lat="38.4750520" lon="14.9563670">
        <ele>11.1900000</ele>
        <time>2013-06-14T07:29:27Z</time>
      </trkpt>
      <trkpt lat="38.4750520" lon="14.9563680">
        <ele>11.6700000</ele>
        <time>2013-06-14T07:29:46Z</time>
      </trkpt>
      <trkpt lat="38.4750520" lon="14.9563680">
        <ele>11.6700000</ele>
        <time>2013-06-14T07:30:10Z</time>
      </trkpt>
      <trkpt lat="38.4750480" lon="14.9563710">
        <ele>11.6700000</ele>
        <time>2013-06-14T07:30:30Z</time>
      </trkpt>
      <trkpt lat="38.4750480" lon="14.9563710">
        <ele>11.6700000</ele>
        <time>2013-06-14T07:30:56Z</time>
      </trkpt>
      <trkpt lat="38.4750480" lon="14.9563670">
        <ele>11.1900000</ele>
        <time>2013-06-14T07:31:19Z</time>
      </trkpt>
      <trkpt lat="38.4750480" lon="14.9563670">
        <ele>11.6700000</ele>
        <time>2013-06-14T07:31:44Z</time>
      </trkpt>
      <trkpt lat="38.4750480" lon="14.9563670">
        <ele>11.1900000</ele>
        <time>2013-06-14T07:32:07Z</time>
      </trkpt>
      <trkpt lat="38.4750480" lon="14.9563670">
        <ele>11.6700000</ele>
        <time>2013-06-14T07:32:28Z</time>
      </trkpt>
      <trkpt lat="38.4750440" lon="14.9563660">
        <ele>11.1900000</ele>
        <time>2013-06-14T07:32:50Z</time>
      </trkpt>
      <trkpt lat="38.4750440" lon="14.9563650">
        <ele>11.6700000</ele>
        <time>2013-06-14T07:33:13Z</time>
      </trkpt>
      <trkpt lat="38.4750440" lon="14.9563650">
        <ele>12.1500000</ele>
        <time>2013-06-14T07:33:36Z</time>
      </trkpt>
      <trkpt lat="38.4750440" lon="14.9563610">
        <ele>11.6700000</ele>
        <time>2013-06-14T07:33:59Z</time>
      </trkpt>
      <trkpt lat="38.4750440" lon="14.9563610">
        <ele>11.6700000</ele>
        <time>2013-06-14T07:34:19Z</time>
      </trkpt>
      <trkpt lat="38.4750440" lon="14.9563600">
        <ele>11.1900000</ele>
        <time>2013-06-14T07:34:45Z</time>
      </trkpt>
      <trkpt lat="38.4750440" lon="14.9563600">
        <ele>11.1900000</ele>
        <time>2013-06-14T07:35:07Z</time>
      </trkpt>
      <trkpt lat="38.4750440" lon="14.9563580">
        <ele>10.7100000</ele>
        <time>2013-06-14T07:35:32Z</time>
      </trkpt>
      <trkpt lat="38.4750440" lon="14.9563580">
        <ele>10.7100000</ele>
        <time>2013-06-14T07:35:58Z</time>
      </trkpt>
      <trkpt lat="38.4750440" lon="14.9563580">
        <ele>11.1900000</ele>
        <time>2013-06-14T07:36:19Z</time>
      </trkpt>
      <trkpt lat="38.4750440" lon="14.9563570">
        <ele>10.7100000</ele>
        <time>2013-06-14T07:36:43Z</time>
      </trkpt>
      <trkpt lat="38.4750440" lon="14.9563570">
        <ele>11.1900000</ele>
        <time>2013-06-14T07:37:04Z</time>
      </trkpt>
      <trkpt lat="38.4750440" lon="14.9563570">
        <ele>10.7100000</ele>
        <time>2013-06-14T07:37:28Z</time>
      </trkpt>
      <trkpt lat="38.4750440" lon="14.9563570">
        <ele>10.7100000</ele>
        <time>2013-06-14T07:37:47Z</time>
      </trkpt>
      <trkpt lat="38.4750440" lon="14.9563540">
        <ele>10.2300000</ele>
        <time>2013-06-14T07:38:11Z</time>
      </trkpt>
      <trkpt lat="38.4750440" lon="14.9563550">
        <ele>10.2300000</ele>
        <time>2013-06-14T07:38:38Z</time>
      </trkpt>
      <trkpt lat="38.4750440" lon="14.9563550">
        <ele>10.2300000</ele>
        <time>2013-06-14T07:39:03Z</time>
      </trkpt>
      <trkpt lat="38.4750440" lon="14.9563540">
        <ele>9.7500000</ele>
        <time>2013-06-14T07:39:24Z</time>
      </trkpt>
      <trkpt lat="38.4750440" lon="14.9563540">
        <ele>9.2700000</ele>
        <time>2013-06-14T07:39:51Z</time>
      </trkpt>
      <trkpt lat="38.4750440" lon="14.9563540">
        <ele>9.7500000</ele>
        <time>2013-06-14T07:40:13Z</time>
      </trkpt>
      <trkpt lat="38.4750440" lon="14.9563550">
        <ele>10.2300000</ele>
        <time>2013-06-14T07:40:37Z</time>
      </trkpt>
      <trkpt lat="38.4750440" lon="14.9563550">
        <ele>10.2300000</ele>
        <time>2013-06-14T07:41:01Z</time>
      </trkpt>
      <trkpt lat="38.4750440" lon="14.9563530">
        <ele>9.7500000</ele>
        <time>2013-06-14T07:41:24Z</time>
      </trkpt>
      <trkpt lat="38.4750440" lon="14.9563530">
        <ele>9.2700000</ele>
        <time>2013-06-14T07:41:44Z</time>
      </trkpt>
      <trkpt lat="38.4750440" lon="14.9563520">
        <ele>8.7900000</ele>
        <time>2013-06-14T07:42:06Z</time>
      </trkpt>
      <trkpt lat="38.4750440" lon="14.9563520">
        <ele>8.7900000</ele>
        <time>2013-06-14T07:42:28Z</time>
      </trkpt>
      <trkpt lat="38.4750400" lon="14.9563520">
        <ele>9.7500000</ele>
        <time>2013-06-14T07:42:50Z</time>
      </trkpt>
      <trkpt lat="38.4750250" lon="14.9563470">
        <ele>9.2700000</ele>
        <time>2013-06-14T07:43:08Z</time>
      </trkpt>
      <trkpt lat="38.4750250" lon="14.9563470">
        <ele>9.2700000</ele>
        <time>2013-06-14T07:43:25Z</time>
      </trkpt>
      <trkpt lat="38.4750250" lon="14.9563470">
        <ele>8.7900000</ele>
        <time>2013-06-14T07:43:44Z</time>
      </trkpt>
      <trkpt lat="38.4750290" lon="14.9563450">
        <ele>9.2700000</ele>
        <time>2013-06-14T07:44:02Z</time>
      </trkpt>
      <trkpt lat="38.4750290" lon="14.9563460">
        <ele>8.7900000</ele>
        <time>2013-06-14T07:44:27Z</time>
      </trkpt>
      <trkpt lat="38.4750290" lon="14.9563460">
        <ele>8.7900000</ele>
        <time>2013-06-14T07:44:56Z</time>
      </trkpt>
      <trkpt lat="38.4750290" lon="14.9563450">
        <ele>8.7900000</ele>
        <time>2013-06-14T07:45:23Z</time>
      </trkpt>
      <trkpt lat="38.4750290" lon="14.9563450">
        <ele>8.7900000</ele>
        <time>2013-06-14T07:45:50Z</time>
      </trkpt>
      <trkpt lat="38.4750290" lon="14.9563450">
        <ele>8.7900000</ele>
        <time>2013-06-14T07:46:13Z</time>
      </trkpt>
      <trkpt lat="38.4750290" lon="14.9563450">
        <ele>8.7900000</ele>
        <time>2013-06-14T07:46:37Z</time>
      </trkpt>
      <trkpt lat="38.4750290" lon="14.9563450">
        <ele>8.3100000</ele>
        <time>2013-06-14T07:47:01Z</time>
      </trkpt>
      <trkpt lat="38.4750290" lon="14.9563440">
        <ele>8.3100000</ele>
        <time>2013-06-14T07:47:20Z</time>
      </trkpt>
      <trkpt lat="38.4750330" lon="14.9563440">
        <ele>7.8300000</ele>
        <time>2013-06-14T07:47:46Z</time>
      </trkpt>
      <trkpt lat="38.4750330" lon="14.9563440">
        <ele>7.3500000</ele>
        <time>2013-06-14T07:48:07Z</time>
      </trkpt>
      <trkpt lat="38.4750290" lon="14.9563410">
        <ele>7.8300000</ele>
        <time>2013-06-14T07:48:30Z</time>
      </trkpt>
      <trkpt lat="38.4750290" lon="14.9563410">
        <ele>7.3500000</ele>
        <time>2013-06-14T07:48:55Z</time>
      </trkpt>
      <trkpt lat="38.4750290" lon="14.9563390">
        <ele>7.3500000</ele>
        <time>2013-06-14T07:49:17Z</time>
      </trkpt>
      <trkpt lat="38.4750330" lon="14.9563410">
        <ele>6.8700000</ele>
        <time>2013-06-14T07:49:35Z</time>
      </trkpt>
      <trkpt lat="38.4750330" lon="14.9563410">
        <ele>7.3500000</ele>
        <time>2013-06-14T07:49:54Z</time>
      </trkpt>
      <trkpt lat="38.4750330" lon="14.9563390">
        <ele>7.3500000</ele>
        <time>2013-06-14T07:50:17Z</time>
      </trkpt>
      <trkpt lat="38.4750330" lon="14.9563390">
        <ele>6.8700000</ele>
        <time>2013-06-14T07:50:37Z</time>
      </trkpt>
      <trkpt lat="38.4750330" lon="14.9563380">
        <ele>6.8700000</ele>
        <time>2013-06-14T07:51:02Z</time>
      </trkpt>
      <trkpt lat="38.4750330" lon="14.9563380">
        <ele>6.8700000</ele>
        <time>2013-06-14T07:51:25Z</time>
      </trkpt>
      <trkpt lat="38.4750330" lon="14.9563390">
        <ele>6.8700000</ele>
        <time>2013-06-14T07:51:44Z</time>
      </trkpt>
      <trkpt lat="38.4750330" lon="14.9563390">
        <ele>6.8700000</ele>
        <time>2013-06-14T07:52:07Z</time>
      </trkpt>
      <trkpt lat="38.4750330" lon="14.9563370">
        <ele>6.8700000</ele>
        <time>2013-06-14T07:52:33Z</time>
      </trkpt>
      <trkpt lat="38.4750330" lon="14.9563370">
        <ele>6.8700000</ele>
        <time>2013-06-14T07:52:53Z</time>
      </trkpt>
      <trkpt lat="38.4750330" lon="14.9563370">
        <ele>6.8700000</ele>
        <time>2013-06-14T07:53:16Z</time>
      </trkpt>
      <trkpt lat="38.4750330" lon="14.9563350">
        <ele>6.3900000</ele>
        <time>2013-06-14T07:53:37Z</time>
      </trkpt>
      <trkpt lat="38.4750330" lon="14.9563350">
        <ele>6.3900000</ele>
        <time>2013-06-14T07:53:58Z</time>
      </trkpt>
      <trkpt lat="38.4750330" lon="14.9563310">
        <ele>6.3900000</ele>
        <time>2013-06-14T07:54:21Z</time>
      </trkpt>
      <trkpt lat="38.4750330" lon="14.9563310">
        <ele>6.3900000</ele>
        <time>2013-06-14T07:54:42Z</time>
      </trkpt>
      <trkpt lat="38.4750290" lon="14.9563300">
        <ele>6.3900000</ele>
        <time>2013-06-14T07:54:57Z</time>
      </trkpt>
      <trkpt lat="38.4750290" lon="14.9563300">
        <ele>5.9100000</ele>
        <time>2013-06-14T07:55:19Z</time>
      </trkpt>
      <trkpt lat="38.4750290" lon="14.9563270">
        <ele>5.9100000</ele>
        <time>2013-06-14T07:55:40Z</time>
      </trkpt>
      <trkpt lat="38.4750290" lon="14.9563270">
        <ele>5.9100000</ele>
        <time>2013-06-14T07:56:03Z</time>
      </trkpt>
      <trkpt lat="38.4750250" lon="14.9563250">
        <ele>6.3900000</ele>
        <time>2013-06-14T07:56:27Z</time>
      </trkpt>
      <trkpt lat="38.4750250" lon="14.9563190">
        <ele>6.3900000</ele>
        <time>2013-06-14T07:56:50Z</time>
      </trkpt>
      <trkpt lat="38.4750250" lon="14.9563190">
        <ele>5.9100000</ele>
        <time>2013-06-14T07:57:13Z</time>
      </trkpt>
      <trkpt lat="38.4750250" lon="14.9563190">
        <ele>5.9100000</ele>
        <time>2013-06-14T07:57:35Z</time>
      </trkpt>
      <trkpt lat="38.4750250" lon="14.9563190">
        <ele>5.4200000</ele>
        <time>2013-06-14T07:58:00Z</time>
      </trkpt>
      <trkpt lat="38.4750250" lon="14.9563140">
        <ele>5.4200000</ele>
        <time>2013-06-14T07:58:25Z</time>
      </trkpt>
      <trkpt lat="38.4750250" lon="14.9563080">
        <ele>5.4200000</ele>
        <time>2013-06-14T07:58:51Z</time>
      </trkpt>
      <trkpt lat="38.4750250" lon="14.9563080">
        <ele>5.4200000</ele>
        <time>2013-06-14T07:59:15Z</time>
      </trkpt>
      <trkpt lat="38.4750250" lon="14.9563020">
        <ele>4.9400000</ele>
        <time>2013-06-14T07:59:35Z</time>
      </trkpt>
      <trkpt lat="38.4750250" lon="14.9563010">
        <ele>5.9100000</ele>
        <time>2013-06-14T07:59:56Z</time>
      </trkpt>
      <trkpt lat="38.4750250" lon="14.9563010">
        <ele>5.4200000</ele>
        <time>2013-06-14T08:00:18Z</time>
      </trkpt>
      <trkpt lat="38.4750250" lon="14.9562990">
        <ele>4.9400000</ele>
        <time>2013-06-14T08:00:41Z</time>
      </trkpt>
      <trkpt lat="38.4750250" lon="14.9562990">
        <ele>4.9400000</ele>
        <time>2013-06-14T08:01:05Z</time>
      </trkpt>
      <trkpt lat="38.4750210" lon="14.9562970">
        <ele>4.4600000</ele>
        <time>2013-06-14T08:01:30Z</time>
      </trkpt>
      <trkpt lat="38.4750250" lon="14.9562950">
        <ele>4.9400000</ele>
        <time>2013-06-14T08:01:56Z</time>
      </trkpt>
      <trkpt lat="38.4750250" lon="14.9562950">
        <ele>4.4600000</ele>
        <time>2013-06-14T08:02:19Z</time>
      </trkpt>
      <trkpt lat="38.4750250" lon="14.9562930">
        <ele>4.4600000</ele>
        <time>2013-06-14T08:02:44Z</time>
      </trkpt>
      <trkpt lat="38.4750250" lon="14.9562930">
        <ele>3.9800000</ele>
        <time>2013-06-14T08:03:11Z</time>
      </trkpt>
      <trkpt lat="38.4750250" lon="14.9562910">
        <ele>4.9400000</ele>
        <time>2013-06-14T08:03:33Z</time>
      </trkpt>
      <trkpt lat="38.4750290" lon="14.9562960">
        <ele>4.4600000</ele>
        <time>2013-06-14T08:03:58Z</time>
      </trkpt>
      <trkpt lat="38.4751320" lon="14.9564500">
        <ele>3.9800000</ele>
        <time>2013-06-14T08:04:21Z</time>
      </trkpt>
      <trkpt lat="38.4751210" lon="14.9565870">
        <ele>3.5000000</ele>
        <time>2013-06-14T08:04:33Z</time>
      </trkpt>
      <trkpt lat="38.4750370" lon="14.9569450">
        <ele>3.9800000</ele>
        <time>2013-06-14T08:05:02Z</time>
      </trkpt>
      <trkpt lat="38.4749340" lon="14.9573010">
        <ele>4.4600000</ele>
        <time>2013-06-14T08:05:29Z</time>
      </trkpt>
      <trkpt lat="38.4748190" lon="14.9576580">
        <ele>3.9800000</ele>
        <time>2013-06-14T08:05:56Z</time>
      </trkpt>
      <trkpt lat="38.4746360" lon="14.9579200">
        <ele>3.9800000</ele>
        <time>2013-06-14T08:06:21Z</time>
      </trkpt>
      <trkpt lat="38.4744530" lon="14.9581620">
        <ele>3.9800000</ele>
        <time>2013-06-14T08:06:45Z</time>
      </trkpt>
      <trkpt lat="38.4743040" lon="14.9585600">
        <ele>3.9800000</ele>
        <time>2013-06-14T08:07:11Z</time>
      </trkpt>
      <trkpt lat="38.4740750" lon="14.9591690">
        <ele>3.5000000</ele>
        <time>2013-06-14T08:07:33Z</time>
      </trkpt>
      <trkpt lat="38.4737430" lon="14.9598920">
        <ele>3.0200000</ele>
        <time>2013-06-14T08:07:56Z</time>
      </trkpt>
      <trkpt lat="38.4733430" lon="14.9606550">
        <ele>3.0200000</ele>
        <time>2013-06-14T08:08:20Z</time>
      </trkpt>
      <trkpt lat="38.4729230" lon="14.9613460">
        <ele>2.5400000</ele>
        <time>2013-06-14T08:08:42Z</time>
      </trkpt>
      <trkpt lat="38.4724920" lon="14.9619700">
        <ele>3.0200000</ele>
        <time>2013-06-14T08:09:03Z</time>
      </trkpt>
      <trkpt lat="38.4719920" lon="14.9625550">
        <ele>2.5400000</ele>
        <time>2013-06-14T08:09:25Z</time>
      </trkpt>
      <trkpt lat="38.4716260" lon="14.9630890">
        <ele>2.5400000</ele>
        <time>2013-06-14T08:09:44Z</time>
      </trkpt>
      <trkpt lat="38.4711910" lon="14.9637450">
        <ele>2.0600000</ele>
        <time>2013-06-14T08:10:06Z</time>
      </trkpt>
      <trkpt lat="38.4707300" lon="14.9643940">
        <ele>2.5400000</ele>
        <time>2013-06-14T08:10:29Z</time>
      </trkpt>
      <trkpt lat="38.4702760" lon="14.9650100">
        <ele>1.5800000</ele>
        <time>2013-06-14T08:10:51Z</time>
      </trkpt>
      <trkpt lat="38.4698720" lon="14.9655460">
        <ele>2.0600000</ele>
        <time>2013-06-14T08:11:11Z</time>
      </trkpt>
      <trkpt lat="38.4694980" lon="14.9660680">
        <ele>1.5800000</ele>
        <time>2013-06-14T08:11:30Z</time>
      </trkpt>
      <trkpt lat="38.4690480" lon="14.9666750">
        <ele>1.1000000</ele>
        <time>2013-06-14T08:11:52Z</time>
      </trkpt>
      <trkpt lat="38.4688570" lon="14.9669270">
        <ele>2.0600000</ele>
        <time>2013-06-14T08:12:01Z</time>
      </trkpt>
      <trkpt lat="38.4683840" lon="14.9674630">
        <ele>1.1000000</ele>
        <time>2013-06-14T08:12:22Z</time>
      </trkpt>
      <trkpt lat="38.4679760" lon="14.9679310">
        <ele>1.1000000</ele>
        <time>2013-06-14T08:12:40Z</time>
      </trkpt>
      <trkpt lat="38.4675560" lon="14.9685040">
        <ele>1.5800000</ele>
        <time>2013-06-14T08:13:00Z</time>
      </trkpt>
      <trkpt lat="38.4671780" lon="14.9690610">
        <ele>0.6200000</ele>
        <time>2013-06-14T08:13:19Z</time>
      </trkpt>
      <trkpt lat="38.4668540" lon="14.9695600">
        <ele>1.1000000</ele>
        <time>2013-06-14T08:13:36Z</time>
      </trkpt>
      <trkpt lat="38.4664540" lon="14.9701400">
        <ele>1.1000000</ele>
        <time>2013-06-14T08:13:56Z</time>
      </trkpt>
      <trkpt lat="38.4660490" lon="14.9707460">
        <ele>1.5800000</ele>
        <time>2013-06-14T08:14:18Z</time>
      </trkpt>
      <trkpt lat="38.4657860" lon="14.9706910">
        <ele>1.1000000</ele>
        <time>2013-06-14T08:14:34Z</time>
      </trkpt>
      <trkpt lat="38.4656520" lon="14.9704630">
        <ele>1.1000000</ele>
        <time>2013-06-14T08:14:53Z</time>
      </trkpt>
      <trkpt lat="38.4655760" lon="14.9701940">
        <ele>1.1000000</ele>
        <time>2013-06-14T08:15:15Z</time>
      </trkpt>
      <trkpt lat="38.4655190" lon="14.9699790">
        <ele>1.1000000</ele>
        <time>2013-06-14T08:15:35Z</time>
      </trkpt>
      <trkpt lat="38.4654730" lon="14.9698100">
        <ele>1.1000000</ele>
        <time>2013-06-14T08:15:55Z</time>
      </trkpt>
      <trkpt lat="38.4654430" lon="14.9697190">
        <ele>1.1000000</ele>
        <time>2013-06-14T08:16:16Z</time>
      </trkpt>
      <trkpt lat="38.4653930" lon="14.9697090">
        <ele>0.6200000</ele>
        <time>2013-06-14T08:16:41Z</time>
      </trkpt>
      <trkpt lat="38.4653020" lon="14.9697060">
        <ele>1.5800000</ele>
        <time>2013-06-14T08:16:56Z</time>
      </trkpt>
      <trkpt lat="38.4649510" lon="14.9697710">
        <ele>2.0600000</ele>
        <time>2013-06-14T08:17:16Z</time>
      </trkpt>
      <trkpt lat="38.4644240" lon="14.9700410">
        <ele>1.5800000</ele>
        <time>2013-06-14T08:17:38Z</time>
      </trkpt>
      <trkpt lat="38.4638860" lon="14.9703250">
        <ele>1.5800000</ele>
        <time>2013-06-14T08:18:01Z</time>
      </trkpt>
      <trkpt lat="38.4633140" lon="14.9706560">
        <ele>1.5800000</ele>
        <time>2013-06-14T08:18:24Z</time>
      </trkpt>
      <trkpt lat="38.4627080" lon="14.9709940">
        <ele>1.5800000</ele>
        <time>2013-06-14T08:18:48Z</time>
      </trkpt>
      <trkpt lat="38.4622120" lon="14.9712280">
        <ele>0.6200000</ele>
        <time>2013-06-14T08:19:10Z</time>
      </trkpt>
      <trkpt lat="38.4618000" lon="14.9714640">
        <ele>0.6200000</ele>
        <time>2013-06-14T08:19:29Z</time>
      </trkpt>
      <trkpt lat="38.4612540" lon="14.9717470">
        <ele>0.6200000</ele>
        <time>2013-06-14T08:19:53Z</time>
      </trkpt>
      <trkpt lat="38.4607660" lon="14.9719970">
        <ele>0.6200000</ele>
        <time>2013-06-14T08:20:14Z</time>
      </trkpt>
      <trkpt lat="38.4602970" lon="14.9721900">
        <ele>0.6200000</ele>
        <time>2013-06-14T08:20:33Z</time>
      </trkpt>
      <trkpt lat="38.4599110" lon="14.9723540">
        <ele>0.6200000</ele>
        <time>2013-06-14T08:20:51Z</time>
      </trkpt>
      <trkpt lat="38.4593930" lon="14.9725960">
        <ele>1.1000000</ele>
        <time>2013-06-14T08:21:16Z</time>
      </trkpt>
      <trkpt lat="38.4589610" lon="14.9728330">
        <ele>0.6200000</ele>
        <time>2013-06-14T08:21:38Z</time>
      </trkpt>
      <trkpt lat="38.4584920" lon="14.9731370">
        <ele>0.6200000</ele>
        <time>2013-06-14T08:22:03Z</time>
      </trkpt>
      <trkpt lat="38.4580610" lon="14.9734420">
        <ele>-0.3400000</ele>
        <time>2013-06-14T08:22:28Z</time>
      </trkpt>
      <trkpt lat="38.4576070" lon="14.9737910">
        <ele>0.6200000</ele>
        <time>2013-06-14T08:22:53Z</time>
      </trkpt>
      <trkpt lat="38.4571720" lon="14.9741930">
        <ele>-0.3400000</ele>
        <time>2013-06-14T08:23:20Z</time>
      </trkpt>
      <trkpt lat="38.4567410" lon="14.9745630">
        <ele>-0.3400000</ele>
        <time>2013-06-14T08:23:47Z</time>
      </trkpt>
      <trkpt lat="38.4563560" lon="14.9749150">
        <ele>-0.3400000</ele>
        <time>2013-06-14T08:24:10Z</time>
      </trkpt>
      <trkpt lat="38.4559290" lon="14.9752680">
        <ele>-0.3400000</ele>
        <time>2013-06-14T08:24:35Z</time>
      </trkpt>
      <trkpt lat="38.4554900" lon="14.9756530">
        <ele>0.1400000</ele>
        <time>2013-06-14T08:25:01Z</time>
      </trkpt>
      <trkpt lat="38.4549790" lon="14.9760880">
        <ele>-0.3400000</ele>
        <time>2013-06-14T08:25:28Z</time>
      </trkpt>
      <trkpt lat="38.4545020" lon="14.9763980">
        <ele>-0.3400000</ele>
        <time>2013-06-14T08:25:51Z</time>
      </trkpt>
      <trkpt lat="38.4540820" lon="14.9766940">
        <ele>-0.3400000</ele>
        <time>2013-06-14T08:26:13Z</time>
      </trkpt>
      <trkpt lat="38.4537050" lon="14.9769850">
        <ele>-0.3400000</ele>
        <time>2013-06-14T08:26:37Z</time>
      </trkpt>
      <trkpt lat="38.4532700" lon="14.9773030">
        <ele>-0.3400000</ele>
        <time>2013-06-14T08:27:04Z</time>
      </trkpt>
      <trkpt lat="38.4528810" lon="14.9776010">
        <ele>-0.3400000</ele>
        <time>2013-06-14T08:27:31Z</time>
      </trkpt>
      <trkpt lat="38.4525640" lon="14.9778780">
        <ele>-0.8200000</ele>
        <time>2013-06-14T08:27:58Z</time>
      </trkpt>
      <trkpt lat="38.4522630" lon="14.9781200">
        <ele>-0.3400000</ele>
        <time>2013-06-14T08:28:22Z</time>
      </trkpt>
      <trkpt lat="38.4519500" lon="14.9783540">
        <ele>-0.8200000</ele>
        <time>2013-06-14T08:28:46Z</time>
      </trkpt>
      <trkpt lat="38.4516370" lon="14.9786040">
        <ele>-0.8200000</ele>
        <time>2013-06-14T08:29:11Z</time>
      </trkpt>
      <trkpt lat="38.4513550" lon="14.9788230">
        <ele>-0.8200000</ele>
        <time>2013-06-14T08:29:33Z</time>
      </trkpt>
      <trkpt lat="38.4510380" lon="14.9790890">
        <ele>-0.8200000</ele>
        <time>2013-06-14T08:29:56Z</time>
      </trkpt>
      <trkpt lat="38.4506840" lon="14.9793890">
        <ele>-0.8200000</ele>
        <time>2013-06-14T08:30:21Z</time>
      </trkpt>
      <trkpt lat="38.4503440" lon="14.9796690">
        <ele>-0.8200000</ele>
        <time>2013-06-14T08:30:47Z</time>
      </trkpt>
      <trkpt lat="38.4500850" lon="14.9799210">
        <ele>-0.8200000</ele>
        <time>2013-06-14T08:31:12Z</time>
      </trkpt>
      <trkpt lat="38.4498670" lon="14.9801250">
        <ele>-0.3400000</ele>
        <time>2013-06-14T08:31:37Z</time>
      </trkpt>
      <trkpt lat="38.4496350" lon="14.9803090">
        <ele>0.1400000</ele>
        <time>2013-06-14T08:32:03Z</time>
      </trkpt>
      <trkpt lat="38.4493450" lon="14.9804940">
        <ele>-0.8200000</ele>
        <time>2013-06-14T08:32:29Z</time>
      </trkpt>
      <trkpt lat="38.4490130" lon="14.9807380">
        <ele>-0.3400000</ele>
        <time>2013-06-14T08:32:55Z</time>
      </trkpt>
      <trkpt lat="38.4487380" lon="14.9809880">
        <ele>-0.3400000</ele>
        <time>2013-06-14T08:33:17Z</time>
      </trkpt>
      <trkpt lat="38.4484180" lon="14.9812720">
        <ele>-0.3400000</ele>
        <time>2013-06-14T08:33:43Z</time>
      </trkpt>
      <trkpt lat="38.4480900" lon="14.9815610">
        <ele>-0.3400000</ele>
        <time>2013-06-14T08:34:10Z</time>
      </trkpt>
      <trkpt lat="38.4478000" lon="14.9818070">
        <ele>-0.3400000</ele>
        <time>2013-06-14T08:34:33Z</time>
      </trkpt>
      <trkpt lat="38.4475060" lon="14.9820800">
        <ele>-0.3400000</ele>
        <time>2013-06-14T08:34:58Z</time>
      </trkpt>
      <trkpt lat="38.4471470" lon="14.9824030">
        <ele>-0.3400000</ele>
        <time>2013-06-14T08:35:27Z</time>
      </trkpt>
      <trkpt lat="38.4467960" lon="14.9827220">
        <ele>-0.3400000</ele>
        <time>2013-06-14T08:35:55Z</time>
      </trkpt>
      <trkpt lat="38.4464070" lon="14.9829970">
        <ele>0.1400000</ele>
        <time>2013-06-14T08:36:21Z</time>
      </trkpt>
      <trkpt lat="38.4459570" lon="14.9833140">
        <ele>0.1400000</ele>
        <time>2013-06-14T08:36:48Z</time>
      </trkpt>
      <trkpt lat="38.4455680" lon="14.9835840">
        <ele>-0.3400000</ele>
        <time>2013-06-14T08:37:13Z</time>
      </trkpt>
      <trkpt lat="38.4452130" lon="14.9838520">
        <ele>0.6200000</ele>
        <time>2013-06-14T08:37:37Z</time>
      </trkpt>
      <trkpt lat="38.4448390" lon="14.9841480">
        <ele>-0.3400000</ele>
        <time>2013-06-14T08:38:01Z</time>
      </trkpt>
      <trkpt lat="38.4444050" lon="14.9844470">
        <ele>-0.3400000</ele>
        <time>2013-06-14T08:38:25Z</time>
      </trkpt>
      <trkpt lat="38.4439130" lon="14.9847760">
        <ele>0.1400000</ele>
        <time>2013-06-14T08:38:49Z</time>
      </trkpt>
      <trkpt lat="38.4433520" lon="14.9851470">
        <ele>-0.3400000</ele>
        <time>2013-06-14T08:39:16Z</time>
      </trkpt>
      <trkpt lat="38.4428370" lon="14.9854420">
        <ele>0.1400000</ele>
        <time>2013-06-14T08:39:40Z</time>
      </trkpt>
      <trkpt lat="38.4423560" lon="14.9857520">
        <ele>0.1400000</ele>
        <time>2013-06-14T08:40:03Z</time>
      </trkpt>
      <trkpt lat="38.4418870" lon="14.9860790">
        <ele>-0.8200000</ele>
        <time>2013-06-14T08:40:26Z</time>
      </trkpt>
      <trkpt lat="38.4413640" lon="14.9864030">
        <ele>-0.3400000</ele>
        <time>2013-06-14T08:40:50Z</time>
      </trkpt>
      <trkpt lat="38.4408420" lon="14.9867430">
        <ele>-0.3400000</ele>
        <time>2013-06-14T08:41:14Z</time>
      </trkpt>
      <trkpt lat="38.4404070" lon="14.9870330">
        <ele>-0.3400000</ele>
        <time>2013-06-14T08:41:34Z</time>
      </trkpt>
      <trkpt lat="38.4399910" lon="14.9872840">
        <ele>-0.3400000</ele>
        <time>2013-06-14T08:41:53Z</time>
      </trkpt>
      <trkpt lat="38.4395640" lon="14.9875600">
        <ele>-0.3400000</ele>
        <time>2013-06-14T08:42:13Z</time>
      </trkpt>
      <trkpt lat="38.4391250" lon="14.9878260">
        <ele>-0.3400000</ele>
        <time>2013-06-14T08:42:34Z</time>
      </trkpt>
      <trkpt lat="38.4386830" lon="14.9881220">
        <ele>-0.8200000</ele>
        <time>2013-06-14T08:42:54Z</time>
      </trkpt>
      <trkpt lat="38.4383050" lon="14.9883890">
        <ele>-0.8200000</ele>
        <time>2013-06-14T08:43:11Z</time>
      </trkpt>
      <trkpt lat="38.4379310" lon="14.9886560">
        <ele>-0.8200000</ele>
        <time>2013-06-14T08:43:28Z</time>
      </trkpt>
      <trkpt lat="38.4375420" lon="14.9889090">
        <ele>-0.3400000</ele>
        <time>2013-06-14T08:43:46Z</time>
      </trkpt>
      <trkpt lat="38.4372330" lon="14.9891260">
        <ele>-0.8200000</ele>
        <time>2013-06-14T08:44:01Z</time>
      </trkpt>
      <trkpt lat="38.4367980" lon="14.9894130">
        <ele>-1.3000000</ele>
        <time>2013-06-14T08:44:22Z</time>
      </trkpt>
      <trkpt lat="38.4364590" lon="14.9896110">
        <ele>-0.3400000</ele>
        <time>2013-06-14T08:44:39Z</time>
      </trkpt>
      <trkpt lat="38.4360430" lon="14.9898690">
        <ele>-0.8200000</ele>
        <time>2013-06-14T08:45:00Z</time>
      </trkpt>
      <trkpt lat="38.4355960" lon="14.9901220">
        <ele>-0.3400000</ele>
        <time>2013-06-14T08:45:22Z</time>
      </trkpt>
      <trkpt lat="38.4351120" lon="14.9903250">
        <ele>-0.8200000</ele>
        <time>2013-06-14T08:45:45Z</time>
      </trkpt>
      <trkpt lat="38.4345820" lon="14.9905860">
        <ele>0.1400000</ele>
        <time>2013-06-14T08:46:09Z</time>
      </trkpt>
      <trkpt lat="38.4340550" lon="14.9908540">
        <ele>-0.8200000</ele>
        <time>2013-06-14T08:46:32Z</time>
      </trkpt>
      <trkpt lat="38.4335440" lon="14.9910940">
        <ele>-0.3400000</ele>
        <time>2013-06-14T08:46:54Z</time>
      </trkpt>
      <trkpt lat="38.4329800" lon="14.9913740">
        <ele>-0.3400000</ele>
        <time>2013-06-14T08:47:18Z</time>
      </trkpt>
      <trkpt lat="38.4323920" lon="14.9916130">
        <ele>-0.3400000</ele>
        <time>2013-06-14T08:47:42Z</time>
      </trkpt>
      <trkpt lat="38.4318120" lon="14.9918750">
        <ele>0.1400000</ele>
        <time>2013-06-14T08:48:05Z</time>
      </trkpt>
      <trkpt lat="38.4311710" lon="14.9921670">
        <ele>-0.3400000</ele>
        <time>2013-06-14T08:48:30Z</time>
      </trkpt>
      <trkpt lat="38.4305530" lon="14.9924520">
        <ele>-0.3400000</ele>
        <time>2013-06-14T08:48:55Z</time>
      </trkpt>
      <trkpt lat="38.4299390" lon="14.9927520">
        <ele>-0.8200000</ele>
        <time>2013-06-14T08:49:20Z</time>
      </trkpt>
      <trkpt lat="38.4293400" lon="14.9930480">
        <ele>-0.8200000</ele>
        <time>2013-06-14T08:49:45Z</time>
      </trkpt>
      <trkpt lat="38.4288560" lon="14.9932880">
        <ele>-0.8200000</ele>
        <time>2013-06-14T08:50:06Z</time>
      </trkpt>
      <trkpt lat="38.4283290" lon="14.9935710">
        <ele>-0.8200000</ele>
        <time>2013-06-14T08:50:30Z</time>
      </trkpt>
      <trkpt lat="38.4278070" lon="14.9938170">
        <ele>-0.8200000</ele>
        <time>2013-06-14T08:50:53Z</time>
      </trkpt>
      <trkpt lat="38.4272350" lon="14.9940770">
        <ele>-0.8200000</ele>
        <time>2013-06-14T08:51:17Z</time>
      </trkpt>
      <trkpt lat="38.4266780" lon="14.9943410">
        <ele>-0.8200000</ele>
        <time>2013-06-14T08:51:39Z</time>
      </trkpt>
      <trkpt lat="38.4261050" lon="14.9946020">
        <ele>-1.3000000</ele>
        <time>2013-06-14T08:52:03Z</time>
      </trkpt>
      <trkpt lat="38.4256020" lon="14.9948750">
        <ele>-0.8200000</ele>
        <time>2013-06-14T08:52:27Z</time>
      </trkpt>
      <trkpt lat="38.4251710" lon="14.9951430">
        <ele>-1.3000000</ele>
        <time>2013-06-14T08:52:49Z</time>
      </trkpt>
      <trkpt lat="38.4247250" lon="14.9953710">
        <ele>-0.8200000</ele>
        <time>2013-06-14T08:53:12Z</time>
      </trkpt>
      <trkpt lat="38.4241790" lon="14.9956560">
        <ele>-0.8200000</ele>
        <time>2013-06-14T08:53:38Z</time>
      </trkpt>
      <trkpt lat="38.4237170" lon="14.9958540">
        <ele>-0.3400000</ele>
        <time>2013-06-14T08:54:00Z</time>
      </trkpt>
      <trkpt lat="38.4231410" lon="14.9960410">
        <ele>-0.3400000</ele>
        <time>2013-06-14T08:54:25Z</time>
      </trkpt>
      <trkpt lat="38.4225540" lon="14.9962700">
        <ele>-0.8200000</ele>
        <time>2013-06-14T08:54:50Z</time>
      </trkpt>
      <trkpt lat="38.4221610" lon="14.9964490">
        <ele>-0.8200000</ele>
        <time>2013-06-14T08:55:08Z</time>
      </trkpt>
      <trkpt lat="38.4216880" lon="14.9966880">
        <ele>-0.3400000</ele>
        <time>2013-06-14T08:55:30Z</time>
      </trkpt>
      <trkpt lat="38.4211770" lon="14.9969090">
        <ele>-0.3400000</ele>
        <time>2013-06-14T08:55:54Z</time>
      </trkpt>
      <trkpt lat="38.4206890" lon="14.9971280">
        <ele>-0.3400000</ele>
        <time>2013-06-14T08:56:17Z</time>
      </trkpt>
      <trkpt lat="38.4200970" lon="14.9972960">
        <ele>-0.3400000</ele>
        <time>2013-06-14T08:56:42Z</time>
      </trkpt>
      <trkpt lat="38.4195820" lon="14.9974750">
        <ele>0.1400000</ele>
        <time>2013-06-14T08:57:04Z</time>
      </trkpt>
      <trkpt lat="38.4190140" lon="14.9976590">
        <ele>-0.3400000</ele>
        <time>2013-06-14T08:57:27Z</time>
      </trkpt>
      <trkpt lat="38.4184070" lon="14.9977980">
        <ele>0.1400000</ele>
        <time>2013-06-14T08:57:50Z</time>
      </trkpt>
      <trkpt lat="38.4176450" lon="14.9980400">
        <ele>0.6200000</ele>
        <time>2013-06-14T08:58:18Z</time>
      </trkpt>
      <trkpt lat="38.4168820" lon="14.9983300">
        <ele>-0.3400000</ele>
        <time>2013-06-14T08:58:47Z</time>
      </trkpt>
      <trkpt lat="38.4161640" lon="14.9984940">
        <ele>0.6200000</ele>
        <time>2013-06-14T08:59:14Z</time>
      </trkpt>
      <trkpt lat="38.4154930" lon="14.9987280">
        <ele>1.1000000</ele>
        <time>2013-06-14T08:59:39Z</time>
      </trkpt>
      <trkpt lat="38.4147680" lon="14.9989270">
        <ele>0.6200000</ele>
        <time>2013-06-14T09:00:06Z</time>
      </trkpt>
      <trkpt lat="38.4141540" lon="14.9991490">
        <ele>0.6200000</ele>
        <time>2013-06-14T09:00:30Z</time>
      </trkpt>
      <trkpt lat="38.4136120" lon="14.9992490">
        <ele>1.1000000</ele>
        <time>2013-06-14T09:00:51Z</time>
      </trkpt>
      <trkpt lat="38.4131130" lon="14.9993860">
        <ele>0.6200000</ele>
        <time>2013-06-14T09:01:10Z</time>
      </trkpt>
      <trkpt lat="38.4124340" lon="14.9995950">
        <ele>0.6200000</ele>
        <time>2013-06-14T09:01:36Z</time>
      </trkpt>
      <trkpt lat="38.4118880" lon="14.9998160">
        <ele>0.6200000</ele>
        <time>2013-06-14T09:01:59Z</time>
      </trkpt>
      <trkpt lat="38.4113080" lon="15.0000660">
        <ele>0.6200000</ele>
        <time>2013-06-14T09:02:24Z</time>
      </trkpt>
      <trkpt lat="38.4107590" lon="15.0002980">
        <ele>1.1000000</ele>
        <time>2013-06-14T09:02:48Z</time>
      </trkpt>
      <trkpt lat="38.4101790" lon="15.0004690">
        <ele>1.1000000</ele>
        <time>2013-06-14T09:03:12Z</time>
      </trkpt>
      <trkpt lat="38.4095040" lon="15.0007330">
        <ele>0.6200000</ele>
        <time>2013-06-14T09:03:40Z</time>
      </trkpt>
      <trkpt lat="38.4088940" lon="15.0009980">
        <ele>1.1000000</ele>
        <time>2013-06-14T09:04:05Z</time>
      </trkpt>
      <trkpt lat="38.4082260" lon="15.0012090">
        <ele>0.6200000</ele>
        <time>2013-06-14T09:04:33Z</time>
      </trkpt>
      <trkpt lat="38.4075700" lon="15.0014260">
        <ele>1.1000000</ele>
        <time>2013-06-14T09:05:02Z</time>
      </trkpt>
      <trkpt lat="38.4070510" lon="15.0016550">
        <ele>1.1000000</ele>
        <time>2013-06-14T09:05:27Z</time>
      </trkpt>
      <trkpt lat="38.4066730" lon="15.0017910">
        <ele>1.1000000</ele>
        <time>2013-06-14T09:05:45Z</time>
      </trkpt>
      <trkpt lat="38.4061810" lon="15.0019280">
        <ele>1.1000000</ele>
        <time>2013-06-14T09:06:08Z</time>
      </trkpt>
      <trkpt lat="38.4056700" lon="15.0021470">
        <ele>1.5800000</ele>
        <time>2013-06-14T09:06:33Z</time>
      </trkpt>
      <trkpt lat="38.4051780" lon="15.0024180">
        <ele>1.1000000</ele>
        <time>2013-06-14T09:07:00Z</time>
      </trkpt>
      <trkpt lat="38.4045370" lon="15.0026320">
        <ele>2.0600000</ele>
        <time>2013-06-14T09:07:28Z</time>
      </trkpt>
      <trkpt lat="38.4038730" lon="15.0027680">
        <ele>1.5800000</ele>
        <time>2013-06-14T09:07:54Z</time>
      </trkpt>
      <trkpt lat="38.4032550" lon="15.0029190">
        <ele>2.0600000</ele>
        <time>2013-06-14T09:08:18Z</time>
      </trkpt>
      <trkpt lat="38.4026220" lon="15.0030840">
        <ele>2.0600000</ele>
        <time>2013-06-14T09:08:45Z</time>
      </trkpt>
      <trkpt lat="38.4021300" lon="15.0032840">
        <ele>2.0600000</ele>
        <time>2013-06-14T09:09:09Z</time>
      </trkpt>
      <trkpt lat="38.4017410" lon="15.0034230">
        <ele>2.0600000</ele>
        <time>2013-06-14T09:09:28Z</time>
      </trkpt>
      <trkpt lat="38.4012450" lon="15.0035430">
        <ele>2.5400000</ele>
        <time>2013-06-14T09:09:52Z</time>
      </trkpt>
      <trkpt lat="38.4007610" lon="15.0036640">
        <ele>2.0600000</ele>
        <time>2013-06-14T09:10:16Z</time>
      </trkpt>
      <trkpt lat="38.4002380" lon="15.0037990">
        <ele>2.5400000</ele>
        <time>2013-06-14T09:10:37Z</time>
      </trkpt>
      <trkpt lat="38.3996160" lon="15.0040140">
        <ele>3.0200000</ele>
        <time>2013-06-14T09:11:02Z</time>
      </trkpt>
      <trkpt lat="38.3988910" lon="15.0042080">
        <ele>2.5400000</ele>
        <time>2013-06-14T09:11:28Z</time>
      </trkpt>
      <trkpt lat="38.3984570" lon="15.0044160">
        <ele>2.5400000</ele>
        <time>2013-06-14T09:11:50Z</time>
      </trkpt>
      <trkpt lat="38.3978880" lon="15.0045610">
        <ele>2.5400000</ele>
        <time>2013-06-14T09:12:17Z</time>
      </trkpt>
      <trkpt lat="38.3973960" lon="15.0047460">
        <ele>2.5400000</ele>
        <time>2013-06-14T09:12:43Z</time>
      </trkpt>
      <trkpt lat="38.3969760" lon="15.0049020">
        <ele>2.5400000</ele>
        <time>2013-06-14T09:13:07Z</time>
      </trkpt>
      <trkpt lat="38.3965990" lon="15.0050170">
        <ele>2.0600000</ele>
        <time>2013-06-14T09:13:29Z</time>
      </trkpt>
      <trkpt lat="38.3960910" lon="15.0051800">
        <ele>2.5400000</ele>
        <time>2013-06-14T09:13:58Z</time>
      </trkpt>
      <trkpt lat="38.3955120" lon="15.0052950">
        <ele>3.0200000</ele>
        <time>2013-06-14T09:14:24Z</time>
      </trkpt>
      <trkpt lat="38.3948860" lon="15.0054710">
        <ele>2.5400000</ele>
        <time>2013-06-14T09:14:52Z</time>
      </trkpt>
      <trkpt lat="38.3944780" lon="15.0056750">
        <ele>2.5400000</ele>
        <time>2013-06-14T09:15:16Z</time>
      </trkpt>
      <trkpt lat="38.3940160" lon="15.0057750">
        <ele>2.5400000</ele>
        <time>2013-06-14T09:15:41Z</time>
      </trkpt>
      <trkpt lat="38.3935700" lon="15.0058770">
        <ele>2.5400000</ele>
        <time>2013-06-14T09:16:05Z</time>
      </trkpt>
      <trkpt lat="38.3930590" lon="15.0059980">
        <ele>2.5400000</ele>
        <time>2013-06-14T09:16:31Z</time>
      </trkpt>
      <trkpt lat="38.3924260" lon="15.0062650">
        <ele>2.5400000</ele>
        <time>2013-06-14T09:17:02Z</time>
      </trkpt>
      <trkpt lat="38.3920140" lon="15.0064160">
        <ele>1.5800000</ele>
        <time>2013-06-14T09:17:24Z</time>
      </trkpt>
      <trkpt lat="38.3916320" lon="15.0065760">
        <ele>2.0600000</ele>
        <time>2013-06-14T09:17:47Z</time>
      </trkpt>
      <trkpt lat="38.3913650" lon="15.0067090">
        <ele>2.0600000</ele>
        <time>2013-06-14T09:18:08Z</time>
      </trkpt>
      <trkpt lat="38.3911320" lon="15.0067880">
        <ele>2.0600000</ele>
        <time>2013-06-14T09:18:31Z</time>
      </trkpt>
      <trkpt lat="38.3908880" lon="15.0068500">
        <ele>2.0600000</ele>
        <time>2013-06-14T09:18:58Z</time>
      </trkpt>
      <trkpt lat="38.3906360" lon="15.0069060">
        <ele>2.0600000</ele>
        <time>2013-06-14T09:19:25Z</time>
      </trkpt>
      <trkpt lat="38.3903200" lon="15.0069880">
        <ele>2.0600000</ele>
        <time>2013-06-14T09:19:49Z</time>
      </trkpt>
      <trkpt lat="38.3898010" lon="15.0071610">
        <ele>2.5400000</ele>
        <time>2013-06-14T09:20:21Z</time>
      </trkpt>
      <trkpt lat="38.3893470" lon="15.0073250">
        <ele>2.0600000</ele>
        <time>2013-06-14T09:20:49Z</time>
      </trkpt>
      <trkpt lat="38.3889390" lon="15.0075120">
        <ele>2.5400000</ele>
        <time>2013-06-14T09:21:14Z</time>
      </trkpt>
      <trkpt lat="38.3883320" lon="15.0076440">
        <ele>2.5400000</ele>
        <time>2013-06-14T09:21:42Z</time>
      </trkpt>
      <trkpt lat="38.3876270" lon="15.0079040">
        <ele>2.5400000</ele>
        <time>2013-06-14T09:22:13Z</time>
      </trkpt>
      <trkpt lat="38.3870660" lon="15.0080800">
        <ele>2.5400000</ele>
        <time>2013-06-14T09:22:38Z</time>
      </trkpt>
      <trkpt lat="38.3866500" lon="15.0082380">
        <ele>2.5400000</ele>
        <time>2013-06-14T09:22:58Z</time>
      </trkpt>
      <trkpt lat="38.3862300" lon="15.0084370">
        <ele>2.0600000</ele>
        <time>2013-06-14T09:23:20Z</time>
      </trkpt>
      <trkpt lat="38.3858110" lon="15.0086090">
        <ele>2.0600000</ele>
        <time>2013-06-14T09:23:46Z</time>
      </trkpt>
      <trkpt lat="38.3854410" lon="15.0087320">
        <ele>2.5400000</ele>
        <time>2013-06-14T09:24:13Z</time>
      </trkpt>
      <trkpt lat="38.3850520" lon="15.0088470">
        <ele>1.5800000</ele>
        <time>2013-06-14T09:24:42Z</time>
      </trkpt>
      <trkpt lat="38.3848230" lon="15.0089670">
        <ele>2.0600000</ele>
        <time>2013-06-14T09:25:06Z</time>
      </trkpt>
      <trkpt lat="38.3846320" lon="15.0090510">
        <ele>2.0600000</ele>
        <time>2013-06-14T09:25:31Z</time>
      </trkpt>
      <trkpt lat="38.3844490" lon="15.0091220">
        <ele>2.5400000</ele>
        <time>2013-06-14T09:25:58Z</time>
      </trkpt>
      <trkpt lat="38.3842090" lon="15.0091840">
        <ele>1.5800000</ele>
        <time>2013-06-14T09:26:22Z</time>
      </trkpt>
      <trkpt lat="38.3837200" lon="15.0093800">
        <ele>1.5800000</ele>
        <time>2013-06-14T09:26:45Z</time>
      </trkpt>
      <trkpt lat="38.3833160" lon="15.0095150">
        <ele>2.0600000</ele>
        <time>2013-06-14T09:27:02Z</time>
      </trkpt>
      <trkpt lat="38.3826560" lon="15.0096380">
        <ele>2.0600000</ele>
        <time>2013-06-14T09:27:28Z</time>
      </trkpt>
      <trkpt lat="38.3820000" lon="15.0098380">
        <ele>2.5400000</ele>
        <time>2013-06-14T09:27:55Z</time>
      </trkpt>
      <trkpt lat="38.3813020" lon="15.0099580">
        <ele>2.5400000</ele>
        <time>2013-06-14T09:28:22Z</time>
      </trkpt>
      <trkpt lat="38.3805540" lon="15.0100380">
        <ele>2.5400000</ele>
        <time>2013-06-14T09:28:50Z</time>
      </trkpt>
      <trkpt lat="38.3798940" lon="15.0101190">
        <ele>2.5400000</ele>
        <time>2013-06-14T09:29:15Z</time>
      </trkpt>
      <trkpt lat="38.3792190" lon="15.0101670">
        <ele>2.5400000</ele>
        <time>2013-06-14T09:29:40Z</time>
      </trkpt>
      <trkpt lat="38.3785710" lon="15.0100230">
        <ele>2.5400000</ele>
        <time>2013-06-14T09:30:04Z</time>
      </trkpt>
      <trkpt lat="38.3778270" lon="15.0099740">
        <ele>3.0200000</ele>
        <time>2013-06-14T09:30:32Z</time>
      </trkpt>
      <trkpt lat="38.3772090" lon="15.0099500">
        <ele>3.0200000</ele>
        <time>2013-06-14T09:30:56Z</time>
      </trkpt>
      <trkpt lat="38.3765720" lon="15.0099990">
        <ele>3.0200000</ele>
        <time>2013-06-14T09:31:20Z</time>
      </trkpt>
      <trkpt lat="38.3760030" lon="15.0100730">
        <ele>3.5000000</ele>
        <time>2013-06-14T09:31:42Z</time>
      </trkpt>
      <trkpt lat="38.3754270" lon="15.0101420">
        <ele>3.0200000</ele>
        <time>2013-06-14T09:32:07Z</time>
      </trkpt>
      <trkpt lat="38.3751300" lon="15.0102230">
        <ele>3.5000000</ele>
        <time>2013-06-14T09:32:27Z</time>
      </trkpt>
      <trkpt lat="38.3748090" lon="15.0103420">
        <ele>3.5000000</ele>
        <time>2013-06-14T09:32:50Z</time>
      </trkpt>
      <trkpt lat="38.3744540" lon="15.0104450">
        <ele>3.9800000</ele>
        <time>2013-06-14T09:33:11Z</time>
      </trkpt>
      <trkpt lat="38.3740430" lon="15.0105530">
        <ele>4.4600000</ele>
        <time>2013-06-14T09:33:34Z</time>
      </trkpt>
      <trkpt lat="38.3735010" lon="15.0106970">
        <ele>3.5000000</ele>
        <time>2013-06-14T09:34:04Z</time>
      </trkpt>
      <trkpt lat="38.3728900" lon="15.0109000">
        <ele>3.5000000</ele>
        <time>2013-06-14T09:34:28Z</time>
      </trkpt>
      <trkpt lat="38.3721540" lon="15.0111670">
        <ele>3.0200000</ele>
        <time>2013-06-14T09:34:53Z</time>
      </trkpt>
      <trkpt lat="38.3714680" lon="15.0114360">
        <ele>3.5000000</ele>
        <time>2013-06-14T09:35:19Z</time>
      </trkpt>
      <trkpt lat="38.3706780" lon="15.0116120">
        <ele>3.0200000</ele>
        <time>2013-06-14T09:35:42Z</time>
      </trkpt>
      <trkpt lat="38.3698880" lon="15.0118790">
        <ele>2.5400000</ele>
        <time>2013-06-14T09:36:06Z</time>
      </trkpt>
      <trkpt lat="38.3692510" lon="15.0120820">
        <ele>3.0200000</ele>
        <time>2013-06-14T09:36:27Z</time>
      </trkpt>
      <trkpt lat="38.3685990" lon="15.0122890">
        <ele>2.5400000</ele>
        <time>2013-06-14T09:36:51Z</time>
      </trkpt>
      <trkpt lat="38.3680380" lon="15.0124620">
        <ele>2.5400000</ele>
        <time>2013-06-14T09:37:12Z</time>
      </trkpt>
      <trkpt lat="38.3673590" lon="15.0126620">
        <ele>3.0200000</ele>
        <time>2013-06-14T09:37:36Z</time>
      </trkpt>
      <trkpt lat="38.3667680" lon="15.0128940">
        <ele>3.5000000</ele>
        <time>2013-06-14T09:37:57Z</time>
      </trkpt>
      <trkpt lat="38.3661730" lon="15.0131770">
        <ele>2.5400000</ele>
        <time>2013-06-14T09:38:18Z</time>
      </trkpt>
      <trkpt lat="38.3656920" lon="15.0133860">
        <ele>3.5000000</ele>
        <time>2013-06-14T09:38:36Z</time>
      </trkpt>
      <trkpt lat="38.3651240" lon="15.0135160">
        <ele>3.0200000</ele>
        <time>2013-06-14T09:38:54Z</time>
      </trkpt>
      <trkpt lat="38.3645060" lon="15.0136270">
        <ele>3.0200000</ele>
        <time>2013-06-14T09:39:13Z</time>
      </trkpt>
      <trkpt lat="38.3638570" lon="15.0137440">
        <ele>3.0200000</ele>
        <time>2013-06-14T09:39:33Z</time>
      </trkpt>
      <trkpt lat="38.3632010" lon="15.0138840">
        <ele>3.0200000</ele>
        <time>2013-06-14T09:39:54Z</time>
      </trkpt>
      <trkpt lat="38.3626370" lon="15.0140300">
        <ele>3.0200000</ele>
        <time>2013-06-14T09:40:12Z</time>
      </trkpt>
      <trkpt lat="38.3619840" lon="15.0142520">
        <ele>3.0200000</ele>
        <time>2013-06-14T09:40:33Z</time>
      </trkpt>
      <trkpt lat="38.3613970" lon="15.0144570">
        <ele>3.0200000</ele>
        <time>2013-06-14T09:40:53Z</time>
      </trkpt>
      <trkpt lat="38.3608090" lon="15.0146510">
        <ele>3.0200000</ele>
        <time>2013-06-14T09:41:13Z</time>
      </trkpt>
      <trkpt lat="38.3601910" lon="15.0147270">
        <ele>3.0200000</ele>
        <time>2013-06-14T09:41:32Z</time>
      </trkpt>
      <trkpt lat="38.3595580" lon="15.0148890">
        <ele>3.0200000</ele>
        <time>2013-06-14T09:41:51Z</time>
      </trkpt>
      <trkpt lat="38.3589480" lon="15.0150940">
        <ele>3.0200000</ele>
        <time>2013-06-14T09:42:10Z</time>
      </trkpt>
      <trkpt lat="38.3582920" lon="15.0152950">
        <ele>3.0200000</ele>
        <time>2013-06-14T09:42:31Z</time>
      </trkpt>
      <trkpt lat="38.3576470" lon="15.0154820">
        <ele>3.0200000</ele>
        <time>2013-06-14T09:42:52Z</time>
      </trkpt>
      <trkpt lat="38.3569980" lon="15.0156670">
        <ele>3.0200000</ele>
        <time>2013-06-14T09:43:13Z</time>
      </trkpt>
      <trkpt lat="38.3564150" lon="15.0158480">
        <ele>3.0200000</ele>
        <time>2013-06-14T09:43:33Z</time>
      </trkpt>
      <trkpt lat="38.3558350" lon="15.0159880">
        <ele>3.0200000</ele>
        <time>2013-06-14T09:43:53Z</time>
      </trkpt>
      <trkpt lat="38.3553390" lon="15.0160710">
        <ele>3.0200000</ele>
        <time>2013-06-14T09:44:10Z</time>
      </trkpt>
      <trkpt lat="38.3547940" lon="15.0162380">
        <ele>2.5400000</ele>
        <time>2013-06-14T09:44:29Z</time>
      </trkpt>
      <trkpt lat="38.3542750" lon="15.0163360">
        <ele>3.0200000</ele>
        <time>2013-06-14T09:44:47Z</time>
      </trkpt>
      <trkpt lat="38.3537450" lon="15.0165010">
        <ele>2.5400000</ele>
        <time>2013-06-14T09:45:06Z</time>
      </trkpt>
      <trkpt lat="38.3531650" lon="15.0166280">
        <ele>2.5400000</ele>
        <time>2013-06-14T09:45:27Z</time>
      </trkpt>
      <trkpt lat="38.3526570" lon="15.0168120">
        <ele>2.0600000</ele>
        <time>2013-06-14T09:45:46Z</time>
      </trkpt>
      <trkpt lat="38.3521420" lon="15.0169740">
        <ele>2.5400000</ele>
        <time>2013-06-14T09:46:05Z</time>
      </trkpt>
      <trkpt lat="38.3516120" lon="15.0171100">
        <ele>2.5400000</ele>
        <time>2013-06-14T09:46:24Z</time>
      </trkpt>
      <trkpt lat="38.3509940" lon="15.0172030">
        <ele>2.5400000</ele>
        <time>2013-06-14T09:46:46Z</time>
      </trkpt>
      <trkpt lat="38.3504600" lon="15.0173380">
        <ele>2.5400000</ele>
        <time>2013-06-14T09:47:05Z</time>
      </trkpt>
      <trkpt lat="38.3499980" lon="15.0176080">
        <ele>2.0600000</ele>
        <time>2013-06-14T09:47:24Z</time>
      </trkpt>
      <trkpt lat="38.3494990" lon="15.0178330">
        <ele>2.0600000</ele>
        <time>2013-06-14T09:47:45Z</time>
      </trkpt>
      <trkpt lat="38.3489610" lon="15.0179730">
        <ele>3.0200000</ele>
        <time>2013-06-14T09:48:06Z</time>
      </trkpt>
      <trkpt lat="38.3484000" lon="15.0181000">
        <ele>2.5400000</ele>
        <time>2013-06-14T09:48:27Z</time>
      </trkpt>
      <trkpt lat="38.3478240" lon="15.0182550">
        <ele>2.0600000</ele>
        <time>2013-06-14T09:48:49Z</time>
      </trkpt>
      <trkpt lat="38.3472750" lon="15.0183800">
        <ele>2.5400000</ele>
        <time>2013-06-14T09:49:10Z</time>
      </trkpt>
      <trkpt lat="38.3468170" lon="15.0185180">
        <ele>2.5400000</ele>
        <time>2013-06-14T09:49:28Z</time>
      </trkpt>
      <trkpt lat="38.3462180" lon="15.0187100">
        <ele>2.0600000</ele>
        <time>2013-06-14T09:49:52Z</time>
      </trkpt>
      <trkpt lat="38.3456990" lon="15.0188870">
        <ele>2.5400000</ele>
        <time>2013-06-14T09:50:13Z</time>
      </trkpt>
      <trkpt lat="38.3452300" lon="15.0190100">
        <ele>2.5400000</ele>
        <time>2013-06-14T09:50:31Z</time>
      </trkpt>
      <trkpt lat="38.3446730" lon="15.0191890">
        <ele>2.0600000</ele>
        <time>2013-06-14T09:50:52Z</time>
      </trkpt>
      <trkpt lat="38.3442380" lon="15.0193290">
        <ele>2.0600000</ele>
        <time>2013-06-14T09:51:09Z</time>
      </trkpt>
      <trkpt lat="38.3436510" lon="15.0195290">
        <ele>2.5400000</ele>
        <time>2013-06-14T09:51:32Z</time>
      </trkpt>
      <trkpt lat="38.3431510" lon="15.0197510">
        <ele>2.0600000</ele>
        <time>2013-06-14T09:51:52Z</time>
      </trkpt>
      <trkpt lat="38.3426020" lon="15.0199880">
        <ele>2.0600000</ele>
        <time>2013-06-14T09:52:14Z</time>
      </trkpt>
      <trkpt lat="38.3421940" lon="15.0201230">
        <ele>2.0600000</ele>
        <time>2013-06-14T09:52:30Z</time>
      </trkpt>
      <trkpt lat="38.3415910" lon="15.0203260">
        <ele>2.5400000</ele>
        <time>2013-06-14T09:52:53Z</time>
      </trkpt>
      <trkpt lat="38.3410910" lon="15.0204650">
        <ele>2.0600000</ele>
        <time>2013-06-14T09:53:12Z</time>
      </trkpt>
      <trkpt lat="38.3406560" lon="15.0205860">
        <ele>2.0600000</ele>
        <time>2013-06-14T09:53:29Z</time>
      </trkpt>
      <trkpt lat="38.3401990" lon="15.0207160">
        <ele>2.5400000</ele>
        <time>2013-06-14T09:53:46Z</time>
      </trkpt>
      <trkpt lat="38.3396950" lon="15.0208510">
        <ele>2.0600000</ele>
        <time>2013-06-14T09:54:04Z</time>
      </trkpt>
      <trkpt lat="38.3392520" lon="15.0209780">
        <ele>2.0600000</ele>
        <time>2013-06-14T09:54:21Z</time>
      </trkpt>
      <trkpt lat="38.3386340" lon="15.0211830">
        <ele>2.0600000</ele>
        <time>2013-06-14T09:54:45Z</time>
      </trkpt>
      <trkpt lat="38.3381690" lon="15.0213360">
        <ele>2.5400000</ele>
        <time>2013-06-14T09:55:03Z</time>
      </trkpt>
      <trkpt lat="38.3376580" lon="15.0214950">
        <ele>3.0200000</ele>
        <time>2013-06-14T09:55:22Z</time>
      </trkpt>
      <trkpt lat="38.3371850" lon="15.0216300">
        <ele>2.5400000</ele>
        <time>2013-06-14T09:55:40Z</time>
      </trkpt>
      <trkpt lat="38.3367040" lon="15.0217580">
        <ele>2.0600000</ele>
        <time>2013-06-14T09:55:58Z</time>
      </trkpt>
      <trkpt lat="38.3361780" lon="15.0219330">
        <ele>2.5400000</ele>
        <time>2013-06-14T09:56:19Z</time>
      </trkpt>
      <trkpt lat="38.3357240" lon="15.0220790">
        <ele>2.0600000</ele>
        <time>2013-06-14T09:56:37Z</time>
      </trkpt>
      <trkpt lat="38.3352810" lon="15.0221670">
        <ele>2.0600000</ele>
        <time>2013-06-14T09:56:54Z</time>
      </trkpt>
      <trkpt lat="38.3347510" lon="15.0222830">
        <ele>2.0600000</ele>
        <time>2013-06-14T09:57:14Z</time>
      </trkpt>
      <trkpt lat="38.3341640" lon="15.0224430">
        <ele>2.5400000</ele>
        <time>2013-06-14T09:57:37Z</time>
      </trkpt>
      <trkpt lat="38.3337020" lon="15.0225170">
        <ele>3.0200000</ele>
        <time>2013-06-14T09:57:55Z</time>
      </trkpt>
      <trkpt lat="38.3332370" lon="15.0225600">
        <ele>2.0600000</ele>
        <time>2013-06-14T09:58:13Z</time>
      </trkpt>
      <trkpt lat="38.3327480" lon="15.0226920">
        <ele>2.5400000</ele>
        <time>2013-06-14T09:58:32Z</time>
      </trkpt>
      <trkpt lat="38.3322640" lon="15.0228180">
        <ele>2.0600000</ele>
        <time>2013-06-14T09:58:51Z</time>
      </trkpt>
      <trkpt lat="38.3317950" lon="15.0229480">
        <ele>2.5400000</ele>
        <time>2013-06-14T09:59:10Z</time>
      </trkpt>
      <trkpt lat="38.3312450" lon="15.0231060">
        <ele>2.0600000</ele>
        <time>2013-06-14T09:59:32Z</time>
      </trkpt>
      <trkpt lat="38.3308110" lon="15.0232300">
        <ele>2.5400000</ele>
        <time>2013-06-14T09:59:51Z</time>
      </trkpt>
      <trkpt lat="38.3303340" lon="15.0233760">
        <ele>2.0600000</ele>
        <time>2013-06-14T10:00:13Z</time>
      </trkpt>
      <trkpt lat="38.3299220" lon="15.0235200">
        <ele>2.5400000</ele>
        <time>2013-06-14T10:00:32Z</time>
      </trkpt>
      <trkpt lat="38.3295060" lon="15.0236760">
        <ele>2.0600000</ele>
        <time>2013-06-14T10:00:52Z</time>
      </trkpt>
      <trkpt lat="38.3291280" lon="15.0238180">
        <ele>2.5400000</ele>
        <time>2013-06-14T10:01:11Z</time>
      </trkpt>
      <trkpt lat="38.3287510" lon="15.0238930">
        <ele>2.5400000</ele>
        <time>2013-06-14T10:01:29Z</time>
      </trkpt>
      <trkpt lat="38.3283620" lon="15.0239210">
        <ele>2.5400000</ele>
        <time>2013-06-14T10:01:47Z</time>
      </trkpt>
      <trkpt lat="38.3279150" lon="15.0239940">
        <ele>2.5400000</ele>
        <time>2013-06-14T10:02:08Z</time>
      </trkpt>
      <trkpt lat="38.3275180" lon="15.0240910">
        <ele>2.5400000</ele>
        <time>2013-06-14T10:02:26Z</time>
      </trkpt>
      <trkpt lat="38.3270380" lon="15.0242320">
        <ele>2.5400000</ele>
        <time>2013-06-14T10:02:49Z</time>
      </trkpt>
      <trkpt lat="38.3266600" lon="15.0243510">
        <ele>2.5400000</ele>
        <time>2013-06-14T10:03:08Z</time>
      </trkpt>
      <trkpt lat="38.3262980" lon="15.0244630">
        <ele>3.0200000</ele>
        <time>2013-06-14T10:03:26Z</time>
      </trkpt>
      <trkpt lat="38.3258510" lon="15.0245730">
        <ele>3.0200000</ele>
        <time>2013-06-14T10:03:48Z</time>
      </trkpt>
      <trkpt lat="38.3254660" lon="15.0246430">
        <ele>3.0200000</ele>
        <time>2013-06-14T10:04:07Z</time>
      </trkpt>
      <trkpt lat="38.3251040" lon="15.0246970">
        <ele>2.5400000</ele>
        <time>2013-06-14T10:04:24Z</time>
      </trkpt>
      <trkpt lat="38.3246570" lon="15.0247910">
        <ele>3.0200000</ele>
        <time>2013-06-14T10:04:45Z</time>
      </trkpt>
      <trkpt lat="38.3243180" lon="15.0248790">
        <ele>3.0200000</ele>
        <time>2013-06-14T10:05:01Z</time>
      </trkpt>
      <trkpt lat="38.3239670" lon="15.0249400">
        <ele>3.0200000</ele>
        <time>2013-06-14T10:05:18Z</time>
      </trkpt>
      <trkpt lat="38.3235780" lon="15.0250400">
        <ele>3.0200000</ele>
        <time>2013-06-14T10:05:37Z</time>
      </trkpt>
      <trkpt lat="38.3231700" lon="15.0251260">
        <ele>3.0200000</ele>
        <time>2013-06-14T10:05:56Z</time>
      </trkpt>
      <trkpt lat="38.3227920" lon="15.0251670">
        <ele>3.5000000</ele>
        <time>2013-06-14T10:06:13Z</time>
      </trkpt>
      <trkpt lat="38.3224070" lon="15.0251880">
        <ele>3.5000000</ele>
        <time>2013-06-14T10:06:30Z</time>
      </trkpt>
      <trkpt lat="38.3219640" lon="15.0252670">
        <ele>3.5000000</ele>
        <time>2013-06-14T10:06:51Z</time>
      </trkpt>
      <trkpt lat="38.3215750" lon="15.0253580">
        <ele>3.0200000</ele>
        <time>2013-06-14T10:07:10Z</time>
      </trkpt>
      <trkpt lat="38.3211860" lon="15.0255170">
        <ele>3.5000000</ele>
        <time>2013-06-14T10:07:30Z</time>
      </trkpt>
      <trkpt lat="38.3207780" lon="15.0256650">
        <ele>3.9800000</ele>
        <time>2013-06-14T10:07:51Z</time>
      </trkpt>
      <trkpt lat="38.3202900" lon="15.0257200">
        <ele>3.9800000</ele>
        <time>2013-06-14T10:08:14Z</time>
      </trkpt>
      <trkpt lat="38.3198780" lon="15.0257190">
        <ele>3.9800000</ele>
        <time>2013-06-14T10:08:33Z</time>
      </trkpt>
      <trkpt lat="38.3194350" lon="15.0257880">
        <ele>3.5000000</ele>
        <time>2013-06-14T10:08:53Z</time>
      </trkpt>
      <trkpt lat="38.3189200" lon="15.0259050">
        <ele>3.9800000</ele>
        <time>2013-06-14T10:09:17Z</time>
      </trkpt>
      <trkpt lat="38.3184850" lon="15.0259930">
        <ele>3.9800000</ele>
        <time>2013-06-14T10:09:38Z</time>
      </trkpt>
      <trkpt lat="38.3180850" lon="15.0260850">
        <ele>3.5000000</ele>
        <time>2013-06-14T10:09:57Z</time>
      </trkpt>
      <trkpt lat="38.3177570" lon="15.0261510">
        <ele>3.9800000</ele>
        <time>2013-06-14T10:10:13Z</time>
      </trkpt>
      <trkpt lat="38.3173070" lon="15.0262380">
        <ele>3.9800000</ele>
        <time>2013-06-14T10:10:35Z</time>
      </trkpt>
      <trkpt lat="38.3169520" lon="15.0263070">
        <ele>3.9800000</ele>
        <time>2013-06-14T10:10:53Z</time>
      </trkpt>
      <trkpt lat="38.3165740" lon="15.0263540">
        <ele>4.4600000</ele>
        <time>2013-06-14T10:11:11Z</time>
      </trkpt>
      <trkpt lat="38.3161960" lon="15.0264020">
        <ele>3.9800000</ele>
        <time>2013-06-14T10:11:28Z</time>
      </trkpt>
      <trkpt lat="38.3157730" lon="15.0264840">
        <ele>4.4600000</ele>
        <time>2013-06-14T10:11:48Z</time>
      </trkpt>
      <trkpt lat="38.3153150" lon="15.0265620">
        <ele>4.4600000</ele>
        <time>2013-06-14T10:12:09Z</time>
      </trkpt>
      <trkpt lat="38.3148960" lon="15.0266360">
        <ele>4.4600000</ele>
        <time>2013-06-14T10:12:28Z</time>
      </trkpt>
      <trkpt lat="38.3144490" lon="15.0267280">
        <ele>4.9400000</ele>
        <time>2013-06-14T10:12:49Z</time>
      </trkpt>
      <trkpt lat="38.3140600" lon="15.0268140">
        <ele>4.9400000</ele>
        <time>2013-06-14T10:13:07Z</time>
      </trkpt>
      <trkpt lat="38.3137020" lon="15.0268820">
        <ele>4.9400000</ele>
        <time>2013-06-14T10:13:24Z</time>
      </trkpt>
      <trkpt lat="38.3132510" lon="15.0269530">
        <ele>4.9400000</ele>
        <time>2013-06-14T10:13:45Z</time>
      </trkpt>
      <trkpt lat="38.3128090" lon="15.0270170">
        <ele>4.9400000</ele>
        <time>2013-06-14T10:14:05Z</time>
      </trkpt>
      <trkpt lat="38.3123510" lon="15.0270190">
        <ele>5.4200000</ele>
        <time>2013-06-14T10:14:25Z</time>
      </trkpt>
      <trkpt lat="38.3118710" lon="15.0271030">
        <ele>4.9400000</ele>
        <time>2013-06-14T10:14:47Z</time>
      </trkpt>
      <trkpt lat="38.3114430" lon="15.0271790">
        <ele>4.9400000</ele>
        <time>2013-06-14T10:15:08Z</time>
      </trkpt>
      <trkpt lat="38.3110390" lon="15.0272540">
        <ele>4.9400000</ele>
        <time>2013-06-14T10:15:26Z</time>
      </trkpt>
      <trkpt lat="38.3105550" lon="15.0273550">
        <ele>5.4200000</ele>
        <time>2013-06-14T10:15:48Z</time>
      </trkpt>
      <trkpt lat="38.3101540" lon="15.0274120">
        <ele>5.4200000</ele>
        <time>2013-06-14T10:16:06Z</time>
      </trkpt>
      <trkpt lat="38.3097650" lon="15.0274370">
        <ele>5.9100000</ele>
        <time>2013-06-14T10:16:24Z</time>
      </trkpt>
      <trkpt lat="38.3093610" lon="15.0274580">
        <ele>5.9100000</ele>
        <time>2013-06-14T10:16:42Z</time>
      </trkpt>
      <trkpt lat="38.3089490" lon="15.0275290">
        <ele>5.4200000</ele>
        <time>2013-06-14T10:17:02Z</time>
      </trkpt>
      <trkpt lat="38.3086170" lon="15.0275940">
        <ele>5.4200000</ele>
        <time>2013-06-14T10:17:18Z</time>
      </trkpt>
      <trkpt lat="38.3081700" lon="15.0276900">
        <ele>5.4200000</ele>
        <time>2013-06-14T10:17:39Z</time>
      </trkpt>
      <trkpt lat="38.3076710" lon="15.0277890">
        <ele>4.9400000</ele>
        <time>2013-06-14T10:18:01Z</time>
      </trkpt>
      <trkpt lat="38.3072590" lon="15.0278520">
        <ele>5.4200000</ele>
        <time>2013-06-14T10:18:19Z</time>
      </trkpt>
      <trkpt lat="38.3068890" lon="15.0279340">
        <ele>5.4200000</ele>
        <time>2013-06-14T10:18:37Z</time>
      </trkpt>
      <trkpt lat="38.3064920" lon="15.0279670">
        <ele>5.9100000</ele>
        <time>2013-06-14T10:18:55Z</time>
      </trkpt>
      <trkpt lat="38.3060420" lon="15.0279190">
        <ele>5.4200000</ele>
        <time>2013-06-14T10:19:14Z</time>
      </trkpt>
      <trkpt lat="38.3056600" lon="15.0278620">
        <ele>5.9100000</ele>
        <time>2013-06-14T10:19:30Z</time>
      </trkpt>
      <trkpt lat="38.3052330" lon="15.0278830">
        <ele>5.9100000</ele>
        <time>2013-06-14T10:19:48Z</time>
      </trkpt>
      <trkpt lat="38.3048320" lon="15.0279370">
        <ele>5.4200000</ele>
        <time>2013-06-14T10:20:05Z</time>
      </trkpt>
      <trkpt lat="38.3044320" lon="15.0279640">
        <ele>5.4200000</ele>
        <time>2013-06-14T10:20:22Z</time>
      </trkpt>
      <trkpt lat="38.3039630" lon="15.0279270">
        <ele>5.9100000</ele>
        <time>2013-06-14T10:20:41Z</time>
      </trkpt>
      <trkpt lat="38.3034860" lon="15.0278800">
        <ele>5.4200000</ele>
        <time>2013-06-14T10:21:00Z</time>
      </trkpt>
      <trkpt lat="38.3030470" lon="15.0279390">
        <ele>5.4200000</ele>
        <time>2013-06-14T10:21:18Z</time>
      </trkpt>
      <trkpt lat="38.3026890" lon="15.0280670">
        <ele>5.4200000</ele>
        <time>2013-06-14T10:21:34Z</time>
      </trkpt>
      <trkpt lat="38.3022350" lon="15.0281730">
        <ele>5.9100000</ele>
        <time>2013-06-14T10:21:56Z</time>
      </trkpt>
      <trkpt lat="38.3017810" lon="15.0281520">
        <ele>5.4200000</ele>
        <time>2013-06-14T10:22:16Z</time>
      </trkpt>
      <trkpt lat="38.3013040" lon="15.0282090">
        <ele>5.9100000</ele>
        <time>2013-06-14T10:22:37Z</time>
      </trkpt>
      <trkpt lat="38.3009000" lon="15.0282040">
        <ele>5.9100000</ele>
        <time>2013-06-14T10:22:54Z</time>
      </trkpt>
      <trkpt lat="38.3004990" lon="15.0282840">
        <ele>5.9100000</ele>
        <time>2013-06-14T10:23:12Z</time>
      </trkpt>
      <trkpt lat="38.3001330" lon="15.0282980">
        <ele>5.9100000</ele>
        <time>2013-06-14T10:23:27Z</time>
      </trkpt>
      <trkpt lat="38.2997210" lon="15.0283910">
        <ele>5.9100000</ele>
        <time>2013-06-14T10:23:45Z</time>
      </trkpt>
      <trkpt lat="38.2992520" lon="15.0284180">
        <ele>5.9100000</ele>
        <time>2013-06-14T10:24:04Z</time>
      </trkpt>
      <trkpt lat="38.2988360" lon="15.0284890">
        <ele>5.9100000</ele>
        <time>2013-06-14T10:24:23Z</time>
      </trkpt>
      <trkpt lat="38.2984470" lon="15.0285910">
        <ele>5.9100000</ele>
        <time>2013-06-14T10:24:40Z</time>
      </trkpt>
      <trkpt lat="38.2980500" lon="15.0287080">
        <ele>5.9100000</ele>
        <time>2013-06-14T10:24:58Z</time>
      </trkpt>
      <trkpt lat="38.2976380" lon="15.0287930">
        <ele>5.9100000</ele>
        <time>2013-06-14T10:25:17Z</time>
      </trkpt>
      <trkpt lat="38.2972030" lon="15.0288330">
        <ele>5.9100000</ele>
        <time>2013-06-14T10:25:35Z</time>
      </trkpt>
      <trkpt lat="38.2967260" lon="15.0287990">
        <ele>5.9100000</ele>
        <time>2013-06-14T10:25:54Z</time>
      </trkpt>
      <trkpt lat="38.2962840" lon="15.0288750">
        <ele>5.4200000</ele>
        <time>2013-06-14T10:26:12Z</time>
      </trkpt>
      <trkpt lat="38.2957840" lon="15.0290060">
        <ele>5.9100000</ele>
        <time>2013-06-14T10:26:33Z</time>
      </trkpt>
      <trkpt lat="38.2953830" lon="15.0290790">
        <ele>5.9100000</ele>
        <time>2013-06-14T10:26:49Z</time>
      </trkpt>
      <trkpt lat="38.2948380" lon="15.0292150">
        <ele>5.4200000</ele>
        <time>2013-06-14T10:27:11Z</time>
      </trkpt>
      <trkpt lat="38.2944110" lon="15.0293020">
        <ele>5.9100000</ele>
        <time>2013-06-14T10:27:30Z</time>
      </trkpt>
      <trkpt lat="38.2940140" lon="15.0293930">
        <ele>5.9100000</ele>
        <time>2013-06-14T10:27:48Z</time>
      </trkpt>
      <trkpt lat="38.2935830" lon="15.0294930">
        <ele>6.3900000</ele>
        <time>2013-06-14T10:28:07Z</time>
      </trkpt>
      <trkpt lat="38.2931790" lon="15.0295930">
        <ele>5.9100000</ele>
        <time>2013-06-14T10:28:24Z</time>
      </trkpt>
      <trkpt lat="38.2927400" lon="15.0296750">
        <ele>5.9100000</ele>
        <time>2013-06-14T10:28:43Z</time>
      </trkpt>
      <trkpt lat="38.2923390" lon="15.0297850">
        <ele>5.9100000</ele>
        <time>2013-06-14T10:29:02Z</time>
      </trkpt>
      <trkpt lat="38.2918820" lon="15.0298830">
        <ele>5.9100000</ele>
        <time>2013-06-14T10:29:22Z</time>
      </trkpt>
      <trkpt lat="38.2914810" lon="15.0299550">
        <ele>6.3900000</ele>
        <time>2013-06-14T10:29:39Z</time>
      </trkpt>
      <trkpt lat="38.2910800" lon="15.0300590">
        <ele>5.9100000</ele>
        <time>2013-06-14T10:29:57Z</time>
      </trkpt>
      <trkpt lat="38.2906840" lon="15.0301650">
        <ele>6.3900000</ele>
        <time>2013-06-14T10:30:15Z</time>
      </trkpt>
      <trkpt lat="38.2902180" lon="15.0302530">
        <ele>5.9100000</ele>
        <time>2013-06-14T10:30:35Z</time>
      </trkpt>
      <trkpt lat="38.2898060" lon="15.0303480">
        <ele>5.9100000</ele>
        <time>2013-06-14T10:30:53Z</time>
      </trkpt>
      <trkpt lat="38.2893870" lon="15.0304290">
        <ele>6.3900000</ele>
        <time>2013-06-14T10:31:11Z</time>
      </trkpt>
      <trkpt lat="38.2889940" lon="15.0305340">
        <ele>5.9100000</ele>
        <time>2013-06-14T10:31:29Z</time>
      </trkpt>
      <trkpt lat="38.2886010" lon="15.0306070">
        <ele>6.3900000</ele>
        <time>2013-06-14T10:31:47Z</time>
      </trkpt>
      <trkpt lat="38.2882390" lon="15.0306690">
        <ele>6.3900000</ele>
        <time>2013-06-14T10:32:03Z</time>
      </trkpt>
      <trkpt lat="38.2877580" lon="15.0307600">
        <ele>5.9100000</ele>
        <time>2013-06-14T10:32:24Z</time>
      </trkpt>
      <trkpt lat="38.2873880" lon="15.0308080">
        <ele>5.9100000</ele>
        <time>2013-06-14T10:32:40Z</time>
      </trkpt>
      <trkpt lat="38.2870060" lon="15.0308820">
        <ele>5.9100000</ele>
        <time>2013-06-14T10:32:58Z</time>
      </trkpt>
      <trkpt lat="38.2866780" lon="15.0309560">
        <ele>5.9100000</ele>
        <time>2013-06-14T10:33:13Z</time>
      </trkpt>
      <trkpt lat="38.2863270" lon="15.0310400">
        <ele>5.9100000</ele>
        <time>2013-06-14T10:33:30Z</time>
      </trkpt>
      <trkpt lat="38.2858920" lon="15.0311190">
        <ele>5.4200000</ele>
        <time>2013-06-14T10:33:49Z</time>
      </trkpt>
      <trkpt lat="38.2854690" lon="15.0312110">
        <ele>6.3900000</ele>
        <time>2013-06-14T10:34:08Z</time>
      </trkpt>
      <trkpt lat="38.2850880" lon="15.0312780">
        <ele>5.9100000</ele>
        <time>2013-06-14T10:34:25Z</time>
      </trkpt>
      <trkpt lat="38.2845920" lon="15.0314030">
        <ele>5.9100000</ele>
        <time>2013-06-14T10:34:47Z</time>
      </trkpt>
      <trkpt lat="38.2841680" lon="15.0314900">
        <ele>5.4200000</ele>
        <time>2013-06-14T10:35:06Z</time>
      </trkpt>
      <trkpt lat="38.2837640" lon="15.0315990">
        <ele>5.4200000</ele>
        <time>2013-06-14T10:35:25Z</time>
      </trkpt>
      <trkpt lat="38.2833900" lon="15.0316880">
        <ele>5.9100000</ele>
        <time>2013-06-14T10:35:42Z</time>
      </trkpt>
      <trkpt lat="38.2829970" lon="15.0317990">
        <ele>5.9100000</ele>
        <time>2013-06-14T10:36:02Z</time>
      </trkpt>
      <trkpt lat="38.2825550" lon="15.0318580">
        <ele>5.9100000</ele>
        <time>2013-06-14T10:36:21Z</time>
      </trkpt>
      <trkpt lat="38.2821080" lon="15.0319190">
        <ele>5.4200000</ele>
        <time>2013-06-14T10:36:41Z</time>
      </trkpt>
      <trkpt lat="38.2817540" lon="15.0319970">
        <ele>5.4200000</ele>
        <time>2013-06-14T10:36:57Z</time>
      </trkpt>
      <trkpt lat="38.2813570" lon="15.0321200">
        <ele>5.9100000</ele>
        <time>2013-06-14T10:37:18Z</time>
      </trkpt>
      <trkpt lat="38.2808990" lon="15.0321800">
        <ele>5.9100000</ele>
        <time>2013-06-14T10:37:38Z</time>
      </trkpt>
      <trkpt lat="38.2804990" lon="15.0322160">
        <ele>5.9100000</ele>
        <time>2013-06-14T10:37:56Z</time>
      </trkpt>
      <trkpt lat="38.2800830" lon="15.0323000">
        <ele>5.4200000</ele>
        <time>2013-06-14T10:38:16Z</time>
      </trkpt>
      <trkpt lat="38.2796670" lon="15.0324030">
        <ele>5.4200000</ele>
        <time>2013-06-14T10:38:37Z</time>
      </trkpt>
      <trkpt lat="38.2792630" lon="15.0324750">
        <ele>5.4200000</ele>
        <time>2013-06-14T10:38:56Z</time>
      </trkpt>
      <trkpt lat="38.2788660" lon="15.0325720">
        <ele>5.9100000</ele>
        <time>2013-06-14T10:39:16Z</time>
      </trkpt>
      <trkpt lat="38.2784540" lon="15.0326000">
        <ele>5.9100000</ele>
        <time>2013-06-14T10:39:34Z</time>
      </trkpt>
      <trkpt lat="38.2780840" lon="15.0326360">
        <ele>5.9100000</ele>
        <time>2013-06-14T10:39:51Z</time>
      </trkpt>
      <trkpt lat="38.2776300" lon="15.0327140">
        <ele>5.9100000</ele>
        <time>2013-06-14T10:40:13Z</time>
      </trkpt>
      <trkpt lat="38.2772370" lon="15.0328130">
        <ele>5.9100000</ele>
        <time>2013-06-14T10:40:33Z</time>
      </trkpt>
      <trkpt lat="38.2768860" lon="15.0328860">
        <ele>5.4200000</ele>
        <time>2013-06-14T10:40:50Z</time>
      </trkpt>
      <trkpt lat="38.2765080" lon="15.0329280">
        <ele>5.4200000</ele>
        <time>2013-06-14T10:41:09Z</time>
      </trkpt>
      <trkpt lat="38.2761270" lon="15.0330170">
        <ele>5.9100000</ele>
        <time>2013-06-14T10:41:29Z</time>
      </trkpt>
      <trkpt lat="38.2757070" lon="15.0331060">
        <ele>5.9100000</ele>
        <time>2013-06-14T10:41:50Z</time>
      </trkpt>
      <trkpt lat="38.2753370" lon="15.0331780">
        <ele>5.9100000</ele>
        <time>2013-06-14T10:42:10Z</time>
      </trkpt>
      <trkpt lat="38.2749480" lon="15.0332710">
        <ele>5.9100000</ele>
        <time>2013-06-14T10:42:31Z</time>
      </trkpt>
      <trkpt lat="38.2745780" lon="15.0333550">
        <ele>5.9100000</ele>
        <time>2013-06-14T10:42:50Z</time>
      </trkpt>
      <trkpt lat="38.2742270" lon="15.0334270">
        <ele>6.3900000</ele>
        <time>2013-06-14T10:43:07Z</time>
      </trkpt>
      <trkpt lat="38.2738380" lon="15.0334960">
        <ele>5.9100000</ele>
        <time>2013-06-14T10:43:26Z</time>
      </trkpt>
      <trkpt lat="38.2733990" lon="15.0335920">
        <ele>6.3900000</ele>
        <time>2013-06-14T10:43:47Z</time>
      </trkpt>
      <trkpt lat="38.2730060" lon="15.0336980">
        <ele>5.9100000</ele>
        <time>2013-06-14T10:44:07Z</time>
      </trkpt>
      <trkpt lat="38.2726060" lon="15.0337750">
        <ele>6.3900000</ele>
        <time>2013-06-14T10:44:28Z</time>
      </trkpt>
      <trkpt lat="38.2722020" lon="15.0338210">
        <ele>6.8700000</ele>
        <time>2013-06-14T10:44:48Z</time>
      </trkpt>
      <trkpt lat="38.2718580" lon="15.0338960">
        <ele>5.9100000</ele>
        <time>2013-06-14T10:45:06Z</time>
      </trkpt>
      <trkpt lat="38.2715260" lon="15.0339690">
        <ele>6.8700000</ele>
        <time>2013-06-14T10:45:23Z</time>
      </trkpt>
      <trkpt lat="38.2711330" lon="15.0340590">
        <ele>6.8700000</ele>
        <time>2013-06-14T10:45:43Z</time>
      </trkpt>
      <trkpt lat="38.2707630" lon="15.0341230">
        <ele>6.8700000</ele>
        <time>2013-06-14T10:46:01Z</time>
      </trkpt>
      <trkpt lat="38.2703740" lon="15.0342030">
        <ele>6.3900000</ele>
        <time>2013-06-14T10:46:20Z</time>
      </trkpt>
      <trkpt lat="38.2700500" lon="15.0342690">
        <ele>6.3900000</ele>
        <time>2013-06-14T10:46:36Z</time>
      </trkpt>
      <trkpt lat="38.2696040" lon="15.0343730">
        <ele>6.8700000</ele>
        <time>2013-06-14T10:46:58Z</time>
      </trkpt>
      <trkpt lat="38.2692490" lon="15.0344510">
        <ele>7.3500000</ele>
        <time>2013-06-14T10:47:16Z</time>
      </trkpt>
      <trkpt lat="38.2689020" lon="15.0344900">
        <ele>6.8700000</ele>
        <time>2013-06-14T10:47:33Z</time>
      </trkpt>
      <trkpt lat="38.2685090" lon="15.0345410">
        <ele>6.8700000</ele>
        <time>2013-06-14T10:47:52Z</time>
      </trkpt>
      <trkpt lat="38.2681010" lon="15.0346690">
        <ele>6.8700000</ele>
        <time>2013-06-14T10:48:14Z</time>
      </trkpt>
      <trkpt lat="38.2677190" lon="15.0347370">
        <ele>6.8700000</ele>
        <time>2013-06-14T10:48:34Z</time>
      </trkpt>
      <trkpt lat="38.2673530" lon="15.0348130">
        <ele>6.8700000</ele>
        <time>2013-06-14T10:48:53Z</time>
      </trkpt>
      <trkpt lat="38.2669980" lon="15.0349030">
        <ele>7.8300000</ele>
        <time>2013-06-14T10:49:11Z</time>
      </trkpt>
      <trkpt lat="38.2666820" lon="15.0349840">
        <ele>7.8300000</ele>
        <time>2013-06-14T10:49:28Z</time>
      </trkpt>
      <trkpt lat="38.2663570" lon="15.0350640">
        <ele>7.3500000</ele>
        <time>2013-06-14T10:49:45Z</time>
      </trkpt>
      <trkpt lat="38.2659990" lon="15.0351550">
        <ele>7.8300000</ele>
        <time>2013-06-14T10:50:05Z</time>
      </trkpt>
      <trkpt lat="38.2657050" lon="15.0352290">
        <ele>7.8300000</ele>
        <time>2013-06-14T10:50:23Z</time>
      </trkpt>
      <trkpt lat="38.2654300" lon="15.0353020">
        <ele>7.8300000</ele>
        <time>2013-06-14T10:50:39Z</time>
      </trkpt>
      <trkpt lat="38.2650830" lon="15.0353820">
        <ele>8.3100000</ele>
        <time>2013-06-14T10:50:59Z</time>
      </trkpt>
      <trkpt lat="38.2647550" lon="15.0354600">
        <ele>8.3100000</ele>
        <time>2013-06-14T10:51:18Z</time>
      </trkpt>
      <trkpt lat="38.2644390" lon="15.0355360">
        <ele>8.3100000</ele>
        <time>2013-06-14T10:51:35Z</time>
      </trkpt>
      <trkpt lat="38.2641180" lon="15.0356180">
        <ele>8.3100000</ele>
        <time>2013-06-14T10:51:53Z</time>
      </trkpt>
      <trkpt lat="38.2637750" lon="15.0356740">
        <ele>8.3100000</ele>
        <time>2013-06-14T10:52:11Z</time>
      </trkpt>
      <trkpt lat="38.2634430" lon="15.0357520">
        <ele>8.7900000</ele>
        <time>2013-06-14T10:52:29Z</time>
      </trkpt>
      <trkpt lat="38.2631570" lon="15.0358270">
        <ele>9.2700000</ele>
        <time>2013-06-14T10:52:46Z</time>
      </trkpt>
      <trkpt lat="38.2628100" lon="15.0359080">
        <ele>9.2700000</ele>
        <time>2013-06-14T10:53:06Z</time>
      </trkpt>
      <trkpt lat="38.2624820" lon="15.0359680">
        <ele>8.7900000</ele>
        <time>2013-06-14T10:53:23Z</time>
      </trkpt>
      <trkpt lat="38.2621380" lon="15.0360490">
        <ele>9.2700000</ele>
        <time>2013-06-14T10:53:41Z</time>
      </trkpt>
      <trkpt lat="38.2617950" lon="15.0361370">
        <ele>9.2700000</ele>
        <time>2013-06-14T10:54:00Z</time>
      </trkpt>
      <trkpt lat="38.2614900" lon="15.0362140">
        <ele>9.2700000</ele>
        <time>2013-06-14T10:54:17Z</time>
      </trkpt>
      <trkpt lat="38.2611500" lon="15.0362960">
        <ele>9.7500000</ele>
        <time>2013-06-14T10:54:35Z</time>
      </trkpt>
      <trkpt lat="38.2608180" lon="15.0363830">
        <ele>9.7500000</ele>
        <time>2013-06-14T10:54:53Z</time>
      </trkpt>
      <trkpt lat="38.2604680" lon="15.0364650">
        <ele>9.7500000</ele>
        <time>2013-06-14T10:55:12Z</time>
      </trkpt>
      <trkpt lat="38.2601090" lon="15.0365550">
        <ele>9.2700000</ele>
        <time>2013-06-14T10:55:32Z</time>
      </trkpt>
      <trkpt lat="38.2597660" lon="15.0366570">
        <ele>10.2300000</ele>
        <time>2013-06-14T10:55:52Z</time>
      </trkpt>
      <trkpt lat="38.2594760" lon="15.0367470">
        <ele>10.2300000</ele>
        <time>2013-06-14T10:56:09Z</time>
      </trkpt>
      <trkpt lat="38.2591400" lon="15.0368380">
        <ele>10.2300000</ele>
        <time>2013-06-14T10:56:29Z</time>
      </trkpt>
      <trkpt lat="38.2588080" lon="15.0369190">
        <ele>10.7100000</ele>
        <time>2013-06-14T10:56:48Z</time>
      </trkpt>
      <trkpt lat="38.2584650" lon="15.0370070">
        <ele>10.2300000</ele>
        <time>2013-06-14T10:57:07Z</time>
      </trkpt>
      <trkpt lat="38.2581210" lon="15.0370860">
        <ele>10.7100000</ele>
        <time>2013-06-14T10:57:26Z</time>
      </trkpt>
      <trkpt lat="38.2577480" lon="15.0371860">
        <ele>10.7100000</ele>
        <time>2013-06-14T10:57:45Z</time>
      </trkpt>
      <trkpt lat="38.2573810" lon="15.0373010">
        <ele>10.7100000</ele>
        <time>2013-06-14T10:58:05Z</time>
      </trkpt>
      <trkpt lat="38.2570110" lon="15.0373930">
        <ele>10.7100000</ele>
        <time>2013-06-14T10:58:24Z</time>
      </trkpt>
      <trkpt lat="38.2566150" lon="15.0375160">
        <ele>11.1900000</ele>
        <time>2013-06-14T10:58:45Z</time>
      </trkpt>
      <trkpt lat="38.2562480" lon="15.0376180">
        <ele>11.1900000</ele>
        <time>2013-06-14T10:59:05Z</time>
      </trkpt>
      <trkpt lat="38.2558780" lon="15.0377150">
        <ele>11.1900000</ele>
        <time>2013-06-14T10:59:25Z</time>
      </trkpt>
      <trkpt lat="38.2556080" lon="15.0377950">
        <ele>10.7100000</ele>
        <time>2013-06-14T10:59:40Z</time>
      </trkpt>
      <trkpt lat="38.2553020" lon="15.0378640">
        <ele>10.7100000</ele>
        <time>2013-06-14T10:59:56Z</time>
      </trkpt>
      <trkpt lat="38.2548870" lon="15.0380020">
        <ele>10.7100000</ele>
        <time>2013-06-14T11:00:18Z</time>
      </trkpt>
      <trkpt lat="38.2545090" lon="15.0381040">
        <ele>11.1900000</ele>
        <time>2013-06-14T11:00:39Z</time>
      </trkpt>
      <trkpt lat="38.2542110" lon="15.0381860">
        <ele>11.1900000</ele>
        <time>2013-06-14T11:00:56Z</time>
      </trkpt>
      <trkpt lat="38.2539100" lon="15.0382900">
        <ele>11.1900000</ele>
        <time>2013-06-14T11:01:13Z</time>
      </trkpt>
      <trkpt lat="38.2536130" lon="15.0383840">
        <ele>11.1900000</ele>
        <time>2013-06-14T11:01:31Z</time>
      </trkpt>
      <trkpt lat="38.2532920" lon="15.0384850">
        <ele>11.1900000</ele>
        <time>2013-06-14T11:01:52Z</time>
      </trkpt>
      <trkpt lat="38.2529640" lon="15.0385950">
        <ele>11.6700000</ele>
        <time>2013-06-14T11:02:12Z</time>
      </trkpt>
      <trkpt lat="38.2526020" lon="15.0386930">
        <ele>11.1900000</ele>
        <time>2013-06-14T11:02:33Z</time>
      </trkpt>
      <trkpt lat="38.2522050" lon="15.0388080">
        <ele>11.6700000</ele>
        <time>2013-06-14T11:02:56Z</time>
      </trkpt>
      <trkpt lat="38.2519230" lon="15.0388700">
        <ele>11.6700000</ele>
        <time>2013-06-14T11:03:13Z</time>
      </trkpt>
      <trkpt lat="38.2516140" lon="15.0389560">
        <ele>11.6700000</ele>
        <time>2013-06-14T11:03:31Z</time>
      </trkpt>
      <trkpt lat="38.2512700" lon="15.0390340">
        <ele>12.1500000</ele>
        <time>2013-06-14T11:03:51Z</time>
      </trkpt>
      <trkpt lat="38.2509610" lon="15.0391090">
        <ele>12.1500000</ele>
        <time>2013-06-14T11:04:09Z</time>
      </trkpt>
      <trkpt lat="38.2506450" lon="15.0391870">
        <ele>11.6700000</ele>
        <time>2013-06-14T11:04:26Z</time>
      </trkpt>
      <trkpt lat="38.2503170" lon="15.0392720">
        <ele>12.1500000</ele>
        <time>2013-06-14T11:04:44Z</time>
      </trkpt>
      <trkpt lat="38.2499690" lon="15.0393870">
        <ele>12.1500000</ele>
        <time>2013-06-14T11:05:03Z</time>
      </trkpt>
      <trkpt lat="38.2495990" lon="15.0395000">
        <ele>12.1500000</ele>
        <time>2013-06-14T11:05:24Z</time>
      </trkpt>
      <trkpt lat="38.2492330" lon="15.0396130">
        <ele>12.6300000</ele>
        <time>2013-06-14T11:05:45Z</time>
      </trkpt>
      <trkpt lat="38.2488980" lon="15.0397430">
        <ele>12.6300000</ele>
        <time>2013-06-14T11:06:05Z</time>
      </trkpt>
      <trkpt lat="38.2485770" lon="15.0398350">
        <ele>12.6300000</ele>
        <time>2013-06-14T11:06:24Z</time>
      </trkpt>
      <trkpt lat="38.2482260" lon="15.0399330">
        <ele>12.1500000</ele>
        <time>2013-06-14T11:06:43Z</time>
      </trkpt>
      <trkpt lat="38.2478870" lon="15.0400530">
        <ele>12.6300000</ele>
        <time>2013-06-14T11:07:02Z</time>
      </trkpt>
      <trkpt lat="38.2475320" lon="15.0401460">
        <ele>12.6300000</ele>
        <time>2013-06-14T11:07:21Z</time>
      </trkpt>
      <trkpt lat="38.2471890" lon="15.0402880">
        <ele>12.6300000</ele>
        <time>2013-06-14T11:07:39Z</time>
      </trkpt>
      <trkpt lat="38.2468530" lon="15.0403970">
        <ele>12.6300000</ele>
        <time>2013-06-14T11:07:58Z</time>
      </trkpt>
      <trkpt lat="38.2465250" lon="15.0405190">
        <ele>13.1200000</ele>
        <time>2013-06-14T11:08:17Z</time>
      </trkpt>
      <trkpt lat="38.2462120" lon="15.0406330">
        <ele>12.6300000</ele>
        <time>2013-06-14T11:08:36Z</time>
      </trkpt>
      <trkpt lat="38.2458340" lon="15.0407710">
        <ele>12.6300000</ele>
        <time>2013-06-14T11:08:57Z</time>
      </trkpt>
      <trkpt lat="38.2455250" lon="15.0408650">
        <ele>12.6300000</ele>
        <time>2013-06-14T11:09:16Z</time>
      </trkpt>
      <trkpt lat="38.2452430" lon="15.0409600">
        <ele>13.1200000</ele>
        <time>2013-06-14T11:09:33Z</time>
      </trkpt>
      <trkpt lat="38.2449150" lon="15.0410770">
        <ele>13.1200000</ele>
        <time>2013-06-14T11:09:53Z</time>
      </trkpt>
      <trkpt lat="38.2446060" lon="15.0411700">
        <ele>12.6300000</ele>
        <time>2013-06-14T11:10:12Z</time>
      </trkpt>
      <trkpt lat="38.2443280" lon="15.0412550">
        <ele>13.1200000</ele>
        <time>2013-06-14T11:10:29Z</time>
      </trkpt>
      <trkpt lat="38.2440190" lon="15.0413620">
        <ele>12.6300000</ele>
        <time>2013-06-14T11:10:46Z</time>
      </trkpt>
      <trkpt lat="38.2436490" lon="15.0414920">
        <ele>13.6000000</ele>
        <time>2013-06-14T11:11:06Z</time>
      </trkpt>
      <trkpt lat="38.2433430" lon="15.0416070">
        <ele>13.1200000</ele>
        <time>2013-06-14T11:11:23Z</time>
      </trkpt>
      <trkpt lat="38.2429810" lon="15.0417530">
        <ele>13.1200000</ele>
        <time>2013-06-14T11:11:44Z</time>
      </trkpt>
      <trkpt lat="38.2426570" lon="15.0418770">
        <ele>13.1200000</ele>
        <time>2013-06-14T11:12:03Z</time>
      </trkpt>
      <trkpt lat="38.2423360" lon="15.0419990">
        <ele>12.6300000</ele>
        <time>2013-06-14T11:12:22Z</time>
      </trkpt>
      <trkpt lat="38.2420960" lon="15.0420700">
        <ele>13.1200000</ele>
        <time>2013-06-14T11:12:36Z</time>
      </trkpt>
      <trkpt lat="38.2417910" lon="15.0421780">
        <ele>13.1200000</ele>
        <time>2013-06-14T11:12:53Z</time>
      </trkpt>
      <trkpt lat="38.2414590" lon="15.0423090">
        <ele>13.1200000</ele>
        <time>2013-06-14T11:13:12Z</time>
      </trkpt>
      <trkpt lat="38.2411990" lon="15.0424750">
        <ele>13.1200000</ele>
        <time>2013-06-14T11:13:30Z</time>
      </trkpt>
      <trkpt lat="38.2409100" lon="15.0425650">
        <ele>13.1200000</ele>
        <time>2013-06-14T11:13:48Z</time>
      </trkpt>
      <trkpt lat="38.2406040" lon="15.0426860">
        <ele>13.6000000</ele>
        <time>2013-06-14T11:14:05Z</time>
      </trkpt>
      <trkpt lat="38.2402690" lon="15.0427860">
        <ele>13.1200000</ele>
        <time>2013-06-14T11:14:23Z</time>
      </trkpt>
      <trkpt lat="38.2399750" lon="15.0429010">
        <ele>13.1200000</ele>
        <time>2013-06-14T11:14:39Z</time>
      </trkpt>
      <trkpt lat="38.2396890" lon="15.0430020">
        <ele>13.1200000</ele>
        <time>2013-06-14T11:14:57Z</time>
      </trkpt>
      <trkpt lat="38.2393340" lon="15.0431160">
        <ele>13.1200000</ele>
        <time>2013-06-14T11:15:18Z</time>
      </trkpt>
      <trkpt lat="38.2389950" lon="15.0432410">
        <ele>13.1200000</ele>
        <time>2013-06-14T11:15:37Z</time>
      </trkpt>
      <trkpt lat="38.2386470" lon="15.0433820">
        <ele>13.1200000</ele>
        <time>2013-06-14T11:15:58Z</time>
      </trkpt>
      <trkpt lat="38.2383800" lon="15.0434770">
        <ele>13.1200000</ele>
        <time>2013-06-14T11:16:14Z</time>
      </trkpt>
      <trkpt lat="38.2380680" lon="15.0436000">
        <ele>13.1200000</ele>
        <time>2013-06-14T11:16:31Z</time>
      </trkpt>
      <trkpt lat="38.2377890" lon="15.0437020">
        <ele>13.1200000</ele>
        <time>2013-06-14T11:16:47Z</time>
      </trkpt>
      <trkpt lat="38.2374150" lon="15.0438450">
        <ele>13.6000000</ele>
        <time>2013-06-14T11:17:08Z</time>
      </trkpt>
      <trkpt lat="38.2370910" lon="15.0439780">
        <ele>12.6300000</ele>
        <time>2013-06-14T11:17:27Z</time>
      </trkpt>
      <trkpt lat="38.2367970" lon="15.0441060">
        <ele>13.1200000</ele>
        <time>2013-06-14T11:17:45Z</time>
      </trkpt>
      <trkpt lat="38.2364960" lon="15.0442250">
        <ele>12.6300000</ele>
        <time>2013-06-14T11:18:03Z</time>
      </trkpt>
      <trkpt lat="38.2361450" lon="15.0443800">
        <ele>12.6300000</ele>
        <time>2013-06-14T11:18:26Z</time>
      </trkpt>
      <trkpt lat="38.2358780" lon="15.0444640">
        <ele>12.6300000</ele>
        <time>2013-06-14T11:18:42Z</time>
      </trkpt>
      <trkpt lat="38.2355190" lon="15.0446170">
        <ele>13.1200000</ele>
        <time>2013-06-14T11:19:02Z</time>
      </trkpt>
      <trkpt lat="38.2351760" lon="15.0447780">
        <ele>13.1200000</ele>
        <time>2013-06-14T11:19:21Z</time>
      </trkpt>
      <trkpt lat="38.2348370" lon="15.0449240">
        <ele>13.1200000</ele>
        <time>2013-06-14T11:19:41Z</time>
      </trkpt>
      <trkpt lat="38.2345390" lon="15.0450540">
        <ele>12.6300000</ele>
        <time>2013-06-14T11:19:59Z</time>
      </trkpt>
      <trkpt lat="38.2342300" lon="15.0451870">
        <ele>12.6300000</ele>
        <time>2013-06-14T11:20:18Z</time>
      </trkpt>
      <trkpt lat="38.2338600" lon="15.0453240">
        <ele>13.1200000</ele>
        <time>2013-06-14T11:20:39Z</time>
      </trkpt>
      <trkpt lat="38.2335850" lon="15.0454210">
        <ele>12.6300000</ele>
        <time>2013-06-14T11:20:55Z</time>
      </trkpt>
      <trkpt lat="38.2331660" lon="15.0455730">
        <ele>13.1200000</ele>
        <time>2013-06-14T11:21:17Z</time>
      </trkpt>
      <trkpt lat="38.2328570" lon="15.0456890">
        <ele>13.1200000</ele>
        <time>2013-06-14T11:21:35Z</time>
      </trkpt>
      <trkpt lat="38.2325630" lon="15.0458000">
        <ele>13.1200000</ele>
        <time>2013-06-14T11:21:52Z</time>
      </trkpt>
      <trkpt lat="38.2322460" lon="15.0459250">
        <ele>13.1200000</ele>
        <time>2013-06-14T11:22:10Z</time>
      </trkpt>
      <trkpt lat="38.2319410" lon="15.0460450">
        <ele>13.1200000</ele>
        <time>2013-06-14T11:22:28Z</time>
      </trkpt>
      <trkpt lat="38.2316210" lon="15.0461610">
        <ele>13.1200000</ele>
        <time>2013-06-14T11:22:46Z</time>
      </trkpt>
      <trkpt lat="38.2312700" lon="15.0463150">
        <ele>13.1200000</ele>
        <time>2013-06-14T11:23:07Z</time>
      </trkpt>
      <trkpt lat="38.2309380" lon="15.0464560">
        <ele>12.6300000</ele>
        <time>2013-06-14T11:23:28Z</time>
      </trkpt>
      <trkpt lat="38.2306330" lon="15.0465740">
        <ele>12.6300000</ele>
        <time>2013-06-14T11:23:46Z</time>
      </trkpt>
      <trkpt lat="38.2302890" lon="15.0467000">
        <ele>13.1200000</ele>
        <time>2013-06-14T11:24:05Z</time>
      </trkpt>
      <trkpt lat="38.2299770" lon="15.0468240">
        <ele>12.6300000</ele>
        <time>2013-06-14T11:24:22Z</time>
      </trkpt>
      <trkpt lat="38.2296300" lon="15.0469730">
        <ele>13.1200000</ele>
        <time>2013-06-14T11:24:41Z</time>
      </trkpt>
      <trkpt lat="38.2292630" lon="15.0471260">
        <ele>12.1500000</ele>
        <time>2013-06-14T11:25:01Z</time>
      </trkpt>
      <trkpt lat="38.2289430" lon="15.0472410">
        <ele>12.6300000</ele>
        <time>2013-06-14T11:25:18Z</time>
      </trkpt>
      <trkpt lat="38.2286150" lon="15.0473800">
        <ele>13.1200000</ele>
        <time>2013-06-14T11:25:35Z</time>
      </trkpt>
      <trkpt lat="38.2282560" lon="15.0475220">
        <ele>13.1200000</ele>
        <time>2013-06-14T11:25:54Z</time>
      </trkpt>
      <trkpt lat="38.2278980" lon="15.0476500">
        <ele>13.1200000</ele>
        <time>2013-06-14T11:26:12Z</time>
      </trkpt>
      <trkpt lat="38.2274670" lon="15.0478280">
        <ele>12.6300000</ele>
        <time>2013-06-14T11:26:34Z</time>
      </trkpt>
      <trkpt lat="38.2270890" lon="15.0479810">
        <ele>13.1200000</ele>
        <time>2013-06-14T11:26:54Z</time>
      </trkpt>
      <trkpt lat="38.2266240" lon="15.0481500">
        <ele>12.6300000</ele>
        <time>2013-06-14T11:27:18Z</time>
      </trkpt>
      <trkpt lat="38.2262540" lon="15.0482530">
        <ele>12.6300000</ele>
        <time>2013-06-14T11:27:37Z</time>
      </trkpt>
      <trkpt lat="38.2259030" lon="15.0483860">
        <ele>12.6300000</ele>
        <time>2013-06-14T11:27:57Z</time>
      </trkpt>
      <trkpt lat="38.2256050" lon="15.0484920">
        <ele>12.6300000</ele>
        <time>2013-06-14T11:28:14Z</time>
      </trkpt>
      <trkpt lat="38.2252460" lon="15.0485950">
        <ele>12.6300000</ele>
        <time>2013-06-14T11:28:33Z</time>
      </trkpt>
      <trkpt lat="38.2249410" lon="15.0486780">
        <ele>12.6300000</ele>
        <time>2013-06-14T11:28:50Z</time>
      </trkpt>
      <trkpt lat="38.2245940" lon="15.0487810">
        <ele>12.6300000</ele>
        <time>2013-06-14T11:29:09Z</time>
      </trkpt>
      <trkpt lat="38.2243000" lon="15.0488550">
        <ele>12.6300000</ele>
        <time>2013-06-14T11:29:24Z</time>
      </trkpt>
      <trkpt lat="38.2239650" lon="15.0489860">
        <ele>12.6300000</ele>
        <time>2013-06-14T11:29:41Z</time>
      </trkpt>
      <trkpt lat="38.2235760" lon="15.0491440">
        <ele>12.6300000</ele>
        <time>2013-06-14T11:30:01Z</time>
      </trkpt>
      <trkpt lat="38.2232090" lon="15.0492950">
        <ele>12.6300000</ele>
        <time>2013-06-14T11:30:22Z</time>
      </trkpt>
      <trkpt lat="38.2228320" lon="15.0494440">
        <ele>12.1500000</ele>
        <time>2013-06-14T11:30:42Z</time>
      </trkpt>
      <trkpt lat="38.2225150" lon="15.0495770">
        <ele>12.6300000</ele>
        <time>2013-06-14T11:31:00Z</time>
      </trkpt>
      <trkpt lat="38.2221260" lon="15.0496990">
        <ele>12.6300000</ele>
        <time>2013-06-14T11:31:20Z</time>
      </trkpt>
      <trkpt lat="38.2217450" lon="15.0498210">
        <ele>12.6300000</ele>
        <time>2013-06-14T11:31:41Z</time>
      </trkpt>
      <trkpt lat="38.2214160" lon="15.0499430">
        <ele>12.1500000</ele>
        <time>2013-06-14T11:31:59Z</time>
      </trkpt>
      <trkpt lat="38.2210810" lon="15.0500420">
        <ele>12.6300000</ele>
        <time>2013-06-14T11:32:16Z</time>
      </trkpt>
      <trkpt lat="38.2207530" lon="15.0501430">
        <ele>12.1500000</ele>
        <time>2013-06-14T11:32:34Z</time>
      </trkpt>
      <trkpt lat="38.2204250" lon="15.0502650">
        <ele>12.6300000</ele>
        <time>2013-06-14T11:32:52Z</time>
      </trkpt>
      <trkpt lat="38.2201420" lon="15.0503800">
        <ele>12.6300000</ele>
        <time>2013-06-14T11:33:08Z</time>
      </trkpt>
      <trkpt lat="38.2197840" lon="15.0504930">
        <ele>12.6300000</ele>
        <time>2013-06-14T11:33:27Z</time>
      </trkpt>
      <trkpt lat="38.2193950" lon="15.0506430">
        <ele>12.6300000</ele>
        <time>2013-06-14T11:33:51Z</time>
      </trkpt>
      <trkpt lat="38.2190130" lon="15.0508040">
        <ele>12.6300000</ele>
        <time>2013-06-14T11:34:12Z</time>
      </trkpt>
      <trkpt lat="38.2186130" lon="15.0509440">
        <ele>12.1500000</ele>
        <time>2013-06-14T11:34:34Z</time>
      </trkpt>
      <trkpt lat="38.2182200" lon="15.0510510">
        <ele>12.1500000</ele>
        <time>2013-06-14T11:34:55Z</time>
      </trkpt>
      <trkpt lat="38.2178920" lon="15.0511220">
        <ele>12.6300000</ele>
        <time>2013-06-14T11:35:12Z</time>
      </trkpt>
      <trkpt lat="38.2174990" lon="15.0512570">
        <ele>12.1500000</ele>
        <time>2013-06-14T11:35:34Z</time>
      </trkpt>
      <trkpt lat="38.2171250" lon="15.0513940">
        <ele>12.1500000</ele>
        <time>2013-06-14T11:35:54Z</time>
      </trkpt>
      <trkpt lat="38.2167850" lon="15.0515320">
        <ele>12.1500000</ele>
        <time>2013-06-14T11:36:13Z</time>
      </trkpt>
      <trkpt lat="38.2164120" lon="15.0516480">
        <ele>12.6300000</ele>
        <time>2013-06-14T11:36:33Z</time>
      </trkpt>
      <trkpt lat="38.2160610" lon="15.0517810">
        <ele>12.1500000</ele>
        <time>2013-06-14T11:36:52Z</time>
      </trkpt>
      <trkpt lat="38.2157330" lon="15.0519670">
        <ele>12.1500000</ele>
        <time>2013-06-14T11:37:12Z</time>
      </trkpt>
      <trkpt lat="38.2154620" lon="15.0520750">
        <ele>12.1500000</ele>
        <time>2013-06-14T11:37:29Z</time>
      </trkpt>
      <trkpt lat="38.2151450" lon="15.0521740">
        <ele>11.6700000</ele>
        <time>2013-06-14T11:37:47Z</time>
      </trkpt>
      <trkpt lat="38.2148670" lon="15.0522520">
        <ele>12.1500000</ele>
        <time>2013-06-14T11:38:03Z</time>
      </trkpt>
      <trkpt lat="38.2145770" lon="15.0523490">
        <ele>12.1500000</ele>
        <time>2013-06-14T11:38:19Z</time>
      </trkpt>
      <trkpt lat="38.2142750" lon="15.0524420">
        <ele>12.1500000</ele>
        <time>2013-06-14T11:38:36Z</time>
      </trkpt>
      <trkpt lat="38.2138980" lon="15.0525540">
        <ele>12.1500000</ele>
        <time>2013-06-14T11:38:58Z</time>
      </trkpt>
      <trkpt lat="38.2135350" lon="15.0526650">
        <ele>11.6700000</ele>
        <time>2013-06-14T11:39:19Z</time>
      </trkpt>
      <trkpt lat="38.2132530" lon="15.0527490">
        <ele>12.1500000</ele>
        <time>2013-06-14T11:39:35Z</time>
      </trkpt>
      <trkpt lat="38.2128450" lon="15.0529040">
        <ele>12.1500000</ele>
        <time>2013-06-14T11:39:57Z</time>
      </trkpt>
      <trkpt lat="38.2124750" lon="15.0530350">
        <ele>12.1500000</ele>
        <time>2013-06-14T11:40:17Z</time>
      </trkpt>
      <trkpt lat="38.2122190" lon="15.0531210">
        <ele>12.1500000</ele>
        <time>2013-06-14T11:40:32Z</time>
      </trkpt>
      <trkpt lat="38.2119140" lon="15.0532070">
        <ele>12.1500000</ele>
        <time>2013-06-14T11:40:49Z</time>
      </trkpt>
      <trkpt lat="38.2115440" lon="15.0533340">
        <ele>11.6700000</ele>
        <time>2013-06-14T11:41:09Z</time>
      </trkpt>
      <trkpt lat="38.2111630" lon="15.0534360">
        <ele>11.1900000</ele>
        <time>2013-06-14T11:41:29Z</time>
      </trkpt>
      <trkpt lat="38.2108120" lon="15.0535660">
        <ele>11.6700000</ele>
        <time>2013-06-14T11:41:49Z</time>
      </trkpt>
      <trkpt lat="38.2104910" lon="15.0537110">
        <ele>11.6700000</ele>
        <time>2013-06-14T11:42:08Z</time>
      </trkpt>
      <trkpt lat="38.2101630" lon="15.0538450">
        <ele>11.6700000</ele>
        <time>2013-06-14T11:42:28Z</time>
      </trkpt>
      <trkpt lat="38.2098050" lon="15.0539640">
        <ele>11.6700000</ele>
        <time>2013-06-14T11:42:48Z</time>
      </trkpt>
      <trkpt lat="38.2094800" lon="15.0540570">
        <ele>11.1900000</ele>
        <time>2013-06-14T11:43:05Z</time>
      </trkpt>
      <trkpt lat="38.2091940" lon="15.0541620">
        <ele>11.6700000</ele>
        <time>2013-06-14T11:43:22Z</time>
      </trkpt>
      <trkpt lat="38.2088470" lon="15.0542850">
        <ele>11.1900000</ele>
        <time>2013-06-14T11:43:41Z</time>
      </trkpt>
      <trkpt lat="38.2085420" lon="15.0544200">
        <ele>11.6700000</ele>
        <time>2013-06-14T11:44:00Z</time>
      </trkpt>
      <trkpt lat="38.2081950" lon="15.0545550">
        <ele>11.1900000</ele>
        <time>2013-06-14T11:44:19Z</time>
      </trkpt>
      <trkpt lat="38.2077980" lon="15.0546850">
        <ele>11.6700000</ele>
        <time>2013-06-14T11:44:41Z</time>
      </trkpt>
      <trkpt lat="38.2074740" lon="15.0547820">
        <ele>11.1900000</ele>
        <time>2013-06-14T11:45:00Z</time>
      </trkpt>
      <trkpt lat="38.2071190" lon="15.0549140">
        <ele>11.6700000</ele>
        <time>2013-06-14T11:45:22Z</time>
      </trkpt>
      <trkpt lat="38.2066800" lon="15.0550700">
        <ele>11.1900000</ele>
        <time>2013-06-14T11:45:47Z</time>
      </trkpt>
      <trkpt lat="38.2063560" lon="15.0551860">
        <ele>11.6700000</ele>
        <time>2013-06-14T11:46:07Z</time>
      </trkpt>
      <trkpt lat="38.2059940" lon="15.0553040">
        <ele>11.6700000</ele>
        <time>2013-06-14T11:46:27Z</time>
      </trkpt>
      <trkpt lat="38.2056470" lon="15.0554280">
        <ele>11.1900000</ele>
        <time>2013-06-14T11:46:48Z</time>
      </trkpt>
      <trkpt lat="38.2053220" lon="15.0555540">
        <ele>11.1900000</ele>
        <time>2013-06-14T11:47:06Z</time>
      </trkpt>
      <trkpt lat="38.2050060" lon="15.0556820">
        <ele>11.6700000</ele>
        <time>2013-06-14T11:47:26Z</time>
      </trkpt>
      <trkpt lat="38.2047310" lon="15.0557800">
        <ele>11.6700000</ele>
        <time>2013-06-14T11:47:42Z</time>
      </trkpt>
      <trkpt lat="38.2043840" lon="15.0558850">
        <ele>11.1900000</ele>
        <time>2013-06-14T11:48:01Z</time>
      </trkpt>
      <trkpt lat="38.2039990" lon="15.0559990">
        <ele>11.6700000</ele>
        <time>2013-06-14T11:48:23Z</time>
      </trkpt>
      <trkpt lat="38.2036590" lon="15.0561220">
        <ele>11.1900000</ele>
        <time>2013-06-14T11:48:43Z</time>
      </trkpt>
      <trkpt lat="38.2033580" lon="15.0562520">
        <ele>11.1900000</ele>
        <time>2013-06-14T11:49:02Z</time>
      </trkpt>
      <trkpt lat="38.2030370" lon="15.0563720">
        <ele>11.6700000</ele>
        <time>2013-06-14T11:49:21Z</time>
      </trkpt>
      <trkpt lat="38.2027240" lon="15.0565120">
        <ele>11.6700000</ele>
        <time>2013-06-14T11:49:40Z</time>
      </trkpt>
      <trkpt lat="38.2024500" lon="15.0566430">
        <ele>11.1900000</ele>
        <time>2013-06-14T11:49:59Z</time>
      </trkpt>
      <trkpt lat="38.2021640" lon="15.0567800">
        <ele>11.1900000</ele>
        <time>2013-06-14T11:50:19Z</time>
      </trkpt>
      <trkpt lat="38.2018620" lon="15.0569110">
        <ele>11.1900000</ele>
        <time>2013-06-14T11:50:40Z</time>
      </trkpt>
      <trkpt lat="38.2015690" lon="15.0570130">
        <ele>11.6700000</ele>
        <time>2013-06-14T11:51:00Z</time>
      </trkpt>
      <trkpt lat="38.2012980" lon="15.0571160">
        <ele>11.6700000</ele>
        <time>2013-06-14T11:51:18Z</time>
      </trkpt>
      <trkpt lat="38.2010190" lon="15.0572150">
        <ele>11.1900000</ele>
        <time>2013-06-14T11:51:36Z</time>
      </trkpt>
      <trkpt lat="38.2007060" lon="15.0573330">
        <ele>10.7100000</ele>
        <time>2013-06-14T11:51:56Z</time>
      </trkpt>
      <trkpt lat="38.2004090" lon="15.0574450">
        <ele>10.7100000</ele>
        <time>2013-06-14T11:52:15Z</time>
      </trkpt>
      <trkpt lat="38.2001340" lon="15.0575480">
        <ele>10.7100000</ele>
        <time>2013-06-14T11:52:33Z</time>
      </trkpt>
      <trkpt lat="38.1997990" lon="15.0576790">
        <ele>11.1900000</ele>
        <time>2013-06-14T11:52:55Z</time>
      </trkpt>
      <trkpt lat="38.1995120" lon="15.0577780">
        <ele>11.1900000</ele>
        <time>2013-06-14T11:53:13Z</time>
      </trkpt>
      <trkpt lat="38.1991770" lon="15.0578790">
        <ele>11.1900000</ele>
        <time>2013-06-14T11:53:33Z</time>
      </trkpt>
      <trkpt lat="38.1988370" lon="15.0579790">
        <ele>11.1900000</ele>
        <time>2013-06-14T11:53:53Z</time>
      </trkpt>
      <trkpt lat="38.1985280" lon="15.0580870">
        <ele>11.1900000</ele>
        <time>2013-06-14T11:54:11Z</time>
      </trkpt>
      <trkpt lat="38.1982540" lon="15.0581860">
        <ele>11.1900000</ele>
        <time>2013-06-14T11:54:28Z</time>
      </trkpt>
      <trkpt lat="38.1979410" lon="15.0582900">
        <ele>11.1900000</ele>
        <time>2013-06-14T11:54:49Z</time>
      </trkpt>
      <trkpt lat="38.1977010" lon="15.0583750">
        <ele>11.1900000</ele>
        <time>2013-06-14T11:55:06Z</time>
      </trkpt>
      <trkpt lat="38.1974030" lon="15.0584610">
        <ele>11.1900000</ele>
        <time>2013-06-14T11:55:25Z</time>
      </trkpt>
      <trkpt lat="38.1971210" lon="15.0585870">
        <ele>11.1900000</ele>
        <time>2013-06-14T11:55:44Z</time>
      </trkpt>
      <trkpt lat="38.1968350" lon="15.0587080">
        <ele>11.1900000</ele>
        <time>2013-06-14T11:56:03Z</time>
      </trkpt>
      <trkpt lat="38.1965220" lon="15.0588210">
        <ele>10.7100000</ele>
        <time>2013-06-14T11:56:24Z</time>
      </trkpt>
      <trkpt lat="38.1962170" lon="15.0589600">
        <ele>10.7100000</ele>
        <time>2013-06-14T11:56:44Z</time>
      </trkpt>
      <trkpt lat="38.1959040" lon="15.0590610">
        <ele>11.6700000</ele>
        <time>2013-06-14T11:57:03Z</time>
      </trkpt>
      <trkpt lat="38.1956140" lon="15.0591560">
        <ele>11.1900000</ele>
        <time>2013-06-14T11:57:21Z</time>
      </trkpt>
      <trkpt lat="38.1952550" lon="15.0592990">
        <ele>11.1900000</ele>
        <time>2013-06-14T11:57:45Z</time>
      </trkpt>
      <trkpt lat="38.1949840" lon="15.0594270">
        <ele>10.7100000</ele>
        <time>2013-06-14T11:58:05Z</time>
      </trkpt>
      <trkpt lat="38.1946450" lon="15.0595950">
        <ele>10.7100000</ele>
        <time>2013-06-14T11:58:32Z</time>
      </trkpt>
      <trkpt lat="38.1943820" lon="15.0597350">
        <ele>10.7100000</ele>
        <time>2013-06-14T11:58:55Z</time>
      </trkpt>
      <trkpt lat="38.1941530" lon="15.0598340">
        <ele>10.7100000</ele>
        <time>2013-06-14T11:59:14Z</time>
      </trkpt>
      <trkpt lat="38.1939160" lon="15.0599270">
        <ele>10.7100000</ele>
        <time>2013-06-14T11:59:35Z</time>
      </trkpt>
      <trkpt lat="38.1937180" lon="15.0600200">
        <ele>11.1900000</ele>
        <time>2013-06-14T11:59:54Z</time>
      </trkpt>
      <trkpt lat="38.1934620" lon="15.0601490">
        <ele>10.7100000</ele>
        <time>2013-06-14T12:00:19Z</time>
      </trkpt>
      <trkpt lat="38.1932260" lon="15.0602490">
        <ele>10.7100000</ele>
        <time>2013-06-14T12:00:40Z</time>
      </trkpt>
      <trkpt lat="38.1930050" lon="15.0603550">
        <ele>10.2300000</ele>
        <time>2013-06-14T12:01:02Z</time>
      </trkpt>
      <trkpt lat="38.1926920" lon="15.0604760">
        <ele>11.1900000</ele>
        <time>2013-06-14T12:01:20Z</time>
      </trkpt>
      <trkpt lat="38.1922450" lon="15.0606950">
        <ele>10.7100000</ele>
        <time>2013-06-14T12:01:38Z</time>
      </trkpt>
      <trkpt lat="38.1917530" lon="15.0609380">
        <ele>10.7100000</ele>
        <time>2013-06-14T12:01:57Z</time>
      </trkpt>
      <trkpt lat="38.1912120" lon="15.0611810">
        <ele>10.7100000</ele>
        <time>2013-06-14T12:02:17Z</time>
      </trkpt>
      <trkpt lat="38.1907230" lon="15.0613580">
        <ele>10.7100000</ele>
        <time>2013-06-14T12:02:34Z</time>
      </trkpt>
      <trkpt lat="38.1902690" lon="15.0615230">
        <ele>10.7100000</ele>
        <time>2013-06-14T12:02:50Z</time>
      </trkpt>
      <trkpt lat="38.1897200" lon="15.0617320">
        <ele>10.2300000</ele>
        <time>2013-06-14T12:03:09Z</time>
      </trkpt>
      <trkpt lat="38.1890830" lon="15.0619820">
        <ele>10.7100000</ele>
        <time>2013-06-14T12:03:32Z</time>
      </trkpt>
      <trkpt lat="38.1885600" lon="15.0621600">
        <ele>10.2300000</ele>
        <time>2013-06-14T12:03:50Z</time>
      </trkpt>
      <trkpt lat="38.1879040" lon="15.0623890">
        <ele>10.2300000</ele>
        <time>2013-06-14T12:04:13Z</time>
      </trkpt>
      <trkpt lat="38.1873890" lon="15.0625410">
        <ele>10.2300000</ele>
        <time>2013-06-14T12:04:31Z</time>
      </trkpt>
      <trkpt lat="38.1867900" lon="15.0627190">
        <ele>10.7100000</ele>
        <time>2013-06-14T12:04:52Z</time>
      </trkpt>
      <trkpt lat="38.1862680" lon="15.0628280">
        <ele>10.7100000</ele>
        <time>2013-06-14T12:05:10Z</time>
      </trkpt>
      <trkpt lat="38.1857640" lon="15.0628840">
        <ele>10.7100000</ele>
        <time>2013-06-14T12:05:27Z</time>
      </trkpt>
      <trkpt lat="38.1852490" lon="15.0629960">
        <ele>10.7100000</ele>
        <time>2013-06-14T12:05:45Z</time>
      </trkpt>
      <trkpt lat="38.1846310" lon="15.0631790">
        <ele>10.7100000</ele>
        <time>2013-06-14T12:06:06Z</time>
      </trkpt>
      <trkpt lat="38.1839870" lon="15.0633540">
        <ele>11.1900000</ele>
        <time>2013-06-14T12:06:28Z</time>
      </trkpt>
      <trkpt lat="38.1833080" lon="15.0635850">
        <ele>11.1900000</ele>
        <time>2013-06-14T12:06:51Z</time>
      </trkpt>
      <trkpt lat="38.1827390" lon="15.0638520">
        <ele>11.1900000</ele>
        <time>2013-06-14T12:07:11Z</time>
      </trkpt>
      <trkpt lat="38.1821400" lon="15.0640620">
        <ele>10.7100000</ele>
        <time>2013-06-14T12:07:32Z</time>
      </trkpt>
      <trkpt lat="38.1816020" lon="15.0641650">
        <ele>10.7100000</ele>
        <time>2013-06-14T12:07:50Z</time>
      </trkpt>
      <trkpt lat="38.1811410" lon="15.0642840">
        <ele>10.7100000</ele>
        <time>2013-06-14T12:08:06Z</time>
      </trkpt>
      <trkpt lat="38.1805500" lon="15.0645040">
        <ele>11.1900000</ele>
        <time>2013-06-14T12:08:26Z</time>
      </trkpt>
      <trkpt lat="38.1800230" lon="15.0646940">
        <ele>10.7100000</ele>
        <time>2013-06-14T12:08:44Z</time>
      </trkpt>
      <trkpt lat="38.1794850" lon="15.0648570">
        <ele>11.1900000</ele>
        <time>2013-06-14T12:09:02Z</time>
      </trkpt>
      <trkpt lat="38.1788370" lon="15.0649600">
        <ele>11.1900000</ele>
        <time>2013-06-14T12:09:23Z</time>
      </trkpt>
      <trkpt lat="38.1782610" lon="15.0649590">
        <ele>11.1900000</ele>
        <time>2013-06-14T12:09:42Z</time>
      </trkpt>
      <trkpt lat="38.1777380" lon="15.0648870">
        <ele>11.1900000</ele>
        <time>2013-06-14T12:09:59Z</time>
      </trkpt>
      <trkpt lat="38.1772350" lon="15.0651470">
        <ele>11.1900000</ele>
        <time>2013-06-14T12:10:17Z</time>
      </trkpt>
      <trkpt lat="38.1766850" lon="15.0654390">
        <ele>11.6700000</ele>
        <time>2013-06-14T12:10:37Z</time>
      </trkpt>
      <trkpt lat="38.1762050" lon="15.0655630">
        <ele>11.6700000</ele>
        <time>2013-06-14T12:10:53Z</time>
      </trkpt>
      <trkpt lat="38.1756290" lon="15.0657360">
        <ele>11.6700000</ele>
        <time>2013-06-14T12:11:12Z</time>
      </trkpt>
      <trkpt lat="38.1748850" lon="15.0659380">
        <ele>11.6700000</ele>
        <time>2013-06-14T12:11:37Z</time>
      </trkpt>
      <trkpt lat="38.1742630" lon="15.0660330">
        <ele>11.6700000</ele>
        <time>2013-06-14T12:11:57Z</time>
      </trkpt>
      <trkpt lat="38.1736980" lon="15.0660530">
        <ele>11.6700000</ele>
        <time>2013-06-14T12:12:15Z</time>
      </trkpt>
      <trkpt lat="38.1732640" lon="15.0660990">
        <ele>11.1900000</ele>
        <time>2013-06-14T12:12:34Z</time>
      </trkpt>
      <trkpt lat="38.1728860" lon="15.0661590">
        <ele>11.1900000</ele>
        <time>2013-06-14T12:12:54Z</time>
      </trkpt>
      <trkpt lat="38.1725390" lon="15.0662580">
        <ele>11.1900000</ele>
        <time>2013-06-14T12:13:16Z</time>
      </trkpt>
      <trkpt lat="38.1722530" lon="15.0663170">
        <ele>11.6700000</ele>
        <time>2013-06-14T12:13:35Z</time>
      </trkpt>
      <trkpt lat="38.1720050" lon="15.0663810">
        <ele>11.1900000</ele>
        <time>2013-06-14T12:13:53Z</time>
      </trkpt>
      <trkpt lat="38.1717340" lon="15.0664650">
        <ele>11.1900000</ele>
        <time>2013-06-14T12:14:12Z</time>
      </trkpt>
      <trkpt lat="38.1714780" lon="15.0665500">
        <ele>11.1900000</ele>
        <time>2013-06-14T12:14:32Z</time>
      </trkpt>
      <trkpt lat="38.1712230" lon="15.0666260">
        <ele>10.7100000</ele>
        <time>2013-06-14T12:14:53Z</time>
      </trkpt>
      <trkpt lat="38.1709330" lon="15.0667040">
        <ele>10.7100000</ele>
        <time>2013-06-14T12:15:16Z</time>
      </trkpt>
      <trkpt lat="38.1706580" lon="15.0668640">
        <ele>10.7100000</ele>
        <time>2013-06-14T12:15:41Z</time>
      </trkpt>
      <trkpt lat="38.1704640" lon="15.0670150">
        <ele>10.7100000</ele>
        <time>2013-06-14T12:16:01Z</time>
      </trkpt>
      <trkpt lat="38.1702420" lon="15.0671650">
        <ele>10.7100000</ele>
        <time>2013-06-14T12:16:22Z</time>
      </trkpt>
      <trkpt lat="38.1700210" lon="15.0673630">
        <ele>10.2300000</ele>
        <time>2013-06-14T12:16:45Z</time>
      </trkpt>
      <trkpt lat="38.1697960" lon="15.0675280">
        <ele>9.7500000</ele>
        <time>2013-06-14T12:17:06Z</time>
      </trkpt>
      <trkpt lat="38.1696130" lon="15.0676380">
        <ele>10.2300000</ele>
        <time>2013-06-14T12:17:25Z</time>
      </trkpt>
      <trkpt lat="38.1694300" lon="15.0676830">
        <ele>9.7500000</ele>
        <time>2013-06-14T12:17:44Z</time>
      </trkpt>
      <trkpt lat="38.1692730" lon="15.0677450">
        <ele>9.7500000</ele>
        <time>2013-06-14T12:18:02Z</time>
      </trkpt>
      <trkpt lat="38.1691250" lon="15.0678590">
        <ele>9.7500000</ele>
        <time>2013-06-14T12:18:22Z</time>
      </trkpt>
      <trkpt lat="38.1689680" lon="15.0679660">
        <ele>9.7500000</ele>
        <time>2013-06-14T12:18:46Z</time>
      </trkpt>
      <trkpt lat="38.1688310" lon="15.0680370">
        <ele>10.2300000</ele>
        <time>2013-06-14T12:19:07Z</time>
      </trkpt>
      <trkpt lat="38.1686900" lon="15.0681110">
        <ele>9.7500000</ele>
        <time>2013-06-14T12:19:28Z</time>
      </trkpt>
      <trkpt lat="38.1685600" lon="15.0681990">
        <ele>9.7500000</ele>
        <time>2013-06-14T12:19:49Z</time>
      </trkpt>
      <trkpt lat="38.1684460" lon="15.0683040">
        <ele>9.2700000</ele>
        <time>2013-06-14T12:20:09Z</time>
      </trkpt>
      <trkpt lat="38.1683200" lon="15.0684050">
        <ele>9.7500000</ele>
        <time>2013-06-14T12:20:30Z</time>
      </trkpt>
      <trkpt lat="38.1681020" lon="15.0685870">
        <ele>9.2700000</ele>
        <time>2013-06-14T12:20:47Z</time>
      </trkpt>
      <trkpt lat="38.1676450" lon="15.0689700">
        <ele>9.7500000</ele>
        <time>2013-06-14T12:21:07Z</time>
      </trkpt>
      <trkpt lat="38.1672170" lon="15.0693650">
        <ele>8.7900000</ele>
        <time>2013-06-14T12:21:25Z</time>
      </trkpt>
      <trkpt lat="38.1667590" lon="15.0698200">
        <ele>9.2700000</ele>
        <time>2013-06-14T12:21:45Z</time>
      </trkpt>
      <trkpt lat="38.1661490" lon="15.0703900">
        <ele>9.2700000</ele>
        <time>2013-06-14T12:22:10Z</time>
      </trkpt>
      <trkpt lat="38.1656070" lon="15.0708600">
        <ele>9.2700000</ele>
        <time>2013-06-14T12:22:32Z</time>
      </trkpt>
      <trkpt lat="38.1651340" lon="15.0712360">
        <ele>9.2700000</ele>
        <time>2013-06-14T12:22:51Z</time>
      </trkpt>
      <trkpt lat="38.1646840" lon="15.0716310">
        <ele>8.7900000</ele>
        <time>2013-06-14T12:23:10Z</time>
      </trkpt>
      <trkpt lat="38.1643030" lon="15.0721200">
        <ele>9.2700000</ele>
        <time>2013-06-14T12:23:29Z</time>
      </trkpt>
      <trkpt lat="38.1638720" lon="15.0725550">
        <ele>9.2700000</ele>
        <time>2013-06-14T12:23:48Z</time>
      </trkpt>
      <trkpt lat="38.1634940" lon="15.0730690">
        <ele>8.7900000</ele>
        <time>2013-06-14T12:24:07Z</time>
      </trkpt>
      <trkpt lat="38.1630590" lon="15.0736070">
        <ele>9.2700000</ele>
        <time>2013-06-14T12:24:28Z</time>
      </trkpt>
      <trkpt lat="38.1625790" lon="15.0739980">
        <ele>8.7900000</ele>
        <time>2013-06-14T12:24:47Z</time>
      </trkpt>
      <trkpt lat="38.1621210" lon="15.0743470">
        <ele>9.7500000</ele>
        <time>2013-06-14T12:25:05Z</time>
      </trkpt>
      <trkpt lat="38.1616780" lon="15.0747330">
        <ele>8.7900000</ele>
        <time>2013-06-14T12:25:23Z</time>
      </trkpt>
      <trkpt lat="38.1612010" lon="15.0751340">
        <ele>9.2700000</ele>
        <time>2013-06-14T12:25:43Z</time>
      </trkpt>
      <trkpt lat="38.1607320" lon="15.0755730">
        <ele>9.2700000</ele>
        <time>2013-06-14T12:26:03Z</time>
      </trkpt>
      <trkpt lat="38.1602970" lon="15.0760110">
        <ele>9.2700000</ele>
        <time>2013-06-14T12:26:22Z</time>
      </trkpt>
      <trkpt lat="38.1598320" lon="15.0764090">
        <ele>9.7500000</ele>
        <time>2013-06-14T12:26:41Z</time>
      </trkpt>
      <trkpt lat="38.1594050" lon="15.0768380">
        <ele>9.7500000</ele>
        <time>2013-06-14T12:27:00Z</time>
      </trkpt>
      <trkpt lat="38.1589510" lon="15.0772460">
        <ele>9.2700000</ele>
        <time>2013-06-14T12:27:19Z</time>
      </trkpt>
      <trkpt lat="38.1584210" lon="15.0777980">
        <ele>9.2700000</ele>
        <time>2013-06-14T12:27:43Z</time>
      </trkpt>
      <trkpt lat="38.1579210" lon="15.0783030">
        <ele>8.7900000</ele>
        <time>2013-06-14T12:28:05Z</time>
      </trkpt>
      <trkpt lat="38.1573030" lon="15.0788500">
        <ele>8.3100000</ele>
        <time>2013-06-14T12:28:31Z</time>
      </trkpt>
      <trkpt lat="38.1567800" lon="15.0793260">
        <ele>8.7900000</ele>
        <time>2013-06-14T12:28:53Z</time>
      </trkpt>
      <trkpt lat="38.1562420" lon="15.0798220">
        <ele>8.7900000</ele>
        <time>2013-06-14T12:29:16Z</time>
      </trkpt>
      <trkpt lat="38.1557880" lon="15.0802730">
        <ele>8.7900000</ele>
        <time>2013-06-14T12:29:36Z</time>
      </trkpt>
      <trkpt lat="38.1552700" lon="15.0807020">
        <ele>8.3100000</ele>
        <time>2013-06-14T12:29:57Z</time>
      </trkpt>
      <trkpt lat="38.1547390" lon="15.0811660">
        <ele>8.3100000</ele>
        <time>2013-06-14T12:30:19Z</time>
      </trkpt>
      <trkpt lat="38.1541560" lon="15.0817250">
        <ele>8.3100000</ele>
        <time>2013-06-14T12:30:44Z</time>
      </trkpt>
      <trkpt lat="38.1537250" lon="15.0821610">
        <ele>8.3100000</ele>
        <time>2013-06-14T12:31:03Z</time>
      </trkpt>
      <trkpt lat="38.1532100" lon="15.0826840">
        <ele>8.3100000</ele>
        <time>2013-06-14T12:31:25Z</time>
      </trkpt>
      <trkpt lat="38.1527630" lon="15.0831540">
        <ele>8.3100000</ele>
        <time>2013-06-14T12:31:45Z</time>
      </trkpt>
      <trkpt lat="38.1523170" lon="15.0836320">
        <ele>8.3100000</ele>
        <time>2013-06-14T12:32:05Z</time>
      </trkpt>
      <trkpt lat="38.1518290" lon="15.0841640">
        <ele>8.3100000</ele>
        <time>2013-06-14T12:32:27Z</time>
      </trkpt>
      <trkpt lat="38.1513900" lon="15.0846350">
        <ele>8.3100000</ele>
        <time>2013-06-14T12:32:47Z</time>
      </trkpt>
      <trkpt lat="38.1508640" lon="15.0851900">
        <ele>7.8300000</ele>
        <time>2013-06-14T12:33:10Z</time>
      </trkpt>
      <trkpt lat="38.1502800" lon="15.0858330">
        <ele>8.3100000</ele>
        <time>2013-06-14T12:33:36Z</time>
      </trkpt>
      <trkpt lat="38.1498450" lon="15.0863790">
        <ele>8.3100000</ele>
        <time>2013-06-14T12:33:57Z</time>
      </trkpt>
      <trkpt lat="38.1493530" lon="15.0869170">
        <ele>7.8300000</ele>
        <time>2013-06-14T12:34:19Z</time>
      </trkpt>
      <trkpt lat="38.1489330" lon="15.0873850">
        <ele>7.8300000</ele>
        <time>2013-06-14T12:34:38Z</time>
      </trkpt>
      <trkpt lat="38.1484340" lon="15.0879690">
        <ele>8.3100000</ele>
        <time>2013-06-14T12:35:01Z</time>
      </trkpt>
      <trkpt lat="38.1479450" lon="15.0885390">
        <ele>8.3100000</ele>
        <time>2013-06-14T12:35:24Z</time>
      </trkpt>
      <trkpt lat="38.1475070" lon="15.0890450">
        <ele>7.8300000</ele>
        <time>2013-06-14T12:35:44Z</time>
      </trkpt>
      <trkpt lat="38.1470300" lon="15.0895260">
        <ele>7.8300000</ele>
        <time>2013-06-14T12:36:05Z</time>
      </trkpt>
      <trkpt lat="38.1465720" lon="15.0900360">
        <ele>7.8300000</ele>
        <time>2013-06-14T12:36:25Z</time>
      </trkpt>
      <trkpt lat="38.1460720" lon="15.0906050">
        <ele>7.3500000</ele>
        <time>2013-06-14T12:36:48Z</time>
      </trkpt>
      <trkpt lat="38.1456070" lon="15.0911130">
        <ele>7.3500000</ele>
        <time>2013-06-14T12:37:09Z</time>
      </trkpt>
      <trkpt lat="38.1451420" lon="15.0916930">
        <ele>7.3500000</ele>
        <time>2013-06-14T12:37:31Z</time>
      </trkpt>
      <trkpt lat="38.1446460" lon="15.0923840">
        <ele>7.3500000</ele>
        <time>2013-06-14T12:37:56Z</time>
      </trkpt>
      <trkpt lat="38.1442570" lon="15.0928750">
        <ele>7.8300000</ele>
        <time>2013-06-14T12:38:15Z</time>
      </trkpt>
      <trkpt lat="38.1438370" lon="15.0933380">
        <ele>7.3500000</ele>
        <time>2013-06-14T12:38:34Z</time>
      </trkpt>
      <trkpt lat="38.1433260" lon="15.0938220">
        <ele>7.3500000</ele>
        <time>2013-06-14T12:38:56Z</time>
      </trkpt>
      <trkpt lat="38.1427990" lon="15.0943780">
        <ele>7.3500000</ele>
        <time>2013-06-14T12:39:19Z</time>
      </trkpt>
      <trkpt lat="38.1422650" lon="15.0949570">
        <ele>6.8700000</ele>
        <time>2013-06-14T12:39:43Z</time>
      </trkpt>
      <trkpt lat="38.1417620" lon="15.0955360">
        <ele>7.3500000</ele>
        <time>2013-06-14T12:40:06Z</time>
      </trkpt>
      <trkpt lat="38.1412320" lon="15.0961280">
        <ele>6.3900000</ele>
        <time>2013-06-14T12:40:30Z</time>
      </trkpt>
      <trkpt lat="38.1408420" lon="15.0965820">
        <ele>7.3500000</ele>
        <time>2013-06-14T12:40:48Z</time>
      </trkpt>
      <trkpt lat="38.1404950" lon="15.0969750">
        <ele>7.3500000</ele>
        <time>2013-06-14T12:41:04Z</time>
      </trkpt>
      <trkpt lat="38.1399460" lon="15.0975820">
        <ele>6.8700000</ele>
        <time>2013-06-14T12:41:29Z</time>
      </trkpt>
      <trkpt lat="38.1395720" lon="15.0980100">
        <ele>7.3500000</ele>
        <time>2013-06-14T12:41:46Z</time>
      </trkpt>
      <trkpt lat="38.1391370" lon="15.0984650">
        <ele>7.3500000</ele>
        <time>2013-06-14T12:42:05Z</time>
      </trkpt>
      <trkpt lat="38.1386220" lon="15.0990340">
        <ele>6.8700000</ele>
        <time>2013-06-14T12:42:28Z</time>
      </trkpt>
      <trkpt lat="38.1381150" lon="15.0995520">
        <ele>6.8700000</ele>
        <time>2013-06-14T12:42:50Z</time>
      </trkpt>
      <trkpt lat="38.1376530" lon="15.1000230">
        <ele>6.8700000</ele>
        <time>2013-06-14T12:43:10Z</time>
      </trkpt>
      <trkpt lat="38.1371610" lon="15.1005610">
        <ele>6.8700000</ele>
        <time>2013-06-14T12:43:32Z</time>
      </trkpt>
      <trkpt lat="38.1367260" lon="15.1010670">
        <ele>7.3500000</ele>
        <time>2013-06-14T12:43:52Z</time>
      </trkpt>
      <trkpt lat="38.1363600" lon="15.1015080">
        <ele>6.3900000</ele>
        <time>2013-06-14T12:44:09Z</time>
      </trkpt>
      <trkpt lat="38.1359670" lon="15.1019690">
        <ele>6.8700000</ele>
        <time>2013-06-14T12:44:27Z</time>
      </trkpt>
      <trkpt lat="38.1354900" lon="15.1025540">
        <ele>6.3900000</ele>
        <time>2013-06-14T12:44:50Z</time>
      </trkpt>
      <trkpt lat="38.1350140" lon="15.1030720">
        <ele>6.8700000</ele>
        <time>2013-06-14T12:45:11Z</time>
      </trkpt>
      <trkpt lat="38.1345060" lon="15.1036610">
        <ele>6.3900000</ele>
        <time>2013-06-14T12:45:35Z</time>
      </trkpt>
      <trkpt lat="38.1340870" lon="15.1041730">
        <ele>6.3900000</ele>
        <time>2013-06-14T12:45:55Z</time>
      </trkpt>
      <trkpt lat="38.1335950" lon="15.1048230">
        <ele>6.3900000</ele>
        <time>2013-06-14T12:46:20Z</time>
      </trkpt>
      <trkpt lat="38.1331520" lon="15.1054090">
        <ele>6.3900000</ele>
        <time>2013-06-14T12:46:42Z</time>
      </trkpt>
      <trkpt lat="38.1326480" lon="15.1060230">
        <ele>6.3900000</ele>
        <time>2013-06-14T12:47:06Z</time>
      </trkpt>
      <trkpt lat="38.1322290" lon="15.1066120">
        <ele>6.3900000</ele>
        <time>2013-06-14T12:47:28Z</time>
      </trkpt>
      <trkpt lat="38.1317710" lon="15.1072580">
        <ele>5.9100000</ele>
        <time>2013-06-14T12:47:52Z</time>
      </trkpt>
      <trkpt lat="38.1313400" lon="15.1078540">
        <ele>5.9100000</ele>
        <time>2013-06-14T12:48:15Z</time>
      </trkpt>
      <trkpt lat="38.1309280" lon="15.1084350">
        <ele>5.9100000</ele>
        <time>2013-06-14T12:48:37Z</time>
      </trkpt>
      <trkpt lat="38.1306300" lon="15.1089320">
        <ele>5.9100000</ele>
        <time>2013-06-14T12:48:55Z</time>
      </trkpt>
      <trkpt lat="38.1302800" lon="15.1094920">
        <ele>5.9100000</ele>
        <time>2013-06-14T12:49:15Z</time>
      </trkpt>
      <trkpt lat="38.1299590" lon="15.1099840">
        <ele>5.9100000</ele>
        <time>2013-06-14T12:49:33Z</time>
      </trkpt>
      <trkpt lat="38.1295360" lon="15.1104160">
        <ele>5.9100000</ele>
        <time>2013-06-14T12:49:53Z</time>
      </trkpt>
      <trkpt lat="38.1292110" lon="15.1107130">
        <ele>5.9100000</ele>
        <time>2013-06-14T12:50:11Z</time>
      </trkpt>
      <trkpt lat="38.1288110" lon="15.1110590">
        <ele>5.4200000</ele>
        <time>2013-06-14T12:50:34Z</time>
      </trkpt>
      <trkpt lat="38.1284640" lon="15.1113290">
        <ele>5.9100000</ele>
        <time>2013-06-14T12:50:54Z</time>
      </trkpt>
      <trkpt lat="38.1281970" lon="15.1113750">
        <ele>5.4200000</ele>
        <time>2013-06-14T12:51:13Z</time>
      </trkpt>
      <trkpt lat="38.1279750" lon="15.1113170">
        <ele>5.4200000</ele>
        <time>2013-06-14T12:51:32Z</time>
      </trkpt>
      <trkpt lat="38.1277920" lon="15.1111380">
        <ele>5.9100000</ele>
        <time>2013-06-14T12:51:54Z</time>
      </trkpt>
      <trkpt lat="38.1275520" lon="15.1109170">
        <ele>5.9100000</ele>
        <time>2013-06-14T12:52:22Z</time>
      </trkpt>
      <trkpt lat="38.1272540" lon="15.1108040">
        <ele>5.4200000</ele>
        <time>2013-06-14T12:52:50Z</time>
      </trkpt>
      <trkpt lat="38.1270480" lon="15.1108190">
        <ele>5.9100000</ele>
        <time>2013-06-14T12:53:18Z</time>
      </trkpt>
      <trkpt lat="38.1269910" lon="15.1108440">
        <ele>5.9100000</ele>
        <time>2013-06-14T12:53:48Z</time>
      </trkpt>
      <trkpt lat="38.1269910" lon="15.1108440">
        <ele>5.4200000</ele>
        <time>2013-06-14T12:53:53Z</time>
      </trkpt>
      <trkpt lat="38.1269760" lon="15.1108430">
        <ele>5.4200000</ele>
        <time>2013-06-14T12:54:23Z</time>
      </trkpt>
      <trkpt lat="38.1269760" lon="15.1108430">
        <ele>5.9100000</ele>
        <time>2013-06-14T12:54:53Z</time>
      </trkpt>
      <trkpt lat="38.1269680" lon="15.1108470">
        <ele>5.9100000</ele>
        <time>2013-06-14T12:55:20Z</time>
      </trkpt>
      <trkpt lat="38.1269680" lon="15.1108470">
        <ele>5.9100000</ele>
        <time>2013-06-14T12:55:49Z</time>
      </trkpt>
      <trkpt lat="38.1269680" lon="15.1108480">
        <ele>5.9100000</ele>
        <time>2013-06-14T12:56:20Z</time>
      </trkpt>
      <trkpt lat="38.1269650" lon="15.1108480">
        <ele>6.3900000</ele>
        <time>2013-06-14T12:56:50Z</time>
      </trkpt>
      <trkpt lat="38.1269260" lon="15.1108980">
        <ele>5.9100000</ele>
        <time>2013-06-14T12:56:58Z</time>
      </trkpt>
      <trkpt lat="38.1269070" lon="15.1109170">
        <ele>5.9100000</ele>
        <time>2013-06-14T12:57:26Z</time>
      </trkpt>
      <trkpt lat="38.1269040" lon="15.1109160">
        <ele>5.4200000</ele>
        <time>2013-06-14T12:57:57Z</time>
      </trkpt>
      <trkpt lat="38.1268960" lon="15.1109120">
        <ele>5.4200000</ele>
        <time>2013-06-14T12:58:24Z</time>
      </trkpt>
      <trkpt lat="38.1268960" lon="15.1109120">
        <ele>5.9100000</ele>
        <time>2013-06-14T12:58:51Z</time>
      </trkpt>
      <trkpt lat="38.1268840" lon="15.1109150">
        <ele>5.9100000</ele>
        <time>2013-06-14T12:59:24Z</time>
      </trkpt>
      <trkpt lat="38.1268810" lon="15.1109140">
        <ele>5.4200000</ele>
        <time>2013-06-14T12:59:55Z</time>
      </trkpt>
      <trkpt lat="38.1268770" lon="15.1109160">
        <ele>5.4200000</ele>
        <time>2013-06-14T13:00:25Z</time>
      </trkpt>
      <trkpt lat="38.1268690" lon="15.1109210">
        <ele>5.4200000</ele>
        <time>2013-06-14T13:00:52Z</time>
      </trkpt>
      <trkpt lat="38.1268690" lon="15.1109270">
        <ele>5.4200000</ele>
        <time>2013-06-14T13:01:20Z</time>
      </trkpt>
      <trkpt lat="38.1268620" lon="15.1109650">
        <ele>4.9400000</ele>
        <time>2013-06-14T13:01:52Z</time>
      </trkpt>
      <trkpt lat="38.1268620" lon="15.1109650">
        <ele>5.4200000</ele>
        <time>2013-06-14T13:02:25Z</time>
      </trkpt>
      <trkpt lat="38.1268580" lon="15.1109750">
        <ele>5.4200000</ele>
        <time>2013-06-14T13:02:59Z</time>
      </trkpt>
      <trkpt lat="38.1268580" lon="15.1109750">
        <ele>5.4200000</ele>
        <time>2013-06-14T13:03:07Z</time>
      </trkpt>
      <trkpt lat="38.1268540" lon="15.1109900">
        <ele>5.4200000</ele>
        <time>2013-06-14T13:03:40Z</time>
      </trkpt>
      <trkpt lat="38.1268580" lon="15.1110630">
        <ele>5.4200000</ele>
        <time>2013-06-14T13:04:08Z</time>
      </trkpt>
      <trkpt lat="38.1268540" lon="15.1110680">
        <ele>5.4200000</ele>
        <time>2013-06-14T13:04:32Z</time>
      </trkpt>
      <trkpt lat="38.1268880" lon="15.1110730">
        <ele>5.4200000</ele>
        <time>2013-06-14T13:05:02Z</time>
      </trkpt>
      <trkpt lat="38.1268960" lon="15.1110780">
        <ele>4.9400000</ele>
        <time>2013-06-14T13:05:32Z</time>
      </trkpt>
      <trkpt lat="38.1268920" lon="15.1110760">
        <ele>5.4200000</ele>
        <time>2013-06-14T13:06:07Z</time>
      </trkpt>
      <trkpt lat="38.1268920" lon="15.1110790">
        <ele>5.4200000</ele>
        <time>2013-06-14T13:06:40Z</time>
      </trkpt>
      <trkpt lat="38.1268770" lon="15.1110820">
        <ele>5.4200000</ele>
        <time>2013-06-14T13:07:10Z</time>
      </trkpt>
      <trkpt lat="38.1268770" lon="15.1110820">
        <ele>5.9100000</ele>
        <time>2013-06-14T13:07:43Z</time>
      </trkpt>
      <trkpt lat="38.1268770" lon="15.1110830">
        <ele>5.4200000</ele>
        <time>2013-06-14T13:08:16Z</time>
      </trkpt>
      <trkpt lat="38.1268690" lon="15.1110880">
        <ele>5.4200000</ele>
        <time>2013-06-14T13:08:51Z</time>
      </trkpt>
      <trkpt lat="38.1267430" lon="15.1110220">
        <ele>5.4200000</ele>
        <time>2013-06-14T13:09:19Z</time>
      </trkpt>
      <trkpt lat="38.1268690" lon="15.1108210">
        <ele>4.9400000</ele>
        <time>2013-06-14T13:09:49Z</time>
      </trkpt>
      <trkpt lat="38.1269870" lon="15.1107280">
        <ele>5.4200000</ele>
        <time>2013-06-14T13:10:20Z</time>
      </trkpt>
      <trkpt lat="38.1269870" lon="15.1107280">
        <ele>4.9400000</ele>
        <time>2013-06-14T13:10:50Z</time>
      </trkpt>
      <trkpt lat="38.1269870" lon="15.1107310">
        <ele>5.4200000</ele>
        <time>2013-06-14T13:11:18Z</time>
      </trkpt>
      <trkpt lat="38.1269870" lon="15.1107310">
        <ele>5.4200000</ele>
        <time>2013-06-14T13:11:33Z</time>
      </trkpt>
      <trkpt lat="38.1269840" lon="15.1107430">
        <ele>5.4200000</ele>
        <time>2013-06-14T13:12:12Z</time>
      </trkpt>
      <trkpt lat="38.1269490" lon="15.1107910">
        <ele>5.4200000</ele>
        <time>2013-06-14T13:12:42Z</time>
      </trkpt>
      <trkpt lat="38.1268350" lon="15.1110190">
        <ele>5.4200000</ele>
        <time>2013-06-14T13:13:11Z</time>
      </trkpt>
      <trkpt lat="38.1267660" lon="15.1112150">
        <ele>5.4200000</ele>
        <time>2013-06-14T13:13:41Z</time>
      </trkpt>
      <trkpt lat="38.1266560" lon="15.1112880">
        <ele>4.9400000</ele>
        <time>2013-06-14T13:14:13Z</time>
      </trkpt>
      <trkpt lat="38.1266370" lon="15.1113010">
        <ele>4.9400000</ele>
        <time>2013-06-14T13:14:43Z</time>
      </trkpt>
      <trkpt lat="38.1266370" lon="15.1113040">
        <ele>5.4200000</ele>
        <time>2013-06-14T13:15:13Z</time>
      </trkpt>
      <trkpt lat="38.1266370" lon="15.1113070">
        <ele>5.4200000</ele>
        <time>2013-06-14T13:15:43Z</time>
      </trkpt>
      <trkpt lat="38.1266370" lon="15.1113070">
        <ele>5.4200000</ele>
        <time>2013-06-14T13:16:13Z</time>
      </trkpt>
      <trkpt lat="38.1266370" lon="15.1113090">
        <ele>4.9400000</ele>
        <time>2013-06-14T13:16:41Z</time>
      </trkpt>
      <trkpt lat="38.1266370" lon="15.1113140">
        <ele>4.9400000</ele>
        <time>2013-06-14T13:17:16Z</time>
      </trkpt>
      <trkpt lat="38.1266370" lon="15.1113200">
        <ele>4.9400000</ele>
        <time>2013-06-14T13:17:44Z</time>
      </trkpt>
      <trkpt lat="38.1266370" lon="15.1113200">
        <ele>4.9400000</ele>
        <time>2013-06-14T13:18:10Z</time>
      </trkpt>
      <trkpt lat="38.1266330" lon="15.1113220">
        <ele>5.4200000</ele>
        <time>2013-06-14T13:18:42Z</time>
      </trkpt>
      <trkpt lat="38.1266330" lon="15.1113240">
        <ele>5.4200000</ele>
        <time>2013-06-14T13:19:08Z</time>
      </trkpt>
      <trkpt lat="38.1266330" lon="15.1113240">
        <ele>5.4200000</ele>
        <time>2013-06-14T13:19:37Z</time>
      </trkpt>
      <trkpt lat="38.1266330" lon="15.1113260">
        <ele>5.4200000</ele>
        <time>2013-06-14T13:20:09Z</time>
      </trkpt>
      <trkpt lat="38.1266330" lon="15.1113250">
        <ele>4.9400000</ele>
        <time>2013-06-14T13:20:42Z</time>
      </trkpt>
      <trkpt lat="38.1266290" lon="15.1113320">
        <ele>5.4200000</ele>
        <time>2013-06-14T13:21:08Z</time>
      </trkpt>
      <trkpt lat="38.1266290" lon="15.1113340">
        <ele>5.4200000</ele>
        <time>2013-06-14T13:21:38Z</time>
      </trkpt>
      <trkpt lat="38.1266290" lon="15.1113340">
        <ele>5.4200000</ele>
        <time>2013-06-14T13:22:11Z</time>
      </trkpt>
      <trkpt lat="38.1266290" lon="15.1113370">
        <ele>5.4200000</ele>
        <time>2013-06-14T13:22:42Z</time>
      </trkpt>
      <trkpt lat="38.1266250" lon="15.1113410">
        <ele>5.9100000</ele>
        <time>2013-06-14T13:23:09Z</time>
      </trkpt>
      <trkpt lat="38.1266250" lon="15.1113440">
        <ele>5.4200000</ele>
        <time>2013-06-14T13:23:38Z</time>
      </trkpt>
      <trkpt lat="38.1266250" lon="15.1113440">
        <ele>5.4200000</ele>
        <time>2013-06-14T13:24:10Z</time>
      </trkpt>
      <trkpt lat="38.1265910" lon="15.1114270">
        <ele>5.4200000</ele>
        <time>2013-06-14T13:24:37Z</time>
      </trkpt>
      <trkpt lat="38.1265070" lon="15.1116300">
        <ele>5.9100000</ele>
        <time>2013-06-14T13:25:07Z</time>
      </trkpt>
      <trkpt lat="38.1264080" lon="15.1118910">
        <ele>5.9100000</ele>
        <time>2013-06-14T13:25:36Z</time>
      </trkpt>
      <trkpt lat="38.1263310" lon="15.1119350">
        <ele>5.4200000</ele>
        <time>2013-06-14T13:25:43Z</time>
      </trkpt>
      <trkpt lat="38.1261100" lon="15.1120620">
        <ele>5.9100000</ele>
        <time>2013-06-14T13:26:10Z</time>
      </trkpt>
      <trkpt lat="38.1260600" lon="15.1118890">
        <ele>5.9100000</ele>
        <time>2013-06-14T13:26:32Z</time>
      </trkpt>
      <trkpt lat="38.1260680" lon="15.1118420">
        <ele>6.3900000</ele>
        <time>2013-06-14T13:26:58Z</time>
      </trkpt>
      <trkpt lat="38.1260680" lon="15.1118420">
        <ele>5.9100000</ele>
        <time>2013-06-14T13:27:29Z</time>
      </trkpt>
      <trkpt lat="38.1260680" lon="15.1118410">
        <ele>6.3900000</ele>
        <time>2013-06-14T13:28:01Z</time>
      </trkpt>
      <trkpt lat="38.1260680" lon="15.1118380">
        <ele>5.9100000</ele>
        <time>2013-06-14T13:28:35Z</time>
      </trkpt>
      <trkpt lat="38.1260680" lon="15.1118350">
        <ele>6.3900000</ele>
        <time>2013-06-14T13:29:08Z</time>
      </trkpt>
      <trkpt lat="38.1260680" lon="15.1118340">
        <ele>6.3900000</ele>
        <time>2013-06-14T13:29:44Z</time>
      </trkpt>
      <trkpt lat="38.1260680" lon="15.1118310">
        <ele>6.3900000</ele>
        <time>2013-06-14T13:30:25Z</time>
      </trkpt>
      <trkpt lat="38.1260680" lon="15.1118270">
        <ele>6.3900000</ele>
        <time>2013-06-14T13:31:01Z</time>
      </trkpt>
      <trkpt lat="38.1260680" lon="15.1118230">
        <ele>6.8700000</ele>
        <time>2013-06-14T13:31:40Z</time>
      </trkpt>
      <trkpt lat="38.1260720" lon="15.1118210">
        <ele>6.3900000</ele>
        <time>2013-06-14T13:32:15Z</time>
      </trkpt>
      <trkpt lat="38.1260720" lon="15.1118210">
        <ele>6.3900000</ele>
        <time>2013-06-14T13:32:52Z</time>
      </trkpt>
      <trkpt lat="38.1260680" lon="15.1118170">
        <ele>6.3900000</ele>
        <time>2013-06-14T13:33:26Z</time>
      </trkpt>
      <trkpt lat="38.1260680" lon="15.1118140">
        <ele>6.8700000</ele>
        <time>2013-06-14T13:33:58Z</time>
      </trkpt>
      <trkpt lat="38.1260680" lon="15.1118130">
        <ele>6.8700000</ele>
        <time>2013-06-14T13:34:35Z</time>
      </trkpt>
      <trkpt lat="38.1260640" lon="15.1118140">
        <ele>6.8700000</ele>
        <time>2013-06-14T13:35:10Z</time>
      </trkpt>
      <trkpt lat="38.1260830" lon="15.1119170">
        <ele>6.8700000</ele>
        <time>2013-06-14T13:35:41Z</time>
      </trkpt>
      <trkpt lat="38.1261370" lon="15.1120390">
        <ele>6.8700000</ele>
        <time>2013-06-14T13:36:09Z</time>
      </trkpt>
      <trkpt lat="38.1261250" lon="15.1122470">
        <ele>6.8700000</ele>
        <time>2013-06-14T13:36:36Z</time>
      </trkpt>
      <trkpt lat="38.1259540" lon="15.1122830">
        <ele>6.8700000</ele>
        <time>2013-06-14T13:37:01Z</time>
      </trkpt>
      <trkpt lat="38.1256790" lon="15.1121900">
        <ele>6.8700000</ele>
        <time>2013-06-14T13:37:35Z</time>
      </trkpt>
      <trkpt lat="38.1254160" lon="15.1122130">
        <ele>7.3500000</ele>
        <time>2013-06-14T13:38:06Z</time>
      </trkpt>
      <trkpt lat="38.1251980" lon="15.1123580">
        <ele>7.3500000</ele>
        <time>2013-06-14T13:38:39Z</time>
      </trkpt>
      <trkpt lat="38.1250530" lon="15.1124940">
        <ele>7.3500000</ele>
        <time>2013-06-14T13:39:07Z</time>
      </trkpt>
      <trkpt lat="38.1248820" lon="15.1126540">
        <ele>7.3500000</ele>
        <time>2013-06-14T13:39:35Z</time>
      </trkpt>
      <trkpt lat="38.1247220" lon="15.1127380">
        <ele>7.3500000</ele>
        <time>2013-06-14T13:40:04Z</time>
      </trkpt>
      <trkpt lat="38.1244770" lon="15.1127440">
        <ele>7.3500000</ele>
        <time>2013-06-14T13:40:35Z</time>
      </trkpt>
      <trkpt lat="38.1242870" lon="15.1127210">
        <ele>7.3500000</ele>
        <time>2013-06-14T13:41:04Z</time>
      </trkpt>
      <trkpt lat="38.1240690" lon="15.1126760">
        <ele>7.8300000</ele>
        <time>2013-06-14T13:41:35Z</time>
      </trkpt>
      <trkpt lat="38.1239320" lon="15.1125870">
        <ele>7.8300000</ele>
        <time>2013-06-14T13:42:01Z</time>
      </trkpt>
      <trkpt lat="38.1239280" lon="15.1125210">
        <ele>7.8300000</ele>
        <time>2013-06-14T13:42:30Z</time>
      </trkpt>
      <trkpt lat="38.1239280" lon="15.1125190">
        <ele>7.3500000</ele>
        <time>2013-06-14T13:42:58Z</time>
      </trkpt>
      <trkpt lat="38.1239320" lon="15.1125190">
        <ele>7.3500000</ele>
        <time>2013-06-14T13:43:32Z</time>
      </trkpt>
      <trkpt lat="38.1239320" lon="15.1125190">
        <ele>7.3500000</ele>
        <time>2013-06-14T13:44:04Z</time>
      </trkpt>
      <trkpt lat="38.1239320" lon="15.1125170">
        <ele>7.8300000</ele>
        <time>2013-06-14T13:44:39Z</time>
      </trkpt>
      <trkpt lat="38.1239400" lon="15.1125170">
        <ele>7.8300000</ele>
        <time>2013-06-14T13:45:12Z</time>
      </trkpt>
      <trkpt lat="38.1239430" lon="15.1125150">
        <ele>7.8300000</ele>
        <time>2013-06-14T13:45:43Z</time>
      </trkpt>
      <trkpt lat="38.1239470" lon="15.1125140">
        <ele>7.8300000</ele>
        <time>2013-06-14T13:46:18Z</time>
      </trkpt>
      <trkpt lat="38.1239510" lon="15.1125110">
        <ele>7.3500000</ele>
        <time>2013-06-14T13:46:57Z</time>
      </trkpt>
      <trkpt lat="38.1239510" lon="15.1125110">
        <ele>7.8300000</ele>
        <time>2013-06-14T13:47:38Z</time>
      </trkpt>
      <trkpt lat="38.1239550" lon="15.1125090">
        <ele>7.3500000</ele>
        <time>2013-06-14T13:48:13Z</time>
      </trkpt>
      <trkpt lat="38.1239550" lon="15.1125090">
        <ele>7.3500000</ele>
        <time>2013-06-14T13:48:45Z</time>
      </trkpt>
      <trkpt lat="38.1239550" lon="15.1125060">
        <ele>7.8300000</ele>
        <time>2013-06-14T13:49:21Z</time>
      </trkpt>
      <trkpt lat="38.1239590" lon="15.1125080">
        <ele>7.8300000</ele>
        <time>2013-06-14T13:49:58Z</time>
      </trkpt>
      <trkpt lat="38.1239620" lon="15.1125130">
        <ele>7.8300000</ele>
        <time>2013-06-14T13:50:32Z</time>
      </trkpt>
      <trkpt lat="38.1239620" lon="15.1125100">
        <ele>7.3500000</ele>
        <time>2013-06-14T13:51:10Z</time>
      </trkpt>
      <trkpt lat="38.1239620" lon="15.1125050">
        <ele>7.8300000</ele>
        <time>2013-06-14T13:51:49Z</time>
      </trkpt>
      <trkpt lat="38.1239660" lon="15.1125050">
        <ele>8.3100000</ele>
        <time>2013-06-14T13:52:23Z</time>
      </trkpt>
      <trkpt lat="38.1239700" lon="15.1125040">
        <ele>7.8300000</ele>
        <time>2013-06-14T13:53:00Z</time>
      </trkpt>
      <trkpt lat="38.1239740" lon="15.1124990">
        <ele>7.8300000</ele>
        <time>2013-06-14T13:53:40Z</time>
      </trkpt>
      <trkpt lat="38.1239740" lon="15.1124940">
        <ele>7.8300000</ele>
        <time>2013-06-14T13:54:23Z</time>
      </trkpt>
      <trkpt lat="38.1239740" lon="15.1124930">
        <ele>8.3100000</ele>
        <time>2013-06-14T13:55:01Z</time>
      </trkpt>
      <trkpt lat="38.1239780" lon="15.1124870">
        <ele>8.3100000</ele>
        <time>2013-06-14T13:55:33Z</time>
      </trkpt>
      <trkpt lat="38.1239780" lon="15.1124870">
        <ele>8.3100000</ele>
        <time>2013-06-14T13:56:16Z</time>
      </trkpt>
      <trkpt lat="38.1239780" lon="15.1124870">
        <ele>8.3100000</ele>
        <time>2013-06-14T13:56:54Z</time>
      </trkpt>
      <trkpt lat="38.1239780" lon="15.1124870">
        <ele>8.7900000</ele>
        <time>2013-06-14T13:57:29Z</time>
      </trkpt>
      <trkpt lat="38.1239780" lon="15.1124860">
        <ele>8.7900000</ele>
        <time>2013-06-14T13:58:02Z</time>
      </trkpt>
      <trkpt lat="38.1239740" lon="15.1124910">
        <ele>8.7900000</ele>
        <time>2013-06-14T13:58:39Z</time>
      </trkpt>
      <trkpt lat="38.1239700" lon="15.1124910">
        <ele>8.7900000</ele>
        <time>2013-06-14T13:59:08Z</time>
      </trkpt>
      <trkpt lat="38.1239700" lon="15.1124900">
        <ele>8.7900000</ele>
        <time>2013-06-14T13:59:42Z</time>
      </trkpt>
      <trkpt lat="38.1239660" lon="15.1124890">
        <ele>8.7900000</ele>
        <time>2013-06-14T14:00:14Z</time>
      </trkpt>
      <trkpt lat="38.1239660" lon="15.1124890">
        <ele>8.7900000</ele>
        <time>2013-06-14T14:00:43Z</time>
      </trkpt>
      <trkpt lat="38.1239620" lon="15.1124910">
        <ele>8.7900000</ele>
        <time>2013-06-14T14:01:15Z</time>
      </trkpt>
      <trkpt lat="38.1239590" lon="15.1124930">
        <ele>9.7500000</ele>
        <time>2013-06-14T14:01:48Z</time>
      </trkpt>
      <trkpt lat="38.1239550" lon="15.1124940">
        <ele>9.2700000</ele>
        <time>2013-06-14T14:02:21Z</time>
      </trkpt>
      <trkpt lat="38.1239550" lon="15.1124940">
        <ele>8.7900000</ele>
        <time>2013-06-14T14:02:52Z</time>
      </trkpt>
      <trkpt lat="38.1239550" lon="15.1124940">
        <ele>9.2700000</ele>
        <time>2013-06-14T14:03:25Z</time>
      </trkpt>
      <trkpt lat="38.1239550" lon="15.1124940">
        <ele>9.2700000</ele>
        <time>2013-06-14T14:04:02Z</time>
      </trkpt>
      <trkpt lat="38.1239550" lon="15.1124940">
        <ele>8.7900000</ele>
        <time>2013-06-14T14:04:31Z</time>
      </trkpt>
      <trkpt lat="38.1239550" lon="15.1124940">
        <ele>9.2700000</ele>
        <time>2013-06-14T14:05:02Z</time>
      </trkpt>
      <trkpt lat="38.1239550" lon="15.1124940">
        <ele>9.7500000</ele>
        <time>2013-06-14T14:05:33Z</time>
      </trkpt>
      <trkpt lat="38.1239550" lon="15.1124940">
        <ele>9.2700000</ele>
        <time>2013-06-14T14:06:03Z</time>
      </trkpt>
      <trkpt lat="38.1239550" lon="15.1124930">
        <ele>9.7500000</ele>
        <time>2013-06-14T14:06:30Z</time>
      </trkpt>
      <trkpt lat="38.1239550" lon="15.1124960">
        <ele>9.7500000</ele>
        <time>2013-06-14T14:07:03Z</time>
      </trkpt>
      <trkpt lat="38.1239510" lon="15.1124980">
        <ele>9.2700000</ele>
        <time>2013-06-14T14:07:39Z</time>
      </trkpt>
      <trkpt lat="38.1239510" lon="15.1124980">
        <ele>9.2700000</ele>
        <time>2013-06-14T14:08:12Z</time>
      </trkpt>
      <trkpt lat="38.1239510" lon="15.1124980">
        <ele>9.2700000</ele>
        <time>2013-06-14T14:08:46Z</time>
      </trkpt>
      <trkpt lat="38.1239470" lon="15.1124960">
        <ele>9.2700000</ele>
        <time>2013-06-14T14:09:17Z</time>
      </trkpt>
      <trkpt lat="38.1239470" lon="15.1124970">
        <ele>9.2700000</ele>
        <time>2013-06-14T14:09:51Z</time>
      </trkpt>
      <trkpt lat="38.1239510" lon="15.1124980">
        <ele>8.7900000</ele>
        <time>2013-06-14T14:10:25Z</time>
      </trkpt>
      <trkpt lat="38.1239510" lon="15.1124960">
        <ele>8.7900000</ele>
        <time>2013-06-14T14:10:59Z</time>
      </trkpt>
      <trkpt lat="38.1239510" lon="15.1124960">
        <ele>9.2700000</ele>
        <time>2013-06-14T14:11:34Z</time>
      </trkpt>
      <trkpt lat="38.1239510" lon="15.1124980">
        <ele>8.7900000</ele>
        <time>2013-06-14T14:12:12Z</time>
      </trkpt>
      <trkpt lat="38.1239510" lon="15.1124980">
        <ele>8.7900000</ele>
        <time>2013-06-14T14:12:47Z</time>
      </trkpt>
      <trkpt lat="38.1239510" lon="15.1124950">
        <ele>8.7900000</ele>
        <time>2013-06-14T14:13:22Z</time>
      </trkpt>
      <trkpt lat="38.1239510" lon="15.1124940">
        <ele>9.2700000</ele>
        <time>2013-06-14T14:13:46Z</time>
      </trkpt>
      <trkpt lat="38.1239510" lon="15.1124930">
        <ele>8.7900000</ele>
        <time>2013-06-14T14:14:13Z</time>
      </trkpt>
      <trkpt lat="38.1239510" lon="15.1124930">
        <ele>9.2700000</ele>
        <time>2013-06-14T14:14:47Z</time>
      </trkpt>
      <trkpt lat="38.1239470" lon="15.1124920">
        <ele>8.7900000</ele>
        <time>2013-06-14T14:15:20Z</time>
      </trkpt>
      <trkpt lat="38.1239510" lon="15.1124910">
        <ele>9.2700000</ele>
        <time>2013-06-14T14:15:49Z</time>
      </trkpt>
      <trkpt lat="38.1239510" lon="15.1124930">
        <ele>8.7900000</ele>
        <time>2013-06-14T14:16:18Z</time>
      </trkpt>
      <trkpt lat="38.1239510" lon="15.1124930">
        <ele>8.7900000</ele>
        <time>2013-06-14T14:16:53Z</time>
      </trkpt>
      <trkpt lat="38.1239510" lon="15.1124930">
        <ele>8.3100000</ele>
        <time>2013-06-14T14:17:29Z</time>
      </trkpt>
      <trkpt lat="38.1239470" lon="15.1124940">
        <ele>8.3100000</ele>
        <time>2013-06-14T14:18:04Z</time>
      </trkpt>
      <trkpt lat="38.1239470" lon="15.1124940">
        <ele>8.3100000</ele>
        <time>2013-06-14T14:18:39Z</time>
      </trkpt>
      <trkpt lat="38.1239400" lon="15.1124950">
        <ele>8.3100000</ele>
        <time>2013-06-14T14:19:16Z</time>
      </trkpt>
      <trkpt lat="38.1239360" lon="15.1124940">
        <ele>8.7900000</ele>
        <time>2013-06-14T14:19:52Z</time>
      </trkpt>
      <trkpt lat="38.1239320" lon="15.1124950">
        <ele>8.7900000</ele>
        <time>2013-06-14T14:20:27Z</time>
      </trkpt>
      <trkpt lat="38.1239320" lon="15.1124970">
        <ele>8.7900000</ele>
        <time>2013-06-14T14:21:03Z</time>
      </trkpt>
      <trkpt lat="38.1239280" lon="15.1124970">
        <ele>8.7900000</ele>
        <time>2013-06-14T14:21:38Z</time>
      </trkpt>
      <trkpt lat="38.1239280" lon="15.1124990">
        <ele>8.3100000</ele>
        <time>2013-06-14T14:22:15Z</time>
      </trkpt>
      <trkpt lat="38.1239320" lon="15.1125010">
        <ele>8.7900000</ele>
        <time>2013-06-14T14:22:52Z</time>
      </trkpt>
      <trkpt lat="38.1239320" lon="15.1125010">
        <ele>8.7900000</ele>
        <time>2013-06-14T14:23:27Z</time>
      </trkpt>
      <trkpt lat="38.1239280" lon="15.1124980">
        <ele>8.3100000</ele>
        <time>2013-06-14T14:24:02Z</time>
      </trkpt>
      <trkpt lat="38.1239360" lon="15.1125010">
        <ele>8.3100000</ele>
        <time>2013-06-14T14:24:35Z</time>
      </trkpt>
      <trkpt lat="38.1239320" lon="15.1125010">
        <ele>8.3100000</ele>
        <time>2013-06-14T14:25:09Z</time>
      </trkpt>
      <trkpt lat="38.1239320" lon="15.1125020">
        <ele>8.7900000</ele>
        <time>2013-06-14T14:25:49Z</time>
      </trkpt>
      <trkpt lat="38.1239320" lon="15.1125030">
        <ele>8.3100000</ele>
        <time>2013-06-14T14:26:22Z</time>
      </trkpt>
      <trkpt lat="38.1239360" lon="15.1125050">
        <ele>8.3100000</ele>
        <time>2013-06-14T14:26:57Z</time>
      </trkpt>
      <trkpt lat="38.1239360" lon="15.1125060">
        <ele>8.3100000</ele>
        <time>2013-06-14T14:27:32Z</time>
      </trkpt>
      <trkpt lat="38.1239360" lon="15.1125060">
        <ele>8.7900000</ele>
        <time>2013-06-14T14:28:07Z</time>
      </trkpt>
      <trkpt lat="38.1239360" lon="15.1125030">
        <ele>8.3100000</ele>
        <time>2013-06-14T14:28:50Z</time>
      </trkpt>
      <trkpt lat="38.1239360" lon="15.1124990">
        <ele>8.3100000</ele>
        <time>2013-06-14T14:29:23Z</time>
      </trkpt>
      <trkpt lat="38.1239360" lon="15.1124970">
        <ele>8.3100000</ele>
        <time>2013-06-14T14:30:01Z</time>
      </trkpt>
      <trkpt lat="38.1239360" lon="15.1124940">
        <ele>8.7900000</ele>
        <time>2013-06-14T14:30:33Z</time>
      </trkpt>
      <trkpt lat="38.1239320" lon="15.1124900">
        <ele>8.3100000</ele>
        <time>2013-06-14T14:31:04Z</time>
      </trkpt>
      <trkpt lat="38.1239320" lon="15.1124890">
        <ele>7.3500000</ele>
        <time>2013-06-14T14:31:09Z</time>
      </trkpt>
    </trkseg>
  </trk>

</gpx>
